<?xml version='1.0' encoding='UTF-8'?><gpx version="1.1" creator="JPX - https://github.com/jenetics/jpx" xmlns="http://www.topografix.com/GPX/1/1"><trk><trkseg><trkpt lat="45.053795" lon="9.65026"><ele>62.0</ele><time>2026-04-26T08:05:32.937Z</time></trkpt><trkpt lat="45.0538633" lon="9.6502733"><ele>62.0</ele><time>2026-04-26T08:05:37.939Z</time></trkpt><trkpt lat="45.0537917" lon="9.6502917"><ele>62.0</ele><time>2026-04-26T08:05:51.936Z</time></trkpt><trkpt lat="45.0536867" lon="9.65026"><ele>62.0</ele><time>2026-04-26T08:05:53.934Z</time></trkpt><trkpt lat="45.0535867" lon="9.6502183"><ele>62.0</ele><time>2026-04-26T08:05:54.935Z</time></trkpt><trkpt lat="45.0534767" lon="9.6501817"><ele>62.0</ele><time>2026-04-26T08:05:55.935Z</time></trkpt><trkpt lat="45.0533633" lon="9.6501433"><ele>62.0</ele><time>2026-04-26T08:05:56.936Z</time></trkpt><trkpt lat="45.0532317" lon="9.6501"><ele>62.0</ele><time>2026-04-26T08:05:57.934Z</time></trkpt><trkpt lat="45.0530617" lon="9.650065"><ele>62.0</ele><time>2026-04-26T08:05:58.935Z</time></trkpt><trkpt lat="45.05291" lon="9.6500233"><ele>61.0</ele><time>2026-04-26T08:05:59.935Z</time></trkpt><trkpt lat="45.0527533" lon="9.6499833"><ele>60.0</ele><time>2026-04-26T08:06:00.934Z</time></trkpt><trkpt lat="45.052595" lon="9.649945"><ele>59.0</ele><time>2026-04-26T08:06:01.944Z</time></trkpt><trkpt lat="45.0524367" lon="9.649905"><ele>59.0</ele><time>2026-04-26T08:06:02.934Z</time></trkpt><trkpt lat="45.0522883" lon="9.64986"><ele>59.0</ele><time>2026-04-26T08:06:03.939Z</time></trkpt><trkpt lat="45.0521483" lon="9.6498267"><ele>59.0</ele><time>2026-04-26T08:06:04.936Z</time></trkpt><trkpt lat="45.0520283" lon="9.6497917"><ele>59.0</ele><time>2026-04-26T08:06:05.935Z</time></trkpt><trkpt lat="45.0519183" lon="9.6497667"><ele>59.0</ele><time>2026-04-26T08:06:06.941Z</time></trkpt><trkpt lat="45.0518267" lon="9.64974"><ele>59.00000000000001</ele><time>2026-04-26T08:06:07.934Z</time></trkpt><trkpt lat="45.0517567" lon="9.64971"><ele>59.00000000000001</ele><time>2026-04-26T08:06:08.934Z</time></trkpt><trkpt lat="45.0517017" lon="9.649665"><ele>59.0</ele><time>2026-04-26T08:06:09.937Z</time></trkpt><trkpt lat="45.0516567" lon="9.6494933"><ele>59.0</ele><time>2026-04-26T08:06:11.936Z</time></trkpt><trkpt lat="45.0516667" lon="9.649345"><ele>59.5</ele><time>2026-04-26T08:06:12.937Z</time></trkpt><trkpt lat="45.05168" lon="9.6491833"><ele>60.0</ele><time>2026-04-26T08:06:13.935Z</time></trkpt><trkpt lat="45.0516967" lon="9.6489783"><ele>60.5</ele><time>2026-04-26T08:06:14.935Z</time></trkpt><trkpt lat="45.0517167" lon="9.648765"><ele>61.0</ele><time>2026-04-26T08:06:15.935Z</time></trkpt><trkpt lat="45.051735" lon="9.6485483"><ele>61.0</ele><time>2026-04-26T08:06:16.936Z</time></trkpt><trkpt lat="45.051755" lon="9.6483283"><ele>61.0</ele><time>2026-04-26T08:06:17.941Z</time></trkpt><trkpt lat="45.051775" lon="9.64811"><ele>61.0</ele><time>2026-04-26T08:06:18.937Z</time></trkpt><trkpt lat="45.051795" lon="9.647895"><ele>60.75</ele><time>2026-04-26T08:06:19.936Z</time></trkpt><trkpt lat="45.0518167" lon="9.647685"><ele>60.5</ele><time>2026-04-26T08:06:20.937Z</time></trkpt><trkpt lat="45.0518283" lon="9.6474933"><ele>60.25</ele><time>2026-04-26T08:06:21.936Z</time></trkpt><trkpt lat="45.05184" lon="9.64734"><ele>60.0</ele><time>2026-04-26T08:06:22.936Z</time></trkpt><trkpt lat="45.051855" lon="9.64718"><ele>60.0</ele><time>2026-04-26T08:06:23.936Z</time></trkpt><trkpt lat="45.0518717" lon="9.6470083"><ele>60.0</ele><time>2026-04-26T08:06:24.936Z</time></trkpt><trkpt lat="45.051885" lon="9.6468267"><ele>60.0</ele><time>2026-04-26T08:06:25.937Z</time></trkpt><trkpt lat="45.0518967" lon="9.6466367"><ele>60.0</ele><time>2026-04-26T08:06:26.935Z</time></trkpt><trkpt lat="45.0519133" lon="9.64644"><ele>60.0</ele><time>2026-04-26T08:06:27.94Z</time></trkpt><trkpt lat="45.05193" lon="9.6462333"><ele>60.0</ele><time>2026-04-26T08:06:28.934Z</time></trkpt><trkpt lat="45.051945" lon="9.6460217"><ele>60.0</ele><time>2026-04-26T08:06:29.935Z</time></trkpt><trkpt lat="45.0519583" lon="9.6458117"><ele>60.0</ele><time>2026-04-26T08:06:30.936Z</time></trkpt><trkpt lat="45.0519733" lon="9.6456"><ele>60.0</ele><time>2026-04-26T08:06:31.935Z</time></trkpt><trkpt lat="45.0519833" lon="9.6453833"><ele>60.0</ele><time>2026-04-26T08:06:32.943Z</time></trkpt><trkpt lat="45.051985" lon="9.6451633"><ele>60.0</ele><time>2026-04-26T08:06:33.935Z</time></trkpt><trkpt lat="45.0519817" lon="9.6449417"><ele>59.0</ele><time>2026-04-26T08:06:34.935Z</time></trkpt><trkpt lat="45.05197" lon="9.6447183"><ele>58.0</ele><time>2026-04-26T08:06:35.936Z</time></trkpt><trkpt lat="45.051975" lon="9.6444867"><ele>57.0</ele><time>2026-04-26T08:06:36.935Z</time></trkpt><trkpt lat="45.051985" lon="9.644235"><ele>57.0</ele><time>2026-04-26T08:06:37.934Z</time></trkpt><trkpt lat="45.052" lon="9.643975"><ele>57.0</ele><time>2026-04-26T08:06:38.934Z</time></trkpt><trkpt lat="45.0520183" lon="9.6437083"><ele>57.0</ele><time>2026-04-26T08:06:39.936Z</time></trkpt><trkpt lat="45.05204" lon="9.6434383"><ele>57.0</ele><time>2026-04-26T08:06:40.935Z</time></trkpt><trkpt lat="45.05206" lon="9.64317"><ele>57.0</ele><time>2026-04-26T08:06:41.941Z</time></trkpt><trkpt lat="45.05208" lon="9.6429117"><ele>57.0</ele><time>2026-04-26T08:06:42.938Z</time></trkpt><trkpt lat="45.0520983" lon="9.6426567"><ele>57.0</ele><time>2026-04-26T08:06:43.936Z</time></trkpt><trkpt lat="45.0521183" lon="9.642405"><ele>57.0</ele><time>2026-04-26T08:06:44.939Z</time></trkpt><trkpt lat="45.0521383" lon="9.642155"><ele>57.0</ele><time>2026-04-26T08:06:45.933Z</time></trkpt><trkpt lat="45.05216" lon="9.64191"><ele>57.33333333333333</ele><time>2026-04-26T08:06:46.934Z</time></trkpt><trkpt lat="45.0521817" lon="9.64166"><ele>57.666666666666664</ele><time>2026-04-26T08:06:47.935Z</time></trkpt><trkpt lat="45.0522133" lon="9.6414067"><ele>58.0</ele><time>2026-04-26T08:06:48.936Z</time></trkpt><trkpt lat="45.0522517" lon="9.641155"><ele>57.0</ele><time>2026-04-26T08:06:49.934Z</time></trkpt><trkpt lat="45.0522983" lon="9.6409117"><ele>56.0</ele><time>2026-04-26T08:06:50.941Z</time></trkpt><trkpt lat="45.05236" lon="9.6406717"><ele>55.0</ele><time>2026-04-26T08:06:51.935Z</time></trkpt><trkpt lat="45.0524467" lon="9.6404467"><ele>56.33333333333333</ele><time>2026-04-26T08:06:52.934Z</time></trkpt><trkpt lat="45.0525517" lon="9.640235"><ele>57.66666666666667</ele><time>2026-04-26T08:06:53.934Z</time></trkpt><trkpt lat="45.0526733" lon="9.64004"><ele>59.0</ele><time>2026-04-26T08:06:54.933Z</time></trkpt><trkpt lat="45.0528033" lon="9.6398567"><ele>59.0</ele><time>2026-04-26T08:06:55.934Z</time></trkpt><trkpt lat="45.0529433" lon="9.6396917"><ele>59.0</ele><time>2026-04-26T08:06:56.934Z</time></trkpt><trkpt lat="45.0530967" lon="9.6395467"><ele>59.0</ele><time>2026-04-26T08:06:57.935Z</time></trkpt><trkpt lat="45.05326" lon="9.6394217"><ele>58.333333333333336</ele><time>2026-04-26T08:06:58.935Z</time></trkpt><trkpt lat="45.0534283" lon="9.6393183"><ele>57.66666666666667</ele><time>2026-04-26T08:06:59.935Z</time></trkpt><trkpt lat="45.0535983" lon="9.639235"><ele>57.0</ele><time>2026-04-26T08:07:00.934Z</time></trkpt><trkpt lat="45.0537667" lon="9.6391633"><ele>57.0</ele><time>2026-04-26T08:07:01.934Z</time></trkpt><trkpt lat="45.0539283" lon="9.6390933"><ele>57.0</ele><time>2026-04-26T08:07:02.934Z</time></trkpt><trkpt lat="45.0540833" lon="9.6390367"><ele>57.0</ele><time>2026-04-26T08:07:03.938Z</time></trkpt><trkpt lat="45.0542267" lon="9.638985"><ele>57.25</ele><time>2026-04-26T08:07:04.933Z</time></trkpt><trkpt lat="45.0543583" lon="9.63894"><ele>57.5</ele><time>2026-04-26T08:07:05.934Z</time></trkpt><trkpt lat="45.0544733" lon="9.638895"><ele>57.75</ele><time>2026-04-26T08:07:06.935Z</time></trkpt><trkpt lat="45.054575" lon="9.638855"><ele>58.0</ele><time>2026-04-26T08:07:07.934Z</time></trkpt><trkpt lat="45.0546633" lon="9.638825"><ele>57.99999999999999</ele><time>2026-04-26T08:07:08.939Z</time></trkpt><trkpt lat="45.054735" lon="9.6388033"><ele>58.0</ele><time>2026-04-26T08:07:09.934Z</time></trkpt><trkpt lat="45.054815" lon="9.6387667"><ele>58.0</ele><time>2026-04-26T08:07:11.934Z</time></trkpt><trkpt lat="45.0547867" lon="9.63868"><ele>58.0</ele><time>2026-04-26T08:07:15.934Z</time></trkpt><trkpt lat="45.0547217" lon="9.6386883"><ele>57.99999999999999</ele><time>2026-04-26T08:07:16.933Z</time></trkpt><trkpt lat="45.05462" lon="9.6387367"><ele>58.0</ele><time>2026-04-26T08:07:17.937Z</time></trkpt><trkpt lat="45.0545" lon="9.6387883"><ele>58.0</ele><time>2026-04-26T08:07:18.933Z</time></trkpt><trkpt lat="45.0543683" lon="9.638835"><ele>58.0</ele><time>2026-04-26T08:07:19.934Z</time></trkpt><trkpt lat="45.0542217" lon="9.6388867"><ele>58.0</ele><time>2026-04-26T08:07:20.935Z</time></trkpt><trkpt lat="45.0540683" lon="9.6389433"><ele>58.0</ele><time>2026-04-26T08:07:21.934Z</time></trkpt><trkpt lat="45.0539167" lon="9.6390067"><ele>57.666666666666664</ele><time>2026-04-26T08:07:22.933Z</time></trkpt><trkpt lat="45.053765" lon="9.63907"><ele>57.33333333333333</ele><time>2026-04-26T08:07:23.934Z</time></trkpt><trkpt lat="45.0536083" lon="9.6391333"><ele>57.0</ele><time>2026-04-26T08:07:24.935Z</time></trkpt><trkpt lat="45.0534467" lon="9.63919"><ele>57.66666666666667</ele><time>2026-04-26T08:07:25.937Z</time></trkpt><trkpt lat="45.0532883" lon="9.6392417"><ele>58.333333333333336</ele><time>2026-04-26T08:07:26.934Z</time></trkpt><trkpt lat="45.0531367" lon="9.63928"><ele>59.0</ele><time>2026-04-26T08:07:27.934Z</time></trkpt><trkpt lat="45.0529817" lon="9.639295"><ele>59.0</ele><time>2026-04-26T08:07:28.937Z</time></trkpt><trkpt lat="45.0528267" lon="9.6392783"><ele>59.0</ele><time>2026-04-26T08:07:29.934Z</time></trkpt><trkpt lat="45.0526717" lon="9.6392383"><ele>59.0</ele><time>2026-04-26T08:07:30.934Z</time></trkpt><trkpt lat="45.0525233" lon="9.639175"><ele>59.66666666666667</ele><time>2026-04-26T08:07:31.933Z</time></trkpt><trkpt lat="45.0523717" lon="9.63911"><ele>60.33333333333333</ele><time>2026-04-26T08:07:32.938Z</time></trkpt><trkpt lat="45.0522133" lon="9.6390583"><ele>61.0</ele><time>2026-04-26T08:07:33.939Z</time></trkpt><trkpt lat="45.0520567" lon="9.6390083"><ele>61.0</ele><time>2026-04-26T08:07:34.934Z</time></trkpt><trkpt lat="45.0518983" lon="9.6389667"><ele>61.0</ele><time>2026-04-26T08:07:35.933Z</time></trkpt><trkpt lat="45.0517417" lon="9.6389367"><ele>61.0</ele><time>2026-04-26T08:07:36.934Z</time></trkpt><trkpt lat="45.0515783" lon="9.63894"><ele>60.0</ele><time>2026-04-26T08:07:37.935Z</time></trkpt><trkpt lat="45.0514083" lon="9.6389467"><ele>59.0</ele><time>2026-04-26T08:07:38.934Z</time></trkpt><trkpt lat="45.0512417" lon="9.6389533"><ele>58.0</ele><time>2026-04-26T08:07:39.934Z</time></trkpt><trkpt lat="45.051075" lon="9.6389217"><ele>58.0</ele><time>2026-04-26T08:07:40.939Z</time></trkpt><trkpt lat="45.05091" lon="9.6388683"><ele>58.0</ele><time>2026-04-26T08:07:41.934Z</time></trkpt><trkpt lat="45.050745" lon="9.638795"><ele>58.0</ele><time>2026-04-26T08:07:42.936Z</time></trkpt><trkpt lat="45.0505833" lon="9.638705"><ele>57.33333333333333</ele><time>2026-04-26T08:07:43.937Z</time></trkpt><trkpt lat="45.0504233" lon="9.6386183"><ele>56.66666666666667</ele><time>2026-04-26T08:07:44.934Z</time></trkpt><trkpt lat="45.0502517" lon="9.6385583"><ele>56.0</ele><time>2026-04-26T08:07:45.934Z</time></trkpt><trkpt lat="45.050075" lon="9.63853"><ele>56.0</ele><time>2026-04-26T08:07:46.934Z</time></trkpt><trkpt lat="45.0499" lon="9.6385233"><ele>56.0</ele><time>2026-04-26T08:07:47.935Z</time></trkpt><trkpt lat="45.0497217" lon="9.6385233"><ele>56.0</ele><time>2026-04-26T08:07:48.939Z</time></trkpt><trkpt lat="45.0495483" lon="9.638545"><ele>56.0</ele><time>2026-04-26T08:07:49.936Z</time></trkpt><trkpt lat="45.049375" lon="9.6385967"><ele>56.0</ele><time>2026-04-26T08:07:50.938Z</time></trkpt><trkpt lat="45.0492083" lon="9.6386633"><ele>56.0</ele><time>2026-04-26T08:07:51.934Z</time></trkpt><trkpt lat="45.04904" lon="9.6387333"><ele>56.0</ele><time>2026-04-26T08:07:52.934Z</time></trkpt><trkpt lat="45.0488683" lon="9.63879"><ele>56.0</ele><time>2026-04-26T08:07:53.933Z</time></trkpt><trkpt lat="45.0486933" lon="9.6388317"><ele>56.0</ele><time>2026-04-26T08:07:54.936Z</time></trkpt><trkpt lat="45.0485167" lon="9.638855"><ele>56.0</ele><time>2026-04-26T08:07:55.935Z</time></trkpt><trkpt lat="45.04834" lon="9.6388533"><ele>56.0</ele><time>2026-04-26T08:07:56.938Z</time></trkpt><trkpt lat="45.04816" lon="9.6388217"><ele>56.0</ele><time>2026-04-26T08:07:57.934Z</time></trkpt><trkpt lat="45.0479783" lon="9.6387733"><ele>57.0</ele><time>2026-04-26T08:07:58.934Z</time></trkpt><trkpt lat="45.0477933" lon="9.6387217"><ele>58.0</ele><time>2026-04-26T08:07:59.937Z</time></trkpt><trkpt lat="45.047615" lon="9.638665"><ele>59.0</ele><time>2026-04-26T08:08:00.933Z</time></trkpt><trkpt lat="45.0474383" lon="9.6386083"><ele>59.0</ele><time>2026-04-26T08:08:01.94Z</time></trkpt><trkpt lat="45.0472567" lon="9.6385483"><ele>59.0</ele><time>2026-04-26T08:08:02.934Z</time></trkpt><trkpt lat="45.04708" lon="9.638495"><ele>59.0</ele><time>2026-04-26T08:08:03.935Z</time></trkpt><trkpt lat="45.0469033" lon="9.6384483"><ele>59.0</ele><time>2026-04-26T08:08:04.934Z</time></trkpt><trkpt lat="45.046725" lon="9.6384083"><ele>59.0</ele><time>2026-04-26T08:08:05.934Z</time></trkpt><trkpt lat="45.0465433" lon="9.63837"><ele>59.0</ele><time>2026-04-26T08:08:06.934Z</time></trkpt><trkpt lat="45.0463633" lon="9.63833"><ele>59.333333333333336</ele><time>2026-04-26T08:08:07.936Z</time></trkpt><trkpt lat="45.0461867" lon="9.6382933"><ele>59.66666666666667</ele><time>2026-04-26T08:08:08.935Z</time></trkpt><trkpt lat="45.04601" lon="9.6382633"><ele>60.0</ele><time>2026-04-26T08:08:09.934Z</time></trkpt><trkpt lat="45.0458383" lon="9.6382417"><ele>60.25</ele><time>2026-04-26T08:08:10.934Z</time></trkpt><trkpt lat="45.0456833" lon="9.63822"><ele>60.5</ele><time>2026-04-26T08:08:11.934Z</time></trkpt><trkpt lat="45.0455567" lon="9.6381983"><ele>60.75</ele><time>2026-04-26T08:08:12.933Z</time></trkpt><trkpt lat="45.0454583" lon="9.6381783"><ele>61.0</ele><time>2026-04-26T08:08:13.935Z</time></trkpt><trkpt lat="45.0453783" lon="9.6381583"><ele>60.99999999999999</ele><time>2026-04-26T08:08:14.934Z</time></trkpt><trkpt lat="45.0453117" lon="9.6381333"><ele>61.0</ele><time>2026-04-26T08:08:15.936Z</time></trkpt><trkpt lat="45.045245" lon="9.638095"><ele>61.0</ele><time>2026-04-26T08:08:17.934Z</time></trkpt><trkpt lat="45.045135" lon="9.6380767"><ele>61.0</ele><time>2026-04-26T08:10:00.936Z</time></trkpt><trkpt lat="45.0450683" lon="9.6380683"><ele>60.99999999999999</ele><time>2026-04-26T08:10:01.935Z</time></trkpt><trkpt lat="45.044985" lon="9.6380617"><ele>61.0</ele><time>2026-04-26T08:10:02.934Z</time></trkpt><trkpt lat="45.04488" lon="9.6380467"><ele>60.33333333333333</ele><time>2026-04-26T08:10:03.935Z</time></trkpt><trkpt lat="45.044725" lon="9.63802"><ele>59.66666666666667</ele><time>2026-04-26T08:10:04.935Z</time></trkpt><trkpt lat="45.044575" lon="9.6379883"><ele>59.0</ele><time>2026-04-26T08:10:05.935Z</time></trkpt><trkpt lat="45.0444167" lon="9.6379567"><ele>59.0</ele><time>2026-04-26T08:10:06.934Z</time></trkpt><trkpt lat="45.0442533" lon="9.637925"><ele>59.0</ele><time>2026-04-26T08:10:07.935Z</time></trkpt><trkpt lat="45.044095" lon="9.6378983"><ele>59.0</ele><time>2026-04-26T08:10:08.939Z</time></trkpt><trkpt lat="45.0439283" lon="9.6378667"><ele>59.333333333333336</ele><time>2026-04-26T08:10:09.935Z</time></trkpt><trkpt lat="45.0437567" lon="9.6378183"><ele>59.66666666666667</ele><time>2026-04-26T08:10:10.935Z</time></trkpt><trkpt lat="45.043585" lon="9.6377667"><ele>60.0</ele><time>2026-04-26T08:10:11.935Z</time></trkpt><trkpt lat="45.04341" lon="9.6377067"><ele>60.33333333333333</ele><time>2026-04-26T08:10:12.935Z</time></trkpt><trkpt lat="45.0432367" lon="9.6376367"><ele>60.666666666666664</ele><time>2026-04-26T08:10:13.934Z</time></trkpt><trkpt lat="45.0430667" lon="9.637555"><ele>61.0</ele><time>2026-04-26T08:10:14.938Z</time></trkpt><trkpt lat="45.0429" lon="9.6374667"><ele>61.0</ele><time>2026-04-26T08:10:15.942Z</time></trkpt><trkpt lat="45.042735" lon="9.637365"><ele>61.0</ele><time>2026-04-26T08:10:16.934Z</time></trkpt><trkpt lat="45.042575" lon="9.637255"><ele>61.0</ele><time>2026-04-26T08:10:17.934Z</time></trkpt><trkpt lat="45.0424133" lon="9.6371467"><ele>61.0</ele><time>2026-04-26T08:10:18.934Z</time></trkpt><trkpt lat="45.0422483" lon="9.6370417"><ele>61.0</ele><time>2026-04-26T08:10:19.935Z</time></trkpt><trkpt lat="45.0420817" lon="9.636955"><ele>61.0</ele><time>2026-04-26T08:10:20.936Z</time></trkpt><trkpt lat="45.04191" lon="9.63688"><ele>61.0</ele><time>2026-04-26T08:10:21.934Z</time></trkpt><trkpt lat="45.041735" lon="9.6368033"><ele>61.0</ele><time>2026-04-26T08:10:22.934Z</time></trkpt><trkpt lat="45.04156" lon="9.6367283"><ele>61.0</ele><time>2026-04-26T08:10:23.935Z</time></trkpt><trkpt lat="45.041385" lon="9.6366517"><ele>61.33333333333333</ele><time>2026-04-26T08:10:24.938Z</time></trkpt><trkpt lat="45.04121" lon="9.6365717"><ele>61.66666666666667</ele><time>2026-04-26T08:10:25.934Z</time></trkpt><trkpt lat="45.0410333" lon="9.6364883"><ele>62.0</ele><time>2026-04-26T08:10:26.934Z</time></trkpt><trkpt lat="45.0408467" lon="9.6364033"><ele>62.0</ele><time>2026-04-26T08:10:27.935Z</time></trkpt><trkpt lat="45.04065" lon="9.6363133"><ele>62.0</ele><time>2026-04-26T08:10:28.937Z</time></trkpt><trkpt lat="45.04044" lon="9.6362167"><ele>62.0</ele><time>2026-04-26T08:10:29.934Z</time></trkpt><trkpt lat="45.0402217" lon="9.636115"><ele>62.0</ele><time>2026-04-26T08:10:30.934Z</time></trkpt><trkpt lat="45.0399967" lon="9.6360133"><ele>62.0</ele><time>2026-04-26T08:10:31.934Z</time></trkpt><trkpt lat="45.03977" lon="9.6359117"><ele>62.0</ele><time>2026-04-26T08:10:32.936Z</time></trkpt><trkpt lat="45.0395417" lon="9.6358117"><ele>62.0</ele><time>2026-04-26T08:10:33.935Z</time></trkpt><trkpt lat="45.0393167" lon="9.6357117"><ele>62.66666666666667</ele><time>2026-04-26T08:10:34.936Z</time></trkpt><trkpt lat="45.0391033" lon="9.6356167"><ele>63.33333333333333</ele><time>2026-04-26T08:10:35.941Z</time></trkpt><trkpt lat="45.0389083" lon="9.63553"><ele>64.0</ele><time>2026-04-26T08:10:36.936Z</time></trkpt><trkpt lat="45.038735" lon="9.635455"><ele>64.0</ele><time>2026-04-26T08:10:37.936Z</time></trkpt><trkpt lat="45.03858" lon="9.6353883"><ele>64.0</ele><time>2026-04-26T08:10:38.935Z</time></trkpt><trkpt lat="45.0384267" lon="9.6353217"><ele>64.0</ele><time>2026-04-26T08:10:39.936Z</time></trkpt><trkpt lat="45.0382733" lon="9.635255"><ele>63.5</ele><time>2026-04-26T08:10:40.936Z</time></trkpt><trkpt lat="45.0381283" lon="9.63519"><ele>63.0</ele><time>2026-04-26T08:10:41.936Z</time></trkpt><trkpt lat="45.037995" lon="9.6351267"><ele>62.5</ele><time>2026-04-26T08:10:42.936Z</time></trkpt><trkpt lat="45.0378783" lon="9.6350617"><ele>62.0</ele><time>2026-04-26T08:10:43.944Z</time></trkpt><trkpt lat="45.0377867" lon="9.6349783"><ele>62.0</ele><time>2026-04-26T08:10:44.936Z</time></trkpt><trkpt lat="45.0377367" lon="9.634865"><ele>62.0</ele><time>2026-04-26T08:10:45.936Z</time></trkpt><trkpt lat="45.0377233" lon="9.6347267"><ele>62.0</ele><time>2026-04-26T08:10:46.935Z</time></trkpt><trkpt lat="45.0377217" lon="9.6345717"><ele>62.0</ele><time>2026-04-26T08:10:47.937Z</time></trkpt><trkpt lat="45.0377033" lon="9.6344383"><ele>62.0</ele><time>2026-04-26T08:10:48.936Z</time></trkpt><trkpt lat="45.037665" lon="9.63434"><ele>62.0</ele><time>2026-04-26T08:10:49.936Z</time></trkpt><trkpt lat="45.0375867" lon="9.6343167"><ele>62.0</ele><time>2026-04-26T08:10:50.937Z</time></trkpt><trkpt lat="45.03748" lon="9.6343233"><ele>62.0</ele><time>2026-04-26T08:10:51.935Z</time></trkpt><trkpt lat="45.0373383" lon="9.6343467"><ele>62.0</ele><time>2026-04-26T08:10:52.935Z</time></trkpt><trkpt lat="45.037185" lon="9.634365"><ele>62.333333333333336</ele><time>2026-04-26T08:10:53.939Z</time></trkpt><trkpt lat="45.0370233" lon="9.6343833"><ele>62.66666666666667</ele><time>2026-04-26T08:10:54.936Z</time></trkpt><trkpt lat="45.03686" lon="9.6344067"><ele>63.0</ele><time>2026-04-26T08:10:55.936Z</time></trkpt><trkpt lat="45.0366983" lon="9.6344267"><ele>63.5</ele><time>2026-04-26T08:10:56.936Z</time></trkpt><trkpt lat="45.036545" lon="9.634445"><ele>64.0</ele><time>2026-04-26T08:10:57.936Z</time></trkpt><trkpt lat="45.0364017" lon="9.6344633"><ele>64.5</ele><time>2026-04-26T08:10:58.936Z</time></trkpt><trkpt lat="45.0362617" lon="9.6344817"><ele>65.0</ele><time>2026-04-26T08:10:59.936Z</time></trkpt><trkpt lat="45.0361183" lon="9.6344983"><ele>65.25</ele><time>2026-04-26T08:11:00.937Z</time></trkpt><trkpt lat="45.035975" lon="9.634515"><ele>65.5</ele><time>2026-04-26T08:11:01.934Z</time></trkpt><trkpt lat="45.0358317" lon="9.6345333"><ele>65.75</ele><time>2026-04-26T08:11:02.934Z</time></trkpt><trkpt lat="45.0356883" lon="9.634555"><ele>66.0</ele><time>2026-04-26T08:11:03.935Z</time></trkpt><trkpt lat="45.0355417" lon="9.634575"><ele>65.5</ele><time>2026-04-26T08:11:04.938Z</time></trkpt><trkpt lat="45.0354" lon="9.63459"><ele>65.0</ele><time>2026-04-26T08:11:05.934Z</time></trkpt><trkpt lat="45.0352667" lon="9.6346017"><ele>64.5</ele><time>2026-04-26T08:11:06.934Z</time></trkpt><trkpt lat="45.0351483" lon="9.6346117"><ele>64.0</ele><time>2026-04-26T08:11:07.935Z</time></trkpt><trkpt lat="45.0350333" lon="9.6346283"><ele>64.60000000000001</ele><time>2026-04-26T08:11:08.934Z</time></trkpt><trkpt lat="45.0349283" lon="9.6346433"><ele>65.2</ele><time>2026-04-26T08:11:09.94Z</time></trkpt><trkpt lat="45.0348317" lon="9.6346533"><ele>65.80000000000001</ele><time>2026-04-26T08:11:10.934Z</time></trkpt><trkpt lat="45.0347383" lon="9.634665"><ele>66.4</ele><time>2026-04-26T08:11:11.934Z</time></trkpt><trkpt lat="45.0346567" lon="9.6346767"><ele>67.0</ele><time>2026-04-26T08:11:12.934Z</time></trkpt><trkpt lat="45.03458" lon="9.6346883"><ele>67.0</ele><time>2026-04-26T08:11:13.934Z</time></trkpt><trkpt lat="45.03447" lon="9.634605"><ele>67.0</ele><time>2026-04-26T08:11:15.935Z</time></trkpt><trkpt lat="45.0344317" lon="9.634475"><ele>67.0</ele><time>2026-04-26T08:11:16.934Z</time></trkpt><trkpt lat="45.0343833" lon="9.6343167"><ele>67.0</ele><time>2026-04-26T08:11:17.934Z</time></trkpt><trkpt lat="45.0343267" lon="9.6341383"><ele>66.66666666666666</ele><time>2026-04-26T08:11:18.938Z</time></trkpt><trkpt lat="45.034255" lon="9.63394"><ele>66.33333333333333</ele><time>2026-04-26T08:11:19.936Z</time></trkpt><trkpt lat="45.03418" lon="9.633725"><ele>66.0</ele><time>2026-04-26T08:11:20.936Z</time></trkpt><trkpt lat="45.0340983" lon="9.6334983"><ele>66.0</ele><time>2026-04-26T08:11:21.935Z</time></trkpt><trkpt lat="45.0340133" lon="9.6332617"><ele>66.0</ele><time>2026-04-26T08:11:22.936Z</time></trkpt><trkpt lat="45.0339317" lon="9.6330233"><ele>66.0</ele><time>2026-04-26T08:11:23.938Z</time></trkpt><trkpt lat="45.03385" lon="9.632785"><ele>66.0</ele><time>2026-04-26T08:11:24.934Z</time></trkpt><trkpt lat="45.0337667" lon="9.6325467"><ele>66.0</ele><time>2026-04-26T08:11:25.942Z</time></trkpt><trkpt lat="45.03368" lon="9.6323083"><ele>66.0</ele><time>2026-04-26T08:11:26.934Z</time></trkpt><trkpt lat="45.0335933" lon="9.63207"><ele>66.0</ele><time>2026-04-26T08:11:27.934Z</time></trkpt><trkpt lat="45.0335067" lon="9.6318333"><ele>66.0</ele><time>2026-04-26T08:11:28.934Z</time></trkpt><trkpt lat="45.0334233" lon="9.631595"><ele>66.0</ele><time>2026-04-26T08:11:29.934Z</time></trkpt><trkpt lat="45.033345" lon="9.631355"><ele>66.0</ele><time>2026-04-26T08:11:30.933Z</time></trkpt><trkpt lat="45.033265" lon="9.6311133"><ele>66.0</ele><time>2026-04-26T08:11:31.934Z</time></trkpt><trkpt lat="45.0331833" lon="9.63087"><ele>66.0</ele><time>2026-04-26T08:11:32.934Z</time></trkpt><trkpt lat="45.0331017" lon="9.630625"><ele>66.0</ele><time>2026-04-26T08:11:33.939Z</time></trkpt><trkpt lat="45.03302" lon="9.6303783"><ele>66.0</ele><time>2026-04-26T08:11:34.934Z</time></trkpt><trkpt lat="45.0329367" lon="9.6301317"><ele>66.0</ele><time>2026-04-26T08:11:35.936Z</time></trkpt><trkpt lat="45.0328533" lon="9.6298867"><ele>66.0</ele><time>2026-04-26T08:11:36.937Z</time></trkpt><trkpt lat="45.0327683" lon="9.629645"><ele>66.0</ele><time>2026-04-26T08:11:37.936Z</time></trkpt><trkpt lat="45.032685" lon="9.6294033"><ele>66.0</ele><time>2026-04-26T08:11:38.935Z</time></trkpt><trkpt lat="45.0325983" lon="9.6291633"><ele>66.0</ele><time>2026-04-26T08:11:39.936Z</time></trkpt><trkpt lat="45.0325117" lon="9.6289267"><ele>66.0</ele><time>2026-04-26T08:11:40.939Z</time></trkpt><trkpt lat="45.0324267" lon="9.6286917"><ele>66.0</ele><time>2026-04-26T08:11:41.935Z</time></trkpt><trkpt lat="45.03234" lon="9.6284667"><ele>66.33333333333333</ele><time>2026-04-26T08:11:42.937Z</time></trkpt><trkpt lat="45.03226" lon="9.628255"><ele>66.66666666666666</ele><time>2026-04-26T08:11:43.936Z</time></trkpt><trkpt lat="45.03219" lon="9.6280567"><ele>67.0</ele><time>2026-04-26T08:11:44.936Z</time></trkpt><trkpt lat="45.0321283" lon="9.6278717"><ele>67.0</ele><time>2026-04-26T08:11:45.935Z</time></trkpt><trkpt lat="45.0320683" lon="9.6276933"><ele>67.0</ele><time>2026-04-26T08:11:46.936Z</time></trkpt><trkpt lat="45.0320133" lon="9.6275067"><ele>67.0</ele><time>2026-04-26T08:11:47.937Z</time></trkpt><trkpt lat="45.03197" lon="9.6273"><ele>67.0</ele><time>2026-04-26T08:11:48.936Z</time></trkpt><trkpt lat="45.0319383" lon="9.6270933"><ele>66.75</ele><time>2026-04-26T08:11:49.936Z</time></trkpt><trkpt lat="45.03192" lon="9.6269017"><ele>66.5</ele><time>2026-04-26T08:11:50.936Z</time></trkpt><trkpt lat="45.0319083" lon="9.6267167"><ele>66.25</ele><time>2026-04-26T08:11:51.936Z</time></trkpt><trkpt lat="45.0319" lon="9.6265483"><ele>66.0</ele><time>2026-04-26T08:11:52.935Z</time></trkpt><trkpt lat="45.0318867" lon="9.6264"><ele>66.0</ele><time>2026-04-26T08:11:53.936Z</time></trkpt><trkpt lat="45.0318617" lon="9.626275"><ele>66.0</ele><time>2026-04-26T08:11:54.939Z</time></trkpt><trkpt lat="45.0318283" lon="9.626155"><ele>66.0</ele><time>2026-04-26T08:11:55.935Z</time></trkpt><trkpt lat="45.031775" lon="9.6260567"><ele>66.0</ele><time>2026-04-26T08:11:56.941Z</time></trkpt><trkpt lat="45.03172" lon="9.62596"><ele>66.0</ele><time>2026-04-26T08:11:57.936Z</time></trkpt><trkpt lat="45.0316367" lon="9.6258417"><ele>66.66666666666667</ele><time>2026-04-26T08:11:58.937Z</time></trkpt><trkpt lat="45.0314633" lon="9.62575"><ele>67.33333333333334</ele><time>2026-04-26T08:11:59.935Z</time></trkpt><trkpt lat="45.031355" lon="9.6256233"><ele>68.0</ele><time>2026-04-26T08:12:00.936Z</time></trkpt><trkpt lat="45.0312717" lon="9.6254367"><ele>68.0</ele><time>2026-04-26T08:12:01.94Z</time></trkpt><trkpt lat="45.0311983" lon="9.62522"><ele>68.0</ele><time>2026-04-26T08:12:02.934Z</time></trkpt><trkpt lat="45.0311233" lon="9.6249917"><ele>68.0</ele><time>2026-04-26T08:12:03.934Z</time></trkpt><trkpt lat="45.0310433" lon="9.6247567"><ele>68.0</ele><time>2026-04-26T08:12:04.935Z</time></trkpt><trkpt lat="45.03096" lon="9.6245117"><ele>68.0</ele><time>2026-04-26T08:12:05.934Z</time></trkpt><trkpt lat="45.0308717" lon="9.6242683"><ele>68.0</ele><time>2026-04-26T08:12:06.935Z</time></trkpt><trkpt lat="45.03079" lon="9.6240367"><ele>68.0</ele><time>2026-04-26T08:12:07.94Z</time></trkpt><trkpt lat="45.0307167" lon="9.6238267"><ele>68.0</ele><time>2026-04-26T08:12:08.935Z</time></trkpt><trkpt lat="45.0306533" lon="9.623645"><ele>68.0</ele><time>2026-04-26T08:12:09.936Z</time></trkpt><trkpt lat="45.030595" lon="9.6234933"><ele>68.0</ele><time>2026-04-26T08:12:10.935Z</time></trkpt><trkpt lat="45.0305433" lon="9.6233767"><ele>68.0</ele><time>2026-04-26T08:12:11.933Z</time></trkpt><trkpt lat="45.0305033" lon="9.6232933"><ele>68.0</ele><time>2026-04-26T08:12:12.938Z</time></trkpt><trkpt lat="45.030465" lon="9.6231733"><ele>68.0</ele><time>2026-04-26T08:12:14.934Z</time></trkpt><trkpt lat="45.0303983" lon="9.6230017"><ele>68.0</ele><time>2026-04-26T08:12:16.933Z</time></trkpt><trkpt lat="45.0303367" lon="9.6228583"><ele>68.0</ele><time>2026-04-26T08:12:17.934Z</time></trkpt><trkpt lat="45.0302767" lon="9.62268"><ele>68.66666666666667</ele><time>2026-04-26T08:12:18.934Z</time></trkpt><trkpt lat="45.0302133" lon="9.622475"><ele>69.33333333333333</ele><time>2026-04-26T08:12:19.94Z</time></trkpt><trkpt lat="45.0301417" lon="9.622255"><ele>70.0</ele><time>2026-04-26T08:12:20.935Z</time></trkpt><trkpt lat="45.030065" lon="9.6220217"><ele>70.0</ele><time>2026-04-26T08:12:21.936Z</time></trkpt><trkpt lat="45.0299833" lon="9.6217917"><ele>70.0</ele><time>2026-04-26T08:12:22.934Z</time></trkpt><trkpt lat="45.0299017" lon="9.6215783"><ele>70.0</ele><time>2026-04-26T08:12:23.936Z</time></trkpt><trkpt lat="45.029815" lon="9.6213933"><ele>70.0</ele><time>2026-04-26T08:12:24.937Z</time></trkpt><trkpt lat="45.02971" lon="9.6212383"><ele>70.0</ele><time>2026-04-26T08:12:25.935Z</time></trkpt><trkpt lat="45.0295867" lon="9.6211067"><ele>70.0</ele><time>2026-04-26T08:12:26.939Z</time></trkpt><trkpt lat="45.0294517" lon="9.620985"><ele>70.0</ele><time>2026-04-26T08:12:27.934Z</time></trkpt><trkpt lat="45.02931" lon="9.6208783"><ele>70.0</ele><time>2026-04-26T08:12:28.935Z</time></trkpt><trkpt lat="45.0291583" lon="9.6208"><ele>70.0</ele><time>2026-04-26T08:12:29.935Z</time></trkpt><trkpt lat="45.028995" lon="9.6207333"><ele>70.0</ele><time>2026-04-26T08:12:30.934Z</time></trkpt><trkpt lat="45.028825" lon="9.6206633"><ele>70.0</ele><time>2026-04-26T08:12:31.933Z</time></trkpt><trkpt lat="45.028655" lon="9.620595"><ele>70.0</ele><time>2026-04-26T08:12:32.938Z</time></trkpt><trkpt lat="45.0284783" lon="9.62054"><ele>71.0</ele><time>2026-04-26T08:12:33.937Z</time></trkpt><trkpt lat="45.0282917" lon="9.6204967"><ele>72.0</ele><time>2026-04-26T08:12:34.942Z</time></trkpt><trkpt lat="45.0281033" lon="9.6204567"><ele>73.0</ele><time>2026-04-26T08:12:35.935Z</time></trkpt><trkpt lat="45.0279133" lon="9.62042"><ele>73.0</ele><time>2026-04-26T08:12:36.937Z</time></trkpt><trkpt lat="45.0277233" lon="9.620385"><ele>73.0</ele><time>2026-04-26T08:12:37.937Z</time></trkpt><trkpt lat="45.0275333" lon="9.6203533"><ele>73.0</ele><time>2026-04-26T08:12:38.935Z</time></trkpt><trkpt lat="45.02734" lon="9.6203233"><ele>72.66666666666666</ele><time>2026-04-26T08:12:39.942Z</time></trkpt><trkpt lat="45.02715" lon="9.6202983"><ele>72.33333333333333</ele><time>2026-04-26T08:12:40.935Z</time></trkpt><trkpt lat="45.0269617" lon="9.620285"><ele>72.0</ele><time>2026-04-26T08:12:41.934Z</time></trkpt><trkpt lat="45.026775" lon="9.6202817"><ele>71.66666666666667</ele><time>2026-04-26T08:12:42.936Z</time></trkpt><trkpt lat="45.0265883" lon="9.6202883"><ele>71.33333333333334</ele><time>2026-04-26T08:12:43.937Z</time></trkpt><trkpt lat="45.0264" lon="9.6202983"><ele>71.0</ele><time>2026-04-26T08:12:44.939Z</time></trkpt><trkpt lat="45.0262167" lon="9.620305"><ele>71.0</ele><time>2026-04-26T08:12:45.935Z</time></trkpt><trkpt lat="45.026045" lon="9.6203117"><ele>71.0</ele><time>2026-04-26T08:12:46.935Z</time></trkpt><trkpt lat="45.02589" lon="9.6203183"><ele>71.0</ele><time>2026-04-26T08:12:47.935Z</time></trkpt><trkpt lat="45.0257467" lon="9.6203233"><ele>70.75</ele><time>2026-04-26T08:12:48.936Z</time></trkpt><trkpt lat="45.025615" lon="9.6202933"><ele>70.5</ele><time>2026-04-26T08:12:49.936Z</time></trkpt><trkpt lat="45.02548" lon="9.620215"><ele>70.25</ele><time>2026-04-26T08:12:50.935Z</time></trkpt><trkpt lat="45.0253317" lon="9.6201083"><ele>70.0</ele><time>2026-04-26T08:12:51.941Z</time></trkpt><trkpt lat="45.0251767" lon="9.620005"><ele>70.0</ele><time>2026-04-26T08:12:52.935Z</time></trkpt><trkpt lat="45.0250183" lon="9.6199067"><ele>70.0</ele><time>2026-04-26T08:12:53.934Z</time></trkpt><trkpt lat="45.0248567" lon="9.6198067"><ele>70.0</ele><time>2026-04-26T08:12:54.934Z</time></trkpt><trkpt lat="45.0246917" lon="9.6197017"><ele>70.66666666666666</ele><time>2026-04-26T08:12:55.936Z</time></trkpt><trkpt lat="45.02452" lon="9.6195933"><ele>71.33333333333333</ele><time>2026-04-26T08:12:56.933Z</time></trkpt><trkpt lat="45.02435" lon="9.619485"><ele>72.0</ele><time>2026-04-26T08:12:57.941Z</time></trkpt><trkpt lat="45.0241817" lon="9.61938"><ele>71.66666666666667</ele><time>2026-04-26T08:12:58.936Z</time></trkpt><trkpt lat="45.0240133" lon="9.6192767"><ele>71.33333333333334</ele><time>2026-04-26T08:12:59.934Z</time></trkpt><trkpt lat="45.02385" lon="9.6191717"><ele>71.0</ele><time>2026-04-26T08:13:00.935Z</time></trkpt><trkpt lat="45.02369" lon="9.6190633"><ele>71.0</ele><time>2026-04-26T08:13:01.934Z</time></trkpt><trkpt lat="45.0235283" lon="9.6189517"><ele>71.0</ele><time>2026-04-26T08:13:02.934Z</time></trkpt><trkpt lat="45.0233617" lon="9.6188383"><ele>71.0</ele><time>2026-04-26T08:13:03.934Z</time></trkpt><trkpt lat="45.0231917" lon="9.6187267"><ele>72.0</ele><time>2026-04-26T08:13:04.934Z</time></trkpt><trkpt lat="45.0230233" lon="9.6186183"><ele>73.0</ele><time>2026-04-26T08:13:05.934Z</time></trkpt><trkpt lat="45.0228483" lon="9.618525"><ele>74.0</ele><time>2026-04-26T08:13:06.934Z</time></trkpt><trkpt lat="45.0226667" lon="9.61846"><ele>74.0</ele><time>2026-04-26T08:13:07.935Z</time></trkpt><trkpt lat="45.0224817" lon="9.61843"><ele>74.0</ele><time>2026-04-26T08:13:08.935Z</time></trkpt><trkpt lat="45.022295" lon="9.6184117"><ele>74.0</ele><time>2026-04-26T08:13:09.94Z</time></trkpt><trkpt lat="45.0221033" lon="9.6184"><ele>74.0</ele><time>2026-04-26T08:13:10.937Z</time></trkpt><trkpt lat="45.0219117" lon="9.61839"><ele>74.0</ele><time>2026-04-26T08:13:11.935Z</time></trkpt><trkpt lat="45.0217217" lon="9.6183783"><ele>74.0</ele><time>2026-04-26T08:13:12.936Z</time></trkpt><trkpt lat="45.0215317" lon="9.618365"><ele>73.33333333333334</ele><time>2026-04-26T08:13:13.936Z</time></trkpt><trkpt lat="45.0213433" lon="9.618355"><ele>72.66666666666667</ele><time>2026-04-26T08:13:14.935Z</time></trkpt><trkpt lat="45.0211583" lon="9.6183467"><ele>72.0</ele><time>2026-04-26T08:13:15.935Z</time></trkpt><trkpt lat="45.02097" lon="9.61834"><ele>73.33333333333333</ele><time>2026-04-26T08:13:16.941Z</time></trkpt><trkpt lat="45.0207817" lon="9.6183367"><ele>74.66666666666666</ele><time>2026-04-26T08:13:17.935Z</time></trkpt><trkpt lat="45.020595" lon="9.618335"><ele>76.0</ele><time>2026-04-26T08:13:18.935Z</time></trkpt><trkpt lat="45.0204117" lon="9.6183433"><ele>76.0</ele><time>2026-04-26T08:13:19.934Z</time></trkpt><trkpt lat="45.020235" lon="9.6183617"><ele>76.0</ele><time>2026-04-26T08:13:20.935Z</time></trkpt><trkpt lat="45.0200717" lon="9.618385"><ele>76.0</ele><time>2026-04-26T08:13:21.935Z</time></trkpt><trkpt lat="45.0199067" lon="9.6183967"><ele>75.33333333333333</ele><time>2026-04-26T08:13:22.936Z</time></trkpt><trkpt lat="45.0197333" lon="9.6183683"><ele>74.66666666666667</ele><time>2026-04-26T08:13:23.935Z</time></trkpt><trkpt lat="45.0195533" lon="9.61831"><ele>74.0</ele><time>2026-04-26T08:13:24.935Z</time></trkpt><trkpt lat="45.0193717" lon="9.6182433"><ele>74.0</ele><time>2026-04-26T08:13:25.937Z</time></trkpt><trkpt lat="45.0191883" lon="9.6181833"><ele>74.0</ele><time>2026-04-26T08:13:26.935Z</time></trkpt><trkpt lat="45.019" lon="9.6181233"><ele>74.0</ele><time>2026-04-26T08:13:27.937Z</time></trkpt><trkpt lat="45.0188133" lon="9.61806"><ele>73.66666666666667</ele><time>2026-04-26T08:13:28.939Z</time></trkpt><trkpt lat="45.0186267" lon="9.6179967"><ele>73.33333333333333</ele><time>2026-04-26T08:13:29.935Z</time></trkpt><trkpt lat="45.0184283" lon="9.6179267"><ele>73.0</ele><time>2026-04-26T08:13:30.935Z</time></trkpt><trkpt lat="45.01824" lon="9.6178567"><ele>73.0</ele><time>2026-04-26T08:13:31.934Z</time></trkpt><trkpt lat="45.0180517" lon="9.6177783"><ele>73.0</ele><time>2026-04-26T08:13:32.933Z</time></trkpt><trkpt lat="45.017865" lon="9.6176967"><ele>73.0</ele><time>2026-04-26T08:13:33.934Z</time></trkpt><trkpt lat="45.01768" lon="9.6176183"><ele>73.0</ele><time>2026-04-26T08:13:34.934Z</time></trkpt><trkpt lat="45.017495" lon="9.6175433"><ele>73.0</ele><time>2026-04-26T08:13:35.936Z</time></trkpt><trkpt lat="45.01731" lon="9.6174683"><ele>73.0</ele><time>2026-04-26T08:13:36.937Z</time></trkpt><trkpt lat="45.01713" lon="9.6173933"><ele>73.66666666666666</ele><time>2026-04-26T08:13:37.936Z</time></trkpt><trkpt lat="45.0169567" lon="9.6173183"><ele>74.33333333333333</ele><time>2026-04-26T08:13:38.935Z</time></trkpt><trkpt lat="45.016775" lon="9.6172433"><ele>75.0</ele><time>2026-04-26T08:13:39.933Z</time></trkpt><trkpt lat="45.016595" lon="9.61717"><ele>75.33333333333333</ele><time>2026-04-26T08:13:40.934Z</time></trkpt><trkpt lat="45.0164083" lon="9.6170933"><ele>75.66666666666666</ele><time>2026-04-26T08:13:41.935Z</time></trkpt><trkpt lat="45.0162217" lon="9.6170133"><ele>76.0</ele><time>2026-04-26T08:13:42.933Z</time></trkpt><trkpt lat="45.0160333" lon="9.6169317"><ele>75.66666666666666</ele><time>2026-04-26T08:13:43.939Z</time></trkpt><trkpt lat="45.0158433" lon="9.6168533"><ele>75.33333333333333</ele><time>2026-04-26T08:13:44.934Z</time></trkpt><trkpt lat="45.0156533" lon="9.6167783"><ele>75.0</ele><time>2026-04-26T08:13:45.933Z</time></trkpt><trkpt lat="45.0154633" lon="9.6167"><ele>75.0</ele><time>2026-04-26T08:13:46.934Z</time></trkpt><trkpt lat="45.0152783" lon="9.616625"><ele>75.0</ele><time>2026-04-26T08:13:47.936Z</time></trkpt><trkpt lat="45.015095" lon="9.61655"><ele>75.0</ele><time>2026-04-26T08:13:48.936Z</time></trkpt><trkpt lat="45.0149133" lon="9.616475"><ele>75.33333333333333</ele><time>2026-04-26T08:13:49.939Z</time></trkpt><trkpt lat="45.0147317" lon="9.6163983"><ele>75.66666666666666</ele><time>2026-04-26T08:13:50.934Z</time></trkpt><trkpt lat="45.0145483" lon="9.6163233"><ele>76.0</ele><time>2026-04-26T08:13:51.934Z</time></trkpt><trkpt lat="45.014365" lon="9.61625"><ele>76.0</ele><time>2026-04-26T08:13:52.934Z</time></trkpt><trkpt lat="45.014185" lon="9.616175"><ele>76.0</ele><time>2026-04-26T08:13:53.935Z</time></trkpt><trkpt lat="45.0140067" lon="9.6161017"><ele>76.0</ele><time>2026-04-26T08:13:54.939Z</time></trkpt><trkpt lat="45.0138283" lon="9.616025"><ele>75.66666666666666</ele><time>2026-04-26T08:13:55.935Z</time></trkpt><trkpt lat="45.01365" lon="9.61595"><ele>75.33333333333333</ele><time>2026-04-26T08:13:56.935Z</time></trkpt><trkpt lat="45.0134733" lon="9.61588"><ele>75.0</ele><time>2026-04-26T08:13:57.933Z</time></trkpt><trkpt lat="45.0132967" lon="9.615815"><ele>75.0</ele><time>2026-04-26T08:13:58.933Z</time></trkpt><trkpt lat="45.0131183" lon="9.6157483"><ele>75.0</ele><time>2026-04-26T08:13:59.933Z</time></trkpt><trkpt lat="45.0129383" lon="9.6156783"><ele>75.0</ele><time>2026-04-26T08:14:00.935Z</time></trkpt><trkpt lat="45.012755" lon="9.6156067"><ele>75.0</ele><time>2026-04-26T08:14:01.933Z</time></trkpt><trkpt lat="45.012575" lon="9.6155317"><ele>75.0</ele><time>2026-04-26T08:14:02.94Z</time></trkpt><trkpt lat="45.01239" lon="9.615455"><ele>75.0</ele><time>2026-04-26T08:14:03.934Z</time></trkpt><trkpt lat="45.012205" lon="9.6153767"><ele>75.33333333333333</ele><time>2026-04-26T08:14:04.935Z</time></trkpt><trkpt lat="45.01202" lon="9.6153017"><ele>75.66666666666666</ele><time>2026-04-26T08:14:05.936Z</time></trkpt><trkpt lat="45.0118367" lon="9.6152233"><ele>76.0</ele><time>2026-04-26T08:14:06.934Z</time></trkpt><trkpt lat="45.0116583" lon="9.6151467"><ele>76.66666666666666</ele><time>2026-04-26T08:14:07.935Z</time></trkpt><trkpt lat="45.0114783" lon="9.6150717"><ele>77.33333333333333</ele><time>2026-04-26T08:14:08.935Z</time></trkpt><trkpt lat="45.0113" lon="9.6149983"><ele>78.0</ele><time>2026-04-26T08:14:09.936Z</time></trkpt><trkpt lat="45.0111183" lon="9.6149233"><ele>78.0</ele><time>2026-04-26T08:14:10.935Z</time></trkpt><trkpt lat="45.0109367" lon="9.6148517"><ele>78.0</ele><time>2026-04-26T08:14:11.934Z</time></trkpt><trkpt lat="45.010755" lon="9.6147817"><ele>78.0</ele><time>2026-04-26T08:14:12.933Z</time></trkpt><trkpt lat="45.010575" lon="9.61471"><ele>78.0</ele><time>2026-04-26T08:14:13.94Z</time></trkpt><trkpt lat="45.010395" lon="9.6146383"><ele>78.0</ele><time>2026-04-26T08:14:14.933Z</time></trkpt><trkpt lat="45.0102167" lon="9.6145667"><ele>78.0</ele><time>2026-04-26T08:14:15.933Z</time></trkpt><trkpt lat="45.01004" lon="9.6144917"><ele>79.0</ele><time>2026-04-26T08:14:16.934Z</time></trkpt><trkpt lat="45.0098617" lon="9.6144167"><ele>80.0</ele><time>2026-04-26T08:14:17.933Z</time></trkpt><trkpt lat="45.0096867" lon="9.614345"><ele>81.0</ele><time>2026-04-26T08:14:18.934Z</time></trkpt><trkpt lat="45.0095217" lon="9.614275"><ele>81.0</ele><time>2026-04-26T08:14:19.94Z</time></trkpt><trkpt lat="45.0093617" lon="9.6142083"><ele>81.0</ele><time>2026-04-26T08:14:20.935Z</time></trkpt><trkpt lat="45.0092067" lon="9.6141467"><ele>81.0</ele><time>2026-04-26T08:14:21.935Z</time></trkpt><trkpt lat="45.009075" lon="9.6140933"><ele>81.19999999999999</ele><time>2026-04-26T08:14:22.935Z</time></trkpt><trkpt lat="45.00896" lon="9.614045"><ele>81.39999999999999</ele><time>2026-04-26T08:14:23.934Z</time></trkpt><trkpt lat="45.0088567" lon="9.614"><ele>81.6</ele><time>2026-04-26T08:14:24.94Z</time></trkpt><trkpt lat="45.0087617" lon="9.61396"><ele>81.8</ele><time>2026-04-26T08:14:25.934Z</time></trkpt><trkpt lat="45.0086717" lon="9.6139267"><ele>82.0</ele><time>2026-04-26T08:14:26.934Z</time></trkpt><trkpt lat="45.008595" lon="9.6139167"><ele>82.0</ele><time>2026-04-26T08:14:27.935Z</time></trkpt><trkpt lat="45.008525" lon="9.6139433"><ele>82.0</ele><time>2026-04-26T08:14:28.935Z</time></trkpt><trkpt lat="45.0084867" lon="9.6140583"><ele>82.0</ele><time>2026-04-26T08:14:29.939Z</time></trkpt><trkpt lat="45.008465" lon="9.6142167"><ele>82.0</ele><time>2026-04-26T08:14:30.934Z</time></trkpt><trkpt lat="45.0084517" lon="9.6144017"><ele>82.0</ele><time>2026-04-26T08:14:31.935Z</time></trkpt><trkpt lat="45.0084417" lon="9.6146083"><ele>82.0</ele><time>2026-04-26T08:14:32.935Z</time></trkpt><trkpt lat="45.0084317" lon="9.61482"><ele>82.0</ele><time>2026-04-26T08:14:33.935Z</time></trkpt><trkpt lat="45.0084167" lon="9.6150083"><ele>82.0</ele><time>2026-04-26T08:14:34.938Z</time></trkpt><trkpt lat="45.0083967" lon="9.6151483"><ele>82.0</ele><time>2026-04-26T08:14:35.936Z</time></trkpt><trkpt lat="45.008365" lon="9.6152483"><ele>82.25</ele><time>2026-04-26T08:14:36.935Z</time></trkpt><trkpt lat="45.0083183" lon="9.615315"><ele>82.5</ele><time>2026-04-26T08:14:37.935Z</time></trkpt><trkpt lat="45.0081683" lon="9.615285"><ele>82.75</ele><time>2026-04-26T08:14:39.936Z</time></trkpt><trkpt lat="45.0080617" lon="9.6152333"><ele>83.0</ele><time>2026-04-26T08:14:40.934Z</time></trkpt><trkpt lat="45.0079383" lon="9.6151783"><ele>83.0</ele><time>2026-04-26T08:14:41.94Z</time></trkpt><trkpt lat="45.0077967" lon="9.6151233"><ele>83.0</ele><time>2026-04-26T08:14:42.933Z</time></trkpt><trkpt lat="45.0076467" lon="9.615065"><ele>83.0</ele><time>2026-04-26T08:14:43.936Z</time></trkpt><trkpt lat="45.007495" lon="9.6150117"><ele>81.66666666666667</ele><time>2026-04-26T08:14:44.936Z</time></trkpt><trkpt lat="45.0073383" lon="9.6149667"><ele>80.33333333333333</ele><time>2026-04-26T08:14:45.935Z</time></trkpt><trkpt lat="45.0071867" lon="9.61493"><ele>79.0</ele><time>2026-04-26T08:14:46.933Z</time></trkpt><trkpt lat="45.007045" lon="9.6149017"><ele>79.0</ele><time>2026-04-26T08:14:47.933Z</time></trkpt><trkpt lat="45.00691" lon="9.6148767"><ele>79.0</ele><time>2026-04-26T08:14:48.935Z</time></trkpt><trkpt lat="45.00679" lon="9.6148517"><ele>79.0</ele><time>2026-04-26T08:14:49.934Z</time></trkpt><trkpt lat="45.00668" lon="9.6148217"><ele>79.0</ele><time>2026-04-26T08:14:50.934Z</time></trkpt><trkpt lat="45.0065867" lon="9.614785"><ele>79.80000000000001</ele><time>2026-04-26T08:14:51.935Z</time></trkpt><trkpt lat="45.006495" lon="9.6147767"><ele>80.60000000000001</ele><time>2026-04-26T08:14:52.934Z</time></trkpt><trkpt lat="45.0063967" lon="9.6148017"><ele>81.4</ele><time>2026-04-26T08:14:53.934Z</time></trkpt><trkpt lat="45.0062817" lon="9.6148267"><ele>82.2</ele><time>2026-04-26T08:14:54.934Z</time></trkpt><trkpt lat="45.0061617" lon="9.6148433"><ele>83.0</ele><time>2026-04-26T08:14:55.934Z</time></trkpt><trkpt lat="45.0060483" lon="9.6148583"><ele>83.0</ele><time>2026-04-26T08:14:56.933Z</time></trkpt><trkpt lat="45.0059417" lon="9.6148733"><ele>83.0</ele><time>2026-04-26T08:14:57.933Z</time></trkpt><trkpt lat="45.00584" lon="9.6148833"><ele>83.0</ele><time>2026-04-26T08:14:58.934Z</time></trkpt><trkpt lat="45.0057383" lon="9.6148767"><ele>83.0</ele><time>2026-04-26T08:14:59.933Z</time></trkpt><trkpt lat="45.00564" lon="9.61485"><ele>83.0</ele><time>2026-04-26T08:15:00.933Z</time></trkpt><trkpt lat="45.005545" lon="9.6147983"><ele>83.25</ele><time>2026-04-26T08:15:01.94Z</time></trkpt><trkpt lat="45.0054433" lon="9.6147383"><ele>83.5</ele><time>2026-04-26T08:15:02.935Z</time></trkpt><trkpt lat="45.0053317" lon="9.6146767"><ele>83.75</ele><time>2026-04-26T08:15:03.934Z</time></trkpt><trkpt lat="45.0052183" lon="9.6146167"><ele>84.0</ele><time>2026-04-26T08:15:04.934Z</time></trkpt><trkpt lat="45.0051" lon="9.6145617"><ele>84.25</ele><time>2026-04-26T08:15:05.934Z</time></trkpt><trkpt lat="45.0049817" lon="9.61451"><ele>84.5</ele><time>2026-04-26T08:15:06.933Z</time></trkpt><trkpt lat="45.004855" lon="9.6144583"><ele>84.75</ele><time>2026-04-26T08:15:07.934Z</time></trkpt><trkpt lat="45.0047233" lon="9.614405"><ele>85.0</ele><time>2026-04-26T08:15:08.933Z</time></trkpt><trkpt lat="45.0045917" lon="9.6143533"><ele>85.0</ele><time>2026-04-26T08:15:09.933Z</time></trkpt><trkpt lat="45.0044683" lon="9.6143"><ele>85.0</ele><time>2026-04-26T08:15:10.938Z</time></trkpt><trkpt lat="45.004355" lon="9.6142467"><ele>85.0</ele><time>2026-04-26T08:15:11.933Z</time></trkpt><trkpt lat="45.0042483" lon="9.614195"><ele>85.0</ele><time>2026-04-26T08:15:12.934Z</time></trkpt><trkpt lat="45.004135" lon="9.6141467"><ele>85.0</ele><time>2026-04-26T08:15:13.935Z</time></trkpt><trkpt lat="45.004015" lon="9.6141117"><ele>85.0</ele><time>2026-04-26T08:15:14.936Z</time></trkpt><trkpt lat="45.00388" lon="9.6140967"><ele>85.0</ele><time>2026-04-26T08:15:15.94Z</time></trkpt><trkpt lat="45.0037333" lon="9.61409"><ele>85.0</ele><time>2026-04-26T08:15:16.935Z</time></trkpt><trkpt lat="45.0035733" lon="9.6140867"><ele>85.0</ele><time>2026-04-26T08:15:17.934Z</time></trkpt><trkpt lat="45.00342" lon="9.6140833"><ele>85.0</ele><time>2026-04-26T08:15:18.935Z</time></trkpt><trkpt lat="45.0032717" lon="9.6140783"><ele>85.0</ele><time>2026-04-26T08:15:19.935Z</time></trkpt><trkpt lat="45.00313" lon="9.6140683"><ele>85.0</ele><time>2026-04-26T08:15:20.937Z</time></trkpt><trkpt lat="45.003" lon="9.6140467"><ele>85.0</ele><time>2026-04-26T08:15:21.935Z</time></trkpt><trkpt lat="45.0028817" lon="9.6140117"><ele>85.0</ele><time>2026-04-26T08:15:22.935Z</time></trkpt><trkpt lat="45.00277" lon="9.61398"><ele>85.0</ele><time>2026-04-26T08:15:23.935Z</time></trkpt><trkpt lat="45.0026567" lon="9.6139483"><ele>85.0</ele><time>2026-04-26T08:15:24.935Z</time></trkpt><trkpt lat="45.0025417" lon="9.6139133"><ele>85.25</ele><time>2026-04-26T08:15:25.935Z</time></trkpt><trkpt lat="45.0024233" lon="9.6138683"><ele>85.5</ele><time>2026-04-26T08:15:26.935Z</time></trkpt><trkpt lat="45.0023017" lon="9.6138183"><ele>85.75</ele><time>2026-04-26T08:15:27.936Z</time></trkpt><trkpt lat="45.00218" lon="9.61376"><ele>86.0</ele><time>2026-04-26T08:15:28.937Z</time></trkpt><trkpt lat="45.00206" lon="9.613705"><ele>86.0</ele><time>2026-04-26T08:15:29.934Z</time></trkpt><trkpt lat="45.0019433" lon="9.6136567"><ele>86.0</ele><time>2026-04-26T08:15:30.934Z</time></trkpt><trkpt lat="45.00182" lon="9.6136267"><ele>86.0</ele><time>2026-04-26T08:15:31.935Z</time></trkpt><trkpt lat="45.0017033" lon="9.6136033"><ele>86.0</ele><time>2026-04-26T08:15:32.935Z</time></trkpt><trkpt lat="45.0015933" lon="9.6135833"><ele>86.0</ele><time>2026-04-26T08:15:33.935Z</time></trkpt><trkpt lat="45.001495" lon="9.61357"><ele>86.0</ele><time>2026-04-26T08:15:34.935Z</time></trkpt><trkpt lat="45.0014067" lon="9.6135533"><ele>86.0</ele><time>2026-04-26T08:15:35.935Z</time></trkpt><trkpt lat="45.0013217" lon="9.6135433"><ele>86.0</ele><time>2026-04-26T08:15:36.936Z</time></trkpt><trkpt lat="45.0012383" lon="9.613535"><ele>86.0</ele><time>2026-04-26T08:15:37.938Z</time></trkpt><trkpt lat="45.001155" lon="9.61353"><ele>86.0</ele><time>2026-04-26T08:15:38.936Z</time></trkpt><trkpt lat="45.0010733" lon="9.61353"><ele>86.0</ele><time>2026-04-26T08:15:39.935Z</time></trkpt><trkpt lat="45.0009967" lon="9.6135333"><ele>86.0</ele><time>2026-04-26T08:15:40.935Z</time></trkpt><trkpt lat="45.0009233" lon="9.6135283"><ele>86.0</ele><time>2026-04-26T08:15:41.935Z</time></trkpt><trkpt lat="45.0008533" lon="9.613525"><ele>86.0</ele><time>2026-04-26T08:15:42.935Z</time></trkpt><trkpt lat="45.0007533" lon="9.6134783"><ele>86.0</ele><time>2026-04-26T08:15:44.936Z</time></trkpt><trkpt lat="45.0007283" lon="9.6133317"><ele>86.0</ele><time>2026-04-26T08:15:46.94Z</time></trkpt><trkpt lat="45.0007317" lon="9.6132133"><ele>86.25</ele><time>2026-04-26T08:15:47.935Z</time></trkpt><trkpt lat="45.00074" lon="9.6130333"><ele>86.5</ele><time>2026-04-26T08:15:48.936Z</time></trkpt><trkpt lat="45.0007467" lon="9.6128367"><ele>86.75</ele><time>2026-04-26T08:15:49.934Z</time></trkpt><trkpt lat="45.0007483" lon="9.6126383"><ele>87.0</ele><time>2026-04-26T08:15:50.936Z</time></trkpt><trkpt lat="45.0007483" lon="9.6124517"><ele>86.6</ele><time>2026-04-26T08:15:51.935Z</time></trkpt><trkpt lat="45.0007483" lon="9.6122883"><ele>86.19999999999999</ele><time>2026-04-26T08:15:52.934Z</time></trkpt><trkpt lat="45.0007517" lon="9.6121567"><ele>85.8</ele><time>2026-04-26T08:15:53.935Z</time></trkpt><trkpt lat="45.0007567" lon="9.61205"><ele>85.4</ele><time>2026-04-26T08:15:54.935Z</time></trkpt><trkpt lat="45.0007417" lon="9.611935"><ele>85.0</ele><time>2026-04-26T08:15:56.934Z</time></trkpt><trkpt lat="45.00061" lon="9.6119267"><ele>85.0</ele><time>2026-04-26T08:15:58.936Z</time></trkpt><trkpt lat="45.000515" lon="9.6119283"><ele>85.0</ele><time>2026-04-26T08:15:59.936Z</time></trkpt><trkpt lat="45.0004083" lon="9.61193"><ele>85.0</ele><time>2026-04-26T08:16:00.936Z</time></trkpt><trkpt lat="45.00028" lon="9.6119433"><ele>85.0</ele><time>2026-04-26T08:16:01.933Z</time></trkpt><trkpt lat="45.0001533" lon="9.6119617"><ele>85.0</ele><time>2026-04-26T08:16:02.933Z</time></trkpt><trkpt lat="45.00003" lon="9.6119717"><ele>85.0</ele><time>2026-04-26T08:16:03.934Z</time></trkpt><trkpt lat="44.99991" lon="9.611965"><ele>85.0</ele><time>2026-04-26T08:16:04.933Z</time></trkpt><trkpt lat="44.999785" lon="9.611955"><ele>85.0</ele><time>2026-04-26T08:16:05.94Z</time></trkpt><trkpt lat="44.999665" lon="9.611965"><ele>85.0</ele><time>2026-04-26T08:16:06.934Z</time></trkpt><trkpt lat="44.99955" lon="9.6119783"><ele>85.0</ele><time>2026-04-26T08:16:07.933Z</time></trkpt><trkpt lat="44.99945" lon="9.61199"><ele>85.0</ele><time>2026-04-26T08:16:08.934Z</time></trkpt><trkpt lat="44.9993633" lon="9.612"><ele>85.0</ele><time>2026-04-26T08:16:09.934Z</time></trkpt><trkpt lat="44.999285" lon="9.612"><ele>85.0</ele><time>2026-04-26T08:16:10.935Z</time></trkpt><trkpt lat="44.9991833" lon="9.6119917"><ele>85.0</ele><time>2026-04-26T08:16:12.935Z</time></trkpt><trkpt lat="44.9991567" lon="9.61208"><ele>85.0</ele><time>2026-04-26T08:16:15.937Z</time></trkpt><trkpt lat="44.9991767" lon="9.612195"><ele>85.0</ele><time>2026-04-26T08:16:17.933Z</time></trkpt><trkpt lat="44.99921" lon="9.612275"><ele>85.0</ele><time>2026-04-26T08:16:20.935Z</time></trkpt><trkpt lat="44.9992583" lon="9.6123467"><ele>85.0</ele><time>2026-04-26T08:16:23.934Z</time></trkpt><trkpt lat="44.99924" lon="9.6122517"><ele>85.0</ele><time>2026-04-26T08:16:34.935Z</time></trkpt><trkpt lat="44.9992" lon="9.61211"><ele>85.0</ele><time>2026-04-26T08:16:36.936Z</time></trkpt><trkpt lat="44.99922" lon="9.612025"><ele>85.0</ele><time>2026-04-26T08:16:38.936Z</time></trkpt><trkpt lat="44.9993317" lon="9.61199"><ele>85.0</ele><time>2026-04-26T08:16:40.936Z</time></trkpt><trkpt lat="44.9994133" lon="9.6119767"><ele>85.0</ele><time>2026-04-26T08:16:41.935Z</time></trkpt><trkpt lat="44.9995383" lon="9.6119733"><ele>85.0</ele><time>2026-04-26T08:16:42.935Z</time></trkpt><trkpt lat="44.99965" lon="9.61197"><ele>85.0</ele><time>2026-04-26T08:16:43.939Z</time></trkpt><trkpt lat="44.999765" lon="9.61197"><ele>85.0</ele><time>2026-04-26T08:16:44.938Z</time></trkpt><trkpt lat="44.9998783" lon="9.6119583"><ele>85.0</ele><time>2026-04-26T08:16:45.935Z</time></trkpt><trkpt lat="45.000005" lon="9.611935"><ele>85.0</ele><time>2026-04-26T08:16:46.933Z</time></trkpt><trkpt lat="45.0001417" lon="9.6119167"><ele>85.0</ele><time>2026-04-26T08:16:47.934Z</time></trkpt><trkpt lat="45.000285" lon="9.61191"><ele>85.0</ele><time>2026-04-26T08:16:48.935Z</time></trkpt><trkpt lat="45.00043" lon="9.6119133"><ele>85.0</ele><time>2026-04-26T08:16:49.935Z</time></trkpt><trkpt lat="45.00057" lon="9.6119083"><ele>85.0</ele><time>2026-04-26T08:16:50.936Z</time></trkpt><trkpt lat="45.0007033" lon="9.6118933"><ele>85.0</ele><time>2026-04-26T08:16:51.935Z</time></trkpt><trkpt lat="45.0008267" lon="9.61187"><ele>85.0</ele><time>2026-04-26T08:16:52.939Z</time></trkpt><trkpt lat="45.0009483" lon="9.61186"><ele>85.0</ele><time>2026-04-26T08:16:53.936Z</time></trkpt><trkpt lat="45.0010683" lon="9.611865"><ele>85.0</ele><time>2026-04-26T08:16:54.936Z</time></trkpt><trkpt lat="45.0011833" lon="9.6118783"><ele>85.0</ele><time>2026-04-26T08:16:55.935Z</time></trkpt><trkpt lat="45.001285" lon="9.6118917"><ele>85.0</ele><time>2026-04-26T08:16:56.935Z</time></trkpt><trkpt lat="45.001385" lon="9.61191"><ele>85.0</ele><time>2026-04-26T08:16:57.943Z</time></trkpt><trkpt lat="45.001475" lon="9.6119383"><ele>85.0</ele><time>2026-04-26T08:16:58.936Z</time></trkpt><trkpt lat="45.0015383" lon="9.6119817"><ele>85.0</ele><time>2026-04-26T08:16:59.936Z</time></trkpt><trkpt lat="45.0015817" lon="9.6120533"><ele>85.0</ele><time>2026-04-26T08:17:00.936Z</time></trkpt><trkpt lat="45.0015967" lon="9.6121533"><ele>84.75</ele><time>2026-04-26T08:17:01.934Z</time></trkpt><trkpt lat="45.0015817" lon="9.6122933"><ele>84.5</ele><time>2026-04-26T08:17:02.937Z</time></trkpt><trkpt lat="45.0015733" lon="9.61245"><ele>84.25</ele><time>2026-04-26T08:17:03.936Z</time></trkpt><trkpt lat="45.0015683" lon="9.6126217"><ele>84.0</ele><time>2026-04-26T08:17:04.935Z</time></trkpt><trkpt lat="45.0015617" lon="9.6127983"><ele>84.4</ele><time>2026-04-26T08:17:05.936Z</time></trkpt><trkpt lat="45.001555" lon="9.6129767"><ele>84.80000000000001</ele><time>2026-04-26T08:17:06.936Z</time></trkpt><trkpt lat="45.0015483" lon="9.6131367"><ele>85.19999999999999</ele><time>2026-04-26T08:17:07.936Z</time></trkpt><trkpt lat="45.0015433" lon="9.6132717"><ele>85.6</ele><time>2026-04-26T08:17:08.936Z</time></trkpt><trkpt lat="45.00154" lon="9.6133817"><ele>86.0</ele><time>2026-04-26T08:17:09.935Z</time></trkpt><trkpt lat="45.0015233" lon="9.6135117"><ele>86.0</ele><time>2026-04-26T08:17:11.935Z</time></trkpt><trkpt lat="45.0015583" lon="9.6136117"><ele>86.0</ele><time>2026-04-26T08:17:14.94Z</time></trkpt><trkpt lat="45.001705" lon="9.61364"><ele>86.0</ele><time>2026-04-26T08:17:16.935Z</time></trkpt><trkpt lat="45.0018033" lon="9.6136483"><ele>86.0</ele><time>2026-04-26T08:17:17.935Z</time></trkpt><trkpt lat="45.0019267" lon="9.6136817"><ele>86.0</ele><time>2026-04-26T08:17:18.938Z</time></trkpt><trkpt lat="45.00205" lon="9.6137217"><ele>86.0</ele><time>2026-04-26T08:17:19.936Z</time></trkpt><trkpt lat="45.0021617" lon="9.613765"><ele>86.0</ele><time>2026-04-26T08:17:20.935Z</time></trkpt><trkpt lat="45.0022617" lon="9.6138083"><ele>86.0</ele><time>2026-04-26T08:17:21.936Z</time></trkpt><trkpt lat="45.0023333" lon="9.6138517"><ele>86.0</ele><time>2026-04-26T08:17:22.937Z</time></trkpt><trkpt lat="45.0023867" lon="9.6139017"><ele>86.0</ele><time>2026-04-26T08:17:23.935Z</time></trkpt><trkpt lat="45.002425" lon="9.6140533"><ele>86.0</ele><time>2026-04-26T08:17:25.936Z</time></trkpt><trkpt lat="45.0024133" lon="9.6141683"><ele>86.0</ele><time>2026-04-26T08:17:26.936Z</time></trkpt><trkpt lat="45.0023883" lon="9.61431"><ele>86.0</ele><time>2026-04-26T08:17:27.94Z</time></trkpt><trkpt lat="45.0023567" lon="9.6144633"><ele>86.0</ele><time>2026-04-26T08:17:28.935Z</time></trkpt><trkpt lat="45.002325" lon="9.614615"><ele>86.19999999999999</ele><time>2026-04-26T08:17:29.937Z</time></trkpt><trkpt lat="45.0022983" lon="9.614765"><ele>86.39999999999999</ele><time>2026-04-26T08:17:30.937Z</time></trkpt><trkpt lat="45.0022717" lon="9.614905"><ele>86.6</ele><time>2026-04-26T08:17:31.936Z</time></trkpt><trkpt lat="45.0022483" lon="9.6150467"><ele>86.8</ele><time>2026-04-26T08:17:32.935Z</time></trkpt><trkpt lat="45.00223" lon="9.615195"><ele>87.0</ele><time>2026-04-26T08:17:33.935Z</time></trkpt><trkpt lat="45.0022133" lon="9.6153383"><ele>87.19999999999999</ele><time>2026-04-26T08:17:34.936Z</time></trkpt><trkpt lat="45.00219" lon="9.615475"><ele>87.4</ele><time>2026-04-26T08:17:35.935Z</time></trkpt><trkpt lat="45.0021617" lon="9.6156017"><ele>87.6</ele><time>2026-04-26T08:17:36.935Z</time></trkpt><trkpt lat="45.0021267" lon="9.6157017"><ele>87.80000000000001</ele><time>2026-04-26T08:17:37.935Z</time></trkpt><trkpt lat="45.0020483" lon="9.6158233"><ele>88.0</ele><time>2026-04-26T08:17:39.935Z</time></trkpt><trkpt lat="45.001955" lon="9.615925"><ele>88.0</ele><time>2026-04-26T08:17:41.935Z</time></trkpt><trkpt lat="45.0018917" lon="9.61599"><ele>88.0</ele><time>2026-04-26T08:17:42.935Z</time></trkpt><trkpt lat="45.00181" lon="9.616065"><ele>88.0</ele><time>2026-04-26T08:17:43.935Z</time></trkpt><trkpt lat="45.0017133" lon="9.6161483"><ele>88.0</ele><time>2026-04-26T08:17:44.936Z</time></trkpt><trkpt lat="45.0016117" lon="9.6162317"><ele>88.0</ele><time>2026-04-26T08:17:45.936Z</time></trkpt><trkpt lat="45.0015167" lon="9.616315"><ele>88.16666666666666</ele><time>2026-04-26T08:17:46.936Z</time></trkpt><trkpt lat="45.0014317" lon="9.616385"><ele>88.33333333333333</ele><time>2026-04-26T08:17:47.936Z</time></trkpt><trkpt lat="45.0013617" lon="9.6164433"><ele>88.5</ele><time>2026-04-26T08:17:48.937Z</time></trkpt><trkpt lat="45.001305" lon="9.6164867"><ele>88.66666666666667</ele><time>2026-04-26T08:17:49.939Z</time></trkpt><trkpt lat="45.0012267" lon="9.6165317"><ele>88.83333333333334</ele><time>2026-04-26T08:17:51.936Z</time></trkpt><trkpt lat="45.00118" lon="9.6166"><ele>89.0</ele><time>2026-04-26T08:17:54.936Z</time></trkpt><trkpt lat="45.0011917" lon="9.6166983"><ele>89.0</ele><time>2026-04-26T08:17:56.935Z</time></trkpt><trkpt lat="45.001225" lon="9.6167817"><ele>89.0</ele><time>2026-04-26T08:17:57.935Z</time></trkpt><trkpt lat="45.0012733" lon="9.6168883"><ele>89.0</ele><time>2026-04-26T08:17:58.936Z</time></trkpt><trkpt lat="45.0013333" lon="9.6170133"><ele>89.0</ele><time>2026-04-26T08:17:59.935Z</time></trkpt><trkpt lat="45.0014033" lon="9.617165"><ele>89.0</ele><time>2026-04-26T08:18:00.935Z</time></trkpt><trkpt lat="45.0014733" lon="9.6173133"><ele>88.80000000000001</ele><time>2026-04-26T08:18:01.933Z</time></trkpt><trkpt lat="45.0015333" lon="9.61746"><ele>88.60000000000001</ele><time>2026-04-26T08:18:02.935Z</time></trkpt><trkpt lat="45.0015867" lon="9.6175917"><ele>88.4</ele><time>2026-04-26T08:18:03.935Z</time></trkpt><trkpt lat="45.0016417" lon="9.6177083"><ele>88.2</ele><time>2026-04-26T08:18:04.936Z</time></trkpt><trkpt lat="45.0016917" lon="9.6178283"><ele>88.0</ele><time>2026-04-26T08:18:05.936Z</time></trkpt><trkpt lat="45.001745" lon="9.6179533"><ele>88.0</ele><time>2026-04-26T08:18:06.935Z</time></trkpt><trkpt lat="45.0017967" lon="9.618075"><ele>88.0</ele><time>2026-04-26T08:18:07.933Z</time></trkpt><trkpt lat="45.0018483" lon="9.6182067"><ele>88.0</ele><time>2026-04-26T08:18:08.936Z</time></trkpt><trkpt lat="45.0019017" lon="9.618345"><ele>88.0</ele><time>2026-04-26T08:18:09.935Z</time></trkpt><trkpt lat="45.0019633" lon="9.6184833"><ele>88.0</ele><time>2026-04-26T08:18:10.935Z</time></trkpt><trkpt lat="45.0020283" lon="9.6186267"><ele>87.80000000000001</ele><time>2026-04-26T08:18:11.934Z</time></trkpt><trkpt lat="45.0020883" lon="9.61877"><ele>87.6</ele><time>2026-04-26T08:18:12.939Z</time></trkpt><trkpt lat="45.0021483" lon="9.618915"><ele>87.4</ele><time>2026-04-26T08:18:13.933Z</time></trkpt><trkpt lat="45.002205" lon="9.6190517"><ele>87.19999999999999</ele><time>2026-04-26T08:18:14.935Z</time></trkpt><trkpt lat="45.0022567" lon="9.61917"><ele>87.0</ele><time>2026-04-26T08:18:15.934Z</time></trkpt><trkpt lat="45.0023067" lon="9.6192817"><ele>87.0</ele><time>2026-04-26T08:18:16.933Z</time></trkpt><trkpt lat="45.0023517" lon="9.6193917"><ele>87.0</ele><time>2026-04-26T08:18:17.934Z</time></trkpt><trkpt lat="45.0023983" lon="9.6195033"><ele>87.0</ele><time>2026-04-26T08:18:18.935Z</time></trkpt><trkpt lat="45.0024483" lon="9.6196233"><ele>87.0</ele><time>2026-04-26T08:18:19.935Z</time></trkpt><trkpt lat="45.002505" lon="9.6197467"><ele>87.0</ele><time>2026-04-26T08:18:20.937Z</time></trkpt><trkpt lat="45.0025617" lon="9.61988"><ele>87.0</ele><time>2026-04-26T08:18:21.934Z</time></trkpt><trkpt lat="45.0026233" lon="9.62001"><ele>87.0</ele><time>2026-04-26T08:18:22.936Z</time></trkpt><trkpt lat="45.00268" lon="9.62013"><ele>87.0</ele><time>2026-04-26T08:18:23.934Z</time></trkpt><trkpt lat="45.0027317" lon="9.6202567"><ele>87.0</ele><time>2026-04-26T08:18:24.934Z</time></trkpt><trkpt lat="45.0027833" lon="9.6203867"><ele>87.0</ele><time>2026-04-26T08:18:25.934Z</time></trkpt><trkpt lat="45.002835" lon="9.6205183"><ele>87.0</ele><time>2026-04-26T08:18:26.935Z</time></trkpt><trkpt lat="45.0028867" lon="9.620645"><ele>87.0</ele><time>2026-04-26T08:18:27.934Z</time></trkpt><trkpt lat="45.0029417" lon="9.620755"><ele>87.0</ele><time>2026-04-26T08:18:28.935Z</time></trkpt><trkpt lat="45.0029883" lon="9.6208483"><ele>87.0</ele><time>2026-04-26T08:18:29.934Z</time></trkpt><trkpt lat="45.0030267" lon="9.6209333"><ele>87.0</ele><time>2026-04-26T08:18:30.936Z</time></trkpt><trkpt lat="45.0030667" lon="9.621025"><ele>87.0</ele><time>2026-04-26T08:18:31.933Z</time></trkpt><trkpt lat="45.0031117" lon="9.621135"><ele>87.0</ele><time>2026-04-26T08:18:32.934Z</time></trkpt><trkpt lat="45.0031667" lon="9.621275"><ele>87.0</ele><time>2026-04-26T08:18:33.935Z</time></trkpt><trkpt lat="45.003235" lon="9.6214333"><ele>87.0</ele><time>2026-04-26T08:18:34.934Z</time></trkpt><trkpt lat="45.00331" lon="9.6216133"><ele>87.0</ele><time>2026-04-26T08:18:35.935Z</time></trkpt><trkpt lat="45.0033883" lon="9.6218117"><ele>86.66666666666667</ele><time>2026-04-26T08:18:36.936Z</time></trkpt><trkpt lat="45.00347" lon="9.62201"><ele>86.33333333333334</ele><time>2026-04-26T08:18:37.935Z</time></trkpt><trkpt lat="45.0035483" lon="9.6222017"><ele>86.0</ele><time>2026-04-26T08:18:38.935Z</time></trkpt><trkpt lat="45.00363" lon="9.622385"><ele>86.0</ele><time>2026-04-26T08:18:39.938Z</time></trkpt><trkpt lat="45.0037083" lon="9.6225717"><ele>86.0</ele><time>2026-04-26T08:18:40.934Z</time></trkpt><trkpt lat="45.0037917" lon="9.6227517"><ele>86.0</ele><time>2026-04-26T08:18:41.934Z</time></trkpt><trkpt lat="45.0038783" lon="9.62293"><ele>86.0</ele><time>2026-04-26T08:18:42.934Z</time></trkpt><trkpt lat="45.0039617" lon="9.6231183"><ele>86.0</ele><time>2026-04-26T08:18:43.937Z</time></trkpt><trkpt lat="45.0040383" lon="9.62331"><ele>86.0</ele><time>2026-04-26T08:18:44.936Z</time></trkpt><trkpt lat="45.00412" lon="9.6234933"><ele>86.0</ele><time>2026-04-26T08:18:45.939Z</time></trkpt><trkpt lat="45.0041933" lon="9.623665"><ele>86.0</ele><time>2026-04-26T08:18:46.934Z</time></trkpt><trkpt lat="45.00427" lon="9.6238467"><ele>86.0</ele><time>2026-04-26T08:18:47.934Z</time></trkpt><trkpt lat="45.004345" lon="9.624035"><ele>86.0</ele><time>2026-04-26T08:18:48.936Z</time></trkpt><trkpt lat="45.0044283" lon="9.6242183"><ele>86.0</ele><time>2026-04-26T08:18:49.934Z</time></trkpt><trkpt lat="45.0045083" lon="9.6244083"><ele>86.0</ele><time>2026-04-26T08:18:50.937Z</time></trkpt><trkpt lat="45.0045917" lon="9.6245833"><ele>86.0</ele><time>2026-04-26T08:18:51.934Z</time></trkpt><trkpt lat="45.0046667" lon="9.62476"><ele>86.66666666666667</ele><time>2026-04-26T08:18:52.936Z</time></trkpt><trkpt lat="45.0047433" lon="9.6249383"><ele>87.33333333333333</ele><time>2026-04-26T08:18:53.934Z</time></trkpt><trkpt lat="45.0048233" lon="9.62512"><ele>88.0</ele><time>2026-04-26T08:18:54.934Z</time></trkpt><trkpt lat="45.004905" lon="9.6253017"><ele>87.75</ele><time>2026-04-26T08:18:55.935Z</time></trkpt><trkpt lat="45.0049817" lon="9.625475"><ele>87.5</ele><time>2026-04-26T08:18:56.935Z</time></trkpt><trkpt lat="45.0050583" lon="9.6256433"><ele>87.25</ele><time>2026-04-26T08:18:57.935Z</time></trkpt><trkpt lat="45.005125" lon="9.6258067"><ele>87.0</ele><time>2026-04-26T08:18:58.934Z</time></trkpt><trkpt lat="45.0051883" lon="9.6259683"><ele>86.5</ele><time>2026-04-26T08:18:59.939Z</time></trkpt><trkpt lat="45.0052583" lon="9.6261333"><ele>86.0</ele><time>2026-04-26T08:19:00.935Z</time></trkpt><trkpt lat="45.0053317" lon="9.6263"><ele>85.5</ele><time>2026-04-26T08:19:01.934Z</time></trkpt><trkpt lat="45.00541" lon="9.62648"><ele>85.0</ele><time>2026-04-26T08:19:02.935Z</time></trkpt><trkpt lat="45.0054967" lon="9.626665"><ele>85.0</ele><time>2026-04-26T08:19:03.937Z</time></trkpt><trkpt lat="45.0055833" lon="9.6268633"><ele>85.0</ele><time>2026-04-26T08:19:04.935Z</time></trkpt><trkpt lat="45.0056733" lon="9.627065"><ele>85.0</ele><time>2026-04-26T08:19:05.937Z</time></trkpt><trkpt lat="45.005755" lon="9.62725"><ele>84.75</ele><time>2026-04-26T08:19:06.934Z</time></trkpt><trkpt lat="45.0058233" lon="9.62742"><ele>84.5</ele><time>2026-04-26T08:19:07.935Z</time></trkpt><trkpt lat="45.0058883" lon="9.6275767"><ele>84.25</ele><time>2026-04-26T08:19:08.935Z</time></trkpt><trkpt lat="45.0059517" lon="9.6277183"><ele>84.0</ele><time>2026-04-26T08:19:09.935Z</time></trkpt><trkpt lat="45.0060183" lon="9.6278583"><ele>83.80000000000001</ele><time>2026-04-26T08:19:10.936Z</time></trkpt><trkpt lat="45.0060833" lon="9.6279917"><ele>83.60000000000001</ele><time>2026-04-26T08:19:11.933Z</time></trkpt><trkpt lat="45.00614" lon="9.6281167"><ele>83.4</ele><time>2026-04-26T08:19:12.934Z</time></trkpt><trkpt lat="45.00618" lon="9.6282317"><ele>83.2</ele><time>2026-04-26T08:19:13.933Z</time></trkpt><trkpt lat="45.0061967" lon="9.6283417"><ele>83.0</ele><time>2026-04-26T08:19:14.934Z</time></trkpt><trkpt lat="45.0061933" lon="9.6284483"><ele>83.0</ele><time>2026-04-26T08:19:15.934Z</time></trkpt><trkpt lat="45.006155" lon="9.6285383"><ele>83.0</ele><time>2026-04-26T08:19:16.936Z</time></trkpt><trkpt lat="45.0060583" lon="9.6285467"><ele>83.0</ele><time>2026-04-26T08:19:17.94Z</time></trkpt><trkpt lat="45.0059567" lon="9.62855"><ele>83.0</ele><time>2026-04-26T08:19:18.934Z</time></trkpt><trkpt lat="45.005825" lon="9.6284767"><ele>83.0</ele><time>2026-04-26T08:19:19.935Z</time></trkpt><trkpt lat="45.0056767" lon="9.6283767"><ele>82.0</ele><time>2026-04-26T08:19:20.934Z</time></trkpt><trkpt lat="45.0055117" lon="9.6282733"><ele>81.0</ele><time>2026-04-26T08:19:21.934Z</time></trkpt><trkpt lat="45.0053383" lon="9.628165"><ele>80.0</ele><time>2026-04-26T08:19:22.936Z</time></trkpt><trkpt lat="45.00516" lon="9.6280517"><ele>80.66666666666667</ele><time>2026-04-26T08:19:23.935Z</time></trkpt><trkpt lat="45.0049767" lon="9.6279267"><ele>81.33333333333333</ele><time>2026-04-26T08:19:24.941Z</time></trkpt><trkpt lat="45.0048033" lon="9.627795"><ele>82.0</ele><time>2026-04-26T08:19:25.934Z</time></trkpt><trkpt lat="45.004645" lon="9.627655"><ele>82.66666666666666</ele><time>2026-04-26T08:19:26.936Z</time></trkpt><trkpt lat="45.0044983" lon="9.62751"><ele>83.33333333333333</ele><time>2026-04-26T08:19:27.936Z</time></trkpt><trkpt lat="45.00436" lon="9.62736"><ele>84.0</ele><time>2026-04-26T08:19:28.934Z</time></trkpt><trkpt lat="45.00423" lon="9.62721"><ele>84.33333333333333</ele><time>2026-04-26T08:19:29.936Z</time></trkpt><trkpt lat="45.0041033" lon="9.6270517"><ele>84.66666666666666</ele><time>2026-04-26T08:19:30.935Z</time></trkpt><trkpt lat="45.003985" lon="9.6268917"><ele>85.0</ele><time>2026-04-26T08:19:31.936Z</time></trkpt><trkpt lat="45.003875" lon="9.62673"><ele>85.66666666666666</ele><time>2026-04-26T08:19:32.935Z</time></trkpt><trkpt lat="45.0037683" lon="9.626565"><ele>86.33333333333333</ele><time>2026-04-26T08:19:33.935Z</time></trkpt><trkpt lat="45.00367" lon="9.6263967"><ele>87.0</ele><time>2026-04-26T08:19:34.936Z</time></trkpt><trkpt lat="45.00357" lon="9.6262283"><ele>87.0</ele><time>2026-04-26T08:19:35.936Z</time></trkpt><trkpt lat="45.0034733" lon="9.6260617"><ele>87.0</ele><time>2026-04-26T08:19:36.935Z</time></trkpt><trkpt lat="45.0033733" lon="9.6258967"><ele>87.0</ele><time>2026-04-26T08:19:37.936Z</time></trkpt><trkpt lat="45.0032717" lon="9.6257367"><ele>86.66666666666667</ele><time>2026-04-26T08:19:38.935Z</time></trkpt><trkpt lat="45.0031683" lon="9.6255767"><ele>86.33333333333334</ele><time>2026-04-26T08:19:39.935Z</time></trkpt><trkpt lat="45.0030683" lon="9.6254167"><ele>86.0</ele><time>2026-04-26T08:19:40.934Z</time></trkpt><trkpt lat="45.0029733" lon="9.62526"><ele>86.0</ele><time>2026-04-26T08:19:41.937Z</time></trkpt><trkpt lat="45.0028933" lon="9.6251083"><ele>86.0</ele><time>2026-04-26T08:19:42.934Z</time></trkpt><trkpt lat="45.0028383" lon="9.6249483"><ele>86.0</ele><time>2026-04-26T08:19:43.935Z</time></trkpt><trkpt lat="45.0028" lon="9.62479"><ele>86.0</ele><time>2026-04-26T08:19:44.936Z</time></trkpt><trkpt lat="45.0027533" lon="9.62465"><ele>86.0</ele><time>2026-04-26T08:19:45.934Z</time></trkpt><trkpt lat="45.002675" lon="9.6245383"><ele>86.0</ele><time>2026-04-26T08:19:46.934Z</time></trkpt><trkpt lat="45.0025717" lon="9.62445"><ele>86.0</ele><time>2026-04-26T08:19:47.935Z</time></trkpt><trkpt lat="45.00246" lon="9.6243483"><ele>86.0</ele><time>2026-04-26T08:19:48.943Z</time></trkpt><trkpt lat="45.00235" lon="9.624205"><ele>85.66666666666667</ele><time>2026-04-26T08:19:49.935Z</time></trkpt><trkpt lat="45.0022417" lon="9.6240317"><ele>85.33333333333333</ele><time>2026-04-26T08:19:50.937Z</time></trkpt><trkpt lat="45.0021283" lon="9.62385"><ele>85.0</ele><time>2026-04-26T08:19:51.936Z</time></trkpt><trkpt lat="45.0020117" lon="9.6236633"><ele>85.0</ele><time>2026-04-26T08:19:52.935Z</time></trkpt><trkpt lat="45.0018933" lon="9.6234733"><ele>85.0</ele><time>2026-04-26T08:19:53.936Z</time></trkpt><trkpt lat="45.001775" lon="9.6232833"><ele>85.0</ele><time>2026-04-26T08:19:54.935Z</time></trkpt><trkpt lat="45.00166" lon="9.6230933"><ele>85.0</ele><time>2026-04-26T08:19:55.935Z</time></trkpt><trkpt lat="45.0015467" lon="9.6229"><ele>85.0</ele><time>2026-04-26T08:19:56.935Z</time></trkpt><trkpt lat="45.00143" lon="9.622705"><ele>85.0</ele><time>2026-04-26T08:19:57.935Z</time></trkpt><trkpt lat="45.0013117" lon="9.62251"><ele>85.33333333333333</ele><time>2026-04-26T08:19:58.935Z</time></trkpt><trkpt lat="45.0011917" lon="9.622315"><ele>85.66666666666667</ele><time>2026-04-26T08:19:59.935Z</time></trkpt><trkpt lat="45.00107" lon="9.6221217"><ele>86.0</ele><time>2026-04-26T08:20:00.936Z</time></trkpt><trkpt lat="45.00095" lon="9.621925"><ele>86.0</ele><time>2026-04-26T08:20:01.939Z</time></trkpt><trkpt lat="45.00083" lon="9.6217217"><ele>86.0</ele><time>2026-04-26T08:20:02.934Z</time></trkpt><trkpt lat="45.00071" lon="9.6215167"><ele>86.0</ele><time>2026-04-26T08:20:03.934Z</time></trkpt><trkpt lat="45.000585" lon="9.6213133"><ele>86.0</ele><time>2026-04-26T08:20:04.935Z</time></trkpt><trkpt lat="45.0004583" lon="9.62111"><ele>86.0</ele><time>2026-04-26T08:20:05.935Z</time></trkpt><trkpt lat="45.0003317" lon="9.6209117"><ele>86.0</ele><time>2026-04-26T08:20:06.942Z</time></trkpt><trkpt lat="45.0002067" lon="9.62071"><ele>86.0</ele><time>2026-04-26T08:20:07.936Z</time></trkpt><trkpt lat="45.0000867" lon="9.6205083"><ele>86.0</ele><time>2026-04-26T08:20:08.935Z</time></trkpt><trkpt lat="44.99997" lon="9.620305"><ele>86.0</ele><time>2026-04-26T08:20:09.936Z</time></trkpt><trkpt lat="44.9998517" lon="9.620105"><ele>86.0</ele><time>2026-04-26T08:20:10.936Z</time></trkpt><trkpt lat="44.9997283" lon="9.6199117"><ele>86.0</ele><time>2026-04-26T08:20:11.943Z</time></trkpt><trkpt lat="44.9996017" lon="9.6197233"><ele>86.0</ele><time>2026-04-26T08:20:12.936Z</time></trkpt><trkpt lat="44.9994733" lon="9.6195367"><ele>86.0</ele><time>2026-04-26T08:20:13.937Z</time></trkpt><trkpt lat="44.9993417" lon="9.6193533"><ele>86.0</ele><time>2026-04-26T08:20:14.939Z</time></trkpt><trkpt lat="44.9992033" lon="9.6191733"><ele>86.0</ele><time>2026-04-26T08:20:15.936Z</time></trkpt><trkpt lat="44.9990633" lon="9.618995"><ele>86.0</ele><time>2026-04-26T08:20:16.934Z</time></trkpt><trkpt lat="44.9989183" lon="9.61882"><ele>86.0</ele><time>2026-04-26T08:20:17.936Z</time></trkpt><trkpt lat="44.9987717" lon="9.6186467"><ele>86.0</ele><time>2026-04-26T08:20:18.936Z</time></trkpt><trkpt lat="44.9986217" lon="9.61848"><ele>86.0</ele><time>2026-04-26T08:20:19.937Z</time></trkpt><trkpt lat="44.9984683" lon="9.6183183"><ele>86.0</ele><time>2026-04-26T08:20:20.942Z</time></trkpt><trkpt lat="44.9983133" lon="9.61816"><ele>86.0</ele><time>2026-04-26T08:20:21.938Z</time></trkpt><trkpt lat="44.99816" lon="9.6180033"><ele>85.66666666666667</ele><time>2026-04-26T08:20:22.936Z</time></trkpt><trkpt lat="44.9980083" lon="9.6178517"><ele>85.33333333333333</ele><time>2026-04-26T08:20:23.938Z</time></trkpt><trkpt lat="44.99786" lon="9.6176983"><ele>85.0</ele><time>2026-04-26T08:20:24.937Z</time></trkpt><trkpt lat="44.9977133" lon="9.6175433"><ele>85.0</ele><time>2026-04-26T08:20:25.937Z</time></trkpt><trkpt lat="44.99757" lon="9.6173883"><ele>85.0</ele><time>2026-04-26T08:20:26.936Z</time></trkpt><trkpt lat="44.997425" lon="9.6172333"><ele>85.0</ele><time>2026-04-26T08:20:27.942Z</time></trkpt><trkpt lat="44.9972817" lon="9.6170783"><ele>86.0</ele><time>2026-04-26T08:20:28.937Z</time></trkpt><trkpt lat="44.9971367" lon="9.6169267"><ele>87.0</ele><time>2026-04-26T08:20:29.937Z</time></trkpt><trkpt lat="44.996995" lon="9.6167767"><ele>88.0</ele><time>2026-04-26T08:20:30.937Z</time></trkpt><trkpt lat="44.996855" lon="9.6166333"><ele>88.0</ele><time>2026-04-26T08:20:31.937Z</time></trkpt><trkpt lat="44.9967283" lon="9.6164967"><ele>88.0</ele><time>2026-04-26T08:20:32.937Z</time></trkpt><trkpt lat="44.9966067" lon="9.6163633"><ele>88.0</ele><time>2026-04-26T08:20:33.938Z</time></trkpt><trkpt lat="44.99649" lon="9.6162367"><ele>88.25</ele><time>2026-04-26T08:20:34.935Z</time></trkpt><trkpt lat="44.9963733" lon="9.6161167"><ele>88.5</ele><time>2026-04-26T08:20:35.938Z</time></trkpt><trkpt lat="44.99626" lon="9.6159967"><ele>88.75</ele><time>2026-04-26T08:20:36.936Z</time></trkpt><trkpt lat="44.9961467" lon="9.61588"><ele>89.0</ele><time>2026-04-26T08:20:37.936Z</time></trkpt><trkpt lat="44.996035" lon="9.6157617"><ele>89.0</ele><time>2026-04-26T08:20:38.936Z</time></trkpt><trkpt lat="44.9959283" lon="9.6156467"><ele>89.0</ele><time>2026-04-26T08:20:39.937Z</time></trkpt><trkpt lat="44.9958283" lon="9.6155417"><ele>89.0</ele><time>2026-04-26T08:20:40.936Z</time></trkpt><trkpt lat="44.99573" lon="9.6154383"><ele>89.0</ele><time>2026-04-26T08:20:41.935Z</time></trkpt><trkpt lat="44.9956267" lon="9.6153367"><ele>88.75</ele><time>2026-04-26T08:20:42.941Z</time></trkpt><trkpt lat="44.9955167" lon="9.61523"><ele>88.5</ele><time>2026-04-26T08:20:43.936Z</time></trkpt><trkpt lat="44.9954017" lon="9.61512"><ele>88.25</ele><time>2026-04-26T08:20:44.935Z</time></trkpt><trkpt lat="44.995285" lon="9.615005"><ele>88.0</ele><time>2026-04-26T08:20:45.933Z</time></trkpt><trkpt lat="44.99517" lon="9.6148933"><ele>88.0</ele><time>2026-04-26T08:20:46.934Z</time></trkpt><trkpt lat="44.99506" lon="9.6147917"><ele>88.0</ele><time>2026-04-26T08:20:47.934Z</time></trkpt><trkpt lat="44.99495" lon="9.6147017"><ele>88.0</ele><time>2026-04-26T08:20:48.935Z</time></trkpt><trkpt lat="44.9948433" lon="9.6146283"><ele>88.0</ele><time>2026-04-26T08:20:49.934Z</time></trkpt><trkpt lat="44.9947517" lon="9.6145717"><ele>87.83333333333333</ele><time>2026-04-26T08:20:50.934Z</time></trkpt><trkpt lat="44.9946717" lon="9.614525"><ele>87.66666666666666</ele><time>2026-04-26T08:20:51.936Z</time></trkpt><trkpt lat="44.9946" lon="9.6144783"><ele>87.5</ele><time>2026-04-26T08:20:52.935Z</time></trkpt><trkpt lat="44.9945317" lon="9.6144283"><ele>87.33333333333333</ele><time>2026-04-26T08:20:53.934Z</time></trkpt><trkpt lat="44.99447" lon="9.6143733"><ele>87.16666666666667</ele><time>2026-04-26T08:20:54.934Z</time></trkpt><trkpt lat="44.9944117" lon="9.6143383"><ele>87.0</ele><time>2026-04-26T08:20:55.934Z</time></trkpt><trkpt lat="44.9943167" lon="9.6143967"><ele>86.8</ele><time>2026-04-26T08:20:57.934Z</time></trkpt><trkpt lat="44.99426" lon="9.6144967"><ele>86.6</ele><time>2026-04-26T08:20:59.939Z</time></trkpt><trkpt lat="44.99427" lon="9.614605"><ele>86.39999999999999</ele><time>2026-04-26T08:21:02.935Z</time></trkpt><trkpt lat="44.99436" lon="9.6146983"><ele>86.19999999999999</ele><time>2026-04-26T08:24:57.935Z</time></trkpt><trkpt lat="44.9944333" lon="9.6146517"><ele>86.0</ele><time>2026-04-26T08:24:59.934Z</time></trkpt><trkpt lat="44.9944817" lon="9.6145217"><ele>86.16666666666667</ele><time>2026-04-26T08:25:01.942Z</time></trkpt><trkpt lat="44.9944783" lon="9.6143883"><ele>86.33333333333334</ele><time>2026-04-26T08:25:03.943Z</time></trkpt><trkpt lat="44.994435" lon="9.61428"><ele>86.5</ele><time>2026-04-26T08:25:05.937Z</time></trkpt><trkpt lat="44.99439" lon="9.6142"><ele>86.66666666666667</ele><time>2026-04-26T08:25:07.935Z</time></trkpt><trkpt lat="44.9943317" lon="9.61414"><ele>86.83333333333333</ele><time>2026-04-26T08:25:10.937Z</time></trkpt><trkpt lat="44.994285" lon="9.6140767"><ele>87.0</ele><time>2026-04-26T08:25:12.936Z</time></trkpt><trkpt lat="44.9942167" lon="9.61393"><ele>87.25</ele><time>2026-04-26T08:25:14.936Z</time></trkpt><trkpt lat="44.994155" lon="9.61383"><ele>87.5</ele><time>2026-04-26T08:25:15.935Z</time></trkpt><trkpt lat="44.9940683" lon="9.6137233"><ele>87.75</ele><time>2026-04-26T08:25:16.935Z</time></trkpt><trkpt lat="44.9939633" lon="9.613615"><ele>88.0</ele><time>2026-04-26T08:25:17.936Z</time></trkpt><trkpt lat="44.993845" lon="9.6135"><ele>88.0</ele><time>2026-04-26T08:25:18.941Z</time></trkpt><trkpt lat="44.9937167" lon="9.61338"><ele>88.0</ele><time>2026-04-26T08:25:19.936Z</time></trkpt><trkpt lat="44.9935783" lon="9.6132517"><ele>88.0</ele><time>2026-04-26T08:25:20.938Z</time></trkpt><trkpt lat="44.99343" lon="9.6131183"><ele>89.0</ele><time>2026-04-26T08:25:21.936Z</time></trkpt><trkpt lat="44.9932767" lon="9.6129833"><ele>90.0</ele><time>2026-04-26T08:25:22.936Z</time></trkpt><trkpt lat="44.99312" lon="9.61285"><ele>91.0</ele><time>2026-04-26T08:25:23.943Z</time></trkpt><trkpt lat="44.9929617" lon="9.6127133"><ele>91.0</ele><time>2026-04-26T08:25:24.935Z</time></trkpt><trkpt lat="44.9928" lon="9.6125733"><ele>91.0</ele><time>2026-04-26T08:25:25.935Z</time></trkpt><trkpt lat="44.9926333" lon="9.6124283"><ele>91.0</ele><time>2026-04-26T08:25:26.935Z</time></trkpt><trkpt lat="44.9924683" lon="9.6122833"><ele>90.66666666666666</ele><time>2026-04-26T08:25:27.935Z</time></trkpt><trkpt lat="44.9923" lon="9.6121367"><ele>90.33333333333333</ele><time>2026-04-26T08:25:28.934Z</time></trkpt><trkpt lat="44.99213" lon="9.6119883"><ele>90.0</ele><time>2026-04-26T08:25:29.935Z</time></trkpt><trkpt lat="44.9919617" lon="9.6118383"><ele>90.0</ele><time>2026-04-26T08:25:30.936Z</time></trkpt><trkpt lat="44.9917933" lon="9.61169"><ele>90.0</ele><time>2026-04-26T08:25:31.934Z</time></trkpt><trkpt lat="44.991625" lon="9.6115417"><ele>90.0</ele><time>2026-04-26T08:25:32.94Z</time></trkpt><trkpt lat="44.9914567" lon="9.6113933"><ele>90.33333333333333</ele><time>2026-04-26T08:25:33.935Z</time></trkpt><trkpt lat="44.9912867" lon="9.611245"><ele>90.66666666666666</ele><time>2026-04-26T08:25:34.937Z</time></trkpt><trkpt lat="44.9911183" lon="9.6110983"><ele>91.0</ele><time>2026-04-26T08:25:35.933Z</time></trkpt><trkpt lat="44.99095" lon="9.61095"><ele>91.33333333333333</ele><time>2026-04-26T08:25:36.938Z</time></trkpt><trkpt lat="44.99078" lon="9.6108017"><ele>91.66666666666667</ele><time>2026-04-26T08:25:37.934Z</time></trkpt><trkpt lat="44.990605" lon="9.61065"><ele>92.0</ele><time>2026-04-26T08:25:38.936Z</time></trkpt><trkpt lat="44.9904367" lon="9.6105"><ele>92.0</ele><time>2026-04-26T08:25:39.934Z</time></trkpt><trkpt lat="44.990275" lon="9.6103567"><ele>92.0</ele><time>2026-04-26T08:25:40.935Z</time></trkpt><trkpt lat="44.9901183" lon="9.610215"><ele>92.0</ele><time>2026-04-26T08:25:41.939Z</time></trkpt><trkpt lat="44.9899583" lon="9.6100767"><ele>91.66666666666667</ele><time>2026-04-26T08:25:42.935Z</time></trkpt><trkpt lat="44.9897967" lon="9.6099417"><ele>91.33333333333333</ele><time>2026-04-26T08:25:43.934Z</time></trkpt><trkpt lat="44.989635" lon="9.6098083"><ele>91.0</ele><time>2026-04-26T08:25:44.935Z</time></trkpt><trkpt lat="44.98948" lon="9.6096633"><ele>91.0</ele><time>2026-04-26T08:25:45.935Z</time></trkpt><trkpt lat="44.98933" lon="9.609515"><ele>91.0</ele><time>2026-04-26T08:25:46.941Z</time></trkpt><trkpt lat="44.9891783" lon="9.6093633"><ele>91.0</ele><time>2026-04-26T08:25:47.938Z</time></trkpt><trkpt lat="44.9890217" lon="9.6092183"><ele>91.0</ele><time>2026-04-26T08:25:48.936Z</time></trkpt><trkpt lat="44.9888617" lon="9.609075"><ele>91.0</ele><time>2026-04-26T08:25:49.935Z</time></trkpt><trkpt lat="44.9887017" lon="9.6089317"><ele>91.0</ele><time>2026-04-26T08:25:50.935Z</time></trkpt><trkpt lat="44.9885383" lon="9.60879"><ele>92.0</ele><time>2026-04-26T08:25:51.937Z</time></trkpt><trkpt lat="44.98838" lon="9.608645"><ele>93.0</ele><time>2026-04-26T08:25:52.935Z</time></trkpt><trkpt lat="44.9882217" lon="9.6084983"><ele>94.0</ele><time>2026-04-26T08:25:53.939Z</time></trkpt><trkpt lat="44.9880633" lon="9.6083533"><ele>94.0</ele><time>2026-04-26T08:25:54.936Z</time></trkpt><trkpt lat="44.9879033" lon="9.6082133"><ele>94.0</ele><time>2026-04-26T08:25:55.935Z</time></trkpt><trkpt lat="44.98774" lon="9.6080817"><ele>94.0</ele><time>2026-04-26T08:25:56.936Z</time></trkpt><trkpt lat="44.9875783" lon="9.6079567"><ele>93.66666666666666</ele><time>2026-04-26T08:25:57.935Z</time></trkpt><trkpt lat="44.98741" lon="9.6078433"><ele>93.33333333333333</ele><time>2026-04-26T08:25:58.936Z</time></trkpt><trkpt lat="44.98724" lon="9.6077367"><ele>93.0</ele><time>2026-04-26T08:25:59.937Z</time></trkpt><trkpt lat="44.98707" lon="9.6076333"><ele>93.0</ele><time>2026-04-26T08:26:00.936Z</time></trkpt><trkpt lat="44.9869" lon="9.60753"><ele>93.0</ele><time>2026-04-26T08:26:01.934Z</time></trkpt><trkpt lat="44.98673" lon="9.6074317"><ele>93.0</ele><time>2026-04-26T08:26:02.935Z</time></trkpt><trkpt lat="44.986555" lon="9.607345"><ele>93.33333333333333</ele><time>2026-04-26T08:26:03.934Z</time></trkpt><trkpt lat="44.9863783" lon="9.60727"><ele>93.66666666666666</ele><time>2026-04-26T08:26:04.935Z</time></trkpt><trkpt lat="44.9861983" lon="9.6072"><ele>94.0</ele><time>2026-04-26T08:26:05.935Z</time></trkpt><trkpt lat="44.986015" lon="9.6071333"><ele>93.66666666666666</ele><time>2026-04-26T08:26:06.934Z</time></trkpt><trkpt lat="44.9858333" lon="9.6070717"><ele>93.33333333333333</ele><time>2026-04-26T08:26:07.934Z</time></trkpt><trkpt lat="44.9856517" lon="9.607015"><ele>93.0</ele><time>2026-04-26T08:26:08.935Z</time></trkpt><trkpt lat="44.9854717" lon="9.6069733"><ele>93.0</ele><time>2026-04-26T08:26:09.936Z</time></trkpt><trkpt lat="44.98529" lon="9.6069433"><ele>93.0</ele><time>2026-04-26T08:26:10.934Z</time></trkpt><trkpt lat="44.98511" lon="9.606925"><ele>93.0</ele><time>2026-04-26T08:26:11.934Z</time></trkpt><trkpt lat="44.9849317" lon="9.6069117"><ele>93.33333333333333</ele><time>2026-04-26T08:26:12.934Z</time></trkpt><trkpt lat="44.98475" lon="9.6069017"><ele>93.66666666666666</ele><time>2026-04-26T08:26:13.934Z</time></trkpt><trkpt lat="44.9845667" lon="9.606895"><ele>94.0</ele><time>2026-04-26T08:26:14.935Z</time></trkpt><trkpt lat="44.9843867" lon="9.60689"><ele>94.0</ele><time>2026-04-26T08:26:15.935Z</time></trkpt><trkpt lat="44.9842083" lon="9.6068883"><ele>94.0</ele><time>2026-04-26T08:26:16.935Z</time></trkpt><trkpt lat="44.9840283" lon="9.6068917"><ele>94.0</ele><time>2026-04-26T08:26:17.934Z</time></trkpt><trkpt lat="44.9838533" lon="9.6068967"><ele>94.33333333333333</ele><time>2026-04-26T08:26:18.935Z</time></trkpt><trkpt lat="44.9836733" lon="9.6069017"><ele>94.66666666666667</ele><time>2026-04-26T08:26:19.935Z</time></trkpt><trkpt lat="44.9834967" lon="9.6069067"><ele>95.0</ele><time>2026-04-26T08:26:20.935Z</time></trkpt><trkpt lat="44.9833183" lon="9.60691"><ele>95.0</ele><time>2026-04-26T08:26:21.936Z</time></trkpt><trkpt lat="44.9831383" lon="9.6069167"><ele>95.0</ele><time>2026-04-26T08:26:22.934Z</time></trkpt><trkpt lat="44.9829583" lon="9.606925"><ele>95.0</ele><time>2026-04-26T08:26:23.935Z</time></trkpt><trkpt lat="44.98278" lon="9.6069317"><ele>95.0</ele><time>2026-04-26T08:26:24.935Z</time></trkpt><trkpt lat="44.9825983" lon="9.606935"><ele>95.0</ele><time>2026-04-26T08:26:25.935Z</time></trkpt><trkpt lat="44.9824217" lon="9.6069367"><ele>95.0</ele><time>2026-04-26T08:26:26.934Z</time></trkpt><trkpt lat="44.9822433" lon="9.6069417"><ele>95.0</ele><time>2026-04-26T08:26:27.934Z</time></trkpt><trkpt lat="44.9820633" lon="9.6069467"><ele>95.0</ele><time>2026-04-26T08:26:28.935Z</time></trkpt><trkpt lat="44.9818867" lon="9.60695"><ele>95.0</ele><time>2026-04-26T08:26:29.937Z</time></trkpt><trkpt lat="44.9817117" lon="9.60695"><ele>94.33333333333334</ele><time>2026-04-26T08:26:30.936Z</time></trkpt><trkpt lat="44.9815367" lon="9.6069533"><ele>93.66666666666667</ele><time>2026-04-26T08:26:31.941Z</time></trkpt><trkpt lat="44.98136" lon="9.6069583"><ele>93.0</ele><time>2026-04-26T08:26:32.935Z</time></trkpt><trkpt lat="44.981185" lon="9.6069617"><ele>93.0</ele><time>2026-04-26T08:26:33.934Z</time></trkpt><trkpt lat="44.9810067" lon="9.6069633"><ele>93.0</ele><time>2026-04-26T08:26:34.936Z</time></trkpt><trkpt lat="44.9808283" lon="9.60696"><ele>93.0</ele><time>2026-04-26T08:26:35.938Z</time></trkpt><trkpt lat="44.98065" lon="9.6069583"><ele>94.0</ele><time>2026-04-26T08:26:36.936Z</time></trkpt><trkpt lat="44.9804733" lon="9.606955"><ele>95.0</ele><time>2026-04-26T08:26:37.94Z</time></trkpt><trkpt lat="44.9802967" lon="9.6069367"><ele>96.0</ele><time>2026-04-26T08:26:38.935Z</time></trkpt><trkpt lat="44.9801167" lon="9.606915"><ele>96.33333333333334</ele><time>2026-04-26T08:26:39.936Z</time></trkpt><trkpt lat="44.9799367" lon="9.60689"><ele>96.66666666666667</ele><time>2026-04-26T08:26:40.935Z</time></trkpt><trkpt lat="44.9797583" lon="9.6068583"><ele>97.0</ele><time>2026-04-26T08:26:41.935Z</time></trkpt><trkpt lat="44.9795783" lon="9.6068183"><ele>97.0</ele><time>2026-04-26T08:26:42.935Z</time></trkpt><trkpt lat="44.9793967" lon="9.6067767"><ele>97.0</ele><time>2026-04-26T08:26:43.933Z</time></trkpt><trkpt lat="44.9792183" lon="9.6067317"><ele>97.0</ele><time>2026-04-26T08:26:44.938Z</time></trkpt><trkpt lat="44.9790383" lon="9.6066833"><ele>96.33333333333334</ele><time>2026-04-26T08:26:45.934Z</time></trkpt><trkpt lat="44.9788567" lon="9.606635"><ele>95.66666666666667</ele><time>2026-04-26T08:26:46.933Z</time></trkpt><trkpt lat="44.978675" lon="9.6065917"><ele>95.0</ele><time>2026-04-26T08:26:47.934Z</time></trkpt><trkpt lat="44.978495" lon="9.6065517"><ele>96.33333333333334</ele><time>2026-04-26T08:26:48.934Z</time></trkpt><trkpt lat="44.978315" lon="9.6065167"><ele>97.66666666666667</ele><time>2026-04-26T08:26:49.933Z</time></trkpt><trkpt lat="44.978135" lon="9.606485"><ele>99.0</ele><time>2026-04-26T08:26:50.935Z</time></trkpt><trkpt lat="44.97795" lon="9.6064467"><ele>99.0</ele><time>2026-04-26T08:26:51.938Z</time></trkpt><trkpt lat="44.977765" lon="9.6064033"><ele>99.0</ele><time>2026-04-26T08:26:52.934Z</time></trkpt><trkpt lat="44.977585" lon="9.6063633"><ele>99.0</ele><time>2026-04-26T08:26:53.934Z</time></trkpt><trkpt lat="44.977415" lon="9.6063183"><ele>98.66666666666666</ele><time>2026-04-26T08:26:54.936Z</time></trkpt><trkpt lat="44.9772467" lon="9.6062667"><ele>98.33333333333333</ele><time>2026-04-26T08:26:55.934Z</time></trkpt><trkpt lat="44.97707" lon="9.6062117"><ele>98.0</ele><time>2026-04-26T08:26:56.934Z</time></trkpt><trkpt lat="44.97689" lon="9.606165"><ele>98.0</ele><time>2026-04-26T08:26:57.935Z</time></trkpt><trkpt lat="44.9767117" lon="9.606125"><ele>98.0</ele><time>2026-04-26T08:26:58.935Z</time></trkpt><trkpt lat="44.9765333" lon="9.6060833"><ele>98.0</ele><time>2026-04-26T08:26:59.934Z</time></trkpt><trkpt lat="44.9763533" lon="9.6060433"><ele>98.0</ele><time>2026-04-26T08:27:00.937Z</time></trkpt><trkpt lat="44.9761717" lon="9.6060017"><ele>98.0</ele><time>2026-04-26T08:27:01.937Z</time></trkpt><trkpt lat="44.975995" lon="9.6059617"><ele>98.0</ele><time>2026-04-26T08:27:02.934Z</time></trkpt><trkpt lat="44.97582" lon="9.6059183"><ele>97.66666666666666</ele><time>2026-04-26T08:27:03.934Z</time></trkpt><trkpt lat="44.9756433" lon="9.6058767"><ele>97.33333333333334</ele><time>2026-04-26T08:27:04.934Z</time></trkpt><trkpt lat="44.97546" lon="9.6058217"><ele>97.0</ele><time>2026-04-26T08:27:05.934Z</time></trkpt><trkpt lat="44.975275" lon="9.6057767"><ele>97.0</ele><time>2026-04-26T08:27:06.94Z</time></trkpt><trkpt lat="44.9750917" lon="9.60574"><ele>97.0</ele><time>2026-04-26T08:27:07.934Z</time></trkpt><trkpt lat="44.9749117" lon="9.60571"><ele>97.0</ele><time>2026-04-26T08:27:08.934Z</time></trkpt><trkpt lat="44.9747267" lon="9.6056917"><ele>98.33333333333334</ele><time>2026-04-26T08:27:09.934Z</time></trkpt><trkpt lat="44.9745433" lon="9.6056817"><ele>99.66666666666666</ele><time>2026-04-26T08:27:10.935Z</time></trkpt><trkpt lat="44.9743617" lon="9.6056783"><ele>101.0</ele><time>2026-04-26T08:27:11.934Z</time></trkpt><trkpt lat="44.9741817" lon="9.6056733"><ele>101.0</ele><time>2026-04-26T08:27:12.938Z</time></trkpt><trkpt lat="44.9739967" lon="9.6056667"><ele>101.0</ele><time>2026-04-26T08:27:13.933Z</time></trkpt><trkpt lat="44.9738117" lon="9.6056583"><ele>101.0</ele><time>2026-04-26T08:27:14.936Z</time></trkpt><trkpt lat="44.9736317" lon="9.6056517"><ele>101.0</ele><time>2026-04-26T08:27:15.933Z</time></trkpt><trkpt lat="44.973455" lon="9.6056417"><ele>101.0</ele><time>2026-04-26T08:27:16.933Z</time></trkpt><trkpt lat="44.9732767" lon="9.6056317"><ele>101.0</ele><time>2026-04-26T08:27:17.936Z</time></trkpt><trkpt lat="44.9730983" lon="9.6056217"><ele>100.66666666666666</ele><time>2026-04-26T08:27:18.935Z</time></trkpt><trkpt lat="44.97292" lon="9.6056117"><ele>100.33333333333334</ele><time>2026-04-26T08:27:19.94Z</time></trkpt><trkpt lat="44.9727417" lon="9.6055983"><ele>100.0</ele><time>2026-04-26T08:27:20.935Z</time></trkpt><trkpt lat="44.9725667" lon="9.6055783"><ele>99.66666666666667</ele><time>2026-04-26T08:27:21.936Z</time></trkpt><trkpt lat="44.9723933" lon="9.6055517"><ele>99.33333333333334</ele><time>2026-04-26T08:27:22.933Z</time></trkpt><trkpt lat="44.9722167" lon="9.605515"><ele>99.0</ele><time>2026-04-26T08:27:23.935Z</time></trkpt><trkpt lat="44.9720467" lon="9.6054783"><ele>99.0</ele><time>2026-04-26T08:27:24.936Z</time></trkpt><trkpt lat="44.971885" lon="9.605445"><ele>99.0</ele><time>2026-04-26T08:27:25.936Z</time></trkpt><trkpt lat="44.9717233" lon="9.6054117"><ele>99.0</ele><time>2026-04-26T08:27:26.936Z</time></trkpt><trkpt lat="44.9715667" lon="9.60538"><ele>99.75</ele><time>2026-04-26T08:27:27.943Z</time></trkpt><trkpt lat="44.9714167" lon="9.605355"><ele>100.5</ele><time>2026-04-26T08:27:28.935Z</time></trkpt><trkpt lat="44.97127" lon="9.6053417"><ele>101.25</ele><time>2026-04-26T08:27:29.933Z</time></trkpt><trkpt lat="44.97113" lon="9.60534"><ele>102.0</ele><time>2026-04-26T08:27:30.934Z</time></trkpt><trkpt lat="44.97099" lon="9.6053533"><ele>101.75</ele><time>2026-04-26T08:27:31.935Z</time></trkpt><trkpt lat="44.97085" lon="9.60539"><ele>101.5</ele><time>2026-04-26T08:27:32.935Z</time></trkpt><trkpt lat="44.9707167" lon="9.605455"><ele>101.25</ele><time>2026-04-26T08:27:33.934Z</time></trkpt><trkpt lat="44.9706017" lon="9.6055283"><ele>101.0</ele><time>2026-04-26T08:27:34.936Z</time></trkpt><trkpt lat="44.9704933" lon="9.60559"><ele>101.0</ele><time>2026-04-26T08:27:35.936Z</time></trkpt><trkpt lat="44.9703917" lon="9.6056183"><ele>101.0</ele><time>2026-04-26T08:27:36.94Z</time></trkpt><trkpt lat="44.97029" lon="9.6055967"><ele>101.0</ele><time>2026-04-26T08:27:37.936Z</time></trkpt><trkpt lat="44.9701967" lon="9.6055367"><ele>101.0</ele><time>2026-04-26T08:27:38.935Z</time></trkpt><trkpt lat="44.9701033" lon="9.605445"><ele>101.0</ele><time>2026-04-26T08:27:39.935Z</time></trkpt><trkpt lat="44.9700067" lon="9.605325"><ele>102.0</ele><time>2026-04-26T08:27:40.934Z</time></trkpt><trkpt lat="44.969905" lon="9.60519"><ele>103.0</ele><time>2026-04-26T08:27:41.935Z</time></trkpt><trkpt lat="44.9697867" lon="9.6050533"><ele>104.0</ele><time>2026-04-26T08:27:42.935Z</time></trkpt><trkpt lat="44.9696567" lon="9.604905"><ele>104.0</ele><time>2026-04-26T08:27:43.936Z</time></trkpt><trkpt lat="44.969525" lon="9.6047383"><ele>104.0</ele><time>2026-04-26T08:27:44.935Z</time></trkpt><trkpt lat="44.9693867" lon="9.60457"><ele>104.0</ele><time>2026-04-26T08:27:45.938Z</time></trkpt><trkpt lat="44.9692433" lon="9.6044083"><ele>104.66666666666666</ele><time>2026-04-26T08:27:46.934Z</time></trkpt><trkpt lat="44.9690983" lon="9.6042683"><ele>105.33333333333334</ele><time>2026-04-26T08:27:47.933Z</time></trkpt><trkpt lat="44.9689467" lon="9.6041533"><ele>106.0</ele><time>2026-04-26T08:27:48.936Z</time></trkpt><trkpt lat="44.968795" lon="9.60405"><ele>106.0</ele><time>2026-04-26T08:27:49.935Z</time></trkpt><trkpt lat="44.9686367" lon="9.6039533"><ele>106.0</ele><time>2026-04-26T08:27:50.943Z</time></trkpt><trkpt lat="44.968465" lon="9.6038667"><ele>106.0</ele><time>2026-04-26T08:27:51.934Z</time></trkpt><trkpt lat="44.9682783" lon="9.603785"><ele>105.33333333333334</ele><time>2026-04-26T08:27:52.934Z</time></trkpt><trkpt lat="44.9680817" lon="9.60371"><ele>104.66666666666666</ele><time>2026-04-26T08:27:53.935Z</time></trkpt><trkpt lat="44.96788" lon="9.60364"><ele>104.0</ele><time>2026-04-26T08:27:54.936Z</time></trkpt><trkpt lat="44.9676833" lon="9.60358"><ele>104.33333333333333</ele><time>2026-04-26T08:27:55.941Z</time></trkpt><trkpt lat="44.9674817" lon="9.6035383"><ele>104.66666666666666</ele><time>2026-04-26T08:27:56.936Z</time></trkpt><trkpt lat="44.967285" lon="9.603515"><ele>105.0</ele><time>2026-04-26T08:27:57.936Z</time></trkpt><trkpt lat="44.9670917" lon="9.60351"><ele>105.0</ele><time>2026-04-26T08:27:58.934Z</time></trkpt><trkpt lat="44.9669033" lon="9.60352"><ele>105.0</ele><time>2026-04-26T08:27:59.934Z</time></trkpt><trkpt lat="44.9667167" lon="9.603545"><ele>105.0</ele><time>2026-04-26T08:28:00.936Z</time></trkpt><trkpt lat="44.9665317" lon="9.6035717"><ele>105.33333333333334</ele><time>2026-04-26T08:28:01.934Z</time></trkpt><trkpt lat="44.96635" lon="9.6036"><ele>105.66666666666667</ele><time>2026-04-26T08:28:02.934Z</time></trkpt><trkpt lat="44.9661683" lon="9.6036333"><ele>106.0</ele><time>2026-04-26T08:28:03.934Z</time></trkpt><trkpt lat="44.965985" lon="9.60366"><ele>105.66666666666667</ele><time>2026-04-26T08:28:04.934Z</time></trkpt><trkpt lat="44.9658017" lon="9.603675"><ele>105.33333333333334</ele><time>2026-04-26T08:28:05.934Z</time></trkpt><trkpt lat="44.9656183" lon="9.603685"><ele>105.0</ele><time>2026-04-26T08:28:06.933Z</time></trkpt><trkpt lat="44.9654367" lon="9.6036817"><ele>105.0</ele><time>2026-04-26T08:28:07.933Z</time></trkpt><trkpt lat="44.96526" lon="9.60366"><ele>105.0</ele><time>2026-04-26T08:28:08.938Z</time></trkpt><trkpt lat="44.9650817" lon="9.6036217"><ele>105.0</ele><time>2026-04-26T08:28:09.934Z</time></trkpt><trkpt lat="44.9649033" lon="9.6035683"><ele>105.0</ele><time>2026-04-26T08:28:10.935Z</time></trkpt><trkpt lat="44.964735" lon="9.6034917"><ele>105.0</ele><time>2026-04-26T08:28:11.934Z</time></trkpt><trkpt lat="44.9645767" lon="9.60339"><ele>105.0</ele><time>2026-04-26T08:28:12.934Z</time></trkpt><trkpt lat="44.96442" lon="9.6032633"><ele>105.0</ele><time>2026-04-26T08:28:13.934Z</time></trkpt><trkpt lat="44.9642717" lon="9.603115"><ele>105.0</ele><time>2026-04-26T08:28:14.934Z</time></trkpt><trkpt lat="44.9641383" lon="9.60294"><ele>105.0</ele><time>2026-04-26T08:28:15.934Z</time></trkpt><trkpt lat="44.9640167" lon="9.6027433"><ele>105.0</ele><time>2026-04-26T08:28:16.934Z</time></trkpt><trkpt lat="44.9639083" lon="9.6025317"><ele>105.0</ele><time>2026-04-26T08:28:17.934Z</time></trkpt><trkpt lat="44.9638167" lon="9.6023033"><ele>105.0</ele><time>2026-04-26T08:28:18.939Z</time></trkpt><trkpt lat="44.96374" lon="9.6020617"><ele>104.33333333333334</ele><time>2026-04-26T08:28:19.935Z</time></trkpt><trkpt lat="44.9636783" lon="9.6018117"><ele>103.66666666666667</ele><time>2026-04-26T08:28:20.935Z</time></trkpt><trkpt lat="44.9636367" lon="9.6015517"><ele>103.0</ele><time>2026-04-26T08:28:21.933Z</time></trkpt><trkpt lat="44.9636117" lon="9.60129"><ele>103.33333333333334</ele><time>2026-04-26T08:28:22.934Z</time></trkpt><trkpt lat="44.9636033" lon="9.6010183"><ele>103.66666666666666</ele><time>2026-04-26T08:28:23.936Z</time></trkpt><trkpt lat="44.9636033" lon="9.60075"><ele>104.0</ele><time>2026-04-26T08:28:24.935Z</time></trkpt><trkpt lat="44.96361" lon="9.60048"><ele>104.0</ele><time>2026-04-26T08:28:25.935Z</time></trkpt><trkpt lat="44.9636217" lon="9.6002083"><ele>104.0</ele><time>2026-04-26T08:28:26.934Z</time></trkpt><trkpt lat="44.9636417" lon="9.5999433"><ele>104.0</ele><time>2026-04-26T08:28:27.933Z</time></trkpt><trkpt lat="44.9636617" lon="9.5996783"><ele>104.33333333333333</ele><time>2026-04-26T08:28:28.934Z</time></trkpt><trkpt lat="44.9636817" lon="9.599415"><ele>104.66666666666666</ele><time>2026-04-26T08:28:29.934Z</time></trkpt><trkpt lat="44.9637" lon="9.5991517"><ele>105.0</ele><time>2026-04-26T08:28:30.935Z</time></trkpt><trkpt lat="44.963715" lon="9.5988867"><ele>104.33333333333334</ele><time>2026-04-26T08:28:31.934Z</time></trkpt><trkpt lat="44.9637333" lon="9.5986167"><ele>103.66666666666667</ele><time>2026-04-26T08:28:32.94Z</time></trkpt><trkpt lat="44.96375" lon="9.5983533"><ele>103.0</ele><time>2026-04-26T08:28:33.933Z</time></trkpt><trkpt lat="44.9637683" lon="9.5980917"><ele>102.33333333333334</ele><time>2026-04-26T08:28:34.933Z</time></trkpt><trkpt lat="44.9637867" lon="9.5978333"><ele>101.66666666666666</ele><time>2026-04-26T08:28:35.935Z</time></trkpt><trkpt lat="44.9638" lon="9.5975767"><ele>101.0</ele><time>2026-04-26T08:28:36.934Z</time></trkpt><trkpt lat="44.9638167" lon="9.5973167"><ele>101.0</ele><time>2026-04-26T08:28:37.939Z</time></trkpt><trkpt lat="44.963835" lon="9.597055"><ele>101.0</ele><time>2026-04-26T08:28:38.936Z</time></trkpt><trkpt lat="44.9638533" lon="9.5967917"><ele>101.0</ele><time>2026-04-26T08:28:39.934Z</time></trkpt><trkpt lat="44.9638683" lon="9.59653"><ele>101.0</ele><time>2026-04-26T08:28:40.933Z</time></trkpt><trkpt lat="44.963885" lon="9.5962667"><ele>101.0</ele><time>2026-04-26T08:28:41.935Z</time></trkpt><trkpt lat="44.9639" lon="9.596005"><ele>101.0</ele><time>2026-04-26T08:28:42.938Z</time></trkpt><trkpt lat="44.9639183" lon="9.59574"><ele>100.66666666666666</ele><time>2026-04-26T08:28:43.935Z</time></trkpt><trkpt lat="44.9639383" lon="9.5954783"><ele>100.33333333333334</ele><time>2026-04-26T08:28:44.934Z</time></trkpt><trkpt lat="44.9639533" lon="9.59522"><ele>100.0</ele><time>2026-04-26T08:28:45.934Z</time></trkpt><trkpt lat="44.9639683" lon="9.5949583"><ele>100.0</ele><time>2026-04-26T08:28:46.934Z</time></trkpt><trkpt lat="44.9639833" lon="9.5946967"><ele>100.0</ele><time>2026-04-26T08:28:47.944Z</time></trkpt><trkpt lat="44.9639983" lon="9.59444"><ele>100.0</ele><time>2026-04-26T08:28:48.936Z</time></trkpt><trkpt lat="44.9640167" lon="9.59418"><ele>100.0</ele><time>2026-04-26T08:28:49.936Z</time></trkpt><trkpt lat="44.964035" lon="9.5939183"><ele>100.0</ele><time>2026-04-26T08:28:50.937Z</time></trkpt><trkpt lat="44.9640533" lon="9.5936567"><ele>100.0</ele><time>2026-04-26T08:28:51.936Z</time></trkpt><trkpt lat="44.96407" lon="9.593395"><ele>100.0</ele><time>2026-04-26T08:28:52.935Z</time></trkpt><trkpt lat="44.9640867" lon="9.593135"><ele>100.0</ele><time>2026-04-26T08:28:53.936Z</time></trkpt><trkpt lat="44.9641033" lon="9.5928717"><ele>100.0</ele><time>2026-04-26T08:28:54.936Z</time></trkpt><trkpt lat="44.96412" lon="9.59261"><ele>100.0</ele><time>2026-04-26T08:28:55.935Z</time></trkpt><trkpt lat="44.9641367" lon="9.5923483"><ele>100.0</ele><time>2026-04-26T08:28:56.937Z</time></trkpt><trkpt lat="44.9641533" lon="9.5920833"><ele>100.0</ele><time>2026-04-26T08:28:57.935Z</time></trkpt><trkpt lat="44.96417" lon="9.591825"><ele>100.33333333333334</ele><time>2026-04-26T08:28:58.94Z</time></trkpt><trkpt lat="44.9641867" lon="9.591565"><ele>100.66666666666666</ele><time>2026-04-26T08:28:59.935Z</time></trkpt><trkpt lat="44.9642067" lon="9.5913017"><ele>101.0</ele><time>2026-04-26T08:29:00.933Z</time></trkpt><trkpt lat="44.964225" lon="9.59104"><ele>101.33333333333333</ele><time>2026-04-26T08:29:01.934Z</time></trkpt><trkpt lat="44.96424" lon="9.5907817"><ele>101.66666666666666</ele><time>2026-04-26T08:29:02.935Z</time></trkpt><trkpt lat="44.964255" lon="9.5905167"><ele>102.0</ele><time>2026-04-26T08:29:03.935Z</time></trkpt><trkpt lat="44.96427" lon="9.590245"><ele>102.0</ele><time>2026-04-26T08:29:04.935Z</time></trkpt><trkpt lat="44.9642883" lon="9.5899733"><ele>102.0</ele><time>2026-04-26T08:29:05.935Z</time></trkpt><trkpt lat="44.9643083" lon="9.5897033"><ele>102.0</ele><time>2026-04-26T08:29:06.936Z</time></trkpt><trkpt lat="44.9643283" lon="9.5894367"><ele>102.66666666666666</ele><time>2026-04-26T08:29:07.935Z</time></trkpt><trkpt lat="44.9643467" lon="9.589165"><ele>103.33333333333333</ele><time>2026-04-26T08:29:08.935Z</time></trkpt><trkpt lat="44.9643633" lon="9.5888917"><ele>104.0</ele><time>2026-04-26T08:29:09.94Z</time></trkpt><trkpt lat="44.96438" lon="9.5886133"><ele>104.66666666666666</ele><time>2026-04-26T08:29:10.936Z</time></trkpt><trkpt lat="44.9643933" lon="9.5883417"><ele>105.33333333333334</ele><time>2026-04-26T08:29:11.935Z</time></trkpt><trkpt lat="44.9644083" lon="9.588075"><ele>106.0</ele><time>2026-04-26T08:29:12.935Z</time></trkpt><trkpt lat="44.9644217" lon="9.5878117"><ele>106.66666666666667</ele><time>2026-04-26T08:29:13.935Z</time></trkpt><trkpt lat="44.964435" lon="9.5875517"><ele>107.33333333333334</ele><time>2026-04-26T08:29:14.938Z</time></trkpt><trkpt lat="44.9644517" lon="9.587295"><ele>108.0</ele><time>2026-04-26T08:29:15.939Z</time></trkpt><trkpt lat="44.9644683" lon="9.58704"><ele>109.33333333333334</ele><time>2026-04-26T08:29:16.935Z</time></trkpt><trkpt lat="44.9644867" lon="9.5867967"><ele>110.66666666666667</ele><time>2026-04-26T08:29:17.936Z</time></trkpt><trkpt lat="44.9645033" lon="9.58658"><ele>112.0</ele><time>2026-04-26T08:29:18.935Z</time></trkpt><trkpt lat="44.9645183" lon="9.5863867"><ele>112.0</ele><time>2026-04-26T08:29:19.936Z</time></trkpt><trkpt lat="44.9645367" lon="9.5862183"><ele>111.99999999999999</ele><time>2026-04-26T08:29:20.938Z</time></trkpt><trkpt lat="44.9645567" lon="9.5860817"><ele>111.99999999999999</ele><time>2026-04-26T08:29:21.937Z</time></trkpt><trkpt lat="44.964575" lon="9.5859783"><ele>112.0</ele><time>2026-04-26T08:29:22.936Z</time></trkpt><trkpt lat="44.964585" lon="9.5858533"><ele>112.0</ele><time>2026-04-26T08:29:24.933Z</time></trkpt><trkpt lat="44.9645567" lon="9.585725"><ele>112.0</ele><time>2026-04-26T08:29:33.933Z</time></trkpt><trkpt lat="44.96443" lon="9.58571"><ele>112.0</ele><time>2026-04-26T08:29:35.935Z</time></trkpt><trkpt lat="44.9642983" lon="9.58574"><ele>112.0</ele><time>2026-04-26T08:29:36.935Z</time></trkpt><trkpt lat="44.9641517" lon="9.5857767"><ele>112.0</ele><time>2026-04-26T08:29:37.934Z</time></trkpt><trkpt lat="44.9640067" lon="9.58582"><ele>113.0</ele><time>2026-04-26T08:29:38.935Z</time></trkpt><trkpt lat="44.963855" lon="9.5858683"><ele>114.0</ele><time>2026-04-26T08:29:39.934Z</time></trkpt><trkpt lat="44.9636967" lon="9.5859233"><ele>115.0</ele><time>2026-04-26T08:29:40.935Z</time></trkpt><trkpt lat="44.9635317" lon="9.58598"><ele>115.0</ele><time>2026-04-26T08:29:41.934Z</time></trkpt><trkpt lat="44.9633667" lon="9.586035"><ele>115.0</ele><time>2026-04-26T08:29:42.939Z</time></trkpt><trkpt lat="44.9632" lon="9.586085"><ele>115.0</ele><time>2026-04-26T08:29:43.935Z</time></trkpt><trkpt lat="44.9630267" lon="9.586135"><ele>115.33333333333334</ele><time>2026-04-26T08:29:44.936Z</time></trkpt><trkpt lat="44.96286" lon="9.5861883"><ele>115.66666666666666</ele><time>2026-04-26T08:29:45.937Z</time></trkpt><trkpt lat="44.9626917" lon="9.58624"><ele>116.0</ele><time>2026-04-26T08:29:46.935Z</time></trkpt><trkpt lat="44.9625233" lon="9.5862917"><ele>117.33333333333333</ele><time>2026-04-26T08:29:47.941Z</time></trkpt><trkpt lat="44.962355" lon="9.5863433"><ele>118.66666666666666</ele><time>2026-04-26T08:29:48.936Z</time></trkpt><trkpt lat="44.9621867" lon="9.5863933"><ele>120.0</ele><time>2026-04-26T08:29:49.936Z</time></trkpt><trkpt lat="44.96202" lon="9.5864467"><ele>120.0</ele><time>2026-04-26T08:29:50.936Z</time></trkpt><trkpt lat="44.9618517" lon="9.5865"><ele>120.0</ele><time>2026-04-26T08:29:51.937Z</time></trkpt><trkpt lat="44.9616833" lon="9.5865433"><ele>120.0</ele><time>2026-04-26T08:29:52.935Z</time></trkpt><trkpt lat="44.961515" lon="9.58658"><ele>120.66666666666666</ele><time>2026-04-26T08:29:53.937Z</time></trkpt><trkpt lat="44.9613483" lon="9.5866233"><ele>121.33333333333333</ele><time>2026-04-26T08:29:54.937Z</time></trkpt><trkpt lat="44.9611817" lon="9.586675"><ele>122.0</ele><time>2026-04-26T08:29:55.934Z</time></trkpt><trkpt lat="44.9610133" lon="9.586725"><ele>121.66666666666666</ele><time>2026-04-26T08:29:56.935Z</time></trkpt><trkpt lat="44.9608467" lon="9.5867733"><ele>121.33333333333334</ele><time>2026-04-26T08:29:57.933Z</time></trkpt><trkpt lat="44.96068" lon="9.5868233"><ele>121.0</ele><time>2026-04-26T08:29:58.934Z</time></trkpt><trkpt lat="44.9605133" lon="9.586875"><ele>121.0</ele><time>2026-04-26T08:29:59.935Z</time></trkpt><trkpt lat="44.960345" lon="9.5869267"><ele>121.0</ele><time>2026-04-26T08:30:00.941Z</time></trkpt><trkpt lat="44.96018" lon="9.5869733"><ele>121.0</ele><time>2026-04-26T08:30:01.934Z</time></trkpt><trkpt lat="44.9600133" lon="9.5870217"><ele>121.66666666666667</ele><time>2026-04-26T08:30:02.935Z</time></trkpt><trkpt lat="44.9598483" lon="9.5870767"><ele>122.33333333333334</ele><time>2026-04-26T08:30:03.935Z</time></trkpt><trkpt lat="44.9596817" lon="9.5871367"><ele>123.0</ele><time>2026-04-26T08:30:04.935Z</time></trkpt><trkpt lat="44.959515" lon="9.5871967"><ele>123.0</ele><time>2026-04-26T08:30:05.935Z</time></trkpt><trkpt lat="44.9593483" lon="9.5872633"><ele>123.0</ele><time>2026-04-26T08:30:06.938Z</time></trkpt><trkpt lat="44.959185" lon="9.5873383"><ele>123.0</ele><time>2026-04-26T08:30:07.934Z</time></trkpt><trkpt lat="44.9590217" lon="9.5874133"><ele>123.33333333333334</ele><time>2026-04-26T08:30:08.934Z</time></trkpt><trkpt lat="44.9588533" lon="9.5874833"><ele>123.66666666666667</ele><time>2026-04-26T08:30:09.934Z</time></trkpt><trkpt lat="44.958685" lon="9.58755"><ele>124.0</ele><time>2026-04-26T08:30:10.934Z</time></trkpt><trkpt lat="44.9585167" lon="9.5876133"><ele>124.66666666666667</ele><time>2026-04-26T08:30:11.941Z</time></trkpt><trkpt lat="44.9583467" lon="9.587665"><ele>125.33333333333334</ele><time>2026-04-26T08:30:12.934Z</time></trkpt><trkpt lat="44.9581733" lon="9.5876917"><ele>126.0</ele><time>2026-04-26T08:30:13.936Z</time></trkpt><trkpt lat="44.958" lon="9.5876867"><ele>126.0</ele><time>2026-04-26T08:30:14.936Z</time></trkpt><trkpt lat="44.9578283" lon="9.58766"><ele>126.0</ele><time>2026-04-26T08:30:15.935Z</time></trkpt><trkpt lat="44.9576533" lon="9.5876183"><ele>126.0</ele><time>2026-04-26T08:30:16.938Z</time></trkpt><trkpt lat="44.957475" lon="9.587575"><ele>126.0</ele><time>2026-04-26T08:30:17.935Z</time></trkpt><trkpt lat="44.9573" lon="9.5875283"><ele>126.0</ele><time>2026-04-26T08:30:18.934Z</time></trkpt><trkpt lat="44.9571267" lon="9.5874833"><ele>126.0</ele><time>2026-04-26T08:30:19.934Z</time></trkpt><trkpt lat="44.9569533" lon="9.587445"><ele>126.0</ele><time>2026-04-26T08:30:20.935Z</time></trkpt><trkpt lat="44.95678" lon="9.587425"><ele>126.0</ele><time>2026-04-26T08:30:21.935Z</time></trkpt><trkpt lat="44.9566033" lon="9.5874317"><ele>126.0</ele><time>2026-04-26T08:30:22.942Z</time></trkpt><trkpt lat="44.9564283" lon="9.587465"><ele>126.66666666666666</ele><time>2026-04-26T08:30:23.934Z</time></trkpt><trkpt lat="44.9562533" lon="9.5875117"><ele>127.33333333333333</ele><time>2026-04-26T08:30:24.935Z</time></trkpt><trkpt lat="44.95608" lon="9.5875617"><ele>128.0</ele><time>2026-04-26T08:30:25.935Z</time></trkpt><trkpt lat="44.9559033" lon="9.5876117"><ele>128.0</ele><time>2026-04-26T08:30:26.935Z</time></trkpt><trkpt lat="44.95573" lon="9.5876567"><ele>128.0</ele><time>2026-04-26T08:30:27.936Z</time></trkpt><trkpt lat="44.9555567" lon="9.5876917"><ele>128.0</ele><time>2026-04-26T08:30:28.935Z</time></trkpt><trkpt lat="44.9553917" lon="9.587705"><ele>128.0</ele><time>2026-04-26T08:30:29.935Z</time></trkpt><trkpt lat="44.9552233" lon="9.587695"><ele>128.0</ele><time>2026-04-26T08:30:30.935Z</time></trkpt><trkpt lat="44.9550533" lon="9.5876633"><ele>128.0</ele><time>2026-04-26T08:30:31.937Z</time></trkpt><trkpt lat="44.9548833" lon="9.5876167"><ele>128.66666666666666</ele><time>2026-04-26T08:30:32.935Z</time></trkpt><trkpt lat="44.9547167" lon="9.587545"><ele>129.33333333333334</ele><time>2026-04-26T08:30:33.934Z</time></trkpt><trkpt lat="44.9545483" lon="9.5874667"><ele>130.0</ele><time>2026-04-26T08:30:34.936Z</time></trkpt><trkpt lat="44.95438" lon="9.58739"><ele>130.0</ele><time>2026-04-26T08:30:35.943Z</time></trkpt><trkpt lat="44.95421" lon="9.587315"><ele>130.0</ele><time>2026-04-26T08:30:36.935Z</time></trkpt><trkpt lat="44.9540433" lon="9.5872417"><ele>130.0</ele><time>2026-04-26T08:30:37.939Z</time></trkpt><trkpt lat="44.9538767" lon="9.5871717"><ele>130.0</ele><time>2026-04-26T08:30:38.936Z</time></trkpt><trkpt lat="44.9537117" lon="9.5870983"><ele>130.0</ele><time>2026-04-26T08:30:39.935Z</time></trkpt><trkpt lat="44.953545" lon="9.5870317"><ele>130.0</ele><time>2026-04-26T08:30:40.936Z</time></trkpt><trkpt lat="44.953375" lon="9.586985"><ele>130.0</ele><time>2026-04-26T08:30:41.935Z</time></trkpt><trkpt lat="44.953205" lon="9.586975"><ele>130.0</ele><time>2026-04-26T08:30:42.934Z</time></trkpt><trkpt lat="44.9530367" lon="9.5869967"><ele>130.0</ele><time>2026-04-26T08:30:43.935Z</time></trkpt><trkpt lat="44.9528733" lon="9.58705"><ele>130.0</ele><time>2026-04-26T08:30:44.934Z</time></trkpt><trkpt lat="44.9527283" lon="9.5871217"><ele>130.0</ele><time>2026-04-26T08:30:45.935Z</time></trkpt><trkpt lat="44.952615" lon="9.5871917"><ele>130.0</ele><time>2026-04-26T08:30:46.934Z</time></trkpt><trkpt lat="44.9525167" lon="9.5872383"><ele>130.0</ele><time>2026-04-26T08:30:47.935Z</time></trkpt><trkpt lat="44.9524217" lon="9.5872433"><ele>130.8</ele><time>2026-04-26T08:30:48.936Z</time></trkpt><trkpt lat="44.952345" lon="9.5871967"><ele>131.6</ele><time>2026-04-26T08:30:49.941Z</time></trkpt><trkpt lat="44.952275" lon="9.5871317"><ele>132.4</ele><time>2026-04-26T08:30:50.936Z</time></trkpt><trkpt lat="44.9522517" lon="9.5869967"><ele>133.2</ele><time>2026-04-26T08:30:51.937Z</time></trkpt><trkpt lat="44.95226" lon="9.58684"><ele>134.0</ele><time>2026-04-26T08:30:52.936Z</time></trkpt><trkpt lat="44.95227" lon="9.5866617"><ele>134.5</ele><time>2026-04-26T08:30:53.936Z</time></trkpt><trkpt lat="44.9522783" lon="9.5864683"><ele>135.0</ele><time>2026-04-26T08:30:54.934Z</time></trkpt><trkpt lat="44.952285" lon="9.5862583"><ele>135.5</ele><time>2026-04-26T08:30:55.935Z</time></trkpt><trkpt lat="44.9522917" lon="9.5860333"><ele>136.0</ele><time>2026-04-26T08:30:56.936Z</time></trkpt><trkpt lat="44.9522983" lon="9.5858017"><ele>136.33333333333334</ele><time>2026-04-26T08:30:57.934Z</time></trkpt><trkpt lat="44.952305" lon="9.5855667"><ele>136.66666666666666</ele><time>2026-04-26T08:30:58.94Z</time></trkpt><trkpt lat="44.9523133" lon="9.5853317"><ele>137.0</ele><time>2026-04-26T08:30:59.935Z</time></trkpt><trkpt lat="44.95232" lon="9.5851017"><ele>137.66666666666666</ele><time>2026-04-26T08:31:00.938Z</time></trkpt><trkpt lat="44.9523317" lon="9.5848867"><ele>138.33333333333334</ele><time>2026-04-26T08:31:01.934Z</time></trkpt><trkpt lat="44.9523517" lon="9.5846783"><ele>139.0</ele><time>2026-04-26T08:31:02.934Z</time></trkpt><trkpt lat="44.9523883" lon="9.5844717"><ele>138.66666666666669</ele><time>2026-04-26T08:31:03.94Z</time></trkpt><trkpt lat="44.952435" lon="9.5842617"><ele>138.33333333333334</ele><time>2026-04-26T08:31:04.935Z</time></trkpt><trkpt lat="44.9524883" lon="9.5840483"><ele>138.0</ele><time>2026-04-26T08:31:05.941Z</time></trkpt><trkpt lat="44.9525467" lon="9.5838383"><ele>138.66666666666666</ele><time>2026-04-26T08:31:06.935Z</time></trkpt><trkpt lat="44.9526033" lon="9.58363"><ele>139.33333333333331</ele><time>2026-04-26T08:31:07.935Z</time></trkpt><trkpt lat="44.9526583" lon="9.5834283"><ele>140.0</ele><time>2026-04-26T08:31:08.935Z</time></trkpt><trkpt lat="44.952705" lon="9.58322"><ele>140.0</ele><time>2026-04-26T08:31:09.934Z</time></trkpt><trkpt lat="44.9527417" lon="9.5830017"><ele>140.0</ele><time>2026-04-26T08:31:10.937Z</time></trkpt><trkpt lat="44.952765" lon="9.58277"><ele>140.0</ele><time>2026-04-26T08:31:11.933Z</time></trkpt><trkpt lat="44.9527767" lon="9.5825283"><ele>139.66666666666666</ele><time>2026-04-26T08:31:12.934Z</time></trkpt><trkpt lat="44.9527867" lon="9.58228"><ele>139.33333333333334</ele><time>2026-04-26T08:31:13.933Z</time></trkpt><trkpt lat="44.9527983" lon="9.5820233"><ele>139.0</ele><time>2026-04-26T08:31:14.934Z</time></trkpt><trkpt lat="44.9528117" lon="9.581765"><ele>137.66666666666669</ele><time>2026-04-26T08:31:15.934Z</time></trkpt><trkpt lat="44.95282" lon="9.58151"><ele>136.33333333333334</ele><time>2026-04-26T08:31:16.934Z</time></trkpt><trkpt lat="44.95283" lon="9.58126"><ele>135.0</ele><time>2026-04-26T08:31:17.936Z</time></trkpt><trkpt lat="44.9528433" lon="9.581005"><ele>134.66666666666666</ele><time>2026-04-26T08:31:18.937Z</time></trkpt><trkpt lat="44.9528617" lon="9.5807483"><ele>134.33333333333331</ele><time>2026-04-26T08:31:19.941Z</time></trkpt><trkpt lat="44.95288" lon="9.5804933"><ele>134.0</ele><time>2026-04-26T08:31:20.936Z</time></trkpt><trkpt lat="44.9529067" lon="9.580235"><ele>135.66666666666666</ele><time>2026-04-26T08:31:21.938Z</time></trkpt><trkpt lat="44.952935" lon="9.579995"><ele>137.33333333333334</ele><time>2026-04-26T08:31:22.935Z</time></trkpt><trkpt lat="44.9529733" lon="9.5797533"><ele>139.0</ele><time>2026-04-26T08:31:23.936Z</time></trkpt><trkpt lat="44.9530067" lon="9.5795217"><ele>139.33333333333334</ele><time>2026-04-26T08:31:24.934Z</time></trkpt><trkpt lat="44.953045" lon="9.5792983"><ele>139.66666666666666</ele><time>2026-04-26T08:31:25.934Z</time></trkpt><trkpt lat="44.953085" lon="9.57908"><ele>140.0</ele><time>2026-04-26T08:31:26.934Z</time></trkpt><trkpt lat="44.9531233" lon="9.5788717"><ele>140.0</ele><time>2026-04-26T08:31:27.934Z</time></trkpt><trkpt lat="44.953155" lon="9.57869"><ele>140.0</ele><time>2026-04-26T08:31:28.934Z</time></trkpt><trkpt lat="44.9531717" lon="9.5785417"><ele>140.0</ele><time>2026-04-26T08:31:29.934Z</time></trkpt><trkpt lat="44.9531717" lon="9.5784267"><ele>140.0</ele><time>2026-04-26T08:31:30.939Z</time></trkpt><trkpt lat="44.9531517" lon="9.57833"><ele>140.0</ele><time>2026-04-26T08:31:31.935Z</time></trkpt><trkpt lat="44.9530567" lon="9.5782333"><ele>139.75</ele><time>2026-04-26T08:31:33.935Z</time></trkpt><trkpt lat="44.9529717" lon="9.5782133"><ele>139.5</ele><time>2026-04-26T08:31:34.936Z</time></trkpt><trkpt lat="44.95285" lon="9.5782117"><ele>139.25</ele><time>2026-04-26T08:31:35.935Z</time></trkpt><trkpt lat="44.9527117" lon="9.5782033"><ele>139.0</ele><time>2026-04-26T08:31:36.935Z</time></trkpt><trkpt lat="44.9525617" lon="9.5781917"><ele>140.0</ele><time>2026-04-26T08:31:37.934Z</time></trkpt><trkpt lat="44.9524" lon="9.5781767"><ele>141.0</ele><time>2026-04-26T08:31:38.936Z</time></trkpt><trkpt lat="44.9522317" lon="9.5781567"><ele>142.0</ele><time>2026-04-26T08:31:39.935Z</time></trkpt><trkpt lat="44.95206" lon="9.5781383"><ele>142.0</ele><time>2026-04-26T08:31:40.934Z</time></trkpt><trkpt lat="44.9518867" lon="9.5781417"><ele>142.0</ele><time>2026-04-26T08:31:41.934Z</time></trkpt><trkpt lat="44.9517167" lon="9.5781867"><ele>142.0</ele><time>2026-04-26T08:31:42.934Z</time></trkpt><trkpt lat="44.9515517" lon="9.5782633"><ele>143.66666666666669</ele><time>2026-04-26T08:31:43.934Z</time></trkpt><trkpt lat="44.9513933" lon="9.5783567"><ele>145.33333333333334</ele><time>2026-04-26T08:31:44.935Z</time></trkpt><trkpt lat="44.951235" lon="9.5784567"><ele>147.0</ele><time>2026-04-26T08:31:45.935Z</time></trkpt><trkpt lat="44.9510767" lon="9.57856"><ele>147.0</ele><time>2026-04-26T08:31:46.937Z</time></trkpt><trkpt lat="44.9509183" lon="9.578655"><ele>147.0</ele><time>2026-04-26T08:31:47.937Z</time></trkpt><trkpt lat="44.9507633" lon="9.578745"><ele>147.0</ele><time>2026-04-26T08:31:48.934Z</time></trkpt><trkpt lat="44.95061" lon="9.5788267"><ele>148.0</ele><time>2026-04-26T08:31:49.935Z</time></trkpt><trkpt lat="44.9504567" lon="9.5789067"><ele>149.0</ele><time>2026-04-26T08:31:50.934Z</time></trkpt><trkpt lat="44.9502983" lon="9.5789617"><ele>150.0</ele><time>2026-04-26T08:31:51.934Z</time></trkpt><trkpt lat="44.9501333" lon="9.5789817"><ele>151.0</ele><time>2026-04-26T08:31:52.935Z</time></trkpt><trkpt lat="44.949965" lon="9.5789867"><ele>152.0</ele><time>2026-04-26T08:31:53.936Z</time></trkpt><trkpt lat="44.9497933" lon="9.5789817"><ele>153.0</ele><time>2026-04-26T08:31:54.936Z</time></trkpt><trkpt lat="44.94962" lon="9.5789733"><ele>153.0</ele><time>2026-04-26T08:31:55.936Z</time></trkpt><trkpt lat="44.949445" lon="9.5789617"><ele>153.0</ele><time>2026-04-26T08:31:56.935Z</time></trkpt><trkpt lat="44.9492717" lon="9.57895"><ele>153.0</ele><time>2026-04-26T08:31:57.935Z</time></trkpt><trkpt lat="44.9490983" lon="9.578945"><ele>154.33333333333334</ele><time>2026-04-26T08:31:58.935Z</time></trkpt><trkpt lat="44.9489217" lon="9.5789517"><ele>155.66666666666669</ele><time>2026-04-26T08:31:59.936Z</time></trkpt><trkpt lat="44.9487467" lon="9.5789583"><ele>157.0</ele><time>2026-04-26T08:32:00.935Z</time></trkpt><trkpt lat="44.9485717" lon="9.5789633"><ele>157.0</ele><time>2026-04-26T08:32:01.941Z</time></trkpt><trkpt lat="44.9483983" lon="9.578955"><ele>157.0</ele><time>2026-04-26T08:32:02.935Z</time></trkpt><trkpt lat="44.9482267" lon="9.57893"><ele>157.0</ele><time>2026-04-26T08:32:03.936Z</time></trkpt><trkpt lat="44.9480617" lon="9.57888"><ele>156.66666666666669</ele><time>2026-04-26T08:32:04.936Z</time></trkpt><trkpt lat="44.9479" lon="9.5788083"><ele>156.33333333333334</ele><time>2026-04-26T08:32:05.936Z</time></trkpt><trkpt lat="44.9477433" lon="9.5787167"><ele>156.0</ele><time>2026-04-26T08:32:06.943Z</time></trkpt><trkpt lat="44.94759" lon="9.5786083"><ele>157.0</ele><time>2026-04-26T08:32:07.935Z</time></trkpt><trkpt lat="44.947435" lon="9.5784933"><ele>158.0</ele><time>2026-04-26T08:32:08.935Z</time></trkpt><trkpt lat="44.9472783" lon="9.5783833"><ele>159.0</ele><time>2026-04-26T08:32:09.937Z</time></trkpt><trkpt lat="44.94712" lon="9.57828"><ele>159.0</ele><time>2026-04-26T08:32:10.936Z</time></trkpt><trkpt lat="44.94696" lon="9.5781817"><ele>159.0</ele><time>2026-04-26T08:32:11.937Z</time></trkpt><trkpt lat="44.9467983" lon="9.578095"><ele>159.0</ele><time>2026-04-26T08:32:12.94Z</time></trkpt><trkpt lat="44.9466317" lon="9.5780167"><ele>159.66666666666666</ele><time>2026-04-26T08:32:13.937Z</time></trkpt><trkpt lat="44.94646" lon="9.5779433"><ele>160.33333333333331</ele><time>2026-04-26T08:32:14.938Z</time></trkpt><trkpt lat="44.94629" lon="9.5778817"><ele>161.0</ele><time>2026-04-26T08:32:15.936Z</time></trkpt><trkpt lat="44.94612" lon="9.5778233"><ele>161.66666666666666</ele><time>2026-04-26T08:32:16.935Z</time></trkpt><trkpt lat="44.9459533" lon="9.5777683"><ele>162.33333333333334</ele><time>2026-04-26T08:32:17.939Z</time></trkpt><trkpt lat="44.9457883" lon="9.5777117"><ele>163.0</ele><time>2026-04-26T08:32:18.938Z</time></trkpt><trkpt lat="44.9456233" lon="9.5776467"><ele>164.66666666666669</ele><time>2026-04-26T08:32:19.935Z</time></trkpt><trkpt lat="44.9454583" lon="9.5775733"><ele>166.33333333333334</ele><time>2026-04-26T08:32:20.935Z</time></trkpt><trkpt lat="44.9452917" lon="9.577505"><ele>168.0</ele><time>2026-04-26T08:32:21.935Z</time></trkpt><trkpt lat="44.9451233" lon="9.5774433"><ele>169.0</ele><time>2026-04-26T08:32:22.935Z</time></trkpt><trkpt lat="44.9449533" lon="9.5773833"><ele>170.0</ele><time>2026-04-26T08:32:23.935Z</time></trkpt><trkpt lat="44.94478" lon="9.5773267"><ele>171.0</ele><time>2026-04-26T08:32:24.935Z</time></trkpt><trkpt lat="44.944605" lon="9.5772717"><ele>171.0</ele><time>2026-04-26T08:32:25.934Z</time></trkpt><trkpt lat="44.94443" lon="9.5772167"><ele>171.0</ele><time>2026-04-26T08:32:26.934Z</time></trkpt><trkpt lat="44.9442517" lon="9.5771633"><ele>171.0</ele><time>2026-04-26T08:32:27.938Z</time></trkpt><trkpt lat="44.9440717" lon="9.5771067"><ele>171.0</ele><time>2026-04-26T08:32:28.934Z</time></trkpt><trkpt lat="44.9438933" lon="9.5770517"><ele>171.0</ele><time>2026-04-26T08:32:29.935Z</time></trkpt><trkpt lat="44.943715" lon="9.5769933"><ele>171.0</ele><time>2026-04-26T08:32:30.935Z</time></trkpt><trkpt lat="44.943535" lon="9.5769383"><ele>172.0</ele><time>2026-04-26T08:32:31.935Z</time></trkpt><trkpt lat="44.9433567" lon="9.5768867"><ele>173.0</ele><time>2026-04-26T08:32:32.937Z</time></trkpt><trkpt lat="44.94318" lon="9.576835"><ele>174.0</ele><time>2026-04-26T08:32:33.936Z</time></trkpt><trkpt lat="44.9430067" lon="9.5767833"><ele>174.0</ele><time>2026-04-26T08:32:34.935Z</time></trkpt><trkpt lat="44.9428367" lon="9.576725"><ele>174.0</ele><time>2026-04-26T08:32:35.939Z</time></trkpt><trkpt lat="44.9426683" lon="9.5766617"><ele>174.0</ele><time>2026-04-26T08:32:36.937Z</time></trkpt><trkpt lat="44.9425033" lon="9.5765967"><ele>174.33333333333334</ele><time>2026-04-26T08:32:37.936Z</time></trkpt><trkpt lat="44.9423417" lon="9.5765267"><ele>174.66666666666669</ele><time>2026-04-26T08:32:38.938Z</time></trkpt><trkpt lat="44.94218" lon="9.5764567"><ele>175.0</ele><time>2026-04-26T08:32:39.936Z</time></trkpt><trkpt lat="44.942025" lon="9.576395"><ele>175.0</ele><time>2026-04-26T08:32:40.936Z</time></trkpt><trkpt lat="44.9418733" lon="9.5763383"><ele>175.0</ele><time>2026-04-26T08:32:41.937Z</time></trkpt><trkpt lat="44.9417167" lon="9.5762967"><ele>175.0</ele><time>2026-04-26T08:32:42.937Z</time></trkpt><trkpt lat="44.9415517" lon="9.57627"><ele>175.66666666666669</ele><time>2026-04-26T08:32:43.936Z</time></trkpt><trkpt lat="44.9413767" lon="9.57627"><ele>176.33333333333334</ele><time>2026-04-26T08:32:44.942Z</time></trkpt><trkpt lat="44.9411917" lon="9.5762933"><ele>177.0</ele><time>2026-04-26T08:32:45.934Z</time></trkpt><trkpt lat="44.941005" lon="9.5763233"><ele>177.33333333333334</ele><time>2026-04-26T08:32:46.934Z</time></trkpt><trkpt lat="44.940815" lon="9.5763533"><ele>177.66666666666669</ele><time>2026-04-26T08:32:47.935Z</time></trkpt><trkpt lat="44.94063" lon="9.5763817"><ele>178.0</ele><time>2026-04-26T08:32:48.934Z</time></trkpt><trkpt lat="44.940455" lon="9.5764067"><ele>178.0</ele><time>2026-04-26T08:32:49.936Z</time></trkpt><trkpt lat="44.9402917" lon="9.5764333"><ele>178.0</ele><time>2026-04-26T08:32:50.935Z</time></trkpt><trkpt lat="44.94013" lon="9.57646"><ele>178.0</ele><time>2026-04-26T08:32:51.936Z</time></trkpt><trkpt lat="44.939965" lon="9.5764867"><ele>179.0</ele><time>2026-04-26T08:32:52.936Z</time></trkpt><trkpt lat="44.9397967" lon="9.5765133"><ele>180.0</ele><time>2026-04-26T08:32:53.935Z</time></trkpt><trkpt lat="44.9396267" lon="9.57654"><ele>181.0</ele><time>2026-04-26T08:32:54.936Z</time></trkpt><trkpt lat="44.939455" lon="9.576565"><ele>181.0</ele><time>2026-04-26T08:32:55.936Z</time></trkpt><trkpt lat="44.93928" lon="9.5765933"><ele>181.0</ele><time>2026-04-26T08:32:56.936Z</time></trkpt><trkpt lat="44.939105" lon="9.5766233"><ele>181.0</ele><time>2026-04-26T08:32:57.94Z</time></trkpt><trkpt lat="44.93893" lon="9.5766533"><ele>182.0</ele><time>2026-04-26T08:32:58.934Z</time></trkpt><trkpt lat="44.9387567" lon="9.5766867"><ele>183.0</ele><time>2026-04-26T08:32:59.935Z</time></trkpt><trkpt lat="44.93859" lon="9.5767167"><ele>184.0</ele><time>2026-04-26T08:33:00.936Z</time></trkpt><trkpt lat="44.9384383" lon="9.5767367"><ele>185.0</ele><time>2026-04-26T08:33:01.935Z</time></trkpt><trkpt lat="44.9382983" lon="9.5767317"><ele>186.0</ele><time>2026-04-26T08:33:02.935Z</time></trkpt><trkpt lat="44.9381717" lon="9.5767083"><ele>187.0</ele><time>2026-04-26T08:33:03.935Z</time></trkpt><trkpt lat="44.93805" lon="9.5766683"><ele>188.0</ele><time>2026-04-26T08:33:04.941Z</time></trkpt><trkpt lat="44.93792" lon="9.5766183"><ele>188.0</ele><time>2026-04-26T08:33:05.936Z</time></trkpt><trkpt lat="44.937785" lon="9.57656"><ele>188.0</ele><time>2026-04-26T08:33:06.934Z</time></trkpt><trkpt lat="44.937645" lon="9.5764967"><ele>188.0</ele><time>2026-04-26T08:33:07.935Z</time></trkpt><trkpt lat="44.93749" lon="9.5764317"><ele>188.66666666666666</ele><time>2026-04-26T08:33:08.935Z</time></trkpt><trkpt lat="44.937325" lon="9.5763733"><ele>189.33333333333334</ele><time>2026-04-26T08:33:09.935Z</time></trkpt><trkpt lat="44.93715" lon="9.5763183"><ele>190.0</ele><time>2026-04-26T08:33:10.934Z</time></trkpt><trkpt lat="44.9369767" lon="9.5762767"><ele>190.0</ele><time>2026-04-26T08:33:11.934Z</time></trkpt><trkpt lat="44.9368017" lon="9.5762467"><ele>190.0</ele><time>2026-04-26T08:33:12.936Z</time></trkpt><trkpt lat="44.9366317" lon="9.5762267"><ele>190.0</ele><time>2026-04-26T08:33:13.934Z</time></trkpt><trkpt lat="44.9364667" lon="9.5762067"><ele>190.0</ele><time>2026-04-26T08:33:14.935Z</time></trkpt><trkpt lat="44.9363017" lon="9.5761867"><ele>190.0</ele><time>2026-04-26T08:33:15.934Z</time></trkpt><trkpt lat="44.9361433" lon="9.57617"><ele>190.0</ele><time>2026-04-26T08:33:16.935Z</time></trkpt><trkpt lat="44.9359867" lon="9.5761567"><ele>191.0</ele><time>2026-04-26T08:33:17.936Z</time></trkpt><trkpt lat="44.9358367" lon="9.5761483"><ele>192.0</ele><time>2026-04-26T08:33:18.935Z</time></trkpt><trkpt lat="44.935695" lon="9.5761317"><ele>193.0</ele><time>2026-04-26T08:33:19.936Z</time></trkpt><trkpt lat="44.9355617" lon="9.5761117"><ele>194.0</ele><time>2026-04-26T08:33:20.94Z</time></trkpt><trkpt lat="44.9354317" lon="9.57609"><ele>194.0</ele><time>2026-04-26T08:33:21.935Z</time></trkpt><trkpt lat="44.9353067" lon="9.5760683"><ele>194.0</ele><time>2026-04-26T08:33:22.934Z</time></trkpt><trkpt lat="44.9351833" lon="9.5760533"><ele>194.0</ele><time>2026-04-26T08:33:23.938Z</time></trkpt><trkpt lat="44.9350583" lon="9.57604"><ele>194.0</ele><time>2026-04-26T08:33:24.934Z</time></trkpt><trkpt lat="44.9349267" lon="9.5760233"><ele>194.25</ele><time>2026-04-26T08:33:25.941Z</time></trkpt><trkpt lat="44.9347933" lon="9.5760067"><ele>194.5</ele><time>2026-04-26T08:33:26.935Z</time></trkpt><trkpt lat="44.9346567" lon="9.5759933"><ele>194.75</ele><time>2026-04-26T08:33:27.935Z</time></trkpt><trkpt lat="44.9345283" lon="9.5759767"><ele>195.0</ele><time>2026-04-26T08:33:28.935Z</time></trkpt><trkpt lat="44.9344017" lon="9.5759583"><ele>195.0</ele><time>2026-04-26T08:33:29.936Z</time></trkpt><trkpt lat="44.9342717" lon="9.5759317"><ele>195.0</ele><time>2026-04-26T08:33:30.939Z</time></trkpt><trkpt lat="44.93413" lon="9.5758983"><ele>195.0</ele><time>2026-04-26T08:33:31.934Z</time></trkpt><trkpt lat="44.9339817" lon="9.5758667"><ele>195.0</ele><time>2026-04-26T08:33:32.934Z</time></trkpt><trkpt lat="44.9338267" lon="9.57584"><ele>195.66666666666669</ele><time>2026-04-26T08:33:33.935Z</time></trkpt><trkpt lat="44.9336683" lon="9.57581"><ele>196.33333333333334</ele><time>2026-04-26T08:33:34.934Z</time></trkpt><trkpt lat="44.9335067" lon="9.57578"><ele>197.0</ele><time>2026-04-26T08:33:35.935Z</time></trkpt><trkpt lat="44.9333417" lon="9.5757483"><ele>197.33333333333334</ele><time>2026-04-26T08:33:36.935Z</time></trkpt><trkpt lat="44.933175" lon="9.5757167"><ele>197.66666666666669</ele><time>2026-04-26T08:33:37.935Z</time></trkpt><trkpt lat="44.933005" lon="9.5756833"><ele>198.0</ele><time>2026-04-26T08:33:38.936Z</time></trkpt><trkpt lat="44.9328333" lon="9.57565"><ele>198.0</ele><time>2026-04-26T08:33:39.934Z</time></trkpt><trkpt lat="44.9326583" lon="9.575615"><ele>198.0</ele><time>2026-04-26T08:33:40.934Z</time></trkpt><trkpt lat="44.932485" lon="9.57558"><ele>198.0</ele><time>2026-04-26T08:33:41.935Z</time></trkpt><trkpt lat="44.9323083" lon="9.5755467"><ele>199.0</ele><time>2026-04-26T08:33:42.935Z</time></trkpt><trkpt lat="44.9321333" lon="9.575515"><ele>200.0</ele><time>2026-04-26T08:33:43.94Z</time></trkpt><trkpt lat="44.9319567" lon="9.5754817"><ele>201.0</ele><time>2026-04-26T08:33:44.936Z</time></trkpt><trkpt lat="44.93178" lon="9.5754483"><ele>201.66666666666669</ele><time>2026-04-26T08:33:45.935Z</time></trkpt><trkpt lat="44.931605" lon="9.5754133"><ele>202.33333333333334</ele><time>2026-04-26T08:33:46.935Z</time></trkpt><trkpt lat="44.9314317" lon="9.5753733"><ele>203.0</ele><time>2026-04-26T08:33:47.936Z</time></trkpt><trkpt lat="44.9312583" lon="9.5753333"><ele>203.33333333333334</ele><time>2026-04-26T08:33:48.935Z</time></trkpt><trkpt lat="44.9310867" lon="9.5752967"><ele>203.66666666666669</ele><time>2026-04-26T08:33:49.936Z</time></trkpt><trkpt lat="44.9309183" lon="9.5752583"><ele>204.0</ele><time>2026-04-26T08:33:50.936Z</time></trkpt><trkpt lat="44.93075" lon="9.5752117"><ele>205.0</ele><time>2026-04-26T08:33:51.936Z</time></trkpt><trkpt lat="44.930585" lon="9.57515"><ele>206.0</ele><time>2026-04-26T08:33:52.935Z</time></trkpt><trkpt lat="44.9304217" lon="9.5750733"><ele>207.0</ele><time>2026-04-26T08:33:53.936Z</time></trkpt><trkpt lat="44.9302533" lon="9.5749833"><ele>207.0</ele><time>2026-04-26T08:33:54.942Z</time></trkpt><trkpt lat="44.930085" lon="9.57489"><ele>207.0</ele><time>2026-04-26T08:33:55.934Z</time></trkpt><trkpt lat="44.9299133" lon="9.574795"><ele>207.0</ele><time>2026-04-26T08:33:56.935Z</time></trkpt><trkpt lat="44.9297433" lon="9.5747017"><ele>207.66666666666669</ele><time>2026-04-26T08:33:57.934Z</time></trkpt><trkpt lat="44.929575" lon="9.5746067"><ele>208.33333333333334</ele><time>2026-04-26T08:33:58.934Z</time></trkpt><trkpt lat="44.9294083" lon="9.574515"><ele>209.0</ele><time>2026-04-26T08:33:59.939Z</time></trkpt><trkpt lat="44.9292417" lon="9.5744217"><ele>210.33333333333334</ele><time>2026-04-26T08:34:00.935Z</time></trkpt><trkpt lat="44.929075" lon="9.57433"><ele>211.66666666666669</ele><time>2026-04-26T08:34:01.934Z</time></trkpt><trkpt lat="44.928915" lon="9.57424"><ele>213.0</ele><time>2026-04-26T08:34:02.937Z</time></trkpt><trkpt lat="44.9287583" lon="9.5741567"><ele>213.0</ele><time>2026-04-26T08:34:03.936Z</time></trkpt><trkpt lat="44.9286017" lon="9.5740683"><ele>213.0</ele><time>2026-04-26T08:34:04.941Z</time></trkpt><trkpt lat="44.9284533" lon="9.5739883"><ele>213.0</ele><time>2026-04-26T08:34:05.936Z</time></trkpt><trkpt lat="44.92832" lon="9.573915"><ele>213.2</ele><time>2026-04-26T08:34:06.936Z</time></trkpt><trkpt lat="44.9282017" lon="9.57385"><ele>213.4</ele><time>2026-04-26T08:34:07.934Z</time></trkpt><trkpt lat="44.9280917" lon="9.57379"><ele>213.59999999999997</ele><time>2026-04-26T08:34:08.936Z</time></trkpt><trkpt lat="44.927995" lon="9.573735"><ele>213.79999999999998</ele><time>2026-04-26T08:34:09.937Z</time></trkpt><trkpt lat="44.92791" lon="9.5736733"><ele>214.0</ele><time>2026-04-26T08:34:10.933Z</time></trkpt><trkpt lat="44.927845" lon="9.5736"><ele>213.99999999999997</ele><time>2026-04-26T08:34:11.933Z</time></trkpt><trkpt lat="44.9278017" lon="9.573515"><ele>214.0</ele><time>2026-04-26T08:34:12.933Z</time></trkpt><trkpt lat="44.927785" lon="9.57342"><ele>214.0</ele><time>2026-04-26T08:34:13.933Z</time></trkpt><trkpt lat="44.9277933" lon="9.573305"><ele>214.0</ele><time>2026-04-26T08:34:14.937Z</time></trkpt><trkpt lat="44.92781" lon="9.57316"><ele>213.99999999999997</ele><time>2026-04-26T08:34:15.933Z</time></trkpt><trkpt lat="44.9278317" lon="9.57301"><ele>214.0</ele><time>2026-04-26T08:34:16.934Z</time></trkpt><trkpt lat="44.9278533" lon="9.572835"><ele>214.5</ele><time>2026-04-26T08:34:17.935Z</time></trkpt><trkpt lat="44.9278683" lon="9.57265"><ele>215.0</ele><time>2026-04-26T08:34:18.935Z</time></trkpt><trkpt lat="44.9278867" lon="9.5724467"><ele>215.5</ele><time>2026-04-26T08:34:19.936Z</time></trkpt><trkpt lat="44.92791" lon="9.5722283"><ele>216.0</ele><time>2026-04-26T08:34:20.934Z</time></trkpt><trkpt lat="44.9279317" lon="9.57201"><ele>216.5</ele><time>2026-04-26T08:34:21.936Z</time></trkpt><trkpt lat="44.9279533" lon="9.57181"><ele>217.0</ele><time>2026-04-26T08:34:22.934Z</time></trkpt><trkpt lat="44.9279717" lon="9.57163"><ele>217.5</ele><time>2026-04-26T08:34:23.934Z</time></trkpt><trkpt lat="44.92799" lon="9.5714583"><ele>218.0</ele><time>2026-04-26T08:34:24.934Z</time></trkpt><trkpt lat="44.928" lon="9.571305"><ele>218.0</ele><time>2026-04-26T08:34:25.936Z</time></trkpt><trkpt lat="44.9279933" lon="9.5711717"><ele>218.0</ele><time>2026-04-26T08:34:26.935Z</time></trkpt><trkpt lat="44.9279633" lon="9.5710533"><ele>218.0</ele><time>2026-04-26T08:34:27.938Z</time></trkpt><trkpt lat="44.9279" lon="9.570945"><ele>218.0</ele><time>2026-04-26T08:34:28.934Z</time></trkpt><trkpt lat="44.92781" lon="9.5708433"><ele>218.0</ele><time>2026-04-26T08:34:29.934Z</time></trkpt><trkpt lat="44.92771" lon="9.570725"><ele>218.0</ele><time>2026-04-26T08:34:30.935Z</time></trkpt><trkpt lat="44.927605" lon="9.57058"><ele>218.0</ele><time>2026-04-26T08:34:31.934Z</time></trkpt><trkpt lat="44.9274983" lon="9.570415"><ele>218.0</ele><time>2026-04-26T08:34:32.938Z</time></trkpt><trkpt lat="44.927395" lon="9.5702283"><ele>219.0</ele><time>2026-04-26T08:34:33.934Z</time></trkpt><trkpt lat="44.9272833" lon="9.5700317"><ele>220.0</ele><time>2026-04-26T08:34:34.934Z</time></trkpt><trkpt lat="44.927175" lon="9.5698317"><ele>221.0</ele><time>2026-04-26T08:34:35.934Z</time></trkpt><trkpt lat="44.9270733" lon="9.5696433"><ele>221.25</ele><time>2026-04-26T08:34:36.933Z</time></trkpt><trkpt lat="44.9269817" lon="9.569475"><ele>221.5</ele><time>2026-04-26T08:34:37.933Z</time></trkpt><trkpt lat="44.9268933" lon="9.569325"><ele>221.75</ele><time>2026-04-26T08:34:38.935Z</time></trkpt><trkpt lat="44.9268083" lon="9.569175"><ele>222.0</ele><time>2026-04-26T08:34:39.933Z</time></trkpt><trkpt lat="44.9267383" lon="9.569"><ele>222.33333333333331</ele><time>2026-04-26T08:34:40.934Z</time></trkpt><trkpt lat="44.9266933" lon="9.5687983"><ele>222.66666666666666</ele><time>2026-04-26T08:34:41.933Z</time></trkpt><trkpt lat="44.9266717" lon="9.568575"><ele>223.0</ele><time>2026-04-26T08:34:42.933Z</time></trkpt><trkpt lat="44.9266633" lon="9.5683367"><ele>223.0</ele><time>2026-04-26T08:34:43.933Z</time></trkpt><trkpt lat="44.9266583" lon="9.5680933"><ele>223.0</ele><time>2026-04-26T08:34:44.942Z</time></trkpt><trkpt lat="44.9266483" lon="9.5678483"><ele>223.0</ele><time>2026-04-26T08:34:45.934Z</time></trkpt><trkpt lat="44.92664" lon="9.5676033"><ele>224.0</ele><time>2026-04-26T08:34:46.933Z</time></trkpt><trkpt lat="44.9266367" lon="9.5673667"><ele>225.0</ele><time>2026-04-26T08:34:47.936Z</time></trkpt><trkpt lat="44.9266317" lon="9.56714"><ele>226.0</ele><time>2026-04-26T08:34:48.936Z</time></trkpt><trkpt lat="44.926625" lon="9.5669333"><ele>226.60000000000002</ele><time>2026-04-26T08:34:49.937Z</time></trkpt><trkpt lat="44.9266183" lon="9.5667483"><ele>227.20000000000002</ele><time>2026-04-26T08:34:50.937Z</time></trkpt><trkpt lat="44.92661" lon="9.5665833"><ele>227.79999999999998</ele><time>2026-04-26T08:34:51.935Z</time></trkpt><trkpt lat="44.9266" lon="9.56645"><ele>228.39999999999998</ele><time>2026-04-26T08:34:52.936Z</time></trkpt><trkpt lat="44.9265967" lon="9.5663417"><ele>229.0</ele><time>2026-04-26T08:34:53.935Z</time></trkpt><trkpt lat="44.9265867" lon="9.5662167"><ele>229.0</ele><time>2026-04-26T08:34:55.941Z</time></trkpt><trkpt lat="44.9265033" lon="9.5662467"><ele>228.99999999999997</ele><time>2026-04-26T08:34:59.935Z</time></trkpt><trkpt lat="44.9263967" lon="9.566365"><ele>228.99999999999997</ele><time>2026-04-26T08:35:01.933Z</time></trkpt><trkpt lat="44.9263167" lon="9.56642"><ele>229.0</ele><time>2026-04-26T08:35:02.941Z</time></trkpt><trkpt lat="44.92622" lon="9.5664667"><ele>229.0</ele><time>2026-04-26T08:35:03.934Z</time></trkpt><trkpt lat="44.9261067" lon="9.5665117"><ele>229.0</ele><time>2026-04-26T08:35:04.935Z</time></trkpt><trkpt lat="44.9259933" lon="9.566555"><ele>228.99999999999997</ele><time>2026-04-26T08:35:05.934Z</time></trkpt><trkpt lat="44.9258967" lon="9.5665917"><ele>228.99999999999997</ele><time>2026-04-26T08:35:06.935Z</time></trkpt><trkpt lat="44.925825" lon="9.5666133"><ele>229.0</ele><time>2026-04-26T08:35:07.936Z</time></trkpt><trkpt lat="44.9257467" lon="9.5665767"><ele>229.0</ele><time>2026-04-26T08:35:09.935Z</time></trkpt><trkpt lat="44.92573" lon="9.5664267"><ele>229.2</ele><time>2026-04-26T08:35:11.94Z</time></trkpt><trkpt lat="44.9257233" lon="9.56633"><ele>229.39999999999998</ele><time>2026-04-26T08:35:12.936Z</time></trkpt><trkpt lat="44.9257233" lon="9.56621"><ele>229.6</ele><time>2026-04-26T08:35:13.936Z</time></trkpt><trkpt lat="44.9257133" lon="9.5660683"><ele>229.8</ele><time>2026-04-26T08:35:14.935Z</time></trkpt><trkpt lat="44.9256933" lon="9.565925"><ele>230.0</ele><time>2026-04-26T08:35:15.933Z</time></trkpt><trkpt lat="44.9256733" lon="9.5657917"><ele>230.00000000000003</ele><time>2026-04-26T08:35:16.933Z</time></trkpt><trkpt lat="44.925655" lon="9.5656633"><ele>230.0</ele><time>2026-04-26T08:35:17.934Z</time></trkpt><trkpt lat="44.9256367" lon="9.56554"><ele>230.0</ele><time>2026-04-26T08:35:19.014Z</time></trkpt><trkpt lat="44.925615" lon="9.565435"><ele>230.0</ele><time>2026-04-26T08:35:19.934Z</time></trkpt><trkpt lat="44.92558" lon="9.56533"><ele>230.00000000000003</ele><time>2026-04-26T08:35:20.936Z</time></trkpt><trkpt lat="44.925535" lon="9.5652417"><ele>230.0</ele><time>2026-04-26T08:35:21.934Z</time></trkpt><trkpt lat="44.9254767" lon="9.5651467"><ele>228.0</ele><time>2026-04-26T08:35:22.936Z</time></trkpt><trkpt lat="44.9254033" lon="9.565035"><ele>226.0</ele><time>2026-04-26T08:35:23.935Z</time></trkpt><trkpt lat="44.9253083" lon="9.5649217"><ele>224.0</ele><time>2026-04-26T08:35:24.934Z</time></trkpt><trkpt lat="44.9252167" lon="9.5648233"><ele>222.0</ele><time>2026-04-26T08:35:25.935Z</time></trkpt><trkpt lat="44.9251017" lon="9.5647317"><ele>222.0</ele><time>2026-04-26T08:35:26.934Z</time></trkpt><trkpt lat="44.9249983" lon="9.56466"><ele>222.0</ele><time>2026-04-26T08:35:27.934Z</time></trkpt><trkpt lat="44.9248033" lon="9.5645417"><ele>222.0</ele><time>2026-04-26T08:35:29.934Z</time></trkpt><trkpt lat="44.9247367" lon="9.5644833"><ele>222.0</ele><time>2026-04-26T08:35:30.935Z</time></trkpt><trkpt lat="44.9246833" lon="9.5644133"><ele>220.8</ele><time>2026-04-26T08:35:31.937Z</time></trkpt><trkpt lat="44.9246083" lon="9.5642867"><ele>219.6</ele><time>2026-04-26T08:35:33.933Z</time></trkpt><trkpt lat="44.9245567" lon="9.5640983"><ele>218.40000000000003</ele><time>2026-04-26T08:35:35.933Z</time></trkpt><trkpt lat="44.92454" lon="9.5639667"><ele>217.20000000000002</ele><time>2026-04-26T08:35:36.935Z</time></trkpt><trkpt lat="44.9245183" lon="9.5638517"><ele>216.0</ele><time>2026-04-26T08:35:37.933Z</time></trkpt><trkpt lat="44.9244817" lon="9.5637583"><ele>216.0</ele><time>2026-04-26T08:35:38.935Z</time></trkpt><trkpt lat="44.9244283" lon="9.5637033"><ele>216.0</ele><time>2026-04-26T08:35:39.934Z</time></trkpt><trkpt lat="44.9243667" lon="9.56365"><ele>216.0</ele><time>2026-04-26T08:35:40.933Z</time></trkpt><trkpt lat="44.9243067" lon="9.56359"><ele>216.0</ele><time>2026-04-26T08:35:41.935Z</time></trkpt><trkpt lat="44.9242467" lon="9.563555"><ele>216.0</ele><time>2026-04-26T08:35:42.933Z</time></trkpt><trkpt lat="44.9241667" lon="9.56351"><ele>216.0</ele><time>2026-04-26T08:35:44.933Z</time></trkpt><trkpt lat="44.9241833" lon="9.56327"><ele>216.0</ele><time>2026-04-26T08:35:57.934Z</time></trkpt><trkpt lat="44.9242133" lon="9.5631167"><ele>216.0</ele><time>2026-04-26T08:35:58.935Z</time></trkpt><trkpt lat="44.9242383" lon="9.5629583"><ele>216.0</ele><time>2026-04-26T08:35:59.933Z</time></trkpt><trkpt lat="44.9242633" lon="9.5628033"><ele>216.0</ele><time>2026-04-26T08:36:00.938Z</time></trkpt><trkpt lat="44.9242883" lon="9.5626417"><ele>216.8</ele><time>2026-04-26T08:36:01.935Z</time></trkpt><trkpt lat="44.9243167" lon="9.5624983"><ele>217.60000000000002</ele><time>2026-04-26T08:36:02.935Z</time></trkpt><trkpt lat="44.9243467" lon="9.5623583"><ele>218.4</ele><time>2026-04-26T08:36:03.934Z</time></trkpt><trkpt lat="44.924375" lon="9.56222"><ele>219.2</ele><time>2026-04-26T08:36:04.938Z</time></trkpt><trkpt lat="44.924405" lon="9.5620933"><ele>220.0</ele><time>2026-04-26T08:36:05.935Z</time></trkpt><trkpt lat="44.9244317" lon="9.5619783"><ele>220.42857142857142</ele><time>2026-04-26T08:36:06.933Z</time></trkpt><trkpt lat="44.92445" lon="9.5618717"><ele>220.85714285714286</ele><time>2026-04-26T08:36:07.934Z</time></trkpt><trkpt lat="44.92446" lon="9.561775"><ele>221.28571428571428</ele><time>2026-04-26T08:36:08.937Z</time></trkpt><trkpt lat="44.9244667" lon="9.561685"><ele>221.71428571428572</ele><time>2026-04-26T08:36:09.933Z</time></trkpt><trkpt lat="44.92447" lon="9.561585"><ele>222.14285714285714</ele><time>2026-04-26T08:36:11.933Z</time></trkpt><trkpt lat="44.9245083" lon="9.5615067"><ele>222.57142857142856</ele><time>2026-04-26T08:36:13.934Z</time></trkpt><trkpt lat="44.9245683" lon="9.5614383"><ele>223.0</ele><time>2026-04-26T08:36:16.933Z</time></trkpt><trkpt lat="44.9245517" lon="9.56135"><ele>222.99999999999997</ele><time>2026-04-26T08:36:18.935Z</time></trkpt><trkpt lat="44.92446" lon="9.5612117"><ele>223.0</ele><time>2026-04-26T08:36:20.941Z</time></trkpt><trkpt lat="44.9244033" lon="9.56114"><ele>223.0</ele><time>2026-04-26T08:36:21.935Z</time></trkpt><trkpt lat="44.9243467" lon="9.5610833"><ele>223.0</ele><time>2026-04-26T08:36:22.937Z</time></trkpt><trkpt lat="44.9242833" lon="9.561025"><ele>222.99999999999997</ele><time>2026-04-26T08:36:23.937Z</time></trkpt><trkpt lat="44.9242117" lon="9.5609683"><ele>223.0</ele><time>2026-04-26T08:36:24.94Z</time></trkpt><trkpt lat="44.924145" lon="9.560915"><ele>223.99999999999997</ele><time>2026-04-26T08:36:25.935Z</time></trkpt><trkpt lat="44.924085" lon="9.5608767"><ele>225.0</ele><time>2026-04-26T08:36:26.934Z</time></trkpt><trkpt lat="44.9239517" lon="9.5608467"><ele>226.0</ele><time>2026-04-26T08:36:28.933Z</time></trkpt><trkpt lat="44.9238717" lon="9.5608417"><ele>227.0</ele><time>2026-04-26T08:36:29.935Z</time></trkpt><trkpt lat="44.923795" lon="9.5608367"><ele>227.99999999999997</ele><time>2026-04-26T08:36:30.935Z</time></trkpt><trkpt lat="44.9237317" lon="9.5608267"><ele>229.0</ele><time>2026-04-26T08:36:31.934Z</time></trkpt><trkpt lat="44.9236217" lon="9.5607683"><ele>228.99999999999997</ele><time>2026-04-26T08:36:33.937Z</time></trkpt><trkpt lat="44.92357" lon="9.5607033"><ele>229.0</ele><time>2026-04-26T08:36:34.935Z</time></trkpt><trkpt lat="44.9235167" lon="9.5606217"><ele>229.0</ele><time>2026-04-26T08:36:35.937Z</time></trkpt><trkpt lat="44.92345" lon="9.56052"><ele>229.0</ele><time>2026-04-26T08:36:36.94Z</time></trkpt><trkpt lat="44.923385" lon="9.5604183"><ele>228.99999999999997</ele><time>2026-04-26T08:36:37.934Z</time></trkpt><trkpt lat="44.923325" lon="9.560325"><ele>229.0</ele><time>2026-04-26T08:36:38.935Z</time></trkpt><trkpt lat="44.9232717" lon="9.5602433"><ele>230.33333333333331</ele><time>2026-04-26T08:36:39.936Z</time></trkpt><trkpt lat="44.92322" lon="9.5601617"><ele>231.66666666666666</ele><time>2026-04-26T08:36:40.934Z</time></trkpt><trkpt lat="44.9231733" lon="9.5600817"><ele>233.0</ele><time>2026-04-26T08:36:41.939Z</time></trkpt><trkpt lat="44.9231167" lon="9.5600167"><ele>234.33333333333331</ele><time>2026-04-26T08:36:42.933Z</time></trkpt><trkpt lat="44.9230633" lon="9.5599517"><ele>235.66666666666666</ele><time>2026-04-26T08:36:43.934Z</time></trkpt><trkpt lat="44.923005" lon="9.5598817"><ele>237.0</ele><time>2026-04-26T08:36:44.934Z</time></trkpt><trkpt lat="44.922935" lon="9.5597317"><ele>237.0</ele><time>2026-04-26T08:36:46.935Z</time></trkpt><trkpt lat="44.92291" lon="9.5596417"><ele>237.0</ele><time>2026-04-26T08:36:47.934Z</time></trkpt><trkpt lat="44.9228883" lon="9.5595433"><ele>237.0</ele><time>2026-04-26T08:36:48.936Z</time></trkpt><trkpt lat="44.922875" lon="9.5594433"><ele>237.0</ele><time>2026-04-26T08:36:49.936Z</time></trkpt><trkpt lat="44.9228683" lon="9.5593183"><ele>237.0</ele><time>2026-04-26T08:36:50.935Z</time></trkpt><trkpt lat="44.9228583" lon="9.559205"><ele>237.0</ele><time>2026-04-26T08:36:51.935Z</time></trkpt><trkpt lat="44.92285" lon="9.55911"><ele>238.0</ele><time>2026-04-26T08:36:52.934Z</time></trkpt><trkpt lat="44.9228433" lon="9.559015"><ele>239.0</ele><time>2026-04-26T08:36:53.933Z</time></trkpt><trkpt lat="44.92284" lon="9.5588817"><ele>240.0</ele><time>2026-04-26T08:36:55.935Z</time></trkpt><trkpt lat="44.9228833" lon="9.5587667"><ele>241.0</ele><time>2026-04-26T08:36:57.935Z</time></trkpt><trkpt lat="44.9229283" lon="9.5586483"><ele>242.0</ele><time>2026-04-26T08:36:59.936Z</time></trkpt><trkpt lat="44.9229483" lon="9.5585083"><ele>242.83333333333334</ele><time>2026-04-26T08:37:01.936Z</time></trkpt><trkpt lat="44.9229967" lon="9.5584017"><ele>243.66666666666669</ele><time>2026-04-26T08:37:03.936Z</time></trkpt><trkpt lat="44.9230917" lon="9.558345"><ele>244.5</ele><time>2026-04-26T08:37:05.935Z</time></trkpt><trkpt lat="44.9231583" lon="9.5583167"><ele>245.33333333333331</ele><time>2026-04-26T08:37:06.934Z</time></trkpt><trkpt lat="44.9232267" lon="9.5582633"><ele>246.16666666666666</ele><time>2026-04-26T08:37:07.935Z</time></trkpt><trkpt lat="44.9232933" lon="9.55821"><ele>247.0</ele><time>2026-04-26T08:37:08.934Z</time></trkpt><trkpt lat="44.9233483" lon="9.558155"><ele>246.99999999999997</ele><time>2026-04-26T08:37:09.934Z</time></trkpt><trkpt lat="44.9233933" lon="9.55809"><ele>247.0</ele><time>2026-04-26T08:37:10.935Z</time></trkpt><trkpt lat="44.923425" lon="9.558005"><ele>247.0</ele><time>2026-04-26T08:37:11.933Z</time></trkpt><trkpt lat="44.9234417" lon="9.55791"><ele>247.0</ele><time>2026-04-26T08:37:12.934Z</time></trkpt><trkpt lat="44.9234417" lon="9.5578033"><ele>246.99999999999997</ele><time>2026-04-26T08:37:13.936Z</time></trkpt><trkpt lat="44.9234233" lon="9.5576917"><ele>247.0</ele><time>2026-04-26T08:37:14.933Z</time></trkpt><trkpt lat="44.9233683" lon="9.5575767"><ele>248.5</ele><time>2026-04-26T08:37:15.934Z</time></trkpt><trkpt lat="44.923285" lon="9.55745"><ele>250.0</ele><time>2026-04-26T08:37:16.933Z</time></trkpt><trkpt lat="44.923205" lon="9.5573117"><ele>251.5</ele><time>2026-04-26T08:37:17.936Z</time></trkpt><trkpt lat="44.9231333" lon="9.5571817"><ele>253.0</ele><time>2026-04-26T08:37:18.94Z</time></trkpt><trkpt lat="44.9230767" lon="9.5570733"><ele>254.16666666666666</ele><time>2026-04-26T08:37:19.938Z</time></trkpt><trkpt lat="44.9230367" lon="9.55697"><ele>255.33333333333331</ele><time>2026-04-26T08:37:20.937Z</time></trkpt><trkpt lat="44.923015" lon="9.5568633"><ele>256.5</ele><time>2026-04-26T08:37:21.937Z</time></trkpt><trkpt lat="44.9230133" lon="9.55676"><ele>257.6666666666667</ele><time>2026-04-26T08:37:22.936Z</time></trkpt><trkpt lat="44.9230433" lon="9.5566567"><ele>258.83333333333337</ele><time>2026-04-26T08:37:23.935Z</time></trkpt><trkpt lat="44.9230867" lon="9.5565417"><ele>260.0</ele><time>2026-04-26T08:37:24.933Z</time></trkpt><trkpt lat="44.9231183" lon="9.55642"><ele>260.0</ele><time>2026-04-26T08:37:25.933Z</time></trkpt><trkpt lat="44.9231517" lon="9.556305"><ele>260.0</ele><time>2026-04-26T08:37:26.936Z</time></trkpt><trkpt lat="44.9231867" lon="9.5561883"><ele>260.0</ele><time>2026-04-26T08:37:27.934Z</time></trkpt><trkpt lat="44.9232233" lon="9.55608"><ele>260.0</ele><time>2026-04-26T08:37:28.937Z</time></trkpt><trkpt lat="44.9232567" lon="9.5559683"><ele>260.0</ele><time>2026-04-26T08:37:29.935Z</time></trkpt><trkpt lat="44.9232783" lon="9.5558633"><ele>260.0</ele><time>2026-04-26T08:37:30.934Z</time></trkpt><trkpt lat="44.9232823" lon="9.5557648"><ele>260.5</ele><time>2026-04-26T08:37:31.935Z</time></trkpt><trkpt lat="44.9232704" lon="9.5556684"><ele>261.0</ele><time>2026-04-26T08:37:32.934Z</time></trkpt><trkpt lat="44.9232386" lon="9.5555693"><ele>261.5</ele><time>2026-04-26T08:37:33.934Z</time></trkpt><trkpt lat="44.923193" lon="9.555472"><ele>262.0</ele><time>2026-04-26T08:37:34.934Z</time></trkpt><trkpt lat="44.9231347" lon="9.555377"><ele>262.5</ele><time>2026-04-26T08:37:35.94Z</time></trkpt><trkpt lat="44.9230607" lon="9.5552864"><ele>263.0</ele><time>2026-04-26T08:37:36.935Z</time></trkpt><trkpt lat="44.9229777" lon="9.555192"><ele>263.0</ele><time>2026-04-26T08:37:37.935Z</time></trkpt><trkpt lat="44.9228893" lon="9.5550902"><ele>263.0</ele><time>2026-04-26T08:37:38.934Z</time></trkpt><trkpt lat="44.9227975" lon="9.5549712"><ele>263.0</ele><time>2026-04-26T08:37:39.936Z</time></trkpt><trkpt lat="44.9226966" lon="9.5548449"><ele>263.0</ele><time>2026-04-26T08:37:40.934Z</time></trkpt><trkpt lat="44.9225817" lon="9.5547193"><ele>267.5</ele><time>2026-04-26T08:37:41.936Z</time></trkpt><trkpt lat="44.9224651" lon="9.5545919"><ele>272.0</ele><time>2026-04-26T08:37:42.939Z</time></trkpt><trkpt lat="44.9223523" lon="9.5544692"><ele>276.5</ele><time>2026-04-26T08:37:43.935Z</time></trkpt><trkpt lat="44.9222434" lon="9.5543515"><ele>281.0</ele><time>2026-04-26T08:37:44.939Z</time></trkpt><trkpt lat="44.9221398" lon="9.5542351"><ele>281.0</ele><time>2026-04-26T08:37:45.935Z</time></trkpt><trkpt lat="44.9220391" lon="9.5541185"><ele>281.0</ele><time>2026-04-26T08:37:46.935Z</time></trkpt><trkpt lat="44.9219442" lon="9.5540081"><ele>281.0</ele><time>2026-04-26T08:37:47.938Z</time></trkpt><trkpt lat="44.9218535" lon="9.553894"><ele>281.0</ele><time>2026-04-26T08:37:48.933Z</time></trkpt><trkpt lat="44.9217662" lon="9.5537907"><ele>284.40000000000003</ele><time>2026-04-26T08:37:49.934Z</time></trkpt><trkpt lat="44.9216896" lon="9.5537095"><ele>287.8</ele><time>2026-04-26T08:37:50.941Z</time></trkpt><trkpt lat="44.9216178" lon="9.5536609"><ele>291.20000000000005</ele><time>2026-04-26T08:37:51.935Z</time></trkpt><trkpt lat="44.9215406" lon="9.5536219"><ele>294.6</ele><time>2026-04-26T08:37:52.934Z</time></trkpt><trkpt lat="44.9214501" lon="9.5535577"><ele>298.0</ele><time>2026-04-26T08:37:53.934Z</time></trkpt><trkpt lat="44.9213488" lon="9.5534805"><ele>298.5</ele><time>2026-04-26T08:37:54.934Z</time></trkpt><trkpt lat="44.9212377" lon="9.5534009"><ele>299.0</ele><time>2026-04-26T08:37:55.935Z</time></trkpt><trkpt lat="44.9211289" lon="9.5533255"><ele>299.5</ele><time>2026-04-26T08:37:56.935Z</time></trkpt><trkpt lat="44.9210295" lon="9.553256"><ele>300.0</ele><time>2026-04-26T08:37:57.94Z</time></trkpt><trkpt lat="44.9209403" lon="9.5531854"><ele>302.0</ele><time>2026-04-26T08:37:58.935Z</time></trkpt><trkpt lat="44.9208692" lon="9.5531229"><ele>304.0</ele><time>2026-04-26T08:37:59.937Z</time></trkpt><trkpt lat="44.9208084" lon="9.5530718"><ele>306.0</ele><time>2026-04-26T08:38:00.934Z</time></trkpt><trkpt lat="44.9207509" lon="9.5530327"><ele>308.0</ele><time>2026-04-26T08:38:01.934Z</time></trkpt><trkpt lat="44.9206885" lon="9.5530055"><ele>310.0</ele><time>2026-04-26T08:38:02.935Z</time></trkpt><trkpt lat="44.9206113" lon="9.5529874"><ele>312.0</ele><time>2026-04-26T08:38:03.934Z</time></trkpt><trkpt lat="44.9205244" lon="9.5529676"><ele>312.0</ele><time>2026-04-26T08:38:04.934Z</time></trkpt><trkpt lat="44.9204366" lon="9.5529421"><ele>312.0</ele><time>2026-04-26T08:38:05.936Z</time></trkpt><trkpt lat="44.9203554" lon="9.5529184"><ele>312.0</ele><time>2026-04-26T08:38:06.935Z</time></trkpt><trkpt lat="44.9202769" lon="9.5528898"><ele>312.0</ele><time>2026-04-26T08:38:07.934Z</time></trkpt><trkpt lat="44.9202044" lon="9.552856"><ele>312.0</ele><time>2026-04-26T08:38:08.941Z</time></trkpt><trkpt lat="44.9201368" lon="9.5528207"><ele>312.0</ele><time>2026-04-26T08:38:09.934Z</time></trkpt><trkpt lat="44.9200774" lon="9.5527842"><ele>312.8</ele><time>2026-04-26T08:38:10.934Z</time></trkpt><trkpt lat="44.9199874" lon="9.5527273"><ele>313.6</ele><time>2026-04-26T08:38:12.934Z</time></trkpt><trkpt lat="44.9198685" lon="9.5527572"><ele>314.40000000000003</ele><time>2026-04-26T08:38:14.935Z</time></trkpt><trkpt lat="44.9197907" lon="9.552799"><ele>315.2</ele><time>2026-04-26T08:38:15.937Z</time></trkpt><trkpt lat="44.919703" lon="9.5528429"><ele>316.0</ele><time>2026-04-26T08:38:16.933Z</time></trkpt><trkpt lat="44.9195936" lon="9.5528853"><ele>316.0</ele><time>2026-04-26T08:38:17.933Z</time></trkpt><trkpt lat="44.9194713" lon="9.5529212"><ele>316.0</ele><time>2026-04-26T08:38:18.935Z</time></trkpt><trkpt lat="44.919342" lon="9.5529643"><ele>316.0</ele><time>2026-04-26T08:38:19.935Z</time></trkpt><trkpt lat="44.9192119" lon="9.5530172"><ele>316.0</ele><time>2026-04-26T08:38:20.938Z</time></trkpt><trkpt lat="44.9190816" lon="9.553069"><ele>316.25</ele><time>2026-04-26T08:38:21.933Z</time></trkpt><trkpt lat="44.918944" lon="9.5531009"><ele>316.5</ele><time>2026-04-26T08:38:22.933Z</time></trkpt><trkpt lat="44.9187952" lon="9.5531048"><ele>316.75</ele><time>2026-04-26T08:38:23.933Z</time></trkpt><trkpt lat="44.9186369" lon="9.5530879"><ele>317.0</ele><time>2026-04-26T08:38:24.934Z</time></trkpt><trkpt lat="44.91848" lon="9.553075"><ele>317.25</ele><time>2026-04-26T08:38:25.935Z</time></trkpt><trkpt lat="44.918332" lon="9.5530815"><ele>317.5</ele><time>2026-04-26T08:38:26.935Z</time></trkpt><trkpt lat="44.9181982" lon="9.5530945"><ele>317.75</ele><time>2026-04-26T08:38:27.936Z</time></trkpt><trkpt lat="44.9180732" lon="9.5531015"><ele>318.0</ele><time>2026-04-26T08:38:28.934Z</time></trkpt><trkpt lat="44.9179502" lon="9.5531118"><ele>318.0</ele><time>2026-04-26T08:38:29.934Z</time></trkpt><trkpt lat="44.9178217" lon="9.5531361"><ele>318.0</ele><time>2026-04-26T08:38:30.934Z</time></trkpt><trkpt lat="44.9176851" lon="9.5531706"><ele>318.0</ele><time>2026-04-26T08:38:31.937Z</time></trkpt><trkpt lat="44.9175465" lon="9.5532143"><ele>318.0</ele><time>2026-04-26T08:38:32.934Z</time></trkpt><trkpt lat="44.9174109" lon="9.5532765"><ele>318.5</ele><time>2026-04-26T08:38:33.934Z</time></trkpt><trkpt lat="44.9172829" lon="9.5533563"><ele>319.0</ele><time>2026-04-26T08:38:34.935Z</time></trkpt><trkpt lat="44.9171652" lon="9.5534373"><ele>319.5</ele><time>2026-04-26T08:38:35.934Z</time></trkpt><trkpt lat="44.9170596" lon="9.5535085"><ele>320.0</ele><time>2026-04-26T08:38:36.936Z</time></trkpt><trkpt lat="44.9169769" lon="9.5535782"><ele>320.0</ele><time>2026-04-26T08:38:37.934Z</time></trkpt><trkpt lat="44.9169197" lon="9.5536616"><ele>320.0</ele><time>2026-04-26T08:38:38.936Z</time></trkpt><trkpt lat="44.9168842" lon="9.5537639"><ele>320.0</ele><time>2026-04-26T08:38:39.935Z</time></trkpt><trkpt lat="44.916894" lon="9.5539005"><ele>320.0</ele><time>2026-04-26T08:38:40.939Z</time></trkpt><trkpt lat="44.9169397" lon="9.554055"><ele>320.0</ele><time>2026-04-26T08:38:41.934Z</time></trkpt><trkpt lat="44.9170192" lon="9.5542074"><ele>318.75</ele><time>2026-04-26T08:38:42.934Z</time></trkpt><trkpt lat="44.9171274" lon="9.5543512"><ele>317.5</ele><time>2026-04-26T08:38:43.937Z</time></trkpt><trkpt lat="44.9172396" lon="9.5544898"><ele>316.25</ele><time>2026-04-26T08:38:44.935Z</time></trkpt><trkpt lat="44.9173324" lon="9.5546251"><ele>315.0</ele><time>2026-04-26T08:38:45.933Z</time></trkpt><trkpt lat="44.9173858" lon="9.554786"><ele>315.0</ele><time>2026-04-26T08:38:46.934Z</time></trkpt><trkpt lat="44.9174007" lon="9.5549833"><ele>315.0</ele><time>2026-04-26T08:38:47.936Z</time></trkpt><trkpt lat="44.9173926" lon="9.5552003"><ele>315.0</ele><time>2026-04-26T08:38:48.934Z</time></trkpt><trkpt lat="44.9173759" lon="9.5554109"><ele>315.0</ele><time>2026-04-26T08:38:49.935Z</time></trkpt><trkpt lat="44.9173525" lon="9.5555963"><ele>315.25</ele><time>2026-04-26T08:38:50.934Z</time></trkpt><trkpt lat="44.917322" lon="9.5557578"><ele>315.5</ele><time>2026-04-26T08:38:51.935Z</time></trkpt><trkpt lat="44.917285" lon="9.5559087"><ele>315.75</ele><time>2026-04-26T08:38:52.936Z</time></trkpt><trkpt lat="44.9172386" lon="9.5560605"><ele>316.0</ele><time>2026-04-26T08:38:53.935Z</time></trkpt><trkpt lat="44.9171816" lon="9.5562284"><ele>316.0</ele><time>2026-04-26T08:38:54.934Z</time></trkpt><trkpt lat="44.9171147" lon="9.5564142"><ele>316.0</ele><time>2026-04-26T08:38:55.936Z</time></trkpt><trkpt lat="44.9170437" lon="9.5566121"><ele>316.0</ele><time>2026-04-26T08:38:56.935Z</time></trkpt><trkpt lat="44.9169683" lon="9.5568137"><ele>316.0</ele><time>2026-04-26T08:38:57.934Z</time></trkpt><trkpt lat="44.9168912" lon="9.5570193"><ele>316.0</ele><time>2026-04-26T08:38:58.935Z</time></trkpt><trkpt lat="44.9168139" lon="9.5572352"><ele>316.0</ele><time>2026-04-26T08:38:59.935Z</time></trkpt><trkpt lat="44.9167364" lon="9.5574529"><ele>317.3333333333333</ele><time>2026-04-26T08:39:00.937Z</time></trkpt><trkpt lat="44.9166642" lon="9.5576619"><ele>318.6666666666667</ele><time>2026-04-26T08:39:01.934Z</time></trkpt><trkpt lat="44.9165986" lon="9.5578557"><ele>320.0</ele><time>2026-04-26T08:39:02.935Z</time></trkpt><trkpt lat="44.9165391" lon="9.5580375"><ele>320.0</ele><time>2026-04-26T08:39:03.935Z</time></trkpt><trkpt lat="44.9164802" lon="9.558222"><ele>320.0</ele><time>2026-04-26T08:39:04.936Z</time></trkpt><trkpt lat="44.9164206" lon="9.5584072"><ele>320.0</ele><time>2026-04-26T08:39:05.934Z</time></trkpt><trkpt lat="44.9163577" lon="9.5585923"><ele>320.0</ele><time>2026-04-26T08:39:06.935Z</time></trkpt><trkpt lat="44.9162944" lon="9.5587817"><ele>320.0</ele><time>2026-04-26T08:39:07.935Z</time></trkpt><trkpt lat="44.91625" lon="9.5589733"><ele>320.0</ele><time>2026-04-26T08:39:08.935Z</time></trkpt><trkpt lat="44.916215" lon="9.559165"><ele>320.0</ele><time>2026-04-26T08:39:09.937Z</time></trkpt><trkpt lat="44.9161767" lon="9.559355"><ele>320.0</ele><time>2026-04-26T08:39:10.934Z</time></trkpt><trkpt lat="44.9161183" lon="9.559525"><ele>319.75</ele><time>2026-04-26T08:39:11.935Z</time></trkpt><trkpt lat="44.916035" lon="9.5596833"><ele>319.5</ele><time>2026-04-26T08:39:12.934Z</time></trkpt><trkpt lat="44.9159233" lon="9.559825"><ele>319.25</ele><time>2026-04-26T08:39:13.934Z</time></trkpt><trkpt lat="44.9157983" lon="9.5599567"><ele>319.0</ele><time>2026-04-26T08:39:14.935Z</time></trkpt><trkpt lat="44.9156667" lon="9.5600917"><ele>319.0</ele><time>2026-04-26T08:39:15.933Z</time></trkpt><trkpt lat="44.9155283" lon="9.5602317"><ele>319.0</ele><time>2026-04-26T08:39:17.012Z</time></trkpt><trkpt lat="44.9153867" lon="9.560375"><ele>319.0</ele><time>2026-04-26T08:39:17.933Z</time></trkpt><trkpt lat="44.915245" lon="9.56053"><ele>319.0</ele><time>2026-04-26T08:39:18.937Z</time></trkpt><trkpt lat="44.915105" lon="9.5606783"><ele>319.0</ele><time>2026-04-26T08:39:19.937Z</time></trkpt><trkpt lat="44.914965" lon="9.56082"><ele>319.0</ele><time>2026-04-26T08:39:20.935Z</time></trkpt><trkpt lat="44.9148317" lon="9.56097"><ele>319.0</ele><time>2026-04-26T08:39:21.939Z</time></trkpt><trkpt lat="44.9147" lon="9.56112"><ele>319.0</ele><time>2026-04-26T08:39:22.936Z</time></trkpt><trkpt lat="44.9145667" lon="9.561265"><ele>319.0</ele><time>2026-04-26T08:39:23.936Z</time></trkpt><trkpt lat="44.9144317" lon="9.561405"><ele>320.0</ele><time>2026-04-26T08:39:24.936Z</time></trkpt><trkpt lat="44.9142967" lon="9.56154"><ele>321.0</ele><time>2026-04-26T08:39:25.935Z</time></trkpt><trkpt lat="44.9141667" lon="9.5616767"><ele>322.0</ele><time>2026-04-26T08:39:26.938Z</time></trkpt><trkpt lat="44.9140433" lon="9.5618067"><ele>322.0</ele><time>2026-04-26T08:39:27.94Z</time></trkpt><trkpt lat="44.913935" lon="9.5619467"><ele>322.0</ele><time>2026-04-26T08:39:28.939Z</time></trkpt><trkpt lat="44.91384" lon="9.56211"><ele>322.0</ele><time>2026-04-26T08:39:29.934Z</time></trkpt><trkpt lat="44.9137633" lon="9.562295"><ele>322.0</ele><time>2026-04-26T08:39:30.934Z</time></trkpt><trkpt lat="44.9137017" lon="9.562495"><ele>319.66666666666663</ele><time>2026-04-26T08:39:31.933Z</time></trkpt><trkpt lat="44.91366" lon="9.5627067"><ele>317.3333333333333</ele><time>2026-04-26T08:39:32.937Z</time></trkpt><trkpt lat="44.9136317" lon="9.5629317"><ele>315.0</ele><time>2026-04-26T08:39:33.934Z</time></trkpt><trkpt lat="44.9136067" lon="9.5631533"><ele>314.5</ele><time>2026-04-26T08:39:34.936Z</time></trkpt><trkpt lat="44.913585" lon="9.5633517"><ele>314.0</ele><time>2026-04-26T08:39:35.935Z</time></trkpt><trkpt lat="44.91357" lon="9.5635267"><ele>313.5</ele><time>2026-04-26T08:39:36.934Z</time></trkpt><trkpt lat="44.9135533" lon="9.5636767"><ele>313.0</ele><time>2026-04-26T08:39:37.938Z</time></trkpt><trkpt lat="44.9135383" lon="9.5638067"><ele>313.0</ele><time>2026-04-26T08:39:38.934Z</time></trkpt><trkpt lat="44.9135233" lon="9.5639233"><ele>313.0</ele><time>2026-04-26T08:39:39.939Z</time></trkpt><trkpt lat="44.91351" lon="9.56402"><ele>313.0</ele><time>2026-04-26T08:39:40.934Z</time></trkpt><trkpt lat="44.9134967" lon="9.5641583"><ele>313.0</ele><time>2026-04-26T08:39:42.937Z</time></trkpt><trkpt lat="44.913485" lon="9.5642467"><ele>313.0</ele><time>2026-04-26T08:39:44.936Z</time></trkpt><trkpt lat="44.9134533" lon="9.564325"><ele>313.0</ele><time>2026-04-26T08:39:47.935Z</time></trkpt><trkpt lat="44.9133733" lon="9.5642983"><ele>314.6</ele><time>2026-04-26T08:39:50.941Z</time></trkpt><trkpt lat="44.9133033" lon="9.5642033"><ele>316.20000000000005</ele><time>2026-04-26T08:39:52.935Z</time></trkpt><trkpt lat="44.9132167" lon="9.5640767"><ele>317.8</ele><time>2026-04-26T08:39:54.936Z</time></trkpt><trkpt lat="44.91316" lon="9.5639983"><ele>319.40000000000003</ele><time>2026-04-26T08:39:55.935Z</time></trkpt><trkpt lat="44.9131" lon="9.5639083"><ele>321.0</ele><time>2026-04-26T08:39:56.935Z</time></trkpt><trkpt lat="44.9130383" lon="9.563805"><ele>321.0</ele><time>2026-04-26T08:39:57.935Z</time></trkpt><trkpt lat="44.91298" lon="9.5637"><ele>321.0</ele><time>2026-04-26T08:39:58.934Z</time></trkpt><trkpt lat="44.9129283" lon="9.5635933"><ele>321.0</ele><time>2026-04-26T08:39:59.936Z</time></trkpt><trkpt lat="44.9128817" lon="9.5634817"><ele>321.0</ele><time>2026-04-26T08:40:00.935Z</time></trkpt><trkpt lat="44.9128467" lon="9.5633667"><ele>321.0</ele><time>2026-04-26T08:40:01.934Z</time></trkpt><trkpt lat="44.9128167" lon="9.56325"><ele>321.8</ele><time>2026-04-26T08:40:02.937Z</time></trkpt><trkpt lat="44.9127983" lon="9.5631317"><ele>322.6</ele><time>2026-04-26T08:40:03.935Z</time></trkpt><trkpt lat="44.9127867" lon="9.5630033"><ele>323.4</ele><time>2026-04-26T08:40:04.937Z</time></trkpt><trkpt lat="44.9127733" lon="9.56287"><ele>324.2</ele><time>2026-04-26T08:40:05.937Z</time></trkpt><trkpt lat="44.91276" lon="9.5627333"><ele>325.0</ele><time>2026-04-26T08:40:06.935Z</time></trkpt><trkpt lat="44.9127483" lon="9.5625983"><ele>325.2</ele><time>2026-04-26T08:40:07.936Z</time></trkpt><trkpt lat="44.9127367" lon="9.5624667"><ele>325.4</ele><time>2026-04-26T08:40:08.937Z</time></trkpt><trkpt lat="44.9127167" lon="9.562335"><ele>325.6</ele><time>2026-04-26T08:40:09.937Z</time></trkpt><trkpt lat="44.9126883" lon="9.5622083"><ele>325.8</ele><time>2026-04-26T08:40:10.935Z</time></trkpt><trkpt lat="44.9126467" lon="9.5620867"><ele>326.0</ele><time>2026-04-26T08:40:11.937Z</time></trkpt><trkpt lat="44.9125933" lon="9.5619617"><ele>328.0</ele><time>2026-04-26T08:40:12.936Z</time></trkpt><trkpt lat="44.9125383" lon="9.5618367"><ele>330.0</ele><time>2026-04-26T08:40:13.935Z</time></trkpt><trkpt lat="44.9124833" lon="9.5617283"><ele>332.0</ele><time>2026-04-26T08:40:14.937Z</time></trkpt><trkpt lat="44.9124267" lon="9.56164"><ele>334.0</ele><time>2026-04-26T08:40:15.942Z</time></trkpt><trkpt lat="44.9123717" lon="9.5615683"><ele>336.0</ele><time>2026-04-26T08:40:16.936Z</time></trkpt><trkpt lat="44.9123233" lon="9.56151"><ele>338.0</ele><time>2026-04-26T08:40:17.934Z</time></trkpt><trkpt lat="44.9122267" lon="9.5614733"><ele>338.0</ele><time>2026-04-26T08:40:19.935Z</time></trkpt><trkpt lat="44.912105" lon="9.5615083"><ele>338.0</ele><time>2026-04-26T08:40:21.94Z</time></trkpt><trkpt lat="44.9120383" lon="9.5615383"><ele>338.0</ele><time>2026-04-26T08:40:22.937Z</time></trkpt><trkpt lat="44.9119683" lon="9.56156"><ele>338.0</ele><time>2026-04-26T08:40:23.936Z</time></trkpt><trkpt lat="44.9119017" lon="9.5615717"><ele>338.0</ele><time>2026-04-26T08:40:24.937Z</time></trkpt><trkpt lat="44.9117767" lon="9.5615867"><ele>338.0</ele><time>2026-04-26T08:40:26.935Z</time></trkpt><trkpt lat="44.91167" lon="9.5616133"><ele>338.0</ele><time>2026-04-26T08:40:28.94Z</time></trkpt><trkpt lat="44.911605" lon="9.5616433"><ele>338.0</ele><time>2026-04-26T08:40:30.937Z</time></trkpt><trkpt lat="44.9115617" lon="9.561555"><ele>338.0</ele><time>2026-04-26T08:40:33.934Z</time></trkpt><trkpt lat="44.9116033" lon="9.5614733"><ele>338.0</ele><time>2026-04-26T08:40:35.935Z</time></trkpt><trkpt lat="44.9117183" lon="9.5614367"><ele>338.0</ele><time>2026-04-26T08:40:37.935Z</time></trkpt><trkpt lat="44.91182" lon="9.561365"><ele>338.0</ele><time>2026-04-26T08:40:39.934Z</time></trkpt><trkpt lat="44.9118633" lon="9.561285"><ele>338.0</ele><time>2026-04-26T08:40:40.934Z</time></trkpt><trkpt lat="44.9118983" lon="9.5612033"><ele>338.0</ele><time>2026-04-26T08:40:41.935Z</time></trkpt><trkpt lat="44.911915" lon="9.5611167"><ele>338.0</ele><time>2026-04-26T08:40:42.936Z</time></trkpt><trkpt lat="44.9118917" lon="9.56096"><ele>338.0</ele><time>2026-04-26T08:40:44.942Z</time></trkpt><trkpt lat="44.9118283" lon="9.5608433"><ele>338.0</ele><time>2026-04-26T08:40:46.934Z</time></trkpt><trkpt lat="44.9117683" lon="9.5607783"><ele>340.0</ele><time>2026-04-26T08:40:47.935Z</time></trkpt><trkpt lat="44.9117017" lon="9.5606983"><ele>342.0</ele><time>2026-04-26T08:40:48.936Z</time></trkpt><trkpt lat="44.9116483" lon="9.56061"><ele>344.0</ele><time>2026-04-26T08:40:49.936Z</time></trkpt><trkpt lat="44.911605" lon="9.5605317"><ele>346.0</ele><time>2026-04-26T08:40:50.936Z</time></trkpt><trkpt lat="44.9115683" lon="9.5604567"><ele>348.0</ele><time>2026-04-26T08:40:51.937Z</time></trkpt><trkpt lat="44.911545" lon="9.56037"><ele>350.0</ele><time>2026-04-26T08:40:52.935Z</time></trkpt><trkpt lat="44.9115333" lon="9.56027"><ele>352.0</ele><time>2026-04-26T08:40:53.935Z</time></trkpt><trkpt lat="44.91153" lon="9.56016"><ele>353.0</ele><time>2026-04-26T08:40:54.937Z</time></trkpt><trkpt lat="44.9115333" lon="9.5600433"><ele>354.0</ele><time>2026-04-26T08:40:55.935Z</time></trkpt><trkpt lat="44.91154" lon="9.55992"><ele>355.0</ele><time>2026-04-26T08:40:56.935Z</time></trkpt><trkpt lat="44.9115417" lon="9.5597967"><ele>356.0</ele><time>2026-04-26T08:40:57.94Z</time></trkpt><trkpt lat="44.9115333" lon="9.5596733"><ele>357.0</ele><time>2026-04-26T08:40:58.938Z</time></trkpt><trkpt lat="44.911515" lon="9.559545"><ele>358.0</ele><time>2026-04-26T08:40:59.935Z</time></trkpt><trkpt lat="44.9115017" lon="9.5594067"><ele>359.2</ele><time>2026-04-26T08:41:00.935Z</time></trkpt><trkpt lat="44.91149" lon="9.5592683"><ele>360.4</ele><time>2026-04-26T08:41:01.936Z</time></trkpt><trkpt lat="44.9114733" lon="9.559135"><ele>361.59999999999997</ele><time>2026-04-26T08:41:02.934Z</time></trkpt><trkpt lat="44.91146" lon="9.5589967"><ele>362.79999999999995</ele><time>2026-04-26T08:41:03.935Z</time></trkpt><trkpt lat="44.911445" lon="9.5588633"><ele>364.0</ele><time>2026-04-26T08:41:04.935Z</time></trkpt><trkpt lat="44.9114233" lon="9.558735"><ele>365.2</ele><time>2026-04-26T08:41:05.939Z</time></trkpt><trkpt lat="44.9114033" lon="9.5586067"><ele>366.4</ele><time>2026-04-26T08:41:06.936Z</time></trkpt><trkpt lat="44.911395" lon="9.5584733"><ele>367.6</ele><time>2026-04-26T08:41:07.935Z</time></trkpt><trkpt lat="44.9113883" lon="9.5583417"><ele>368.8</ele><time>2026-04-26T08:41:08.936Z</time></trkpt><trkpt lat="44.911385" lon="9.5581967"><ele>370.0</ele><time>2026-04-26T08:41:09.935Z</time></trkpt><trkpt lat="44.9113817" lon="9.558065"><ele>370.0</ele><time>2026-04-26T08:41:10.937Z</time></trkpt><trkpt lat="44.91138" lon="9.5579467"><ele>370.0</ele><time>2026-04-26T08:41:11.935Z</time></trkpt><trkpt lat="44.9113817" lon="9.5578317"><ele>370.0</ele><time>2026-04-26T08:41:12.934Z</time></trkpt><trkpt lat="44.911385" lon="9.557725"><ele>370.0</ele><time>2026-04-26T08:41:13.933Z</time></trkpt><trkpt lat="44.911395" lon="9.55763"><ele>370.0</ele><time>2026-04-26T08:41:14.936Z</time></trkpt><trkpt lat="44.9114433" lon="9.5574833"><ele>370.0</ele><time>2026-04-26T08:41:16.935Z</time></trkpt><trkpt lat="44.91149" lon="9.5573517"><ele>371.16666666666663</ele><time>2026-04-26T08:41:18.938Z</time></trkpt><trkpt lat="44.911505" lon="9.55722"><ele>372.3333333333333</ele><time>2026-04-26T08:41:20.937Z</time></trkpt><trkpt lat="44.9115" lon="9.5570867"><ele>373.5</ele><time>2026-04-26T08:41:22.936Z</time></trkpt><trkpt lat="44.911495" lon="9.556915"><ele>374.6666666666667</ele><time>2026-04-26T08:41:24.941Z</time></trkpt><trkpt lat="44.9114933" lon="9.5568183"><ele>375.83333333333337</ele><time>2026-04-26T08:41:25.937Z</time></trkpt><trkpt lat="44.9114867" lon="9.55672"><ele>377.0</ele><time>2026-04-26T08:41:26.935Z</time></trkpt><trkpt lat="44.9114817" lon="9.5566267"><ele>379.0</ele><time>2026-04-26T08:41:27.936Z</time></trkpt><trkpt lat="44.9114767" lon="9.5564833"><ele>381.0</ele><time>2026-04-26T08:41:29.936Z</time></trkpt><trkpt lat="44.9114933" lon="9.5562433"><ele>383.0</ele><time>2026-04-26T08:43:24.934Z</time></trkpt><trkpt lat="44.9114883" lon="9.556145"><ele>385.0</ele><time>2026-04-26T08:43:25.933Z</time></trkpt><trkpt lat="44.9114483" lon="9.5559383"><ele>386.75</ele><time>2026-04-26T08:43:27.933Z</time></trkpt><trkpt lat="44.9114133" lon="9.5557733"><ele>388.5</ele><time>2026-04-26T08:43:28.933Z</time></trkpt><trkpt lat="44.9113783" lon="9.5556167"><ele>390.25</ele><time>2026-04-26T08:43:29.934Z</time></trkpt><trkpt lat="44.9113433" lon="9.5554583"><ele>392.0</ele><time>2026-04-26T08:43:30.933Z</time></trkpt><trkpt lat="44.9113283" lon="9.5553133"><ele>392.25</ele><time>2026-04-26T08:43:31.935Z</time></trkpt><trkpt lat="44.91129" lon="9.55514"><ele>392.5</ele><time>2026-04-26T08:43:32.935Z</time></trkpt><trkpt lat="44.9112633" lon="9.5549783"><ele>392.75</ele><time>2026-04-26T08:43:33.934Z</time></trkpt><trkpt lat="44.9112417" lon="9.5548317"><ele>393.0</ele><time>2026-04-26T08:43:34.933Z</time></trkpt><trkpt lat="44.911215" lon="9.554685"><ele>393.0</ele><time>2026-04-26T08:43:35.934Z</time></trkpt><trkpt lat="44.9111833" lon="9.554575"><ele>393.0</ele><time>2026-04-26T08:43:36.934Z</time></trkpt><trkpt lat="44.911135" lon="9.5544967"><ele>393.0</ele><time>2026-04-26T08:43:37.934Z</time></trkpt><trkpt lat="44.9110683" lon="9.5544483"><ele>393.0</ele><time>2026-04-26T08:43:38.939Z</time></trkpt><trkpt lat="44.911" lon="9.554415"><ele>393.0</ele><time>2026-04-26T08:43:39.934Z</time></trkpt><trkpt lat="44.9109167" lon="9.5543783"><ele>393.0</ele><time>2026-04-26T08:43:40.934Z</time></trkpt><trkpt lat="44.9108183" lon="9.5543267"><ele>395.2</ele><time>2026-04-26T08:43:41.934Z</time></trkpt><trkpt lat="44.910725" lon="9.5542667"><ele>397.4</ele><time>2026-04-26T08:43:42.934Z</time></trkpt><trkpt lat="44.9106317" lon="9.5542067"><ele>399.59999999999997</ele><time>2026-04-26T08:43:43.938Z</time></trkpt><trkpt lat="44.9105417" lon="9.5541433"><ele>401.79999999999995</ele><time>2026-04-26T08:43:44.935Z</time></trkpt><trkpt lat="44.9104567" lon="9.5540683"><ele>404.0</ele><time>2026-04-26T08:43:45.935Z</time></trkpt><trkpt lat="44.9103683" lon="9.5539917"><ele>404.0</ele><time>2026-04-26T08:43:46.934Z</time></trkpt><trkpt lat="44.910275" lon="9.553915"><ele>404.0</ele><time>2026-04-26T08:43:47.937Z</time></trkpt><trkpt lat="44.9101833" lon="9.5538367"><ele>404.0</ele><time>2026-04-26T08:43:48.933Z</time></trkpt><trkpt lat="44.91009" lon="9.5537517"><ele>404.0</ele><time>2026-04-26T08:43:49.936Z</time></trkpt><trkpt lat="44.9100017" lon="9.5536783"><ele>404.0</ele><time>2026-04-26T08:43:50.936Z</time></trkpt><trkpt lat="44.9099133" lon="9.5536167"><ele>406.6</ele><time>2026-04-26T08:43:51.933Z</time></trkpt><trkpt lat="44.9098233" lon="9.5535567"><ele>409.2</ele><time>2026-04-26T08:43:52.934Z</time></trkpt><trkpt lat="44.9097367" lon="9.553505"><ele>411.8</ele><time>2026-04-26T08:43:53.936Z</time></trkpt><trkpt lat="44.9096517" lon="9.553455"><ele>414.40000000000003</ele><time>2026-04-26T08:43:54.934Z</time></trkpt><trkpt lat="44.90956" lon="9.5533983"><ele>417.0</ele><time>2026-04-26T08:43:55.934Z</time></trkpt><trkpt lat="44.9094717" lon="9.5533483"><ele>417.0</ele><time>2026-04-26T08:43:56.935Z</time></trkpt><trkpt lat="44.90939" lon="9.5533017"><ele>417.0</ele><time>2026-04-26T08:43:57.935Z</time></trkpt><trkpt lat="44.9093133" lon="9.5532583"><ele>417.0</ele><time>2026-04-26T08:43:58.934Z</time></trkpt><trkpt lat="44.9092467" lon="9.55322"><ele>417.0</ele><time>2026-04-26T08:43:59.935Z</time></trkpt><trkpt lat="44.9091333" lon="9.5531683"><ele>417.0</ele><time>2026-04-26T08:44:01.933Z</time></trkpt><trkpt lat="44.9089983" lon="9.553165"><ele>419.20000000000005</ele><time>2026-04-26T08:44:03.936Z</time></trkpt><trkpt lat="44.9089133" lon="9.5531617"><ele>421.4</ele><time>2026-04-26T08:44:04.935Z</time></trkpt><trkpt lat="44.9088267" lon="9.5531367"><ele>423.59999999999997</ele><time>2026-04-26T08:44:05.936Z</time></trkpt><trkpt lat="44.9087183" lon="9.5531067"><ele>425.79999999999995</ele><time>2026-04-26T08:44:06.937Z</time></trkpt><trkpt lat="44.9085933" lon="9.5530833"><ele>428.0</ele><time>2026-04-26T08:44:07.936Z</time></trkpt><trkpt lat="44.908475" lon="9.553075"><ele>429.66666666666663</ele><time>2026-04-26T08:44:08.936Z</time></trkpt><trkpt lat="44.90837" lon="9.5530783"><ele>431.3333333333333</ele><time>2026-04-26T08:44:09.936Z</time></trkpt><trkpt lat="44.9082967" lon="9.5530917"><ele>433.0</ele><time>2026-04-26T08:44:10.938Z</time></trkpt><trkpt lat="44.90823" lon="9.5531033"><ele>434.66666666666663</ele><time>2026-04-26T08:44:11.935Z</time></trkpt><trkpt lat="44.9081517" lon="9.5531217"><ele>436.3333333333333</ele><time>2026-04-26T08:44:13.934Z</time></trkpt><trkpt lat="44.9080683" lon="9.553175"><ele>438.0</ele><time>2026-04-26T08:44:58.933Z</time></trkpt><trkpt lat="44.9079667" lon="9.5531533"><ele>438.0</ele><time>2026-04-26T08:44:59.935Z</time></trkpt><trkpt lat="44.9078733" lon="9.5531267"><ele>437.99999999999994</ele><time>2026-04-26T08:45:00.938Z</time></trkpt><trkpt lat="44.9077817" lon="9.553095"><ele>437.99999999999994</ele><time>2026-04-26T08:45:01.934Z</time></trkpt><trkpt lat="44.9076567" lon="9.553075"><ele>438.0</ele><time>2026-04-26T08:45:02.937Z</time></trkpt><trkpt lat="44.9075267" lon="9.5530683"><ele>438.0</ele><time>2026-04-26T08:45:03.935Z</time></trkpt><trkpt lat="44.90741" lon="9.5530717"><ele>439.3333333333333</ele><time>2026-04-26T08:45:04.934Z</time></trkpt><trkpt lat="44.907295" lon="9.55309"><ele>440.66666666666663</ele><time>2026-04-26T08:45:05.934Z</time></trkpt><trkpt lat="44.907205" lon="9.5530917"><ele>442.0</ele><time>2026-04-26T08:45:06.934Z</time></trkpt><trkpt lat="44.9071133" lon="9.55309"><ele>443.3333333333333</ele><time>2026-04-26T08:45:07.935Z</time></trkpt><trkpt lat="44.9070367" lon="9.5530833"><ele>444.66666666666663</ele><time>2026-04-26T08:45:08.935Z</time></trkpt><trkpt lat="44.9069717" lon="9.5530817"><ele>446.0</ele><time>2026-04-26T08:45:09.936Z</time></trkpt><trkpt lat="44.9069083" lon="9.55308"><ele>446.0</ele><time>2026-04-26T08:45:10.934Z</time></trkpt><trkpt lat="44.9068267" lon="9.5531"><ele>446.0</ele><time>2026-04-26T08:45:12.935Z</time></trkpt><trkpt lat="44.9067419" lon="9.5531115"><ele>446.0</ele><time>2026-04-26T08:45:18.933Z</time></trkpt><trkpt lat="44.9066967" lon="9.5532367"><ele>446.0</ele><time>2026-04-26T08:45:36.933Z</time></trkpt><trkpt lat="44.906755" lon="9.5531233"><ele>446.0</ele><time>2026-04-26T08:45:39.935Z</time></trkpt><trkpt lat="44.9068517" lon="9.5529817"><ele>446.0</ele><time>2026-04-26T08:45:41.934Z</time></trkpt><trkpt lat="44.9069183" lon="9.5528783"><ele>446.0</ele><time>2026-04-26T08:45:42.935Z</time></trkpt><trkpt lat="44.90701" lon="9.55279"><ele>446.0</ele><time>2026-04-26T08:45:43.938Z</time></trkpt><trkpt lat="44.9071067" lon="9.5527167"><ele>446.0</ele><time>2026-04-26T08:45:44.935Z</time></trkpt><trkpt lat="44.90719" lon="9.55266"><ele>446.0</ele><time>2026-04-26T08:45:45.935Z</time></trkpt><trkpt lat="44.9072633" lon="9.55259"><ele>445.8</ele><time>2026-04-26T08:45:46.933Z</time></trkpt><trkpt lat="44.9073383" lon="9.5524983"><ele>445.6</ele><time>2026-04-26T08:45:47.935Z</time></trkpt><trkpt lat="44.907415" lon="9.5523967"><ele>445.4</ele><time>2026-04-26T08:45:48.937Z</time></trkpt><trkpt lat="44.9074883" lon="9.5523117"><ele>445.2</ele><time>2026-04-26T08:45:49.934Z</time></trkpt><trkpt lat="44.9075617" lon="9.5522417"><ele>445.0</ele><time>2026-04-26T08:45:50.935Z</time></trkpt><trkpt lat="44.90764" lon="9.5521833"><ele>445.0</ele><time>2026-04-26T08:45:51.934Z</time></trkpt><trkpt lat="44.9077167" lon="9.5521417"><ele>445.0</ele><time>2026-04-26T08:45:52.942Z</time></trkpt><trkpt lat="44.9077867" lon="9.5521067"><ele>445.0</ele><time>2026-04-26T08:45:53.939Z</time></trkpt><trkpt lat="44.90785" lon="9.5520667"><ele>445.0</ele><time>2026-04-26T08:45:54.94Z</time></trkpt><trkpt lat="44.90791" lon="9.5520233"><ele>445.0</ele><time>2026-04-26T08:45:55.935Z</time></trkpt><trkpt lat="44.90796" lon="9.55196"><ele>445.0</ele><time>2026-04-26T08:45:56.935Z</time></trkpt><trkpt lat="44.9079983" lon="9.5518717"><ele>445.0</ele><time>2026-04-26T08:45:57.934Z</time></trkpt><trkpt lat="44.9080267" lon="9.551745"><ele>446.25</ele><time>2026-04-26T08:45:58.934Z</time></trkpt><trkpt lat="44.908055" lon="9.5515967"><ele>447.5</ele><time>2026-04-26T08:45:59.935Z</time></trkpt><trkpt lat="44.90809" lon="9.551425"><ele>448.75</ele><time>2026-04-26T08:46:00.934Z</time></trkpt><trkpt lat="44.9081217" lon="9.5512383"><ele>450.0</ele><time>2026-04-26T08:46:02.017Z</time></trkpt><trkpt lat="44.9081467" lon="9.5510433"><ele>451.5</ele><time>2026-04-26T08:46:02.935Z</time></trkpt><trkpt lat="44.9081667" lon="9.550855"><ele>453.0</ele><time>2026-04-26T08:46:03.934Z</time></trkpt><trkpt lat="44.9081917" lon="9.5506783"><ele>454.5</ele><time>2026-04-26T08:46:04.935Z</time></trkpt><trkpt lat="44.9082283" lon="9.5505133"><ele>456.0</ele><time>2026-04-26T08:46:05.936Z</time></trkpt><trkpt lat="44.90828" lon="9.55036"><ele>458.25</ele><time>2026-04-26T08:46:06.936Z</time></trkpt><trkpt lat="44.9083383" lon="9.5502067"><ele>460.5</ele><time>2026-04-26T08:46:07.934Z</time></trkpt><trkpt lat="44.9084083" lon="9.550055"><ele>462.75</ele><time>2026-04-26T08:46:08.941Z</time></trkpt><trkpt lat="44.9084883" lon="9.5499"><ele>465.0</ele><time>2026-04-26T08:46:09.935Z</time></trkpt><trkpt lat="44.90856" lon="9.54975"><ele>462.6</ele><time>2026-04-26T08:46:10.933Z</time></trkpt><trkpt lat="44.908625" lon="9.54961"><ele>460.2</ele><time>2026-04-26T08:46:11.933Z</time></trkpt><trkpt lat="44.9086833" lon="9.5494867"><ele>457.79999999999995</ele><time>2026-04-26T08:46:12.934Z</time></trkpt><trkpt lat="44.908735" lon="9.5493717"><ele>455.4</ele><time>2026-04-26T08:46:13.933Z</time></trkpt><trkpt lat="44.9087783" lon="9.5492633"><ele>453.0</ele><time>2026-04-26T08:46:14.936Z</time></trkpt><trkpt lat="44.9088167" lon="9.549155"><ele>453.0</ele><time>2026-04-26T08:46:15.935Z</time></trkpt><trkpt lat="44.908845" lon="9.5490517"><ele>452.99999999999994</ele><time>2026-04-26T08:46:16.935Z</time></trkpt><trkpt lat="44.9088633" lon="9.5489333"><ele>452.99999999999994</ele><time>2026-04-26T08:46:17.935Z</time></trkpt><trkpt lat="44.90888" lon="9.5487867"><ele>453.0</ele><time>2026-04-26T08:46:18.934Z</time></trkpt><trkpt lat="44.9088867" lon="9.5486367"><ele>453.0</ele><time>2026-04-26T08:46:19.936Z</time></trkpt><trkpt lat="44.908885" lon="9.54849"><ele>455.0</ele><time>2026-04-26T08:46:20.936Z</time></trkpt><trkpt lat="44.9088717" lon="9.548345"><ele>457.0</ele><time>2026-04-26T08:46:21.942Z</time></trkpt><trkpt lat="44.9088517" lon="9.5481967"><ele>459.0</ele><time>2026-04-26T08:46:22.934Z</time></trkpt><trkpt lat="44.9088333" lon="9.54803"><ele>461.0</ele><time>2026-04-26T08:46:23.934Z</time></trkpt><trkpt lat="44.908825" lon="9.5478583"><ele>461.6</ele><time>2026-04-26T08:46:24.934Z</time></trkpt><trkpt lat="44.90882" lon="9.5476933"><ele>462.20000000000005</ele><time>2026-04-26T08:46:25.935Z</time></trkpt><trkpt lat="44.9088167" lon="9.5475367"><ele>462.79999999999995</ele><time>2026-04-26T08:46:26.942Z</time></trkpt><trkpt lat="44.908815" lon="9.5473883"><ele>463.4</ele><time>2026-04-26T08:46:27.936Z</time></trkpt><trkpt lat="44.9088133" lon="9.547255"><ele>464.0</ele><time>2026-04-26T08:46:28.935Z</time></trkpt><trkpt lat="44.9088117" lon="9.5471367"><ele>464.6</ele><time>2026-04-26T08:46:29.935Z</time></trkpt><trkpt lat="44.9088133" lon="9.5470133"><ele>465.2</ele><time>2026-04-26T08:46:30.935Z</time></trkpt><trkpt lat="44.9088267" lon="9.5468833"><ele>465.80000000000007</ele><time>2026-04-26T08:46:31.934Z</time></trkpt><trkpt lat="44.9088617" lon="9.5467317"><ele>466.40000000000003</ele><time>2026-04-26T08:46:32.937Z</time></trkpt><trkpt lat="44.9088983" lon="9.5465683"><ele>467.0</ele><time>2026-04-26T08:46:33.935Z</time></trkpt><trkpt lat="44.9089333" lon="9.5464033"><ele>467.0</ele><time>2026-04-26T08:46:34.94Z</time></trkpt><trkpt lat="44.9089683" lon="9.5462433"><ele>467.00000000000006</ele><time>2026-04-26T08:46:35.937Z</time></trkpt><trkpt lat="44.9090033" lon="9.5461"><ele>467.00000000000006</ele><time>2026-04-26T08:46:36.936Z</time></trkpt><trkpt lat="44.9090383" lon="9.5459717"><ele>467.0</ele><time>2026-04-26T08:46:37.936Z</time></trkpt><trkpt lat="44.9090817" lon="9.54585"><ele>467.0</ele><time>2026-04-26T08:46:38.937Z</time></trkpt><trkpt lat="44.9091233" lon="9.5457217"><ele>467.49999999999994</ele><time>2026-04-26T08:46:39.939Z</time></trkpt><trkpt lat="44.9091617" lon="9.5456117"><ele>468.0</ele><time>2026-04-26T08:46:40.937Z</time></trkpt><trkpt lat="44.909205" lon="9.5455117"><ele>468.5</ele><time>2026-04-26T08:46:41.934Z</time></trkpt><trkpt lat="44.90926" lon="9.5454117"><ele>469.0</ele><time>2026-04-26T08:46:42.935Z</time></trkpt><trkpt lat="44.9093115" lon="9.5453281"><ele>469.49999999999994</ele><time>2026-04-26T08:46:43.935Z</time></trkpt><trkpt lat="44.9093496" lon="9.5452423"><ele>470.0</ele><time>2026-04-26T08:46:44.936Z</time></trkpt><trkpt lat="44.9093752" lon="9.5451288"><ele>470.0</ele><time>2026-04-26T08:46:45.934Z</time></trkpt><trkpt lat="44.9093958" lon="9.5449924"><ele>470.0</ele><time>2026-04-26T08:46:46.941Z</time></trkpt><trkpt lat="44.9094133" lon="9.544858"><ele>470.0</ele><time>2026-04-26T08:46:47.935Z</time></trkpt><trkpt lat="44.9094294" lon="9.5447282"><ele>470.0</ele><time>2026-04-26T08:46:48.935Z</time></trkpt><trkpt lat="44.9094448" lon="9.5446082"><ele>470.0</ele><time>2026-04-26T08:46:49.936Z</time></trkpt><trkpt lat="44.9094661" lon="9.5444962"><ele>470.8</ele><time>2026-04-26T08:46:50.939Z</time></trkpt><trkpt lat="44.9094945" lon="9.5443835"><ele>471.6</ele><time>2026-04-26T08:46:51.937Z</time></trkpt><trkpt lat="44.9095218" lon="9.5442666"><ele>472.4</ele><time>2026-04-26T08:46:52.943Z</time></trkpt><trkpt lat="44.9095518" lon="9.5441417"><ele>473.2</ele><time>2026-04-26T08:46:53.937Z</time></trkpt><trkpt lat="44.9095863" lon="9.5440063"><ele>474.0</ele><time>2026-04-26T08:46:54.935Z</time></trkpt><trkpt lat="44.9096286" lon="9.543874"><ele>474.0</ele><time>2026-04-26T08:46:55.934Z</time></trkpt><trkpt lat="44.9096891" lon="9.5437485"><ele>474.0</ele><time>2026-04-26T08:46:56.935Z</time></trkpt><trkpt lat="44.9097578" lon="9.5436281"><ele>474.0</ele><time>2026-04-26T08:46:57.934Z</time></trkpt><trkpt lat="44.9098214" lon="9.5435134"><ele>474.0</ele><time>2026-04-26T08:46:58.935Z</time></trkpt><trkpt lat="44.9098787" lon="9.543382"><ele>474.0</ele><time>2026-04-26T08:46:59.934Z</time></trkpt><trkpt lat="44.909926" lon="9.5432421"><ele>474.4</ele><time>2026-04-26T08:47:00.936Z</time></trkpt><trkpt lat="44.909981" lon="9.5431138"><ele>474.79999999999995</ele><time>2026-04-26T08:47:01.936Z</time></trkpt><trkpt lat="44.9100246" lon="9.5429869"><ele>475.20000000000005</ele><time>2026-04-26T08:47:02.935Z</time></trkpt><trkpt lat="44.9100634" lon="9.5428619"><ele>475.6</ele><time>2026-04-26T08:47:03.935Z</time></trkpt><trkpt lat="44.9100956" lon="9.5427219"><ele>476.0</ele><time>2026-04-26T08:47:04.936Z</time></trkpt><trkpt lat="44.9101246" lon="9.5425691"><ele>476.75</ele><time>2026-04-26T08:47:05.935Z</time></trkpt><trkpt lat="44.9101615" lon="9.5423987"><ele>477.5</ele><time>2026-04-26T08:47:06.934Z</time></trkpt><trkpt lat="44.9101983" lon="9.5422278"><ele>478.25</ele><time>2026-04-26T08:47:07.937Z</time></trkpt><trkpt lat="44.9102219" lon="9.5420762"><ele>479.0</ele><time>2026-04-26T08:47:08.935Z</time></trkpt><trkpt lat="44.9102521" lon="9.5419173"><ele>481.25</ele><time>2026-04-26T08:47:09.935Z</time></trkpt><trkpt lat="44.9102893" lon="9.5417423"><ele>483.5</ele><time>2026-04-26T08:47:10.934Z</time></trkpt><trkpt lat="44.9103311" lon="9.541556"><ele>485.75</ele><time>2026-04-26T08:47:11.937Z</time></trkpt><trkpt lat="44.9103777" lon="9.5413605"><ele>488.0</ele><time>2026-04-26T08:47:12.934Z</time></trkpt><trkpt lat="44.910421" lon="9.5411711"><ele>489.3333333333333</ele><time>2026-04-26T08:47:13.935Z</time></trkpt><trkpt lat="44.9104568" lon="9.5410055"><ele>490.66666666666663</ele><time>2026-04-26T08:47:14.937Z</time></trkpt><trkpt lat="44.9104898" lon="9.5408639"><ele>492.0</ele><time>2026-04-26T08:47:15.934Z</time></trkpt><trkpt lat="44.9105236" lon="9.5407551"><ele>493.33333333333337</ele><time>2026-04-26T08:47:16.939Z</time></trkpt><trkpt lat="44.9105588" lon="9.5406657"><ele>494.6666666666667</ele><time>2026-04-26T08:47:17.934Z</time></trkpt><trkpt lat="44.910584" lon="9.540583"><ele>496.0</ele><time>2026-04-26T08:47:18.937Z</time></trkpt><trkpt lat="44.9106104" lon="9.540422"><ele>495.50000000000006</ele><time>2026-04-26T08:47:20.941Z</time></trkpt><trkpt lat="44.9106232" lon="9.540305"><ele>495.0</ele><time>2026-04-26T08:47:22.933Z</time></trkpt><trkpt lat="44.9105779" lon="9.5402393"><ele>494.5</ele><time>2026-04-26T08:47:24.935Z</time></trkpt><trkpt lat="44.910518" lon="9.5401986"><ele>494.0</ele><time>2026-04-26T08:47:25.934Z</time></trkpt><trkpt lat="44.9104425" lon="9.5401536"><ele>493.50000000000006</ele><time>2026-04-26T08:47:26.938Z</time></trkpt><trkpt lat="44.9103709" lon="9.5401046"><ele>493.0</ele><time>2026-04-26T08:47:27.934Z</time></trkpt><trkpt lat="44.9103" lon="9.5400477"><ele>493.00000000000006</ele><time>2026-04-26T08:47:28.933Z</time></trkpt><trkpt lat="44.9102319" lon="9.5399851"><ele>493.0</ele><time>2026-04-26T08:47:29.934Z</time></trkpt><trkpt lat="44.9101681" lon="9.539934"><ele>493.0</ele><time>2026-04-26T08:47:30.934Z</time></trkpt><trkpt lat="44.9101076" lon="9.5398773"><ele>493.0</ele><time>2026-04-26T08:47:31.934Z</time></trkpt><trkpt lat="44.9100522" lon="9.5398177"><ele>493.00000000000006</ele><time>2026-04-26T08:47:32.934Z</time></trkpt><trkpt lat="44.9099524" lon="9.5397533"><ele>493.0</ele><time>2026-04-26T08:47:34.937Z</time></trkpt><trkpt lat="44.9098759" lon="9.539764"><ele>494.59999999999997</ele><time>2026-04-26T08:47:36.935Z</time></trkpt><trkpt lat="44.9098068" lon="9.5397748"><ele>496.19999999999993</ele><time>2026-04-26T08:47:38.935Z</time></trkpt><trkpt lat="44.9097197" lon="9.5397747"><ele>497.8</ele><time>2026-04-26T08:47:40.933Z</time></trkpt><trkpt lat="44.9096081" lon="9.5397773"><ele>499.4</ele><time>2026-04-26T08:47:42.943Z</time></trkpt><trkpt lat="44.909489" lon="9.5397616"><ele>501.0</ele><time>2026-04-26T08:47:44.933Z</time></trkpt><trkpt lat="44.9093674" lon="9.5397364"><ele>501.0</ele><time>2026-04-26T08:47:46.935Z</time></trkpt><trkpt lat="44.9092633" lon="9.5397312"><ele>501.0</ele><time>2026-04-26T08:47:48.936Z</time></trkpt><trkpt lat="44.909163" lon="9.5397696"><ele>501.0</ele><time>2026-04-26T08:47:50.934Z</time></trkpt><trkpt lat="44.909098" lon="9.5397936"><ele>501.0</ele><time>2026-04-26T08:47:51.934Z</time></trkpt><trkpt lat="44.9090237" lon="9.5398185"><ele>501.0</ele><time>2026-04-26T08:47:52.935Z</time></trkpt><trkpt lat="44.9089379" lon="9.5398397"><ele>501.0</ele><time>2026-04-26T08:47:53.937Z</time></trkpt><trkpt lat="44.908846" lon="9.5398571"><ele>503.6</ele><time>2026-04-26T08:47:54.933Z</time></trkpt><trkpt lat="44.9087466" lon="9.5398677"><ele>506.20000000000005</ele><time>2026-04-26T08:47:55.935Z</time></trkpt><trkpt lat="44.9086383" lon="9.5398717"><ele>508.79999999999995</ele><time>2026-04-26T08:47:56.936Z</time></trkpt><trkpt lat="44.9085383" lon="9.5398783"><ele>511.4</ele><time>2026-04-26T08:47:57.935Z</time></trkpt><trkpt lat="44.90845" lon="9.5398867"><ele>514.0</ele><time>2026-04-26T08:47:58.943Z</time></trkpt><trkpt lat="44.9083733" lon="9.5398817"><ele>516.4</ele><time>2026-04-26T08:47:59.934Z</time></trkpt><trkpt lat="44.9082567" lon="9.5398733"><ele>518.8</ele><time>2026-04-26T08:48:01.934Z</time></trkpt><trkpt lat="44.9082083" lon="9.5399483"><ele>521.2</ele><time>2026-04-26T08:48:03.94Z</time></trkpt><trkpt lat="44.908145" lon="9.5400667"><ele>523.6</ele><time>2026-04-26T08:48:06.934Z</time></trkpt><trkpt lat="44.9081" lon="9.5401733"><ele>526.0</ele><time>2026-04-26T08:48:08.934Z</time></trkpt><trkpt lat="44.908055" lon="9.540255"><ele>526.0</ele><time>2026-04-26T08:48:10.934Z</time></trkpt><trkpt lat="44.9079983" lon="9.5403433"><ele>526.0</ele><time>2026-04-26T08:48:12.935Z</time></trkpt><trkpt lat="44.907945" lon="9.54044"><ele>526.0</ele><time>2026-04-26T08:48:14.933Z</time></trkpt><trkpt lat="44.9078733" lon="9.540535"><ele>526.0</ele><time>2026-04-26T08:48:16.937Z</time></trkpt><trkpt lat="44.907815" lon="9.5406217"><ele>526.0</ele><time>2026-04-26T08:48:18.935Z</time></trkpt><trkpt lat="44.9077433" lon="9.5407017"><ele>526.0</ele><time>2026-04-26T08:48:20.935Z</time></trkpt><trkpt lat="44.907675" lon="9.5407867"><ele>525.2</ele><time>2026-04-26T08:48:22.934Z</time></trkpt><trkpt lat="44.9076033" lon="9.5408633"><ele>524.4000000000001</ele><time>2026-04-26T08:48:25.011Z</time></trkpt><trkpt lat="44.9075283" lon="9.5409317"><ele>523.6</ele><time>2026-04-26T08:48:26.935Z</time></trkpt><trkpt lat="44.90743" lon="9.541015"><ele>522.8000000000001</ele><time>2026-04-26T08:48:28.934Z</time></trkpt><trkpt lat="44.9073433" lon="9.5411"><ele>522.0</ele><time>2026-04-26T08:48:30.935Z</time></trkpt><trkpt lat="44.9072567" lon="9.5412167"><ele>523.6666666666666</ele><time>2026-04-26T08:48:32.934Z</time></trkpt><trkpt lat="44.9071767" lon="9.5413233"><ele>525.3333333333334</ele><time>2026-04-26T08:48:34.936Z</time></trkpt><trkpt lat="44.9070917" lon="9.5414233"><ele>527.0</ele><time>2026-04-26T08:48:36.935Z</time></trkpt><trkpt lat="44.9070417" lon="9.5414783"><ele>528.6666666666667</ele><time>2026-04-26T08:48:37.934Z</time></trkpt><trkpt lat="44.9069867" lon="9.541525"><ele>530.3333333333334</ele><time>2026-04-26T08:48:38.934Z</time></trkpt><trkpt lat="44.9068938" lon="9.5415686"><ele>532.0</ele><time>2026-04-26T08:48:40.934Z</time></trkpt><trkpt lat="44.9067894" lon="9.5415514"><ele>534.1666666666667</ele><time>2026-04-26T08:48:42.934Z</time></trkpt><trkpt lat="44.9067185" lon="9.5415324"><ele>536.3333333333334</ele><time>2026-04-26T08:48:44.935Z</time></trkpt><trkpt lat="44.9066836" lon="9.54144"><ele>538.5</ele><time>2026-04-26T08:48:47.936Z</time></trkpt><trkpt lat="44.9067061" lon="9.5412856"><ele>540.6666666666666</ele><time>2026-04-26T08:48:49.934Z</time></trkpt><trkpt lat="44.906706" lon="9.5411655"><ele>542.8333333333333</ele><time>2026-04-26T08:48:50.935Z</time></trkpt><trkpt lat="44.9066945" lon="9.5410381"><ele>545.0</ele><time>2026-04-26T08:48:51.935Z</time></trkpt><trkpt lat="44.9066758" lon="9.5409008"><ele>546.2</ele><time>2026-04-26T08:48:52.935Z</time></trkpt><trkpt lat="44.9066569" lon="9.5407629"><ele>547.4</ele><time>2026-04-26T08:48:53.936Z</time></trkpt><trkpt lat="44.9066337" lon="9.5406324"><ele>548.6</ele><time>2026-04-26T08:48:54.933Z</time></trkpt><trkpt lat="44.9066039" lon="9.5405084"><ele>549.8</ele><time>2026-04-26T08:48:55.934Z</time></trkpt><trkpt lat="44.9065773" lon="9.5403848"><ele>551.0</ele><time>2026-04-26T08:48:56.935Z</time></trkpt><trkpt lat="44.9065555" lon="9.5402603"><ele>552.4</ele><time>2026-04-26T08:48:57.933Z</time></trkpt><trkpt lat="44.9065239" lon="9.5401338"><ele>553.8</ele><time>2026-04-26T08:48:58.933Z</time></trkpt><trkpt lat="44.9064822" lon="9.540011"><ele>555.1999999999999</ele><time>2026-04-26T08:48:59.934Z</time></trkpt><trkpt lat="44.9064368" lon="9.5398959"><ele>556.6</ele><time>2026-04-26T08:49:00.933Z</time></trkpt><trkpt lat="44.9063889" lon="9.5397762"><ele>558.0</ele><time>2026-04-26T08:49:01.935Z</time></trkpt><trkpt lat="44.9063436" lon="9.5396517"><ele>558.0</ele><time>2026-04-26T08:49:02.939Z</time></trkpt><trkpt lat="44.9063025" lon="9.5395221"><ele>558.0</ele><time>2026-04-26T08:49:03.934Z</time></trkpt><trkpt lat="44.9062628" lon="9.539393"><ele>558.0</ele><time>2026-04-26T08:49:04.934Z</time></trkpt><trkpt lat="44.9062177" lon="9.5392696"><ele>558.0</ele><time>2026-04-26T08:49:05.934Z</time></trkpt><trkpt lat="44.9061683" lon="9.5391467"><ele>558.0</ele><time>2026-04-26T08:49:06.934Z</time></trkpt><trkpt lat="44.9061233" lon="9.5390233"><ele>558.0</ele><time>2026-04-26T08:49:07.941Z</time></trkpt><trkpt lat="44.9060783" lon="9.538895"><ele>558.0</ele><time>2026-04-26T08:49:08.934Z</time></trkpt><trkpt lat="44.9060317" lon="9.5387633"><ele>558.0</ele><time>2026-04-26T08:49:09.934Z</time></trkpt><trkpt lat="44.9059833" lon="9.5386217"><ele>558.0</ele><time>2026-04-26T08:49:10.935Z</time></trkpt><trkpt lat="44.9059333" lon="9.5384767"><ele>558.0</ele><time>2026-04-26T08:49:11.934Z</time></trkpt><trkpt lat="44.9058767" lon="9.53832"><ele>557.25</ele><time>2026-04-26T08:49:12.941Z</time></trkpt><trkpt lat="44.90582" lon="9.5381617"><ele>556.5</ele><time>2026-04-26T08:49:13.937Z</time></trkpt><trkpt lat="44.90576" lon="9.5380033"><ele>555.75</ele><time>2026-04-26T08:49:14.934Z</time></trkpt><trkpt lat="44.9057033" lon="9.5378433"><ele>555.0</ele><time>2026-04-26T08:49:15.933Z</time></trkpt><trkpt lat="44.9056517" lon="9.537675"><ele>554.75</ele><time>2026-04-26T08:49:16.933Z</time></trkpt><trkpt lat="44.9056033" lon="9.5375017"><ele>554.5</ele><time>2026-04-26T08:49:17.936Z</time></trkpt><trkpt lat="44.9055567" lon="9.5373267"><ele>554.25</ele><time>2026-04-26T08:49:18.934Z</time></trkpt><trkpt lat="44.9055167" lon="9.5371567"><ele>554.0</ele><time>2026-04-26T08:49:19.934Z</time></trkpt><trkpt lat="44.9054783" lon="9.5369933"><ele>552.25</ele><time>2026-04-26T08:49:20.934Z</time></trkpt><trkpt lat="44.9054367" lon="9.5368483"><ele>550.5</ele><time>2026-04-26T08:49:21.933Z</time></trkpt><trkpt lat="44.9053867" lon="9.5367033"><ele>548.75</ele><time>2026-04-26T08:49:22.934Z</time></trkpt><trkpt lat="44.9053283" lon="9.536555"><ele>547.0</ele><time>2026-04-26T08:49:23.939Z</time></trkpt><trkpt lat="44.9052633" lon="9.5364"><ele>547.0</ele><time>2026-04-26T08:49:24.934Z</time></trkpt><trkpt lat="44.9051983" lon="9.5362417"><ele>547.0</ele><time>2026-04-26T08:49:25.936Z</time></trkpt><trkpt lat="44.905125" lon="9.5360733"><ele>547.0</ele><time>2026-04-26T08:49:26.934Z</time></trkpt><trkpt lat="44.9050467" lon="9.5358967"><ele>547.0</ele><time>2026-04-26T08:49:27.936Z</time></trkpt><trkpt lat="44.904975" lon="9.5357183"><ele>548.25</ele><time>2026-04-26T08:49:28.934Z</time></trkpt><trkpt lat="44.9049183" lon="9.535545"><ele>549.5</ele><time>2026-04-26T08:49:29.934Z</time></trkpt><trkpt lat="44.9048717" lon="9.5353683"><ele>550.75</ele><time>2026-04-26T08:49:30.939Z</time></trkpt><trkpt lat="44.90484" lon="9.53519"><ele>552.0</ele><time>2026-04-26T08:49:31.933Z</time></trkpt><trkpt lat="44.9048283" lon="9.5350067"><ele>552.0</ele><time>2026-04-26T08:49:32.935Z</time></trkpt><trkpt lat="44.9048183" lon="9.53483"><ele>552.0</ele><time>2026-04-26T08:49:33.934Z</time></trkpt><trkpt lat="44.9047967" lon="9.53465"><ele>552.0</ele><time>2026-04-26T08:49:34.935Z</time></trkpt><trkpt lat="44.90476" lon="9.5344633"><ele>552.0</ele><time>2026-04-26T08:49:35.935Z</time></trkpt><trkpt lat="44.9047133" lon="9.53427"><ele>552.0</ele><time>2026-04-26T08:49:36.941Z</time></trkpt><trkpt lat="44.9046667" lon="9.5340783"><ele>552.0</ele><time>2026-04-26T08:49:37.934Z</time></trkpt><trkpt lat="44.90462" lon="9.53391"><ele>552.0</ele><time>2026-04-26T08:49:38.935Z</time></trkpt><trkpt lat="44.90457" lon="9.5337617"><ele>552.0</ele><time>2026-04-26T08:49:39.934Z</time></trkpt><trkpt lat="44.9045167" lon="9.5336183"><ele>550.0</ele><time>2026-04-26T08:49:40.935Z</time></trkpt><trkpt lat="44.90446" lon="9.5334717"><ele>548.0</ele><time>2026-04-26T08:49:41.936Z</time></trkpt><trkpt lat="44.9044133" lon="9.5333133"><ele>546.0</ele><time>2026-04-26T08:49:42.936Z</time></trkpt><trkpt lat="44.9043767" lon="9.5331433"><ele>544.0</ele><time>2026-04-26T08:49:43.934Z</time></trkpt><trkpt lat="44.9043417" lon="9.5329583"><ele>543.6666666666667</ele><time>2026-04-26T08:49:44.941Z</time></trkpt><trkpt lat="44.9042917" lon="9.5327683"><ele>543.3333333333334</ele><time>2026-04-26T08:49:45.935Z</time></trkpt><trkpt lat="44.9042283" lon="9.532575"><ele>543.0</ele><time>2026-04-26T08:49:46.934Z</time></trkpt><trkpt lat="44.9041517" lon="9.532375"><ele>543.0</ele><time>2026-04-26T08:49:47.935Z</time></trkpt><trkpt lat="44.90407" lon="9.532155"><ele>543.0</ele><time>2026-04-26T08:49:48.935Z</time></trkpt><trkpt lat="44.9039933" lon="9.5319217"><ele>543.0</ele><time>2026-04-26T08:49:49.935Z</time></trkpt><trkpt lat="44.9039233" lon="9.5317033"><ele>541.0</ele><time>2026-04-26T08:49:50.935Z</time></trkpt><trkpt lat="44.9038633" lon="9.5314983"><ele>539.0</ele><time>2026-04-26T08:49:51.934Z</time></trkpt><trkpt lat="44.9038067" lon="9.531305"><ele>537.0</ele><time>2026-04-26T08:49:52.934Z</time></trkpt><trkpt lat="44.903755" lon="9.5311233"><ele>535.0</ele><time>2026-04-26T08:49:53.933Z</time></trkpt><trkpt lat="44.90371" lon="9.5309433"><ele>533.5</ele><time>2026-04-26T08:49:54.933Z</time></trkpt><trkpt lat="44.9036817" lon="9.5307533"><ele>532.0</ele><time>2026-04-26T08:49:55.935Z</time></trkpt><trkpt lat="44.9036733" lon="9.53056"><ele>530.5</ele><time>2026-04-26T08:49:56.936Z</time></trkpt><trkpt lat="44.9036867" lon="9.5303783"><ele>529.0</ele><time>2026-04-26T08:49:57.935Z</time></trkpt><trkpt lat="44.903725" lon="9.5302217"><ele>529.0</ele><time>2026-04-26T08:49:58.937Z</time></trkpt><trkpt lat="44.903785" lon="9.530085"><ele>529.0</ele><time>2026-04-26T08:49:59.935Z</time></trkpt><trkpt lat="44.90386" lon="9.5299567"><ele>529.0</ele><time>2026-04-26T08:50:00.934Z</time></trkpt><trkpt lat="44.90392" lon="9.5298133"><ele>529.0</ele><time>2026-04-26T08:50:01.934Z</time></trkpt><trkpt lat="44.9039567" lon="9.529645"><ele>529.8</ele><time>2026-04-26T08:50:02.933Z</time></trkpt><trkpt lat="44.9039733" lon="9.52948"><ele>530.5999999999999</ele><time>2026-04-26T08:50:03.934Z</time></trkpt><trkpt lat="44.90398" lon="9.5293283"><ele>531.4</ele><time>2026-04-26T08:50:04.933Z</time></trkpt><trkpt lat="44.903975" lon="9.529185"><ele>532.1999999999999</ele><time>2026-04-26T08:50:05.933Z</time></trkpt><trkpt lat="44.9039533" lon="9.5290433"><ele>533.0</ele><time>2026-04-26T08:50:06.934Z</time></trkpt><trkpt lat="44.903925" lon="9.5288933"><ele>533.0</ele><time>2026-04-26T08:50:07.933Z</time></trkpt><trkpt lat="44.9038833" lon="9.528745"><ele>533.0</ele><time>2026-04-26T08:50:08.934Z</time></trkpt><trkpt lat="44.903835" lon="9.5285967"><ele>533.0</ele><time>2026-04-26T08:50:09.933Z</time></trkpt><trkpt lat="44.9037767" lon="9.5284617"><ele>533.0</ele><time>2026-04-26T08:50:10.936Z</time></trkpt><trkpt lat="44.9037017" lon="9.5283433"><ele>532.75</ele><time>2026-04-26T08:50:11.933Z</time></trkpt><trkpt lat="44.9036117" lon="9.5282367"><ele>532.5</ele><time>2026-04-26T08:50:12.933Z</time></trkpt><trkpt lat="44.9035083" lon="9.5281467"><ele>532.25</ele><time>2026-04-26T08:50:13.935Z</time></trkpt><trkpt lat="44.9034067" lon="9.5280567"><ele>532.0</ele><time>2026-04-26T08:50:14.933Z</time></trkpt><trkpt lat="44.9033117" lon="9.5279583"><ele>529.25</ele><time>2026-04-26T08:50:15.934Z</time></trkpt><trkpt lat="44.9032233" lon="9.5278433"><ele>526.5</ele><time>2026-04-26T08:50:16.937Z</time></trkpt><trkpt lat="44.903145" lon="9.5277167"><ele>523.75</ele><time>2026-04-26T08:50:17.933Z</time></trkpt><trkpt lat="44.903075" lon="9.52758"><ele>521.0</ele><time>2026-04-26T08:50:18.935Z</time></trkpt><trkpt lat="44.90301" lon="9.527435"><ele>521.0</ele><time>2026-04-26T08:50:19.936Z</time></trkpt><trkpt lat="44.9029483" lon="9.5272817"><ele>521.0</ele><time>2026-04-26T08:50:20.936Z</time></trkpt><trkpt lat="44.9028767" lon="9.5271367"><ele>521.0</ele><time>2026-04-26T08:50:21.94Z</time></trkpt><trkpt lat="44.902805" lon="9.5269983"><ele>521.0</ele><time>2026-04-26T08:50:22.935Z</time></trkpt><trkpt lat="44.90275" lon="9.526875"><ele>520.0</ele><time>2026-04-26T08:50:23.937Z</time></trkpt><trkpt lat="44.90271" lon="9.5267533"><ele>519.0</ele><time>2026-04-26T08:50:24.935Z</time></trkpt><trkpt lat="44.902675" lon="9.5266367"><ele>518.0</ele><time>2026-04-26T08:50:25.934Z</time></trkpt><trkpt lat="44.9026583" lon="9.5265017"><ele>517.0</ele><time>2026-04-26T08:50:26.939Z</time></trkpt><trkpt lat="44.9026467" lon="9.5263733"><ele>516.0</ele><time>2026-04-26T08:50:27.933Z</time></trkpt><trkpt lat="44.9026433" lon="9.52626"><ele>515.5</ele><time>2026-04-26T08:50:28.933Z</time></trkpt><trkpt lat="44.902635" lon="9.5261617"><ele>515.0</ele><time>2026-04-26T08:50:29.934Z</time></trkpt><trkpt lat="44.90263" lon="9.5260117"><ele>514.5</ele><time>2026-04-26T08:50:31.936Z</time></trkpt><trkpt lat="44.9026233" lon="9.5259167"><ele>514.0</ele><time>2026-04-26T08:50:33.936Z</time></trkpt><trkpt lat="44.9025683" lon="9.5258033"><ele>513.5</ele><time>2026-04-26T08:50:37.933Z</time></trkpt><trkpt lat="44.9025117" lon="9.5257183"><ele>513.0</ele><time>2026-04-26T08:50:39.936Z</time></trkpt><trkpt lat="44.9024917" lon="9.5256333"><ele>515.6666666666666</ele><time>2026-04-26T08:50:41.935Z</time></trkpt><trkpt lat="44.90253" lon="9.5255233"><ele>518.3333333333334</ele><time>2026-04-26T08:50:44.935Z</time></trkpt><trkpt lat="44.902555" lon="9.52544"><ele>521.0</ele><time>2026-04-26T08:50:46.935Z</time></trkpt><trkpt lat="44.9025533" lon="9.5253183"><ele>523.6666666666667</ele><time>2026-04-26T08:50:49.934Z</time></trkpt><trkpt lat="44.9025317" lon="9.5252267"><ele>526.3333333333334</ele><time>2026-04-26T08:50:53.934Z</time></trkpt><trkpt lat="44.9025367" lon="9.5251267"><ele>529.0</ele><time>2026-04-26T08:50:58.942Z</time></trkpt><trkpt lat="44.9025083" lon="9.5250117"><ele>531.5</ele><time>2026-04-26T08:51:00.936Z</time></trkpt><trkpt lat="44.902465" lon="9.52487"><ele>534.0</ele><time>2026-04-26T08:51:02.934Z</time></trkpt><trkpt lat="44.902445" lon="9.5247033"><ele>536.5</ele><time>2026-04-26T08:51:04.936Z</time></trkpt><trkpt lat="44.902455" lon="9.5245417"><ele>539.0</ele><time>2026-04-26T08:51:06.933Z</time></trkpt><trkpt lat="44.902485" lon="9.5243733"><ele>539.1428571428571</ele><time>2026-04-26T08:51:08.934Z</time></trkpt><trkpt lat="44.902505" lon="9.524285"><ele>539.2857142857142</ele><time>2026-04-26T08:51:09.935Z</time></trkpt><trkpt lat="44.9025233" lon="9.5241983"><ele>539.4285714285714</ele><time>2026-04-26T08:51:10.936Z</time></trkpt><trkpt lat="44.9025417" lon="9.5241017"><ele>539.5714285714286</ele><time>2026-04-26T08:51:11.935Z</time></trkpt><trkpt lat="44.902565" lon="9.5240033"><ele>539.7142857142857</ele><time>2026-04-26T08:51:12.933Z</time></trkpt><trkpt lat="44.9026" lon="9.5239033"><ele>539.8571428571429</ele><time>2026-04-26T08:51:13.934Z</time></trkpt><trkpt lat="44.9026583" lon="9.5238033"><ele>540.0</ele><time>2026-04-26T08:51:14.934Z</time></trkpt><trkpt lat="44.9027183" lon="9.5237083"><ele>540.0</ele><time>2026-04-26T08:51:15.939Z</time></trkpt><trkpt lat="44.9027733" lon="9.5236133"><ele>540.0</ele><time>2026-04-26T08:51:16.934Z</time></trkpt><trkpt lat="44.9028267" lon="9.5235317"><ele>540.0</ele><time>2026-04-26T08:51:17.934Z</time></trkpt><trkpt lat="44.9028817" lon="9.5234567"><ele>540.0</ele><time>2026-04-26T08:51:18.94Z</time></trkpt><trkpt lat="44.902925" lon="9.52338"><ele>540.0</ele><time>2026-04-26T08:51:19.934Z</time></trkpt><trkpt lat="44.902965" lon="9.5232867"><ele>540.0</ele><time>2026-04-26T08:51:20.934Z</time></trkpt><trkpt lat="44.9030033" lon="9.5231783"><ele>540.0</ele><time>2026-04-26T08:51:21.934Z</time></trkpt><trkpt lat="44.9030417" lon="9.523085"><ele>540.0</ele><time>2026-04-26T08:51:22.934Z</time></trkpt><trkpt lat="44.9030767" lon="9.5230033"><ele>540.0</ele><time>2026-04-26T08:51:23.935Z</time></trkpt><trkpt lat="44.90314" lon="9.5228583"><ele>540.0</ele><time>2026-04-26T08:51:25.937Z</time></trkpt><trkpt lat="44.903165" lon="9.5227767"><ele>540.0</ele><time>2026-04-26T08:51:26.934Z</time></trkpt><trkpt lat="44.903185" lon="9.52264"><ele>540.0</ele><time>2026-04-26T08:51:27.94Z</time></trkpt><trkpt lat="44.9031967" lon="9.52248"><ele>540.25</ele><time>2026-04-26T08:51:28.934Z</time></trkpt><trkpt lat="44.9032017" lon="9.5223083"><ele>540.5</ele><time>2026-04-26T08:51:29.934Z</time></trkpt><trkpt lat="44.9032017" lon="9.522145"><ele>540.75</ele><time>2026-04-26T08:51:30.934Z</time></trkpt><trkpt lat="44.9031967" lon="9.5219867"><ele>541.0</ele><time>2026-04-26T08:51:31.934Z</time></trkpt><trkpt lat="44.903185" lon="9.5218367"><ele>541.0</ele><time>2026-04-26T08:51:32.936Z</time></trkpt><trkpt lat="44.903175" lon="9.5216933"><ele>541.0</ele><time>2026-04-26T08:51:33.934Z</time></trkpt><trkpt lat="44.9031667" lon="9.5215567"><ele>541.0</ele><time>2026-04-26T08:51:34.934Z</time></trkpt><trkpt lat="44.903155" lon="9.5214267"><ele>541.0</ele><time>2026-04-26T08:51:35.936Z</time></trkpt><trkpt lat="44.9031467" lon="9.5212967"><ele>541.0</ele><time>2026-04-26T08:51:36.935Z</time></trkpt><trkpt lat="44.90314" lon="9.5211733"><ele>540.6666666666667</ele><time>2026-04-26T08:51:37.934Z</time></trkpt><trkpt lat="44.903135" lon="9.5210567"><ele>540.3333333333334</ele><time>2026-04-26T08:51:38.935Z</time></trkpt><trkpt lat="44.9031383" lon="9.520945"><ele>540.0</ele><time>2026-04-26T08:51:39.941Z</time></trkpt><trkpt lat="44.9031483" lon="9.5208333"><ele>539.6666666666666</ele><time>2026-04-26T08:51:40.935Z</time></trkpt><trkpt lat="44.9031633" lon="9.52073"><ele>539.3333333333333</ele><time>2026-04-26T08:51:41.935Z</time></trkpt><trkpt lat="44.9031783" lon="9.520635"><ele>539.0</ele><time>2026-04-26T08:51:42.934Z</time></trkpt><trkpt lat="44.9031833" lon="9.52054"><ele>539.0</ele><time>2026-04-26T08:51:43.936Z</time></trkpt><trkpt lat="44.9031783" lon="9.52044"><ele>539.0</ele><time>2026-04-26T08:51:44.935Z</time></trkpt><trkpt lat="44.90318" lon="9.5203417"><ele>539.0</ele><time>2026-04-26T08:51:45.935Z</time></trkpt><trkpt lat="44.9031833" lon="9.5202433"><ele>539.0</ele><time>2026-04-26T08:51:46.935Z</time></trkpt><trkpt lat="44.90319" lon="9.5201433"><ele>539.0</ele><time>2026-04-26T08:51:47.936Z</time></trkpt><trkpt lat="44.9031983" lon="9.5200433"><ele>539.0</ele><time>2026-04-26T08:51:48.936Z</time></trkpt><trkpt lat="44.9032033" lon="9.51994"><ele>539.0</ele><time>2026-04-26T08:51:49.935Z</time></trkpt><trkpt lat="44.9032067" lon="9.5198183"><ele>538.75</ele><time>2026-04-26T08:51:50.938Z</time></trkpt><trkpt lat="44.903195" lon="9.5196783"><ele>538.5</ele><time>2026-04-26T08:51:51.934Z</time></trkpt><trkpt lat="44.903185" lon="9.51951"><ele>538.25</ele><time>2026-04-26T08:51:52.934Z</time></trkpt><trkpt lat="44.9031833" lon="9.5193233"><ele>538.0</ele><time>2026-04-26T08:51:53.936Z</time></trkpt><trkpt lat="44.9031883" lon="9.5191217"><ele>537.5</ele><time>2026-04-26T08:51:54.934Z</time></trkpt><trkpt lat="44.9031817" lon="9.5189167"><ele>537.0</ele><time>2026-04-26T08:51:55.936Z</time></trkpt><trkpt lat="44.9031633" lon="9.518705"><ele>536.5</ele><time>2026-04-26T08:51:56.936Z</time></trkpt><trkpt lat="44.9031333" lon="9.5185017"><ele>536.0</ele><time>2026-04-26T08:51:57.935Z</time></trkpt><trkpt lat="44.9031017" lon="9.5183167"><ele>533.5</ele><time>2026-04-26T08:51:58.94Z</time></trkpt><trkpt lat="44.90305" lon="9.5181567"><ele>531.0</ele><time>2026-04-26T08:51:59.934Z</time></trkpt><trkpt lat="44.9029767" lon="9.518"><ele>528.5</ele><time>2026-04-26T08:52:00.935Z</time></trkpt><trkpt lat="44.902885" lon="9.5178567"><ele>526.0</ele><time>2026-04-26T08:52:01.933Z</time></trkpt><trkpt lat="44.90277" lon="9.5177333"><ele>524.25</ele><time>2026-04-26T08:52:02.934Z</time></trkpt><trkpt lat="44.9026433" lon="9.5176267"><ele>522.5</ele><time>2026-04-26T08:52:03.934Z</time></trkpt><trkpt lat="44.9025217" lon="9.5175167"><ele>520.75</ele><time>2026-04-26T08:52:04.941Z</time></trkpt><trkpt lat="44.9024117" lon="9.51738"><ele>519.0</ele><time>2026-04-26T08:52:05.934Z</time></trkpt><trkpt lat="44.902305" lon="9.517235"><ele>523.0</ele><time>2026-04-26T08:52:06.934Z</time></trkpt><trkpt lat="44.9021933" lon="9.517105"><ele>527.0</ele><time>2026-04-26T08:52:07.935Z</time></trkpt><trkpt lat="44.9020767" lon="9.516985"><ele>531.0</ele><time>2026-04-26T08:52:08.935Z</time></trkpt><trkpt lat="44.9019567" lon="9.51688"><ele>535.0</ele><time>2026-04-26T08:52:09.935Z</time></trkpt><trkpt lat="44.9018467" lon="9.5167917"><ele>536.8</ele><time>2026-04-26T08:52:10.94Z</time></trkpt><trkpt lat="44.9017467" lon="9.5167133"><ele>538.6</ele><time>2026-04-26T08:52:11.933Z</time></trkpt><trkpt lat="44.901665" lon="9.516625"><ele>540.4</ele><time>2026-04-26T08:52:12.934Z</time></trkpt><trkpt lat="44.9016033" lon="9.516535"><ele>542.2</ele><time>2026-04-26T08:52:13.933Z</time></trkpt><trkpt lat="44.9015583" lon="9.51645"><ele>544.0</ele><time>2026-04-26T08:52:14.934Z</time></trkpt><trkpt lat="44.90151" lon="9.5163433"><ele>544.0</ele><time>2026-04-26T08:52:16.934Z</time></trkpt><trkpt lat="44.9014133" lon="9.516365"><ele>544.0</ele><time>2026-04-26T08:52:19.935Z</time></trkpt><trkpt lat="44.90135" lon="9.5164167"><ele>544.0</ele><time>2026-04-26T08:52:20.935Z</time></trkpt><trkpt lat="44.90126" lon="9.5164683"><ele>544.0</ele><time>2026-04-26T08:52:21.935Z</time></trkpt><trkpt lat="44.9011467" lon="9.5165133"><ele>544.0</ele><time>2026-04-26T08:52:22.935Z</time></trkpt><trkpt lat="44.90101" lon="9.516585"><ele>544.5</ele><time>2026-04-26T08:52:23.934Z</time></trkpt><trkpt lat="44.9008717" lon="9.516675"><ele>545.0</ele><time>2026-04-26T08:52:24.935Z</time></trkpt><trkpt lat="44.90074" lon="9.51678"><ele>545.5</ele><time>2026-04-26T08:52:25.935Z</time></trkpt><trkpt lat="44.900615" lon="9.5168767"><ele>546.0</ele><time>2026-04-26T08:52:26.936Z</time></trkpt><trkpt lat="44.9004917" lon="9.5169567"><ele>546.0</ele><time>2026-04-26T08:52:27.936Z</time></trkpt><trkpt lat="44.9003717" lon="9.5170117"><ele>546.0</ele><time>2026-04-26T08:52:28.935Z</time></trkpt><trkpt lat="44.900255" lon="9.5170367"><ele>546.0</ele><time>2026-04-26T08:52:29.935Z</time></trkpt><trkpt lat="44.9001467" lon="9.517015"><ele>546.0</ele><time>2026-04-26T08:52:30.936Z</time></trkpt><trkpt lat="44.90004" lon="9.516945"><ele>546.0</ele><time>2026-04-26T08:52:31.935Z</time></trkpt><trkpt lat="44.8999317" lon="9.5168417"><ele>546.0</ele><time>2026-04-26T08:52:32.935Z</time></trkpt><trkpt lat="44.89981" lon="9.5167267"><ele>546.0</ele><time>2026-04-26T08:52:33.935Z</time></trkpt><trkpt lat="44.89968" lon="9.51662"><ele>546.0</ele><time>2026-04-26T08:52:34.935Z</time></trkpt><trkpt lat="44.8995533" lon="9.516525"><ele>546.0</ele><time>2026-04-26T08:52:35.935Z</time></trkpt><trkpt lat="44.8994283" lon="9.5164333"><ele>546.0</ele><time>2026-04-26T08:52:36.934Z</time></trkpt><trkpt lat="44.89931" lon="9.5163467"><ele>546.0</ele><time>2026-04-26T08:52:37.94Z</time></trkpt><trkpt lat="44.899195" lon="9.5162683"><ele>546.0</ele><time>2026-04-26T08:52:38.936Z</time></trkpt><trkpt lat="44.89909" lon="9.51619"><ele>543.0</ele><time>2026-04-26T08:52:39.934Z</time></trkpt><trkpt lat="44.8989867" lon="9.5161083"><ele>540.0</ele><time>2026-04-26T08:52:40.934Z</time></trkpt><trkpt lat="44.8988817" lon="9.5160383"><ele>537.0</ele><time>2026-04-26T08:52:41.934Z</time></trkpt><trkpt lat="44.8987733" lon="9.5159967"><ele>534.0</ele><time>2026-04-26T08:52:42.936Z</time></trkpt><trkpt lat="44.8986683" lon="9.51599"><ele>534.0</ele><time>2026-04-26T08:52:43.935Z</time></trkpt><trkpt lat="44.8985617" lon="9.516025"><ele>534.0</ele><time>2026-04-26T08:52:44.934Z</time></trkpt><trkpt lat="44.898455" lon="9.51608"><ele>534.0</ele><time>2026-04-26T08:52:45.935Z</time></trkpt><trkpt lat="44.89835" lon="9.5161367"><ele>534.0</ele><time>2026-04-26T08:52:46.934Z</time></trkpt><trkpt lat="44.898245" lon="9.5162017"><ele>533.6</ele><time>2026-04-26T08:52:47.935Z</time></trkpt><trkpt lat="44.898145" lon="9.51628"><ele>533.2</ele><time>2026-04-26T08:52:48.935Z</time></trkpt><trkpt lat="44.8980517" lon="9.5163783"><ele>532.8000000000001</ele><time>2026-04-26T08:52:49.934Z</time></trkpt><trkpt lat="44.8979767" lon="9.51649"><ele>532.4</ele><time>2026-04-26T08:52:50.936Z</time></trkpt><trkpt lat="44.8979117" lon="9.5166"><ele>532.0</ele><time>2026-04-26T08:52:51.934Z</time></trkpt><trkpt lat="44.8978467" lon="9.5166817"><ele>532.0</ele><time>2026-04-26T08:52:52.934Z</time></trkpt><trkpt lat="44.8977783" lon="9.5167317"><ele>532.0</ele><time>2026-04-26T08:52:53.934Z</time></trkpt><trkpt lat="44.8977083" lon="9.5167533"><ele>532.0</ele><time>2026-04-26T08:52:54.935Z</time></trkpt><trkpt lat="44.8976383" lon="9.5167583"><ele>532.0</ele><time>2026-04-26T08:52:55.935Z</time></trkpt><trkpt lat="44.8975667" lon="9.5167467"><ele>532.0</ele><time>2026-04-26T08:52:56.934Z</time></trkpt><trkpt lat="44.8974817" lon="9.5167117"><ele>532.0</ele><time>2026-04-26T08:52:57.938Z</time></trkpt><trkpt lat="44.8973917" lon="9.5166383"><ele>534.25</ele><time>2026-04-26T08:52:58.935Z</time></trkpt><trkpt lat="44.8972833" lon="9.5165317"><ele>536.5</ele><time>2026-04-26T08:52:59.936Z</time></trkpt><trkpt lat="44.8971667" lon="9.516425"><ele>538.75</ele><time>2026-04-26T08:53:00.935Z</time></trkpt><trkpt lat="44.8970333" lon="9.516335"><ele>541.0</ele><time>2026-04-26T08:53:01.934Z</time></trkpt><trkpt lat="44.89688" lon="9.516275"><ele>538.5</ele><time>2026-04-26T08:53:02.936Z</time></trkpt><trkpt lat="44.8967233" lon="9.5162667"><ele>536.0</ele><time>2026-04-26T08:53:03.934Z</time></trkpt><trkpt lat="44.8965833" lon="9.516295"><ele>533.5</ele><time>2026-04-26T08:53:04.935Z</time></trkpt><trkpt lat="44.89645" lon="9.516345"><ele>531.0</ele><time>2026-04-26T08:53:05.934Z</time></trkpt><trkpt lat="44.8963183" lon="9.5163983"><ele>531.0</ele><time>2026-04-26T08:53:06.934Z</time></trkpt><trkpt lat="44.89619" lon="9.51645"><ele>531.0</ele><time>2026-04-26T08:53:07.934Z</time></trkpt><trkpt lat="44.8960617" lon="9.51649"><ele>531.0</ele><time>2026-04-26T08:53:08.94Z</time></trkpt><trkpt lat="44.8959317" lon="9.516525"><ele>531.0</ele><time>2026-04-26T08:53:09.934Z</time></trkpt><trkpt lat="44.8957967" lon="9.516545"><ele>531.75</ele><time>2026-04-26T08:53:10.934Z</time></trkpt><trkpt lat="44.8956583" lon="9.5165467"><ele>532.5</ele><time>2026-04-26T08:53:11.935Z</time></trkpt><trkpt lat="44.895515" lon="9.51654"><ele>533.25</ele><time>2026-04-26T08:53:12.935Z</time></trkpt><trkpt lat="44.8953717" lon="9.5165317"><ele>534.0</ele><time>2026-04-26T08:53:13.934Z</time></trkpt><trkpt lat="44.8952267" lon="9.5165167"><ele>533.0</ele><time>2026-04-26T08:53:14.934Z</time></trkpt><trkpt lat="44.89508" lon="9.516495"><ele>532.0</ele><time>2026-04-26T08:53:15.934Z</time></trkpt><trkpt lat="44.8949283" lon="9.516465"><ele>531.0</ele><time>2026-04-26T08:53:16.935Z</time></trkpt><trkpt lat="44.894775" lon="9.5164267"><ele>531.0</ele><time>2026-04-26T08:53:17.936Z</time></trkpt><trkpt lat="44.8946183" lon="9.51638"><ele>531.0</ele><time>2026-04-26T08:53:18.934Z</time></trkpt><trkpt lat="44.8944667" lon="9.5163217"><ele>531.0</ele><time>2026-04-26T08:53:19.935Z</time></trkpt><trkpt lat="44.8943183" lon="9.51625"><ele>529.0</ele><time>2026-04-26T08:53:20.934Z</time></trkpt><trkpt lat="44.8941733" lon="9.5161883"><ele>527.0</ele><time>2026-04-26T08:53:21.934Z</time></trkpt><trkpt lat="44.894025" lon="9.5161533"><ele>525.0</ele><time>2026-04-26T08:53:22.934Z</time></trkpt><trkpt lat="44.89387" lon="9.5161467"><ele>525.0</ele><time>2026-04-26T08:53:23.939Z</time></trkpt><trkpt lat="44.893715" lon="9.5161683"><ele>525.0</ele><time>2026-04-26T08:53:24.935Z</time></trkpt><trkpt lat="44.8935617" lon="9.5162117"><ele>525.0</ele><time>2026-04-26T08:53:25.934Z</time></trkpt><trkpt lat="44.8934033" lon="9.5162533"><ele>525.6666666666666</ele><time>2026-04-26T08:53:26.936Z</time></trkpt><trkpt lat="44.8932417" lon="9.5162667"><ele>526.3333333333333</ele><time>2026-04-26T08:53:27.934Z</time></trkpt><trkpt lat="44.8930783" lon="9.51626"><ele>527.0</ele><time>2026-04-26T08:53:28.934Z</time></trkpt><trkpt lat="44.892915" lon="9.5162533"><ele>527.0</ele><time>2026-04-26T08:53:29.935Z</time></trkpt><trkpt lat="44.89276" lon="9.5162533"><ele>527.0</ele><time>2026-04-26T08:53:30.938Z</time></trkpt><trkpt lat="44.8926067" lon="9.5162567"><ele>527.0</ele><time>2026-04-26T08:53:31.934Z</time></trkpt><trkpt lat="44.892455" lon="9.5162633"><ele>528.6666666666666</ele><time>2026-04-26T08:53:32.935Z</time></trkpt><trkpt lat="44.892305" lon="9.5162767"><ele>530.3333333333334</ele><time>2026-04-26T08:53:33.939Z</time></trkpt><trkpt lat="44.8921517" lon="9.516295"><ele>532.0</ele><time>2026-04-26T08:53:34.935Z</time></trkpt><trkpt lat="44.8919933" lon="9.5163117"><ele>532.0</ele><time>2026-04-26T08:53:35.936Z</time></trkpt><trkpt lat="44.8918317" lon="9.5163267"><ele>532.0</ele><time>2026-04-26T08:53:36.935Z</time></trkpt><trkpt lat="44.89167" lon="9.5163367"><ele>532.0</ele><time>2026-04-26T08:53:37.934Z</time></trkpt><trkpt lat="44.89151" lon="9.5163483"><ele>531.6666666666667</ele><time>2026-04-26T08:53:38.934Z</time></trkpt><trkpt lat="44.8913533" lon="9.5163617"><ele>531.3333333333334</ele><time>2026-04-26T08:53:39.935Z</time></trkpt><trkpt lat="44.8912" lon="9.5163817"><ele>531.0</ele><time>2026-04-26T08:53:40.941Z</time></trkpt><trkpt lat="44.8910517" lon="9.5164067"><ele>532.3333333333334</ele><time>2026-04-26T08:53:41.935Z</time></trkpt><trkpt lat="44.8909017" lon="9.516435"><ele>533.6666666666667</ele><time>2026-04-26T08:53:42.935Z</time></trkpt><trkpt lat="44.890755" lon="9.5164667"><ele>535.0</ele><time>2026-04-26T08:53:43.934Z</time></trkpt><trkpt lat="44.890605" lon="9.5165"><ele>535.0</ele><time>2026-04-26T08:53:44.935Z</time></trkpt><trkpt lat="44.8904583" lon="9.5165317"><ele>535.0</ele><time>2026-04-26T08:53:45.934Z</time></trkpt><trkpt lat="44.89031" lon="9.5165667"><ele>535.0</ele><time>2026-04-26T08:53:46.933Z</time></trkpt><trkpt lat="44.8901633" lon="9.5166133"><ele>535.0</ele><time>2026-04-26T08:53:47.934Z</time></trkpt><trkpt lat="44.8900233" lon="9.5166533"><ele>536.75</ele><time>2026-04-26T08:53:48.934Z</time></trkpt><trkpt lat="44.8898833" lon="9.516665"><ele>538.5</ele><time>2026-04-26T08:53:49.933Z</time></trkpt><trkpt lat="44.88974" lon="9.5166467"><ele>540.25</ele><time>2026-04-26T08:53:50.934Z</time></trkpt><trkpt lat="44.8895967" lon="9.5166267"><ele>542.0</ele><time>2026-04-26T08:53:51.942Z</time></trkpt><trkpt lat="44.8894683" lon="9.51662"><ele>542.0</ele><time>2026-04-26T08:53:52.934Z</time></trkpt><trkpt lat="44.88934" lon="9.516615"><ele>542.0</ele><time>2026-04-26T08:53:53.934Z</time></trkpt><trkpt lat="44.8892133" lon="9.5165967"><ele>542.0</ele><time>2026-04-26T08:53:54.934Z</time></trkpt><trkpt lat="44.8890833" lon="9.5165583"><ele>542.0</ele><time>2026-04-26T08:53:55.934Z</time></trkpt><trkpt lat="44.8889467" lon="9.5165067"><ele>542.25</ele><time>2026-04-26T08:53:56.934Z</time></trkpt><trkpt lat="44.888805" lon="9.5164467"><ele>542.5</ele><time>2026-04-26T08:53:57.934Z</time></trkpt><trkpt lat="44.8886667" lon="9.516375"><ele>542.75</ele><time>2026-04-26T08:53:58.934Z</time></trkpt><trkpt lat="44.8885367" lon="9.516295"><ele>543.0</ele><time>2026-04-26T08:53:59.934Z</time></trkpt><trkpt lat="44.88841" lon="9.51621"><ele>543.0</ele><time>2026-04-26T08:54:00.933Z</time></trkpt><trkpt lat="44.8882867" lon="9.5161233"><ele>543.0</ele><time>2026-04-26T08:54:01.936Z</time></trkpt><trkpt lat="44.8881667" lon="9.5160383"><ele>543.0</ele><time>2026-04-26T08:54:02.935Z</time></trkpt><trkpt lat="44.8880483" lon="9.515945"><ele>543.0</ele><time>2026-04-26T08:54:03.934Z</time></trkpt><trkpt lat="44.8879333" lon="9.515845"><ele>543.0</ele><time>2026-04-26T08:54:04.934Z</time></trkpt><trkpt lat="44.887825" lon="9.5157317"><ele>543.0</ele><time>2026-04-26T08:54:05.935Z</time></trkpt><trkpt lat="44.887725" lon="9.5156017"><ele>543.0</ele><time>2026-04-26T08:54:06.935Z</time></trkpt><trkpt lat="44.8876317" lon="9.5154567"><ele>543.0</ele><time>2026-04-26T08:54:07.938Z</time></trkpt><trkpt lat="44.887545" lon="9.5152983"><ele>546.5</ele><time>2026-04-26T08:54:08.935Z</time></trkpt><trkpt lat="44.8874617" lon="9.5151333"><ele>550.0</ele><time>2026-04-26T08:54:09.936Z</time></trkpt><trkpt lat="44.887385" lon="9.5149717"><ele>553.5</ele><time>2026-04-26T08:54:10.935Z</time></trkpt><trkpt lat="44.8873267" lon="9.51481"><ele>557.0</ele><time>2026-04-26T08:54:11.933Z</time></trkpt><trkpt lat="44.88728" lon="9.51464"><ele>557.5</ele><time>2026-04-26T08:54:12.933Z</time></trkpt><trkpt lat="44.8872517" lon="9.5144583"><ele>558.0</ele><time>2026-04-26T08:54:13.934Z</time></trkpt><trkpt lat="44.8872337" lon="9.5142763"><ele>558.5</ele><time>2026-04-26T08:54:14.933Z</time></trkpt><trkpt lat="44.8872321" lon="9.5140958"><ele>559.0</ele><time>2026-04-26T08:54:15.941Z</time></trkpt><trkpt lat="44.8872302" lon="9.5139235"><ele>559.0</ele><time>2026-04-26T08:54:16.934Z</time></trkpt><trkpt lat="44.8872128" lon="9.5137575"><ele>559.0</ele><time>2026-04-26T08:54:17.934Z</time></trkpt><trkpt lat="44.8871778" lon="9.5135928"><ele>559.0</ele><time>2026-04-26T08:54:18.936Z</time></trkpt><trkpt lat="44.8871394" lon="9.5134295"><ele>559.0</ele><time>2026-04-26T08:54:19.934Z</time></trkpt><trkpt lat="44.8871079" lon="9.5132617"><ele>559.0</ele><time>2026-04-26T08:54:20.934Z</time></trkpt><trkpt lat="44.8870961" lon="9.5130869"><ele>559.0</ele><time>2026-04-26T08:54:21.933Z</time></trkpt><trkpt lat="44.8870977" lon="9.512909"><ele>559.0</ele><time>2026-04-26T08:54:22.933Z</time></trkpt><trkpt lat="44.8870983" lon="9.512737"><ele>559.0</ele><time>2026-04-26T08:54:23.934Z</time></trkpt><trkpt lat="44.8870858" lon="9.5125716"><ele>560.25</ele><time>2026-04-26T08:54:24.933Z</time></trkpt><trkpt lat="44.8870567" lon="9.5124158"><ele>561.5</ele><time>2026-04-26T08:54:25.934Z</time></trkpt><trkpt lat="44.8870266" lon="9.5122531"><ele>562.75</ele><time>2026-04-26T08:54:26.94Z</time></trkpt><trkpt lat="44.8870087" lon="9.5120815"><ele>564.0</ele><time>2026-04-26T08:54:27.933Z</time></trkpt><trkpt lat="44.8870143" lon="9.5119094"><ele>565.0</ele><time>2026-04-26T08:54:28.934Z</time></trkpt><trkpt lat="44.8870567" lon="9.5117428"><ele>566.0</ele><time>2026-04-26T08:54:29.933Z</time></trkpt><trkpt lat="44.887118" lon="9.5115996"><ele>567.0</ele><time>2026-04-26T08:54:30.933Z</time></trkpt><trkpt lat="44.8871762" lon="9.5114777"><ele>568.0</ele><time>2026-04-26T08:54:31.941Z</time></trkpt><trkpt lat="44.8872128" lon="9.5113734"><ele>569.0</ele><time>2026-04-26T08:54:32.935Z</time></trkpt><trkpt lat="44.8872268" lon="9.5112691"><ele>569.6</ele><time>2026-04-26T08:54:33.933Z</time></trkpt><trkpt lat="44.8872235" lon="9.5111587"><ele>570.2</ele><time>2026-04-26T08:54:34.934Z</time></trkpt><trkpt lat="44.8871982" lon="9.5110367"><ele>570.8000000000001</ele><time>2026-04-26T08:54:35.935Z</time></trkpt><trkpt lat="44.8871421" lon="9.510914"><ele>571.4</ele><time>2026-04-26T08:54:36.933Z</time></trkpt><trkpt lat="44.887075" lon="9.5107983"><ele>572.0</ele><time>2026-04-26T08:54:37.938Z</time></trkpt><trkpt lat="44.887004" lon="9.5107002"><ele>572.0</ele><time>2026-04-26T08:54:38.936Z</time></trkpt><trkpt lat="44.886928" lon="9.5106231"><ele>572.0</ele><time>2026-04-26T08:54:39.938Z</time></trkpt><trkpt lat="44.8868495" lon="9.5105554"><ele>572.0</ele><time>2026-04-26T08:54:40.935Z</time></trkpt><trkpt lat="44.8867641" lon="9.5105002"><ele>572.0</ele><time>2026-04-26T08:54:41.936Z</time></trkpt><trkpt lat="44.8866752" lon="9.5104657"><ele>572.0</ele><time>2026-04-26T08:54:42.936Z</time></trkpt><trkpt lat="44.8865836" lon="9.5104553"><ele>577.0</ele><time>2026-04-26T08:54:43.934Z</time></trkpt><trkpt lat="44.8864863" lon="9.5104617"><ele>582.0</ele><time>2026-04-26T08:54:44.936Z</time></trkpt><trkpt lat="44.8863687" lon="9.5104996"><ele>587.0</ele><time>2026-04-26T08:54:45.934Z</time></trkpt><trkpt lat="44.8862417" lon="9.510557"><ele>592.0</ele><time>2026-04-26T08:54:46.94Z</time></trkpt><trkpt lat="44.8861111" lon="9.5106228"><ele>592.0</ele><time>2026-04-26T08:54:47.934Z</time></trkpt><trkpt lat="44.8859696" lon="9.5106909"><ele>592.0</ele><time>2026-04-26T08:54:48.937Z</time></trkpt><trkpt lat="44.8858209" lon="9.5107513"><ele>592.0</ele><time>2026-04-26T08:54:49.935Z</time></trkpt><trkpt lat="44.8856727" lon="9.510804"><ele>592.0</ele><time>2026-04-26T08:54:50.935Z</time></trkpt><trkpt lat="44.8855296" lon="9.5108333"><ele>592.0</ele><time>2026-04-26T08:54:51.936Z</time></trkpt><trkpt lat="44.885389" lon="9.5108322"><ele>592.0</ele><time>2026-04-26T08:54:52.936Z</time></trkpt><trkpt lat="44.885252" lon="9.5108168"><ele>592.0</ele><time>2026-04-26T08:54:53.939Z</time></trkpt><trkpt lat="44.8851266" lon="9.5108214"><ele>591.5</ele><time>2026-04-26T08:54:54.934Z</time></trkpt><trkpt lat="44.8849997" lon="9.510831"><ele>591.0</ele><time>2026-04-26T08:54:55.937Z</time></trkpt><trkpt lat="44.8848679" lon="9.5108256"><ele>590.5</ele><time>2026-04-26T08:54:56.933Z</time></trkpt><trkpt lat="44.8847356" lon="9.5107999"><ele>590.0</ele><time>2026-04-26T08:54:57.937Z</time></trkpt><trkpt lat="44.8846051" lon="9.510758"><ele>590.0</ele><time>2026-04-26T08:54:58.933Z</time></trkpt><trkpt lat="44.8844796" lon="9.5107091"><ele>590.0</ele><time>2026-04-26T08:54:59.934Z</time></trkpt><trkpt lat="44.8843622" lon="9.510667"><ele>590.0</ele><time>2026-04-26T08:55:00.935Z</time></trkpt><trkpt lat="44.88424" lon="9.510651"><ele>590.0</ele><time>2026-04-26T08:55:01.933Z</time></trkpt><trkpt lat="44.8841041" lon="9.5106672"><ele>589.0</ele><time>2026-04-26T08:55:02.937Z</time></trkpt><trkpt lat="44.8839603" lon="9.5106893"><ele>588.0</ele><time>2026-04-26T08:55:03.933Z</time></trkpt><trkpt lat="44.8838163" lon="9.5106971"><ele>587.0</ele><time>2026-04-26T08:55:04.941Z</time></trkpt><trkpt lat="44.8836803" lon="9.5106819"><ele>586.0</ele><time>2026-04-26T08:55:05.935Z</time></trkpt><trkpt lat="44.883553" lon="9.510653"><ele>584.25</ele><time>2026-04-26T08:55:06.934Z</time></trkpt><trkpt lat="44.8834296" lon="9.5106058"><ele>582.5</ele><time>2026-04-26T08:55:07.934Z</time></trkpt><trkpt lat="44.8833055" lon="9.5105329"><ele>580.75</ele><time>2026-04-26T08:55:08.936Z</time></trkpt><trkpt lat="44.8831825" lon="9.5104447"><ele>579.0</ele><time>2026-04-26T08:55:09.933Z</time></trkpt><trkpt lat="44.8830593" lon="9.510358"><ele>579.0</ele><time>2026-04-26T08:55:10.935Z</time></trkpt><trkpt lat="44.8829319" lon="9.5102914"><ele>579.0</ele><time>2026-04-26T08:55:11.934Z</time></trkpt><trkpt lat="44.8827953" lon="9.5102539"><ele>579.0</ele><time>2026-04-26T08:55:12.933Z</time></trkpt><trkpt lat="44.8826526" lon="9.5102306"><ele>579.0</ele><time>2026-04-26T08:55:13.933Z</time></trkpt><trkpt lat="44.8825071" lon="9.510208"><ele>579.0</ele><time>2026-04-26T08:55:14.933Z</time></trkpt><trkpt lat="44.8823649" lon="9.5101808"><ele>579.0</ele><time>2026-04-26T08:55:15.933Z</time></trkpt><trkpt lat="44.8822347" lon="9.5101467"><ele>579.0</ele><time>2026-04-26T08:55:16.935Z</time></trkpt><trkpt lat="44.8821204" lon="9.5101264"><ele>579.0</ele><time>2026-04-26T08:55:17.936Z</time></trkpt><trkpt lat="44.8820203" lon="9.5101465"><ele>579.0</ele><time>2026-04-26T08:55:18.936Z</time></trkpt><trkpt lat="44.8819339" lon="9.5101967"><ele>579.0</ele><time>2026-04-26T08:55:19.94Z</time></trkpt><trkpt lat="44.8818496" lon="9.5102645"><ele>579.0</ele><time>2026-04-26T08:55:20.936Z</time></trkpt><trkpt lat="44.8817648" lon="9.5103318"><ele>579.0</ele><time>2026-04-26T08:55:21.937Z</time></trkpt><trkpt lat="44.8816766" lon="9.5103954"><ele>579.0</ele><time>2026-04-26T08:55:22.933Z</time></trkpt><trkpt lat="44.8815858" lon="9.5104573"><ele>580.6</ele><time>2026-04-26T08:55:23.935Z</time></trkpt><trkpt lat="44.8814983" lon="9.5105227"><ele>582.2</ele><time>2026-04-26T08:55:24.933Z</time></trkpt><trkpt lat="44.8814161" lon="9.5106082"><ele>583.8000000000001</ele><time>2026-04-26T08:55:25.933Z</time></trkpt><trkpt lat="44.8813434" lon="9.5107165"><ele>585.4</ele><time>2026-04-26T08:55:26.941Z</time></trkpt><trkpt lat="44.8812867" lon="9.5108447"><ele>587.0</ele><time>2026-04-26T08:55:27.934Z</time></trkpt><trkpt lat="44.8812347" lon="9.5109803"><ele>587.0</ele><time>2026-04-26T08:55:28.935Z</time></trkpt><trkpt lat="44.8811877" lon="9.5111037"><ele>587.0</ele><time>2026-04-26T08:55:29.935Z</time></trkpt><trkpt lat="44.8811387" lon="9.511222"><ele>587.0</ele><time>2026-04-26T08:55:30.934Z</time></trkpt><trkpt lat="44.8810837" lon="9.5113263"><ele>587.0</ele><time>2026-04-26T08:55:31.934Z</time></trkpt><trkpt lat="44.8810311" lon="9.5114188"><ele>587.0</ele><time>2026-04-26T08:55:32.938Z</time></trkpt><trkpt lat="44.8809731" lon="9.5114806"><ele>587.0</ele><time>2026-04-26T08:55:33.934Z</time></trkpt><trkpt lat="44.8809084" lon="9.5115118"><ele>589.0</ele><time>2026-04-26T08:55:34.935Z</time></trkpt><trkpt lat="44.8807971" lon="9.511499"><ele>591.0</ele><time>2026-04-26T08:55:36.933Z</time></trkpt><trkpt lat="44.8807397" lon="9.5113806"><ele>593.0</ele><time>2026-04-26T08:55:37.933Z</time></trkpt><trkpt lat="44.8806855" lon="9.5112051"><ele>595.0</ele><time>2026-04-26T08:55:38.933Z</time></trkpt><trkpt lat="44.8806335" lon="9.5110292"><ele>596.6</ele><time>2026-04-26T08:55:39.935Z</time></trkpt><trkpt lat="44.8805828" lon="9.5108832"><ele>598.2</ele><time>2026-04-26T08:55:40.934Z</time></trkpt><trkpt lat="44.8805255" lon="9.5107668"><ele>599.8</ele><time>2026-04-26T08:55:41.933Z</time></trkpt><trkpt lat="44.8804559" lon="9.5106738"><ele>601.4</ele><time>2026-04-26T08:55:42.936Z</time></trkpt><trkpt lat="44.8803652" lon="9.5105967"><ele>603.0</ele><time>2026-04-26T08:55:43.934Z</time></trkpt><trkpt lat="44.8802639" lon="9.5105259"><ele>603.0</ele><time>2026-04-26T08:55:44.937Z</time></trkpt><trkpt lat="44.8801391" lon="9.5104646"><ele>603.0</ele><time>2026-04-26T08:55:45.935Z</time></trkpt><trkpt lat="44.8799966" lon="9.5104035"><ele>603.0</ele><time>2026-04-26T08:55:46.935Z</time></trkpt><trkpt lat="44.8798468" lon="9.5103362"><ele>603.0</ele><time>2026-04-26T08:55:47.934Z</time></trkpt><trkpt lat="44.8797069" lon="9.5102597"><ele>606.0</ele><time>2026-04-26T08:55:48.935Z</time></trkpt><trkpt lat="44.8795761" lon="9.510165"><ele>609.0</ele><time>2026-04-26T08:55:49.935Z</time></trkpt><trkpt lat="44.8794651" lon="9.5100832"><ele>612.0</ele><time>2026-04-26T08:55:50.935Z</time></trkpt><trkpt lat="44.8793624" lon="9.5100329"><ele>615.0</ele><time>2026-04-26T08:55:51.939Z</time></trkpt><trkpt lat="44.8792529" lon="9.5100161"><ele>615.0</ele><time>2026-04-26T08:55:52.933Z</time></trkpt><trkpt lat="44.8791348" lon="9.5100318"><ele>615.0</ele><time>2026-04-26T08:55:53.937Z</time></trkpt><trkpt lat="44.8790132" lon="9.5100613"><ele>615.0</ele><time>2026-04-26T08:55:54.933Z</time></trkpt><trkpt lat="44.8788882" lon="9.5100923"><ele>615.0</ele><time>2026-04-26T08:55:55.934Z</time></trkpt><trkpt lat="44.8787602" lon="9.5101313"><ele>615.0</ele><time>2026-04-26T08:55:56.936Z</time></trkpt><trkpt lat="44.8786363" lon="9.51016"><ele>615.0</ele><time>2026-04-26T08:55:57.933Z</time></trkpt><trkpt lat="44.8785198" lon="9.5101692"><ele>615.0</ele><time>2026-04-26T08:55:58.933Z</time></trkpt><trkpt lat="44.8784189" lon="9.5101525"><ele>615.0</ele><time>2026-04-26T08:55:59.939Z</time></trkpt><trkpt lat="44.8783348" lon="9.5101326"><ele>615.0</ele><time>2026-04-26T08:56:00.934Z</time></trkpt><trkpt lat="44.8782666" lon="9.5101262"><ele>615.1666666666666</ele><time>2026-04-26T08:56:01.934Z</time></trkpt><trkpt lat="44.8781997" lon="9.5101305"><ele>615.3333333333334</ele><time>2026-04-26T08:56:02.934Z</time></trkpt><trkpt lat="44.8781377" lon="9.5101478"><ele>615.5</ele><time>2026-04-26T08:56:03.936Z</time></trkpt><trkpt lat="44.8780454" lon="9.5102374"><ele>615.6666666666667</ele><time>2026-04-26T08:56:05.933Z</time></trkpt><trkpt lat="44.8780185" lon="9.5103298"><ele>615.8333333333334</ele><time>2026-04-26T08:56:06.934Z</time></trkpt><trkpt lat="44.8780039" lon="9.5104406"><ele>616.0</ele><time>2026-04-26T08:56:07.934Z</time></trkpt><trkpt lat="44.8779946" lon="9.5105605"><ele>614.6666666666667</ele><time>2026-04-26T08:56:08.934Z</time></trkpt><trkpt lat="44.8779856" lon="9.5106758"><ele>613.3333333333334</ele><time>2026-04-26T08:56:09.933Z</time></trkpt><trkpt lat="44.8779744" lon="9.5107924"><ele>612.0</ele><time>2026-04-26T08:56:10.937Z</time></trkpt><trkpt lat="44.8779577" lon="9.5108995"><ele>610.6666666666666</ele><time>2026-04-26T08:56:11.934Z</time></trkpt><trkpt lat="44.8779342" lon="9.5110023"><ele>609.3333333333333</ele><time>2026-04-26T08:56:12.941Z</time></trkpt><trkpt lat="44.8779023" lon="9.5111015"><ele>608.0</ele><time>2026-04-26T08:56:13.933Z</time></trkpt><trkpt lat="44.8778636" lon="9.5111987"><ele>606.8</ele><time>2026-04-26T08:56:14.934Z</time></trkpt><trkpt lat="44.8778088" lon="9.5112968"><ele>605.5999999999999</ele><time>2026-04-26T08:56:15.934Z</time></trkpt><trkpt lat="44.877743" lon="9.5113964"><ele>604.4000000000001</ele><time>2026-04-26T08:56:16.935Z</time></trkpt><trkpt lat="44.8776772" lon="9.5114971"><ele>603.2</ele><time>2026-04-26T08:56:17.936Z</time></trkpt><trkpt lat="44.8776193" lon="9.5116019"><ele>602.0</ele><time>2026-04-26T08:56:18.934Z</time></trkpt><trkpt lat="44.8775626" lon="9.5117085"><ele>604.6666666666666</ele><time>2026-04-26T08:56:19.939Z</time></trkpt><trkpt lat="44.8775035" lon="9.5118053"><ele>607.3333333333333</ele><time>2026-04-26T08:56:20.934Z</time></trkpt><trkpt lat="44.8774431" lon="9.5118754"><ele>610.0</ele><time>2026-04-26T08:56:21.936Z</time></trkpt><trkpt lat="44.8773835" lon="9.5119136"><ele>612.6666666666666</ele><time>2026-04-26T08:56:22.936Z</time></trkpt><trkpt lat="44.8772797" lon="9.5118764"><ele>615.3333333333334</ele><time>2026-04-26T08:56:24.934Z</time></trkpt><trkpt lat="44.8772256" lon="9.5118239"><ele>618.0</ele><time>2026-04-26T08:56:25.934Z</time></trkpt><trkpt lat="44.8771632" lon="9.5117716"><ele>618.0000000000001</ele><time>2026-04-26T08:56:26.934Z</time></trkpt><trkpt lat="44.8771" lon="9.5117317"><ele>618.0</ele><time>2026-04-26T08:56:27.935Z</time></trkpt><trkpt lat="44.8770367" lon="9.5117017"><ele>618.0</ele><time>2026-04-26T08:56:28.935Z</time></trkpt><trkpt lat="44.87697" lon="9.5116783"><ele>618.0</ele><time>2026-04-26T08:56:29.936Z</time></trkpt><trkpt lat="44.8769033" lon="9.5116483"><ele>618.0</ele><time>2026-04-26T08:56:30.934Z</time></trkpt><trkpt lat="44.8768267" lon="9.5116117"><ele>618.0000000000001</ele><time>2026-04-26T08:56:31.934Z</time></trkpt><trkpt lat="44.87675" lon="9.5115783"><ele>618.0</ele><time>2026-04-26T08:56:32.935Z</time></trkpt><trkpt lat="44.876675" lon="9.5115483"><ele>616.1666666666666</ele><time>2026-04-26T08:56:33.933Z</time></trkpt><trkpt lat="44.8766033" lon="9.511525"><ele>614.3333333333334</ele><time>2026-04-26T08:56:34.938Z</time></trkpt><trkpt lat="44.8765333" lon="9.5115233"><ele>612.5</ele><time>2026-04-26T08:56:35.935Z</time></trkpt><trkpt lat="44.8764617" lon="9.51155"><ele>610.6666666666667</ele><time>2026-04-26T08:56:36.935Z</time></trkpt><trkpt lat="44.8763983" lon="9.5116017"><ele>608.8333333333334</ele><time>2026-04-26T08:56:37.936Z</time></trkpt><trkpt lat="44.8763333" lon="9.511665"><ele>607.0</ele><time>2026-04-26T08:56:38.935Z</time></trkpt><trkpt lat="44.8762617" lon="9.5117183"><ele>607.0</ele><time>2026-04-26T08:56:39.938Z</time></trkpt><trkpt lat="44.876185" lon="9.5117383"><ele>607.0</ele><time>2026-04-26T08:56:40.935Z</time></trkpt><trkpt lat="44.8761067" lon="9.5117433"><ele>607.0</ele><time>2026-04-26T08:56:41.933Z</time></trkpt><trkpt lat="44.8760217" lon="9.5117083"><ele>607.0</ele><time>2026-04-26T08:56:42.933Z</time></trkpt><trkpt lat="44.8759433" lon="9.511635"><ele>607.0</ele><time>2026-04-26T08:56:43.933Z</time></trkpt><trkpt lat="44.8758717" lon="9.5115667"><ele>607.0</ele><time>2026-04-26T08:56:44.939Z</time></trkpt><trkpt lat="44.875795" lon="9.5115"><ele>605.3333333333334</ele><time>2026-04-26T08:56:45.935Z</time></trkpt><trkpt lat="44.875705" lon="9.5114333"><ele>603.6666666666667</ele><time>2026-04-26T08:56:46.943Z</time></trkpt><trkpt lat="44.8756317" lon="9.5113583"><ele>602.0</ele><time>2026-04-26T08:56:47.934Z</time></trkpt><trkpt lat="44.8755667" lon="9.5112867"><ele>600.3333333333334</ele><time>2026-04-26T08:56:48.937Z</time></trkpt><trkpt lat="44.875505" lon="9.5112133"><ele>598.6666666666666</ele><time>2026-04-26T08:56:49.934Z</time></trkpt><trkpt lat="44.8754433" lon="9.511145"><ele>597.0</ele><time>2026-04-26T08:56:50.935Z</time></trkpt><trkpt lat="44.8753833" lon="9.5110783"><ele>593.8000000000001</ele><time>2026-04-26T08:56:51.933Z</time></trkpt><trkpt lat="44.8752733" lon="9.5109883"><ele>590.6</ele><time>2026-04-26T08:56:53.933Z</time></trkpt><trkpt lat="44.8752217" lon="9.5109367"><ele>587.4000000000001</ele><time>2026-04-26T08:56:54.935Z</time></trkpt><trkpt lat="44.875165" lon="9.5108817"><ele>584.2</ele><time>2026-04-26T08:56:55.934Z</time></trkpt><trkpt lat="44.8751067" lon="9.5108333"><ele>581.0</ele><time>2026-04-26T08:56:56.934Z</time></trkpt><trkpt lat="44.8749917" lon="9.5107617"><ele>580.0</ele><time>2026-04-26T08:56:58.935Z</time></trkpt><trkpt lat="44.874925" lon="9.5107367"><ele>579.0</ele><time>2026-04-26T08:56:59.935Z</time></trkpt><trkpt lat="44.8748617" lon="9.510725"><ele>578.0</ele><time>2026-04-26T08:57:00.936Z</time></trkpt><trkpt lat="44.8747967" lon="9.5107517"><ele>577.0</ele><time>2026-04-26T08:57:01.937Z</time></trkpt><trkpt lat="44.8747167" lon="9.5107667"><ele>576.0</ele><time>2026-04-26T08:57:02.935Z</time></trkpt><trkpt lat="44.8746317" lon="9.5108033"><ele>575.0</ele><time>2026-04-26T08:57:03.938Z</time></trkpt><trkpt lat="44.874545" lon="9.51084"><ele>575.0</ele><time>2026-04-26T08:57:04.936Z</time></trkpt><trkpt lat="44.8744533" lon="9.51088"><ele>575.0</ele><time>2026-04-26T08:57:05.935Z</time></trkpt><trkpt lat="44.8743583" lon="9.510915"><ele>575.0</ele><time>2026-04-26T08:57:06.935Z</time></trkpt><trkpt lat="44.8742617" lon="9.5109433"><ele>575.0</ele><time>2026-04-26T08:57:07.935Z</time></trkpt><trkpt lat="44.874155" lon="9.5109767"><ele>575.0</ele><time>2026-04-26T08:57:08.946Z</time></trkpt><trkpt lat="44.874045" lon="9.5110267"><ele>573.6</ele><time>2026-04-26T08:57:09.936Z</time></trkpt><trkpt lat="44.8739433" lon="9.51108"><ele>572.2</ele><time>2026-04-26T08:57:10.935Z</time></trkpt><trkpt lat="44.8738533" lon="9.5111383"><ele>570.8</ele><time>2026-04-26T08:57:11.936Z</time></trkpt><trkpt lat="44.87376" lon="9.5112167"><ele>569.4</ele><time>2026-04-26T08:57:12.935Z</time></trkpt><trkpt lat="44.87367" lon="9.51131"><ele>568.0</ele><time>2026-04-26T08:57:13.937Z</time></trkpt><trkpt lat="44.87358" lon="9.5114033"><ele>566.8</ele><time>2026-04-26T08:57:14.935Z</time></trkpt><trkpt lat="44.8734967" lon="9.5115"><ele>565.5999999999999</ele><time>2026-04-26T08:57:15.935Z</time></trkpt><trkpt lat="44.873415" lon="9.511595"><ele>564.4000000000001</ele><time>2026-04-26T08:57:16.934Z</time></trkpt><trkpt lat="44.873336" lon="9.5116847"><ele>563.2</ele><time>2026-04-26T08:57:17.934Z</time></trkpt><trkpt lat="44.8732596" lon="9.5117665"><ele>562.0</ele><time>2026-04-26T08:57:18.94Z</time></trkpt><trkpt lat="44.8731846" lon="9.5118413"><ele>562.0</ele><time>2026-04-26T08:57:19.933Z</time></trkpt><trkpt lat="44.873112" lon="9.5119079"><ele>562.0</ele><time>2026-04-26T08:57:20.935Z</time></trkpt><trkpt lat="44.8730405" lon="9.5119639"><ele>562.0</ele><time>2026-04-26T08:57:21.934Z</time></trkpt><trkpt lat="44.8729682" lon="9.5120061"><ele>562.0</ele><time>2026-04-26T08:57:22.935Z</time></trkpt><trkpt lat="44.8728901" lon="9.5120359"><ele>562.0</ele><time>2026-04-26T08:57:23.936Z</time></trkpt><trkpt lat="44.8728074" lon="9.5120497"><ele>562.0</ele><time>2026-04-26T08:57:24.934Z</time></trkpt><trkpt lat="44.872724" lon="9.5120437"><ele>562.0</ele><time>2026-04-26T08:57:25.934Z</time></trkpt><trkpt lat="44.8726453" lon="9.5120301"><ele>562.0</ele><time>2026-04-26T08:57:26.934Z</time></trkpt><trkpt lat="44.8725756" lon="9.5120223"><ele>562.0</ele><time>2026-04-26T08:57:27.933Z</time></trkpt><trkpt lat="44.8725122" lon="9.5120365"><ele>562.0</ele><time>2026-04-26T08:57:28.933Z</time></trkpt><trkpt lat="44.872413" lon="9.5121537"><ele>562.0</ele><time>2026-04-26T08:57:30.934Z</time></trkpt><trkpt lat="44.8723623" lon="9.5122566"><ele>562.0</ele><time>2026-04-26T08:57:31.933Z</time></trkpt><trkpt lat="44.8723015" lon="9.5123747"><ele>559.0</ele><time>2026-04-26T08:57:32.933Z</time></trkpt><trkpt lat="44.8722218" lon="9.5125015"><ele>556.0</ele><time>2026-04-26T08:57:33.935Z</time></trkpt><trkpt lat="44.872132" lon="9.5126311"><ele>553.0</ele><time>2026-04-26T08:57:34.933Z</time></trkpt><trkpt lat="44.8720349" lon="9.5127537"><ele>550.0</ele><time>2026-04-26T08:57:35.935Z</time></trkpt><trkpt lat="44.871933" lon="9.512855"><ele>550.2</ele><time>2026-04-26T08:57:36.934Z</time></trkpt><trkpt lat="44.8718337" lon="9.5129449"><ele>550.4</ele><time>2026-04-26T08:57:37.933Z</time></trkpt><trkpt lat="44.8717523" lon="9.5130324"><ele>550.6</ele><time>2026-04-26T08:57:38.94Z</time></trkpt><trkpt lat="44.8716886" lon="9.5131277"><ele>550.8</ele><time>2026-04-26T08:57:39.933Z</time></trkpt><trkpt lat="44.8716354" lon="9.5132481"><ele>551.0</ele><time>2026-04-26T08:57:40.934Z</time></trkpt><trkpt lat="44.8715919" lon="9.513388"><ele>549.8</ele><time>2026-04-26T08:57:41.934Z</time></trkpt><trkpt lat="44.8715569" lon="9.5135259"><ele>548.6</ele><time>2026-04-26T08:57:42.935Z</time></trkpt><trkpt lat="44.8715271" lon="9.5136554"><ele>547.4</ele><time>2026-04-26T08:57:43.936Z</time></trkpt><trkpt lat="44.871508" lon="9.5137821"><ele>546.2</ele><time>2026-04-26T08:57:44.935Z</time></trkpt><trkpt lat="44.8714936" lon="9.5139055"><ele>545.0</ele><time>2026-04-26T08:57:45.935Z</time></trkpt><trkpt lat="44.8714761" lon="9.5140188"><ele>545.0</ele><time>2026-04-26T08:57:46.934Z</time></trkpt><trkpt lat="44.8714474" lon="9.5141115"><ele>545.0</ele><time>2026-04-26T08:57:47.937Z</time></trkpt><trkpt lat="44.8713389" lon="9.5142035"><ele>545.0</ele><time>2026-04-26T08:57:49.935Z</time></trkpt><trkpt lat="44.8712485" lon="9.5142176"><ele>545.0</ele><time>2026-04-26T08:57:50.936Z</time></trkpt><trkpt lat="44.8711433" lon="9.5142345"><ele>545.0</ele><time>2026-04-26T08:57:51.934Z</time></trkpt><trkpt lat="44.8710313" lon="9.5142481"><ele>542.0</ele><time>2026-04-26T08:57:52.938Z</time></trkpt><trkpt lat="44.8709219" lon="9.5142585"><ele>539.0</ele><time>2026-04-26T08:57:53.934Z</time></trkpt><trkpt lat="44.8708202" lon="9.5142628"><ele>536.0</ele><time>2026-04-26T08:57:54.935Z</time></trkpt><trkpt lat="44.8707218" lon="9.5142555"><ele>533.0</ele><time>2026-04-26T08:57:55.933Z</time></trkpt><trkpt lat="44.8706231" lon="9.5142426"><ele>530.0</ele><time>2026-04-26T08:57:56.934Z</time></trkpt><trkpt lat="44.8705233" lon="9.5142238"><ele>530.0</ele><time>2026-04-26T08:57:57.937Z</time></trkpt><trkpt lat="44.8704249" lon="9.5142042"><ele>530.0</ele><time>2026-04-26T08:57:58.936Z</time></trkpt><trkpt lat="44.8703243" lon="9.5141707"><ele>530.0</ele><time>2026-04-26T08:57:59.935Z</time></trkpt><trkpt lat="44.8702251" lon="9.5141272"><ele>530.0</ele><time>2026-04-26T08:58:00.935Z</time></trkpt><trkpt lat="44.8701224" lon="9.5140778"><ele>530.0</ele><time>2026-04-26T08:58:01.934Z</time></trkpt><trkpt lat="44.8700184" lon="9.5140183"><ele>525.8</ele><time>2026-04-26T08:58:02.937Z</time></trkpt><trkpt lat="44.8699176" lon="9.5139506"><ele>521.6</ele><time>2026-04-26T08:58:03.938Z</time></trkpt><trkpt lat="44.8698183" lon="9.5138831"><ele>517.4</ele><time>2026-04-26T08:58:04.934Z</time></trkpt><trkpt lat="44.8697265" lon="9.5138345"><ele>513.2</ele><time>2026-04-26T08:58:05.935Z</time></trkpt><trkpt lat="44.8696313" lon="9.513803"><ele>509.0</ele><time>2026-04-26T08:58:06.933Z</time></trkpt><trkpt lat="44.8695361" lon="9.513766"><ele>507.75</ele><time>2026-04-26T08:58:07.934Z</time></trkpt><trkpt lat="44.8694341" lon="9.5137201"><ele>506.5</ele><time>2026-04-26T08:58:08.938Z</time></trkpt><trkpt lat="44.8693203" lon="9.5136607"><ele>505.25</ele><time>2026-04-26T08:58:09.935Z</time></trkpt><trkpt lat="44.8691961" lon="9.5135846"><ele>504.0</ele><time>2026-04-26T08:58:10.934Z</time></trkpt><trkpt lat="44.869067" lon="9.5135022"><ele>500.75</ele><time>2026-04-26T08:58:11.935Z</time></trkpt><trkpt lat="44.8689442" lon="9.51342"><ele>497.5</ele><time>2026-04-26T08:58:12.935Z</time></trkpt><trkpt lat="44.8688304" lon="9.5133557"><ele>494.25</ele><time>2026-04-26T08:58:13.935Z</time></trkpt><trkpt lat="44.8687291" lon="9.5133067"><ele>491.0</ele><time>2026-04-26T08:58:14.936Z</time></trkpt><trkpt lat="44.8686435" lon="9.5132649"><ele>490.99999999999994</ele><time>2026-04-26T08:58:15.937Z</time></trkpt><trkpt lat="44.8685706" lon="9.5132211"><ele>491.0</ele><time>2026-04-26T08:58:16.934Z</time></trkpt><trkpt lat="44.8685095" lon="9.513167"><ele>491.0</ele><time>2026-04-26T08:58:17.936Z</time></trkpt><trkpt lat="44.8684551" lon="9.5130936"><ele>491.0</ele><time>2026-04-26T08:58:18.934Z</time></trkpt><trkpt lat="44.8684077" lon="9.5129903"><ele>490.99999999999994</ele><time>2026-04-26T08:58:19.935Z</time></trkpt><trkpt lat="44.8683584" lon="9.5128788"><ele>491.0</ele><time>2026-04-26T08:58:20.943Z</time></trkpt><trkpt lat="44.8683037" lon="9.5127552"><ele>486.75</ele><time>2026-04-26T08:58:21.935Z</time></trkpt><trkpt lat="44.8682363" lon="9.5126171"><ele>482.5</ele><time>2026-04-26T08:58:22.934Z</time></trkpt><trkpt lat="44.8681622" lon="9.5124776"><ele>478.25</ele><time>2026-04-26T08:58:23.934Z</time></trkpt><trkpt lat="44.8680878" lon="9.5123457"><ele>474.0</ele><time>2026-04-26T08:58:24.934Z</time></trkpt><trkpt lat="44.8680159" lon="9.5122222"><ele>474.0</ele><time>2026-04-26T08:58:25.935Z</time></trkpt><trkpt lat="44.8679417" lon="9.5121052"><ele>474.0</ele><time>2026-04-26T08:58:26.935Z</time></trkpt><trkpt lat="44.8678692" lon="9.5119961"><ele>474.0</ele><time>2026-04-26T08:58:27.933Z</time></trkpt><trkpt lat="44.8678003" lon="9.5118941"><ele>474.0</ele><time>2026-04-26T08:58:28.934Z</time></trkpt><trkpt lat="44.8677366" lon="9.5118016"><ele>474.0</ele><time>2026-04-26T08:58:29.936Z</time></trkpt><trkpt lat="44.8676756" lon="9.5117042"><ele>473.0</ele><time>2026-04-26T08:58:30.934Z</time></trkpt><trkpt lat="44.8676216" lon="9.5116041"><ele>472.0</ele><time>2026-04-26T08:58:31.935Z</time></trkpt><trkpt lat="44.8675773" lon="9.5115186"><ele>471.0</ele><time>2026-04-26T08:58:32.935Z</time></trkpt><trkpt lat="44.8675297" lon="9.5114517"><ele>470.0</ele><time>2026-04-26T08:58:33.934Z</time></trkpt><trkpt lat="44.8674699" lon="9.5114055"><ele>469.0</ele><time>2026-04-26T08:58:34.935Z</time></trkpt><trkpt lat="44.8674076" lon="9.5113903"><ele>468.0</ele><time>2026-04-26T08:58:35.934Z</time></trkpt><trkpt lat="44.8672971" lon="9.511439"><ele>465.2</ele><time>2026-04-26T08:58:37.934Z</time></trkpt><trkpt lat="44.8672461" lon="9.5114986"><ele>462.4</ele><time>2026-04-26T08:58:38.934Z</time></trkpt><trkpt lat="44.8671873" lon="9.5115913"><ele>459.59999999999997</ele><time>2026-04-26T08:58:39.94Z</time></trkpt><trkpt lat="44.8671214" lon="9.5117207"><ele>456.79999999999995</ele><time>2026-04-26T08:58:40.933Z</time></trkpt><trkpt lat="44.8670509" lon="9.5118596"><ele>454.0</ele><time>2026-04-26T08:58:41.935Z</time></trkpt><trkpt lat="44.866974" lon="9.511986"><ele>454.4</ele><time>2026-04-26T08:58:42.936Z</time></trkpt><trkpt lat="44.8668889" lon="9.5120883"><ele>454.79999999999995</ele><time>2026-04-26T08:58:43.935Z</time></trkpt><trkpt lat="44.866795" lon="9.5121602"><ele>455.20000000000005</ele><time>2026-04-26T08:58:44.939Z</time></trkpt><trkpt lat="44.8666965" lon="9.5122059"><ele>455.6</ele><time>2026-04-26T08:58:45.933Z</time></trkpt><trkpt lat="44.8665958" lon="9.5122336"><ele>456.0</ele><time>2026-04-26T08:58:46.935Z</time></trkpt><trkpt lat="44.8665007" lon="9.5122512"><ele>452.8</ele><time>2026-04-26T08:58:47.934Z</time></trkpt><trkpt lat="44.866415" lon="9.5122557"><ele>449.6</ele><time>2026-04-26T08:58:48.936Z</time></trkpt><trkpt lat="44.8663277" lon="9.5122376"><ele>446.4</ele><time>2026-04-26T08:58:49.935Z</time></trkpt><trkpt lat="44.8662317" lon="9.5122112"><ele>443.2</ele><time>2026-04-26T08:58:50.934Z</time></trkpt><trkpt lat="44.8661203" lon="9.512194"><ele>440.0</ele><time>2026-04-26T08:58:51.934Z</time></trkpt><trkpt lat="44.8660037" lon="9.5121931"><ele>436.75</ele><time>2026-04-26T08:58:52.936Z</time></trkpt><trkpt lat="44.8658878" lon="9.5122042"><ele>433.5</ele><time>2026-04-26T08:58:53.934Z</time></trkpt><trkpt lat="44.8657693" lon="9.5122211"><ele>430.25</ele><time>2026-04-26T08:58:54.934Z</time></trkpt><trkpt lat="44.8656479" lon="9.5122424"><ele>427.0</ele><time>2026-04-26T08:58:55.94Z</time></trkpt><trkpt lat="44.8655339" lon="9.5122629"><ele>427.00000000000006</ele><time>2026-04-26T08:58:56.934Z</time></trkpt><trkpt lat="44.8654293" lon="9.5122775"><ele>427.0</ele><time>2026-04-26T08:58:57.935Z</time></trkpt><trkpt lat="44.8653372" lon="9.5122859"><ele>427.0</ele><time>2026-04-26T08:58:58.934Z</time></trkpt><trkpt lat="44.8652594" lon="9.512282"><ele>427.0</ele><time>2026-04-26T08:58:59.933Z</time></trkpt><trkpt lat="44.8651883" lon="9.5122664"><ele>427.00000000000006</ele><time>2026-04-26T08:59:00.934Z</time></trkpt><trkpt lat="44.8651216" lon="9.5122282"><ele>427.0</ele><time>2026-04-26T08:59:01.935Z</time></trkpt><trkpt lat="44.8650591" lon="9.5121778"><ele>425.14285714285717</ele><time>2026-04-26T08:59:02.935Z</time></trkpt><trkpt lat="44.8649984" lon="9.5121181"><ele>423.2857142857143</ele><time>2026-04-26T08:59:03.935Z</time></trkpt><trkpt lat="44.8649379" lon="9.5120559"><ele>421.42857142857144</ele><time>2026-04-26T08:59:04.934Z</time></trkpt><trkpt lat="44.8648807" lon="9.5119925"><ele>419.57142857142856</ele><time>2026-04-26T08:59:05.934Z</time></trkpt><trkpt lat="44.8648252" lon="9.5119331"><ele>417.7142857142857</ele><time>2026-04-26T08:59:06.935Z</time></trkpt><trkpt lat="44.8647679" lon="9.5118843"><ele>415.8571428571429</ele><time>2026-04-26T08:59:07.936Z</time></trkpt><trkpt lat="44.8647015" lon="9.5118518"><ele>414.0</ele><time>2026-04-26T08:59:08.941Z</time></trkpt><trkpt lat="44.8646194" lon="9.5118381"><ele>413.79999999999995</ele><time>2026-04-26T08:59:09.936Z</time></trkpt><trkpt lat="44.8645234" lon="9.5118359"><ele>413.59999999999997</ele><time>2026-04-26T08:59:10.935Z</time></trkpt><trkpt lat="44.8644205" lon="9.5118351"><ele>413.4</ele><time>2026-04-26T08:59:11.936Z</time></trkpt><trkpt lat="44.8643181" lon="9.5118295"><ele>413.2</ele><time>2026-04-26T08:59:12.936Z</time></trkpt><trkpt lat="44.8642193" lon="9.5118219"><ele>413.0</ele><time>2026-04-26T08:59:13.935Z</time></trkpt><trkpt lat="44.8641196" lon="9.5118162"><ele>411.3333333333333</ele><time>2026-04-26T08:59:14.937Z</time></trkpt><trkpt lat="44.8640299" lon="9.5118056"><ele>409.66666666666663</ele><time>2026-04-26T08:59:15.935Z</time></trkpt><trkpt lat="44.8639438" lon="9.5117818"><ele>408.0</ele><time>2026-04-26T08:59:16.94Z</time></trkpt><trkpt lat="44.8638586" lon="9.5117328"><ele>406.33333333333337</ele><time>2026-04-26T08:59:17.934Z</time></trkpt><trkpt lat="44.8637808" lon="9.5116697"><ele>404.6666666666667</ele><time>2026-04-26T08:59:18.935Z</time></trkpt><trkpt lat="44.8637143" lon="9.5116075"><ele>403.0</ele><time>2026-04-26T08:59:19.934Z</time></trkpt><trkpt lat="44.8636491" lon="9.511561"><ele>403.0</ele><time>2026-04-26T08:59:20.936Z</time></trkpt><trkpt lat="44.8635873" lon="9.5115367"><ele>403.0</ele><time>2026-04-26T08:59:21.935Z</time></trkpt><trkpt lat="44.8634518" lon="9.5116015"><ele>403.0</ele><time>2026-04-26T08:59:23.935Z</time></trkpt><trkpt lat="44.8633678" lon="9.5116537"><ele>403.0</ele><time>2026-04-26T08:59:24.934Z</time></trkpt><trkpt lat="44.8632827" lon="9.5116867"><ele>403.0</ele><time>2026-04-26T08:59:25.936Z</time></trkpt><trkpt lat="44.8632009" lon="9.5116953"><ele>400.59999999999997</ele><time>2026-04-26T08:59:26.935Z</time></trkpt><trkpt lat="44.8631206" lon="9.5116808"><ele>398.2</ele><time>2026-04-26T08:59:27.938Z</time></trkpt><trkpt lat="44.8630317" lon="9.5116505"><ele>395.8</ele><time>2026-04-26T08:59:28.935Z</time></trkpt><trkpt lat="44.8629215" lon="9.5116081"><ele>393.4</ele><time>2026-04-26T08:59:29.935Z</time></trkpt><trkpt lat="44.8627984" lon="9.511569"><ele>391.0</ele><time>2026-04-26T08:59:30.934Z</time></trkpt><trkpt lat="44.8626713" lon="9.5115303"><ele>387.5</ele><time>2026-04-26T08:59:31.935Z</time></trkpt><trkpt lat="44.8625434" lon="9.5114866"><ele>384.0</ele><time>2026-04-26T08:59:32.935Z</time></trkpt><trkpt lat="44.8624214" lon="9.5114443"><ele>380.5</ele><time>2026-04-26T08:59:33.934Z</time></trkpt><trkpt lat="44.862303" lon="9.5114083"><ele>377.0</ele><time>2026-04-26T08:59:34.934Z</time></trkpt><trkpt lat="44.8621843" lon="9.51138"><ele>377.0</ele><time>2026-04-26T08:59:35.935Z</time></trkpt><trkpt lat="44.8620714" lon="9.5113603"><ele>377.0</ele><time>2026-04-26T08:59:36.934Z</time></trkpt><trkpt lat="44.8619615" lon="9.5113362"><ele>377.0</ele><time>2026-04-26T08:59:37.934Z</time></trkpt><trkpt lat="44.8618446" lon="9.5112997"><ele>377.0</ele><time>2026-04-26T08:59:38.942Z</time></trkpt><trkpt lat="44.8617145" lon="9.5112487"><ele>372.5</ele><time>2026-04-26T08:59:39.936Z</time></trkpt><trkpt lat="44.8615798" lon="9.5111886"><ele>368.0</ele><time>2026-04-26T08:59:40.935Z</time></trkpt><trkpt lat="44.8614319" lon="9.5111299"><ele>363.5</ele><time>2026-04-26T08:59:41.933Z</time></trkpt><trkpt lat="44.8612838" lon="9.5110704"><ele>359.0</ele><time>2026-04-26T08:59:42.937Z</time></trkpt><trkpt lat="44.8611353" lon="9.5110155"><ele>359.0</ele><time>2026-04-26T08:59:43.934Z</time></trkpt><trkpt lat="44.8609888" lon="9.5109715"><ele>359.0</ele><time>2026-04-26T08:59:44.934Z</time></trkpt><trkpt lat="44.8608423" lon="9.5109317"><ele>359.0</ele><time>2026-04-26T08:59:45.935Z</time></trkpt><trkpt lat="44.860693" lon="9.5108951"><ele>354.5</ele><time>2026-04-26T08:59:46.934Z</time></trkpt><trkpt lat="44.8605442" lon="9.5108602"><ele>350.0</ele><time>2026-04-26T08:59:47.939Z</time></trkpt><trkpt lat="44.860403" lon="9.5108329"><ele>345.5</ele><time>2026-04-26T08:59:48.936Z</time></trkpt><trkpt lat="44.8602659" lon="9.5108112"><ele>341.0</ele><time>2026-04-26T08:59:49.937Z</time></trkpt><trkpt lat="44.8601324" lon="9.5107941"><ele>337.5</ele><time>2026-04-26T08:59:50.937Z</time></trkpt><trkpt lat="44.8600013" lon="9.5107798"><ele>334.0</ele><time>2026-04-26T08:59:51.936Z</time></trkpt><trkpt lat="44.8598715" lon="9.5107668"><ele>330.5</ele><time>2026-04-26T08:59:52.936Z</time></trkpt><trkpt lat="44.859743" lon="9.5107594"><ele>327.0</ele><time>2026-04-26T08:59:53.937Z</time></trkpt><trkpt lat="44.8596135" lon="9.5107538"><ele>327.0</ele><time>2026-04-26T08:59:54.935Z</time></trkpt><trkpt lat="44.8594848" lon="9.5107471"><ele>327.0</ele><time>2026-04-26T08:59:55.937Z</time></trkpt><trkpt lat="44.859361" lon="9.5107385"><ele>327.0</ele><time>2026-04-26T08:59:56.934Z</time></trkpt><trkpt lat="44.8592465" lon="9.5107322"><ele>327.0</ele><time>2026-04-26T08:59:57.938Z</time></trkpt><trkpt lat="44.8591411" lon="9.5107259"><ele>324.20000000000005</ele><time>2026-04-26T08:59:58.936Z</time></trkpt><trkpt lat="44.8590429" lon="9.5107084"><ele>321.40000000000003</ele><time>2026-04-26T08:59:59.935Z</time></trkpt><trkpt lat="44.8589438" lon="9.5106784"><ele>318.6</ele><time>2026-04-26T09:00:00.935Z</time></trkpt><trkpt lat="44.8588501" lon="9.5106373"><ele>315.8</ele><time>2026-04-26T09:00:01.934Z</time></trkpt><trkpt lat="44.8587673" lon="9.5105896"><ele>313.0</ele><time>2026-04-26T09:00:02.934Z</time></trkpt><trkpt lat="44.8586942" lon="9.5105535"><ele>313.0</ele><time>2026-04-26T09:00:03.94Z</time></trkpt><trkpt lat="44.8585963" lon="9.5105219"><ele>313.0</ele><time>2026-04-26T09:00:05.935Z</time></trkpt><trkpt lat="44.8585462" lon="9.5104396"><ele>313.0</ele><time>2026-04-26T09:00:08.942Z</time></trkpt><trkpt lat="44.8585729" lon="9.5103353"><ele>313.0</ele><time>2026-04-26T09:00:10.934Z</time></trkpt><trkpt lat="44.8586915" lon="9.51022"><ele>313.0</ele><time>2026-04-26T09:00:12.936Z</time></trkpt><trkpt lat="44.8587914" lon="9.5101442"><ele>311.75</ele><time>2026-04-26T09:00:13.934Z</time></trkpt><trkpt lat="44.858892" lon="9.5100485"><ele>310.5</ele><time>2026-04-26T09:00:14.934Z</time></trkpt><trkpt lat="44.858963" lon="9.509921"><ele>309.25</ele><time>2026-04-26T09:00:15.934Z</time></trkpt><trkpt lat="44.8590009" lon="9.509763"><ele>308.0</ele><time>2026-04-26T09:00:16.937Z</time></trkpt><trkpt lat="44.859013" lon="9.5095892"><ele>308.2</ele><time>2026-04-26T09:00:17.935Z</time></trkpt><trkpt lat="44.8590142" lon="9.5094199"><ele>308.4</ele><time>2026-04-26T09:00:18.936Z</time></trkpt><trkpt lat="44.8590119" lon="9.5092632"><ele>308.59999999999997</ele><time>2026-04-26T09:00:19.938Z</time></trkpt><trkpt lat="44.8590195" lon="9.509119"><ele>308.8</ele><time>2026-04-26T09:00:20.938Z</time></trkpt><trkpt lat="44.8590433" lon="9.5089862"><ele>309.0</ele><time>2026-04-26T09:00:21.937Z</time></trkpt><trkpt lat="44.8590858" lon="9.5088612"><ele>308.2</ele><time>2026-04-26T09:00:22.935Z</time></trkpt><trkpt lat="44.8591418" lon="9.5087398"><ele>307.4</ele><time>2026-04-26T09:00:23.936Z</time></trkpt><trkpt lat="44.8592163" lon="9.5086242"><ele>306.6</ele><time>2026-04-26T09:00:24.934Z</time></trkpt><trkpt lat="44.8593048" lon="9.5085123"><ele>305.8</ele><time>2026-04-26T09:00:25.935Z</time></trkpt><trkpt lat="44.8593913" lon="9.5084012"><ele>305.0</ele><time>2026-04-26T09:00:26.94Z</time></trkpt><trkpt lat="44.8594706" lon="9.5082937"><ele>307.5</ele><time>2026-04-26T09:00:27.935Z</time></trkpt><trkpt lat="44.859556" lon="9.5082019"><ele>310.0</ele><time>2026-04-26T09:00:28.938Z</time></trkpt><trkpt lat="44.8596529" lon="9.5081333"><ele>312.5</ele><time>2026-04-26T09:00:29.936Z</time></trkpt><trkpt lat="44.859767" lon="9.5080949"><ele>315.0</ele><time>2026-04-26T09:00:30.936Z</time></trkpt><trkpt lat="44.8598913" lon="9.5080783"><ele>315.0</ele><time>2026-04-26T09:00:31.936Z</time></trkpt><trkpt lat="44.8600176" lon="9.5080515"><ele>315.0</ele><time>2026-04-26T09:00:32.937Z</time></trkpt><trkpt lat="44.8601326" lon="9.5079924"><ele>315.0</ele><time>2026-04-26T09:00:33.936Z</time></trkpt><trkpt lat="44.8602304" lon="9.5078972"><ele>315.0</ele><time>2026-04-26T09:00:34.935Z</time></trkpt><trkpt lat="44.8603186" lon="9.5078051"><ele>316.2</ele><time>2026-04-26T09:00:35.939Z</time></trkpt><trkpt lat="44.8604125" lon="9.5077403"><ele>317.4</ele><time>2026-04-26T09:00:36.935Z</time></trkpt><trkpt lat="44.8605141" lon="9.5076965"><ele>318.6</ele><time>2026-04-26T09:00:37.939Z</time></trkpt><trkpt lat="44.8606173" lon="9.507644"><ele>319.8</ele><time>2026-04-26T09:00:38.936Z</time></trkpt><trkpt lat="44.8607162" lon="9.5075624"><ele>321.0</ele><time>2026-04-26T09:00:39.935Z</time></trkpt><trkpt lat="44.8608072" lon="9.5074371"><ele>321.0</ele><time>2026-04-26T09:00:40.937Z</time></trkpt><trkpt lat="44.8608898" lon="9.5072923"><ele>321.0</ele><time>2026-04-26T09:00:41.936Z</time></trkpt><trkpt lat="44.8609685" lon="9.507155"><ele>321.0</ele><time>2026-04-26T09:00:42.935Z</time></trkpt><trkpt lat="44.8610434" lon="9.5070369"><ele>321.0</ele><time>2026-04-26T09:00:43.935Z</time></trkpt><trkpt lat="44.8611205" lon="9.5069427"><ele>321.0</ele><time>2026-04-26T09:00:44.935Z</time></trkpt><trkpt lat="44.861212" lon="9.506884"><ele>321.0</ele><time>2026-04-26T09:00:45.94Z</time></trkpt><trkpt lat="44.8613152" lon="9.5068669"><ele>321.0</ele><time>2026-04-26T09:00:46.935Z</time></trkpt><trkpt lat="44.8614306" lon="9.5068877"><ele>321.0</ele><time>2026-04-26T09:00:47.936Z</time></trkpt><trkpt lat="44.8615582" lon="9.5069224"><ele>321.0</ele><time>2026-04-26T09:00:48.937Z</time></trkpt><trkpt lat="44.8616954" lon="9.5069642"><ele>321.0</ele><time>2026-04-26T09:00:49.935Z</time></trkpt><trkpt lat="44.8618294" lon="9.5070055"><ele>321.0</ele><time>2026-04-26T09:00:50.935Z</time></trkpt><trkpt lat="44.8619526" lon="9.5070482"><ele>321.0</ele><time>2026-04-26T09:00:51.935Z</time></trkpt><trkpt lat="44.862072" lon="9.5070872"><ele>323.25</ele><time>2026-04-26T09:00:52.94Z</time></trkpt><trkpt lat="44.8621865" lon="9.5070853"><ele>325.5</ele><time>2026-04-26T09:00:53.935Z</time></trkpt><trkpt lat="44.8623064" lon="9.5070117"><ele>327.75</ele><time>2026-04-26T09:00:54.934Z</time></trkpt><trkpt lat="44.8624185" lon="9.5069226"><ele>330.0</ele><time>2026-04-26T09:00:55.934Z</time></trkpt><trkpt lat="44.8625117" lon="9.5068064"><ele>330.0</ele><time>2026-04-26T09:00:56.937Z</time></trkpt><trkpt lat="44.86258" lon="9.506657"><ele>330.0</ele><time>2026-04-26T09:00:57.939Z</time></trkpt><trkpt lat="44.8626322" lon="9.5064793"><ele>330.0</ele><time>2026-04-26T09:00:58.936Z</time></trkpt><trkpt lat="44.8626728" lon="9.5062802"><ele>330.0</ele><time>2026-04-26T09:00:59.935Z</time></trkpt><trkpt lat="44.8626955" lon="9.5060837"><ele>332.0</ele><time>2026-04-26T09:01:00.937Z</time></trkpt><trkpt lat="44.8627015" lon="9.5059075"><ele>334.0</ele><time>2026-04-26T09:01:01.935Z</time></trkpt><trkpt lat="44.862711" lon="9.5057566"><ele>336.0</ele><time>2026-04-26T09:01:02.939Z</time></trkpt><trkpt lat="44.86274" lon="9.5056325"><ele>338.0</ele><time>2026-04-26T09:01:03.936Z</time></trkpt><trkpt lat="44.862795" lon="9.5055325"><ele>340.0</ele><time>2026-04-26T09:01:04.936Z</time></trkpt><trkpt lat="44.8628725" lon="9.5054552"><ele>338.6</ele><time>2026-04-26T09:01:05.935Z</time></trkpt><trkpt lat="44.8629671" lon="9.5054049"><ele>337.2</ele><time>2026-04-26T09:01:06.934Z</time></trkpt><trkpt lat="44.8630703" lon="9.5053679"><ele>335.79999999999995</ele><time>2026-04-26T09:01:07.942Z</time></trkpt><trkpt lat="44.8631768" lon="9.5053417"><ele>334.4</ele><time>2026-04-26T09:01:08.937Z</time></trkpt><trkpt lat="44.8632926" lon="9.5053316"><ele>333.0</ele><time>2026-04-26T09:01:09.934Z</time></trkpt><trkpt lat="44.8634154" lon="9.5053348"><ele>333.5</ele><time>2026-04-26T09:01:10.935Z</time></trkpt><trkpt lat="44.863552" lon="9.5053508"><ele>334.0</ele><time>2026-04-26T09:01:11.934Z</time></trkpt><trkpt lat="44.8637018" lon="9.5053543"><ele>334.5</ele><time>2026-04-26T09:01:12.937Z</time></trkpt><trkpt lat="44.8638533" lon="9.5053283"><ele>335.0</ele><time>2026-04-26T09:01:13.934Z</time></trkpt><trkpt lat="44.8640017" lon="9.5053183"><ele>335.0</ele><time>2026-04-26T09:01:14.935Z</time></trkpt><trkpt lat="44.8641383" lon="9.505315"><ele>335.0</ele><time>2026-04-26T09:01:15.934Z</time></trkpt><trkpt lat="44.8642633" lon="9.5053167"><ele>335.0</ele><time>2026-04-26T09:01:16.936Z</time></trkpt><trkpt lat="44.8643667" lon="9.50529"><ele>335.0</ele><time>2026-04-26T09:01:17.936Z</time></trkpt><trkpt lat="44.86446" lon="9.50521"><ele>337.8</ele><time>2026-04-26T09:01:18.937Z</time></trkpt><trkpt lat="44.8645367" lon="9.5050817"><ele>340.6</ele><time>2026-04-26T09:01:19.937Z</time></trkpt><trkpt lat="44.8645967" lon="9.50494"><ele>343.4</ele><time>2026-04-26T09:01:20.939Z</time></trkpt><trkpt lat="44.8646283" lon="9.5048067"><ele>346.2</ele><time>2026-04-26T09:01:21.935Z</time></trkpt><trkpt lat="44.8646183" lon="9.504685"><ele>349.0</ele><time>2026-04-26T09:01:22.936Z</time></trkpt><trkpt lat="44.8645833" lon="9.504585"><ele>349.5</ele><time>2026-04-26T09:01:23.935Z</time></trkpt><trkpt lat="44.864495" lon="9.504505"><ele>350.0</ele><time>2026-04-26T09:01:24.934Z</time></trkpt><trkpt lat="44.864385" lon="9.5044133"><ele>350.5</ele><time>2026-04-26T09:01:25.934Z</time></trkpt><trkpt lat="44.8642667" lon="9.5043017"><ele>351.0</ele><time>2026-04-26T09:01:26.934Z</time></trkpt><trkpt lat="44.864165" lon="9.5041617"><ele>348.75</ele><time>2026-04-26T09:01:27.933Z</time></trkpt><trkpt lat="44.8640917" lon="9.5039933"><ele>346.5</ele><time>2026-04-26T09:01:28.934Z</time></trkpt><trkpt lat="44.8640467" lon="9.5038167"><ele>344.25</ele><time>2026-04-26T09:01:29.934Z</time></trkpt><trkpt lat="44.8640283" lon="9.5036483"><ele>342.0</ele><time>2026-04-26T09:01:30.934Z</time></trkpt><trkpt lat="44.8640433" lon="9.503495"><ele>342.0</ele><time>2026-04-26T09:01:31.934Z</time></trkpt><trkpt lat="44.864085" lon="9.5033617"><ele>342.0</ele><time>2026-04-26T09:01:32.933Z</time></trkpt><trkpt lat="44.8641467" lon="9.5032567"><ele>342.0</ele><time>2026-04-26T09:01:33.933Z</time></trkpt><trkpt lat="44.8642217" lon="9.5031667"><ele>342.0</ele><time>2026-04-26T09:01:34.933Z</time></trkpt><trkpt lat="44.8642883" lon="9.5030667"><ele>342.0</ele><time>2026-04-26T09:01:35.934Z</time></trkpt><trkpt lat="44.8643417" lon="9.50295"><ele>345.20000000000005</ele><time>2026-04-26T09:01:36.934Z</time></trkpt><trkpt lat="44.864385" lon="9.5028267"><ele>348.4</ele><time>2026-04-26T09:01:37.935Z</time></trkpt><trkpt lat="44.86442" lon="9.5026967"><ele>351.6</ele><time>2026-04-26T09:01:38.94Z</time></trkpt><trkpt lat="44.8644567" lon="9.5025633"><ele>354.79999999999995</ele><time>2026-04-26T09:01:39.934Z</time></trkpt><trkpt lat="44.8644783" lon="9.502435"><ele>358.0</ele><time>2026-04-26T09:01:40.933Z</time></trkpt><trkpt lat="44.86449" lon="9.5023033"><ele>358.0</ele><time>2026-04-26T09:01:41.934Z</time></trkpt><trkpt lat="44.8644833" lon="9.5021717"><ele>358.0</ele><time>2026-04-26T09:01:42.933Z</time></trkpt><trkpt lat="44.864475" lon="9.5020267"><ele>358.0</ele><time>2026-04-26T09:01:43.934Z</time></trkpt><trkpt lat="44.8644683" lon="9.50188"><ele>358.0</ele><time>2026-04-26T09:01:44.934Z</time></trkpt><trkpt lat="44.8644783" lon="9.5017217"><ele>358.0</ele><time>2026-04-26T09:01:45.934Z</time></trkpt><trkpt lat="44.8645033" lon="9.501575"><ele>357.0</ele><time>2026-04-26T09:01:46.941Z</time></trkpt><trkpt lat="44.8645483" lon="9.5014433"><ele>356.0</ele><time>2026-04-26T09:01:47.934Z</time></trkpt><trkpt lat="44.8646133" lon="9.5013317"><ele>355.0</ele><time>2026-04-26T09:01:48.934Z</time></trkpt><trkpt lat="44.8647083" lon="9.5012383"><ele>354.0</ele><time>2026-04-26T09:01:49.934Z</time></trkpt><trkpt lat="44.864825" lon="9.50116"><ele>352.6666666666667</ele><time>2026-04-26T09:01:50.938Z</time></trkpt><trkpt lat="44.864965" lon="9.5010933"><ele>351.33333333333337</ele><time>2026-04-26T09:01:51.939Z</time></trkpt><trkpt lat="44.8651133" lon="9.5010217"><ele>350.0</ele><time>2026-04-26T09:01:52.933Z</time></trkpt><trkpt lat="44.8652567" lon="9.5009183"><ele>353.0</ele><time>2026-04-26T09:01:53.933Z</time></trkpt><trkpt lat="44.8653817" lon="9.5007967"><ele>356.0</ele><time>2026-04-26T09:01:54.935Z</time></trkpt><trkpt lat="44.8654967" lon="9.5006783"><ele>359.0</ele><time>2026-04-26T09:01:55.934Z</time></trkpt><trkpt lat="44.8656117" lon="9.5005767"><ele>362.0</ele><time>2026-04-26T09:01:56.935Z</time></trkpt><trkpt lat="44.8657333" lon="9.5004933"><ele>362.0</ele><time>2026-04-26T09:01:57.934Z</time></trkpt><trkpt lat="44.8658483" lon="9.5004217"><ele>362.0</ele><time>2026-04-26T09:01:58.938Z</time></trkpt><trkpt lat="44.865945" lon="9.50034"><ele>362.0</ele><time>2026-04-26T09:01:59.934Z</time></trkpt><trkpt lat="44.8660083" lon="9.5002233"><ele>362.0</ele><time>2026-04-26T09:02:00.939Z</time></trkpt><trkpt lat="44.866025" lon="9.50008"><ele>362.0</ele><time>2026-04-26T09:02:01.935Z</time></trkpt><trkpt lat="44.86601" lon="9.4999267"><ele>362.25</ele><time>2026-04-26T09:02:02.935Z</time></trkpt><trkpt lat="44.8659467" lon="9.499785"><ele>362.5</ele><time>2026-04-26T09:02:03.935Z</time></trkpt><trkpt lat="44.8658817" lon="9.4996417"><ele>362.75</ele><time>2026-04-26T09:02:04.935Z</time></trkpt><trkpt lat="44.8658367" lon="9.4994783"><ele>363.0</ele><time>2026-04-26T09:02:05.938Z</time></trkpt><trkpt lat="44.8658" lon="9.4993117"><ele>363.0</ele><time>2026-04-26T09:02:06.938Z</time></trkpt><trkpt lat="44.86578" lon="9.4991433"><ele>363.0</ele><time>2026-04-26T09:02:07.936Z</time></trkpt><trkpt lat="44.865775" lon="9.4989783"><ele>363.0</ele><time>2026-04-26T09:02:08.935Z</time></trkpt><trkpt lat="44.8657817" lon="9.4988083"><ele>363.0</ele><time>2026-04-26T09:02:09.935Z</time></trkpt><trkpt lat="44.8657933" lon="9.4986467"><ele>363.79999999999995</ele><time>2026-04-26T09:02:10.934Z</time></trkpt><trkpt lat="44.865805" lon="9.4984967"><ele>364.6</ele><time>2026-04-26T09:02:11.936Z</time></trkpt><trkpt lat="44.8658217" lon="9.498355"><ele>365.4</ele><time>2026-04-26T09:02:12.934Z</time></trkpt><trkpt lat="44.8658467" lon="9.4982233"><ele>366.20000000000005</ele><time>2026-04-26T09:02:13.935Z</time></trkpt><trkpt lat="44.8658967" lon="9.4981"><ele>367.0</ele><time>2026-04-26T09:02:14.933Z</time></trkpt><trkpt lat="44.8659767" lon="9.4979867"><ele>369.0</ele><time>2026-04-26T09:02:15.934Z</time></trkpt><trkpt lat="44.86607" lon="9.49788"><ele>371.0</ele><time>2026-04-26T09:02:16.933Z</time></trkpt><trkpt lat="44.8661633" lon="9.4977733"><ele>373.0</ele><time>2026-04-26T09:02:17.933Z</time></trkpt><trkpt lat="44.866255" lon="9.4976517"><ele>375.0</ele><time>2026-04-26T09:02:18.933Z</time></trkpt><trkpt lat="44.8663467" lon="9.497525"><ele>375.0</ele><time>2026-04-26T09:02:19.935Z</time></trkpt><trkpt lat="44.866445" lon="9.4974117"><ele>375.0</ele><time>2026-04-26T09:02:20.935Z</time></trkpt><trkpt lat="44.8665567" lon="9.4973233"><ele>375.0</ele><time>2026-04-26T09:02:21.933Z</time></trkpt><trkpt lat="44.8666783" lon="9.49726"><ele>375.0</ele><time>2026-04-26T09:02:22.935Z</time></trkpt><trkpt lat="44.8668033" lon="9.4972183"><ele>376.5</ele><time>2026-04-26T09:02:23.934Z</time></trkpt><trkpt lat="44.8669317" lon="9.4971833"><ele>378.0</ele><time>2026-04-26T09:02:24.934Z</time></trkpt><trkpt lat="44.8670617" lon="9.497145"><ele>379.5</ele><time>2026-04-26T09:02:25.933Z</time></trkpt><trkpt lat="44.867195" lon="9.4971017"><ele>381.0</ele><time>2026-04-26T09:02:26.934Z</time></trkpt><trkpt lat="44.867325" lon="9.4970483"><ele>381.0</ele><time>2026-04-26T09:02:27.935Z</time></trkpt><trkpt lat="44.867445" lon="9.49697"><ele>381.0</ele><time>2026-04-26T09:02:28.933Z</time></trkpt><trkpt lat="44.867565" lon="9.4968767"><ele>381.0</ele><time>2026-04-26T09:02:29.934Z</time></trkpt><trkpt lat="44.8676833" lon="9.4967733"><ele>381.0</ele><time>2026-04-26T09:02:30.94Z</time></trkpt><trkpt lat="44.8677983" lon="9.4966617"><ele>382.75</ele><time>2026-04-26T09:02:31.935Z</time></trkpt><trkpt lat="44.86791" lon="9.496555"><ele>384.5</ele><time>2026-04-26T09:02:32.934Z</time></trkpt><trkpt lat="44.8680267" lon="9.4964717"><ele>386.25</ele><time>2026-04-26T09:02:33.934Z</time></trkpt><trkpt lat="44.8681483" lon="9.496415"><ele>388.0</ele><time>2026-04-26T09:02:34.934Z</time></trkpt><trkpt lat="44.86826" lon="9.496355"><ele>388.0</ele><time>2026-04-26T09:02:35.935Z</time></trkpt><trkpt lat="44.8683533" lon="9.4962583"><ele>388.0</ele><time>2026-04-26T09:02:36.936Z</time></trkpt><trkpt lat="44.8684283" lon="9.49612"><ele>388.0</ele><time>2026-04-26T09:02:37.934Z</time></trkpt><trkpt lat="44.8684917" lon="9.4959683"><ele>388.0</ele><time>2026-04-26T09:02:38.942Z</time></trkpt><trkpt lat="44.86854" lon="9.4958233"><ele>387.79999999999995</ele><time>2026-04-26T09:02:39.935Z</time></trkpt><trkpt lat="44.868585" lon="9.4956833"><ele>387.6</ele><time>2026-04-26T09:02:40.935Z</time></trkpt><trkpt lat="44.8686433" lon="9.4955617"><ele>387.4</ele><time>2026-04-26T09:02:41.934Z</time></trkpt><trkpt lat="44.8687217" lon="9.4954583"><ele>387.20000000000005</ele><time>2026-04-26T09:02:42.933Z</time></trkpt><trkpt lat="44.86882" lon="9.495375"><ele>387.0</ele><time>2026-04-26T09:02:43.933Z</time></trkpt><trkpt lat="44.8689317" lon="9.4953317"><ele>387.0</ele><time>2026-04-26T09:02:44.935Z</time></trkpt><trkpt lat="44.8690483" lon="9.4953067"><ele>387.0</ele><time>2026-04-26T09:02:45.934Z</time></trkpt><trkpt lat="44.8691617" lon="9.495285"><ele>387.0</ele><time>2026-04-26T09:02:46.933Z</time></trkpt><trkpt lat="44.86927" lon="9.4952383"><ele>387.0</ele><time>2026-04-26T09:02:47.934Z</time></trkpt><trkpt lat="44.8693567" lon="9.495135"><ele>387.0</ele><time>2026-04-26T09:02:48.934Z</time></trkpt><trkpt lat="44.8694033" lon="9.495"><ele>387.0</ele><time>2026-04-26T09:02:49.934Z</time></trkpt><trkpt lat="44.8694083" lon="9.494865"><ele>387.0</ele><time>2026-04-26T09:02:50.934Z</time></trkpt><trkpt lat="44.8693867" lon="9.4947383"><ele>387.0</ele><time>2026-04-26T09:02:51.935Z</time></trkpt><trkpt lat="44.8693183" lon="9.4946417"><ele>387.0</ele><time>2026-04-26T09:02:52.934Z</time></trkpt><trkpt lat="44.86924" lon="9.4945567"><ele>387.0</ele><time>2026-04-26T09:02:53.938Z</time></trkpt><trkpt lat="44.86917" lon="9.4944433"><ele>387.0</ele><time>2026-04-26T09:02:54.933Z</time></trkpt><trkpt lat="44.8691267" lon="9.4943033"><ele>387.0</ele><time>2026-04-26T09:02:55.933Z</time></trkpt><trkpt lat="44.8691283" lon="9.49414"><ele>387.0</ele><time>2026-04-26T09:02:56.934Z</time></trkpt><trkpt lat="44.86913" lon="9.4939683"><ele>387.0</ele><time>2026-04-26T09:02:57.935Z</time></trkpt><trkpt lat="44.8691017" lon="9.4938067"><ele>387.0</ele><time>2026-04-26T09:02:58.934Z</time></trkpt><trkpt lat="44.8690517" lon="9.49367"><ele>387.0</ele><time>2026-04-26T09:02:59.933Z</time></trkpt><trkpt lat="44.86901" lon="9.493545"><ele>387.0</ele><time>2026-04-26T09:03:00.938Z</time></trkpt><trkpt lat="44.8689933" lon="9.49342"><ele>387.0</ele><time>2026-04-26T09:03:01.934Z</time></trkpt><trkpt lat="44.869" lon="9.4932933"><ele>388.40000000000003</ele><time>2026-04-26T09:03:02.935Z</time></trkpt><trkpt lat="44.8690283" lon="9.49316"><ele>389.8</ele><time>2026-04-26T09:03:03.935Z</time></trkpt><trkpt lat="44.8690567" lon="9.4930133"><ele>391.2</ele><time>2026-04-26T09:03:04.935Z</time></trkpt><trkpt lat="44.8690667" lon="9.4928533"><ele>392.6</ele><time>2026-04-26T09:03:05.934Z</time></trkpt><trkpt lat="44.8690633" lon="9.49269"><ele>394.0</ele><time>2026-04-26T09:03:06.934Z</time></trkpt><trkpt lat="44.8690683" lon="9.4925233"><ele>395.25</ele><time>2026-04-26T09:03:07.938Z</time></trkpt><trkpt lat="44.8690833" lon="9.49236"><ele>396.5</ele><time>2026-04-26T09:03:08.934Z</time></trkpt><trkpt lat="44.8691167" lon="9.4922017"><ele>397.75</ele><time>2026-04-26T09:03:09.934Z</time></trkpt><trkpt lat="44.86916" lon="9.4920467"><ele>399.0</ele><time>2026-04-26T09:03:10.934Z</time></trkpt><trkpt lat="44.8692017" lon="9.4918933"><ele>400.25</ele><time>2026-04-26T09:03:11.934Z</time></trkpt><trkpt lat="44.8692333" lon="9.4917367"><ele>401.5</ele><time>2026-04-26T09:03:12.934Z</time></trkpt><trkpt lat="44.8692533" lon="9.4915767"><ele>402.75</ele><time>2026-04-26T09:03:13.933Z</time></trkpt><trkpt lat="44.8692583" lon="9.4914117"><ele>404.0</ele><time>2026-04-26T09:03:14.941Z</time></trkpt><trkpt lat="44.8692567" lon="9.49124"><ele>405.0</ele><time>2026-04-26T09:03:15.933Z</time></trkpt><trkpt lat="44.86925" lon="9.4910667"><ele>406.0</ele><time>2026-04-26T09:03:16.933Z</time></trkpt><trkpt lat="44.8692417" lon="9.4908967"><ele>407.0</ele><time>2026-04-26T09:03:17.933Z</time></trkpt><trkpt lat="44.8692217" lon="9.4907367"><ele>408.0</ele><time>2026-04-26T09:03:18.936Z</time></trkpt><trkpt lat="44.8691683" lon="9.4905967"><ele>408.0</ele><time>2026-04-26T09:03:19.935Z</time></trkpt><trkpt lat="44.8690883" lon="9.4904767"><ele>408.0</ele><time>2026-04-26T09:03:20.935Z</time></trkpt><trkpt lat="44.8689917" lon="9.49037"><ele>408.0</ele><time>2026-04-26T09:03:21.937Z</time></trkpt><trkpt lat="44.8688917" lon="9.4902667"><ele>408.0</ele><time>2026-04-26T09:03:22.935Z</time></trkpt><trkpt lat="44.8687967" lon="9.4901717"><ele>409.1666666666667</ele><time>2026-04-26T09:03:23.936Z</time></trkpt><trkpt lat="44.86871" lon="9.4900833"><ele>410.33333333333337</ele><time>2026-04-26T09:03:24.935Z</time></trkpt><trkpt lat="44.868635" lon="9.490005"><ele>411.5</ele><time>2026-04-26T09:03:25.935Z</time></trkpt><trkpt lat="44.86857" lon="9.48994"><ele>412.6666666666667</ele><time>2026-04-26T09:03:26.941Z</time></trkpt><trkpt lat="44.8685233" lon="9.4898533"><ele>413.83333333333337</ele><time>2026-04-26T09:03:27.936Z</time></trkpt><trkpt lat="44.8684933" lon="9.4897467"><ele>415.0</ele><time>2026-04-26T09:03:28.935Z</time></trkpt><trkpt lat="44.86847" lon="9.4896167"><ele>415.25</ele><time>2026-04-26T09:03:29.936Z</time></trkpt><trkpt lat="44.8684517" lon="9.4894683"><ele>415.5</ele><time>2026-04-26T09:03:30.936Z</time></trkpt><trkpt lat="44.8684333" lon="9.4893117"><ele>415.75</ele><time>2026-04-26T09:03:31.94Z</time></trkpt><trkpt lat="44.8684217" lon="9.4891467"><ele>416.0</ele><time>2026-04-26T09:03:32.936Z</time></trkpt><trkpt lat="44.868415" lon="9.48897"><ele>416.0</ele><time>2026-04-26T09:03:33.935Z</time></trkpt><trkpt lat="44.8684067" lon="9.4887833"><ele>416.0</ele><time>2026-04-26T09:03:34.936Z</time></trkpt><trkpt lat="44.868405" lon="9.4885883"><ele>416.0</ele><time>2026-04-26T09:03:35.935Z</time></trkpt><trkpt lat="44.8684183" lon="9.4883833"><ele>416.0</ele><time>2026-04-26T09:03:36.935Z</time></trkpt><trkpt lat="44.8684483" lon="9.4881633"><ele>418.66666666666663</ele><time>2026-04-26T09:03:37.936Z</time></trkpt><trkpt lat="44.8684817" lon="9.48795"><ele>421.33333333333337</ele><time>2026-04-26T09:03:38.941Z</time></trkpt><trkpt lat="44.86852" lon="9.4877267"><ele>424.0</ele><time>2026-04-26T09:03:39.935Z</time></trkpt><trkpt lat="44.86856" lon="9.487515"><ele>425.0</ele><time>2026-04-26T09:03:40.934Z</time></trkpt><trkpt lat="44.8685983" lon="9.487325"><ele>426.0</ele><time>2026-04-26T09:03:41.935Z</time></trkpt><trkpt lat="44.8686433" lon="9.4871533"><ele>427.0</ele><time>2026-04-26T09:03:42.934Z</time></trkpt><trkpt lat="44.8687167" lon="9.487"><ele>428.0</ele><time>2026-04-26T09:03:43.939Z</time></trkpt><trkpt lat="44.8688117" lon="9.486875"><ele>429.0</ele><time>2026-04-26T09:03:44.934Z</time></trkpt><trkpt lat="44.868915" lon="9.486765"><ele>430.0</ele><time>2026-04-26T09:03:45.935Z</time></trkpt><trkpt lat="44.8690083" lon="9.4866383"><ele>431.0</ele><time>2026-04-26T09:03:46.935Z</time></trkpt><trkpt lat="44.8690817" lon="9.4864867"><ele>432.0</ele><time>2026-04-26T09:03:47.934Z</time></trkpt><trkpt lat="44.8691467" lon="9.4863233"><ele>432.0</ele><time>2026-04-26T09:03:48.936Z</time></trkpt><trkpt lat="44.8692167" lon="9.4861767"><ele>432.00000000000006</ele><time>2026-04-26T09:03:49.941Z</time></trkpt><trkpt lat="44.8692917" lon="9.486055"><ele>432.00000000000006</ele><time>2026-04-26T09:03:50.936Z</time></trkpt><trkpt lat="44.8693667" lon="9.48595"><ele>432.0</ele><time>2026-04-26T09:03:51.934Z</time></trkpt><trkpt lat="44.8694233" lon="9.485845"><ele>432.0</ele><time>2026-04-26T09:03:52.933Z</time></trkpt><trkpt lat="44.8694633" lon="9.48573"><ele>434.40000000000003</ele><time>2026-04-26T09:03:53.936Z</time></trkpt><trkpt lat="44.8694633" lon="9.4856"><ele>436.80000000000007</ele><time>2026-04-26T09:03:54.935Z</time></trkpt><trkpt lat="44.8694533" lon="9.4854517"><ele>439.2</ele><time>2026-04-26T09:03:55.935Z</time></trkpt><trkpt lat="44.869445" lon="9.4852917"><ele>441.6</ele><time>2026-04-26T09:03:56.935Z</time></trkpt><trkpt lat="44.8694517" lon="9.4851317"><ele>444.0</ele><time>2026-04-26T09:03:57.934Z</time></trkpt><trkpt lat="44.8694583" lon="9.4849883"><ele>444.0</ele><time>2026-04-26T09:03:58.938Z</time></trkpt><trkpt lat="44.8694467" lon="9.484865"><ele>444.0</ele><time>2026-04-26T09:03:59.934Z</time></trkpt><trkpt lat="44.8694117" lon="9.4847617"><ele>444.0</ele><time>2026-04-26T09:04:00.935Z</time></trkpt><trkpt lat="44.8693433" lon="9.4846733"><ele>444.0</ele><time>2026-04-26T09:04:01.935Z</time></trkpt><trkpt lat="44.86924" lon="9.4845917"><ele>444.0</ele><time>2026-04-26T09:04:02.937Z</time></trkpt><trkpt lat="44.8691283" lon="9.4844867"><ele>441.75</ele><time>2026-04-26T09:04:03.935Z</time></trkpt><trkpt lat="44.86902" lon="9.484355"><ele>439.5</ele><time>2026-04-26T09:04:04.934Z</time></trkpt><trkpt lat="44.8689067" lon="9.48422"><ele>437.25</ele><time>2026-04-26T09:04:05.937Z</time></trkpt><trkpt lat="44.8687917" lon="9.4840867"><ele>435.0</ele><time>2026-04-26T09:04:06.936Z</time></trkpt><trkpt lat="44.8686717" lon="9.4839467"><ele>435.0</ele><time>2026-04-26T09:04:07.941Z</time></trkpt><trkpt lat="44.868555" lon="9.4838"><ele>435.0</ele><time>2026-04-26T09:04:08.935Z</time></trkpt><trkpt lat="44.86845" lon="9.4836483"><ele>435.0</ele><time>2026-04-26T09:04:09.933Z</time></trkpt><trkpt lat="44.8683583" lon="9.4834817"><ele>433.0</ele><time>2026-04-26T09:04:10.933Z</time></trkpt><trkpt lat="44.868275" lon="9.4833017"><ele>431.0</ele><time>2026-04-26T09:04:11.933Z</time></trkpt><trkpt lat="44.8681883" lon="9.483125"><ele>429.0</ele><time>2026-04-26T09:04:12.933Z</time></trkpt><trkpt lat="44.8680983" lon="9.4829567"><ele>430.25</ele><time>2026-04-26T09:04:13.933Z</time></trkpt><trkpt lat="44.86801" lon="9.4827833"><ele>431.5</ele><time>2026-04-26T09:04:14.94Z</time></trkpt><trkpt lat="44.8679317" lon="9.482605"><ele>432.75</ele><time>2026-04-26T09:04:15.937Z</time></trkpt><trkpt lat="44.8678683" lon="9.4824183"><ele>434.0</ele><time>2026-04-26T09:04:16.934Z</time></trkpt><trkpt lat="44.8678317" lon="9.4822283"><ele>434.4</ele><time>2026-04-26T09:04:17.933Z</time></trkpt><trkpt lat="44.867815" lon="9.4820533"><ele>434.79999999999995</ele><time>2026-04-26T09:04:18.935Z</time></trkpt><trkpt lat="44.8677867" lon="9.4819117"><ele>435.20000000000005</ele><time>2026-04-26T09:04:19.936Z</time></trkpt><trkpt lat="44.86773" lon="9.4817967"><ele>435.6</ele><time>2026-04-26T09:04:20.936Z</time></trkpt><trkpt lat="44.86766" lon="9.4816967"><ele>436.0</ele><time>2026-04-26T09:04:21.935Z</time></trkpt><trkpt lat="44.8675817" lon="9.4816"><ele>436.0</ele><time>2026-04-26T09:04:22.935Z</time></trkpt><trkpt lat="44.8675" lon="9.4815033"><ele>436.0</ele><time>2026-04-26T09:04:23.938Z</time></trkpt><trkpt lat="44.86741" lon="9.4814067"><ele>436.0</ele><time>2026-04-26T09:04:24.937Z</time></trkpt><trkpt lat="44.8673183" lon="9.4813133"><ele>436.0</ele><time>2026-04-26T09:04:25.936Z</time></trkpt><trkpt lat="44.8672317" lon="9.4812233"><ele>436.0</ele><time>2026-04-26T09:04:26.936Z</time></trkpt><trkpt lat="44.8671567" lon="9.4811333"><ele>437.6</ele><time>2026-04-26T09:04:27.935Z</time></trkpt><trkpt lat="44.867095" lon="9.48104"><ele>439.20000000000005</ele><time>2026-04-26T09:04:28.934Z</time></trkpt><trkpt lat="44.8670433" lon="9.4809367"><ele>440.79999999999995</ele><time>2026-04-26T09:04:29.934Z</time></trkpt><trkpt lat="44.867" lon="9.4808267"><ele>442.4</ele><time>2026-04-26T09:04:30.933Z</time></trkpt><trkpt lat="44.866955" lon="9.4807117"><ele>444.0</ele><time>2026-04-26T09:04:31.938Z</time></trkpt><trkpt lat="44.8669167" lon="9.48059"><ele>444.0</ele><time>2026-04-26T09:04:32.937Z</time></trkpt><trkpt lat="44.866885" lon="9.480455"><ele>444.0</ele><time>2026-04-26T09:04:33.936Z</time></trkpt><trkpt lat="44.866865" lon="9.4803133"><ele>444.0</ele><time>2026-04-26T09:04:34.934Z</time></trkpt><trkpt lat="44.8668567" lon="9.4801583"><ele>444.0</ele><time>2026-04-26T09:04:35.934Z</time></trkpt><trkpt lat="44.86686" lon="9.4799917"><ele>444.0</ele><time>2026-04-26T09:04:36.937Z</time></trkpt><trkpt lat="44.86687" lon="9.4798283"><ele>444.5</ele><time>2026-04-26T09:04:37.935Z</time></trkpt><trkpt lat="44.866885" lon="9.4796667"><ele>445.0</ele><time>2026-04-26T09:04:38.94Z</time></trkpt><trkpt lat="44.8669017" lon="9.47951"><ele>445.5</ele><time>2026-04-26T09:04:39.934Z</time></trkpt><trkpt lat="44.86693" lon="9.4793483"><ele>446.0</ele><time>2026-04-26T09:04:40.935Z</time></trkpt><trkpt lat="44.86697" lon="9.4791933"><ele>445.0</ele><time>2026-04-26T09:04:41.934Z</time></trkpt><trkpt lat="44.867015" lon="9.4790383"><ele>444.0</ele><time>2026-04-26T09:04:42.935Z</time></trkpt><trkpt lat="44.8670467" lon="9.478885"><ele>443.0</ele><time>2026-04-26T09:04:43.934Z</time></trkpt><trkpt lat="44.8670533" lon="9.478735"><ele>442.0</ele><time>2026-04-26T09:04:44.934Z</time></trkpt><trkpt lat="44.867035" lon="9.4785817"><ele>441.0</ele><time>2026-04-26T09:04:45.933Z</time></trkpt><trkpt lat="44.8669783" lon="9.4784317"><ele>440.75</ele><time>2026-04-26T09:04:46.941Z</time></trkpt><trkpt lat="44.8669" lon="9.4782833"><ele>440.5</ele><time>2026-04-26T09:04:47.935Z</time></trkpt><trkpt lat="44.8668167" lon="9.4781333"><ele>440.25</ele><time>2026-04-26T09:04:48.934Z</time></trkpt><trkpt lat="44.8667317" lon="9.4779867"><ele>440.0</ele><time>2026-04-26T09:04:49.934Z</time></trkpt><trkpt lat="44.866635" lon="9.4778533"><ele>439.0</ele><time>2026-04-26T09:04:50.934Z</time></trkpt><trkpt lat="44.8665283" lon="9.4777383"><ele>438.0</ele><time>2026-04-26T09:04:51.934Z</time></trkpt><trkpt lat="44.8664183" lon="9.4776417"><ele>437.0</ele><time>2026-04-26T09:04:52.935Z</time></trkpt><trkpt lat="44.8662983" lon="9.4775767"><ele>436.0</ele><time>2026-04-26T09:04:53.935Z</time></trkpt><trkpt lat="44.86617" lon="9.4775533"><ele>436.0</ele><time>2026-04-26T09:04:54.934Z</time></trkpt><trkpt lat="44.8660517" lon="9.4775517"><ele>436.0</ele><time>2026-04-26T09:04:55.935Z</time></trkpt><trkpt lat="44.8659483" lon="9.4775383"><ele>436.0</ele><time>2026-04-26T09:04:56.934Z</time></trkpt><trkpt lat="44.8658583" lon="9.477495"><ele>436.0</ele><time>2026-04-26T09:04:57.941Z</time></trkpt><trkpt lat="44.8657933" lon="9.4774283"><ele>436.0</ele><time>2026-04-26T09:04:58.935Z</time></trkpt><trkpt lat="44.8657717" lon="9.4773317"><ele>435.6</ele><time>2026-04-26T09:04:59.935Z</time></trkpt><trkpt lat="44.8657817" lon="9.47721"><ele>435.20000000000005</ele><time>2026-04-26T09:05:00.935Z</time></trkpt><trkpt lat="44.8658033" lon="9.4770733"><ele>434.79999999999995</ele><time>2026-04-26T09:05:01.935Z</time></trkpt><trkpt lat="44.8658383" lon="9.47692"><ele>434.4</ele><time>2026-04-26T09:05:02.941Z</time></trkpt><trkpt lat="44.8658617" lon="9.4767567"><ele>434.0</ele><time>2026-04-26T09:05:03.934Z</time></trkpt><trkpt lat="44.8658633" lon="9.4765933"><ele>435.0</ele><time>2026-04-26T09:05:04.934Z</time></trkpt><trkpt lat="44.8658333" lon="9.4764483"><ele>436.0</ele><time>2026-04-26T09:05:05.935Z</time></trkpt><trkpt lat="44.865785" lon="9.4763117"><ele>437.0</ele><time>2026-04-26T09:05:06.934Z</time></trkpt><trkpt lat="44.86573" lon="9.4761783"><ele>438.0</ele><time>2026-04-26T09:05:07.933Z</time></trkpt><trkpt lat="44.8656517" lon="9.4760617"><ele>439.0</ele><time>2026-04-26T09:05:08.935Z</time></trkpt><trkpt lat="44.8655567" lon="9.4759517"><ele>441.0</ele><time>2026-04-26T09:05:09.937Z</time></trkpt><trkpt lat="44.8654633" lon="9.4758367"><ele>443.0</ele><time>2026-04-26T09:05:10.935Z</time></trkpt><trkpt lat="44.86537" lon="9.4757283"><ele>445.0</ele><time>2026-04-26T09:05:11.933Z</time></trkpt><trkpt lat="44.8652667" lon="9.475645"><ele>447.0</ele><time>2026-04-26T09:05:12.934Z</time></trkpt><trkpt lat="44.8651617" lon="9.4755783"><ele>446.20000000000005</ele><time>2026-04-26T09:05:13.933Z</time></trkpt><trkpt lat="44.8650617" lon="9.47552"><ele>445.40000000000003</ele><time>2026-04-26T09:05:14.934Z</time></trkpt><trkpt lat="44.8649617" lon="9.475465"><ele>444.59999999999997</ele><time>2026-04-26T09:05:15.935Z</time></trkpt><trkpt lat="44.864865" lon="9.4754117"><ele>443.79999999999995</ele><time>2026-04-26T09:05:16.939Z</time></trkpt><trkpt lat="44.8647683" lon="9.4753583"><ele>443.0</ele><time>2026-04-26T09:05:17.934Z</time></trkpt><trkpt lat="44.864675" lon="9.4753017"><ele>443.0</ele><time>2026-04-26T09:05:18.935Z</time></trkpt><trkpt lat="44.8645883" lon="9.4752383"><ele>442.99999999999994</ele><time>2026-04-26T09:05:19.936Z</time></trkpt><trkpt lat="44.8645033" lon="9.4751767"><ele>442.99999999999994</ele><time>2026-04-26T09:05:20.935Z</time></trkpt><trkpt lat="44.8644167" lon="9.475135"><ele>443.0</ele><time>2026-04-26T09:05:21.94Z</time></trkpt><trkpt lat="44.864325" lon="9.47512"><ele>443.0</ele><time>2026-04-26T09:05:22.934Z</time></trkpt><trkpt lat="44.86423" lon="9.4751233"><ele>441.59999999999997</ele><time>2026-04-26T09:05:23.936Z</time></trkpt><trkpt lat="44.8641333" lon="9.475145"><ele>440.19999999999993</ele><time>2026-04-26T09:05:24.935Z</time></trkpt><trkpt lat="44.8640383" lon="9.4751817"><ele>438.8</ele><time>2026-04-26T09:05:25.934Z</time></trkpt><trkpt lat="44.863945" lon="9.4752483"><ele>437.4</ele><time>2026-04-26T09:05:26.935Z</time></trkpt><trkpt lat="44.8638617" lon="9.4753383"><ele>436.0</ele><time>2026-04-26T09:05:27.934Z</time></trkpt><trkpt lat="44.8637833" lon="9.475435"><ele>433.4</ele><time>2026-04-26T09:05:28.938Z</time></trkpt><trkpt lat="44.863715" lon="9.4755417"><ele>430.8</ele><time>2026-04-26T09:05:29.936Z</time></trkpt><trkpt lat="44.8636533" lon="9.4756633"><ele>428.2</ele><time>2026-04-26T09:05:30.936Z</time></trkpt><trkpt lat="44.8636017" lon="9.4758"><ele>425.59999999999997</ele><time>2026-04-26T09:05:31.935Z</time></trkpt><trkpt lat="44.8635567" lon="9.4759433"><ele>423.0</ele><time>2026-04-26T09:05:32.937Z</time></trkpt><trkpt lat="44.863515" lon="9.476095"><ele>423.0</ele><time>2026-04-26T09:05:33.941Z</time></trkpt><trkpt lat="44.8634717" lon="9.4762483"><ele>423.0</ele><time>2026-04-26T09:05:34.935Z</time></trkpt><trkpt lat="44.8634217" lon="9.4764"><ele>423.0</ele><time>2026-04-26T09:05:35.934Z</time></trkpt><trkpt lat="44.863365" lon="9.47654"><ele>423.0</ele><time>2026-04-26T09:05:36.934Z</time></trkpt><trkpt lat="44.8632883" lon="9.47667"><ele>423.6666666666667</ele><time>2026-04-26T09:05:37.934Z</time></trkpt><trkpt lat="44.8632083" lon="9.4767767"><ele>424.33333333333337</ele><time>2026-04-26T09:05:38.934Z</time></trkpt><trkpt lat="44.8631317" lon="9.4768533"><ele>425.0</ele><time>2026-04-26T09:05:39.939Z</time></trkpt><trkpt lat="44.8630583" lon="9.4769067"><ele>425.6666666666667</ele><time>2026-04-26T09:05:40.935Z</time></trkpt><trkpt lat="44.86299" lon="9.4769317"><ele>426.33333333333337</ele><time>2026-04-26T09:05:41.934Z</time></trkpt><trkpt lat="44.8629267" lon="9.47693"><ele>427.0</ele><time>2026-04-26T09:05:42.936Z</time></trkpt><trkpt lat="44.86286" lon="9.4769033"><ele>427.0</ele><time>2026-04-26T09:05:43.936Z</time></trkpt><trkpt lat="44.8627783" lon="9.4768783"><ele>427.00000000000006</ele><time>2026-04-26T09:05:44.935Z</time></trkpt><trkpt lat="44.8626783" lon="9.4768717"><ele>427.00000000000006</ele><time>2026-04-26T09:05:45.94Z</time></trkpt><trkpt lat="44.86256" lon="9.4769033"><ele>427.0</ele><time>2026-04-26T09:05:46.933Z</time></trkpt><trkpt lat="44.86243" lon="9.4769367"><ele>427.0</ele><time>2026-04-26T09:05:47.934Z</time></trkpt><trkpt lat="44.862295" lon="9.4769633"><ele>426.0</ele><time>2026-04-26T09:05:48.937Z</time></trkpt><trkpt lat="44.8621667" lon="9.477005"><ele>425.0</ele><time>2026-04-26T09:05:49.936Z</time></trkpt><trkpt lat="44.8620467" lon="9.4770917"><ele>424.0</ele><time>2026-04-26T09:05:50.939Z</time></trkpt><trkpt lat="44.861945" lon="9.477195"><ele>423.0</ele><time>2026-04-26T09:05:51.934Z</time></trkpt><trkpt lat="44.8618517" lon="9.47728"><ele>423.2</ele><time>2026-04-26T09:05:52.94Z</time></trkpt><trkpt lat="44.86175" lon="9.4773217"><ele>423.4</ele><time>2026-04-26T09:05:53.935Z</time></trkpt><trkpt lat="44.8616483" lon="9.4773217"><ele>423.59999999999997</ele><time>2026-04-26T09:05:54.934Z</time></trkpt><trkpt lat="44.861545" lon="9.4772733"><ele>423.79999999999995</ele><time>2026-04-26T09:05:55.934Z</time></trkpt><trkpt lat="44.8614483" lon="9.4771833"><ele>424.0</ele><time>2026-04-26T09:05:56.934Z</time></trkpt><trkpt lat="44.8613467" lon="9.4770817"><ele>426.0</ele><time>2026-04-26T09:05:57.94Z</time></trkpt><trkpt lat="44.861235" lon="9.4769883"><ele>428.0</ele><time>2026-04-26T09:05:58.934Z</time></trkpt><trkpt lat="44.8611217" lon="9.476915"><ele>430.0</ele><time>2026-04-26T09:05:59.934Z</time></trkpt><trkpt lat="44.8610217" lon="9.476855"><ele>432.0</ele><time>2026-04-26T09:06:00.934Z</time></trkpt><trkpt lat="44.860935" lon="9.47681"><ele>432.0</ele><time>2026-04-26T09:06:01.938Z</time></trkpt><trkpt lat="44.860855" lon="9.4767717"><ele>432.0</ele><time>2026-04-26T09:06:02.936Z</time></trkpt><trkpt lat="44.8607917" lon="9.47674"><ele>432.0</ele><time>2026-04-26T09:06:03.935Z</time></trkpt><trkpt lat="44.8607183" lon="9.4767"><ele>432.0</ele><time>2026-04-26T09:06:05.934Z</time></trkpt><trkpt lat="44.86078" lon="9.4767417"><ele>432.0</ele><time>2026-04-26T09:06:13.934Z</time></trkpt><trkpt lat="44.8608517" lon="9.4767733"><ele>432.0</ele><time>2026-04-26T09:06:14.934Z</time></trkpt><trkpt lat="44.86094" lon="9.47682"><ele>433.5</ele><time>2026-04-26T09:06:15.939Z</time></trkpt><trkpt lat="44.8610467" lon="9.4768767"><ele>435.0</ele><time>2026-04-26T09:06:16.933Z</time></trkpt><trkpt lat="44.8611633" lon="9.4769417"><ele>436.5</ele><time>2026-04-26T09:06:17.936Z</time></trkpt><trkpt lat="44.8612833" lon="9.47703"><ele>438.0</ele><time>2026-04-26T09:06:18.935Z</time></trkpt><trkpt lat="44.86139" lon="9.4771283"><ele>435.2</ele><time>2026-04-26T09:06:19.936Z</time></trkpt><trkpt lat="44.86148" lon="9.4772233"><ele>432.4</ele><time>2026-04-26T09:06:20.935Z</time></trkpt><trkpt lat="44.8615683" lon="9.4772983"><ele>429.59999999999997</ele><time>2026-04-26T09:06:21.934Z</time></trkpt><trkpt lat="44.86166" lon="9.4773417"><ele>426.79999999999995</ele><time>2026-04-26T09:06:22.938Z</time></trkpt><trkpt lat="44.8617583" lon="9.4773483"><ele>424.0</ele><time>2026-04-26T09:06:23.934Z</time></trkpt><trkpt lat="44.86185" lon="9.4773067"><ele>423.75</ele><time>2026-04-26T09:06:24.934Z</time></trkpt><trkpt lat="44.8619333" lon="9.47722"><ele>423.5</ele><time>2026-04-26T09:06:25.934Z</time></trkpt><trkpt lat="44.8620217" lon="9.4771233"><ele>423.25</ele><time>2026-04-26T09:06:26.936Z</time></trkpt><trkpt lat="44.8621283" lon="9.4770417"><ele>423.0</ele><time>2026-04-26T09:06:27.935Z</time></trkpt><trkpt lat="44.8622583" lon="9.476985"><ele>424.0</ele><time>2026-04-26T09:06:28.934Z</time></trkpt><trkpt lat="44.8624017" lon="9.476945"><ele>425.0</ele><time>2026-04-26T09:06:29.934Z</time></trkpt><trkpt lat="44.8625383" lon="9.4769017"><ele>426.0</ele><time>2026-04-26T09:06:30.933Z</time></trkpt><trkpt lat="44.8626583" lon="9.47687"><ele>427.0</ele><time>2026-04-26T09:06:31.935Z</time></trkpt><trkpt lat="44.8627633" lon="9.4768683"><ele>427.00000000000006</ele><time>2026-04-26T09:06:32.935Z</time></trkpt><trkpt lat="44.8628483" lon="9.4768967"><ele>427.0</ele><time>2026-04-26T09:06:33.94Z</time></trkpt><trkpt lat="44.8629167" lon="9.4769267"><ele>427.0</ele><time>2026-04-26T09:06:34.934Z</time></trkpt><trkpt lat="44.8629833" lon="9.47691"><ele>427.0</ele><time>2026-04-26T09:06:36.934Z</time></trkpt><trkpt lat="44.8629383" lon="9.47678"><ele>427.00000000000006</ele><time>2026-04-26T09:06:39.935Z</time></trkpt><trkpt lat="44.8628817" lon="9.47672"><ele>427.0</ele><time>2026-04-26T09:06:40.935Z</time></trkpt><trkpt lat="44.8628233" lon="9.476635"><ele>427.0</ele><time>2026-04-26T09:06:41.934Z</time></trkpt><trkpt lat="44.8627867" lon="9.47654"><ele>427.0</ele><time>2026-04-26T09:06:42.933Z</time></trkpt><trkpt lat="44.86279" lon="9.4764483"><ele>427.0</ele><time>2026-04-26T09:06:43.941Z</time></trkpt><trkpt lat="44.8628317" lon="9.476375"><ele>427.0</ele><time>2026-04-26T09:06:44.934Z</time></trkpt><trkpt lat="44.8628933" lon="9.4763017"><ele>427.0</ele><time>2026-04-26T09:06:45.934Z</time></trkpt><trkpt lat="44.8629467" lon="9.4762317"><ele>427.0</ele><time>2026-04-26T09:06:46.935Z</time></trkpt><trkpt lat="44.8629767" lon="9.476145"><ele>427.0</ele><time>2026-04-26T09:06:47.935Z</time></trkpt><trkpt lat="44.86296" lon="9.4760533"><ele>428.6</ele><time>2026-04-26T09:06:48.937Z</time></trkpt><trkpt lat="44.8628767" lon="9.47599"><ele>430.20000000000005</ele><time>2026-04-26T09:06:49.936Z</time></trkpt><trkpt lat="44.8627867" lon="9.47593"><ele>431.8</ele><time>2026-04-26T09:06:50.936Z</time></trkpt><trkpt lat="44.86269" lon="9.4758783"><ele>433.4</ele><time>2026-04-26T09:06:51.938Z</time></trkpt><trkpt lat="44.8625967" lon="9.4758367"><ele>435.0</ele><time>2026-04-26T09:06:52.936Z</time></trkpt><trkpt lat="44.862525" lon="9.4757883"><ele>438.2</ele><time>2026-04-26T09:06:53.936Z</time></trkpt><trkpt lat="44.862465" lon="9.4757283"><ele>441.4</ele><time>2026-04-26T09:06:54.935Z</time></trkpt><trkpt lat="44.86242" lon="9.4756533"><ele>444.6</ele><time>2026-04-26T09:06:55.934Z</time></trkpt><trkpt lat="44.86239" lon="9.4755667"><ele>447.8</ele><time>2026-04-26T09:06:56.935Z</time></trkpt><trkpt lat="44.86238" lon="9.4754017"><ele>451.0</ele><time>2026-04-26T09:06:58.941Z</time></trkpt><trkpt lat="44.862355" lon="9.4752283"><ele>452.85714285714283</ele><time>2026-04-26T09:07:00.934Z</time></trkpt><trkpt lat="44.8623167" lon="9.4751367"><ele>454.7142857142858</ele><time>2026-04-26T09:07:01.937Z</time></trkpt><trkpt lat="44.8622783" lon="9.475045"><ele>456.5714285714286</ele><time>2026-04-26T09:07:02.935Z</time></trkpt><trkpt lat="44.86225" lon="9.4749533"><ele>458.42857142857144</ele><time>2026-04-26T09:07:03.941Z</time></trkpt><trkpt lat="44.8622517" lon="9.4748633"><ele>460.28571428571433</ele><time>2026-04-26T09:07:04.934Z</time></trkpt><trkpt lat="44.86228" lon="9.4747633"><ele>462.1428571428572</ele><time>2026-04-26T09:07:05.935Z</time></trkpt><trkpt lat="44.8623183" lon="9.474665"><ele>464.00000000000006</ele><time>2026-04-26T09:07:06.934Z</time></trkpt><trkpt lat="44.862355" lon="9.47456"><ele>466.0</ele><time>2026-04-26T09:07:07.933Z</time></trkpt><trkpt lat="44.8623817" lon="9.4744433"><ele>468.0</ele><time>2026-04-26T09:07:08.936Z</time></trkpt><trkpt lat="44.8623933" lon="9.4743133"><ele>470.0</ele><time>2026-04-26T09:07:09.934Z</time></trkpt><trkpt lat="44.862385" lon="9.4741667"><ele>472.0</ele><time>2026-04-26T09:07:10.935Z</time></trkpt><trkpt lat="44.862355" lon="9.474025"><ele>474.0</ele><time>2026-04-26T09:07:11.934Z</time></trkpt><trkpt lat="44.8623017" lon="9.4738883"><ele>475.75</ele><time>2026-04-26T09:07:12.934Z</time></trkpt><trkpt lat="44.8622417" lon="9.4737517"><ele>477.5</ele><time>2026-04-26T09:07:13.934Z</time></trkpt><trkpt lat="44.8621783" lon="9.4736017"><ele>479.25</ele><time>2026-04-26T09:07:14.936Z</time></trkpt><trkpt lat="44.8621183" lon="9.4734483"><ele>481.0</ele><time>2026-04-26T09:07:15.936Z</time></trkpt><trkpt lat="44.862065" lon="9.4732967"><ele>481.0</ele><time>2026-04-26T09:07:16.933Z</time></trkpt><trkpt lat="44.8620183" lon="9.4731467"><ele>481.0</ele><time>2026-04-26T09:07:17.939Z</time></trkpt><trkpt lat="44.8619733" lon="9.4730033"><ele>481.0</ele><time>2026-04-26T09:07:18.934Z</time></trkpt><trkpt lat="44.8619217" lon="9.472885"><ele>481.0</ele><time>2026-04-26T09:07:19.934Z</time></trkpt><trkpt lat="44.8618567" lon="9.4728017"><ele>481.0</ele><time>2026-04-26T09:07:20.936Z</time></trkpt><trkpt lat="44.8617833" lon="9.4727317"><ele>486.8</ele><time>2026-04-26T09:07:21.935Z</time></trkpt><trkpt lat="44.8617083" lon="9.4726483"><ele>492.6</ele><time>2026-04-26T09:07:22.94Z</time></trkpt><trkpt lat="44.8616333" lon="9.4725483"><ele>498.4</ele><time>2026-04-26T09:07:23.934Z</time></trkpt><trkpt lat="44.861555" lon="9.4724333"><ele>504.2</ele><time>2026-04-26T09:07:24.934Z</time></trkpt><trkpt lat="44.8614683" lon="9.4723167"><ele>510.0</ele><time>2026-04-26T09:07:25.935Z</time></trkpt><trkpt lat="44.861375" lon="9.4721933"><ele>510.25</ele><time>2026-04-26T09:07:26.935Z</time></trkpt><trkpt lat="44.8612833" lon="9.4720633"><ele>510.5</ele><time>2026-04-26T09:07:27.935Z</time></trkpt><trkpt lat="44.861195" lon="9.4719267"><ele>510.75</ele><time>2026-04-26T09:07:28.938Z</time></trkpt><trkpt lat="44.8611217" lon="9.4717817"><ele>511.0</ele><time>2026-04-26T09:07:29.935Z</time></trkpt><trkpt lat="44.8610717" lon="9.471635"><ele>511.0</ele><time>2026-04-26T09:07:30.934Z</time></trkpt><trkpt lat="44.8610433" lon="9.4714817"><ele>511.0</ele><time>2026-04-26T09:07:31.939Z</time></trkpt><trkpt lat="44.861025" lon="9.47132"><ele>511.0</ele><time>2026-04-26T09:07:32.936Z</time></trkpt><trkpt lat="44.8610117" lon="9.4711567"><ele>511.0</ele><time>2026-04-26T09:07:33.934Z</time></trkpt><trkpt lat="44.860995" lon="9.4709883"><ele>513.5</ele><time>2026-04-26T09:07:34.934Z</time></trkpt><trkpt lat="44.860975" lon="9.4708183"><ele>516.0</ele><time>2026-04-26T09:07:35.936Z</time></trkpt><trkpt lat="44.8609533" lon="9.4706517"><ele>518.5</ele><time>2026-04-26T09:07:36.934Z</time></trkpt><trkpt lat="44.8609317" lon="9.47049"><ele>521.0</ele><time>2026-04-26T09:07:37.936Z</time></trkpt><trkpt lat="44.8609117" lon="9.4703367"><ele>527.4</ele><time>2026-04-26T09:07:38.935Z</time></trkpt><trkpt lat="44.8608967" lon="9.4701917"><ele>533.8</ele><time>2026-04-26T09:07:39.943Z</time></trkpt><trkpt lat="44.8608867" lon="9.4700633"><ele>540.1999999999999</ele><time>2026-04-26T09:07:40.934Z</time></trkpt><trkpt lat="44.8608733" lon="9.4699533"><ele>546.6</ele><time>2026-04-26T09:07:41.934Z</time></trkpt><trkpt lat="44.8607683" lon="9.46985"><ele>553.0</ele><time>2026-04-26T09:07:43.935Z</time></trkpt><trkpt lat="44.860685" lon="9.469845"><ele>553.0</ele><time>2026-04-26T09:07:44.935Z</time></trkpt><trkpt lat="44.8606" lon="9.4698417"><ele>553.0</ele><time>2026-04-26T09:07:45.937Z</time></trkpt><trkpt lat="44.860515" lon="9.4698283"><ele>553.0</ele><time>2026-04-26T09:07:46.939Z</time></trkpt><trkpt lat="44.86043" lon="9.4698033"><ele>553.0</ele><time>2026-04-26T09:07:47.934Z</time></trkpt><trkpt lat="44.860355" lon="9.469775"><ele>553.0</ele><time>2026-04-26T09:07:48.937Z</time></trkpt><trkpt lat="44.8602833" lon="9.4697417"><ele>553.0</ele><time>2026-04-26T09:07:49.934Z</time></trkpt><trkpt lat="44.8602167" lon="9.4697"><ele>554.8333333333334</ele><time>2026-04-26T09:07:50.934Z</time></trkpt><trkpt lat="44.860135" lon="9.4696033"><ele>556.6666666666667</ele><time>2026-04-26T09:07:52.935Z</time></trkpt><trkpt lat="44.860085" lon="9.4695217"><ele>558.5</ele><time>2026-04-26T09:07:55.939Z</time></trkpt><trkpt lat="44.8600283" lon="9.4694333"><ele>560.3333333333334</ele><time>2026-04-26T09:07:57.934Z</time></trkpt><trkpt lat="44.85999" lon="9.4693067"><ele>562.1666666666666</ele><time>2026-04-26T09:07:59.933Z</time></trkpt><trkpt lat="44.8600033" lon="9.4692083"><ele>564.0</ele><time>2026-04-26T09:08:01.933Z</time></trkpt><trkpt lat="44.8600583" lon="9.4691233"><ele>564.0</ele><time>2026-04-26T09:08:03.934Z</time></trkpt><trkpt lat="44.8601317" lon="9.4690167"><ele>564.0</ele><time>2026-04-26T09:08:05.934Z</time></trkpt><trkpt lat="44.8602283" lon="9.46891"><ele>564.0</ele><time>2026-04-26T09:08:07.933Z</time></trkpt><trkpt lat="44.8603133" lon="9.4688083"><ele>564.0</ele><time>2026-04-26T09:08:09.939Z</time></trkpt><trkpt lat="44.8603817" lon="9.4687367"><ele>564.0</ele><time>2026-04-26T09:08:11.934Z</time></trkpt><trkpt lat="44.8604483" lon="9.46866"><ele>565.1666666666666</ele><time>2026-04-26T09:08:13.932Z</time></trkpt><trkpt lat="44.860525" lon="9.4685317"><ele>566.3333333333334</ele><time>2026-04-26T09:08:15.933Z</time></trkpt><trkpt lat="44.860565" lon="9.4684517"><ele>567.5</ele><time>2026-04-26T09:08:16.938Z</time></trkpt><trkpt lat="44.8606033" lon="9.4683783"><ele>568.6666666666667</ele><time>2026-04-26T09:08:17.934Z</time></trkpt><trkpt lat="44.8607" lon="9.4682583"><ele>569.8333333333334</ele><time>2026-04-26T09:08:19.934Z</time></trkpt><trkpt lat="44.8607533" lon="9.4682"><ele>571.0</ele><time>2026-04-26T09:08:20.935Z</time></trkpt><trkpt lat="44.8608067" lon="9.4681367"><ele>571.0</ele><time>2026-04-26T09:08:21.939Z</time></trkpt><trkpt lat="44.8608367" lon="9.46799"><ele>571.0</ele><time>2026-04-26T09:08:23.933Z</time></trkpt><trkpt lat="44.8608617" lon="9.4679033"><ele>571.0</ele><time>2026-04-26T09:08:24.934Z</time></trkpt><trkpt lat="44.86087" lon="9.467805"><ele>571.0</ele><time>2026-04-26T09:08:25.933Z</time></trkpt><trkpt lat="44.8608717" lon="9.4676967"><ele>571.0</ele><time>2026-04-26T09:08:26.936Z</time></trkpt><trkpt lat="44.86086" lon="9.46759"><ele>571.0</ele><time>2026-04-26T09:08:27.94Z</time></trkpt><trkpt lat="44.8608517" lon="9.4674917"><ele>571.8</ele><time>2026-04-26T09:08:28.935Z</time></trkpt><trkpt lat="44.8608467" lon="9.4674017"><ele>572.6</ele><time>2026-04-26T09:08:29.934Z</time></trkpt><trkpt lat="44.8608817" lon="9.4672417"><ele>573.4</ele><time>2026-04-26T09:08:31.934Z</time></trkpt><trkpt lat="44.86092" lon="9.4671433"><ele>574.2</ele><time>2026-04-26T09:08:32.934Z</time></trkpt><trkpt lat="44.8609717" lon="9.467045"><ele>575.0</ele><time>2026-04-26T09:08:33.934Z</time></trkpt><trkpt lat="44.8610433" lon="9.4669317"><ele>570.3333333333333</ele><time>2026-04-26T09:08:34.934Z</time></trkpt><trkpt lat="44.8611033" lon="9.46683"><ele>565.6666666666666</ele><time>2026-04-26T09:08:35.934Z</time></trkpt><trkpt lat="44.8611683" lon="9.466735"><ele>561.0</ele><time>2026-04-26T09:08:36.937Z</time></trkpt><trkpt lat="44.8612167" lon="9.4666583"><ele>556.3333333333334</ele><time>2026-04-26T09:08:37.934Z</time></trkpt><trkpt lat="44.8612433" lon="9.4665767"><ele>551.6666666666667</ele><time>2026-04-26T09:08:38.934Z</time></trkpt><trkpt lat="44.8612283" lon="9.4664367"><ele>547.0</ele><time>2026-04-26T09:08:40.933Z</time></trkpt><trkpt lat="44.8611667" lon="9.4663183"><ele>548.4</ele><time>2026-04-26T09:08:42.938Z</time></trkpt><trkpt lat="44.861145" lon="9.4661417"><ele>549.8000000000001</ele><time>2026-04-26T09:08:44.933Z</time></trkpt><trkpt lat="44.8611467" lon="9.46603"><ele>551.2</ele><time>2026-04-26T09:08:45.934Z</time></trkpt><trkpt lat="44.8611533" lon="9.4659167"><ele>552.6</ele><time>2026-04-26T09:08:46.934Z</time></trkpt><trkpt lat="44.86116" lon="9.46582"><ele>554.0</ele><time>2026-04-26T09:08:47.933Z</time></trkpt><trkpt lat="44.86118" lon="9.4656583"><ele>554.0</ele><time>2026-04-26T09:08:49.933Z</time></trkpt><trkpt lat="44.8612267" lon="9.4655083"><ele>554.0</ele><time>2026-04-26T09:08:51.933Z</time></trkpt><trkpt lat="44.86132" lon="9.4653917"><ele>554.0</ele><time>2026-04-26T09:08:53.935Z</time></trkpt><trkpt lat="44.861435" lon="9.46536"><ele>554.0</ele><time>2026-04-26T09:08:55.933Z</time></trkpt><trkpt lat="44.8615083" lon="9.4653683"><ele>554.0</ele><time>2026-04-26T09:08:56.934Z</time></trkpt><trkpt lat="44.86158" lon="9.4653567"><ele>556.0</ele><time>2026-04-26T09:08:57.933Z</time></trkpt><trkpt lat="44.8616433" lon="9.4653367"><ele>558.0</ele><time>2026-04-26T09:08:58.933Z</time></trkpt><trkpt lat="44.8617017" lon="9.46529"><ele>560.0</ele><time>2026-04-26T09:08:59.933Z</time></trkpt><trkpt lat="44.8617617" lon="9.465225"><ele>562.0</ele><time>2026-04-26T09:09:00.935Z</time></trkpt><trkpt lat="44.8618183" lon="9.4651517"><ele>564.0</ele><time>2026-04-26T09:09:01.934Z</time></trkpt><trkpt lat="44.8618633" lon="9.465085"><ele>566.0</ele><time>2026-04-26T09:09:02.939Z</time></trkpt><trkpt lat="44.86194" lon="9.465015"><ele>568.0</ele><time>2026-04-26T09:09:04.935Z</time></trkpt><trkpt lat="44.86202" lon="9.465"><ele>568.5</ele><time>2026-04-26T09:09:06.934Z</time></trkpt><trkpt lat="44.8621083" lon="9.4650933"><ele>569.0</ele><time>2026-04-26T09:09:08.934Z</time></trkpt><trkpt lat="44.8621867" lon="9.4652033"><ele>569.5</ele><time>2026-04-26T09:09:10.933Z</time></trkpt><trkpt lat="44.86232" lon="9.4652983"><ele>570.0</ele><time>2026-04-26T09:09:12.94Z</time></trkpt><trkpt lat="44.8624133" lon="9.465355"><ele>570.0</ele><time>2026-04-26T09:09:13.933Z</time></trkpt><trkpt lat="44.8624883" lon="9.46542"><ele>570.0</ele><time>2026-04-26T09:09:14.934Z</time></trkpt><trkpt lat="44.8625567" lon="9.4654867"><ele>570.0</ele><time>2026-04-26T09:09:15.935Z</time></trkpt><trkpt lat="44.8626233" lon="9.46553"><ele>570.0</ele><time>2026-04-26T09:09:16.935Z</time></trkpt><trkpt lat="44.8626933" lon="9.4655467"><ele>570.0</ele><time>2026-04-26T09:09:17.937Z</time></trkpt><trkpt lat="44.862765" lon="9.4655617"><ele>570.0</ele><time>2026-04-26T09:09:18.936Z</time></trkpt><trkpt lat="44.86284" lon="9.4655817"><ele>568.6666666666666</ele><time>2026-04-26T09:09:19.934Z</time></trkpt><trkpt lat="44.86292" lon="9.4656083"><ele>567.3333333333334</ele><time>2026-04-26T09:09:20.934Z</time></trkpt><trkpt lat="44.8629867" lon="9.4656467"><ele>566.0</ele><time>2026-04-26T09:09:21.935Z</time></trkpt><trkpt lat="44.8630267" lon="9.465745"><ele>564.6666666666667</ele><time>2026-04-26T09:09:22.934Z</time></trkpt><trkpt lat="44.8630617" lon="9.4658483"><ele>563.3333333333334</ele><time>2026-04-26T09:09:23.935Z</time></trkpt><trkpt lat="44.8631" lon="9.46594"><ele>562.0</ele><time>2026-04-26T09:09:24.936Z</time></trkpt><trkpt lat="44.8631367" lon="9.4660233"><ele>562.0</ele><time>2026-04-26T09:09:25.933Z</time></trkpt><trkpt lat="44.863235" lon="9.4661"><ele>562.0</ele><time>2026-04-26T09:09:27.934Z</time></trkpt><trkpt lat="44.8633033" lon="9.4660783"><ele>562.0</ele><time>2026-04-26T09:09:28.935Z</time></trkpt><trkpt lat="44.8633767" lon="9.4660583"><ele>562.0</ele><time>2026-04-26T09:09:29.934Z</time></trkpt><trkpt lat="44.8634517" lon="9.4660417"><ele>562.0</ele><time>2026-04-26T09:09:30.936Z</time></trkpt><trkpt lat="44.86353" lon="9.46603"><ele>562.0</ele><time>2026-04-26T09:09:31.938Z</time></trkpt><trkpt lat="44.8636167" lon="9.4660233"><ele>563.3333333333334</ele><time>2026-04-26T09:09:32.934Z</time></trkpt><trkpt lat="44.8636967" lon="9.466025"><ele>564.6666666666667</ele><time>2026-04-26T09:09:33.94Z</time></trkpt><trkpt lat="44.8637767" lon="9.4660367"><ele>566.0</ele><time>2026-04-26T09:09:34.935Z</time></trkpt><trkpt lat="44.8638367" lon="9.466075"><ele>567.3333333333334</ele><time>2026-04-26T09:09:35.936Z</time></trkpt><trkpt lat="44.8639" lon="9.4661083"><ele>568.6666666666666</ele><time>2026-04-26T09:09:36.935Z</time></trkpt><trkpt lat="44.8639683" lon="9.46617"><ele>570.0</ele><time>2026-04-26T09:09:38.935Z</time></trkpt><trkpt lat="44.86401" lon="9.4662667"><ele>570.0</ele><time>2026-04-26T09:09:41.935Z</time></trkpt><trkpt lat="44.8640733" lon="9.4663133"><ele>570.0</ele><time>2026-04-26T09:09:44.936Z</time></trkpt><trkpt lat="44.8641367" lon="9.4663183"><ele>570.0</ele><time>2026-04-26T09:09:47.936Z</time></trkpt><trkpt lat="44.8641983" lon="9.4662367"><ele>570.0</ele><time>2026-04-26T09:09:50.935Z</time></trkpt><trkpt lat="44.8642367" lon="9.4661317"><ele>570.0</ele><time>2026-04-26T09:09:52.935Z</time></trkpt><trkpt lat="44.8643033" lon="9.4660733"><ele>570.0</ele><time>2026-04-26T09:09:54.933Z</time></trkpt><trkpt lat="44.86437" lon="9.466065"><ele>570.0</ele><time>2026-04-26T09:09:56.934Z</time></trkpt><trkpt lat="44.8644483" lon="9.4660867"><ele>574.1666666666666</ele><time>2026-04-26T09:09:58.936Z</time></trkpt><trkpt lat="44.86453" lon="9.4661133"><ele>578.3333333333334</ele><time>2026-04-26T09:10:00.934Z</time></trkpt><trkpt lat="44.8645933" lon="9.466115"><ele>582.5</ele><time>2026-04-26T09:10:01.935Z</time></trkpt><trkpt lat="44.86471" lon="9.466135"><ele>586.6666666666667</ele><time>2026-04-26T09:10:03.934Z</time></trkpt><trkpt lat="44.864775" lon="9.4661517"><ele>590.8333333333334</ele><time>2026-04-26T09:10:04.936Z</time></trkpt><trkpt lat="44.8648533" lon="9.4661833"><ele>595.0</ele><time>2026-04-26T09:10:05.933Z</time></trkpt><trkpt lat="44.864925" lon="9.46622"><ele>595.0</ele><time>2026-04-26T09:10:06.933Z</time></trkpt><trkpt lat="44.8649867" lon="9.466265"><ele>595.0</ele><time>2026-04-26T09:10:07.936Z</time></trkpt><trkpt lat="44.865095" lon="9.466325"><ele>595.0</ele><time>2026-04-26T09:10:09.936Z</time></trkpt><trkpt lat="44.8651917" lon="9.46635"><ele>595.0</ele><time>2026-04-26T09:10:11.937Z</time></trkpt><trkpt lat="44.8653117" lon="9.4663917"><ele>595.0</ele><time>2026-04-26T09:10:13.934Z</time></trkpt><trkpt lat="44.86543" lon="9.46645"><ele>594.4285714285714</ele><time>2026-04-26T09:10:15.933Z</time></trkpt><trkpt lat="44.865495" lon="9.4664783"><ele>593.8571428571429</ele><time>2026-04-26T09:10:16.937Z</time></trkpt><trkpt lat="44.8655617" lon="9.4664983"><ele>593.2857142857142</ele><time>2026-04-26T09:10:17.936Z</time></trkpt><trkpt lat="44.8656267" lon="9.4665133"><ele>592.7142857142858</ele><time>2026-04-26T09:10:18.936Z</time></trkpt><trkpt lat="44.8656917" lon="9.4665233"><ele>592.1428571428571</ele><time>2026-04-26T09:10:19.935Z</time></trkpt><trkpt lat="44.8657633" lon="9.4665217"><ele>591.5714285714286</ele><time>2026-04-26T09:10:20.936Z</time></trkpt><trkpt lat="44.8658417" lon="9.4665167"><ele>591.0</ele><time>2026-04-26T09:10:21.935Z</time></trkpt><trkpt lat="44.8659233" lon="9.4665133"><ele>592.5714285714286</ele><time>2026-04-26T09:10:22.937Z</time></trkpt><trkpt lat="44.865995" lon="9.46651"><ele>594.1428571428571</ele><time>2026-04-26T09:10:23.937Z</time></trkpt><trkpt lat="44.8660583" lon="9.4664983"><ele>595.7142857142858</ele><time>2026-04-26T09:10:24.935Z</time></trkpt><trkpt lat="44.8661217" lon="9.4664817"><ele>597.2857142857142</ele><time>2026-04-26T09:10:25.935Z</time></trkpt><trkpt lat="44.866225" lon="9.4664333"><ele>598.8571428571429</ele><time>2026-04-26T09:10:27.937Z</time></trkpt><trkpt lat="44.8662867" lon="9.466385"><ele>600.4285714285714</ele><time>2026-04-26T09:10:28.935Z</time></trkpt><trkpt lat="44.8663467" lon="9.46635"><ele>602.0</ele><time>2026-04-26T09:10:29.935Z</time></trkpt><trkpt lat="44.86641" lon="9.466315"><ele>602.0</ele><time>2026-04-26T09:10:30.935Z</time></trkpt><trkpt lat="44.8664883" lon="9.46634"><ele>602.0</ele><time>2026-04-26T09:10:32.937Z</time></trkpt><trkpt lat="44.866555" lon="9.4664017"><ele>602.0</ele><time>2026-04-26T09:10:34.933Z</time></trkpt><trkpt lat="44.8666617" lon="9.4665"><ele>602.0</ele><time>2026-04-26T09:10:36.934Z</time></trkpt><trkpt lat="44.866735" lon="9.4665617"><ele>602.0</ele><time>2026-04-26T09:10:37.934Z</time></trkpt><trkpt lat="44.8668" lon="9.4666317"><ele>604.6666666666666</ele><time>2026-04-26T09:10:38.935Z</time></trkpt><trkpt lat="44.866875" lon="9.4666883"><ele>607.3333333333333</ele><time>2026-04-26T09:10:39.935Z</time></trkpt><trkpt lat="44.8669533" lon="9.4667167"><ele>610.0</ele><time>2026-04-26T09:10:40.939Z</time></trkpt><trkpt lat="44.867035" lon="9.4667117"><ele>612.6666666666666</ele><time>2026-04-26T09:10:41.933Z</time></trkpt><trkpt lat="44.8671167" lon="9.4666967"><ele>615.3333333333334</ele><time>2026-04-26T09:10:42.934Z</time></trkpt><trkpt lat="44.8671967" lon="9.4667"><ele>618.0</ele><time>2026-04-26T09:10:43.935Z</time></trkpt><trkpt lat="44.8672767" lon="9.4667083"><ele>618.0</ele><time>2026-04-26T09:10:44.934Z</time></trkpt><trkpt lat="44.867345" lon="9.4667267"><ele>618.0</ele><time>2026-04-26T09:10:45.937Z</time></trkpt><trkpt lat="44.86741" lon="9.4667583"><ele>618.0</ele><time>2026-04-26T09:10:46.934Z</time></trkpt><trkpt lat="44.867505" lon="9.4668183"><ele>618.0</ele><time>2026-04-26T09:10:48.934Z</time></trkpt><trkpt lat="44.8675567" lon="9.466745"><ele>618.0</ele><time>2026-04-26T09:10:51.935Z</time></trkpt><trkpt lat="44.8675367" lon="9.4666333"><ele>618.0</ele><time>2026-04-26T09:10:53.935Z</time></trkpt><trkpt lat="44.8674967" lon="9.46646"><ele>618.0000000000001</ele><time>2026-04-26T09:10:55.937Z</time></trkpt><trkpt lat="44.8674867" lon="9.466355"><ele>618.0</ele><time>2026-04-26T09:10:56.934Z</time></trkpt><trkpt lat="44.8674733" lon="9.4662517"><ele>618.0</ele><time>2026-04-26T09:10:57.933Z</time></trkpt><trkpt lat="44.8674567" lon="9.4661517"><ele>618.0</ele><time>2026-04-26T09:10:58.935Z</time></trkpt><trkpt lat="44.8674467" lon="9.4660617"><ele>618.0</ele><time>2026-04-26T09:10:59.933Z</time></trkpt><trkpt lat="44.867445" lon="9.46597"><ele>618.0000000000001</ele><time>2026-04-26T09:11:00.933Z</time></trkpt><trkpt lat="44.8674433" lon="9.465875"><ele>618.0</ele><time>2026-04-26T09:11:01.942Z</time></trkpt><trkpt lat="44.8674383" lon="9.4657683"><ele>619.6666666666666</ele><time>2026-04-26T09:11:02.935Z</time></trkpt><trkpt lat="44.8674333" lon="9.4656517"><ele>621.3333333333334</ele><time>2026-04-26T09:11:03.935Z</time></trkpt><trkpt lat="44.8674333" lon="9.46554"><ele>623.0</ele><time>2026-04-26T09:11:04.933Z</time></trkpt><trkpt lat="44.867435" lon="9.4654433"><ele>624.6666666666667</ele><time>2026-04-26T09:11:05.935Z</time></trkpt><trkpt lat="44.86742" lon="9.46531"><ele>626.3333333333334</ele><time>2026-04-26T09:11:07.934Z</time></trkpt><trkpt lat="44.867345" lon="9.4652267"><ele>628.0</ele><time>2026-04-26T09:11:09.934Z</time></trkpt><trkpt lat="44.8672783" lon="9.4651917"><ele>628.6666666666667</ele><time>2026-04-26T09:11:10.937Z</time></trkpt><trkpt lat="44.8672117" lon="9.4651533"><ele>629.3333333333334</ele><time>2026-04-26T09:11:11.934Z</time></trkpt><trkpt lat="44.867135" lon="9.465115"><ele>630.0</ele><time>2026-04-26T09:11:12.933Z</time></trkpt><trkpt lat="44.8670567" lon="9.4650833"><ele>630.6666666666666</ele><time>2026-04-26T09:11:13.935Z</time></trkpt><trkpt lat="44.8669767" lon="9.4650583"><ele>631.3333333333333</ele><time>2026-04-26T09:11:14.935Z</time></trkpt><trkpt lat="44.8668967" lon="9.465045"><ele>632.0</ele><time>2026-04-26T09:11:15.935Z</time></trkpt><trkpt lat="44.8668133" lon="9.4650267"><ele>634.3333333333333</ele><time>2026-04-26T09:11:16.936Z</time></trkpt><trkpt lat="44.8667317" lon="9.4650017"><ele>636.6666666666666</ele><time>2026-04-26T09:11:17.936Z</time></trkpt><trkpt lat="44.8666533" lon="9.46497"><ele>639.0</ele><time>2026-04-26T09:11:18.935Z</time></trkpt><trkpt lat="44.86657" lon="9.4649367"><ele>641.3333333333334</ele><time>2026-04-26T09:11:19.939Z</time></trkpt><trkpt lat="44.8664917" lon="9.464895"><ele>643.6666666666667</ele><time>2026-04-26T09:11:20.935Z</time></trkpt><trkpt lat="44.866425" lon="9.4648417"><ele>646.0</ele><time>2026-04-26T09:11:21.936Z</time></trkpt><trkpt lat="44.86637" lon="9.4647833"><ele>646.0000000000001</ele><time>2026-04-26T09:11:22.935Z</time></trkpt><trkpt lat="44.8663133" lon="9.464725"><ele>646.0</ele><time>2026-04-26T09:11:23.937Z</time></trkpt><trkpt lat="44.866255" lon="9.4646717"><ele>646.0</ele><time>2026-04-26T09:11:24.934Z</time></trkpt><trkpt lat="44.8661983" lon="9.4646167"><ele>646.0</ele><time>2026-04-26T09:11:25.935Z</time></trkpt><trkpt lat="44.8661467" lon="9.4645533"><ele>646.0</ele><time>2026-04-26T09:11:26.935Z</time></trkpt><trkpt lat="44.8661067" lon="9.4644833"><ele>646.0000000000001</ele><time>2026-04-26T09:11:27.935Z</time></trkpt><trkpt lat="44.8660783" lon="9.4643367"><ele>646.0</ele><time>2026-04-26T09:11:29.933Z</time></trkpt><trkpt lat="44.866085" lon="9.464245"><ele>646.3333333333334</ele><time>2026-04-26T09:11:30.934Z</time></trkpt><trkpt lat="44.8661033" lon="9.4641417"><ele>646.6666666666667</ele><time>2026-04-26T09:11:31.934Z</time></trkpt><trkpt lat="44.8661333" lon="9.4640267"><ele>647.0</ele><time>2026-04-26T09:11:32.936Z</time></trkpt><trkpt lat="44.86617" lon="9.4639117"><ele>647.3333333333334</ele><time>2026-04-26T09:11:33.936Z</time></trkpt><trkpt lat="44.866205" lon="9.4638"><ele>647.6666666666666</ele><time>2026-04-26T09:11:34.936Z</time></trkpt><trkpt lat="44.8662433" lon="9.463675"><ele>648.0</ele><time>2026-04-26T09:11:35.936Z</time></trkpt><trkpt lat="44.8662783" lon="9.4635633"><ele>648.0</ele><time>2026-04-26T09:11:36.936Z</time></trkpt><trkpt lat="44.866285" lon="9.463425"><ele>648.0</ele><time>2026-04-26T09:11:37.936Z</time></trkpt><trkpt lat="44.8662783" lon="9.463285"><ele>648.0</ele><time>2026-04-26T09:11:38.935Z</time></trkpt><trkpt lat="44.86628" lon="9.4631567"><ele>648.0</ele><time>2026-04-26T09:11:39.94Z</time></trkpt><trkpt lat="44.8663" lon="9.4630183"><ele>648.0</ele><time>2026-04-26T09:11:40.934Z</time></trkpt><trkpt lat="44.8663383" lon="9.462875"><ele>649.4</ele><time>2026-04-26T09:11:41.933Z</time></trkpt><trkpt lat="44.86638" lon="9.4627333"><ele>650.8</ele><time>2026-04-26T09:11:42.934Z</time></trkpt><trkpt lat="44.866414" lon="9.4626037"><ele>652.2</ele><time>2026-04-26T09:11:43.935Z</time></trkpt><trkpt lat="44.8664376" lon="9.4624798"><ele>653.6</ele><time>2026-04-26T09:11:44.935Z</time></trkpt><trkpt lat="44.8664481" lon="9.4623632"><ele>655.0</ele><time>2026-04-26T09:11:45.936Z</time></trkpt><trkpt lat="44.866446" lon="9.4622619"><ele>656.5</ele><time>2026-04-26T09:11:46.936Z</time></trkpt><trkpt lat="44.8664147" lon="9.4620978"><ele>658.0</ele><time>2026-04-26T09:11:48.934Z</time></trkpt><trkpt lat="44.86639" lon="9.4620125"><ele>659.5</ele><time>2026-04-26T09:11:49.935Z</time></trkpt><trkpt lat="44.8663723" lon="9.4619148"><ele>661.0</ele><time>2026-04-26T09:11:50.934Z</time></trkpt><trkpt lat="44.866361" lon="9.4618135"><ele>662.5</ele><time>2026-04-26T09:11:51.934Z</time></trkpt><trkpt lat="44.8663632" lon="9.4617098"><ele>664.0</ele><time>2026-04-26T09:11:52.934Z</time></trkpt><trkpt lat="44.866372" lon="9.4615948"><ele>664.0</ele><time>2026-04-26T09:11:53.935Z</time></trkpt><trkpt lat="44.8663796" lon="9.4614768"><ele>664.0</ele><time>2026-04-26T09:11:54.935Z</time></trkpt><trkpt lat="44.8663854" lon="9.4613611"><ele>664.0</ele><time>2026-04-26T09:11:55.936Z</time></trkpt><trkpt lat="44.8663901" lon="9.4612644"><ele>664.0</ele><time>2026-04-26T09:11:56.934Z</time></trkpt><trkpt lat="44.8663603" lon="9.4611201"><ele>664.0</ele><time>2026-04-26T09:11:58.936Z</time></trkpt><trkpt lat="44.8663154" lon="9.4610454"><ele>664.0</ele><time>2026-04-26T09:11:59.934Z</time></trkpt><trkpt lat="44.8662708" lon="9.4609596"><ele>664.0</ele><time>2026-04-26T09:12:00.935Z</time></trkpt><trkpt lat="44.866219" lon="9.4608702"><ele>664.0</ele><time>2026-04-26T09:12:01.935Z</time></trkpt><trkpt lat="44.8661573" lon="9.4607804"><ele>664.0</ele><time>2026-04-26T09:12:02.935Z</time></trkpt><trkpt lat="44.8660871" lon="9.4606922"><ele>664.0</ele><time>2026-04-26T09:12:03.934Z</time></trkpt><trkpt lat="44.8660144" lon="9.4605982"><ele>664.0</ele><time>2026-04-26T09:12:04.936Z</time></trkpt><trkpt lat="44.8659376" lon="9.4605045"><ele>665.6</ele><time>2026-04-26T09:12:05.934Z</time></trkpt><trkpt lat="44.8658562" lon="9.4604138"><ele>667.2</ele><time>2026-04-26T09:12:06.933Z</time></trkpt><trkpt lat="44.8657782" lon="9.4603195"><ele>668.8000000000001</ele><time>2026-04-26T09:12:07.935Z</time></trkpt><trkpt lat="44.865705" lon="9.4602243"><ele>670.4000000000001</ele><time>2026-04-26T09:12:08.934Z</time></trkpt><trkpt lat="44.8656307" lon="9.4601305"><ele>672.0</ele><time>2026-04-26T09:12:09.934Z</time></trkpt><trkpt lat="44.8655546" lon="9.4600409"><ele>672.0</ele><time>2026-04-26T09:12:10.938Z</time></trkpt><trkpt lat="44.8654792" lon="9.4599584"><ele>672.0</ele><time>2026-04-26T09:12:11.937Z</time></trkpt><trkpt lat="44.865408" lon="9.4598813"><ele>672.0</ele><time>2026-04-26T09:12:12.934Z</time></trkpt><trkpt lat="44.865338" lon="9.4598058"><ele>672.0</ele><time>2026-04-26T09:12:13.935Z</time></trkpt><trkpt lat="44.8652631" lon="9.4597308"><ele>672.0</ele><time>2026-04-26T09:12:14.934Z</time></trkpt><trkpt lat="44.8651866" lon="9.4596589"><ele>671.3333333333334</ele><time>2026-04-26T09:12:15.934Z</time></trkpt><trkpt lat="44.8651151" lon="9.4595884"><ele>670.6666666666666</ele><time>2026-04-26T09:12:16.934Z</time></trkpt><trkpt lat="44.8650491" lon="9.4595179"><ele>670.0</ele><time>2026-04-26T09:12:17.942Z</time></trkpt><trkpt lat="44.8649906" lon="9.4594421"><ele>669.3333333333333</ele><time>2026-04-26T09:12:18.936Z</time></trkpt><trkpt lat="44.8649359" lon="9.4593721"><ele>668.6666666666666</ele><time>2026-04-26T09:12:19.935Z</time></trkpt><trkpt lat="44.8648794" lon="9.4593083"><ele>668.0</ele><time>2026-04-26T09:12:20.936Z</time></trkpt><trkpt lat="44.8648211" lon="9.4592503"><ele>671.1666666666666</ele><time>2026-04-26T09:12:21.935Z</time></trkpt><trkpt lat="44.8647597" lon="9.4591912"><ele>674.3333333333333</ele><time>2026-04-26T09:12:22.936Z</time></trkpt><trkpt lat="44.8646964" lon="9.459128"><ele>677.5</ele><time>2026-04-26T09:12:23.936Z</time></trkpt><trkpt lat="44.8646314" lon="9.459063"><ele>680.6666666666666</ele><time>2026-04-26T09:12:24.934Z</time></trkpt><trkpt lat="44.8645692" lon="9.4589962"><ele>683.8333333333334</ele><time>2026-04-26T09:12:25.934Z</time></trkpt><trkpt lat="44.8645155" lon="9.4589311"><ele>687.0</ele><time>2026-04-26T09:12:26.937Z</time></trkpt><trkpt lat="44.8644279" lon="9.4587986"><ele>687.5</ele><time>2026-04-26T09:12:28.936Z</time></trkpt><trkpt lat="44.8643863" lon="9.4587297"><ele>688.0</ele><time>2026-04-26T09:12:29.934Z</time></trkpt><trkpt lat="44.8643433" lon="9.4586543"><ele>688.5</ele><time>2026-04-26T09:12:30.936Z</time></trkpt><trkpt lat="44.8643042" lon="9.4585691"><ele>689.0</ele><time>2026-04-26T09:12:31.935Z</time></trkpt><trkpt lat="44.8642717" lon="9.4584733"><ele>689.5</ele><time>2026-04-26T09:12:32.936Z</time></trkpt><trkpt lat="44.8642283" lon="9.45837"><ele>690.0</ele><time>2026-04-26T09:12:33.939Z</time></trkpt><trkpt lat="44.8641833" lon="9.4582667"><ele>694.3333333333334</ele><time>2026-04-26T09:12:34.935Z</time></trkpt><trkpt lat="44.864135" lon="9.45816"><ele>698.6666666666666</ele><time>2026-04-26T09:12:35.935Z</time></trkpt><trkpt lat="44.8640917" lon="9.458045"><ele>703.0</ele><time>2026-04-26T09:12:36.937Z</time></trkpt><trkpt lat="44.8640417" lon="9.4579283"><ele>707.3333333333333</ele><time>2026-04-26T09:12:37.935Z</time></trkpt><trkpt lat="44.8640067" lon="9.4578283"><ele>711.6666666666666</ele><time>2026-04-26T09:12:38.94Z</time></trkpt><trkpt lat="44.8639733" lon="9.4577383"><ele>716.0</ele><time>2026-04-26T09:12:39.934Z</time></trkpt><trkpt lat="44.8639383" lon="9.4576567"><ele>716.0</ele><time>2026-04-26T09:12:40.933Z</time></trkpt><trkpt lat="44.8639067" lon="9.457575"><ele>716.0</ele><time>2026-04-26T09:12:41.934Z</time></trkpt><trkpt lat="44.863865" lon="9.4574883"><ele>716.0</ele><time>2026-04-26T09:12:42.935Z</time></trkpt><trkpt lat="44.8638283" lon="9.4574117"><ele>716.0</ele><time>2026-04-26T09:12:43.935Z</time></trkpt><trkpt lat="44.8637883" lon="9.4573417"><ele>716.0</ele><time>2026-04-26T09:12:44.935Z</time></trkpt><trkpt lat="44.86369" lon="9.4572517"><ele>716.0</ele><time>2026-04-26T09:12:46.934Z</time></trkpt><trkpt lat="44.86363" lon="9.4572217"><ele>716.0</ele><time>2026-04-26T09:12:47.939Z</time></trkpt><trkpt lat="44.863515" lon="9.45719"><ele>716.0</ele><time>2026-04-26T09:12:49.935Z</time></trkpt><trkpt lat="44.86345" lon="9.4571917"><ele>716.0</ele><time>2026-04-26T09:12:50.936Z</time></trkpt><trkpt lat="44.8633817" lon="9.4571817"><ele>716.0</ele><time>2026-04-26T09:12:51.934Z</time></trkpt><trkpt lat="44.8633017" lon="9.4571633"><ele>716.0</ele><time>2026-04-26T09:12:52.935Z</time></trkpt><trkpt lat="44.8632167" lon="9.4571433"><ele>716.0</ele><time>2026-04-26T09:12:53.935Z</time></trkpt><trkpt lat="44.8631383" lon="9.45712"><ele>718.6666666666666</ele><time>2026-04-26T09:12:54.934Z</time></trkpt><trkpt lat="44.8630567" lon="9.4570933"><ele>721.3333333333333</ele><time>2026-04-26T09:12:55.935Z</time></trkpt><trkpt lat="44.8629733" lon="9.4570783"><ele>724.0</ele><time>2026-04-26T09:12:56.935Z</time></trkpt><trkpt lat="44.862895" lon="9.4570667"><ele>726.6666666666666</ele><time>2026-04-26T09:12:57.94Z</time></trkpt><trkpt lat="44.862815" lon="9.4570533"><ele>729.3333333333334</ele><time>2026-04-26T09:12:58.935Z</time></trkpt><trkpt lat="44.8627417" lon="9.4570283"><ele>732.0</ele><time>2026-04-26T09:12:59.935Z</time></trkpt><trkpt lat="44.8626617" lon="9.4569933"><ele>733.8333333333334</ele><time>2026-04-26T09:13:00.936Z</time></trkpt><trkpt lat="44.8625833" lon="9.4569667"><ele>735.6666666666666</ele><time>2026-04-26T09:13:01.935Z</time></trkpt><trkpt lat="44.8624933" lon="9.45695"><ele>737.5</ele><time>2026-04-26T09:13:02.935Z</time></trkpt><trkpt lat="44.8624083" lon="9.4569267"><ele>739.3333333333333</ele><time>2026-04-26T09:13:03.936Z</time></trkpt><trkpt lat="44.8623183" lon="9.456905"><ele>741.1666666666666</ele><time>2026-04-26T09:13:04.935Z</time></trkpt><trkpt lat="44.86223" lon="9.4568767"><ele>743.0</ele><time>2026-04-26T09:13:05.933Z</time></trkpt><trkpt lat="44.8621417" lon="9.456845"><ele>743.0</ele><time>2026-04-26T09:13:06.935Z</time></trkpt><trkpt lat="44.8620683" lon="9.456805"><ele>743.0</ele><time>2026-04-26T09:13:07.935Z</time></trkpt><trkpt lat="44.8620033" lon="9.456755"><ele>743.0</ele><time>2026-04-26T09:13:08.937Z</time></trkpt><trkpt lat="44.861945" lon="9.4566917"><ele>743.0</ele><time>2026-04-26T09:13:09.935Z</time></trkpt><trkpt lat="44.8618833" lon="9.4566333"><ele>743.0</ele><time>2026-04-26T09:13:10.937Z</time></trkpt><trkpt lat="44.861815" lon="9.4565733"><ele>743.0</ele><time>2026-04-26T09:13:11.934Z</time></trkpt><trkpt lat="44.861745" lon="9.4565083"><ele>742.6666666666666</ele><time>2026-04-26T09:13:12.933Z</time></trkpt><trkpt lat="44.8616783" lon="9.4564617"><ele>742.3333333333333</ele><time>2026-04-26T09:13:13.933Z</time></trkpt><trkpt lat="44.861605" lon="9.45643"><ele>742.0</ele><time>2026-04-26T09:13:14.934Z</time></trkpt><trkpt lat="44.8615283" lon="9.4564017"><ele>741.6666666666666</ele><time>2026-04-26T09:13:15.934Z</time></trkpt><trkpt lat="44.8614483" lon="9.45639"><ele>741.3333333333334</ele><time>2026-04-26T09:13:16.934Z</time></trkpt><trkpt lat="44.86137" lon="9.4563883"><ele>741.0</ele><time>2026-04-26T09:13:17.934Z</time></trkpt><trkpt lat="44.86129" lon="9.456385"><ele>741.0</ele><time>2026-04-26T09:13:18.94Z</time></trkpt><trkpt lat="44.861205" lon="9.4563667"><ele>741.0</ele><time>2026-04-26T09:13:19.937Z</time></trkpt><trkpt lat="44.861125" lon="9.4563483"><ele>741.0</ele><time>2026-04-26T09:13:20.938Z</time></trkpt><trkpt lat="44.861055" lon="9.4563433"><ele>741.0</ele><time>2026-04-26T09:13:21.934Z</time></trkpt><trkpt lat="44.8609895" lon="9.4563525"><ele>741.0</ele><time>2026-04-26T09:13:22.934Z</time></trkpt><trkpt lat="44.8609248" lon="9.4563893"><ele>741.0</ele><time>2026-04-26T09:13:23.934Z</time></trkpt><trkpt lat="44.8608641" lon="9.4564399"><ele>741.0</ele><time>2026-04-26T09:13:24.935Z</time></trkpt><trkpt lat="44.8608057" lon="9.4564839"><ele>741.0</ele><time>2026-04-26T09:13:25.935Z</time></trkpt><trkpt lat="44.8607449" lon="9.4565204"><ele>741.0</ele><time>2026-04-26T09:13:26.936Z</time></trkpt><trkpt lat="44.8606835" lon="9.4565537"><ele>741.0</ele><time>2026-04-26T09:13:27.934Z</time></trkpt><trkpt lat="44.860616" lon="9.4565903"><ele>741.0</ele><time>2026-04-26T09:13:28.935Z</time></trkpt><trkpt lat="44.8605396" lon="9.4566254"><ele>741.0</ele><time>2026-04-26T09:13:29.935Z</time></trkpt><trkpt lat="44.8604619" lon="9.4566596"><ele>741.0</ele><time>2026-04-26T09:13:30.935Z</time></trkpt><trkpt lat="44.8603877" lon="9.4566948"><ele>741.0</ele><time>2026-04-26T09:13:31.935Z</time></trkpt><trkpt lat="44.8603215" lon="9.4567318"><ele>741.0</ele><time>2026-04-26T09:13:32.935Z</time></trkpt><trkpt lat="44.8602616" lon="9.4567653"><ele>741.0</ele><time>2026-04-26T09:13:33.941Z</time></trkpt><trkpt lat="44.86015" lon="9.4568188"><ele>741.0</ele><time>2026-04-26T09:13:35.936Z</time></trkpt><trkpt lat="44.8600447" lon="9.4568453"><ele>741.0</ele><time>2026-04-26T09:13:37.933Z</time></trkpt><trkpt lat="44.8599712" lon="9.4568515"><ele>741.0</ele><time>2026-04-26T09:13:39.935Z</time></trkpt><trkpt lat="44.8598813" lon="9.4568559"><ele>741.5999999999999</ele><time>2026-04-26T09:13:41.933Z</time></trkpt><trkpt lat="44.859761" lon="9.4568491"><ele>742.2</ele><time>2026-04-26T09:13:43.933Z</time></trkpt><trkpt lat="44.8596958" lon="9.4568371"><ele>742.8</ele><time>2026-04-26T09:13:44.935Z</time></trkpt><trkpt lat="44.8595717" lon="9.456825"><ele>743.4000000000001</ele><time>2026-04-26T09:13:46.933Z</time></trkpt><trkpt lat="44.8594467" lon="9.4568286"><ele>744.0</ele><time>2026-04-26T09:13:48.933Z</time></trkpt><trkpt lat="44.8593234" lon="9.4568202"><ele>745.7142857142858</ele><time>2026-04-26T09:13:50.934Z</time></trkpt><trkpt lat="44.8592586" lon="9.4568055"><ele>747.4285714285714</ele><time>2026-04-26T09:13:51.933Z</time></trkpt><trkpt lat="44.8591953" lon="9.4567887"><ele>749.1428571428571</ele><time>2026-04-26T09:13:52.934Z</time></trkpt><trkpt lat="44.859114" lon="9.4567875"><ele>750.8571428571429</ele><time>2026-04-26T09:13:54.934Z</time></trkpt><trkpt lat="44.8590351" lon="9.4567852"><ele>752.5714285714286</ele><time>2026-04-26T09:13:56.935Z</time></trkpt><trkpt lat="44.8589647" lon="9.4567882"><ele>754.2857142857143</ele><time>2026-04-26T09:13:57.936Z</time></trkpt><trkpt lat="44.85888" lon="9.4567883"><ele>756.0</ele><time>2026-04-26T09:13:58.933Z</time></trkpt><trkpt lat="44.858805" lon="9.4567867"><ele>756.0</ele><time>2026-04-26T09:13:59.934Z</time></trkpt><trkpt lat="44.8587333" lon="9.4568017"><ele>756.0</ele><time>2026-04-26T09:14:00.934Z</time></trkpt><trkpt lat="44.8586317" lon="9.4568133"><ele>756.0</ele><time>2026-04-26T09:14:02.936Z</time></trkpt><trkpt lat="44.85856" lon="9.456785"><ele>756.0</ele><time>2026-04-26T09:14:04.934Z</time></trkpt><trkpt lat="44.85849" lon="9.4566817"><ele>756.0</ele><time>2026-04-26T09:14:06.936Z</time></trkpt><trkpt lat="44.858435" lon="9.4565217"><ele>757.1428571428571</ele><time>2026-04-26T09:14:08.937Z</time></trkpt><trkpt lat="44.85841" lon="9.4564383"><ele>758.2857142857142</ele><time>2026-04-26T09:14:09.934Z</time></trkpt><trkpt lat="44.8583783" lon="9.4563567"><ele>759.4285714285714</ele><time>2026-04-26T09:14:10.934Z</time></trkpt><trkpt lat="44.858345" lon="9.4562683"><ele>760.5714285714286</ele><time>2026-04-26T09:14:11.932Z</time></trkpt><trkpt lat="44.8583083" lon="9.45617"><ele>761.7142857142857</ele><time>2026-04-26T09:14:12.937Z</time></trkpt><trkpt lat="44.8582733" lon="9.4560717"><ele>762.8571428571429</ele><time>2026-04-26T09:14:13.933Z</time></trkpt><trkpt lat="44.858245" lon="9.4559867"><ele>764.0</ele><time>2026-04-26T09:14:14.935Z</time></trkpt><trkpt lat="44.8581917" lon="9.45587"><ele>766.4000000000001</ele><time>2026-04-26T09:14:16.933Z</time></trkpt><trkpt lat="44.8581183" lon="9.4557883"><ele>768.8</ele><time>2026-04-26T09:14:18.934Z</time></trkpt><trkpt lat="44.858015" lon="9.4557167"><ele>771.2</ele><time>2026-04-26T09:14:20.933Z</time></trkpt><trkpt lat="44.8578968" lon="9.4556624"><ele>773.5999999999999</ele><time>2026-04-26T09:14:22.933Z</time></trkpt><trkpt lat="44.8578286" lon="9.4556762"><ele>776.0</ele><time>2026-04-26T09:14:23.935Z</time></trkpt><trkpt lat="44.8577512" lon="9.4557028"><ele>776.0</ele><time>2026-04-26T09:14:24.939Z</time></trkpt><trkpt lat="44.8576759" lon="9.4557223"><ele>776.0</ele><time>2026-04-26T09:14:25.934Z</time></trkpt><trkpt lat="44.8576042" lon="9.4557366"><ele>776.0</ele><time>2026-04-26T09:14:26.934Z</time></trkpt><trkpt lat="44.8575277" lon="9.4557538"><ele>776.0</ele><time>2026-04-26T09:14:27.934Z</time></trkpt><trkpt lat="44.857449" lon="9.455765"><ele>776.0</ele><time>2026-04-26T09:14:28.934Z</time></trkpt><trkpt lat="44.8573786" lon="9.455761"><ele>776.0</ele><time>2026-04-26T09:14:29.934Z</time></trkpt><trkpt lat="44.8573115" lon="9.455757"><ele>776.0</ele><time>2026-04-26T09:14:30.935Z</time></trkpt><trkpt lat="44.85722" lon="9.4557113"><ele>774.8</ele><time>2026-04-26T09:14:32.934Z</time></trkpt><trkpt lat="44.8571178" lon="9.4557214"><ele>773.5999999999999</ele><time>2026-04-26T09:18:31.933Z</time></trkpt><trkpt lat="44.8570154" lon="9.4557401"><ele>772.4</ele><time>2026-04-26T09:18:33.935Z</time></trkpt><trkpt lat="44.8569386" lon="9.4557368"><ele>771.2</ele><time>2026-04-26T09:18:34.935Z</time></trkpt><trkpt lat="44.8568485" lon="9.4557387"><ele>770.0</ele><time>2026-04-26T09:18:35.935Z</time></trkpt><trkpt lat="44.8567382" lon="9.455745"><ele>768.25</ele><time>2026-04-26T09:18:36.936Z</time></trkpt><trkpt lat="44.8566147" lon="9.4557531"><ele>766.5</ele><time>2026-04-26T09:18:37.934Z</time></trkpt><trkpt lat="44.8564814" lon="9.4557626"><ele>764.75</ele><time>2026-04-26T09:18:38.935Z</time></trkpt><trkpt lat="44.8563478" lon="9.4557699"><ele>763.0</ele><time>2026-04-26T09:18:39.934Z</time></trkpt><trkpt lat="44.8562193" lon="9.4557772"><ele>763.0</ele><time>2026-04-26T09:18:40.935Z</time></trkpt><trkpt lat="44.8560909" lon="9.4557796"><ele>763.0</ele><time>2026-04-26T09:18:41.935Z</time></trkpt><trkpt lat="44.8559612" lon="9.4557802"><ele>763.0</ele><time>2026-04-26T09:18:42.935Z</time></trkpt><trkpt lat="44.8558337" lon="9.4557759"><ele>763.0</ele><time>2026-04-26T09:18:43.934Z</time></trkpt><trkpt lat="44.8557111" lon="9.4557609"><ele>760.8</ele><time>2026-04-26T09:18:44.935Z</time></trkpt><trkpt lat="44.855597" lon="9.4557537"><ele>758.5999999999999</ele><time>2026-04-26T09:18:45.935Z</time></trkpt><trkpt lat="44.8554909" lon="9.4557645"><ele>756.4000000000001</ele><time>2026-04-26T09:18:46.933Z</time></trkpt><trkpt lat="44.8553878" lon="9.4557973"><ele>754.2</ele><time>2026-04-26T09:18:47.935Z</time></trkpt><trkpt lat="44.8552884" lon="9.4558388"><ele>752.0</ele><time>2026-04-26T09:18:48.937Z</time></trkpt><trkpt lat="44.8551881" lon="9.4558632"><ele>750.5</ele><time>2026-04-26T09:18:49.936Z</time></trkpt><trkpt lat="44.8550963" lon="9.4558665"><ele>749.0</ele><time>2026-04-26T09:18:50.939Z</time></trkpt><trkpt lat="44.8550107" lon="9.4558719"><ele>747.5</ele><time>2026-04-26T09:18:51.936Z</time></trkpt><trkpt lat="44.8549366" lon="9.4559091"><ele>746.0</ele><time>2026-04-26T09:18:52.937Z</time></trkpt><trkpt lat="44.8548785" lon="9.4559791"><ele>744.5</ele><time>2026-04-26T09:18:53.937Z</time></trkpt><trkpt lat="44.8548403" lon="9.4560943"><ele>743.0</ele><time>2026-04-26T09:18:54.934Z</time></trkpt><trkpt lat="44.8548143" lon="9.4562362"><ele>743.0</ele><time>2026-04-26T09:18:55.938Z</time></trkpt><trkpt lat="44.8547803" lon="9.4563576"><ele>743.0</ele><time>2026-04-26T09:18:56.935Z</time></trkpt><trkpt lat="44.8547287" lon="9.4564414"><ele>743.0</ele><time>2026-04-26T09:18:57.933Z</time></trkpt><trkpt lat="44.8546643" lon="9.4564667"><ele>743.0</ele><time>2026-04-26T09:18:58.938Z</time></trkpt><trkpt lat="44.8545937" lon="9.4564348"><ele>743.0</ele><time>2026-04-26T09:18:59.935Z</time></trkpt><trkpt lat="44.8545173" lon="9.456362"><ele>743.0</ele><time>2026-04-26T09:19:00.939Z</time></trkpt><trkpt lat="44.8544203" lon="9.4562397"><ele>743.0</ele><time>2026-04-26T09:19:01.934Z</time></trkpt><trkpt lat="44.8543103" lon="9.4561097"><ele>743.0</ele><time>2026-04-26T09:19:02.934Z</time></trkpt><trkpt lat="44.8541958" lon="9.4559836"><ele>743.0</ele><time>2026-04-26T09:19:03.933Z</time></trkpt><trkpt lat="44.8540836" lon="9.4558648"><ele>743.0</ele><time>2026-04-26T09:19:04.933Z</time></trkpt><trkpt lat="44.8539805" lon="9.4557446"><ele>739.75</ele><time>2026-04-26T09:19:05.933Z</time></trkpt><trkpt lat="44.8538858" lon="9.4556193"><ele>736.5</ele><time>2026-04-26T09:19:06.933Z</time></trkpt><trkpt lat="44.853799" lon="9.4554949"><ele>733.25</ele><time>2026-04-26T09:19:07.937Z</time></trkpt><trkpt lat="44.8537129" lon="9.4553843"><ele>730.0</ele><time>2026-04-26T09:19:08.934Z</time></trkpt><trkpt lat="44.8536312" lon="9.4552822"><ele>729.4</ele><time>2026-04-26T09:19:09.936Z</time></trkpt><trkpt lat="44.8535606" lon="9.4551761"><ele>728.8</ele><time>2026-04-26T09:19:10.933Z</time></trkpt><trkpt lat="44.8535121" lon="9.4550588"><ele>728.2</ele><time>2026-04-26T09:19:11.933Z</time></trkpt><trkpt lat="44.8534921" lon="9.4549205"><ele>727.6</ele><time>2026-04-26T09:19:12.937Z</time></trkpt><trkpt lat="44.8534951" lon="9.4547662"><ele>727.0</ele><time>2026-04-26T09:19:13.933Z</time></trkpt><trkpt lat="44.8535132" lon="9.454609"><ele>725.5</ele><time>2026-04-26T09:19:14.933Z</time></trkpt><trkpt lat="44.8535441" lon="9.4544664"><ele>724.0</ele><time>2026-04-26T09:19:15.933Z</time></trkpt><trkpt lat="44.8535765" lon="9.4543483"><ele>722.5</ele><time>2026-04-26T09:19:16.933Z</time></trkpt><trkpt lat="44.8535989" lon="9.4542494"><ele>721.0</ele><time>2026-04-26T09:19:17.933Z</time></trkpt><trkpt lat="44.8535785" lon="9.4541321"><ele>719.5</ele><time>2026-04-26T09:19:19.933Z</time></trkpt><trkpt lat="44.8535" lon="9.4541533"><ele>718.0</ele><time>2026-04-26T09:19:21.935Z</time></trkpt><trkpt lat="44.853435" lon="9.4542333"><ele>716.4</ele><time>2026-04-26T09:19:28.935Z</time></trkpt><trkpt lat="44.853405" lon="9.4543167"><ele>714.8</ele><time>2026-04-26T09:19:29.933Z</time></trkpt><trkpt lat="44.853355" lon="9.4544317"><ele>713.2</ele><time>2026-04-26T09:19:30.932Z</time></trkpt><trkpt lat="44.8532817" lon="9.4545583"><ele>711.6</ele><time>2026-04-26T09:19:31.938Z</time></trkpt><trkpt lat="44.8532033" lon="9.4546917"><ele>710.0</ele><time>2026-04-26T09:19:32.933Z</time></trkpt><trkpt lat="44.8531167" lon="9.4548383"><ele>710.0</ele><time>2026-04-26T09:19:33.934Z</time></trkpt><trkpt lat="44.85302" lon="9.4549817"><ele>710.0</ele><time>2026-04-26T09:19:34.934Z</time></trkpt><trkpt lat="44.8529117" lon="9.455095"><ele>710.0</ele><time>2026-04-26T09:19:35.933Z</time></trkpt><trkpt lat="44.85278" lon="9.4551667"><ele>710.0</ele><time>2026-04-26T09:19:36.933Z</time></trkpt><trkpt lat="44.8526333" lon="9.4552033"><ele>706.0</ele><time>2026-04-26T09:19:37.934Z</time></trkpt><trkpt lat="44.8524867" lon="9.4552283"><ele>702.0</ele><time>2026-04-26T09:19:38.935Z</time></trkpt><trkpt lat="44.8523467" lon="9.4552533"><ele>698.0</ele><time>2026-04-26T09:19:39.933Z</time></trkpt><trkpt lat="44.852215" lon="9.4552767"><ele>694.0</ele><time>2026-04-26T09:19:40.934Z</time></trkpt><trkpt lat="44.85209" lon="9.455295"><ele>694.0</ele><time>2026-04-26T09:19:41.935Z</time></trkpt><trkpt lat="44.8519633" lon="9.455315"><ele>694.0</ele><time>2026-04-26T09:19:42.94Z</time></trkpt><trkpt lat="44.8518333" lon="9.4553567"><ele>694.0</ele><time>2026-04-26T09:19:43.933Z</time></trkpt><trkpt lat="44.8517033" lon="9.4554167"><ele>694.0</ele><time>2026-04-26T09:19:44.934Z</time></trkpt><trkpt lat="44.8515733" lon="9.4554733"><ele>692.5</ele><time>2026-04-26T09:19:45.933Z</time></trkpt><trkpt lat="44.8514417" lon="9.455515"><ele>691.0</ele><time>2026-04-26T09:19:46.932Z</time></trkpt><trkpt lat="44.85131" lon="9.455555"><ele>689.5</ele><time>2026-04-26T09:19:47.933Z</time></trkpt><trkpt lat="44.8511817" lon="9.4556017"><ele>688.0</ele><time>2026-04-26T09:19:48.934Z</time></trkpt><trkpt lat="44.8510567" lon="9.4556533"><ele>685.75</ele><time>2026-04-26T09:19:49.934Z</time></trkpt><trkpt lat="44.8509383" lon="9.4557083"><ele>683.5</ele><time>2026-04-26T09:19:50.941Z</time></trkpt><trkpt lat="44.850825" lon="9.4557683"><ele>681.25</ele><time>2026-04-26T09:19:51.934Z</time></trkpt><trkpt lat="44.850725" lon="9.4558467"><ele>679.0</ele><time>2026-04-26T09:19:52.933Z</time></trkpt><trkpt lat="44.850635" lon="9.4559483"><ele>679.0</ele><time>2026-04-26T09:19:53.934Z</time></trkpt><trkpt lat="44.850545" lon="9.4560667"><ele>679.0</ele><time>2026-04-26T09:19:54.933Z</time></trkpt><trkpt lat="44.8504567" lon="9.4561967"><ele>679.0</ele><time>2026-04-26T09:19:55.934Z</time></trkpt><trkpt lat="44.850365" lon="9.4563283"><ele>679.0</ele><time>2026-04-26T09:19:56.935Z</time></trkpt><trkpt lat="44.85027" lon="9.4564583"><ele>677.5</ele><time>2026-04-26T09:19:57.938Z</time></trkpt><trkpt lat="44.8501733" lon="9.4565917"><ele>676.0</ele><time>2026-04-26T09:19:58.934Z</time></trkpt><trkpt lat="44.8500783" lon="9.45673"><ele>674.5</ele><time>2026-04-26T09:19:59.933Z</time></trkpt><trkpt lat="44.849985" lon="9.4568767"><ele>673.0</ele><time>2026-04-26T09:20:00.933Z</time></trkpt><trkpt lat="44.8498983" lon="9.4570317"><ele>673.0</ele><time>2026-04-26T09:20:01.934Z</time></trkpt><trkpt lat="44.8498217" lon="9.4572"><ele>673.0</ele><time>2026-04-26T09:20:02.933Z</time></trkpt><trkpt lat="44.8497567" lon="9.45738"><ele>673.0</ele><time>2026-04-26T09:20:03.933Z</time></trkpt><trkpt lat="44.8497" lon="9.457565"><ele>673.0</ele><time>2026-04-26T09:20:04.933Z</time></trkpt><trkpt lat="44.8496533" lon="9.457755"><ele>673.0</ele><time>2026-04-26T09:20:05.933Z</time></trkpt><trkpt lat="44.8496067" lon="9.4579283"><ele>673.0</ele><time>2026-04-26T09:20:06.934Z</time></trkpt><trkpt lat="44.8495517" lon="9.458095"><ele>673.0</ele><time>2026-04-26T09:20:07.934Z</time></trkpt><trkpt lat="44.8494833" lon="9.458245"><ele>673.0</ele><time>2026-04-26T09:20:08.938Z</time></trkpt><trkpt lat="44.84939" lon="9.4584"><ele>672.0</ele><time>2026-04-26T09:20:09.935Z</time></trkpt><trkpt lat="44.8492933" lon="9.4585617"><ele>671.0</ele><time>2026-04-26T09:20:10.933Z</time></trkpt><trkpt lat="44.84919" lon="9.4587333"><ele>670.0</ele><time>2026-04-26T09:20:11.933Z</time></trkpt><trkpt lat="44.84909" lon="9.4589133"><ele>669.0</ele><time>2026-04-26T09:20:12.933Z</time></trkpt><trkpt lat="44.8489983" lon="9.4591"><ele>668.0</ele><time>2026-04-26T09:20:13.94Z</time></trkpt><trkpt lat="44.848915" lon="9.4592983"><ele>667.0</ele><time>2026-04-26T09:20:14.934Z</time></trkpt><trkpt lat="44.8488467" lon="9.4595033"><ele>665.6666666666667</ele><time>2026-04-26T09:20:15.933Z</time></trkpt><trkpt lat="44.848805" lon="9.4597117"><ele>664.3333333333334</ele><time>2026-04-26T09:20:16.934Z</time></trkpt><trkpt lat="44.848785" lon="9.45993"><ele>663.0</ele><time>2026-04-26T09:20:17.934Z</time></trkpt><trkpt lat="44.8487767" lon="9.4601467"><ele>663.0</ele><time>2026-04-26T09:20:18.934Z</time></trkpt><trkpt lat="44.84876" lon="9.460355"><ele>663.0</ele><time>2026-04-26T09:20:19.934Z</time></trkpt><trkpt lat="44.848725" lon="9.4605533"><ele>663.0</ele><time>2026-04-26T09:20:20.934Z</time></trkpt><trkpt lat="44.848685" lon="9.460755"><ele>663.0</ele><time>2026-04-26T09:20:21.935Z</time></trkpt><trkpt lat="44.84865" lon="9.46096"><ele>661.3333333333334</ele><time>2026-04-26T09:20:22.934Z</time></trkpt><trkpt lat="44.848615" lon="9.46117"><ele>659.6666666666667</ele><time>2026-04-26T09:20:23.934Z</time></trkpt><trkpt lat="44.84858" lon="9.46138"><ele>658.0</ele><time>2026-04-26T09:20:24.933Z</time></trkpt><trkpt lat="44.84855" lon="9.4615833"><ele>657.3333333333334</ele><time>2026-04-26T09:20:25.934Z</time></trkpt><trkpt lat="44.8485183" lon="9.4617867"><ele>656.6666666666666</ele><time>2026-04-26T09:20:26.94Z</time></trkpt><trkpt lat="44.8484917" lon="9.461995"><ele>656.0</ele><time>2026-04-26T09:20:27.934Z</time></trkpt><trkpt lat="44.848465" lon="9.4622083"><ele>658.0</ele><time>2026-04-26T09:20:28.934Z</time></trkpt><trkpt lat="44.8484367" lon="9.4624183"><ele>660.0</ele><time>2026-04-26T09:20:29.935Z</time></trkpt><trkpt lat="44.8484033" lon="9.4626283"><ele>662.0</ele><time>2026-04-26T09:20:30.933Z</time></trkpt><trkpt lat="44.8483683" lon="9.4628367"><ele>662.5</ele><time>2026-04-26T09:20:31.939Z</time></trkpt><trkpt lat="44.84833" lon="9.4630417"><ele>663.0</ele><time>2026-04-26T09:20:32.933Z</time></trkpt><trkpt lat="44.848265" lon="9.4632267"><ele>663.5</ele><time>2026-04-26T09:20:33.933Z</time></trkpt><trkpt lat="44.8481817" lon="9.4633933"><ele>664.0</ele><time>2026-04-26T09:20:34.934Z</time></trkpt><trkpt lat="44.8480933" lon="9.46355"><ele>664.0</ele><time>2026-04-26T09:20:35.935Z</time></trkpt><trkpt lat="44.8480117" lon="9.46371"><ele>664.0</ele><time>2026-04-26T09:20:36.937Z</time></trkpt><trkpt lat="44.8479367" lon="9.46388"><ele>664.0</ele><time>2026-04-26T09:20:37.935Z</time></trkpt><trkpt lat="44.84787" lon="9.4640483"><ele>664.0</ele><time>2026-04-26T09:20:38.935Z</time></trkpt><trkpt lat="44.8478117" lon="9.4642067"><ele>664.0</ele><time>2026-04-26T09:20:39.933Z</time></trkpt><trkpt lat="44.8477567" lon="9.4643533"><ele>664.0</ele><time>2026-04-26T09:20:40.934Z</time></trkpt><trkpt lat="44.847705" lon="9.4644967"><ele>664.0</ele><time>2026-04-26T09:20:41.94Z</time></trkpt><trkpt lat="44.8476567" lon="9.4646383"><ele>664.0</ele><time>2026-04-26T09:20:42.933Z</time></trkpt><trkpt lat="44.8476033" lon="9.4647617"><ele>664.0</ele><time>2026-04-26T09:20:43.933Z</time></trkpt><trkpt lat="44.8475383" lon="9.46486"><ele>664.0</ele><time>2026-04-26T09:20:44.935Z</time></trkpt><trkpt lat="44.84746" lon="9.4649433"><ele>664.0</ele><time>2026-04-26T09:20:45.933Z</time></trkpt><trkpt lat="44.8473817" lon="9.465035"><ele>664.0</ele><time>2026-04-26T09:20:46.936Z</time></trkpt><trkpt lat="44.8473033" lon="9.4651433"><ele>664.0</ele><time>2026-04-26T09:20:47.934Z</time></trkpt><trkpt lat="44.847215" lon="9.4652583"><ele>664.0</ele><time>2026-04-26T09:20:48.934Z</time></trkpt><trkpt lat="44.8471133" lon="9.4653667"><ele>663.25</ele><time>2026-04-26T09:20:49.934Z</time></trkpt><trkpt lat="44.8470033" lon="9.465475"><ele>662.5</ele><time>2026-04-26T09:20:50.934Z</time></trkpt><trkpt lat="44.84689" lon="9.46558"><ele>661.75</ele><time>2026-04-26T09:20:51.934Z</time></trkpt><trkpt lat="44.8467767" lon="9.46567"><ele>661.0</ele><time>2026-04-26T09:20:52.933Z</time></trkpt><trkpt lat="44.846665" lon="9.4657367"><ele>661.0</ele><time>2026-04-26T09:20:53.934Z</time></trkpt><trkpt lat="44.8465717" lon="9.4657967"><ele>661.0</ele><time>2026-04-26T09:20:54.939Z</time></trkpt><trkpt lat="44.8464867" lon="9.4658667"><ele>661.0</ele><time>2026-04-26T09:20:55.933Z</time></trkpt><trkpt lat="44.8464183" lon="9.465965"><ele>661.0</ele><time>2026-04-26T09:20:56.933Z</time></trkpt><trkpt lat="44.8463583" lon="9.466095"><ele>661.0</ele><time>2026-04-26T09:20:57.933Z</time></trkpt><trkpt lat="44.84629" lon="9.4662283"><ele>659.75</ele><time>2026-04-26T09:20:58.933Z</time></trkpt><trkpt lat="44.8462" lon="9.4663517"><ele>658.5</ele><time>2026-04-26T09:20:59.933Z</time></trkpt><trkpt lat="44.8460983" lon="9.466455"><ele>657.25</ele><time>2026-04-26T09:21:00.933Z</time></trkpt><trkpt lat="44.8460067" lon="9.4665433"><ele>656.0</ele><time>2026-04-26T09:21:01.933Z</time></trkpt><trkpt lat="44.8459367" lon="9.466645"><ele>656.0</ele><time>2026-04-26T09:21:02.934Z</time></trkpt><trkpt lat="44.845885" lon="9.4667683"><ele>656.0</ele><time>2026-04-26T09:21:03.933Z</time></trkpt><trkpt lat="44.845835" lon="9.4669117"><ele>656.0</ele><time>2026-04-26T09:21:04.934Z</time></trkpt><trkpt lat="44.8457817" lon="9.467065"><ele>656.0</ele><time>2026-04-26T09:21:05.938Z</time></trkpt><trkpt lat="44.8457333" lon="9.4672267"><ele>657.0</ele><time>2026-04-26T09:21:06.933Z</time></trkpt><trkpt lat="44.8456917" lon="9.4673767"><ele>658.0</ele><time>2026-04-26T09:21:07.934Z</time></trkpt><trkpt lat="44.845655" lon="9.4675217"><ele>659.0</ele><time>2026-04-26T09:21:08.934Z</time></trkpt><trkpt lat="44.84562" lon="9.467665"><ele>660.0</ele><time>2026-04-26T09:21:09.933Z</time></trkpt><trkpt lat="44.84558" lon="9.4677983"><ele>661.0</ele><time>2026-04-26T09:21:10.935Z</time></trkpt><trkpt lat="44.8455317" lon="9.4679083"><ele>660.8</ele><time>2026-04-26T09:21:11.935Z</time></trkpt><trkpt lat="44.8454617" lon="9.468"><ele>660.5999999999999</ele><time>2026-04-26T09:21:12.935Z</time></trkpt><trkpt lat="44.8453667" lon="9.4680567"><ele>660.4</ele><time>2026-04-26T09:21:13.94Z</time></trkpt><trkpt lat="44.8452583" lon="9.4680933"><ele>660.2</ele><time>2026-04-26T09:21:14.934Z</time></trkpt><trkpt lat="44.84515" lon="9.4681367"><ele>660.0</ele><time>2026-04-26T09:21:15.933Z</time></trkpt><trkpt lat="44.8450417" lon="9.46818"><ele>660.0</ele><time>2026-04-26T09:21:16.935Z</time></trkpt><trkpt lat="44.8449517" lon="9.4682417"><ele>660.0</ele><time>2026-04-26T09:21:17.933Z</time></trkpt><trkpt lat="44.8448733" lon="9.4683033"><ele>660.0</ele><time>2026-04-26T09:21:18.933Z</time></trkpt><trkpt lat="44.844795" lon="9.4683533"><ele>660.0</ele><time>2026-04-26T09:21:19.934Z</time></trkpt><trkpt lat="44.8447117" lon="9.4683933"><ele>660.0</ele><time>2026-04-26T09:21:20.933Z</time></trkpt><trkpt lat="44.8446167" lon="9.4684217"><ele>660.0</ele><time>2026-04-26T09:21:21.936Z</time></trkpt><trkpt lat="44.844515" lon="9.468445"><ele>660.0</ele><time>2026-04-26T09:21:22.935Z</time></trkpt><trkpt lat="44.844415" lon="9.4684867"><ele>660.0</ele><time>2026-04-26T09:21:23.933Z</time></trkpt><trkpt lat="44.844325" lon="9.4685583"><ele>660.0</ele><time>2026-04-26T09:21:24.934Z</time></trkpt><trkpt lat="44.8442367" lon="9.4686617"><ele>660.0</ele><time>2026-04-26T09:21:25.933Z</time></trkpt><trkpt lat="44.84415" lon="9.4687917"><ele>660.5</ele><time>2026-04-26T09:21:26.934Z</time></trkpt><trkpt lat="44.844065" lon="9.4689333"><ele>661.0</ele><time>2026-04-26T09:21:27.934Z</time></trkpt><trkpt lat="44.8439933" lon="9.469075"><ele>661.5</ele><time>2026-04-26T09:21:28.939Z</time></trkpt><trkpt lat="44.8439417" lon="9.46922"><ele>662.0</ele><time>2026-04-26T09:21:29.935Z</time></trkpt><trkpt lat="44.8438967" lon="9.4693683"><ele>662.0</ele><time>2026-04-26T09:21:30.934Z</time></trkpt><trkpt lat="44.84384" lon="9.4695"><ele>662.0</ele><time>2026-04-26T09:21:31.933Z</time></trkpt><trkpt lat="44.8437667" lon="9.469605"><ele>662.0</ele><time>2026-04-26T09:21:32.934Z</time></trkpt><trkpt lat="44.8436683" lon="9.4696817"><ele>662.0</ele><time>2026-04-26T09:21:33.933Z</time></trkpt><trkpt lat="44.84355" lon="9.4697383"><ele>660.75</ele><time>2026-04-26T09:21:34.936Z</time></trkpt><trkpt lat="44.843425" lon="9.46981"><ele>659.5</ele><time>2026-04-26T09:21:35.934Z</time></trkpt><trkpt lat="44.8432967" lon="9.4698917"><ele>658.25</ele><time>2026-04-26T09:21:36.934Z</time></trkpt><trkpt lat="44.8431667" lon="9.46996"><ele>657.0</ele><time>2026-04-26T09:21:37.933Z</time></trkpt><trkpt lat="44.84304" lon="9.47003"><ele>657.0</ele><time>2026-04-26T09:21:38.935Z</time></trkpt><trkpt lat="44.842925" lon="9.470125"><ele>657.0</ele><time>2026-04-26T09:21:39.935Z</time></trkpt><trkpt lat="44.84281" lon="9.47023"><ele>657.0</ele><time>2026-04-26T09:21:40.935Z</time></trkpt><trkpt lat="44.8426917" lon="9.4703183"><ele>657.0</ele><time>2026-04-26T09:21:41.935Z</time></trkpt><trkpt lat="44.842575" lon="9.4703883"><ele>658.6</ele><time>2026-04-26T09:21:42.934Z</time></trkpt><trkpt lat="44.8424617" lon="9.4704417"><ele>660.2</ele><time>2026-04-26T09:21:43.942Z</time></trkpt><trkpt lat="44.8423567" lon="9.4704717"><ele>661.8</ele><time>2026-04-26T09:21:44.935Z</time></trkpt><trkpt lat="44.8422533" lon="9.4704683"><ele>663.4</ele><time>2026-04-26T09:21:45.933Z</time></trkpt><trkpt lat="44.84215" lon="9.470435"><ele>665.0</ele><time>2026-04-26T09:21:46.933Z</time></trkpt><trkpt lat="44.842045" lon="9.4703933"><ele>660.75</ele><time>2026-04-26T09:21:47.935Z</time></trkpt><trkpt lat="44.8419333" lon="9.470365"><ele>656.5</ele><time>2026-04-26T09:21:48.934Z</time></trkpt><trkpt lat="44.8418117" lon="9.470355"><ele>652.25</ele><time>2026-04-26T09:21:49.935Z</time></trkpt><trkpt lat="44.841675" lon="9.4703617"><ele>648.0</ele><time>2026-04-26T09:21:50.939Z</time></trkpt><trkpt lat="44.8415367" lon="9.4703767"><ele>647.25</ele><time>2026-04-26T09:21:51.935Z</time></trkpt><trkpt lat="44.841405" lon="9.4703867"><ele>646.5</ele><time>2026-04-26T09:21:52.934Z</time></trkpt><trkpt lat="44.84128" lon="9.470385"><ele>645.75</ele><time>2026-04-26T09:21:53.936Z</time></trkpt><trkpt lat="44.8411583" lon="9.4703533"><ele>645.0</ele><time>2026-04-26T09:21:54.935Z</time></trkpt><trkpt lat="44.8410417" lon="9.4703033"><ele>644.75</ele><time>2026-04-26T09:21:55.934Z</time></trkpt><trkpt lat="44.84093" lon="9.47026"><ele>644.5</ele><time>2026-04-26T09:21:56.935Z</time></trkpt><trkpt lat="44.8408283" lon="9.470235"><ele>644.25</ele><time>2026-04-26T09:21:57.934Z</time></trkpt><trkpt lat="44.84072" lon="9.4702383"><ele>644.0</ele><time>2026-04-26T09:21:58.934Z</time></trkpt><trkpt lat="44.8406" lon="9.470275"><ele>644.0</ele><time>2026-04-26T09:21:59.934Z</time></trkpt><trkpt lat="44.840475" lon="9.4703433"><ele>644.0</ele><time>2026-04-26T09:22:00.934Z</time></trkpt><trkpt lat="44.840345" lon="9.4704383"><ele>644.0</ele><time>2026-04-26T09:22:01.94Z</time></trkpt><trkpt lat="44.8402217" lon="9.470555"><ele>644.0</ele><time>2026-04-26T09:22:02.935Z</time></trkpt><trkpt lat="44.8401183" lon="9.4706783"><ele>645.2</ele><time>2026-04-26T09:22:03.935Z</time></trkpt><trkpt lat="44.8400317" lon="9.4707933"><ele>646.4000000000001</ele><time>2026-04-26T09:22:04.935Z</time></trkpt><trkpt lat="44.8399567" lon="9.4708983"><ele>647.6</ele><time>2026-04-26T09:22:05.935Z</time></trkpt><trkpt lat="44.839885" lon="9.4709933"><ele>648.8</ele><time>2026-04-26T09:22:06.934Z</time></trkpt><trkpt lat="44.8398233" lon="9.4710783"><ele>650.0</ele><time>2026-04-26T09:22:07.935Z</time></trkpt><trkpt lat="44.8397717" lon="9.4711533"><ele>650.0</ele><time>2026-04-26T09:22:08.935Z</time></trkpt><trkpt lat="44.839675" lon="9.471215"><ele>650.0</ele><time>2026-04-26T09:22:10.936Z</time></trkpt><trkpt lat="44.8396017" lon="9.4711183"><ele>650.0</ele><time>2026-04-26T09:22:12.934Z</time></trkpt><trkpt lat="44.839585" lon="9.4709917"><ele>650.0</ele><time>2026-04-26T09:22:13.936Z</time></trkpt><trkpt lat="44.8395583" lon="9.4708483"><ele>650.0</ele><time>2026-04-26T09:22:14.935Z</time></trkpt><trkpt lat="44.8395283" lon="9.4707067"><ele>650.0</ele><time>2026-04-26T09:22:15.939Z</time></trkpt><trkpt lat="44.8394967" lon="9.4705883"><ele>650.0</ele><time>2026-04-26T09:22:16.933Z</time></trkpt><trkpt lat="44.8394583" lon="9.4705"><ele>650.0</ele><time>2026-04-26T09:22:17.936Z</time></trkpt><trkpt lat="44.839395" lon="9.4704317"><ele>650.0</ele><time>2026-04-26T09:22:18.936Z</time></trkpt><trkpt lat="44.8393083" lon="9.470385"><ele>650.0</ele><time>2026-04-26T09:22:19.935Z</time></trkpt><trkpt lat="44.8392083" lon="9.4703583"><ele>650.0</ele><time>2026-04-26T09:22:20.935Z</time></trkpt><trkpt lat="44.8391017" lon="9.4703417"><ele>646.8</ele><time>2026-04-26T09:22:21.936Z</time></trkpt><trkpt lat="44.8389883" lon="9.4703117"><ele>643.6</ele><time>2026-04-26T09:22:22.934Z</time></trkpt><trkpt lat="44.8388783" lon="9.4702583"><ele>640.4</ele><time>2026-04-26T09:22:23.935Z</time></trkpt><trkpt lat="44.8387917" lon="9.4701783"><ele>637.2</ele><time>2026-04-26T09:22:24.935Z</time></trkpt><trkpt lat="44.8387217" lon="9.470095"><ele>634.0</ele><time>2026-04-26T09:22:25.933Z</time></trkpt><trkpt lat="44.838665" lon="9.4700317"><ele>634.0</ele><time>2026-04-26T09:22:26.934Z</time></trkpt><trkpt lat="44.8385633" lon="9.4700617"><ele>634.0</ele><time>2026-04-26T09:22:28.937Z</time></trkpt><trkpt lat="44.83852" lon="9.4701467"><ele>634.0</ele><time>2026-04-26T09:22:29.933Z</time></trkpt><trkpt lat="44.8384817" lon="9.4702767"><ele>634.0</ele><time>2026-04-26T09:22:30.933Z</time></trkpt><trkpt lat="44.8384567" lon="9.4704283"><ele>634.0</ele><time>2026-04-26T09:22:31.934Z</time></trkpt><trkpt lat="44.8384533" lon="9.4705617"><ele>635.8</ele><time>2026-04-26T09:22:32.933Z</time></trkpt><trkpt lat="44.8384733" lon="9.4706933"><ele>637.5999999999999</ele><time>2026-04-26T09:22:33.934Z</time></trkpt><trkpt lat="44.8385083" lon="9.4708317"><ele>639.4</ele><time>2026-04-26T09:22:34.935Z</time></trkpt><trkpt lat="44.83855" lon="9.4709617"><ele>641.1999999999999</ele><time>2026-04-26T09:22:35.935Z</time></trkpt><trkpt lat="44.8385767" lon="9.4710883"><ele>643.0</ele><time>2026-04-26T09:22:36.935Z</time></trkpt><trkpt lat="44.8385733" lon="9.47121"><ele>644.0</ele><time>2026-04-26T09:22:37.934Z</time></trkpt><trkpt lat="44.8385433" lon="9.4713317"><ele>645.0</ele><time>2026-04-26T09:22:38.935Z</time></trkpt><trkpt lat="44.8384883" lon="9.471465"><ele>646.0</ele><time>2026-04-26T09:22:39.935Z</time></trkpt><trkpt lat="44.8384167" lon="9.47161"><ele>647.0</ele><time>2026-04-26T09:22:40.935Z</time></trkpt><trkpt lat="44.83834" lon="9.4717633"><ele>643.25</ele><time>2026-04-26T09:22:41.934Z</time></trkpt><trkpt lat="44.8382667" lon="9.47192"><ele>639.5</ele><time>2026-04-26T09:22:42.934Z</time></trkpt><trkpt lat="44.838205" lon="9.4720633"><ele>635.75</ele><time>2026-04-26T09:22:43.934Z</time></trkpt><trkpt lat="44.8381533" lon="9.4722"><ele>632.0</ele><time>2026-04-26T09:22:44.933Z</time></trkpt><trkpt lat="44.8381117" lon="9.4723367"><ele>632.0</ele><time>2026-04-26T09:22:45.936Z</time></trkpt><trkpt lat="44.83809" lon="9.4724833"><ele>632.0</ele><time>2026-04-26T09:22:46.934Z</time></trkpt><trkpt lat="44.8380833" lon="9.4726433"><ele>632.0</ele><time>2026-04-26T09:22:47.936Z</time></trkpt><trkpt lat="44.83808" lon="9.4728117"><ele>632.0</ele><time>2026-04-26T09:22:48.934Z</time></trkpt><trkpt lat="44.8380717" lon="9.4729783"><ele>631.6</ele><time>2026-04-26T09:22:49.934Z</time></trkpt><trkpt lat="44.83805" lon="9.47313"><ele>631.2</ele><time>2026-04-26T09:22:50.936Z</time></trkpt><trkpt lat="44.838015" lon="9.4732633"><ele>630.8</ele><time>2026-04-26T09:22:51.933Z</time></trkpt><trkpt lat="44.8379683" lon="9.4733817"><ele>630.4</ele><time>2026-04-26T09:22:52.935Z</time></trkpt><trkpt lat="44.8379083" lon="9.4734817"><ele>630.0</ele><time>2026-04-26T09:22:53.934Z</time></trkpt><trkpt lat="44.837825" lon="9.4735533"><ele>630.0</ele><time>2026-04-26T09:22:54.934Z</time></trkpt><trkpt lat="44.8377217" lon="9.4736283"><ele>630.0</ele><time>2026-04-26T09:22:55.933Z</time></trkpt><trkpt lat="44.837615" lon="9.4737233"><ele>630.0</ele><time>2026-04-26T09:22:56.934Z</time></trkpt><trkpt lat="44.8375083" lon="9.4738433"><ele>630.0</ele><time>2026-04-26T09:22:57.933Z</time></trkpt><trkpt lat="44.8374033" lon="9.4739767"><ele>627.5</ele><time>2026-04-26T09:22:58.933Z</time></trkpt><trkpt lat="44.837305" lon="9.4741"><ele>625.0</ele><time>2026-04-26T09:22:59.933Z</time></trkpt><trkpt lat="44.8372117" lon="9.47421"><ele>622.5</ele><time>2026-04-26T09:23:00.935Z</time></trkpt><trkpt lat="44.8371283" lon="9.4743083"><ele>620.0</ele><time>2026-04-26T09:23:01.938Z</time></trkpt><trkpt lat="44.83704" lon="9.4744033"><ele>620.0</ele><time>2026-04-26T09:23:02.934Z</time></trkpt><trkpt lat="44.83694" lon="9.47449"><ele>620.0</ele><time>2026-04-26T09:23:03.933Z</time></trkpt><trkpt lat="44.8368267" lon="9.474565"><ele>620.0</ele><time>2026-04-26T09:23:04.934Z</time></trkpt><trkpt lat="44.8367083" lon="9.47463"><ele>620.0</ele><time>2026-04-26T09:23:05.935Z</time></trkpt><trkpt lat="44.8365917" lon="9.4746967"><ele>619.5</ele><time>2026-04-26T09:23:06.94Z</time></trkpt><trkpt lat="44.836475" lon="9.47476"><ele>619.0</ele><time>2026-04-26T09:23:07.936Z</time></trkpt><trkpt lat="44.83636" lon="9.47481"><ele>618.5</ele><time>2026-04-26T09:23:08.935Z</time></trkpt><trkpt lat="44.836245" lon="9.47484"><ele>618.0</ele><time>2026-04-26T09:23:09.935Z</time></trkpt><trkpt lat="44.8361383" lon="9.474865"><ele>618.0</ele><time>2026-04-26T09:23:10.938Z</time></trkpt><trkpt lat="44.83604" lon="9.4749"><ele>618.0</ele><time>2026-04-26T09:23:11.934Z</time></trkpt><trkpt lat="44.8359433" lon="9.474965"><ele>618.0</ele><time>2026-04-26T09:23:12.934Z</time></trkpt><trkpt lat="44.8358467" lon="9.4750633"><ele>618.0</ele><time>2026-04-26T09:23:13.933Z</time></trkpt><trkpt lat="44.8357567" lon="9.4751917"><ele>616.0</ele><time>2026-04-26T09:23:14.934Z</time></trkpt><trkpt lat="44.835685" lon="9.4753283"><ele>614.0</ele><time>2026-04-26T09:23:15.934Z</time></trkpt><trkpt lat="44.83563" lon="9.4754533"><ele>612.0</ele><time>2026-04-26T09:23:16.933Z</time></trkpt><trkpt lat="44.8355867" lon="9.4755417"><ele>610.0</ele><time>2026-04-26T09:23:17.937Z</time></trkpt><trkpt lat="44.8354917" lon="9.47562"><ele>608.0</ele><time>2026-04-26T09:23:19.936Z</time></trkpt><trkpt lat="44.8354083" lon="9.4755183"><ele>605.8</ele><time>2026-04-26T09:23:21.936Z</time></trkpt><trkpt lat="44.8353767" lon="9.47541"><ele>603.5999999999999</ele><time>2026-04-26T09:23:22.937Z</time></trkpt><trkpt lat="44.8353617" lon="9.4752717"><ele>601.4000000000001</ele><time>2026-04-26T09:23:23.937Z</time></trkpt><trkpt lat="44.8353833" lon="9.4750883"><ele>599.2</ele><time>2026-04-26T09:23:24.936Z</time></trkpt><trkpt lat="44.83542" lon="9.4749267"><ele>597.0</ele><time>2026-04-26T09:23:25.933Z</time></trkpt><trkpt lat="44.8354633" lon="9.4747617"><ele>597.0</ele><time>2026-04-26T09:23:26.937Z</time></trkpt><trkpt lat="44.8354917" lon="9.4746133"><ele>597.0</ele><time>2026-04-26T09:23:27.934Z</time></trkpt><trkpt lat="44.83551" lon="9.4744717"><ele>597.0</ele><time>2026-04-26T09:23:28.939Z</time></trkpt><trkpt lat="44.8355067" lon="9.4743317"><ele>597.0</ele><time>2026-04-26T09:23:29.933Z</time></trkpt><trkpt lat="44.835485" lon="9.474185"><ele>597.0</ele><time>2026-04-26T09:23:30.935Z</time></trkpt><trkpt lat="44.835445" lon="9.474025"><ele>595.75</ele><time>2026-04-26T09:23:31.934Z</time></trkpt><trkpt lat="44.8354067" lon="9.4738583"><ele>594.5</ele><time>2026-04-26T09:23:32.934Z</time></trkpt><trkpt lat="44.8353783" lon="9.473695"><ele>593.25</ele><time>2026-04-26T09:23:33.935Z</time></trkpt><trkpt lat="44.8353633" lon="9.4735267"><ele>592.0</ele><time>2026-04-26T09:23:34.935Z</time></trkpt><trkpt lat="44.83535" lon="9.47337"><ele>591.6</ele><time>2026-04-26T09:23:35.934Z</time></trkpt><trkpt lat="44.8353383" lon="9.47323"><ele>591.2</ele><time>2026-04-26T09:23:36.935Z</time></trkpt><trkpt lat="44.8353283" lon="9.4731133"><ele>590.8</ele><time>2026-04-26T09:23:37.94Z</time></trkpt><trkpt lat="44.8352733" lon="9.473005"><ele>590.4</ele><time>2026-04-26T09:23:39.934Z</time></trkpt><trkpt lat="44.8351833" lon="9.47305"><ele>590.0</ele><time>2026-04-26T09:23:41.935Z</time></trkpt><trkpt lat="44.8351817" lon="9.4731833"><ele>590.0</ele><time>2026-04-26T09:23:42.934Z</time></trkpt><trkpt lat="44.8351683" lon="9.473315"><ele>590.0</ele><time>2026-04-26T09:23:43.937Z</time></trkpt><trkpt lat="44.8351417" lon="9.4734683"><ele>590.0</ele><time>2026-04-26T09:23:44.935Z</time></trkpt><trkpt lat="44.8350967" lon="9.4736283"><ele>590.0</ele><time>2026-04-26T09:23:45.934Z</time></trkpt><trkpt lat="44.8350483" lon="9.473785"><ele>586.25</ele><time>2026-04-26T09:23:46.934Z</time></trkpt><trkpt lat="44.8349983" lon="9.4739383"><ele>582.5</ele><time>2026-04-26T09:23:47.935Z</time></trkpt><trkpt lat="44.8349267" lon="9.4740883"><ele>578.75</ele><time>2026-04-26T09:23:48.942Z</time></trkpt><trkpt lat="44.8348367" lon="9.4742283"><ele>575.0</ele><time>2026-04-26T09:23:49.934Z</time></trkpt><trkpt lat="44.8347383" lon="9.4743617"><ele>575.0</ele><time>2026-04-26T09:23:50.938Z</time></trkpt><trkpt lat="44.83463" lon="9.4744817"><ele>575.0</ele><time>2026-04-26T09:23:51.936Z</time></trkpt><trkpt lat="44.834515" lon="9.474595"><ele>575.0</ele><time>2026-04-26T09:23:52.937Z</time></trkpt><trkpt lat="44.834405" lon="9.4747033"><ele>575.0</ele><time>2026-04-26T09:23:53.934Z</time></trkpt><trkpt lat="44.8342983" lon="9.4748033"><ele>573.6</ele><time>2026-04-26T09:23:54.933Z</time></trkpt><trkpt lat="44.8342" lon="9.474885"><ele>572.2</ele><time>2026-04-26T09:23:55.933Z</time></trkpt><trkpt lat="44.8341083" lon="9.4749433"><ele>570.8</ele><time>2026-04-26T09:23:56.935Z</time></trkpt><trkpt lat="44.8340167" lon="9.474975"><ele>569.4</ele><time>2026-04-26T09:23:57.934Z</time></trkpt><trkpt lat="44.8339333" lon="9.4749933"><ele>568.0</ele><time>2026-04-26T09:23:58.934Z</time></trkpt><trkpt lat="44.8338567" lon="9.4750217"><ele>568.0</ele><time>2026-04-26T09:23:59.933Z</time></trkpt><trkpt lat="44.8337833" lon="9.47507"><ele>568.0</ele><time>2026-04-26T09:24:00.934Z</time></trkpt><trkpt lat="44.83373" lon="9.4751417"><ele>568.0</ele><time>2026-04-26T09:24:01.938Z</time></trkpt><trkpt lat="44.8337" lon="9.475245"><ele>568.0</ele><time>2026-04-26T09:24:02.935Z</time></trkpt><trkpt lat="44.8337033" lon="9.475365"><ele>568.0</ele><time>2026-04-26T09:24:03.935Z</time></trkpt><trkpt lat="44.833735" lon="9.475515"><ele>568.0</ele><time>2026-04-26T09:24:04.934Z</time></trkpt><trkpt lat="44.8337667" lon="9.4756833"><ele>568.25</ele><time>2026-04-26T09:24:05.934Z</time></trkpt><trkpt lat="44.8337917" lon="9.475855"><ele>568.5</ele><time>2026-04-26T09:24:06.938Z</time></trkpt><trkpt lat="44.833805" lon="9.4760317"><ele>568.75</ele><time>2026-04-26T09:24:07.935Z</time></trkpt><trkpt lat="44.8337933" lon="9.4762017"><ele>569.0</ele><time>2026-04-26T09:24:08.934Z</time></trkpt><trkpt lat="44.8337617" lon="9.476365"><ele>569.5</ele><time>2026-04-26T09:24:09.934Z</time></trkpt><trkpt lat="44.833725" lon="9.47653"><ele>570.0</ele><time>2026-04-26T09:24:10.933Z</time></trkpt><trkpt lat="44.8337017" lon="9.476705"><ele>570.5</ele><time>2026-04-26T09:24:11.934Z</time></trkpt><trkpt lat="44.8336983" lon="9.4768867"><ele>571.0</ele><time>2026-04-26T09:24:12.933Z</time></trkpt><trkpt lat="44.8337" lon="9.477055"><ele>571.4</ele><time>2026-04-26T09:24:13.933Z</time></trkpt><trkpt lat="44.8336933" lon="9.4772"><ele>571.8</ele><time>2026-04-26T09:24:14.934Z</time></trkpt><trkpt lat="44.83368" lon="9.4773283"><ele>572.1999999999999</ele><time>2026-04-26T09:24:15.934Z</time></trkpt><trkpt lat="44.8336617" lon="9.4774567"><ele>572.6</ele><time>2026-04-26T09:24:16.934Z</time></trkpt><trkpt lat="44.8336467" lon="9.4775817"><ele>573.0</ele><time>2026-04-26T09:24:17.938Z</time></trkpt><trkpt lat="44.8336317" lon="9.4777017"><ele>573.0</ele><time>2026-04-26T09:24:18.935Z</time></trkpt><trkpt lat="44.8336117" lon="9.4778233"><ele>573.0</ele><time>2026-04-26T09:24:19.935Z</time></trkpt><trkpt lat="44.8335883" lon="9.4779383"><ele>573.0</ele><time>2026-04-26T09:24:20.936Z</time></trkpt><trkpt lat="44.833555" lon="9.47805"><ele>573.0</ele><time>2026-04-26T09:24:21.936Z</time></trkpt><trkpt lat="44.8335167" lon="9.4781517"><ele>573.0</ele><time>2026-04-26T09:24:22.934Z</time></trkpt><trkpt lat="44.833485" lon="9.4782517"><ele>573.0</ele><time>2026-04-26T09:24:23.935Z</time></trkpt><trkpt lat="44.83347" lon="9.4783617"><ele>572.8</ele><time>2026-04-26T09:24:24.935Z</time></trkpt><trkpt lat="44.8334717" lon="9.47848"><ele>572.5999999999999</ele><time>2026-04-26T09:24:25.934Z</time></trkpt><trkpt lat="44.8334917" lon="9.4786083"><ele>572.4000000000001</ele><time>2026-04-26T09:24:26.935Z</time></trkpt><trkpt lat="44.833525" lon="9.4787633"><ele>572.2</ele><time>2026-04-26T09:24:27.934Z</time></trkpt><trkpt lat="44.8335533" lon="9.4789367"><ele>572.0</ele><time>2026-04-26T09:24:28.935Z</time></trkpt><trkpt lat="44.833575" lon="9.479105"><ele>571.0</ele><time>2026-04-26T09:24:29.933Z</time></trkpt><trkpt lat="44.8335867" lon="9.4792533"><ele>570.0</ele><time>2026-04-26T09:24:30.934Z</time></trkpt><trkpt lat="44.8336067" lon="9.479365"><ele>569.0</ele><time>2026-04-26T09:24:31.934Z</time></trkpt><trkpt lat="44.8336317" lon="9.4794533"><ele>568.0</ele><time>2026-04-26T09:24:32.934Z</time></trkpt><trkpt lat="44.833675" lon="9.4795233"><ele>567.0</ele><time>2026-04-26T09:24:33.936Z</time></trkpt><trkpt lat="44.833745" lon="9.4796017"><ele>566.0</ele><time>2026-04-26T09:24:34.933Z</time></trkpt><trkpt lat="44.83381" lon="9.479715"><ele>560.75</ele><time>2026-04-26T09:24:35.934Z</time></trkpt><trkpt lat="44.8338867" lon="9.4798733"><ele>555.5</ele><time>2026-04-26T09:24:36.936Z</time></trkpt><trkpt lat="44.8339567" lon="9.480045"><ele>550.25</ele><time>2026-04-26T09:24:37.934Z</time></trkpt><trkpt lat="44.8340267" lon="9.4802167"><ele>545.0</ele><time>2026-04-26T09:24:38.936Z</time></trkpt><trkpt lat="44.8340983" lon="9.48038"><ele>540.25</ele><time>2026-04-26T09:24:39.935Z</time></trkpt><trkpt lat="44.8341567" lon="9.48054"><ele>535.5</ele><time>2026-04-26T09:24:40.935Z</time></trkpt><trkpt lat="44.8341967" lon="9.480695"><ele>530.75</ele><time>2026-04-26T09:24:41.934Z</time></trkpt><trkpt lat="44.8342333" lon="9.4808367"><ele>526.0</ele><time>2026-04-26T09:24:42.934Z</time></trkpt><trkpt lat="44.8342867" lon="9.480965"><ele>525.6</ele><time>2026-04-26T09:24:43.938Z</time></trkpt><trkpt lat="44.8343533" lon="9.4810783"><ele>525.2</ele><time>2026-04-26T09:24:44.935Z</time></trkpt><trkpt lat="44.8344317" lon="9.4811733"><ele>524.8</ele><time>2026-04-26T09:24:45.94Z</time></trkpt><trkpt lat="44.834515" lon="9.48126"><ele>524.4</ele><time>2026-04-26T09:24:46.935Z</time></trkpt><trkpt lat="44.8346" lon="9.481335"><ele>524.0</ele><time>2026-04-26T09:24:47.935Z</time></trkpt><trkpt lat="44.8346817" lon="9.481395"><ele>524.0</ele><time>2026-04-26T09:24:48.934Z</time></trkpt><trkpt lat="44.8347667" lon="9.4814383"><ele>524.0</ele><time>2026-04-26T09:24:49.934Z</time></trkpt><trkpt lat="44.834855" lon="9.4814633"><ele>524.0</ele><time>2026-04-26T09:24:50.936Z</time></trkpt><trkpt lat="44.83495" lon="9.4814683"><ele>524.0</ele><time>2026-04-26T09:24:51.935Z</time></trkpt><trkpt lat="44.8350533" lon="9.48146"><ele>524.0</ele><time>2026-04-26T09:24:52.938Z</time></trkpt><trkpt lat="44.8351617" lon="9.481455"><ele>525.5</ele><time>2026-04-26T09:24:53.935Z</time></trkpt><trkpt lat="44.8352767" lon="9.48146"><ele>527.0</ele><time>2026-04-26T09:24:54.935Z</time></trkpt><trkpt lat="44.8354033" lon="9.4814817"><ele>528.5</ele><time>2026-04-26T09:24:55.933Z</time></trkpt><trkpt lat="44.8355383" lon="9.4815083"><ele>530.0</ele><time>2026-04-26T09:24:56.935Z</time></trkpt><trkpt lat="44.835665" lon="9.4815367"><ele>530.0</ele><time>2026-04-26T09:24:57.934Z</time></trkpt><trkpt lat="44.8357683" lon="9.48157"><ele>530.0</ele><time>2026-04-26T09:24:58.934Z</time></trkpt><trkpt lat="44.8358467" lon="9.4816117"><ele>530.0</ele><time>2026-04-26T09:24:59.935Z</time></trkpt><trkpt lat="44.835915" lon="9.4816633"><ele>530.0</ele><time>2026-04-26T09:25:00.941Z</time></trkpt><trkpt lat="44.83598" lon="9.4817333"><ele>530.0</ele><time>2026-04-26T09:25:01.934Z</time></trkpt><trkpt lat="44.8360383" lon="9.48183"><ele>530.0</ele><time>2026-04-26T09:25:02.935Z</time></trkpt><trkpt lat="44.836095" lon="9.4819367"><ele>530.1666666666666</ele><time>2026-04-26T09:25:03.934Z</time></trkpt><trkpt lat="44.8361483" lon="9.4820667"><ele>530.3333333333333</ele><time>2026-04-26T09:25:04.934Z</time></trkpt><trkpt lat="44.8361917" lon="9.4821883"><ele>530.5</ele><time>2026-04-26T09:25:05.934Z</time></trkpt><trkpt lat="44.8362333" lon="9.4822833"><ele>530.6666666666666</ele><time>2026-04-26T09:25:06.934Z</time></trkpt><trkpt lat="44.8362717" lon="9.4823733"><ele>530.8333333333334</ele><time>2026-04-26T09:25:07.935Z</time></trkpt><trkpt lat="44.8362933" lon="9.482475"><ele>531.0</ele><time>2026-04-26T09:25:08.934Z</time></trkpt><trkpt lat="44.8362983" lon="9.4825867"><ele>531.0</ele><time>2026-04-26T09:25:09.938Z</time></trkpt><trkpt lat="44.83629" lon="9.482705"><ele>531.0</ele><time>2026-04-26T09:25:10.935Z</time></trkpt><trkpt lat="44.83625" lon="9.4828317"><ele>531.0</ele><time>2026-04-26T09:25:11.934Z</time></trkpt><trkpt lat="44.8362133" lon="9.4829583"><ele>531.0</ele><time>2026-04-26T09:25:12.936Z</time></trkpt><trkpt lat="44.8361933" lon="9.48308"><ele>531.0</ele><time>2026-04-26T09:25:13.935Z</time></trkpt><trkpt lat="44.8361833" lon="9.48322"><ele>530.1666666666666</ele><time>2026-04-26T09:25:14.936Z</time></trkpt><trkpt lat="44.8361933" lon="9.4833533"><ele>529.3333333333334</ele><time>2026-04-26T09:25:15.935Z</time></trkpt><trkpt lat="44.8361983" lon="9.483495"><ele>528.5</ele><time>2026-04-26T09:25:16.934Z</time></trkpt><trkpt lat="44.8362283" lon="9.4835833"><ele>527.6666666666667</ele><time>2026-04-26T09:25:17.936Z</time></trkpt><trkpt lat="44.8362617" lon="9.4836783"><ele>526.8333333333334</ele><time>2026-04-26T09:25:18.935Z</time></trkpt><trkpt lat="44.8363" lon="9.4838083"><ele>526.0</ele><time>2026-04-26T09:25:20.936Z</time></trkpt><trkpt lat="44.8362567" lon="9.4839233"><ele>524.5</ele><time>2026-04-26T09:25:23.936Z</time></trkpt><trkpt lat="44.8361767" lon="9.4839933"><ele>523.0</ele><time>2026-04-26T09:25:25.936Z</time></trkpt><trkpt lat="44.83608" lon="9.4841133"><ele>521.5</ele><time>2026-04-26T09:25:27.935Z</time></trkpt><trkpt lat="44.8360383" lon="9.4841833"><ele>520.0</ele><time>2026-04-26T09:25:28.935Z</time></trkpt><trkpt lat="44.8359867" lon="9.4842467"><ele>518.5</ele><time>2026-04-26T09:25:29.934Z</time></trkpt><trkpt lat="44.83593" lon="9.4842983"><ele>517.0</ele><time>2026-04-26T09:25:30.936Z</time></trkpt><trkpt lat="44.8358217" lon="9.4843833"><ele>516.1666666666667</ele><time>2026-04-26T09:25:32.935Z</time></trkpt><trkpt lat="44.835765" lon="9.48443"><ele>515.3333333333334</ele><time>2026-04-26T09:25:33.935Z</time></trkpt><trkpt lat="44.83568" lon="9.4845383"><ele>514.5</ele><time>2026-04-26T09:25:35.934Z</time></trkpt><trkpt lat="44.8356217" lon="9.4846933"><ele>513.6666666666666</ele><time>2026-04-26T09:25:37.934Z</time></trkpt><trkpt lat="44.8356167" lon="9.48479"><ele>512.8333333333333</ele><time>2026-04-26T09:25:38.942Z</time></trkpt><trkpt lat="44.8356117" lon="9.484885"><ele>512.0</ele><time>2026-04-26T09:25:39.934Z</time></trkpt><trkpt lat="44.8355967" lon="9.4849733"><ele>510.85714285714283</ele><time>2026-04-26T09:25:40.932Z</time></trkpt><trkpt lat="44.83557" lon="9.485055"><ele>509.71428571428567</ele><time>2026-04-26T09:25:41.933Z</time></trkpt><trkpt lat="44.8355317" lon="9.485135"><ele>508.57142857142856</ele><time>2026-04-26T09:25:42.934Z</time></trkpt><trkpt lat="44.8354967" lon="9.4852183"><ele>507.42857142857144</ele><time>2026-04-26T09:25:43.934Z</time></trkpt><trkpt lat="44.8354617" lon="9.485305"><ele>506.2857142857143</ele><time>2026-04-26T09:25:44.938Z</time></trkpt><trkpt lat="44.8354283" lon="9.4853967"><ele>505.1428571428571</ele><time>2026-04-26T09:25:45.935Z</time></trkpt><trkpt lat="44.83539" lon="9.48549"><ele>504.0</ele><time>2026-04-26T09:25:46.933Z</time></trkpt><trkpt lat="44.835355" lon="9.4855783"><ele>501.4</ele><time>2026-04-26T09:25:47.933Z</time></trkpt><trkpt lat="44.8353217" lon="9.4856583"><ele>498.79999999999995</ele><time>2026-04-26T09:25:48.932Z</time></trkpt><trkpt lat="44.8352817" lon="9.4857867"><ele>496.20000000000005</ele><time>2026-04-26T09:25:50.934Z</time></trkpt><trkpt lat="44.8352467" lon="9.4859167"><ele>493.6</ele><time>2026-04-26T09:25:52.934Z</time></trkpt><trkpt lat="44.8352017" lon="9.4860383"><ele>491.0</ele><time>2026-04-26T09:25:54.934Z</time></trkpt><trkpt lat="44.835155" lon="9.4861733"><ele>487.4</ele><time>2026-04-26T09:25:56.934Z</time></trkpt><trkpt lat="44.8351133" lon="9.486335"><ele>483.8</ele><time>2026-04-26T09:25:58.934Z</time></trkpt><trkpt lat="44.835065" lon="9.4865033"><ele>480.19999999999993</ele><time>2026-04-26T09:26:00.933Z</time></trkpt><trkpt lat="44.835035" lon="9.4865967"><ele>476.59999999999997</ele><time>2026-04-26T09:26:01.933Z</time></trkpt><trkpt lat="44.83501" lon="9.4867"><ele>473.0</ele><time>2026-04-26T09:26:02.934Z</time></trkpt><trkpt lat="44.8349917" lon="9.4867967"><ele>473.0</ele><time>2026-04-26T09:26:03.933Z</time></trkpt><trkpt lat="44.8349733" lon="9.4868917"><ele>473.0</ele><time>2026-04-26T09:26:04.934Z</time></trkpt><trkpt lat="44.8349533" lon="9.4869833"><ele>473.0</ele><time>2026-04-26T09:26:05.933Z</time></trkpt><trkpt lat="44.83493" lon="9.487075"><ele>473.0</ele><time>2026-04-26T09:26:06.938Z</time></trkpt><trkpt lat="44.834905" lon="9.487165"><ele>473.0</ele><time>2026-04-26T09:26:07.933Z</time></trkpt><trkpt lat="44.8348767" lon="9.4872517"><ele>473.0</ele><time>2026-04-26T09:26:08.934Z</time></trkpt><trkpt lat="44.8348383" lon="9.4873367"><ele>473.0</ele><time>2026-04-26T09:26:09.933Z</time></trkpt><trkpt lat="44.83479" lon="9.4874317"><ele>470.4</ele><time>2026-04-26T09:26:10.935Z</time></trkpt><trkpt lat="44.8347433" lon="9.48753"><ele>467.79999999999995</ele><time>2026-04-26T09:26:11.934Z</time></trkpt><trkpt lat="44.8347083" lon="9.4876233"><ele>465.2</ele><time>2026-04-26T09:26:12.937Z</time></trkpt><trkpt lat="44.8346817" lon="9.487715"><ele>462.6</ele><time>2026-04-26T09:26:13.933Z</time></trkpt><trkpt lat="44.83468" lon="9.4878817"><ele>460.0</ele><time>2026-04-26T09:26:15.933Z</time></trkpt><trkpt lat="44.8347383" lon="9.4880467"><ele>458.42857142857133</ele><time>2026-04-26T09:26:17.933Z</time></trkpt><trkpt lat="44.8347733" lon="9.48814"><ele>456.85714285714283</ele><time>2026-04-26T09:26:18.934Z</time></trkpt><trkpt lat="44.83481" lon="9.4882283"><ele>455.2857142857142</ele><time>2026-04-26T09:26:19.933Z</time></trkpt><trkpt lat="44.8348383" lon="9.4883117"><ele>453.71428571428567</ele><time>2026-04-26T09:26:20.933Z</time></trkpt><trkpt lat="44.8348633" lon="9.4883967"><ele>452.1428571428571</ele><time>2026-04-26T09:26:21.938Z</time></trkpt><trkpt lat="44.834885" lon="9.488485"><ele>450.57142857142856</ele><time>2026-04-26T09:26:22.934Z</time></trkpt><trkpt lat="44.834905" lon="9.4885717"><ele>449.0</ele><time>2026-04-26T09:26:23.933Z</time></trkpt><trkpt lat="44.8349183" lon="9.488665"><ele>448.99999999999994</ele><time>2026-04-26T09:26:24.933Z</time></trkpt><trkpt lat="44.8349267" lon="9.4887533"><ele>449.0</ele><time>2026-04-26T09:26:25.934Z</time></trkpt><trkpt lat="44.8349267" lon="9.4889117"><ele>449.0</ele><time>2026-04-26T09:26:27.934Z</time></trkpt><trkpt lat="44.83492" lon="9.4890817"><ele>449.0</ele><time>2026-04-26T09:26:29.94Z</time></trkpt><trkpt lat="44.8349117" lon="9.48918"><ele>448.99999999999994</ele><time>2026-04-26T09:26:30.933Z</time></trkpt><trkpt lat="44.8349033" lon="9.489275"><ele>449.0</ele><time>2026-04-26T09:26:31.934Z</time></trkpt><trkpt lat="44.834895" lon="9.4893733"><ele>446.3333333333333</ele><time>2026-04-26T09:26:32.934Z</time></trkpt><trkpt lat="44.834885" lon="9.48947"><ele>443.66666666666663</ele><time>2026-04-26T09:26:33.934Z</time></trkpt><trkpt lat="44.8348683" lon="9.4895633"><ele>441.0</ele><time>2026-04-26T09:26:34.94Z</time></trkpt><trkpt lat="44.8348517" lon="9.4896517"><ele>438.33333333333337</ele><time>2026-04-26T09:26:35.933Z</time></trkpt><trkpt lat="44.834835" lon="9.4897383"><ele>435.6666666666667</ele><time>2026-04-26T09:26:36.934Z</time></trkpt><trkpt lat="44.8348117" lon="9.4899117"><ele>433.0</ele><time>2026-04-26T09:26:38.933Z</time></trkpt><trkpt lat="44.8347983" lon="9.4900817"><ele>429.79999999999995</ele><time>2026-04-26T09:26:40.934Z</time></trkpt><trkpt lat="44.8347717" lon="9.4902633"><ele>426.59999999999997</ele><time>2026-04-26T09:26:42.937Z</time></trkpt><trkpt lat="44.8347583" lon="9.4903767"><ele>423.4</ele><time>2026-04-26T09:26:43.933Z</time></trkpt><trkpt lat="44.8347517" lon="9.4905033"><ele>420.20000000000005</ele><time>2026-04-26T09:26:44.933Z</time></trkpt><trkpt lat="44.8347433" lon="9.4906117"><ele>417.0</ele><time>2026-04-26T09:26:45.936Z</time></trkpt><trkpt lat="44.83473" lon="9.4907617"><ele>414.40000000000003</ele><time>2026-04-26T09:26:47.934Z</time></trkpt><trkpt lat="44.8347083" lon="9.490905"><ele>411.8</ele><time>2026-04-26T09:26:49.934Z</time></trkpt><trkpt lat="44.834705" lon="9.4910667"><ele>409.2</ele><time>2026-04-26T09:26:51.933Z</time></trkpt><trkpt lat="44.8347267" lon="9.4912067"><ele>406.6</ele><time>2026-04-26T09:26:53.933Z</time></trkpt><trkpt lat="44.83471" lon="9.4913483"><ele>404.0</ele><time>2026-04-26T09:26:55.934Z</time></trkpt><trkpt lat="44.8346767" lon="9.4915183"><ele>401.0</ele><time>2026-04-26T09:26:57.934Z</time></trkpt><trkpt lat="44.83466" lon="9.49167"><ele>398.0</ele><time>2026-04-26T09:26:59.933Z</time></trkpt><trkpt lat="44.834635" lon="9.4917967"><ele>395.0</ele><time>2026-04-26T09:27:01.933Z</time></trkpt><trkpt lat="44.8346067" lon="9.4919217"><ele>392.0</ele><time>2026-04-26T09:27:03.933Z</time></trkpt><trkpt lat="44.8345514" lon="9.492087"><ele>389.0</ele><time>2026-04-26T09:27:05.934Z</time></trkpt><trkpt lat="44.8345203" lon="9.4921905"><ele>386.49999999999994</ele><time>2026-04-26T09:27:06.938Z</time></trkpt><trkpt lat="44.8344975" lon="9.4922909"><ele>384.0</ele><time>2026-04-26T09:27:07.933Z</time></trkpt><trkpt lat="44.8344796" lon="9.4923866"><ele>381.5</ele><time>2026-04-26T09:27:08.935Z</time></trkpt><trkpt lat="44.834461" lon="9.4924794"><ele>379.0</ele><time>2026-04-26T09:27:09.934Z</time></trkpt><trkpt lat="44.8344407" lon="9.4925641"><ele>376.5</ele><time>2026-04-26T09:27:10.933Z</time></trkpt><trkpt lat="44.8343934" lon="9.4927245"><ele>374.0</ele><time>2026-04-26T09:27:12.933Z</time></trkpt><trkpt lat="44.8343586" lon="9.4928841"><ele>371.0</ele><time>2026-04-26T09:27:14.935Z</time></trkpt><trkpt lat="44.8343257" lon="9.493045"><ele>368.0</ele><time>2026-04-26T09:27:16.933Z</time></trkpt><trkpt lat="44.8342787" lon="9.4931996"><ele>365.0</ele><time>2026-04-26T09:27:18.933Z</time></trkpt><trkpt lat="44.834229" lon="9.4933531"><ele>362.0</ele><time>2026-04-26T09:27:20.934Z</time></trkpt><trkpt lat="44.834188" lon="9.4935153"><ele>360.83333333333337</ele><time>2026-04-26T09:27:22.933Z</time></trkpt><trkpt lat="44.8341769" lon="9.4936036"><ele>359.6666666666667</ele><time>2026-04-26T09:27:23.933Z</time></trkpt><trkpt lat="44.8341665" lon="9.4936913"><ele>358.5</ele><time>2026-04-26T09:27:24.934Z</time></trkpt><trkpt lat="44.834159" lon="9.493844"><ele>357.3333333333333</ele><time>2026-04-26T09:27:26.939Z</time></trkpt><trkpt lat="44.8341711" lon="9.4939391"><ele>356.16666666666663</ele><time>2026-04-26T09:27:29.934Z</time></trkpt><trkpt lat="44.8341704" lon="9.4940554"><ele>355.0</ele><time>2026-04-26T09:27:32.933Z</time></trkpt><trkpt lat="44.8341196" lon="9.494138"><ele>352.4</ele><time>2026-04-26T09:27:34.933Z</time></trkpt><trkpt lat="44.8339932" lon="9.4941981"><ele>349.8</ele><time>2026-04-26T09:27:36.935Z</time></trkpt><trkpt lat="44.8339055" lon="9.4942298"><ele>347.20000000000005</ele><time>2026-04-26T09:27:37.933Z</time></trkpt><trkpt lat="44.8338221" lon="9.4942854"><ele>344.6</ele><time>2026-04-26T09:27:38.939Z</time></trkpt><trkpt lat="44.8337496" lon="9.4943644"><ele>342.0</ele><time>2026-04-26T09:27:39.934Z</time></trkpt><trkpt lat="44.8336834" lon="9.4944459"><ele>342.0</ele><time>2026-04-26T09:27:40.934Z</time></trkpt><trkpt lat="44.8336323" lon="9.4945258"><ele>342.0</ele><time>2026-04-26T09:27:41.933Z</time></trkpt><trkpt lat="44.8336013" lon="9.4946167"><ele>342.0</ele><time>2026-04-26T09:27:42.936Z</time></trkpt><trkpt lat="44.8335728" lon="9.4947155"><ele>342.0</ele><time>2026-04-26T09:27:43.933Z</time></trkpt><trkpt lat="44.8335361" lon="9.4948114"><ele>342.0</ele><time>2026-04-26T09:27:44.934Z</time></trkpt><trkpt lat="44.83349" lon="9.4949067"><ele>342.0</ele><time>2026-04-26T09:27:45.933Z</time></trkpt><trkpt lat="44.833435" lon="9.4949883"><ele>339.6</ele><time>2026-04-26T09:27:46.934Z</time></trkpt><trkpt lat="44.8333633" lon="9.4950567"><ele>337.20000000000005</ele><time>2026-04-26T09:27:47.934Z</time></trkpt><trkpt lat="44.8332733" lon="9.495115"><ele>334.8</ele><time>2026-04-26T09:27:48.934Z</time></trkpt><trkpt lat="44.8331817" lon="9.4951783"><ele>332.4</ele><time>2026-04-26T09:27:49.935Z</time></trkpt><trkpt lat="44.8330967" lon="9.495245"><ele>330.0</ele><time>2026-04-26T09:27:50.935Z</time></trkpt><trkpt lat="44.8330133" lon="9.4952933"><ele>330.0</ele><time>2026-04-26T09:27:51.934Z</time></trkpt><trkpt lat="44.8329317" lon="9.4953167"><ele>330.0</ele><time>2026-04-26T09:27:52.934Z</time></trkpt><trkpt lat="44.83285" lon="9.49531"><ele>330.0</ele><time>2026-04-26T09:27:53.933Z</time></trkpt><trkpt lat="44.8327767" lon="9.4952833"><ele>330.0</ele><time>2026-04-26T09:27:54.935Z</time></trkpt><trkpt lat="44.8327083" lon="9.4952517"><ele>330.0</ele><time>2026-04-26T09:27:55.94Z</time></trkpt><trkpt lat="44.83264" lon="9.4952267"><ele>330.0</ele><time>2026-04-26T09:27:56.936Z</time></trkpt><trkpt lat="44.8325733" lon="9.4952183"><ele>328.1666666666667</ele><time>2026-04-26T09:27:57.934Z</time></trkpt><trkpt lat="44.8325083" lon="9.49523"><ele>326.3333333333333</ele><time>2026-04-26T09:27:58.933Z</time></trkpt><trkpt lat="44.8324383" lon="9.4952733"><ele>324.5</ele><time>2026-04-26T09:27:59.933Z</time></trkpt><trkpt lat="44.83236" lon="9.49535"><ele>322.66666666666663</ele><time>2026-04-26T09:28:00.933Z</time></trkpt><trkpt lat="44.8322767" lon="9.4954433"><ele>320.8333333333333</ele><time>2026-04-26T09:28:01.938Z</time></trkpt><trkpt lat="44.8321967" lon="9.4955367"><ele>319.0</ele><time>2026-04-26T09:28:02.933Z</time></trkpt><trkpt lat="44.8321167" lon="9.4956183"><ele>318.59999999999997</ele><time>2026-04-26T09:28:03.933Z</time></trkpt><trkpt lat="44.8320367" lon="9.4956933"><ele>318.2</ele><time>2026-04-26T09:28:04.933Z</time></trkpt><trkpt lat="44.8319583" lon="9.4957633"><ele>317.79999999999995</ele><time>2026-04-26T09:28:05.934Z</time></trkpt><trkpt lat="44.8318783" lon="9.4958267"><ele>317.4</ele><time>2026-04-26T09:28:06.933Z</time></trkpt><trkpt lat="44.83179" lon="9.4958817"><ele>317.0</ele><time>2026-04-26T09:28:07.935Z</time></trkpt><trkpt lat="44.831685" lon="9.4959367"><ele>314.25</ele><time>2026-04-26T09:28:08.934Z</time></trkpt><trkpt lat="44.8315733" lon="9.4959933"><ele>311.5</ele><time>2026-04-26T09:28:09.933Z</time></trkpt><trkpt lat="44.831465" lon="9.4960567"><ele>308.75</ele><time>2026-04-26T09:28:10.933Z</time></trkpt><trkpt lat="44.83136" lon="9.49612"><ele>306.0</ele><time>2026-04-26T09:28:11.933Z</time></trkpt><trkpt lat="44.8312583" lon="9.4961817"><ele>306.0</ele><time>2026-04-26T09:28:12.934Z</time></trkpt><trkpt lat="44.83116" lon="9.4962383"><ele>306.0</ele><time>2026-04-26T09:28:13.936Z</time></trkpt><trkpt lat="44.831065" lon="9.49629"><ele>306.0</ele><time>2026-04-26T09:28:14.936Z</time></trkpt><trkpt lat="44.830975" lon="9.49634"><ele>306.0</ele><time>2026-04-26T09:28:15.936Z</time></trkpt><trkpt lat="44.830895" lon="9.4963867"><ele>306.0</ele><time>2026-04-26T09:28:16.935Z</time></trkpt><trkpt lat="44.8308167" lon="9.4964217"><ele>304.3333333333333</ele><time>2026-04-26T09:28:17.936Z</time></trkpt><trkpt lat="44.8307433" lon="9.4964417"><ele>302.6666666666667</ele><time>2026-04-26T09:28:18.937Z</time></trkpt><trkpt lat="44.83068" lon="9.496455"><ele>301.0</ele><time>2026-04-26T09:28:19.935Z</time></trkpt><trkpt lat="44.830615" lon="9.496465"><ele>299.33333333333337</ele><time>2026-04-26T09:28:20.936Z</time></trkpt><trkpt lat="44.8305233" lon="9.496535"><ele>297.6666666666667</ele><time>2026-04-26T09:28:22.935Z</time></trkpt><trkpt lat="44.8304767" lon="9.4967083"><ele>296.0</ele><time>2026-04-26T09:28:24.935Z</time></trkpt><trkpt lat="44.8304633" lon="9.49683"><ele>296.0</ele><time>2026-04-26T09:28:25.936Z</time></trkpt><trkpt lat="44.8304433" lon="9.49695"><ele>296.0</ele><time>2026-04-26T09:28:26.936Z</time></trkpt><trkpt lat="44.83041" lon="9.497055"><ele>296.0</ele><time>2026-04-26T09:28:27.937Z</time></trkpt><trkpt lat="44.8303617" lon="9.4971567"><ele>296.0</ele><time>2026-04-26T09:28:28.934Z</time></trkpt><trkpt lat="44.830285" lon="9.4972483"><ele>296.0</ele><time>2026-04-26T09:28:29.933Z</time></trkpt><trkpt lat="44.8301833" lon="9.4973417"><ele>292.5</ele><time>2026-04-26T09:28:30.935Z</time></trkpt><trkpt lat="44.8300667" lon="9.4974267"><ele>289.0</ele><time>2026-04-26T09:28:31.934Z</time></trkpt><trkpt lat="44.8299483" lon="9.4975067"><ele>285.5</ele><time>2026-04-26T09:28:32.935Z</time></trkpt><trkpt lat="44.8298383" lon="9.4975767"><ele>282.0</ele><time>2026-04-26T09:28:33.935Z</time></trkpt><trkpt lat="44.8297333" lon="9.497645"><ele>282.0</ele><time>2026-04-26T09:28:34.935Z</time></trkpt><trkpt lat="44.829635" lon="9.497715"><ele>282.0</ele><time>2026-04-26T09:28:35.933Z</time></trkpt><trkpt lat="44.8295433" lon="9.4977783"><ele>282.0</ele><time>2026-04-26T09:28:36.934Z</time></trkpt><trkpt lat="44.829465" lon="9.4978383"><ele>282.0</ele><time>2026-04-26T09:28:37.934Z</time></trkpt><trkpt lat="44.8293967" lon="9.4978883"><ele>282.0</ele><time>2026-04-26T09:28:38.935Z</time></trkpt><trkpt lat="44.829335" lon="9.49793"><ele>282.0</ele><time>2026-04-26T09:28:39.934Z</time></trkpt><trkpt lat="44.8292533" lon="9.498"><ele>280.8</ele><time>2026-04-26T09:28:41.933Z</time></trkpt><trkpt lat="44.8292517" lon="9.49809"><ele>279.6</ele><time>2026-04-26T09:28:43.934Z</time></trkpt><trkpt lat="44.8293533" lon="9.49819"><ele>278.40000000000003</ele><time>2026-04-26T09:28:45.933Z</time></trkpt><trkpt lat="44.829445" lon="9.4982183"><ele>277.2</ele><time>2026-04-26T09:28:46.938Z</time></trkpt><trkpt lat="44.82955" lon="9.4982417"><ele>276.0</ele><time>2026-04-26T09:28:47.935Z</time></trkpt><trkpt lat="44.829655" lon="9.49825"><ele>276.0</ele><time>2026-04-26T09:28:48.934Z</time></trkpt><trkpt lat="44.82974" lon="9.4982667"><ele>276.0</ele><time>2026-04-26T09:28:49.935Z</time></trkpt><trkpt lat="44.8298083" lon="9.498295"><ele>276.0</ele><time>2026-04-26T09:28:50.934Z</time></trkpt><trkpt lat="44.8298317" lon="9.49842"><ele>276.0</ele><time>2026-04-26T09:28:52.935Z</time></trkpt><trkpt lat="44.829765" lon="9.4985483"><ele>276.0</ele><time>2026-04-26T09:28:54.934Z</time></trkpt><trkpt lat="44.8296967" lon="9.4986117"><ele>276.0</ele><time>2026-04-26T09:28:55.933Z</time></trkpt><trkpt lat="44.8296033" lon="9.4986767"><ele>276.0</ele><time>2026-04-26T09:28:56.94Z</time></trkpt><trkpt lat="44.8295183" lon="9.4987483"><ele>276.0</ele><time>2026-04-26T09:28:57.934Z</time></trkpt><trkpt lat="44.829445" lon="9.4988267"><ele>276.0</ele><time>2026-04-26T09:28:58.935Z</time></trkpt><trkpt lat="44.829375" lon="9.49892"><ele>276.0</ele><time>2026-04-26T09:28:59.935Z</time></trkpt><trkpt lat="44.8293" lon="9.4990467"><ele>276.0</ele><time>2026-04-26T09:29:00.934Z</time></trkpt><trkpt lat="44.829205" lon="9.4991767"><ele>275.0</ele><time>2026-04-26T09:29:01.935Z</time></trkpt><trkpt lat="44.8291017" lon="9.49931"><ele>274.0</ele><time>2026-04-26T09:29:02.936Z</time></trkpt><trkpt lat="44.829015" lon="9.499445"><ele>273.0</ele><time>2026-04-26T09:29:03.935Z</time></trkpt><trkpt lat="44.8289267" lon="9.4995983"><ele>272.0</ele><time>2026-04-26T09:29:04.941Z</time></trkpt><trkpt lat="44.828835" lon="9.4997667"><ele>272.0</ele><time>2026-04-26T09:29:05.933Z</time></trkpt><trkpt lat="44.828735" lon="9.4999383"><ele>272.0</ele><time>2026-04-26T09:29:06.933Z</time></trkpt><trkpt lat="44.828645" lon="9.5001033"><ele>272.0</ele><time>2026-04-26T09:29:07.935Z</time></trkpt><trkpt lat="44.8285583" lon="9.5002517"><ele>272.0</ele><time>2026-04-26T09:29:08.935Z</time></trkpt><trkpt lat="44.82848" lon="9.50039"><ele>269.8</ele><time>2026-04-26T09:29:09.934Z</time></trkpt><trkpt lat="44.828415" lon="9.5005233"><ele>267.6</ele><time>2026-04-26T09:29:10.934Z</time></trkpt><trkpt lat="44.82836" lon="9.500645"><ele>265.40000000000003</ele><time>2026-04-26T09:29:11.934Z</time></trkpt><trkpt lat="44.8283183" lon="9.500755"><ele>263.2</ele><time>2026-04-26T09:29:12.934Z</time></trkpt><trkpt lat="44.828295" lon="9.500855"><ele>261.0</ele><time>2026-04-26T09:29:13.933Z</time></trkpt><trkpt lat="44.8282858" lon="9.500954"><ele>261.0</ele><time>2026-04-26T09:29:14.934Z</time></trkpt><trkpt lat="44.828299" lon="9.5010432"><ele>261.0</ele><time>2026-04-26T09:29:15.933Z</time></trkpt><trkpt lat="44.8283347" lon="9.5011217"><ele>261.0</ele><time>2026-04-26T09:29:16.933Z</time></trkpt><trkpt lat="44.8283921" lon="9.5012002"><ele>261.0</ele><time>2026-04-26T09:29:17.935Z</time></trkpt><trkpt lat="44.8284889" lon="9.501285"><ele>261.0</ele><time>2026-04-26T09:29:18.935Z</time></trkpt><trkpt lat="44.8286002" lon="9.5013807"><ele>260.75</ele><time>2026-04-26T09:29:19.935Z</time></trkpt><trkpt lat="44.8287141" lon="9.5014856"><ele>260.5</ele><time>2026-04-26T09:29:20.936Z</time></trkpt><trkpt lat="44.8288355" lon="9.5015818"><ele>260.25</ele><time>2026-04-26T09:29:21.941Z</time></trkpt><trkpt lat="44.8289638" lon="9.5016587"><ele>260.0</ele><time>2026-04-26T09:29:22.935Z</time></trkpt><trkpt lat="44.8290894" lon="9.5017171"><ele>260.0</ele><time>2026-04-26T09:29:23.935Z</time></trkpt><trkpt lat="44.8292058" lon="9.501764"><ele>260.0</ele><time>2026-04-26T09:29:24.934Z</time></trkpt><trkpt lat="44.829307" lon="9.5017932"><ele>260.0</ele><time>2026-04-26T09:29:25.934Z</time></trkpt><trkpt lat="44.8293983" lon="9.5017827"><ele>260.0</ele><time>2026-04-26T09:29:26.937Z</time></trkpt><trkpt lat="44.8294814" lon="9.5017313"><ele>260.0</ele><time>2026-04-26T09:29:27.934Z</time></trkpt><trkpt lat="44.8295636" lon="9.5016262"><ele>260.75</ele><time>2026-04-26T09:29:28.933Z</time></trkpt><trkpt lat="44.8296446" lon="9.5014834"><ele>261.5</ele><time>2026-04-26T09:29:29.934Z</time></trkpt><trkpt lat="44.8297258" lon="9.5013443"><ele>262.25</ele><time>2026-04-26T09:29:30.935Z</time></trkpt><trkpt lat="44.829804" lon="9.5012333"><ele>263.0</ele><time>2026-04-26T09:29:31.934Z</time></trkpt><trkpt lat="44.8298823" lon="9.5011436"><ele>263.0</ele><time>2026-04-26T09:29:32.934Z</time></trkpt><trkpt lat="44.8299664" lon="9.5010715"><ele>263.0</ele><time>2026-04-26T09:29:33.934Z</time></trkpt><trkpt lat="44.8300577" lon="9.5009942"><ele>263.0</ele><time>2026-04-26T09:29:34.939Z</time></trkpt><trkpt lat="44.8301454" lon="9.5009004"><ele>263.0</ele><time>2026-04-26T09:29:35.934Z</time></trkpt><trkpt lat="44.8302233" lon="9.500812"><ele>263.0</ele><time>2026-04-26T09:29:36.934Z</time></trkpt><trkpt lat="44.8302979" lon="9.5007521"><ele>265.5</ele><time>2026-04-26T09:29:37.935Z</time></trkpt><trkpt lat="44.8304" lon="9.5007978"><ele>268.0</ele><time>2026-04-26T09:29:39.935Z</time></trkpt><trkpt lat="44.8303981" lon="9.5009859"><ele>270.5</ele><time>2026-04-26T09:29:41.935Z</time></trkpt><trkpt lat="44.8303557" lon="9.50112"><ele>273.0</ele><time>2026-04-26T09:29:42.934Z</time></trkpt><trkpt lat="44.830304" lon="9.5012822"><ele>273.0</ele><time>2026-04-26T09:29:43.936Z</time></trkpt><trkpt lat="44.8302558" lon="9.5014628"><ele>273.0</ele><time>2026-04-26T09:29:44.934Z</time></trkpt><trkpt lat="44.830243" lon="9.5016449"><ele>273.0</ele><time>2026-04-26T09:29:45.934Z</time></trkpt><trkpt lat="44.8302426" lon="9.5018165"><ele>273.0</ele><time>2026-04-26T09:29:46.935Z</time></trkpt><trkpt lat="44.8302283" lon="9.5019793"><ele>271.8</ele><time>2026-04-26T09:29:47.935Z</time></trkpt><trkpt lat="44.8301939" lon="9.5021228"><ele>270.6</ele><time>2026-04-26T09:29:48.935Z</time></trkpt><trkpt lat="44.8301595" lon="9.5022442"><ele>269.4</ele><time>2026-04-26T09:29:49.936Z</time></trkpt><trkpt lat="44.8301422" lon="9.5023599"><ele>268.2</ele><time>2026-04-26T09:29:50.936Z</time></trkpt><trkpt lat="44.8301527" lon="9.5024852"><ele>267.0</ele><time>2026-04-26T09:29:51.935Z</time></trkpt><trkpt lat="44.8301944" lon="9.5026354"><ele>267.0</ele><time>2026-04-26T09:29:52.938Z</time></trkpt><trkpt lat="44.8302453" lon="9.5028088"><ele>267.0</ele><time>2026-04-26T09:29:53.935Z</time></trkpt><trkpt lat="44.8302941" lon="9.5030048"><ele>267.0</ele><time>2026-04-26T09:29:54.934Z</time></trkpt><trkpt lat="44.8303464" lon="9.5032059"><ele>267.0</ele><time>2026-04-26T09:29:55.934Z</time></trkpt><trkpt lat="44.8304056" lon="9.5034067"><ele>264.5</ele><time>2026-04-26T09:29:56.937Z</time></trkpt><trkpt lat="44.8304661" lon="9.5035975"><ele>262.0</ele><time>2026-04-26T09:29:57.934Z</time></trkpt><trkpt lat="44.8305214" lon="9.5037834"><ele>259.5</ele><time>2026-04-26T09:29:58.934Z</time></trkpt><trkpt lat="44.8305644" lon="9.5039726"><ele>257.0</ele><time>2026-04-26T09:29:59.94Z</time></trkpt><trkpt lat="44.830602" lon="9.5041668"><ele>254.25</ele><time>2026-04-26T09:30:00.935Z</time></trkpt><trkpt lat="44.8306364" lon="9.5043649"><ele>251.5</ele><time>2026-04-26T09:30:01.933Z</time></trkpt><trkpt lat="44.8306656" lon="9.5045668"><ele>248.75</ele><time>2026-04-26T09:30:02.934Z</time></trkpt><trkpt lat="44.8306926" lon="9.504766"><ele>246.0</ele><time>2026-04-26T09:30:03.936Z</time></trkpt><trkpt lat="44.8307234" lon="9.5049505"><ele>244.25</ele><time>2026-04-26T09:30:04.935Z</time></trkpt><trkpt lat="44.830761" lon="9.5051164"><ele>242.5</ele><time>2026-04-26T09:30:05.937Z</time></trkpt><trkpt lat="44.8308066" lon="9.5052729"><ele>240.75</ele><time>2026-04-26T09:30:06.937Z</time></trkpt><trkpt lat="44.8308707" lon="9.5054317"><ele>239.0</ele><time>2026-04-26T09:30:07.936Z</time></trkpt><trkpt lat="44.8309474" lon="9.5055878"><ele>241.25</ele><time>2026-04-26T09:30:08.934Z</time></trkpt><trkpt lat="44.8310134" lon="9.5057476"><ele>243.5</ele><time>2026-04-26T09:30:09.935Z</time></trkpt><trkpt lat="44.8310615" lon="9.5059077"><ele>245.75</ele><time>2026-04-26T09:30:10.939Z</time></trkpt><trkpt lat="44.8310979" lon="9.5060527"><ele>248.0</ele><time>2026-04-26T09:30:11.936Z</time></trkpt><trkpt lat="44.8311421" lon="9.5061753"><ele>245.8</ele><time>2026-04-26T09:30:12.936Z</time></trkpt><trkpt lat="44.8312132" lon="9.5062788"><ele>243.60000000000002</ele><time>2026-04-26T09:30:13.935Z</time></trkpt><trkpt lat="44.831307" lon="9.5063658"><ele>241.39999999999998</ele><time>2026-04-26T09:30:14.935Z</time></trkpt><trkpt lat="44.8314029" lon="9.5064594"><ele>239.2</ele><time>2026-04-26T09:30:15.933Z</time></trkpt><trkpt lat="44.831481" lon="9.506575"><ele>237.0</ele><time>2026-04-26T09:30:16.935Z</time></trkpt><trkpt lat="44.8315301" lon="9.5067105"><ele>237.0</ele><time>2026-04-26T09:30:17.934Z</time></trkpt><trkpt lat="44.8315445" lon="9.5068715"><ele>237.0</ele><time>2026-04-26T09:30:18.934Z</time></trkpt><trkpt lat="44.8315512" lon="9.5070387"><ele>237.0</ele><time>2026-04-26T09:30:19.934Z</time></trkpt><trkpt lat="44.8315771" lon="9.5071855"><ele>237.0</ele><time>2026-04-26T09:30:20.934Z</time></trkpt><trkpt lat="44.831626" lon="9.5072988"><ele>237.0</ele><time>2026-04-26T09:30:21.936Z</time></trkpt><trkpt lat="44.8316923" lon="9.5073826"><ele>236.75</ele><time>2026-04-26T09:30:22.934Z</time></trkpt><trkpt lat="44.8317735" lon="9.5074615"><ele>236.5</ele><time>2026-04-26T09:30:23.94Z</time></trkpt><trkpt lat="44.8318618" lon="9.5075514"><ele>236.25</ele><time>2026-04-26T09:30:24.935Z</time></trkpt><trkpt lat="44.8319572" lon="9.5076522"><ele>236.0</ele><time>2026-04-26T09:30:25.935Z</time></trkpt><trkpt lat="44.8320613" lon="9.5077515"><ele>236.0</ele><time>2026-04-26T09:30:26.935Z</time></trkpt><trkpt lat="44.8321717" lon="9.507848"><ele>236.0</ele><time>2026-04-26T09:30:27.935Z</time></trkpt><trkpt lat="44.8322867" lon="9.5079401"><ele>236.0</ele><time>2026-04-26T09:30:28.934Z</time></trkpt><trkpt lat="44.832412" lon="9.508025"><ele>236.0</ele><time>2026-04-26T09:30:29.936Z</time></trkpt><trkpt lat="44.8325457" lon="9.5080999"><ele>233.66666666666669</ele><time>2026-04-26T09:30:30.934Z</time></trkpt><trkpt lat="44.8326875" lon="9.5081726"><ele>231.33333333333331</ele><time>2026-04-26T09:30:31.935Z</time></trkpt><trkpt lat="44.832829" lon="9.5082579"><ele>229.0</ele><time>2026-04-26T09:30:32.938Z</time></trkpt><trkpt lat="44.8329641" lon="9.5083767"><ele>229.0</ele><time>2026-04-26T09:30:33.935Z</time></trkpt><trkpt lat="44.8330848" lon="9.5085156"><ele>229.0</ele><time>2026-04-26T09:30:34.936Z</time></trkpt><trkpt lat="44.8331806" lon="9.5086628"><ele>229.0</ele><time>2026-04-26T09:30:35.935Z</time></trkpt><trkpt lat="44.8332492" lon="9.5088135"><ele>229.0</ele><time>2026-04-26T09:30:36.935Z</time></trkpt><trkpt lat="44.8332913" lon="9.5089579"><ele>227.39999999999998</ele><time>2026-04-26T09:30:37.936Z</time></trkpt><trkpt lat="44.8333058" lon="9.5090993"><ele>225.79999999999998</ele><time>2026-04-26T09:30:38.935Z</time></trkpt><trkpt lat="44.8332917" lon="9.5092436"><ele>224.20000000000002</ele><time>2026-04-26T09:30:39.942Z</time></trkpt><trkpt lat="44.8332527" lon="9.5093874"><ele>222.60000000000002</ele><time>2026-04-26T09:30:40.934Z</time></trkpt><trkpt lat="44.8332107" lon="9.5095262"><ele>221.0</ele><time>2026-04-26T09:30:41.934Z</time></trkpt><trkpt lat="44.8331895" lon="9.5096517"><ele>219.4</ele><time>2026-04-26T09:30:42.935Z</time></trkpt><trkpt lat="44.8331981" lon="9.5097687"><ele>217.8</ele><time>2026-04-26T09:30:43.933Z</time></trkpt><trkpt lat="44.8332371" lon="9.5098917"><ele>216.20000000000002</ele><time>2026-04-26T09:30:44.935Z</time></trkpt><trkpt lat="44.8333013" lon="9.5100249"><ele>214.60000000000002</ele><time>2026-04-26T09:30:45.935Z</time></trkpt><trkpt lat="44.8333762" lon="9.5101655"><ele>213.0</ele><time>2026-04-26T09:30:46.935Z</time></trkpt><trkpt lat="44.8334505" lon="9.510307"><ele>213.2</ele><time>2026-04-26T09:30:47.934Z</time></trkpt><trkpt lat="44.8335229" lon="9.5104363"><ele>213.4</ele><time>2026-04-26T09:30:48.934Z</time></trkpt><trkpt lat="44.8335984" lon="9.5105378"><ele>213.59999999999997</ele><time>2026-04-26T09:30:49.936Z</time></trkpt><trkpt lat="44.8336882" lon="9.5105978"><ele>213.79999999999998</ele><time>2026-04-26T09:30:50.934Z</time></trkpt><trkpt lat="44.8337938" lon="9.5106192"><ele>214.0</ele><time>2026-04-26T09:30:51.934Z</time></trkpt><trkpt lat="44.8339092" lon="9.5106315"><ele>214.0</ele><time>2026-04-26T09:30:52.935Z</time></trkpt><trkpt lat="44.8340233" lon="9.5106791"><ele>214.0</ele><time>2026-04-26T09:30:53.934Z</time></trkpt><trkpt lat="44.8341218" lon="9.5107691"><ele>214.0</ele><time>2026-04-26T09:30:54.938Z</time></trkpt><trkpt lat="44.834191" lon="9.5108975"><ele>214.0</ele><time>2026-04-26T09:30:55.934Z</time></trkpt><trkpt lat="44.8342332" lon="9.5110441"><ele>214.0</ele><time>2026-04-26T09:30:56.934Z</time></trkpt><trkpt lat="44.8342499" lon="9.5112073"><ele>213.99999999999997</ele><time>2026-04-26T09:30:57.934Z</time></trkpt><trkpt lat="44.8342566" lon="9.5113694"><ele>213.99999999999997</ele><time>2026-04-26T09:30:58.934Z</time></trkpt><trkpt lat="44.8342726" lon="9.511522"><ele>214.0</ele><time>2026-04-26T09:30:59.934Z</time></trkpt><trkpt lat="44.8343067" lon="9.5116646"><ele>214.0</ele><time>2026-04-26T09:31:00.934Z</time></trkpt><trkpt lat="44.834351" lon="9.5117934"><ele>213.79999999999998</ele><time>2026-04-26T09:31:01.94Z</time></trkpt><trkpt lat="44.8344094" lon="9.511906"><ele>213.59999999999997</ele><time>2026-04-26T09:31:02.935Z</time></trkpt><trkpt lat="44.8344809" lon="9.5120133"><ele>213.4</ele><time>2026-04-26T09:31:03.935Z</time></trkpt><trkpt lat="44.8345643" lon="9.5121176"><ele>213.2</ele><time>2026-04-26T09:31:04.934Z</time></trkpt><trkpt lat="44.834656" lon="9.5122236"><ele>213.0</ele><time>2026-04-26T09:31:05.934Z</time></trkpt><trkpt lat="44.8347503" lon="9.5123403"><ele>213.0</ele><time>2026-04-26T09:31:06.934Z</time></trkpt><trkpt lat="44.8348372" lon="9.5124609"><ele>213.0</ele><time>2026-04-26T09:31:07.934Z</time></trkpt><trkpt lat="44.8349235" lon="9.5125758"><ele>213.0</ele><time>2026-04-26T09:31:08.939Z</time></trkpt><trkpt lat="44.83502" lon="9.5126814"><ele>213.0</ele><time>2026-04-26T09:31:09.936Z</time></trkpt><trkpt lat="44.8351242" lon="9.5127789"><ele>214.2</ele><time>2026-04-26T09:31:10.934Z</time></trkpt><trkpt lat="44.8352227" lon="9.5128673"><ele>215.4</ele><time>2026-04-26T09:31:11.936Z</time></trkpt><trkpt lat="44.8353159" lon="9.5129438"><ele>216.59999999999997</ele><time>2026-04-26T09:31:12.934Z</time></trkpt><trkpt lat="44.8354144" lon="9.5130029"><ele>217.79999999999998</ele><time>2026-04-26T09:31:13.937Z</time></trkpt><trkpt lat="44.8355186" lon="9.5130383"><ele>219.0</ele><time>2026-04-26T09:31:14.934Z</time></trkpt><trkpt lat="44.8356344" lon="9.5130612"><ele>217.25</ele><time>2026-04-26T09:31:15.934Z</time></trkpt><trkpt lat="44.8357552" lon="9.5130862"><ele>215.5</ele><time>2026-04-26T09:31:16.934Z</time></trkpt><trkpt lat="44.8358802" lon="9.5131188"><ele>213.75</ele><time>2026-04-26T09:31:17.936Z</time></trkpt><trkpt lat="44.8360084" lon="9.5131537"><ele>212.0</ele><time>2026-04-26T09:31:18.934Z</time></trkpt><trkpt lat="44.8361346" lon="9.5131869"><ele>212.0</ele><time>2026-04-26T09:31:19.935Z</time></trkpt><trkpt lat="44.8362598" lon="9.5132144"><ele>212.0</ele><time>2026-04-26T09:31:20.934Z</time></trkpt><trkpt lat="44.836388" lon="9.5132413"><ele>212.0</ele><time>2026-04-26T09:31:21.934Z</time></trkpt><trkpt lat="44.8365195" lon="9.5132717"><ele>212.0</ele><time>2026-04-26T09:31:22.936Z</time></trkpt><trkpt lat="44.8366513" lon="9.5132979"><ele>212.0</ele><time>2026-04-26T09:31:23.935Z</time></trkpt><trkpt lat="44.8367845" lon="9.5133177"><ele>212.0</ele><time>2026-04-26T09:31:24.935Z</time></trkpt><trkpt lat="44.8369193" lon="9.5133349"><ele>212.0</ele><time>2026-04-26T09:31:25.933Z</time></trkpt><trkpt lat="44.8370521" lon="9.513351"><ele>212.0</ele><time>2026-04-26T09:31:26.941Z</time></trkpt><trkpt lat="44.8371777" lon="9.5133638"><ele>212.75</ele><time>2026-04-26T09:31:27.934Z</time></trkpt><trkpt lat="44.8372979" lon="9.5133728"><ele>213.5</ele><time>2026-04-26T09:31:28.934Z</time></trkpt><trkpt lat="44.8374093" lon="9.5133875"><ele>214.25</ele><time>2026-04-26T09:31:29.937Z</time></trkpt><trkpt lat="44.8375156" lon="9.5134314"><ele>215.0</ele><time>2026-04-26T09:31:30.936Z</time></trkpt><trkpt lat="44.8376189" lon="9.5135214"><ele>215.0</ele><time>2026-04-26T09:31:31.935Z</time></trkpt><trkpt lat="44.8377206" lon="9.5136356"><ele>215.0</ele><time>2026-04-26T09:31:32.94Z</time></trkpt><trkpt lat="44.8378203" lon="9.5137466"><ele>215.0</ele><time>2026-04-26T09:31:33.935Z</time></trkpt><trkpt lat="44.8379262" lon="9.5138334"><ele>215.0</ele><time>2026-04-26T09:31:34.935Z</time></trkpt><trkpt lat="44.8380465" lon="9.5138966"><ele>213.5</ele><time>2026-04-26T09:31:35.936Z</time></trkpt><trkpt lat="44.8381738" lon="9.5139483"><ele>212.0</ele><time>2026-04-26T09:31:36.935Z</time></trkpt><trkpt lat="44.8383051" lon="9.514"><ele>210.5</ele><time>2026-04-26T09:31:37.934Z</time></trkpt><trkpt lat="44.8384283" lon="9.5140482"><ele>209.0</ele><time>2026-04-26T09:31:38.935Z</time></trkpt><trkpt lat="44.8385443" lon="9.5140882"><ele>209.0</ele><time>2026-04-26T09:31:39.934Z</time></trkpt><trkpt lat="44.838652" lon="9.5141141"><ele>209.0</ele><time>2026-04-26T09:31:40.935Z</time></trkpt><trkpt lat="44.8387512" lon="9.5141147"><ele>209.0</ele><time>2026-04-26T09:31:41.942Z</time></trkpt><trkpt lat="44.8388397" lon="9.5140773"><ele>209.0</ele><time>2026-04-26T09:31:42.934Z</time></trkpt><trkpt lat="44.8389168" lon="9.5139939"><ele>209.0</ele><time>2026-04-26T09:31:43.934Z</time></trkpt><trkpt lat="44.8389832" lon="9.513884"><ele>209.0</ele><time>2026-04-26T09:31:44.934Z</time></trkpt><trkpt lat="44.8390469" lon="9.5137888"><ele>209.0</ele><time>2026-04-26T09:31:45.934Z</time></trkpt><trkpt lat="44.8391112" lon="9.5137282"><ele>209.0</ele><time>2026-04-26T09:31:46.935Z</time></trkpt><trkpt lat="44.8392278" lon="9.5137614"><ele>209.0</ele><time>2026-04-26T09:31:48.936Z</time></trkpt><trkpt lat="44.8392863" lon="9.5139041"><ele>209.0</ele><time>2026-04-26T09:31:50.937Z</time></trkpt><trkpt lat="44.8392911" lon="9.5139961"><ele>209.0</ele><time>2026-04-26T09:31:51.935Z</time></trkpt><trkpt lat="44.8392861" lon="9.5141034"><ele>209.0</ele><time>2026-04-26T09:31:52.937Z</time></trkpt><trkpt lat="44.8392597" lon="9.5142355"><ele>209.0</ele><time>2026-04-26T09:31:53.937Z</time></trkpt><trkpt lat="44.8392252" lon="9.5143767"><ele>209.0</ele><time>2026-04-26T09:31:54.934Z</time></trkpt><trkpt lat="44.839199" lon="9.5145122"><ele>209.0</ele><time>2026-04-26T09:31:55.935Z</time></trkpt><trkpt lat="44.839192" lon="9.5146566"><ele>209.0</ele><time>2026-04-26T09:31:56.934Z</time></trkpt><trkpt lat="44.8392066" lon="9.5148037"><ele>209.0</ele><time>2026-04-26T09:31:57.936Z</time></trkpt><trkpt lat="44.8392479" lon="9.5149368"><ele>209.0</ele><time>2026-04-26T09:31:58.933Z</time></trkpt><trkpt lat="44.8393051" lon="9.5150621"><ele>209.0</ele><time>2026-04-26T09:31:59.933Z</time></trkpt><trkpt lat="44.839357" lon="9.5151833"><ele>209.0</ele><time>2026-04-26T09:32:00.935Z</time></trkpt><trkpt lat="44.8393923" lon="9.515305"><ele>212.33333333333334</ele><time>2026-04-26T09:32:01.935Z</time></trkpt><trkpt lat="44.8394214" lon="9.5154288"><ele>215.66666666666669</ele><time>2026-04-26T09:32:02.935Z</time></trkpt><trkpt lat="44.8394564" lon="9.5155462"><ele>219.0</ele><time>2026-04-26T09:32:03.944Z</time></trkpt><trkpt lat="44.8395018" lon="9.5156426"><ele>222.33333333333331</ele><time>2026-04-26T09:32:04.935Z</time></trkpt><trkpt lat="44.8395532" lon="9.5157178"><ele>225.66666666666666</ele><time>2026-04-26T09:32:05.935Z</time></trkpt><trkpt lat="44.8396083" lon="9.5157828"><ele>229.0</ele><time>2026-04-26T09:32:06.934Z</time></trkpt><trkpt lat="44.8396749" lon="9.5158537"><ele>229.0</ele><time>2026-04-26T09:32:07.934Z</time></trkpt><trkpt lat="44.839751" lon="9.5159431"><ele>229.0</ele><time>2026-04-26T09:32:08.936Z</time></trkpt><trkpt lat="44.8398344" lon="9.5160648"><ele>229.0</ele><time>2026-04-26T09:32:09.935Z</time></trkpt><trkpt lat="44.8399124" lon="9.5162163"><ele>229.0</ele><time>2026-04-26T09:32:10.937Z</time></trkpt><trkpt lat="44.8399818" lon="9.5163842"><ele>230.39999999999998</ele><time>2026-04-26T09:32:11.934Z</time></trkpt><trkpt lat="44.8400379" lon="9.516549"><ele>231.79999999999998</ele><time>2026-04-26T09:32:12.934Z</time></trkpt><trkpt lat="44.8400809" lon="9.5166809"><ele>233.20000000000002</ele><time>2026-04-26T09:32:13.938Z</time></trkpt><trkpt lat="44.8401213" lon="9.5167785"><ele>234.60000000000002</ele><time>2026-04-26T09:32:14.934Z</time></trkpt><trkpt lat="44.8401648" lon="9.5168602"><ele>236.0</ele><time>2026-04-26T09:32:15.935Z</time></trkpt><trkpt lat="44.8402169" lon="9.5169295"><ele>236.0</ele><time>2026-04-26T09:32:16.933Z</time></trkpt><trkpt lat="44.8402883" lon="9.5169842"><ele>236.00000000000003</ele><time>2026-04-26T09:32:17.934Z</time></trkpt><trkpt lat="44.8403799" lon="9.5170353"><ele>236.00000000000003</ele><time>2026-04-26T09:32:18.935Z</time></trkpt><trkpt lat="44.8404754" lon="9.5171026"><ele>236.0</ele><time>2026-04-26T09:32:19.934Z</time></trkpt><trkpt lat="44.8405712" lon="9.517188"><ele>236.0</ele><time>2026-04-26T09:32:20.94Z</time></trkpt><trkpt lat="44.8406672" lon="9.5172741"><ele>236.5</ele><time>2026-04-26T09:32:21.934Z</time></trkpt><trkpt lat="44.8407623" lon="9.5173691"><ele>237.0</ele><time>2026-04-26T09:32:22.933Z</time></trkpt><trkpt lat="44.8408549" lon="9.5174691"><ele>237.5</ele><time>2026-04-26T09:32:23.934Z</time></trkpt><trkpt lat="44.8409413" lon="9.5175818"><ele>238.0</ele><time>2026-04-26T09:32:24.933Z</time></trkpt><trkpt lat="44.8410087" lon="9.5177134"><ele>238.0</ele><time>2026-04-26T09:32:25.934Z</time></trkpt><trkpt lat="44.8410584" lon="9.517851"><ele>238.0</ele><time>2026-04-26T09:32:26.935Z</time></trkpt><trkpt lat="44.8410973" lon="9.5179968"><ele>238.0</ele><time>2026-04-26T09:32:27.933Z</time></trkpt><trkpt lat="44.8411347" lon="9.5181371"><ele>238.0</ele><time>2026-04-26T09:32:28.935Z</time></trkpt><trkpt lat="44.8411861" lon="9.5182576"><ele>238.0</ele><time>2026-04-26T09:32:29.935Z</time></trkpt><trkpt lat="44.8412528" lon="9.5183585"><ele>233.25</ele><time>2026-04-26T09:32:30.936Z</time></trkpt><trkpt lat="44.8413438" lon="9.5184402"><ele>228.5</ele><time>2026-04-26T09:32:31.933Z</time></trkpt><trkpt lat="44.841451" lon="9.518517"><ele>223.75</ele><time>2026-04-26T09:32:32.935Z</time></trkpt><trkpt lat="44.841569" lon="9.5186106"><ele>219.0</ele><time>2026-04-26T09:32:33.935Z</time></trkpt><trkpt lat="44.8416922" lon="9.5187161"><ele>215.25</ele><time>2026-04-26T09:32:34.935Z</time></trkpt><trkpt lat="44.8418151" lon="9.5188241"><ele>211.5</ele><time>2026-04-26T09:32:35.933Z</time></trkpt><trkpt lat="44.8419302" lon="9.5189152"><ele>207.75</ele><time>2026-04-26T09:32:36.935Z</time></trkpt><trkpt lat="44.8420334" lon="9.518992"><ele>204.0</ele><time>2026-04-26T09:32:37.934Z</time></trkpt><trkpt lat="44.8421266" lon="9.5190418"><ele>204.0</ele><time>2026-04-26T09:32:38.934Z</time></trkpt><trkpt lat="44.8422178" lon="9.5190769"><ele>204.0</ele><time>2026-04-26T09:32:39.933Z</time></trkpt><trkpt lat="44.8423184" lon="9.5191038"><ele>204.0</ele><time>2026-04-26T09:32:40.934Z</time></trkpt><trkpt lat="44.8424279" lon="9.5191224"><ele>204.0</ele><time>2026-04-26T09:32:41.936Z</time></trkpt><trkpt lat="44.8425472" lon="9.5191217"><ele>204.0</ele><time>2026-04-26T09:32:42.934Z</time></trkpt><trkpt lat="44.8426696" lon="9.5190991"><ele>206.6</ele><time>2026-04-26T09:32:43.94Z</time></trkpt><trkpt lat="44.8427839" lon="9.5190774"><ele>209.2</ele><time>2026-04-26T09:32:44.934Z</time></trkpt><trkpt lat="44.8428945" lon="9.5190737"><ele>211.79999999999998</ele><time>2026-04-26T09:32:45.933Z</time></trkpt><trkpt lat="44.8429944" lon="9.5191053"><ele>214.39999999999998</ele><time>2026-04-26T09:32:46.936Z</time></trkpt><trkpt lat="44.8430899" lon="9.5191772"><ele>217.0</ele><time>2026-04-26T09:32:47.934Z</time></trkpt><trkpt lat="44.8431926" lon="9.5192882"><ele>217.0</ele><time>2026-04-26T09:32:48.936Z</time></trkpt><trkpt lat="44.8433073" lon="9.5194158"><ele>217.0</ele><time>2026-04-26T09:32:49.934Z</time></trkpt><trkpt lat="44.8434275" lon="9.5195384"><ele>217.0</ele><time>2026-04-26T09:32:50.934Z</time></trkpt><trkpt lat="44.8435438" lon="9.5196456"><ele>217.0</ele><time>2026-04-26T09:32:51.933Z</time></trkpt><trkpt lat="44.8436453" lon="9.5197398"><ele>216.33333333333331</ele><time>2026-04-26T09:32:52.933Z</time></trkpt><trkpt lat="44.8437307" lon="9.5198208"><ele>215.66666666666666</ele><time>2026-04-26T09:32:53.936Z</time></trkpt><trkpt lat="44.8437996" lon="9.5198987"><ele>215.0</ele><time>2026-04-26T09:32:54.932Z</time></trkpt><trkpt lat="44.8438585" lon="9.5199785"><ele>214.33333333333331</ele><time>2026-04-26T09:32:55.933Z</time></trkpt><trkpt lat="44.8439137" lon="9.5200532"><ele>213.66666666666666</ele><time>2026-04-26T09:32:56.933Z</time></trkpt><trkpt lat="44.8439791" lon="9.5201103"><ele>213.0</ele><time>2026-04-26T09:32:57.933Z</time></trkpt><trkpt lat="44.8440615" lon="9.520145"><ele>213.0</ele><time>2026-04-26T09:32:58.935Z</time></trkpt><trkpt lat="44.8441588" lon="9.5201777"><ele>213.0</ele><time>2026-04-26T09:32:59.935Z</time></trkpt><trkpt lat="44.8442563" lon="9.5202259"><ele>213.0</ele><time>2026-04-26T09:33:00.934Z</time></trkpt><trkpt lat="44.8443443" lon="9.5202933"><ele>213.0</ele><time>2026-04-26T09:33:01.935Z</time></trkpt><trkpt lat="44.8444158" lon="9.5203883"><ele>213.0</ele><time>2026-04-26T09:33:02.934Z</time></trkpt><trkpt lat="44.8444665" lon="9.5205045"><ele>212.0</ele><time>2026-04-26T09:33:03.934Z</time></trkpt><trkpt lat="44.844491" lon="9.5206324"><ele>211.0</ele><time>2026-04-26T09:33:04.932Z</time></trkpt><trkpt lat="44.8444995" lon="9.5207529"><ele>210.0</ele><time>2026-04-26T09:33:05.94Z</time></trkpt><trkpt lat="44.8445133" lon="9.5208542"><ele>209.0</ele><time>2026-04-26T09:33:06.933Z</time></trkpt><trkpt lat="44.8445396" lon="9.5209416"><ele>208.0</ele><time>2026-04-26T09:33:07.934Z</time></trkpt><trkpt lat="44.8446396" lon="9.521024"><ele>207.0</ele><time>2026-04-26T09:33:09.936Z</time></trkpt><trkpt lat="44.84471" lon="9.5210389"><ele>207.0</ele><time>2026-04-26T09:33:10.938Z</time></trkpt><trkpt lat="44.8447981" lon="9.5210595"><ele>207.0</ele><time>2026-04-26T09:33:11.933Z</time></trkpt><trkpt lat="44.8448995" lon="9.5211015"><ele>207.0</ele><time>2026-04-26T09:33:12.933Z</time></trkpt><trkpt lat="44.8449994" lon="9.5211687"><ele>207.0</ele><time>2026-04-26T09:33:13.935Z</time></trkpt><trkpt lat="44.8450852" lon="9.5212474"><ele>207.0</ele><time>2026-04-26T09:33:14.936Z</time></trkpt><trkpt lat="44.845153" lon="9.5213431"><ele>207.0</ele><time>2026-04-26T09:33:15.934Z</time></trkpt><trkpt lat="44.8451867" lon="9.5214597"><ele>207.0</ele><time>2026-04-26T09:33:16.933Z</time></trkpt><trkpt lat="44.8451916" lon="9.5215978"><ele>207.0</ele><time>2026-04-26T09:33:17.933Z</time></trkpt><trkpt lat="44.8451775" lon="9.5217593"><ele>207.0</ele><time>2026-04-26T09:33:18.934Z</time></trkpt><trkpt lat="44.8451542" lon="9.5219307"><ele>207.0</ele><time>2026-04-26T09:33:19.934Z</time></trkpt><trkpt lat="44.8451267" lon="9.5220933"><ele>206.0</ele><time>2026-04-26T09:33:20.933Z</time></trkpt><trkpt lat="44.8451033" lon="9.522235"><ele>205.0</ele><time>2026-04-26T09:33:21.934Z</time></trkpt><trkpt lat="44.8450767" lon="9.522345"><ele>204.0</ele><time>2026-04-26T09:33:22.933Z</time></trkpt><trkpt lat="44.8450717" lon="9.522445"><ele>203.0</ele><time>2026-04-26T09:33:23.933Z</time></trkpt><trkpt lat="44.8450817" lon="9.5225433"><ele>202.0</ele><time>2026-04-26T09:33:24.934Z</time></trkpt><trkpt lat="44.8451117" lon="9.5226267"><ele>201.0</ele><time>2026-04-26T09:33:25.934Z</time></trkpt><trkpt lat="44.845165" lon="9.5227867"><ele>201.0</ele><time>2026-04-26T09:33:27.934Z</time></trkpt><trkpt lat="44.84519" lon="9.5228717"><ele>201.0</ele><time>2026-04-26T09:33:28.935Z</time></trkpt><trkpt lat="44.845205" lon="9.5229633"><ele>201.0</ele><time>2026-04-26T09:33:29.933Z</time></trkpt><trkpt lat="44.8452183" lon="9.5230583"><ele>201.0</ele><time>2026-04-26T09:33:30.939Z</time></trkpt><trkpt lat="44.845235" lon="9.5231683"><ele>201.0</ele><time>2026-04-26T09:33:31.935Z</time></trkpt><trkpt lat="44.84527" lon="9.52329"><ele>201.0</ele><time>2026-04-26T09:33:32.936Z</time></trkpt><trkpt lat="44.8453233" lon="9.5234317"><ele>198.25</ele><time>2026-04-26T09:33:33.935Z</time></trkpt><trkpt lat="44.8453917" lon="9.5235783"><ele>195.5</ele><time>2026-04-26T09:33:34.934Z</time></trkpt><trkpt lat="44.8454633" lon="9.52373"><ele>192.75</ele><time>2026-04-26T09:33:35.935Z</time></trkpt><trkpt lat="44.8455283" lon="9.523875"><ele>190.0</ele><time>2026-04-26T09:33:36.936Z</time></trkpt><trkpt lat="44.845585" lon="9.5240183"><ele>188.6</ele><time>2026-04-26T09:33:37.935Z</time></trkpt><trkpt lat="44.845625" lon="9.5241633"><ele>187.2</ele><time>2026-04-26T09:33:38.934Z</time></trkpt><trkpt lat="44.84566" lon="9.5243083"><ele>185.8</ele><time>2026-04-26T09:33:39.934Z</time></trkpt><trkpt lat="44.8457067" lon="9.5244367"><ele>184.4</ele><time>2026-04-26T09:33:40.934Z</time></trkpt><trkpt lat="44.8457683" lon="9.5245433"><ele>183.0</ele><time>2026-04-26T09:33:41.938Z</time></trkpt><trkpt lat="44.84585" lon="9.5246267"><ele>182.75</ele><time>2026-04-26T09:33:42.934Z</time></trkpt><trkpt lat="44.8459483" lon="9.5247067"><ele>182.5</ele><time>2026-04-26T09:33:43.933Z</time></trkpt><trkpt lat="44.8460567" lon="9.524785"><ele>182.25</ele><time>2026-04-26T09:33:44.935Z</time></trkpt><trkpt lat="44.8461667" lon="9.52487"><ele>182.0</ele><time>2026-04-26T09:33:45.934Z</time></trkpt><trkpt lat="44.846285" lon="9.5249633"><ele>182.0</ele><time>2026-04-26T09:33:46.933Z</time></trkpt><trkpt lat="44.8464117" lon="9.52506"><ele>182.0</ele><time>2026-04-26T09:33:47.935Z</time></trkpt><trkpt lat="44.8465417" lon="9.5251533"><ele>182.0</ele><time>2026-04-26T09:33:48.936Z</time></trkpt><trkpt lat="44.8466683" lon="9.5252483"><ele>182.0</ele><time>2026-04-26T09:33:49.936Z</time></trkpt><trkpt lat="44.8467967" lon="9.5253467"><ele>181.5</ele><time>2026-04-26T09:33:50.944Z</time></trkpt><trkpt lat="44.8469233" lon="9.5254417"><ele>181.0</ele><time>2026-04-26T09:33:51.935Z</time></trkpt><trkpt lat="44.8470483" lon="9.5255383"><ele>180.5</ele><time>2026-04-26T09:33:52.936Z</time></trkpt><trkpt lat="44.847175" lon="9.5256333"><ele>180.0</ele><time>2026-04-26T09:33:53.936Z</time></trkpt><trkpt lat="44.8472967" lon="9.525725"><ele>180.0</ele><time>2026-04-26T09:33:54.934Z</time></trkpt><trkpt lat="44.8474167" lon="9.5258217"><ele>180.0</ele><time>2026-04-26T09:33:55.934Z</time></trkpt><trkpt lat="44.8475367" lon="9.52592"><ele>180.0</ele><time>2026-04-26T09:33:56.934Z</time></trkpt><trkpt lat="44.84766" lon="9.526015"><ele>180.0</ele><time>2026-04-26T09:33:57.938Z</time></trkpt><trkpt lat="44.847785" lon="9.5261083"><ele>180.25</ele><time>2026-04-26T09:33:58.933Z</time></trkpt><trkpt lat="44.84791" lon="9.5262"><ele>180.5</ele><time>2026-04-26T09:33:59.934Z</time></trkpt><trkpt lat="44.8480333" lon="9.52629"><ele>180.75</ele><time>2026-04-26T09:34:00.934Z</time></trkpt><trkpt lat="44.8481567" lon="9.5263833"><ele>181.0</ele><time>2026-04-26T09:34:01.933Z</time></trkpt><trkpt lat="44.8482817" lon="9.52648"><ele>181.25</ele><time>2026-04-26T09:34:02.94Z</time></trkpt><trkpt lat="44.8484083" lon="9.5265767"><ele>181.5</ele><time>2026-04-26T09:34:03.934Z</time></trkpt><trkpt lat="44.8485367" lon="9.5266733"><ele>181.75</ele><time>2026-04-26T09:34:04.934Z</time></trkpt><trkpt lat="44.8486683" lon="9.5267733"><ele>182.0</ele><time>2026-04-26T09:34:05.933Z</time></trkpt><trkpt lat="44.8488067" lon="9.5268783"><ele>182.0</ele><time>2026-04-26T09:34:06.934Z</time></trkpt><trkpt lat="44.848955" lon="9.52699"><ele>182.0</ele><time>2026-04-26T09:34:07.937Z</time></trkpt><trkpt lat="44.8491067" lon="9.5271017"><ele>182.0</ele><time>2026-04-26T09:34:08.934Z</time></trkpt><trkpt lat="44.84925" lon="9.52721"><ele>182.5</ele><time>2026-04-26T09:34:09.933Z</time></trkpt><trkpt lat="44.8493783" lon="9.52731"><ele>183.0</ele><time>2026-04-26T09:34:10.935Z</time></trkpt><trkpt lat="44.849495" lon="9.527405"><ele>183.5</ele><time>2026-04-26T09:34:11.935Z</time></trkpt><trkpt lat="44.84959" lon="9.527495"><ele>184.0</ele><time>2026-04-26T09:34:12.939Z</time></trkpt><trkpt lat="44.84966" lon="9.5275883"><ele>184.0</ele><time>2026-04-26T09:34:13.933Z</time></trkpt><trkpt lat="44.8496983" lon="9.5276967"><ele>184.0</ele><time>2026-04-26T09:34:14.934Z</time></trkpt><trkpt lat="44.8497117" lon="9.5278183"><ele>184.0</ele><time>2026-04-26T09:34:15.934Z</time></trkpt><trkpt lat="44.8497183" lon="9.527965"><ele>184.0</ele><time>2026-04-26T09:34:16.933Z</time></trkpt><trkpt lat="44.8497267" lon="9.5281267"><ele>184.0</ele><time>2026-04-26T09:34:17.933Z</time></trkpt><trkpt lat="44.849735" lon="9.5282983"><ele>183.75</ele><time>2026-04-26T09:34:18.935Z</time></trkpt><trkpt lat="44.8497417" lon="9.528475"><ele>183.5</ele><time>2026-04-26T09:34:19.935Z</time></trkpt><trkpt lat="44.8497483" lon="9.5286467"><ele>183.25</ele><time>2026-04-26T09:34:20.934Z</time></trkpt><trkpt lat="44.8497667" lon="9.5288133"><ele>183.0</ele><time>2026-04-26T09:34:21.935Z</time></trkpt><trkpt lat="44.849795" lon="9.5289717"><ele>182.25</ele><time>2026-04-26T09:34:22.934Z</time></trkpt><trkpt lat="44.84984" lon="9.52913"><ele>181.5</ele><time>2026-04-26T09:34:23.934Z</time></trkpt><trkpt lat="44.8498933" lon="9.529295"><ele>180.75</ele><time>2026-04-26T09:34:24.934Z</time></trkpt><trkpt lat="44.8499483" lon="9.5294633"><ele>180.0</ele><time>2026-04-26T09:34:25.934Z</time></trkpt><trkpt lat="44.8500083" lon="9.5296433"><ele>179.75</ele><time>2026-04-26T09:34:26.936Z</time></trkpt><trkpt lat="44.85007" lon="9.52982"><ele>179.5</ele><time>2026-04-26T09:34:27.934Z</time></trkpt><trkpt lat="44.8501267" lon="9.5299967"><ele>179.25</ele><time>2026-04-26T09:34:28.935Z</time></trkpt><trkpt lat="44.8501833" lon="9.53016"><ele>179.0</ele><time>2026-04-26T09:34:29.941Z</time></trkpt><trkpt lat="44.850235" lon="9.5302983"><ele>178.2</ele><time>2026-04-26T09:34:30.936Z</time></trkpt><trkpt lat="44.8502983" lon="9.5304067"><ele>177.39999999999998</ele><time>2026-04-26T09:34:31.941Z</time></trkpt><trkpt lat="44.85038" lon="9.53048"><ele>176.6</ele><time>2026-04-26T09:34:32.936Z</time></trkpt><trkpt lat="44.8504767" lon="9.53052"><ele>175.8</ele><time>2026-04-26T09:34:33.935Z</time></trkpt><trkpt lat="44.85059" lon="9.5305367"><ele>175.0</ele><time>2026-04-26T09:34:34.933Z</time></trkpt><trkpt lat="44.8507117" lon="9.5305417"><ele>175.0</ele><time>2026-04-26T09:34:35.934Z</time></trkpt><trkpt lat="44.8508483" lon="9.5305583"><ele>175.0</ele><time>2026-04-26T09:34:36.936Z</time></trkpt><trkpt lat="44.8509767" lon="9.5305883"><ele>175.0</ele><time>2026-04-26T09:34:37.937Z</time></trkpt><trkpt lat="44.8510867" lon="9.5306333"><ele>175.0</ele><time>2026-04-26T09:34:38.936Z</time></trkpt><trkpt lat="44.8511833" lon="9.5306967"><ele>175.2</ele><time>2026-04-26T09:34:39.937Z</time></trkpt><trkpt lat="44.85125" lon="9.53079"><ele>175.4</ele><time>2026-04-26T09:34:40.937Z</time></trkpt><trkpt lat="44.85129" lon="9.5309167"><ele>175.60000000000002</ele><time>2026-04-26T09:34:41.935Z</time></trkpt><trkpt lat="44.8513033" lon="9.531085"><ele>175.8</ele><time>2026-04-26T09:34:42.937Z</time></trkpt><trkpt lat="44.8513067" lon="9.5312767"><ele>176.0</ele><time>2026-04-26T09:34:43.938Z</time></trkpt><trkpt lat="44.851305" lon="9.53149"><ele>175.33333333333331</ele><time>2026-04-26T09:34:44.936Z</time></trkpt><trkpt lat="44.8513033" lon="9.5317133"><ele>174.66666666666666</ele><time>2026-04-26T09:34:45.938Z</time></trkpt><trkpt lat="44.851295" lon="9.5319483"><ele>174.0</ele><time>2026-04-26T09:34:46.934Z</time></trkpt><trkpt lat="44.8512917" lon="9.532175"><ele>173.79999999999998</ele><time>2026-04-26T09:34:47.933Z</time></trkpt><trkpt lat="44.8512883" lon="9.5323717"><ele>173.6</ele><time>2026-04-26T09:34:48.935Z</time></trkpt><trkpt lat="44.8512967" lon="9.5325317"><ele>173.4</ele><time>2026-04-26T09:34:49.936Z</time></trkpt><trkpt lat="44.8513267" lon="9.5326617"><ele>173.2</ele><time>2026-04-26T09:34:50.934Z</time></trkpt><trkpt lat="44.85138" lon="9.5327733"><ele>173.0</ele><time>2026-04-26T09:34:51.933Z</time></trkpt><trkpt lat="44.8514583" lon="9.532855"><ele>172.60000000000002</ele><time>2026-04-26T09:34:52.935Z</time></trkpt><trkpt lat="44.8515567" lon="9.5329"><ele>172.20000000000002</ele><time>2026-04-26T09:34:53.939Z</time></trkpt><trkpt lat="44.851665" lon="9.53292"><ele>171.8</ele><time>2026-04-26T09:34:54.934Z</time></trkpt><trkpt lat="44.8517783" lon="9.5329433"><ele>171.4</ele><time>2026-04-26T09:34:55.934Z</time></trkpt><trkpt lat="44.8518933" lon="9.53297"><ele>171.0</ele><time>2026-04-26T09:34:56.935Z</time></trkpt><trkpt lat="44.85201" lon="9.5330033"><ele>171.0</ele><time>2026-04-26T09:34:57.935Z</time></trkpt><trkpt lat="44.852125" lon="9.5330333"><ele>171.0</ele><time>2026-04-26T09:34:58.938Z</time></trkpt><trkpt lat="44.8522383" lon="9.5330617"><ele>171.0</ele><time>2026-04-26T09:34:59.933Z</time></trkpt><trkpt lat="44.8523529" lon="9.5330922"><ele>171.0</ele><time>2026-04-26T09:35:00.933Z</time></trkpt><trkpt lat="44.852466" lon="9.53312"><ele>171.0</ele><time>2026-04-26T09:35:01.933Z</time></trkpt><trkpt lat="44.85258" lon="9.5331519"><ele>171.0</ele><time>2026-04-26T09:35:02.935Z</time></trkpt><trkpt lat="44.8526923" lon="9.5332062"><ele>171.0</ele><time>2026-04-26T09:35:03.934Z</time></trkpt><trkpt lat="44.852808" lon="9.5332896"><ele>171.0</ele><time>2026-04-26T09:35:04.934Z</time></trkpt><trkpt lat="44.852941" lon="9.533372"><ele>171.66666666666666</ele><time>2026-04-26T09:35:05.935Z</time></trkpt><trkpt lat="44.853092" lon="9.5334263"><ele>172.33333333333331</ele><time>2026-04-26T09:35:06.935Z</time></trkpt><trkpt lat="44.8532543" lon="9.5334624"><ele>173.0</ele><time>2026-04-26T09:35:07.934Z</time></trkpt><trkpt lat="44.8534188" lon="9.5334968"><ele>172.66666666666666</ele><time>2026-04-26T09:35:08.934Z</time></trkpt><trkpt lat="44.8535833" lon="9.5335418"><ele>172.33333333333334</ele><time>2026-04-26T09:35:09.938Z</time></trkpt><trkpt lat="44.8537422" lon="9.5335908"><ele>172.0</ele><time>2026-04-26T09:35:10.934Z</time></trkpt><trkpt lat="44.8538903" lon="9.5336398"><ele>172.0</ele><time>2026-04-26T09:35:11.935Z</time></trkpt><trkpt lat="44.8540273" lon="9.5336844"><ele>172.0</ele><time>2026-04-26T09:35:12.935Z</time></trkpt><trkpt lat="44.8541554" lon="9.5337278"><ele>172.0</ele><time>2026-04-26T09:35:13.933Z</time></trkpt><trkpt lat="44.8542772" lon="9.5337629"><ele>172.0</ele><time>2026-04-26T09:35:14.935Z</time></trkpt><trkpt lat="44.8544054" lon="9.5337825"><ele>172.75</ele><time>2026-04-26T09:35:15.934Z</time></trkpt><trkpt lat="44.8545423" lon="9.533783"><ele>173.5</ele><time>2026-04-26T09:35:16.934Z</time></trkpt><trkpt lat="44.85468" lon="9.5337568"><ele>174.25</ele><time>2026-04-26T09:35:17.934Z</time></trkpt><trkpt lat="44.8548165" lon="9.5336986"><ele>175.0</ele><time>2026-04-26T09:35:18.934Z</time></trkpt><trkpt lat="44.8549514" lon="9.5336205"><ele>175.0</ele><time>2026-04-26T09:35:19.935Z</time></trkpt><trkpt lat="44.8550795" lon="9.5335391"><ele>175.0</ele><time>2026-04-26T09:35:20.935Z</time></trkpt><trkpt lat="44.8552029" lon="9.5334754"><ele>175.0</ele><time>2026-04-26T09:35:21.935Z</time></trkpt><trkpt lat="44.8553232" lon="9.5334351"><ele>175.0</ele><time>2026-04-26T09:35:22.935Z</time></trkpt><trkpt lat="44.8554387" lon="9.5334108"><ele>177.25</ele><time>2026-04-26T09:35:23.935Z</time></trkpt><trkpt lat="44.8555556" lon="9.5333981"><ele>179.5</ele><time>2026-04-26T09:35:24.935Z</time></trkpt><trkpt lat="44.8556683" lon="9.5333991"><ele>181.75</ele><time>2026-04-26T09:35:25.933Z</time></trkpt><trkpt lat="44.8557796" lon="9.5334322"><ele>184.0</ele><time>2026-04-26T09:35:26.936Z</time></trkpt><trkpt lat="44.8558867" lon="9.5334966"><ele>182.25</ele><time>2026-04-26T09:35:27.934Z</time></trkpt><trkpt lat="44.8559904" lon="9.5335717"><ele>180.5</ele><time>2026-04-26T09:35:28.934Z</time></trkpt><trkpt lat="44.8560991" lon="9.533625"><ele>178.75</ele><time>2026-04-26T09:35:29.935Z</time></trkpt><trkpt lat="44.8562123" lon="9.5336704"><ele>177.0</ele><time>2026-04-26T09:35:30.933Z</time></trkpt><trkpt lat="44.8563217" lon="9.5337308"><ele>177.0</ele><time>2026-04-26T09:35:31.933Z</time></trkpt><trkpt lat="44.8564268" lon="9.5338018"><ele>177.0</ele><time>2026-04-26T09:35:32.936Z</time></trkpt><trkpt lat="44.856531" lon="9.533878"><ele>177.0</ele><time>2026-04-26T09:35:33.934Z</time></trkpt><trkpt lat="44.856637" lon="9.5339553"><ele>177.0</ele><time>2026-04-26T09:35:34.933Z</time></trkpt><trkpt lat="44.856744" lon="9.5340251"><ele>181.5</ele><time>2026-04-26T09:35:35.935Z</time></trkpt><trkpt lat="44.8568571" lon="9.5340988"><ele>186.0</ele><time>2026-04-26T09:35:36.936Z</time></trkpt><trkpt lat="44.8569753" lon="9.5341892"><ele>190.5</ele><time>2026-04-26T09:35:37.937Z</time></trkpt><trkpt lat="44.8570944" lon="9.5343057"><ele>195.0</ele><time>2026-04-26T09:35:38.933Z</time></trkpt><trkpt lat="44.8572064" lon="9.5344392"><ele>191.25</ele><time>2026-04-26T09:35:39.934Z</time></trkpt><trkpt lat="44.8573086" lon="9.5345717"><ele>187.5</ele><time>2026-04-26T09:35:40.935Z</time></trkpt><trkpt lat="44.8574005" lon="9.5347034"><ele>183.75</ele><time>2026-04-26T09:35:41.934Z</time></trkpt><trkpt lat="44.8574822" lon="9.5348354"><ele>180.0</ele><time>2026-04-26T09:35:42.941Z</time></trkpt><trkpt lat="44.8575607" lon="9.5349642"><ele>182.75</ele><time>2026-04-26T09:35:43.935Z</time></trkpt><trkpt lat="44.857651" lon="9.5350846"><ele>185.5</ele><time>2026-04-26T09:35:44.935Z</time></trkpt><trkpt lat="44.8577509" lon="9.5351902"><ele>188.25</ele><time>2026-04-26T09:35:45.933Z</time></trkpt><trkpt lat="44.8578634" lon="9.5352789"><ele>191.0</ele><time>2026-04-26T09:35:46.934Z</time></trkpt><trkpt lat="44.8579855" lon="9.5353541"><ele>187.5</ele><time>2026-04-26T09:35:47.936Z</time></trkpt><trkpt lat="44.8581021" lon="9.5354268"><ele>184.0</ele><time>2026-04-26T09:35:48.936Z</time></trkpt><trkpt lat="44.8582012" lon="9.5355179"><ele>180.5</ele><time>2026-04-26T09:35:49.936Z</time></trkpt><trkpt lat="44.8582879" lon="9.535626"><ele>177.0</ele><time>2026-04-26T09:35:50.935Z</time></trkpt><trkpt lat="44.8583617" lon="9.5357426"><ele>177.0</ele><time>2026-04-26T09:35:51.936Z</time></trkpt><trkpt lat="44.8584325" lon="9.5358508"><ele>177.0</ele><time>2026-04-26T09:35:52.937Z</time></trkpt><trkpt lat="44.8585169" lon="9.5359337"><ele>177.0</ele><time>2026-04-26T09:35:53.935Z</time></trkpt><trkpt lat="44.8586126" lon="9.5360046"><ele>177.0</ele><time>2026-04-26T09:35:54.934Z</time></trkpt><trkpt lat="44.858719" lon="9.5360691"><ele>177.0</ele><time>2026-04-26T09:35:55.934Z</time></trkpt><trkpt lat="44.8588285" lon="9.5361271"><ele>180.0</ele><time>2026-04-26T09:35:56.934Z</time></trkpt><trkpt lat="44.858928" lon="9.5361761"><ele>183.0</ele><time>2026-04-26T09:35:57.939Z</time></trkpt><trkpt lat="44.8590263" lon="9.5362096"><ele>186.0</ele><time>2026-04-26T09:35:58.935Z</time></trkpt><trkpt lat="44.8591365" lon="9.5362149"><ele>189.0</ele><time>2026-04-26T09:35:59.934Z</time></trkpt><trkpt lat="44.8592569" lon="9.5362001"><ele>192.0</ele><time>2026-04-26T09:36:00.935Z</time></trkpt><trkpt lat="44.8593813" lon="9.5361911"><ele>192.0</ele><time>2026-04-26T09:36:01.934Z</time></trkpt><trkpt lat="44.8595045" lon="9.5361958"><ele>192.0</ele><time>2026-04-26T09:36:02.934Z</time></trkpt><trkpt lat="44.8596282" lon="9.5362078"><ele>192.0</ele><time>2026-04-26T09:36:03.934Z</time></trkpt><trkpt lat="44.8597498" lon="9.5362355"><ele>192.0</ele><time>2026-04-26T09:36:04.934Z</time></trkpt><trkpt lat="44.8598724" lon="9.5362889"><ele>192.0</ele><time>2026-04-26T09:36:05.934Z</time></trkpt><trkpt lat="44.8599761" lon="9.5363653"><ele>192.0</ele><time>2026-04-26T09:36:06.933Z</time></trkpt><trkpt lat="44.860049" lon="9.5364631"><ele>192.0</ele><time>2026-04-26T09:36:07.934Z</time></trkpt><trkpt lat="44.8600961" lon="9.5365761"><ele>192.0</ele><time>2026-04-26T09:36:08.936Z</time></trkpt><trkpt lat="44.8601264" lon="9.5366785"><ele>192.0</ele><time>2026-04-26T09:36:09.934Z</time></trkpt><trkpt lat="44.86015" lon="9.536762"><ele>194.39999999999998</ele><time>2026-04-26T09:36:10.934Z</time></trkpt><trkpt lat="44.8601761" lon="9.5369322"><ele>196.79999999999998</ele><time>2026-04-26T09:36:12.933Z</time></trkpt><trkpt lat="44.8601806" lon="9.5370493"><ele>199.2</ele><time>2026-04-26T09:36:13.934Z</time></trkpt><trkpt lat="44.8601884" lon="9.5371914"><ele>201.6</ele><time>2026-04-26T09:36:14.934Z</time></trkpt><trkpt lat="44.8602041" lon="9.5373511"><ele>204.0</ele><time>2026-04-26T09:36:15.934Z</time></trkpt><trkpt lat="44.860237" lon="9.5375244"><ele>204.0</ele><time>2026-04-26T09:36:16.937Z</time></trkpt><trkpt lat="44.8602778" lon="9.5377015"><ele>204.0</ele><time>2026-04-26T09:36:17.935Z</time></trkpt><trkpt lat="44.8603198" lon="9.5378815"><ele>204.0</ele><time>2026-04-26T09:36:18.935Z</time></trkpt><trkpt lat="44.8603574" lon="9.5380617"><ele>204.0</ele><time>2026-04-26T09:36:19.935Z</time></trkpt><trkpt lat="44.8603885" lon="9.5382347"><ele>203.79999999999998</ele><time>2026-04-26T09:36:20.935Z</time></trkpt><trkpt lat="44.8604169" lon="9.5383948"><ele>203.6</ele><time>2026-04-26T09:36:21.942Z</time></trkpt><trkpt lat="44.8604437" lon="9.538541"><ele>203.4</ele><time>2026-04-26T09:36:22.935Z</time></trkpt><trkpt lat="44.8604746" lon="9.5386762"><ele>203.2</ele><time>2026-04-26T09:36:23.935Z</time></trkpt><trkpt lat="44.860508" lon="9.5388011"><ele>203.0</ele><time>2026-04-26T09:36:24.934Z</time></trkpt><trkpt lat="44.8605478" lon="9.5389142"><ele>202.50000000000003</ele><time>2026-04-26T09:36:25.935Z</time></trkpt><trkpt lat="44.860592" lon="9.5390266"><ele>202.0</ele><time>2026-04-26T09:36:26.94Z</time></trkpt><trkpt lat="44.8606386" lon="9.5391414"><ele>201.5</ele><time>2026-04-26T09:36:27.935Z</time></trkpt><trkpt lat="44.8606779" lon="9.5392584"><ele>201.0</ele><time>2026-04-26T09:36:28.933Z</time></trkpt><trkpt lat="44.8606951" lon="9.5393778"><ele>200.50000000000003</ele><time>2026-04-26T09:36:29.933Z</time></trkpt><trkpt lat="44.8606858" lon="9.5394981"><ele>200.0</ele><time>2026-04-26T09:36:30.935Z</time></trkpt><trkpt lat="44.860656" lon="9.5396212"><ele>199.6</ele><time>2026-04-26T09:36:31.935Z</time></trkpt><trkpt lat="44.8606181" lon="9.5397495"><ele>199.2</ele><time>2026-04-26T09:36:32.935Z</time></trkpt><trkpt lat="44.860583" lon="9.5398826"><ele>198.8</ele><time>2026-04-26T09:36:33.937Z</time></trkpt><trkpt lat="44.8605683" lon="9.5400179"><ele>198.4</ele><time>2026-04-26T09:36:34.936Z</time></trkpt><trkpt lat="44.8605759" lon="9.5401568"><ele>198.0</ele><time>2026-04-26T09:36:35.935Z</time></trkpt><trkpt lat="44.8606076" lon="9.5402889"><ele>196.8</ele><time>2026-04-26T09:36:36.935Z</time></trkpt><trkpt lat="44.8606582" lon="9.5404157"><ele>195.60000000000002</ele><time>2026-04-26T09:36:37.935Z</time></trkpt><trkpt lat="44.8607187" lon="9.5405398"><ele>194.39999999999998</ele><time>2026-04-26T09:36:38.937Z</time></trkpt><trkpt lat="44.8607813" lon="9.5406604"><ele>193.2</ele><time>2026-04-26T09:36:39.935Z</time></trkpt><trkpt lat="44.8608476" lon="9.5407773"><ele>192.0</ele><time>2026-04-26T09:36:40.937Z</time></trkpt><trkpt lat="44.8609129" lon="9.5408876"><ele>192.2</ele><time>2026-04-26T09:36:41.936Z</time></trkpt><trkpt lat="44.8609791" lon="9.5409928"><ele>192.39999999999998</ele><time>2026-04-26T09:36:42.933Z</time></trkpt><trkpt lat="44.8610419" lon="9.5410955"><ele>192.60000000000002</ele><time>2026-04-26T09:36:43.934Z</time></trkpt><trkpt lat="44.8611051" lon="9.5411956"><ele>192.8</ele><time>2026-04-26T09:36:44.936Z</time></trkpt><trkpt lat="44.8611684" lon="9.5412895"><ele>193.0</ele><time>2026-04-26T09:36:45.935Z</time></trkpt><trkpt lat="44.8612305" lon="9.5413794"><ele>191.99999999999997</ele><time>2026-04-26T09:36:46.935Z</time></trkpt><trkpt lat="44.8612906" lon="9.5414686"><ele>191.0</ele><time>2026-04-26T09:36:47.934Z</time></trkpt><trkpt lat="44.8613462" lon="9.5415569"><ele>190.0</ele><time>2026-04-26T09:36:48.934Z</time></trkpt><trkpt lat="44.8613966" lon="9.5416452"><ele>189.0</ele><time>2026-04-26T09:36:49.934Z</time></trkpt><trkpt lat="44.861453" lon="9.541729"><ele>188.0</ele><time>2026-04-26T09:36:50.934Z</time></trkpt><trkpt lat="44.8615126" lon="9.5418069"><ele>187.0</ele><time>2026-04-26T09:36:51.939Z</time></trkpt><trkpt lat="44.8615699" lon="9.5418868"><ele>187.0</ele><time>2026-04-26T09:36:52.936Z</time></trkpt><trkpt lat="44.8616251" lon="9.5419719"><ele>187.0</ele><time>2026-04-26T09:36:53.935Z</time></trkpt><trkpt lat="44.861669" lon="9.5420633"><ele>187.0</ele><time>2026-04-26T09:36:54.934Z</time></trkpt><trkpt lat="44.8616959" lon="9.5421666"><ele>187.0</ele><time>2026-04-26T09:36:55.933Z</time></trkpt><trkpt lat="44.8617161" lon="9.5422782"><ele>187.0</ele><time>2026-04-26T09:36:56.935Z</time></trkpt><trkpt lat="44.8617391" lon="9.5423923"><ele>187.0</ele><time>2026-04-26T09:36:57.934Z</time></trkpt><trkpt lat="44.861772" lon="9.5425009"><ele>186.33333333333334</ele><time>2026-04-26T09:36:58.935Z</time></trkpt><trkpt lat="44.8618091" lon="9.5426031"><ele>185.66666666666669</ele><time>2026-04-26T09:36:59.934Z</time></trkpt><trkpt lat="44.8618423" lon="9.5427036"><ele>185.0</ele><time>2026-04-26T09:37:00.94Z</time></trkpt><trkpt lat="44.8618588" lon="9.5428116"><ele>184.33333333333334</ele><time>2026-04-26T09:37:01.934Z</time></trkpt><trkpt lat="44.8618485" lon="9.542919"><ele>183.66666666666666</ele><time>2026-04-26T09:37:02.934Z</time></trkpt><trkpt lat="44.8618171" lon="9.5430112"><ele>183.0</ele><time>2026-04-26T09:37:03.935Z</time></trkpt><trkpt lat="44.8617732" lon="9.5430975"><ele>182.57142857142858</ele><time>2026-04-26T09:37:04.934Z</time></trkpt><trkpt lat="44.8617309" lon="9.5431832"><ele>182.14285714285717</ele><time>2026-04-26T09:37:05.936Z</time></trkpt><trkpt lat="44.861689" lon="9.5432677"><ele>181.71428571428572</ele><time>2026-04-26T09:37:06.934Z</time></trkpt><trkpt lat="44.8616453" lon="9.5433495"><ele>181.28571428571428</ele><time>2026-04-26T09:37:07.934Z</time></trkpt><trkpt lat="44.861604" lon="9.5434334"><ele>180.85714285714286</ele><time>2026-04-26T09:37:08.935Z</time></trkpt><trkpt lat="44.8615648" lon="9.5435165"><ele>180.42857142857142</ele><time>2026-04-26T09:37:09.933Z</time></trkpt><trkpt lat="44.8615302" lon="9.5435964"><ele>180.0</ele><time>2026-04-26T09:37:10.936Z</time></trkpt><trkpt lat="44.8614639" lon="9.5437345"><ele>179.16666666666666</ele><time>2026-04-26T09:37:12.941Z</time></trkpt><trkpt lat="44.8614568" lon="9.5438814"><ele>178.33333333333334</ele><time>2026-04-26T09:37:14.934Z</time></trkpt><trkpt lat="44.8615227" lon="9.5439983"><ele>177.5</ele><time>2026-04-26T09:37:16.933Z</time></trkpt><trkpt lat="44.8615768" lon="9.5440528"><ele>176.66666666666669</ele><time>2026-04-26T09:37:17.939Z</time></trkpt><trkpt lat="44.8616375" lon="9.5441216"><ele>175.83333333333334</ele><time>2026-04-26T09:37:18.937Z</time></trkpt><trkpt lat="44.8617054" lon="9.5441935"><ele>175.0</ele><time>2026-04-26T09:37:19.935Z</time></trkpt><trkpt lat="44.8617769" lon="9.5442689"><ele>175.2</ele><time>2026-04-26T09:37:20.937Z</time></trkpt><trkpt lat="44.8618564" lon="9.5443462"><ele>175.4</ele><time>2026-04-26T09:37:21.935Z</time></trkpt><trkpt lat="44.8619417" lon="9.5444265"><ele>175.60000000000002</ele><time>2026-04-26T09:37:22.942Z</time></trkpt><trkpt lat="44.8620275" lon="9.5445114"><ele>175.8</ele><time>2026-04-26T09:37:23.935Z</time></trkpt><trkpt lat="44.8621122" lon="9.5446019"><ele>176.0</ele><time>2026-04-26T09:37:24.935Z</time></trkpt><trkpt lat="44.8621962" lon="9.5446869"><ele>176.0</ele><time>2026-04-26T09:37:25.937Z</time></trkpt><trkpt lat="44.8622809" lon="9.5447719"><ele>176.0</ele><time>2026-04-26T09:37:26.935Z</time></trkpt><trkpt lat="44.8623673" lon="9.5448645"><ele>176.0</ele><time>2026-04-26T09:37:27.942Z</time></trkpt><trkpt lat="44.8624445" lon="9.5449633"><ele>176.0</ele><time>2026-04-26T09:37:28.935Z</time></trkpt><trkpt lat="44.8625252" lon="9.5450569"><ele>176.0</ele><time>2026-04-26T09:37:29.934Z</time></trkpt><trkpt lat="44.8626084" lon="9.5451431"><ele>176.20000000000002</ele><time>2026-04-26T09:37:30.935Z</time></trkpt><trkpt lat="44.8626972" lon="9.5452187"><ele>176.4</ele><time>2026-04-26T09:37:31.934Z</time></trkpt><trkpt lat="44.8627893" lon="9.5452927"><ele>176.6</ele><time>2026-04-26T09:37:32.941Z</time></trkpt><trkpt lat="44.8628839" lon="9.5453612"><ele>176.8</ele><time>2026-04-26T09:37:33.934Z</time></trkpt><trkpt lat="44.8629808" lon="9.545425"><ele>177.0</ele><time>2026-04-26T09:37:34.934Z</time></trkpt><trkpt lat="44.8630806" lon="9.5454873"><ele>176.6</ele><time>2026-04-26T09:37:35.937Z</time></trkpt><trkpt lat="44.8631797" lon="9.5455565"><ele>176.2</ele><time>2026-04-26T09:37:36.933Z</time></trkpt><trkpt lat="44.8632784" lon="9.5456259"><ele>175.8</ele><time>2026-04-26T09:37:37.938Z</time></trkpt><trkpt lat="44.8633768" lon="9.5456942"><ele>175.4</ele><time>2026-04-26T09:37:38.934Z</time></trkpt><trkpt lat="44.8634755" lon="9.5457598"><ele>175.0</ele><time>2026-04-26T09:37:39.935Z</time></trkpt><trkpt lat="44.8635769" lon="9.5458149"><ele>175.0</ele><time>2026-04-26T09:37:40.937Z</time></trkpt><trkpt lat="44.8636813" lon="9.5458648"><ele>175.0</ele><time>2026-04-26T09:37:41.934Z</time></trkpt><trkpt lat="44.8637867" lon="9.5459124"><ele>175.0</ele><time>2026-04-26T09:37:42.937Z</time></trkpt><trkpt lat="44.8638932" lon="9.5459554"><ele>175.0</ele><time>2026-04-26T09:37:43.933Z</time></trkpt><trkpt lat="44.8640018" lon="9.5459927"><ele>175.0</ele><time>2026-04-26T09:37:44.935Z</time></trkpt><trkpt lat="44.8641104" lon="9.5460247"><ele>175.0</ele><time>2026-04-26T09:37:45.935Z</time></trkpt><trkpt lat="44.8642187" lon="9.546053"><ele>175.0</ele><time>2026-04-26T09:37:46.935Z</time></trkpt><trkpt lat="44.8643269" lon="9.5460805"><ele>175.0</ele><time>2026-04-26T09:37:47.935Z</time></trkpt><trkpt lat="44.864435" lon="9.5461055"><ele>175.0</ele><time>2026-04-26T09:37:48.934Z</time></trkpt><trkpt lat="44.8645405" lon="9.5461305"><ele>175.0</ele><time>2026-04-26T09:37:49.937Z</time></trkpt><trkpt lat="44.8646411" lon="9.5461583"><ele>175.0</ele><time>2026-04-26T09:37:50.935Z</time></trkpt><trkpt lat="44.8647433" lon="9.546187"><ele>175.0</ele><time>2026-04-26T09:37:51.936Z</time></trkpt><trkpt lat="44.8648465" lon="9.5462124"><ele>175.0</ele><time>2026-04-26T09:37:52.934Z</time></trkpt><trkpt lat="44.8649471" lon="9.5462372"><ele>175.0</ele><time>2026-04-26T09:37:53.934Z</time></trkpt><trkpt lat="44.8650481" lon="9.5462643"><ele>175.0</ele><time>2026-04-26T09:37:54.934Z</time></trkpt><trkpt lat="44.8651497" lon="9.5462841"><ele>174.6</ele><time>2026-04-26T09:37:55.936Z</time></trkpt><trkpt lat="44.8652541" lon="9.5463001"><ele>174.2</ele><time>2026-04-26T09:37:56.935Z</time></trkpt><trkpt lat="44.8653611" lon="9.546315"><ele>173.8</ele><time>2026-04-26T09:37:57.933Z</time></trkpt><trkpt lat="44.8654685" lon="9.5463328"><ele>173.4</ele><time>2026-04-26T09:37:58.94Z</time></trkpt><trkpt lat="44.8655739" lon="9.5463504"><ele>173.0</ele><time>2026-04-26T09:37:59.934Z</time></trkpt><trkpt lat="44.8656776" lon="9.5463767"><ele>173.0</ele><time>2026-04-26T09:38:00.934Z</time></trkpt><trkpt lat="44.865773" lon="9.5464031"><ele>173.0</ele><time>2026-04-26T09:38:01.934Z</time></trkpt><trkpt lat="44.8658688" lon="9.5464259"><ele>173.0</ele><time>2026-04-26T09:38:02.935Z</time></trkpt><trkpt lat="44.8659687" lon="9.5464516"><ele>173.0</ele><time>2026-04-26T09:38:03.933Z</time></trkpt><trkpt lat="44.86607" lon="9.5464892"><ele>173.0</ele><time>2026-04-26T09:38:04.939Z</time></trkpt><trkpt lat="44.8661755" lon="9.5465353"><ele>173.0</ele><time>2026-04-26T09:38:05.934Z</time></trkpt><trkpt lat="44.8662839" lon="9.5465834"><ele>173.0</ele><time>2026-04-26T09:38:06.935Z</time></trkpt><trkpt lat="44.8663926" lon="9.5466308"><ele>173.0</ele><time>2026-04-26T09:38:07.935Z</time></trkpt><trkpt lat="44.8665039" lon="9.5466738"><ele>173.0</ele><time>2026-04-26T09:38:08.937Z</time></trkpt><trkpt lat="44.8666155" lon="9.5467167"><ele>173.0</ele><time>2026-04-26T09:38:09.935Z</time></trkpt><trkpt lat="44.866726" lon="9.5467565"><ele>173.0</ele><time>2026-04-26T09:38:10.934Z</time></trkpt><trkpt lat="44.8668334" lon="9.5468034"><ele>173.0</ele><time>2026-04-26T09:38:11.935Z</time></trkpt><trkpt lat="44.8669386" lon="9.5468553"><ele>173.0</ele><time>2026-04-26T09:38:12.934Z</time></trkpt><trkpt lat="44.867042" lon="9.546906"><ele>173.0</ele><time>2026-04-26T09:38:13.935Z</time></trkpt><trkpt lat="44.8671424" lon="9.5469551"><ele>173.0</ele><time>2026-04-26T09:38:14.935Z</time></trkpt><trkpt lat="44.8672421" lon="9.5470104"><ele>173.0</ele><time>2026-04-26T09:38:15.935Z</time></trkpt><trkpt lat="44.8673416" lon="9.5470705"><ele>173.0</ele><time>2026-04-26T09:38:16.935Z</time></trkpt><trkpt lat="44.8674417" lon="9.5471412"><ele>173.0</ele><time>2026-04-26T09:38:17.94Z</time></trkpt><trkpt lat="44.8675417" lon="9.5472168"><ele>173.0</ele><time>2026-04-26T09:38:18.936Z</time></trkpt><trkpt lat="44.8676471" lon="9.5472937"><ele>172.25</ele><time>2026-04-26T09:38:19.937Z</time></trkpt><trkpt lat="44.8677566" lon="9.5473658"><ele>171.5</ele><time>2026-04-26T09:38:20.934Z</time></trkpt><trkpt lat="44.8678701" lon="9.547433"><ele>170.75</ele><time>2026-04-26T09:38:21.935Z</time></trkpt><trkpt lat="44.8679869" lon="9.547495"><ele>170.0</ele><time>2026-04-26T09:38:22.934Z</time></trkpt><trkpt lat="44.8681056" lon="9.547552"><ele>170.0</ele><time>2026-04-26T09:38:23.934Z</time></trkpt><trkpt lat="44.8682272" lon="9.5476056"><ele>170.0</ele><time>2026-04-26T09:38:24.938Z</time></trkpt><trkpt lat="44.8683548" lon="9.5476571"><ele>170.0</ele><time>2026-04-26T09:38:25.933Z</time></trkpt><trkpt lat="44.868497" lon="9.5477099"><ele>170.0</ele><time>2026-04-26T09:38:26.936Z</time></trkpt><trkpt lat="44.8686447" lon="9.5477655"><ele>170.33333333333331</ele><time>2026-04-26T09:38:27.934Z</time></trkpt><trkpt lat="44.8687967" lon="9.5478247"><ele>170.66666666666666</ele><time>2026-04-26T09:38:28.934Z</time></trkpt><trkpt lat="44.8689561" lon="9.5478926"><ele>171.0</ele><time>2026-04-26T09:38:29.939Z</time></trkpt><trkpt lat="44.8691167" lon="9.5479653"><ele>171.0</ele><time>2026-04-26T09:38:30.934Z</time></trkpt><trkpt lat="44.8692801" lon="9.5480442"><ele>171.0</ele><time>2026-04-26T09:38:31.935Z</time></trkpt><trkpt lat="44.8694452" lon="9.5481288"><ele>171.0</ele><time>2026-04-26T09:38:32.935Z</time></trkpt><trkpt lat="44.8696106" lon="9.54821"><ele>171.0</ele><time>2026-04-26T09:38:33.935Z</time></trkpt><trkpt lat="44.8697785" lon="9.5482865"><ele>171.0</ele><time>2026-04-26T09:38:34.933Z</time></trkpt><trkpt lat="44.8699489" lon="9.5483572"><ele>171.0</ele><time>2026-04-26T09:38:35.934Z</time></trkpt><trkpt lat="44.8701224" lon="9.5484164"><ele>170.66666666666666</ele><time>2026-04-26T09:38:36.936Z</time></trkpt><trkpt lat="44.8703037" lon="9.5484659"><ele>170.33333333333331</ele><time>2026-04-26T09:38:37.934Z</time></trkpt><trkpt lat="44.8704942" lon="9.5485251"><ele>170.0</ele><time>2026-04-26T09:38:38.936Z</time></trkpt><trkpt lat="44.870675" lon="9.5485956"><ele>170.0</ele><time>2026-04-26T09:38:39.935Z</time></trkpt><trkpt lat="44.8708418" lon="9.5486573"><ele>170.0</ele><time>2026-04-26T09:38:40.935Z</time></trkpt><trkpt lat="44.8710019" lon="9.5487039"><ele>170.0</ele><time>2026-04-26T09:38:41.934Z</time></trkpt><trkpt lat="44.871161" lon="9.5487378"><ele>170.0</ele><time>2026-04-26T09:38:42.935Z</time></trkpt><trkpt lat="44.8713189" lon="9.5487629"><ele>170.0</ele><time>2026-04-26T09:38:43.934Z</time></trkpt><trkpt lat="44.8714754" lon="9.5487807"><ele>170.0</ele><time>2026-04-26T09:38:44.937Z</time></trkpt><trkpt lat="44.8716315" lon="9.5487906"><ele>170.0</ele><time>2026-04-26T09:38:45.932Z</time></trkpt><trkpt lat="44.8717854" lon="9.5487841"><ele>170.0</ele><time>2026-04-26T09:38:46.932Z</time></trkpt><trkpt lat="44.8719345" lon="9.5487627"><ele>170.0</ele><time>2026-04-26T09:38:47.934Z</time></trkpt><trkpt lat="44.8720781" lon="9.548739"><ele>170.0</ele><time>2026-04-26T09:38:48.933Z</time></trkpt><trkpt lat="44.8722125" lon="9.5487235"><ele>170.0</ele><time>2026-04-26T09:38:49.934Z</time></trkpt><trkpt lat="44.872342" lon="9.5487108"><ele>170.0</ele><time>2026-04-26T09:38:50.933Z</time></trkpt><trkpt lat="44.8724683" lon="9.5486785"><ele>170.0</ele><time>2026-04-26T09:38:51.933Z</time></trkpt><trkpt lat="44.8725899" lon="9.5486197"><ele>170.0</ele><time>2026-04-26T09:38:52.932Z</time></trkpt><trkpt lat="44.8727077" lon="9.5485411"><ele>169.75</ele><time>2026-04-26T09:38:53.934Z</time></trkpt><trkpt lat="44.872818" lon="9.5484431"><ele>169.5</ele><time>2026-04-26T09:38:54.933Z</time></trkpt><trkpt lat="44.8729198" lon="9.5483266"><ele>169.25</ele><time>2026-04-26T09:38:55.933Z</time></trkpt><trkpt lat="44.873006" lon="9.5482002"><ele>169.0</ele><time>2026-04-26T09:38:56.934Z</time></trkpt><trkpt lat="44.8730762" lon="9.5480828"><ele>169.0</ele><time>2026-04-26T09:38:57.933Z</time></trkpt><trkpt lat="44.8731433" lon="9.5479884"><ele>169.0</ele><time>2026-04-26T09:38:58.932Z</time></trkpt><trkpt lat="44.8732132" lon="9.5479211"><ele>169.0</ele><time>2026-04-26T09:38:59.933Z</time></trkpt><trkpt lat="44.8732978" lon="9.5478968"><ele>169.0</ele><time>2026-04-26T09:39:00.936Z</time></trkpt><trkpt lat="44.8733881" lon="9.5479043"><ele>169.0</ele><time>2026-04-26T09:39:01.933Z</time></trkpt><trkpt lat="44.8734759" lon="9.5479351"><ele>169.0</ele><time>2026-04-26T09:39:02.933Z</time></trkpt><trkpt lat="44.8735601" lon="9.5479844"><ele>173.5</ele><time>2026-04-26T09:39:03.933Z</time></trkpt><trkpt lat="44.8736164" lon="9.5480992"><ele>178.0</ele><time>2026-04-26T09:39:04.933Z</time></trkpt><trkpt lat="44.873645" lon="9.5482621"><ele>182.5</ele><time>2026-04-26T09:39:05.934Z</time></trkpt><trkpt lat="44.8736333" lon="9.548485"><ele>187.0</ele><time>2026-04-26T09:39:06.935Z</time></trkpt><trkpt lat="44.8736333" lon="9.5486867"><ele>184.25</ele><time>2026-04-26T09:39:07.938Z</time></trkpt><trkpt lat="44.87365" lon="9.5488817"><ele>181.5</ele><time>2026-04-26T09:39:08.935Z</time></trkpt><trkpt lat="44.873695" lon="9.5490617"><ele>178.75</ele><time>2026-04-26T09:39:09.935Z</time></trkpt><trkpt lat="44.87376" lon="9.5492267"><ele>176.0</ele><time>2026-04-26T09:39:10.936Z</time></trkpt><trkpt lat="44.8738433" lon="9.5493717"><ele>176.0</ele><time>2026-04-26T09:39:11.934Z</time></trkpt><trkpt lat="44.8739483" lon="9.54949"><ele>176.0</ele><time>2026-04-26T09:39:12.935Z</time></trkpt><trkpt lat="44.8740717" lon="9.5495933"><ele>176.0</ele><time>2026-04-26T09:39:13.935Z</time></trkpt><trkpt lat="44.874205" lon="9.549685"><ele>176.0</ele><time>2026-04-26T09:39:14.942Z</time></trkpt><trkpt lat="44.8743467" lon="9.5497617"><ele>174.0</ele><time>2026-04-26T09:39:15.934Z</time></trkpt><trkpt lat="44.8744933" lon="9.549815"><ele>172.0</ele><time>2026-04-26T09:39:16.934Z</time></trkpt><trkpt lat="44.87464" lon="9.5498683"><ele>170.0</ele><time>2026-04-26T09:39:17.934Z</time></trkpt><trkpt lat="44.8747783" lon="9.5499217"><ele>168.0</ele><time>2026-04-26T09:39:18.936Z</time></trkpt><trkpt lat="44.87491" lon="9.5499667"><ele>168.0</ele><time>2026-04-26T09:39:19.934Z</time></trkpt><trkpt lat="44.875025" lon="9.5499817"><ele>168.0</ele><time>2026-04-26T09:39:20.936Z</time></trkpt><trkpt lat="44.8751317" lon="9.5499367"><ele>168.0</ele><time>2026-04-26T09:39:21.942Z</time></trkpt><trkpt lat="44.8752117" lon="9.5498333"><ele>168.0</ele><time>2026-04-26T09:39:22.934Z</time></trkpt><trkpt lat="44.875265" lon="9.54968"><ele>168.8</ele><time>2026-04-26T09:39:23.935Z</time></trkpt><trkpt lat="44.875295" lon="9.5495233"><ele>169.60000000000002</ele><time>2026-04-26T09:39:24.935Z</time></trkpt><trkpt lat="44.8753367" lon="9.54939"><ele>170.39999999999998</ele><time>2026-04-26T09:39:25.935Z</time></trkpt><trkpt lat="44.8753967" lon="9.54931"><ele>171.2</ele><time>2026-04-26T09:39:26.937Z</time></trkpt><trkpt lat="44.8754683" lon="9.5492733"><ele>172.0</ele><time>2026-04-26T09:39:27.935Z</time></trkpt><trkpt lat="44.875555" lon="9.549305"><ele>172.0</ele><time>2026-04-26T09:39:28.933Z</time></trkpt><trkpt lat="44.8756533" lon="9.54935"><ele>172.0</ele><time>2026-04-26T09:39:29.933Z</time></trkpt><trkpt lat="44.8757617" lon="9.549405"><ele>172.0</ele><time>2026-04-26T09:39:30.934Z</time></trkpt><trkpt lat="44.8758667" lon="9.549455"><ele>172.0</ele><time>2026-04-26T09:39:31.933Z</time></trkpt><trkpt lat="44.8759633" lon="9.54951"><ele>172.0</ele><time>2026-04-26T09:39:32.934Z</time></trkpt><trkpt lat="44.8760483" lon="9.5495817"><ele>176.6</ele><time>2026-04-26T09:39:33.933Z</time></trkpt><trkpt lat="44.87611" lon="9.549685"><ele>181.2</ele><time>2026-04-26T09:39:34.935Z</time></trkpt><trkpt lat="44.8761467" lon="9.5498167"><ele>185.8</ele><time>2026-04-26T09:39:35.934Z</time></trkpt><trkpt lat="44.876175" lon="9.54995"><ele>190.4</ele><time>2026-04-26T09:39:36.934Z</time></trkpt><trkpt lat="44.8761883" lon="9.5500733"><ele>195.0</ele><time>2026-04-26T09:39:37.934Z</time></trkpt><trkpt lat="44.8761933" lon="9.5501933"><ele>195.0</ele><time>2026-04-26T09:39:38.934Z</time></trkpt><trkpt lat="44.8761967" lon="9.5503217"><ele>195.0</ele><time>2026-04-26T09:39:39.933Z</time></trkpt><trkpt lat="44.87619" lon="9.5504483"><ele>195.0</ele><time>2026-04-26T09:39:40.934Z</time></trkpt><trkpt lat="44.8761733" lon="9.5505733"><ele>195.0</ele><time>2026-04-26T09:39:41.933Z</time></trkpt><trkpt lat="44.8761483" lon="9.55071"><ele>195.0</ele><time>2026-04-26T09:39:42.934Z</time></trkpt><trkpt lat="44.8761267" lon="9.5508417"><ele>194.0</ele><time>2026-04-26T09:39:43.934Z</time></trkpt><trkpt lat="44.8761183" lon="9.5509733"><ele>193.0</ele><time>2026-04-26T09:39:44.935Z</time></trkpt><trkpt lat="44.8761383" lon="9.551105"><ele>192.0</ele><time>2026-04-26T09:39:45.935Z</time></trkpt><trkpt lat="44.8761817" lon="9.5512267"><ele>191.0</ele><time>2026-04-26T09:39:46.936Z</time></trkpt><trkpt lat="44.876235" lon="9.5513417"><ele>190.0</ele><time>2026-04-26T09:39:47.935Z</time></trkpt><trkpt lat="44.8763017" lon="9.5514417"><ele>186.6</ele><time>2026-04-26T09:39:48.936Z</time></trkpt><trkpt lat="44.876375" lon="9.5515283"><ele>183.2</ele><time>2026-04-26T09:39:49.935Z</time></trkpt><trkpt lat="44.8764533" lon="9.551595"><ele>179.8</ele><time>2026-04-26T09:39:50.937Z</time></trkpt><trkpt lat="44.8765383" lon="9.551635"><ele>176.4</ele><time>2026-04-26T09:39:51.936Z</time></trkpt><trkpt lat="44.8766267" lon="9.551645"><ele>173.0</ele><time>2026-04-26T09:39:52.938Z</time></trkpt><trkpt lat="44.8767283" lon="9.5516267"><ele>174.60000000000002</ele><time>2026-04-26T09:39:53.936Z</time></trkpt><trkpt lat="44.8768367" lon="9.5515983"><ele>176.20000000000002</ele><time>2026-04-26T09:39:54.936Z</time></trkpt><trkpt lat="44.8769333" lon="9.551575"><ele>177.8</ele><time>2026-04-26T09:39:55.936Z</time></trkpt><trkpt lat="44.8770267" lon="9.5515533"><ele>179.4</ele><time>2026-04-26T09:39:56.935Z</time></trkpt><trkpt lat="44.8771233" lon="9.5515283"><ele>181.0</ele><time>2026-04-26T09:39:57.934Z</time></trkpt><trkpt lat="44.8772167" lon="9.5515"><ele>181.0</ele><time>2026-04-26T09:39:58.933Z</time></trkpt><trkpt lat="44.8773117" lon="9.5514717"><ele>181.0</ele><time>2026-04-26T09:39:59.94Z</time></trkpt><trkpt lat="44.8773983" lon="9.551445"><ele>181.0</ele><time>2026-04-26T09:40:00.935Z</time></trkpt><trkpt lat="44.87748" lon="9.551425"><ele>181.0</ele><time>2026-04-26T09:40:01.934Z</time></trkpt><trkpt lat="44.87758" lon="9.5514417"><ele>181.0</ele><time>2026-04-26T09:40:03.933Z</time></trkpt><trkpt lat="44.8776483" lon="9.5514617"><ele>181.0</ele><time>2026-04-26T09:40:06.934Z</time></trkpt><trkpt lat="44.87759" lon="9.5513783"><ele>181.0</ele><time>2026-04-26T09:40:14.934Z</time></trkpt><trkpt lat="44.8775033" lon="9.55139"><ele>181.0</ele><time>2026-04-26T09:40:15.935Z</time></trkpt><trkpt lat="44.8773933" lon="9.5514233"><ele>181.0</ele><time>2026-04-26T09:40:16.934Z</time></trkpt><trkpt lat="44.87727" lon="9.5514617"><ele>181.0</ele><time>2026-04-26T09:40:17.934Z</time></trkpt><trkpt lat="44.8771333" lon="9.5515"><ele>181.0</ele><time>2026-04-26T09:40:18.934Z</time></trkpt><trkpt lat="44.8769917" lon="9.5515383"><ele>181.0</ele><time>2026-04-26T09:40:19.938Z</time></trkpt><trkpt lat="44.8768533" lon="9.55157"><ele>181.0</ele><time>2026-04-26T09:40:20.934Z</time></trkpt><trkpt lat="44.8767183" lon="9.5515967"><ele>181.0</ele><time>2026-04-26T09:40:21.934Z</time></trkpt><trkpt lat="44.8765917" lon="9.551605"><ele>179.0</ele><time>2026-04-26T09:40:22.934Z</time></trkpt><trkpt lat="44.87648" lon="9.551575"><ele>177.0</ele><time>2026-04-26T09:40:23.934Z</time></trkpt><trkpt lat="44.8763733" lon="9.5514967"><ele>175.0</ele><time>2026-04-26T09:40:24.933Z</time></trkpt><trkpt lat="44.876275" lon="9.5513883"><ele>173.0</ele><time>2026-04-26T09:40:25.934Z</time></trkpt><trkpt lat="44.8761983" lon="9.5512617"><ele>177.25</ele><time>2026-04-26T09:40:26.934Z</time></trkpt><trkpt lat="44.8761433" lon="9.5511083"><ele>181.5</ele><time>2026-04-26T09:40:27.934Z</time></trkpt><trkpt lat="44.87613" lon="9.55093"><ele>185.75</ele><time>2026-04-26T09:40:28.934Z</time></trkpt><trkpt lat="44.8761467" lon="9.5507517"><ele>190.0</ele><time>2026-04-26T09:40:29.939Z</time></trkpt><trkpt lat="44.87618" lon="9.5505667"><ele>190.0</ele><time>2026-04-26T09:40:30.935Z</time></trkpt><trkpt lat="44.8762067" lon="9.550375"><ele>190.0</ele><time>2026-04-26T09:40:31.934Z</time></trkpt><trkpt lat="44.8762083" lon="9.55018"><ele>190.0</ele><time>2026-04-26T09:40:32.935Z</time></trkpt><trkpt lat="44.8762" lon="9.549995"><ele>190.0</ele><time>2026-04-26T09:40:33.938Z</time></trkpt><trkpt lat="44.8761767" lon="9.5498283"><ele>190.6</ele><time>2026-04-26T09:40:34.934Z</time></trkpt><trkpt lat="44.8761367" lon="9.5496833"><ele>191.2</ele><time>2026-04-26T09:40:35.937Z</time></trkpt><trkpt lat="44.8760817" lon="9.54957"><ele>191.8</ele><time>2026-04-26T09:40:36.935Z</time></trkpt><trkpt lat="44.8760383" lon="9.5494817"><ele>192.4</ele><time>2026-04-26T09:40:37.934Z</time></trkpt><trkpt lat="44.8760083" lon="9.5493567"><ele>193.0</ele><time>2026-04-26T09:40:39.933Z</time></trkpt><trkpt lat="44.8760333" lon="9.5491967"><ele>193.0</ele><time>2026-04-26T09:40:41.935Z</time></trkpt><trkpt lat="44.87606" lon="9.5490883"><ele>193.0</ele><time>2026-04-26T09:40:42.938Z</time></trkpt><trkpt lat="44.8761083" lon="9.54896"><ele>193.0</ele><time>2026-04-26T09:40:43.934Z</time></trkpt><trkpt lat="44.876155" lon="9.5488"><ele>193.0</ele><time>2026-04-26T09:40:44.934Z</time></trkpt><trkpt lat="44.8761783" lon="9.5486317"><ele>193.0</ele><time>2026-04-26T09:40:45.936Z</time></trkpt><trkpt lat="44.8762017" lon="9.5484717"><ele>193.0</ele><time>2026-04-26T09:40:46.935Z</time></trkpt><trkpt lat="44.8762217" lon="9.5483117"><ele>193.0</ele><time>2026-04-26T09:40:47.936Z</time></trkpt><trkpt lat="44.8762567" lon="9.548155"><ele>193.0</ele><time>2026-04-26T09:40:48.936Z</time></trkpt><trkpt lat="44.87629" lon="9.5480017"><ele>193.0</ele><time>2026-04-26T09:40:49.934Z</time></trkpt><trkpt lat="44.8763267" lon="9.5478517"><ele>193.2</ele><time>2026-04-26T09:40:50.936Z</time></trkpt><trkpt lat="44.87637" lon="9.5477033"><ele>193.4</ele><time>2026-04-26T09:40:51.936Z</time></trkpt><trkpt lat="44.8764233" lon="9.547575"><ele>193.6</ele><time>2026-04-26T09:40:52.935Z</time></trkpt><trkpt lat="44.8764867" lon="9.54746"><ele>193.79999999999998</ele><time>2026-04-26T09:40:53.938Z</time></trkpt><trkpt lat="44.8765583" lon="9.547355"><ele>194.0</ele><time>2026-04-26T09:40:54.937Z</time></trkpt><trkpt lat="44.876625" lon="9.5472533"><ele>194.00000000000003</ele><time>2026-04-26T09:40:55.934Z</time></trkpt><trkpt lat="44.8766817" lon="9.5471567"><ele>194.0</ele><time>2026-04-26T09:40:56.942Z</time></trkpt><trkpt lat="44.8767283" lon="9.5470617"><ele>194.0</ele><time>2026-04-26T09:40:57.935Z</time></trkpt><trkpt lat="44.8767767" lon="9.5469733"><ele>194.0</ele><time>2026-04-26T09:40:58.934Z</time></trkpt><trkpt lat="44.8768017" lon="9.5468817"><ele>194.00000000000003</ele><time>2026-04-26T09:40:59.933Z</time></trkpt><trkpt lat="44.8768417" lon="9.5467183"><ele>194.0</ele><time>2026-04-26T09:41:01.936Z</time></trkpt><trkpt lat="44.876855" lon="9.546545"><ele>196.83333333333334</ele><time>2026-04-26T09:41:03.935Z</time></trkpt><trkpt lat="44.87686" lon="9.54645"><ele>199.66666666666669</ele><time>2026-04-26T09:41:04.935Z</time></trkpt><trkpt lat="44.8768733" lon="9.5463433"><ele>202.5</ele><time>2026-04-26T09:41:05.935Z</time></trkpt><trkpt lat="44.8768933" lon="9.546225"><ele>205.33333333333331</ele><time>2026-04-26T09:41:06.936Z</time></trkpt><trkpt lat="44.876905" lon="9.54609"><ele>208.16666666666666</ele><time>2026-04-26T09:41:07.936Z</time></trkpt><trkpt lat="44.8769" lon="9.5459267"><ele>211.0</ele><time>2026-04-26T09:41:08.936Z</time></trkpt><trkpt lat="44.8768867" lon="9.5457683"><ele>210.99999999999997</ele><time>2026-04-26T09:41:09.935Z</time></trkpt><trkpt lat="44.876875" lon="9.5456217"><ele>211.0</ele><time>2026-04-26T09:41:10.933Z</time></trkpt><trkpt lat="44.8768767" lon="9.5455067"><ele>211.0</ele><time>2026-04-26T09:41:11.935Z</time></trkpt><trkpt lat="44.8768783" lon="9.545395"><ele>211.0</ele><time>2026-04-26T09:41:12.936Z</time></trkpt><trkpt lat="44.8768881" lon="9.5452937"><ele>210.99999999999997</ele><time>2026-04-26T09:41:13.939Z</time></trkpt><trkpt lat="44.8769106" lon="9.5451919"><ele>211.0</ele><time>2026-04-26T09:41:14.937Z</time></trkpt><trkpt lat="44.8769518" lon="9.5450955"><ele>210.33333333333331</ele><time>2026-04-26T09:41:15.936Z</time></trkpt><trkpt lat="44.877012" lon="9.5450043"><ele>209.66666666666666</ele><time>2026-04-26T09:41:16.936Z</time></trkpt><trkpt lat="44.8770847" lon="9.5449237"><ele>209.0</ele><time>2026-04-26T09:41:17.938Z</time></trkpt><trkpt lat="44.877159" lon="9.544862"><ele>208.33333333333331</ele><time>2026-04-26T09:41:18.936Z</time></trkpt><trkpt lat="44.8772307" lon="9.5448244"><ele>207.66666666666666</ele><time>2026-04-26T09:41:19.937Z</time></trkpt><trkpt lat="44.8773019" lon="9.5448006"><ele>207.0</ele><time>2026-04-26T09:41:20.936Z</time></trkpt><trkpt lat="44.8773783" lon="9.5447829"><ele>207.0</ele><time>2026-04-26T09:41:21.935Z</time></trkpt><trkpt lat="44.8774541" lon="9.544757"><ele>207.0</ele><time>2026-04-26T09:41:22.934Z</time></trkpt><trkpt lat="44.8775233" lon="9.544713"><ele>207.0</ele><time>2026-04-26T09:41:23.935Z</time></trkpt><trkpt lat="44.8775847" lon="9.544625"><ele>207.0</ele><time>2026-04-26T09:41:24.936Z</time></trkpt><trkpt lat="44.8776559" lon="9.5445017"><ele>207.0</ele><time>2026-04-26T09:41:25.935Z</time></trkpt><trkpt lat="44.8777426" lon="9.5443498"><ele>209.25</ele><time>2026-04-26T09:41:26.937Z</time></trkpt><trkpt lat="44.877844" lon="9.5441886"><ele>211.5</ele><time>2026-04-26T09:41:27.936Z</time></trkpt><trkpt lat="44.8779467" lon="9.5440239"><ele>213.75</ele><time>2026-04-26T09:41:28.939Z</time></trkpt><trkpt lat="44.8780372" lon="9.5438746"><ele>216.0</ele><time>2026-04-26T09:41:29.935Z</time></trkpt><trkpt lat="44.8781121" lon="9.5437401"><ele>213.0</ele><time>2026-04-26T09:41:30.936Z</time></trkpt><trkpt lat="44.8781797" lon="9.5436238"><ele>210.0</ele><time>2026-04-26T09:41:31.935Z</time></trkpt><trkpt lat="44.8782548" lon="9.5435056"><ele>207.0</ele><time>2026-04-26T09:41:32.935Z</time></trkpt><trkpt lat="44.8783322" lon="9.5433805"><ele>204.0</ele><time>2026-04-26T09:41:33.935Z</time></trkpt><trkpt lat="44.8784023" lon="9.5432501"><ele>205.2</ele><time>2026-04-26T09:41:34.937Z</time></trkpt><trkpt lat="44.8784612" lon="9.5431225"><ele>206.39999999999998</ele><time>2026-04-26T09:41:35.934Z</time></trkpt><trkpt lat="44.8785198" lon="9.543008"><ele>207.6</ele><time>2026-04-26T09:41:36.934Z</time></trkpt><trkpt lat="44.8785881" lon="9.5429086"><ele>208.8</ele><time>2026-04-26T09:41:37.935Z</time></trkpt><trkpt lat="44.8786705" lon="9.5428134"><ele>210.0</ele><time>2026-04-26T09:41:38.937Z</time></trkpt><trkpt lat="44.8787673" lon="9.5427139"><ele>210.0</ele><time>2026-04-26T09:41:39.935Z</time></trkpt><trkpt lat="44.8788677" lon="9.5426137"><ele>210.0</ele><time>2026-04-26T09:41:40.934Z</time></trkpt><trkpt lat="44.8789748" lon="9.5425141"><ele>210.0</ele><time>2026-04-26T09:41:41.935Z</time></trkpt><trkpt lat="44.8790868" lon="9.5424288"><ele>210.0</ele><time>2026-04-26T09:41:42.935Z</time></trkpt><trkpt lat="44.8791928" lon="9.5423464"><ele>211.6</ele><time>2026-04-26T09:41:43.936Z</time></trkpt><trkpt lat="44.8792848" lon="9.5422673"><ele>213.2</ele><time>2026-04-26T09:41:44.934Z</time></trkpt><trkpt lat="44.8793592" lon="9.5421913"><ele>214.8</ele><time>2026-04-26T09:41:45.935Z</time></trkpt><trkpt lat="44.8794283" lon="9.5421295"><ele>216.4</ele><time>2026-04-26T09:41:46.934Z</time></trkpt><trkpt lat="44.879536" lon="9.5420803"><ele>218.0</ele><time>2026-04-26T09:41:48.936Z</time></trkpt><trkpt lat="44.8796302" lon="9.5421616"><ele>218.0</ele><time>2026-04-26T09:41:50.934Z</time></trkpt><trkpt lat="44.8796824" lon="9.5422162"><ele>218.0</ele><time>2026-04-26T09:41:51.935Z</time></trkpt><trkpt lat="44.8798055" lon="9.5422533"><ele>218.0</ele><time>2026-04-26T09:41:53.934Z</time></trkpt><trkpt lat="44.8798864" lon="9.542223"><ele>218.0</ele><time>2026-04-26T09:41:54.934Z</time></trkpt><trkpt lat="44.8799821" lon="9.5421491"><ele>218.0</ele><time>2026-04-26T09:41:55.935Z</time></trkpt><trkpt lat="44.8800832" lon="9.5420309"><ele>219.0</ele><time>2026-04-26T09:41:56.935Z</time></trkpt><trkpt lat="44.8801818" lon="9.5418966"><ele>220.0</ele><time>2026-04-26T09:41:57.934Z</time></trkpt><trkpt lat="44.8802773" lon="9.5417769"><ele>221.0</ele><time>2026-04-26T09:41:58.936Z</time></trkpt><trkpt lat="44.8803769" lon="9.5416773"><ele>222.0</ele><time>2026-04-26T09:41:59.934Z</time></trkpt><trkpt lat="44.8804882" lon="9.5415994"><ele>222.0</ele><time>2026-04-26T09:42:00.935Z</time></trkpt><trkpt lat="44.8806055" lon="9.5415235"><ele>222.0</ele><time>2026-04-26T09:42:01.937Z</time></trkpt><trkpt lat="44.8807238" lon="9.5414465"><ele>222.0</ele><time>2026-04-26T09:42:02.935Z</time></trkpt><trkpt lat="44.8808466" lon="9.5413589"><ele>222.0</ele><time>2026-04-26T09:42:03.934Z</time></trkpt><trkpt lat="44.8809602" lon="9.5412526"><ele>225.66666666666669</ele><time>2026-04-26T09:42:04.935Z</time></trkpt><trkpt lat="44.88109" lon="9.5411221"><ele>229.33333333333334</ele><time>2026-04-26T09:42:05.936Z</time></trkpt><trkpt lat="44.881204" lon="9.5409901"><ele>233.0</ele><time>2026-04-26T09:42:06.934Z</time></trkpt><trkpt lat="44.8813088" lon="9.5408481"><ele>233.0</ele><time>2026-04-26T09:42:07.934Z</time></trkpt><trkpt lat="44.8814034" lon="9.5406969"><ele>233.0</ele><time>2026-04-26T09:42:08.941Z</time></trkpt><trkpt lat="44.8814936" lon="9.5405346"><ele>233.0</ele><time>2026-04-26T09:42:09.935Z</time></trkpt><trkpt lat="44.8815801" lon="9.5403662"><ele>233.0</ele><time>2026-04-26T09:42:10.935Z</time></trkpt><trkpt lat="44.8816636" lon="9.5401982"><ele>235.75</ele><time>2026-04-26T09:42:11.935Z</time></trkpt><trkpt lat="44.8817429" lon="9.5400375"><ele>238.5</ele><time>2026-04-26T09:42:12.937Z</time></trkpt><trkpt lat="44.8818168" lon="9.5398855"><ele>241.25</ele><time>2026-04-26T09:42:13.935Z</time></trkpt><trkpt lat="44.881883" lon="9.5397501"><ele>244.0</ele><time>2026-04-26T09:42:14.935Z</time></trkpt><trkpt lat="44.881956" lon="9.539635"><ele>241.39999999999998</ele><time>2026-04-26T09:42:15.938Z</time></trkpt><trkpt lat="44.8820337" lon="9.5395307"><ele>238.79999999999998</ele><time>2026-04-26T09:42:16.934Z</time></trkpt><trkpt lat="44.8821156" lon="9.5394478"><ele>236.20000000000002</ele><time>2026-04-26T09:42:17.934Z</time></trkpt><trkpt lat="44.8822062" lon="9.5393891"><ele>233.60000000000002</ele><time>2026-04-26T09:42:18.938Z</time></trkpt><trkpt lat="44.8823064" lon="9.5393476"><ele>231.0</ele><time>2026-04-26T09:42:19.936Z</time></trkpt><trkpt lat="44.882409" lon="9.5393076"><ele>231.0</ele><time>2026-04-26T09:42:20.939Z</time></trkpt><trkpt lat="44.8825236" lon="9.539266"><ele>231.0</ele><time>2026-04-26T09:42:21.936Z</time></trkpt><trkpt lat="44.8826378" lon="9.5392239"><ele>231.0</ele><time>2026-04-26T09:42:22.935Z</time></trkpt><trkpt lat="44.8827602" lon="9.539188"><ele>231.0</ele><time>2026-04-26T09:42:23.935Z</time></trkpt><trkpt lat="44.8828697" lon="9.5391458"><ele>231.5</ele><time>2026-04-26T09:42:24.934Z</time></trkpt><trkpt lat="44.8829716" lon="9.5391084"><ele>232.0</ele><time>2026-04-26T09:42:25.941Z</time></trkpt><trkpt lat="44.8830835" lon="9.539072"><ele>232.5</ele><time>2026-04-26T09:42:26.935Z</time></trkpt><trkpt lat="44.8831951" lon="9.5390436"><ele>233.0</ele><time>2026-04-26T09:42:27.935Z</time></trkpt><trkpt lat="44.8833121" lon="9.5390305"><ele>237.25</ele><time>2026-04-26T09:42:28.935Z</time></trkpt><trkpt lat="44.8834309" lon="9.5390139"><ele>241.5</ele><time>2026-04-26T09:42:29.935Z</time></trkpt><trkpt lat="44.8835628" lon="9.5389751"><ele>245.75</ele><time>2026-04-26T09:42:30.94Z</time></trkpt><trkpt lat="44.883707" lon="9.5389053"><ele>250.0</ele><time>2026-04-26T09:42:31.934Z</time></trkpt><trkpt lat="44.8838555" lon="9.5388168"><ele>250.0</ele><time>2026-04-26T09:42:32.936Z</time></trkpt><trkpt lat="44.8840067" lon="9.5387339"><ele>250.0</ele><time>2026-04-26T09:42:33.935Z</time></trkpt><trkpt lat="44.8841547" lon="9.5386471"><ele>250.0</ele><time>2026-04-26T09:42:34.935Z</time></trkpt><trkpt lat="44.8843023" lon="9.5385492"><ele>247.33333333333331</ele><time>2026-04-26T09:42:35.937Z</time></trkpt><trkpt lat="44.8844533" lon="9.5384592"><ele>244.66666666666669</ele><time>2026-04-26T09:42:36.934Z</time></trkpt><trkpt lat="44.8846013" lon="9.5383757"><ele>242.0</ele><time>2026-04-26T09:42:37.935Z</time></trkpt><trkpt lat="44.884741" lon="9.5382955"><ele>242.0</ele><time>2026-04-26T09:42:38.934Z</time></trkpt><trkpt lat="44.8848694" lon="9.5382213"><ele>242.0</ele><time>2026-04-26T09:42:39.935Z</time></trkpt><trkpt lat="44.8849845" lon="9.5381439"><ele>242.0</ele><time>2026-04-26T09:42:40.938Z</time></trkpt><trkpt lat="44.8850897" lon="9.5380727"><ele>242.0</ele><time>2026-04-26T09:42:41.934Z</time></trkpt><trkpt lat="44.8851815" lon="9.5380191"><ele>243.83333333333334</ele><time>2026-04-26T09:42:42.935Z</time></trkpt><trkpt lat="44.8852576" lon="9.5379825"><ele>245.66666666666669</ele><time>2026-04-26T09:42:43.934Z</time></trkpt><trkpt lat="44.88533" lon="9.53797"><ele>247.5</ele><time>2026-04-26T09:42:44.934Z</time></trkpt><trkpt lat="44.8854133" lon="9.53796"><ele>249.33333333333331</ele><time>2026-04-26T09:42:45.934Z</time></trkpt><trkpt lat="44.885505" lon="9.5379517"><ele>251.16666666666666</ele><time>2026-04-26T09:42:46.935Z</time></trkpt><trkpt lat="44.8856067" lon="9.537945"><ele>253.0</ele><time>2026-04-26T09:42:47.934Z</time></trkpt><trkpt lat="44.8857183" lon="9.5379333"><ele>253.0</ele><time>2026-04-26T09:42:48.934Z</time></trkpt><trkpt lat="44.8858417" lon="9.5379183"><ele>253.0</ele><time>2026-04-26T09:42:49.94Z</time></trkpt><trkpt lat="44.8859683" lon="9.5379033"><ele>253.0</ele><time>2026-04-26T09:42:50.935Z</time></trkpt><trkpt lat="44.8860817" lon="9.537885"><ele>253.0</ele><time>2026-04-26T09:42:51.934Z</time></trkpt><trkpt lat="44.886185" lon="9.5378567"><ele>251.4</ele><time>2026-04-26T09:42:52.936Z</time></trkpt><trkpt lat="44.8862717" lon="9.5378133"><ele>249.8</ele><time>2026-04-26T09:42:53.936Z</time></trkpt><trkpt lat="44.8863433" lon="9.5377467"><ele>248.2</ele><time>2026-04-26T09:42:54.934Z</time></trkpt><trkpt lat="44.8864133" lon="9.5376533"><ele>246.6</ele><time>2026-04-26T09:42:55.939Z</time></trkpt><trkpt lat="44.8864817" lon="9.5375433"><ele>245.0</ele><time>2026-04-26T09:42:56.935Z</time></trkpt><trkpt lat="44.8865667" lon="9.5374333"><ele>245.0</ele><time>2026-04-26T09:42:57.936Z</time></trkpt><trkpt lat="44.886665" lon="9.5373367"><ele>245.0</ele><time>2026-04-26T09:42:58.935Z</time></trkpt><trkpt lat="44.8867733" lon="9.537255"><ele>245.0</ele><time>2026-04-26T09:42:59.935Z</time></trkpt><trkpt lat="44.8868767" lon="9.537195"><ele>245.0</ele><time>2026-04-26T09:43:00.935Z</time></trkpt><trkpt lat="44.8869767" lon="9.5371517"><ele>245.6</ele><time>2026-04-26T09:43:01.935Z</time></trkpt><trkpt lat="44.88708" lon="9.53714"><ele>246.2</ele><time>2026-04-26T09:43:02.935Z</time></trkpt><trkpt lat="44.8871733" lon="9.53717"><ele>246.8</ele><time>2026-04-26T09:43:03.935Z</time></trkpt><trkpt lat="44.8872517" lon="9.5372367"><ele>247.4</ele><time>2026-04-26T09:43:04.934Z</time></trkpt><trkpt lat="44.8873283" lon="9.5373383"><ele>248.0</ele><time>2026-04-26T09:43:05.935Z</time></trkpt><trkpt lat="44.8873983" lon="9.5374517"><ele>248.0</ele><time>2026-04-26T09:43:06.934Z</time></trkpt><trkpt lat="44.8874683" lon="9.53759"><ele>248.0</ele><time>2026-04-26T09:43:07.937Z</time></trkpt><trkpt lat="44.8875567" lon="9.5377333"><ele>248.0</ele><time>2026-04-26T09:43:08.934Z</time></trkpt><trkpt lat="44.8876433" lon="9.5378683"><ele>248.0</ele><time>2026-04-26T09:43:09.934Z</time></trkpt><trkpt lat="44.887725" lon="9.5379833"><ele>251.8</ele><time>2026-04-26T09:43:10.935Z</time></trkpt><trkpt lat="44.8877967" lon="9.5380783"><ele>255.60000000000002</ele><time>2026-04-26T09:43:11.936Z</time></trkpt><trkpt lat="44.887855" lon="9.53819"><ele>259.4</ele><time>2026-04-26T09:43:12.936Z</time></trkpt><trkpt lat="44.887915" lon="9.5383217"><ele>263.2</ele><time>2026-04-26T09:43:13.936Z</time></trkpt><trkpt lat="44.8879783" lon="9.538435"><ele>267.0</ele><time>2026-04-26T09:43:14.936Z</time></trkpt><trkpt lat="44.888045" lon="9.538525"><ele>267.0</ele><time>2026-04-26T09:43:15.936Z</time></trkpt><trkpt lat="44.8881133" lon="9.5385967"><ele>267.0</ele><time>2026-04-26T09:43:16.934Z</time></trkpt><trkpt lat="44.8881833" lon="9.5386383"><ele>267.0</ele><time>2026-04-26T09:43:17.935Z</time></trkpt><trkpt lat="44.88826" lon="9.5386433"><ele>267.0</ele><time>2026-04-26T09:43:18.938Z</time></trkpt><trkpt lat="44.8883783" lon="9.538535"><ele>267.0</ele><time>2026-04-26T09:43:19.934Z</time></trkpt><trkpt lat="44.8884733" lon="9.5384283"><ele>269.8</ele><time>2026-04-26T09:43:20.939Z</time></trkpt><trkpt lat="44.8885683" lon="9.5383317"><ele>272.6</ele><time>2026-04-26T09:43:21.937Z</time></trkpt><trkpt lat="44.8886433" lon="9.5382383"><ele>275.40000000000003</ele><time>2026-04-26T09:43:22.934Z</time></trkpt><trkpt lat="44.8886983" lon="9.53812"><ele>278.2</ele><time>2026-04-26T09:43:23.934Z</time></trkpt><trkpt lat="44.88874" lon="9.5379783"><ele>281.0</ele><time>2026-04-26T09:43:24.937Z</time></trkpt><trkpt lat="44.8887733" lon="9.5378183"><ele>281.0</ele><time>2026-04-26T09:43:25.934Z</time></trkpt><trkpt lat="44.8888067" lon="9.5376567"><ele>281.0</ele><time>2026-04-26T09:43:26.937Z</time></trkpt><trkpt lat="44.8888467" lon="9.5375033"><ele>281.0</ele><time>2026-04-26T09:43:27.933Z</time></trkpt><trkpt lat="44.888885" lon="9.5373717"><ele>281.0</ele><time>2026-04-26T09:43:28.934Z</time></trkpt><trkpt lat="44.8889267" lon="9.537275"><ele>281.0</ele><time>2026-04-26T09:43:29.938Z</time></trkpt><trkpt lat="44.8889733" lon="9.5371933"><ele>281.0</ele><time>2026-04-26T09:43:30.938Z</time></trkpt><trkpt lat="44.8890367" lon="9.5371267"><ele>281.0</ele><time>2026-04-26T09:43:31.938Z</time></trkpt><trkpt lat="44.8891017" lon="9.53708"><ele>281.0</ele><time>2026-04-26T09:43:32.936Z</time></trkpt><trkpt lat="44.8891833" lon="9.5370533"><ele>281.0</ele><time>2026-04-26T09:43:33.935Z</time></trkpt><trkpt lat="44.8892763" lon="9.5370278"><ele>281.0</ele><time>2026-04-26T09:43:34.934Z</time></trkpt><trkpt lat="44.8893856" lon="9.5370087"><ele>281.0</ele><time>2026-04-26T09:43:35.934Z</time></trkpt><trkpt lat="44.8894908" lon="9.537001"><ele>281.8</ele><time>2026-04-26T09:43:36.934Z</time></trkpt><trkpt lat="44.8895799" lon="9.5369937"><ele>282.6</ele><time>2026-04-26T09:43:37.935Z</time></trkpt><trkpt lat="44.8896699" lon="9.5369723"><ele>283.4</ele><time>2026-04-26T09:43:38.935Z</time></trkpt><trkpt lat="44.8897521" lon="9.5369406"><ele>284.2</ele><time>2026-04-26T09:43:39.935Z</time></trkpt><trkpt lat="44.8898289" lon="9.5368818"><ele>285.0</ele><time>2026-04-26T09:43:40.934Z</time></trkpt><trkpt lat="44.8899104" lon="9.5368062"><ele>285.0</ele><time>2026-04-26T09:43:41.935Z</time></trkpt><trkpt lat="44.8899934" lon="9.5367519"><ele>285.0</ele><time>2026-04-26T09:43:42.94Z</time></trkpt><trkpt lat="44.8900724" lon="9.5367267"><ele>285.0</ele><time>2026-04-26T09:43:43.935Z</time></trkpt><trkpt lat="44.8901535" lon="9.5367454"><ele>285.0</ele><time>2026-04-26T09:43:44.934Z</time></trkpt><trkpt lat="44.8902207" lon="9.5368045"><ele>285.0</ele><time>2026-04-26T09:43:45.935Z</time></trkpt><trkpt lat="44.8902664" lon="9.5368887"><ele>285.0</ele><time>2026-04-26T09:43:46.936Z</time></trkpt><trkpt lat="44.8903054" lon="9.5369867"><ele>288.6666666666667</ele><time>2026-04-26T09:43:47.934Z</time></trkpt><trkpt lat="44.890345" lon="9.5370871"><ele>292.3333333333333</ele><time>2026-04-26T09:43:48.934Z</time></trkpt><trkpt lat="44.8903803" lon="9.5371834"><ele>296.0</ele><time>2026-04-26T09:43:49.936Z</time></trkpt><trkpt lat="44.8904112" lon="9.5372716"><ele>299.66666666666663</ele><time>2026-04-26T09:43:50.936Z</time></trkpt><trkpt lat="44.8904592" lon="9.5373428"><ele>303.3333333333333</ele><time>2026-04-26T09:43:51.934Z</time></trkpt><trkpt lat="44.8905122" lon="9.5374043"><ele>307.0</ele><time>2026-04-26T09:43:52.935Z</time></trkpt><trkpt lat="44.8906083" lon="9.5373933"><ele>307.0</ele><time>2026-04-26T09:43:54.937Z</time></trkpt><trkpt lat="44.8906617" lon="9.537335"><ele>307.0</ele><time>2026-04-26T09:43:55.934Z</time></trkpt><trkpt lat="44.8907283" lon="9.5372533"><ele>307.0</ele><time>2026-04-26T09:43:56.935Z</time></trkpt><trkpt lat="44.8908017" lon="9.5371517"><ele>307.0</ele><time>2026-04-26T09:43:57.935Z</time></trkpt><trkpt lat="44.890875" lon="9.53707"><ele>307.0</ele><time>2026-04-26T09:43:58.934Z</time></trkpt><trkpt lat="44.890945" lon="9.5370067"><ele>307.0</ele><time>2026-04-26T09:43:59.934Z</time></trkpt><trkpt lat="44.8910083" lon="9.536985"><ele>307.16666666666663</ele><time>2026-04-26T09:44:00.934Z</time></trkpt><trkpt lat="44.8910733" lon="9.5369783"><ele>307.3333333333333</ele><time>2026-04-26T09:44:01.934Z</time></trkpt><trkpt lat="44.8911367" lon="9.5370017"><ele>307.5</ele><time>2026-04-26T09:44:02.935Z</time></trkpt><trkpt lat="44.8912183" lon="9.5370517"><ele>307.6666666666667</ele><time>2026-04-26T09:44:03.935Z</time></trkpt><trkpt lat="44.8912983" lon="9.5370883"><ele>307.83333333333337</ele><time>2026-04-26T09:44:04.935Z</time></trkpt><trkpt lat="44.891385" lon="9.53713"><ele>308.0</ele><time>2026-04-26T09:44:05.935Z</time></trkpt><trkpt lat="44.8914667" lon="9.5371367"><ele>308.0</ele><time>2026-04-26T09:44:06.935Z</time></trkpt><trkpt lat="44.8915433" lon="9.5370633"><ele>308.0</ele><time>2026-04-26T09:44:07.934Z</time></trkpt><trkpt lat="44.8916017" lon="9.5369517"><ele>308.0</ele><time>2026-04-26T09:44:08.935Z</time></trkpt><trkpt lat="44.8916467" lon="9.53682"><ele>308.0</ele><time>2026-04-26T09:44:09.934Z</time></trkpt><trkpt lat="44.8916933" lon="9.5367033"><ele>308.0</ele><time>2026-04-26T09:44:10.937Z</time></trkpt><trkpt lat="44.891735" lon="9.5366033"><ele>309.83333333333337</ele><time>2026-04-26T09:44:11.936Z</time></trkpt><trkpt lat="44.8917817" lon="9.536525"><ele>311.6666666666667</ele><time>2026-04-26T09:44:12.935Z</time></trkpt><trkpt lat="44.89188" lon="9.5365467"><ele>313.5</ele><time>2026-04-26T09:44:14.935Z</time></trkpt><trkpt lat="44.891935" lon="9.5366033"><ele>315.3333333333333</ele><time>2026-04-26T09:44:15.936Z</time></trkpt><trkpt lat="44.8920017" lon="9.5366917"><ele>317.16666666666663</ele><time>2026-04-26T09:44:16.934Z</time></trkpt><trkpt lat="44.8920567" lon="9.5367917"><ele>319.0</ele><time>2026-04-26T09:44:17.935Z</time></trkpt><trkpt lat="44.8921217" lon="9.536905"><ele>319.0</ele><time>2026-04-26T09:44:18.935Z</time></trkpt><trkpt lat="44.8921867" lon="9.5370033"><ele>319.0</ele><time>2026-04-26T09:44:19.935Z</time></trkpt><trkpt lat="44.892245" lon="9.5370667"><ele>319.0</ele><time>2026-04-26T09:44:20.937Z</time></trkpt><trkpt lat="44.8923033" lon="9.5371267"><ele>319.0</ele><time>2026-04-26T09:44:21.937Z</time></trkpt><trkpt lat="44.8923833" lon="9.5371217"><ele>319.0</ele><time>2026-04-26T09:44:22.936Z</time></trkpt><trkpt lat="44.8924767" lon="9.5370983"><ele>319.0</ele><time>2026-04-26T09:44:23.937Z</time></trkpt><trkpt lat="44.8925683" lon="9.5370433"><ele>322.2</ele><time>2026-04-26T09:44:24.935Z</time></trkpt><trkpt lat="44.8926467" lon="9.536975"><ele>325.4</ele><time>2026-04-26T09:44:25.935Z</time></trkpt><trkpt lat="44.892695" lon="9.5368533"><ele>328.6</ele><time>2026-04-26T09:44:26.94Z</time></trkpt><trkpt lat="44.8927217" lon="9.5367367"><ele>331.8</ele><time>2026-04-26T09:44:27.935Z</time></trkpt><trkpt lat="44.8927267" lon="9.5366083"><ele>335.0</ele><time>2026-04-26T09:44:28.936Z</time></trkpt><trkpt lat="44.8927133" lon="9.5364867"><ele>335.0</ele><time>2026-04-26T09:44:29.933Z</time></trkpt><trkpt lat="44.89268" lon="9.5363883"><ele>335.0</ele><time>2026-04-26T09:44:30.933Z</time></trkpt><trkpt lat="44.8926467" lon="9.5362967"><ele>335.0</ele><time>2026-04-26T09:44:31.936Z</time></trkpt><trkpt lat="44.892585" lon="9.5361417"><ele>335.0</ele><time>2026-04-26T09:44:33.933Z</time></trkpt><trkpt lat="44.8925233" lon="9.5359867"><ele>335.0</ele><time>2026-04-26T09:44:35.936Z</time></trkpt><trkpt lat="44.8925083" lon="9.5358917"><ele>334.0</ele><time>2026-04-26T09:44:36.934Z</time></trkpt><trkpt lat="44.8925067" lon="9.5357817"><ele>333.0</ele><time>2026-04-26T09:44:37.94Z</time></trkpt><trkpt lat="44.8925067" lon="9.53566"><ele>332.0</ele><time>2026-04-26T09:44:38.935Z</time></trkpt><trkpt lat="44.8925167" lon="9.5355267"><ele>331.0</ele><time>2026-04-26T09:44:39.935Z</time></trkpt><trkpt lat="44.8925267" lon="9.5353967"><ele>330.0</ele><time>2026-04-26T09:44:40.934Z</time></trkpt><trkpt lat="44.8925383" lon="9.5352667"><ele>329.0</ele><time>2026-04-26T09:44:41.934Z</time></trkpt><trkpt lat="44.892555" lon="9.5351333"><ele>329.0</ele><time>2026-04-26T09:44:42.935Z</time></trkpt><trkpt lat="44.8925733" lon="9.5350133"><ele>329.0</ele><time>2026-04-26T09:44:43.933Z</time></trkpt><trkpt lat="44.8926017" lon="9.534895"><ele>329.0</ele><time>2026-04-26T09:44:44.937Z</time></trkpt><trkpt lat="44.8926333" lon="9.5347817"><ele>329.0</ele><time>2026-04-26T09:44:45.935Z</time></trkpt><trkpt lat="44.8926783" lon="9.53467"><ele>329.0</ele><time>2026-04-26T09:44:46.935Z</time></trkpt><trkpt lat="44.892745" lon="9.53456"><ele>335.0</ele><time>2026-04-26T09:44:47.935Z</time></trkpt><trkpt lat="44.8928233" lon="9.5344417"><ele>341.0</ele><time>2026-04-26T09:44:48.935Z</time></trkpt><trkpt lat="44.8929" lon="9.5343083"><ele>347.0</ele><time>2026-04-26T09:44:49.94Z</time></trkpt><trkpt lat="44.8929767" lon="9.5341467"><ele>353.0</ele><time>2026-04-26T09:44:50.935Z</time></trkpt><trkpt lat="44.8930433" lon="9.5339667"><ele>353.0</ele><time>2026-04-26T09:44:51.933Z</time></trkpt><trkpt lat="44.8931083" lon="9.533775"><ele>353.0</ele><time>2026-04-26T09:44:52.933Z</time></trkpt><trkpt lat="44.89317" lon="9.53358"><ele>353.0</ele><time>2026-04-26T09:44:53.933Z</time></trkpt><trkpt lat="44.8932117" lon="9.5334117"><ele>353.0</ele><time>2026-04-26T09:44:54.935Z</time></trkpt><trkpt lat="44.8932367" lon="9.5332733"><ele>352.5</ele><time>2026-04-26T09:44:55.933Z</time></trkpt><trkpt lat="44.8932567" lon="9.5331617"><ele>352.0</ele><time>2026-04-26T09:44:56.934Z</time></trkpt><trkpt lat="44.8932833" lon="9.5330667"><ele>351.5</ele><time>2026-04-26T09:44:57.933Z</time></trkpt><trkpt lat="44.8933567" lon="9.53301"><ele>351.0</ele><time>2026-04-26T09:44:59.934Z</time></trkpt><trkpt lat="44.8934317" lon="9.5330783"><ele>350.5</ele><time>2026-04-26T09:45:01.937Z</time></trkpt><trkpt lat="44.89346" lon="9.5331583"><ele>350.0</ele><time>2026-04-26T09:45:02.934Z</time></trkpt><trkpt lat="44.8934917" lon="9.5332567"><ele>353.83333333333337</ele><time>2026-04-26T09:45:03.933Z</time></trkpt><trkpt lat="44.893525" lon="9.53335"><ele>357.6666666666667</ele><time>2026-04-26T09:45:04.933Z</time></trkpt><trkpt lat="44.893565" lon="9.5334617"><ele>361.5</ele><time>2026-04-26T09:45:05.937Z</time></trkpt><trkpt lat="44.893615" lon="9.53359"><ele>365.3333333333333</ele><time>2026-04-26T09:45:06.936Z</time></trkpt><trkpt lat="44.893655" lon="9.5337117"><ele>369.16666666666663</ele><time>2026-04-26T09:45:07.933Z</time></trkpt><trkpt lat="44.89368" lon="9.5338167"><ele>373.0</ele><time>2026-04-26T09:45:08.935Z</time></trkpt><trkpt lat="44.8937017" lon="9.5339133"><ele>372.8571428571429</ele><time>2026-04-26T09:45:09.933Z</time></trkpt><trkpt lat="44.8937233" lon="9.53401"><ele>372.7142857142857</ele><time>2026-04-26T09:45:10.941Z</time></trkpt><trkpt lat="44.8937383" lon="9.5340983"><ele>372.57142857142856</ele><time>2026-04-26T09:45:11.934Z</time></trkpt><trkpt lat="44.89375" lon="9.53419"><ele>372.42857142857144</ele><time>2026-04-26T09:45:12.933Z</time></trkpt><trkpt lat="44.8937517" lon="9.5342833"><ele>372.2857142857143</ele><time>2026-04-26T09:45:13.933Z</time></trkpt><trkpt lat="44.893745" lon="9.5343733"><ele>372.14285714285717</ele><time>2026-04-26T09:45:14.937Z</time></trkpt><trkpt lat="44.8937383" lon="9.534465"><ele>372.0</ele><time>2026-04-26T09:45:15.933Z</time></trkpt><trkpt lat="44.8937483" lon="9.5346367"><ele>372.0</ele><time>2026-04-26T09:45:17.938Z</time></trkpt><trkpt lat="44.8937983" lon="9.5347717"><ele>372.0</ele><time>2026-04-26T09:45:19.935Z</time></trkpt><trkpt lat="44.8939117" lon="9.5348083"><ele>372.0</ele><time>2026-04-26T09:45:21.939Z</time></trkpt><trkpt lat="44.8940217" lon="9.5347867"><ele>372.0</ele><time>2026-04-26T09:45:23.934Z</time></trkpt><trkpt lat="44.89413" lon="9.5347317"><ele>372.0</ele><time>2026-04-26T09:45:25.934Z</time></trkpt><trkpt lat="44.89419" lon="9.5346817"><ele>372.0</ele><time>2026-04-26T09:45:26.936Z</time></trkpt><trkpt lat="44.8942517" lon="9.534615"><ele>372.0</ele><time>2026-04-26T09:45:27.934Z</time></trkpt><trkpt lat="44.8943167" lon="9.534545"><ele>372.0</ele><time>2026-04-26T09:45:28.934Z</time></trkpt><trkpt lat="44.8943817" lon="9.53448"><ele>372.0</ele><time>2026-04-26T09:45:29.934Z</time></trkpt><trkpt lat="44.8944467" lon="9.5344183"><ele>372.0</ele><time>2026-04-26T09:45:30.934Z</time></trkpt><trkpt lat="44.894515" lon="9.5343683"><ele>375.8333333333333</ele><time>2026-04-26T09:45:31.934Z</time></trkpt><trkpt lat="44.8945883" lon="9.53433"><ele>379.66666666666663</ele><time>2026-04-26T09:45:32.936Z</time></trkpt><trkpt lat="44.8946667" lon="9.5343083"><ele>383.5</ele><time>2026-04-26T09:45:33.94Z</time></trkpt><trkpt lat="44.894745" lon="9.5343067"><ele>387.3333333333333</ele><time>2026-04-26T09:45:34.936Z</time></trkpt><trkpt lat="44.8948183" lon="9.5343317"><ele>391.16666666666663</ele><time>2026-04-26T09:45:35.936Z</time></trkpt><trkpt lat="44.89488" lon="9.5343783"><ele>395.0</ele><time>2026-04-26T09:45:36.936Z</time></trkpt><trkpt lat="44.8949317" lon="9.534445"><ele>394.99999999999994</ele><time>2026-04-26T09:45:37.934Z</time></trkpt><trkpt lat="44.8949767" lon="9.534525"><ele>395.0</ele><time>2026-04-26T09:45:38.935Z</time></trkpt><trkpt lat="44.8950117" lon="9.5346267"><ele>395.0</ele><time>2026-04-26T09:45:39.936Z</time></trkpt><trkpt lat="44.8950367" lon="9.5347483"><ele>395.0</ele><time>2026-04-26T09:45:40.934Z</time></trkpt><trkpt lat="44.8950533" lon="9.53488"><ele>394.99999999999994</ele><time>2026-04-26T09:45:41.935Z</time></trkpt><trkpt lat="44.8950633" lon="9.53503"><ele>395.0</ele><time>2026-04-26T09:45:42.934Z</time></trkpt><trkpt lat="44.8950667" lon="9.5351883"><ele>393.6</ele><time>2026-04-26T09:45:43.936Z</time></trkpt><trkpt lat="44.895065" lon="9.5353483"><ele>392.2</ele><time>2026-04-26T09:45:44.944Z</time></trkpt><trkpt lat="44.8950817" lon="9.5354983"><ele>390.79999999999995</ele><time>2026-04-26T09:45:45.933Z</time></trkpt><trkpt lat="44.895105" lon="9.5356483"><ele>389.4</ele><time>2026-04-26T09:45:46.933Z</time></trkpt><trkpt lat="44.8951317" lon="9.5358"><ele>388.0</ele><time>2026-04-26T09:45:47.934Z</time></trkpt><trkpt lat="44.8951533" lon="9.53596"><ele>392.25</ele><time>2026-04-26T09:45:48.936Z</time></trkpt><trkpt lat="44.8951817" lon="9.5361267"><ele>396.5</ele><time>2026-04-26T09:45:49.935Z</time></trkpt><trkpt lat="44.89521" lon="9.5362933"><ele>400.75</ele><time>2026-04-26T09:45:50.934Z</time></trkpt><trkpt lat="44.8952333" lon="9.53646"><ele>405.0</ele><time>2026-04-26T09:45:51.936Z</time></trkpt><trkpt lat="44.895255" lon="9.5366283"><ele>405.0</ele><time>2026-04-26T09:45:52.934Z</time></trkpt><trkpt lat="44.8952733" lon="9.5367783"><ele>405.0</ele><time>2026-04-26T09:45:53.934Z</time></trkpt><trkpt lat="44.8952967" lon="9.536905"><ele>405.0</ele><time>2026-04-26T09:45:54.934Z</time></trkpt><trkpt lat="44.8953283" lon="9.5370067"><ele>405.0</ele><time>2026-04-26T09:45:55.934Z</time></trkpt><trkpt lat="44.8953733" lon="9.5370933"><ele>405.0</ele><time>2026-04-26T09:45:56.938Z</time></trkpt><trkpt lat="44.8954367" lon="9.53717"><ele>405.0</ele><time>2026-04-26T09:45:57.935Z</time></trkpt><trkpt lat="44.8955233" lon="9.5372383"><ele>406.2</ele><time>2026-04-26T09:45:58.935Z</time></trkpt><trkpt lat="44.895645" lon="9.537285"><ele>407.4</ele><time>2026-04-26T09:45:59.938Z</time></trkpt><trkpt lat="44.8957517" lon="9.5373283"><ele>408.6</ele><time>2026-04-26T09:46:00.935Z</time></trkpt><trkpt lat="44.895835" lon="9.537375"><ele>409.8</ele><time>2026-04-26T09:46:01.938Z</time></trkpt><trkpt lat="44.8959033" lon="9.5374317"><ele>411.0</ele><time>2026-04-26T09:46:02.934Z</time></trkpt><trkpt lat="44.8959533" lon="9.5374967"><ele>411.0</ele><time>2026-04-26T09:46:03.933Z</time></trkpt><trkpt lat="44.8959333" lon="9.5376517"><ele>411.0</ele><time>2026-04-26T09:46:05.937Z</time></trkpt><trkpt lat="44.8959283" lon="9.5377733"><ele>411.0</ele><time>2026-04-26T09:46:06.936Z</time></trkpt><trkpt lat="44.8959117" lon="9.5378767"><ele>411.0</ele><time>2026-04-26T09:46:07.937Z</time></trkpt><trkpt lat="44.8958867" lon="9.5379933"><ele>411.0</ele><time>2026-04-26T09:46:08.936Z</time></trkpt><trkpt lat="44.89585" lon="9.5381"><ele>411.0</ele><time>2026-04-26T09:46:09.937Z</time></trkpt><trkpt lat="44.8957983" lon="9.5382"><ele>409.20000000000005</ele><time>2026-04-26T09:46:10.933Z</time></trkpt><trkpt lat="44.8957383" lon="9.538315"><ele>407.40000000000003</ele><time>2026-04-26T09:46:11.936Z</time></trkpt><trkpt lat="44.8956633" lon="9.5384233"><ele>405.6</ele><time>2026-04-26T09:46:12.936Z</time></trkpt><trkpt lat="44.8955767" lon="9.538515"><ele>403.8</ele><time>2026-04-26T09:46:13.934Z</time></trkpt><trkpt lat="44.8954933" lon="9.538585"><ele>402.0</ele><time>2026-04-26T09:46:14.941Z</time></trkpt><trkpt lat="44.895415" lon="9.5386583"><ele>403.6666666666667</ele><time>2026-04-26T09:46:15.936Z</time></trkpt><trkpt lat="44.89536" lon="9.5387517"><ele>405.33333333333337</ele><time>2026-04-26T09:46:16.937Z</time></trkpt><trkpt lat="44.8953317" lon="9.5388533"><ele>407.0</ele><time>2026-04-26T09:46:17.937Z</time></trkpt><trkpt lat="44.89532" lon="9.538965"><ele>408.6666666666667</ele><time>2026-04-26T09:46:18.937Z</time></trkpt><trkpt lat="44.8953383" lon="9.539095"><ele>410.33333333333337</ele><time>2026-04-26T09:46:19.937Z</time></trkpt><trkpt lat="44.8953733" lon="9.5392267"><ele>412.0</ele><time>2026-04-26T09:46:20.937Z</time></trkpt><trkpt lat="44.8954183" lon="9.5393617"><ele>412.0</ele><time>2026-04-26T09:46:21.935Z</time></trkpt><trkpt lat="44.8954767" lon="9.5394917"><ele>412.0</ele><time>2026-04-26T09:46:22.938Z</time></trkpt><trkpt lat="44.895545" lon="9.5396217"><ele>412.0</ele><time>2026-04-26T09:46:23.937Z</time></trkpt><trkpt lat="44.8956138" lon="9.5397316"><ele>412.0</ele><time>2026-04-26T09:46:24.935Z</time></trkpt><trkpt lat="44.8956805" lon="9.5398322"><ele>412.0</ele><time>2026-04-26T09:46:25.933Z</time></trkpt><trkpt lat="44.895734" lon="9.5399318"><ele>411.6</ele><time>2026-04-26T09:46:26.934Z</time></trkpt><trkpt lat="44.8957712" lon="9.5400364"><ele>411.20000000000005</ele><time>2026-04-26T09:46:27.933Z</time></trkpt><trkpt lat="44.8957905" lon="9.5401395"><ele>410.8</ele><time>2026-04-26T09:46:28.933Z</time></trkpt><trkpt lat="44.8957932" lon="9.5402585"><ele>410.4</ele><time>2026-04-26T09:46:29.933Z</time></trkpt><trkpt lat="44.8957479" lon="9.5404081"><ele>410.0</ele><time>2026-04-26T09:46:30.937Z</time></trkpt><trkpt lat="44.8957004" lon="9.5405672"><ele>409.75</ele><time>2026-04-26T09:46:31.935Z</time></trkpt><trkpt lat="44.8956623" lon="9.5407297"><ele>409.5</ele><time>2026-04-26T09:46:32.938Z</time></trkpt><trkpt lat="44.895637" lon="9.5408952"><ele>409.25</ele><time>2026-04-26T09:46:33.935Z</time></trkpt><trkpt lat="44.895622" lon="9.5410631"><ele>409.0</ele><time>2026-04-26T09:46:34.936Z</time></trkpt><trkpt lat="44.8956132" lon="9.5412302"><ele>409.6</ele><time>2026-04-26T09:46:35.934Z</time></trkpt><trkpt lat="44.8955967" lon="9.5413877"><ele>410.2</ele><time>2026-04-26T09:46:36.934Z</time></trkpt><trkpt lat="44.8955666" lon="9.5415322"><ele>410.8</ele><time>2026-04-26T09:46:37.933Z</time></trkpt><trkpt lat="44.8955259" lon="9.5416701"><ele>411.40000000000003</ele><time>2026-04-26T09:46:38.936Z</time></trkpt><trkpt lat="44.8954774" lon="9.5418022"><ele>412.0</ele><time>2026-04-26T09:46:39.935Z</time></trkpt><trkpt lat="44.89542" lon="9.5419306"><ele>412.00000000000006</ele><time>2026-04-26T09:46:40.935Z</time></trkpt><trkpt lat="44.8953692" lon="9.5420474"><ele>412.0</ele><time>2026-04-26T09:46:41.934Z</time></trkpt><trkpt lat="44.8953455" lon="9.5421475"><ele>412.0</ele><time>2026-04-26T09:46:42.936Z</time></trkpt><trkpt lat="44.8953538" lon="9.5422366"><ele>412.0</ele><time>2026-04-26T09:46:43.933Z</time></trkpt><trkpt lat="44.8954066" lon="9.5423037"><ele>412.00000000000006</ele><time>2026-04-26T09:46:44.941Z</time></trkpt><trkpt lat="44.8954854" lon="9.5423697"><ele>412.0</ele><time>2026-04-26T09:46:45.934Z</time></trkpt><trkpt lat="44.8955808" lon="9.5424448"><ele>414.25</ele><time>2026-04-26T09:46:46.933Z</time></trkpt><trkpt lat="44.8956822" lon="9.5425258"><ele>416.5</ele><time>2026-04-26T09:46:47.936Z</time></trkpt><trkpt lat="44.895789" lon="9.5426146"><ele>418.75</ele><time>2026-04-26T09:46:48.936Z</time></trkpt><trkpt lat="44.8958895" lon="9.5426929"><ele>421.0</ele><time>2026-04-26T09:46:49.935Z</time></trkpt><trkpt lat="44.895984" lon="9.5427376"><ele>423.20000000000005</ele><time>2026-04-26T09:46:50.937Z</time></trkpt><trkpt lat="44.8960811" lon="9.5427608"><ele>425.40000000000003</ele><time>2026-04-26T09:46:51.936Z</time></trkpt><trkpt lat="44.8961795" lon="9.5427727"><ele>427.6</ele><time>2026-04-26T09:46:52.936Z</time></trkpt><trkpt lat="44.8962859" lon="9.542763"><ele>429.8</ele><time>2026-04-26T09:46:53.938Z</time></trkpt><trkpt lat="44.8963958" lon="9.5427328"><ele>432.0</ele><time>2026-04-26T09:46:54.935Z</time></trkpt><trkpt lat="44.8964994" lon="9.5426898"><ele>432.0</ele><time>2026-04-26T09:46:55.935Z</time></trkpt><trkpt lat="44.8965956" lon="9.5426497"><ele>432.00000000000006</ele><time>2026-04-26T09:46:56.935Z</time></trkpt><trkpt lat="44.8966821" lon="9.542631"><ele>432.00000000000006</ele><time>2026-04-26T09:46:57.936Z</time></trkpt><trkpt lat="44.8967677" lon="9.5426412"><ele>432.0</ele><time>2026-04-26T09:46:58.942Z</time></trkpt><trkpt lat="44.896863" lon="9.5426803"><ele>432.0</ele><time>2026-04-26T09:46:59.937Z</time></trkpt><trkpt lat="44.8969618" lon="9.5427293"><ele>433.8</ele><time>2026-04-26T09:47:00.936Z</time></trkpt><trkpt lat="44.8970599" lon="9.5427661"><ele>435.6</ele><time>2026-04-26T09:47:01.936Z</time></trkpt><trkpt lat="44.8971602" lon="9.542794"><ele>437.40000000000003</ele><time>2026-04-26T09:47:02.937Z</time></trkpt><trkpt lat="44.8972645" lon="9.5428234"><ele>439.20000000000005</ele><time>2026-04-26T09:47:03.937Z</time></trkpt><trkpt lat="44.8973671" lon="9.542856"><ele>441.0</ele><time>2026-04-26T09:47:04.937Z</time></trkpt><trkpt lat="44.897471" lon="9.5428989"><ele>443.0</ele><time>2026-04-26T09:47:05.937Z</time></trkpt><trkpt lat="44.8975783" lon="9.5429362"><ele>445.0</ele><time>2026-04-26T09:47:06.936Z</time></trkpt><trkpt lat="44.8976893" lon="9.5429589"><ele>447.0</ele><time>2026-04-26T09:47:07.936Z</time></trkpt><trkpt lat="44.8978011" lon="9.5429637"><ele>449.0</ele><time>2026-04-26T09:47:08.937Z</time></trkpt><trkpt lat="44.8979057" lon="9.542948"><ele>451.0</ele><time>2026-04-26T09:47:09.937Z</time></trkpt><trkpt lat="44.8980082" lon="9.5429167"><ele>452.0</ele><time>2026-04-26T09:47:10.937Z</time></trkpt><trkpt lat="44.8981086" lon="9.5428751"><ele>453.0</ele><time>2026-04-26T09:47:11.939Z</time></trkpt><trkpt lat="44.8982087" lon="9.5428193"><ele>454.0</ele><time>2026-04-26T09:47:12.936Z</time></trkpt><trkpt lat="44.8983109" lon="9.5427642"><ele>455.0</ele><time>2026-04-26T09:47:13.937Z</time></trkpt><trkpt lat="44.8984119" lon="9.5427123"><ele>456.0</ele><time>2026-04-26T09:47:14.937Z</time></trkpt><trkpt lat="44.8984873" lon="9.5426466"><ele>458.5</ele><time>2026-04-26T09:47:15.934Z</time></trkpt><trkpt lat="44.8985418" lon="9.5425632"><ele>461.0</ele><time>2026-04-26T09:47:16.936Z</time></trkpt><trkpt lat="44.89858" lon="9.5424712"><ele>463.5</ele><time>2026-04-26T09:47:17.934Z</time></trkpt><trkpt lat="44.8986137" lon="9.5423837"><ele>466.0</ele><time>2026-04-26T09:47:18.935Z</time></trkpt><trkpt lat="44.8986872" lon="9.5423137"><ele>468.5</ele><time>2026-04-26T09:47:20.941Z</time></trkpt><trkpt lat="44.8987633" lon="9.5423744"><ele>471.0</ele><time>2026-04-26T09:47:22.933Z</time></trkpt><trkpt lat="44.8988063" lon="9.5424815"><ele>471.0</ele><time>2026-04-26T09:47:23.935Z</time></trkpt><trkpt lat="44.8988458" lon="9.5426058"><ele>471.0</ele><time>2026-04-26T09:47:24.934Z</time></trkpt><trkpt lat="44.8988856" lon="9.5427428"><ele>471.0</ele><time>2026-04-26T09:47:25.934Z</time></trkpt><trkpt lat="44.8989161" lon="9.5428822"><ele>471.0</ele><time>2026-04-26T09:47:26.934Z</time></trkpt><trkpt lat="44.8989339" lon="9.5430262"><ele>471.0</ele><time>2026-04-26T09:47:27.936Z</time></trkpt><trkpt lat="44.8989565" lon="9.5431769"><ele>471.4</ele><time>2026-04-26T09:47:28.935Z</time></trkpt><trkpt lat="44.898986" lon="9.5433216"><ele>471.8</ele><time>2026-04-26T09:47:29.941Z</time></trkpt><trkpt lat="44.8989998" lon="9.5434713"><ele>472.19999999999993</ele><time>2026-04-26T09:47:30.934Z</time></trkpt><trkpt lat="44.8989947" lon="9.5436251"><ele>472.59999999999997</ele><time>2026-04-26T09:47:31.934Z</time></trkpt><trkpt lat="44.8989847" lon="9.5437766"><ele>473.0</ele><time>2026-04-26T09:47:32.934Z</time></trkpt><trkpt lat="44.8989857" lon="9.543919"><ele>474.0</ele><time>2026-04-26T09:47:33.936Z</time></trkpt><trkpt lat="44.8990008" lon="9.5440579"><ele>474.99999999999994</ele><time>2026-04-26T09:47:34.934Z</time></trkpt><trkpt lat="44.8990232" lon="9.5441969"><ele>475.99999999999994</ele><time>2026-04-26T09:47:35.937Z</time></trkpt><trkpt lat="44.8990549" lon="9.5443222"><ele>477.0</ele><time>2026-04-26T09:47:36.935Z</time></trkpt><trkpt lat="44.8990953" lon="9.544428"><ele>478.0</ele><time>2026-04-26T09:47:37.937Z</time></trkpt><trkpt lat="44.8991453" lon="9.5445126"><ele>477.59999999999997</ele><time>2026-04-26T09:47:38.936Z</time></trkpt><trkpt lat="44.8992181" lon="9.5445703"><ele>477.19999999999993</ele><time>2026-04-26T09:47:39.935Z</time></trkpt><trkpt lat="44.8993059" lon="9.5446194"><ele>476.8</ele><time>2026-04-26T09:47:40.94Z</time></trkpt><trkpt lat="44.8994002" lon="9.5446811"><ele>476.4</ele><time>2026-04-26T09:47:41.935Z</time></trkpt><trkpt lat="44.899502" lon="9.5447563"><ele>476.0</ele><time>2026-04-26T09:47:42.934Z</time></trkpt><trkpt lat="44.899605" lon="9.5448349"><ele>477.5</ele><time>2026-04-26T09:47:43.935Z</time></trkpt><trkpt lat="44.8997141" lon="9.5449056"><ele>479.0</ele><time>2026-04-26T09:47:45.012Z</time></trkpt><trkpt lat="44.8998249" lon="9.5449598"><ele>480.5</ele><time>2026-04-26T09:47:45.935Z</time></trkpt><trkpt lat="44.8999489" lon="9.5450075"><ele>482.0</ele><time>2026-04-26T09:47:46.939Z</time></trkpt><trkpt lat="44.9000803" lon="9.5450415"><ele>483.0</ele><time>2026-04-26T09:47:47.937Z</time></trkpt><trkpt lat="44.9002063" lon="9.5450624"><ele>484.0</ele><time>2026-04-26T09:47:48.937Z</time></trkpt><trkpt lat="44.9003242" lon="9.5450679"><ele>485.0</ele><time>2026-04-26T09:47:49.937Z</time></trkpt><trkpt lat="44.9004433" lon="9.5450674"><ele>486.0</ele><time>2026-04-26T09:47:50.936Z</time></trkpt><trkpt lat="44.9005652" lon="9.5450718"><ele>486.0</ele><time>2026-04-26T09:47:51.939Z</time></trkpt><trkpt lat="44.900688" lon="9.5450805"><ele>486.0</ele><time>2026-04-26T09:47:52.935Z</time></trkpt><trkpt lat="44.9008093" lon="9.5450889"><ele>486.0</ele><time>2026-04-26T09:47:53.935Z</time></trkpt><trkpt lat="44.9009196" lon="9.5450968"><ele>486.0</ele><time>2026-04-26T09:47:54.936Z</time></trkpt><trkpt lat="44.9010249" lon="9.5451021"><ele>485.3333333333333</ele><time>2026-04-26T09:47:55.935Z</time></trkpt><trkpt lat="44.9011292" lon="9.5451058"><ele>484.66666666666663</ele><time>2026-04-26T09:47:56.935Z</time></trkpt><trkpt lat="44.9012281" lon="9.5451145"><ele>484.0</ele><time>2026-04-26T09:47:57.936Z</time></trkpt><trkpt lat="44.9013163" lon="9.5451305"><ele>483.3333333333333</ele><time>2026-04-26T09:47:58.94Z</time></trkpt><trkpt lat="44.9013937" lon="9.5451604"><ele>482.66666666666663</ele><time>2026-04-26T09:47:59.935Z</time></trkpt><trkpt lat="44.9014605" lon="9.5452063"><ele>482.0</ele><time>2026-04-26T09:48:00.936Z</time></trkpt><trkpt lat="44.90151" lon="9.5452783"><ele>482.0</ele><time>2026-04-26T09:48:01.936Z</time></trkpt><trkpt lat="44.901545" lon="9.545375"><ele>482.00000000000006</ele><time>2026-04-26T09:48:02.934Z</time></trkpt><trkpt lat="44.901565" lon="9.5455"><ele>482.00000000000006</ele><time>2026-04-26T09:48:03.938Z</time></trkpt><trkpt lat="44.9015633" lon="9.5456317"><ele>482.0</ele><time>2026-04-26T09:48:04.935Z</time></trkpt><trkpt lat="44.90156" lon="9.54578"><ele>482.0</ele><time>2026-04-26T09:48:05.935Z</time></trkpt><trkpt lat="44.90153" lon="9.545945"><ele>481.75</ele><time>2026-04-26T09:48:06.935Z</time></trkpt><trkpt lat="44.9014817" lon="9.54612"><ele>481.5</ele><time>2026-04-26T09:48:07.934Z</time></trkpt><trkpt lat="44.9014267" lon="9.546305"><ele>481.25</ele><time>2026-04-26T09:48:08.94Z</time></trkpt><trkpt lat="44.901375" lon="9.5464833"><ele>481.0</ele><time>2026-04-26T09:48:09.935Z</time></trkpt><trkpt lat="44.9013383" lon="9.54664"><ele>481.0</ele><time>2026-04-26T09:48:10.935Z</time></trkpt><trkpt lat="44.90132" lon="9.54679"><ele>481.0</ele><time>2026-04-26T09:48:11.934Z</time></trkpt><trkpt lat="44.9013117" lon="9.5469417"><ele>481.0</ele><time>2026-04-26T09:48:12.934Z</time></trkpt><trkpt lat="44.90131" lon="9.5470983"><ele>481.0</ele><time>2026-04-26T09:48:13.934Z</time></trkpt><trkpt lat="44.9013033" lon="9.5472533"><ele>481.0</ele><time>2026-04-26T09:48:14.934Z</time></trkpt><trkpt lat="44.90129" lon="9.54741"><ele>482.6</ele><time>2026-04-26T09:48:15.939Z</time></trkpt><trkpt lat="44.9012467" lon="9.5475583"><ele>484.20000000000005</ele><time>2026-04-26T09:48:16.934Z</time></trkpt><trkpt lat="44.9012017" lon="9.5477033"><ele>485.79999999999995</ele><time>2026-04-26T09:48:17.935Z</time></trkpt><trkpt lat="44.9011617" lon="9.5478467"><ele>487.4</ele><time>2026-04-26T09:48:18.937Z</time></trkpt><trkpt lat="44.901135" lon="9.5479967"><ele>489.0</ele><time>2026-04-26T09:48:19.936Z</time></trkpt><trkpt lat="44.9011167" lon="9.5481517"><ele>490.6</ele><time>2026-04-26T09:48:20.939Z</time></trkpt><trkpt lat="44.9011033" lon="9.5483067"><ele>492.2</ele><time>2026-04-26T09:48:21.937Z</time></trkpt><trkpt lat="44.901085" lon="9.5484683"><ele>493.80000000000007</ele><time>2026-04-26T09:48:22.934Z</time></trkpt><trkpt lat="44.9010633" lon="9.5486267"><ele>495.40000000000003</ele><time>2026-04-26T09:48:23.938Z</time></trkpt><trkpt lat="44.9010483" lon="9.5487717"><ele>497.0</ele><time>2026-04-26T09:48:24.938Z</time></trkpt><trkpt lat="44.9010383" lon="9.5489017"><ele>496.99999999999994</ele><time>2026-04-26T09:48:25.934Z</time></trkpt><trkpt lat="44.9010283" lon="9.5490183"><ele>497.0</ele><time>2026-04-26T09:48:26.943Z</time></trkpt><trkpt lat="44.90102" lon="9.549125"><ele>497.0</ele><time>2026-04-26T09:48:27.935Z</time></trkpt><trkpt lat="44.90103" lon="9.5492133"><ele>497.0</ele><time>2026-04-26T09:48:28.934Z</time></trkpt><trkpt lat="44.9010967" lon="9.549355"><ele>496.99999999999994</ele><time>2026-04-26T09:48:30.938Z</time></trkpt><trkpt lat="44.901175" lon="9.5493833"><ele>497.0</ele><time>2026-04-26T09:48:31.935Z</time></trkpt><trkpt lat="44.9012667" lon="9.549395"><ele>497.0</ele><time>2026-04-26T09:48:32.936Z</time></trkpt><trkpt lat="44.9013583" lon="9.5493817"><ele>497.00000000000006</ele><time>2026-04-26T09:48:33.936Z</time></trkpt><trkpt lat="44.90145" lon="9.5493467"><ele>497.00000000000006</ele><time>2026-04-26T09:48:34.938Z</time></trkpt><trkpt lat="44.90153" lon="9.5492467"><ele>497.0</ele><time>2026-04-26T09:48:35.935Z</time></trkpt><trkpt lat="44.9016133" lon="9.5491217"><ele>497.0</ele><time>2026-04-26T09:48:36.942Z</time></trkpt><trkpt lat="44.9017017" lon="9.548995"><ele>498.5</ele><time>2026-04-26T09:48:37.936Z</time></trkpt><trkpt lat="44.9017917" lon="9.548875"><ele>500.0</ele><time>2026-04-26T09:48:38.936Z</time></trkpt><trkpt lat="44.90189" lon="9.5487667"><ele>501.5</ele><time>2026-04-26T09:48:39.936Z</time></trkpt><trkpt lat="44.9019917" lon="9.5486833"><ele>503.0</ele><time>2026-04-26T09:48:40.934Z</time></trkpt><trkpt lat="44.9020967" lon="9.5486267"><ele>503.75</ele><time>2026-04-26T09:48:41.934Z</time></trkpt><trkpt lat="44.9022067" lon="9.5485883"><ele>504.5</ele><time>2026-04-26T09:48:42.94Z</time></trkpt><trkpt lat="44.9023233" lon="9.54856"><ele>505.25</ele><time>2026-04-26T09:48:43.935Z</time></trkpt><trkpt lat="44.902445" lon="9.548535"><ele>506.0</ele><time>2026-04-26T09:48:44.936Z</time></trkpt><trkpt lat="44.9025633" lon="9.54853"><ele>508.0</ele><time>2026-04-26T09:48:45.936Z</time></trkpt><trkpt lat="44.90268" lon="9.5485533"><ele>510.0</ele><time>2026-04-26T09:48:46.933Z</time></trkpt><trkpt lat="44.9027967" lon="9.5486"><ele>512.0</ele><time>2026-04-26T09:48:47.937Z</time></trkpt><trkpt lat="44.90291" lon="9.5486433"><ele>514.0</ele><time>2026-04-26T09:48:48.936Z</time></trkpt><trkpt lat="44.903015" lon="9.5486617"><ele>514.0</ele><time>2026-04-26T09:48:49.94Z</time></trkpt><trkpt lat="44.903125" lon="9.548645"><ele>514.0</ele><time>2026-04-26T09:48:50.938Z</time></trkpt><trkpt lat="44.90324" lon="9.548605"><ele>514.0</ele><time>2026-04-26T09:48:51.936Z</time></trkpt><trkpt lat="44.9033433" lon="9.548565"><ele>514.0</ele><time>2026-04-26T09:48:52.937Z</time></trkpt><trkpt lat="44.9034183" lon="9.5485367"><ele>514.0</ele><time>2026-04-26T09:48:53.937Z</time></trkpt><trkpt lat="44.9034933" lon="9.5485417"><ele>515.6666666666667</ele><time>2026-04-26T09:48:54.941Z</time></trkpt><trkpt lat="44.90353" lon="9.548645"><ele>517.3333333333334</ele><time>2026-04-26T09:48:56.935Z</time></trkpt><trkpt lat="44.903525" lon="9.548735"><ele>519.0</ele><time>2026-04-26T09:48:57.935Z</time></trkpt><trkpt lat="44.9035117" lon="9.5488517"><ele>520.6666666666666</ele><time>2026-04-26T09:48:58.934Z</time></trkpt><trkpt lat="44.9035167" lon="9.54895"><ele>522.3333333333333</ele><time>2026-04-26T09:48:59.935Z</time></trkpt><trkpt lat="44.903565" lon="9.5490517"><ele>524.0</ele><time>2026-04-26T09:49:00.938Z</time></trkpt><trkpt lat="44.9036467" lon="9.5491517"><ele>525.4</ele><time>2026-04-26T09:49:01.936Z</time></trkpt><trkpt lat="44.9037317" lon="9.549255"><ele>526.8</ele><time>2026-04-26T09:49:02.934Z</time></trkpt><trkpt lat="44.903815" lon="9.5493517"><ele>528.2</ele><time>2026-04-26T09:49:03.935Z</time></trkpt><trkpt lat="44.9038983" lon="9.549415"><ele>529.6</ele><time>2026-04-26T09:49:04.935Z</time></trkpt><trkpt lat="44.90399" lon="9.5494467"><ele>531.0</ele><time>2026-04-26T09:49:05.935Z</time></trkpt><trkpt lat="44.9040783" lon="9.5494667"><ele>531.0</ele><time>2026-04-26T09:49:06.939Z</time></trkpt><trkpt lat="44.904165" lon="9.5495017"><ele>531.0</ele><time>2026-04-26T09:49:07.934Z</time></trkpt><trkpt lat="44.90424" lon="9.549565"><ele>531.0</ele><time>2026-04-26T09:49:08.935Z</time></trkpt><trkpt lat="44.9043117" lon="9.5496333"><ele>531.0</ele><time>2026-04-26T09:49:09.934Z</time></trkpt><trkpt lat="44.90437" lon="9.5496867"><ele>531.0</ele><time>2026-04-26T09:49:10.935Z</time></trkpt><trkpt lat="44.90447" lon="9.5497583"><ele>531.0</ele><time>2026-04-26T09:49:12.938Z</time></trkpt><trkpt lat="44.9045617" lon="9.5497567"><ele>530.4</ele><time>2026-04-26T09:49:14.942Z</time></trkpt><trkpt lat="44.9046633" lon="9.549695"><ele>529.8</ele><time>2026-04-26T09:49:16.934Z</time></trkpt><trkpt lat="44.90465" lon="9.5497933"><ele>529.1999999999999</ele><time>2026-04-26T09:49:22.936Z</time></trkpt><trkpt lat="44.904575" lon="9.5498933"><ele>528.6</ele><time>2026-04-26T09:49:24.937Z</time></trkpt><trkpt lat="44.9045333" lon="9.5500183"><ele>528.0</ele><time>2026-04-26T09:49:26.936Z</time></trkpt><trkpt lat="44.9044867" lon="9.5501517"><ele>528.0</ele><time>2026-04-26T09:49:28.937Z</time></trkpt><trkpt lat="44.904445" lon="9.550295"><ele>528.0</ele><time>2026-04-26T09:49:30.937Z</time></trkpt><trkpt lat="44.9044" lon="9.5504233"><ele>528.0</ele><time>2026-04-26T09:49:32.937Z</time></trkpt><trkpt lat="44.9043483" lon="9.55055"><ele>528.0</ele><time>2026-04-26T09:49:34.935Z</time></trkpt><trkpt lat="44.90429" lon="9.5506683"><ele>528.0</ele><time>2026-04-26T09:49:36.935Z</time></trkpt><trkpt lat="44.9042383" lon="9.550775"><ele>526.3333333333334</ele><time>2026-04-26T09:49:38.935Z</time></trkpt><trkpt lat="44.9041983" lon="9.5508583"><ele>524.6666666666666</ele><time>2026-04-26T09:49:40.936Z</time></trkpt><trkpt lat="44.9041733" lon="9.550985"><ele>523.0</ele><time>2026-04-26T09:49:43.934Z</time></trkpt><trkpt lat="44.904155" lon="9.5511117"><ele>521.3333333333333</ele><time>2026-04-26T09:49:46.935Z</time></trkpt><trkpt lat="44.9041267" lon="9.5512433"><ele>519.6666666666666</ele><time>2026-04-26T09:49:48.936Z</time></trkpt><trkpt lat="44.9041067" lon="9.551335"><ele>518.0</ele><time>2026-04-26T09:49:49.936Z</time></trkpt><trkpt lat="44.90409" lon="9.551425"><ele>515.5</ele><time>2026-04-26T09:49:50.936Z</time></trkpt><trkpt lat="44.9040667" lon="9.5515867"><ele>513.0</ele><time>2026-04-26T09:49:52.938Z</time></trkpt><trkpt lat="44.904055" lon="9.5517617"><ele>510.5</ele><time>2026-04-26T09:49:54.936Z</time></trkpt><trkpt lat="44.9040433" lon="9.5519217"><ele>508.0</ele><time>2026-04-26T09:49:56.937Z</time></trkpt><trkpt lat="44.9040383" lon="9.5520667"><ele>506.1666666666667</ele><time>2026-04-26T09:49:58.935Z</time></trkpt><trkpt lat="44.90404" lon="9.55219"><ele>504.33333333333337</ele><time>2026-04-26T09:50:00.934Z</time></trkpt><trkpt lat="44.9040483" lon="9.5523133"><ele>502.5</ele><time>2026-04-26T09:50:03.935Z</time></trkpt><trkpt lat="44.9040733" lon="9.5524367"><ele>500.66666666666663</ele><time>2026-04-26T09:50:06.936Z</time></trkpt><trkpt lat="44.9041417" lon="9.5524917"><ele>498.8333333333333</ele><time>2026-04-26T09:50:09.934Z</time></trkpt><trkpt lat="44.90421" lon="9.5524867"><ele>497.0</ele><time>2026-04-26T09:50:11.933Z</time></trkpt><trkpt lat="44.9042933" lon="9.5525"><ele>492.8333333333333</ele><time>2026-04-26T09:50:13.933Z</time></trkpt><trkpt lat="44.9043667" lon="9.5525067"><ele>488.66666666666663</ele><time>2026-04-26T09:50:15.934Z</time></trkpt><trkpt lat="44.9044283" lon="9.552485"><ele>484.5</ele><time>2026-04-26T09:50:17.935Z</time></trkpt><trkpt lat="44.9044933" lon="9.55247"><ele>480.33333333333337</ele><time>2026-04-26T09:50:19.936Z</time></trkpt><trkpt lat="44.90457" lon="9.5525267"><ele>476.1666666666667</ele><time>2026-04-26T09:50:21.933Z</time></trkpt><trkpt lat="44.904595" lon="9.552675"><ele>472.0</ele><time>2026-04-26T09:50:23.933Z</time></trkpt><trkpt lat="44.9045817" lon="9.55277"><ele>470.00000000000006</ele><time>2026-04-26T09:50:24.935Z</time></trkpt><trkpt lat="44.9045617" lon="9.55288"><ele>468.0</ele><time>2026-04-26T09:50:25.934Z</time></trkpt><trkpt lat="44.90453" lon="9.55299"><ele>466.0</ele><time>2026-04-26T09:50:26.936Z</time></trkpt><trkpt lat="44.9044967" lon="9.5530883"><ele>464.0</ele><time>2026-04-26T09:50:27.937Z</time></trkpt><trkpt lat="44.9044667" lon="9.553175"><ele>462.00000000000006</ele><time>2026-04-26T09:50:28.936Z</time></trkpt><trkpt lat="44.9044333" lon="9.5533217"><ele>460.0</ele><time>2026-04-26T09:50:30.934Z</time></trkpt><trkpt lat="44.9044083" lon="9.553465"><ele>460.00000000000006</ele><time>2026-04-26T09:50:32.935Z</time></trkpt><trkpt lat="44.9043617" lon="9.5535983"><ele>460.0</ele><time>2026-04-26T09:50:34.936Z</time></trkpt><trkpt lat="44.904315" lon="9.5536617"><ele>460.0</ele><time>2026-04-26T09:50:35.934Z</time></trkpt><trkpt lat="44.904255" lon="9.553765"><ele>460.0</ele><time>2026-04-26T09:50:37.935Z</time></trkpt><trkpt lat="44.9042283" lon="9.5538883"><ele>460.00000000000006</ele><time>2026-04-26T09:50:39.933Z</time></trkpt><trkpt lat="44.9042483" lon="9.5540117"><ele>460.0</ele><time>2026-04-26T09:50:41.94Z</time></trkpt><trkpt lat="44.9042783" lon="9.5541333"><ele>457.6</ele><time>2026-04-26T09:50:43.935Z</time></trkpt><trkpt lat="44.904295" lon="9.5542767"><ele>455.2</ele><time>2026-04-26T09:50:45.934Z</time></trkpt><trkpt lat="44.9042867" lon="9.5544183"><ele>452.79999999999995</ele><time>2026-04-26T09:50:47.934Z</time></trkpt><trkpt lat="44.904275" lon="9.554535"><ele>450.4</ele><time>2026-04-26T09:50:49.936Z</time></trkpt><trkpt lat="44.9043783" lon="9.5544783"><ele>448.0</ele><time>2026-04-26T09:50:54.934Z</time></trkpt><trkpt lat="44.9044467" lon="9.554405"><ele>448.0</ele><time>2026-04-26T09:50:55.935Z</time></trkpt><trkpt lat="44.9045233" lon="9.554325"><ele>447.99999999999994</ele><time>2026-04-26T09:50:56.944Z</time></trkpt><trkpt lat="44.9046067" lon="9.5542317"><ele>447.99999999999994</ele><time>2026-04-26T09:50:57.934Z</time></trkpt><trkpt lat="44.9046883" lon="9.5541383"><ele>448.0</ele><time>2026-04-26T09:50:58.935Z</time></trkpt><trkpt lat="44.9047683" lon="9.554035"><ele>448.0</ele><time>2026-04-26T09:50:59.935Z</time></trkpt><trkpt lat="44.9048433" lon="9.553925"><ele>448.0</ele><time>2026-04-26T09:51:00.934Z</time></trkpt><trkpt lat="44.9049083" lon="9.55381"><ele>447.99999999999994</ele><time>2026-04-26T09:51:01.939Z</time></trkpt><trkpt lat="44.904975" lon="9.5536917"><ele>447.99999999999994</ele><time>2026-04-26T09:51:02.934Z</time></trkpt><trkpt lat="44.9050467" lon="9.553585"><ele>448.0</ele><time>2026-04-26T09:51:03.935Z</time></trkpt><trkpt lat="44.905125" lon="9.553515"><ele>448.0</ele><time>2026-04-26T09:51:04.933Z</time></trkpt><trkpt lat="44.90523" lon="9.553485"><ele>448.4</ele><time>2026-04-26T09:51:05.934Z</time></trkpt><trkpt lat="44.9053467" lon="9.553495"><ele>448.79999999999995</ele><time>2026-04-26T09:51:06.934Z</time></trkpt><trkpt lat="44.905455" lon="9.5535283"><ele>449.2</ele><time>2026-04-26T09:51:07.934Z</time></trkpt><trkpt lat="44.9055567" lon="9.5535617"><ele>449.6</ele><time>2026-04-26T09:51:08.944Z</time></trkpt><trkpt lat="44.90566" lon="9.553595"><ele>450.0</ele><time>2026-04-26T09:51:09.933Z</time></trkpt><trkpt lat="44.9057717" lon="9.5536317"><ele>450.0</ele><time>2026-04-26T09:51:10.934Z</time></trkpt><trkpt lat="44.9058783" lon="9.5536617"><ele>450.0</ele><time>2026-04-26T09:51:11.934Z</time></trkpt><trkpt lat="44.9059783" lon="9.5537033"><ele>450.0</ele><time>2026-04-26T09:51:12.935Z</time></trkpt><trkpt lat="44.906075" lon="9.55375"><ele>450.0</ele><time>2026-04-26T09:51:13.933Z</time></trkpt><trkpt lat="44.9061683" lon="9.5537883"><ele>450.0</ele><time>2026-04-26T09:51:14.934Z</time></trkpt><trkpt lat="44.9062617" lon="9.55383"><ele>448.0</ele><time>2026-04-26T09:51:15.933Z</time></trkpt><trkpt lat="44.9063467" lon="9.5539033"><ele>446.0</ele><time>2026-04-26T09:51:16.934Z</time></trkpt><trkpt lat="44.9064233" lon="9.5540133"><ele>444.0</ele><time>2026-04-26T09:51:17.939Z</time></trkpt><trkpt lat="44.9064983" lon="9.5541217"><ele>442.0</ele><time>2026-04-26T09:51:18.935Z</time></trkpt><trkpt lat="44.9065767" lon="9.5541933"><ele>440.0</ele><time>2026-04-26T09:51:19.935Z</time></trkpt><trkpt lat="44.9066733" lon="9.5542133"><ele>438.75</ele><time>2026-04-26T09:51:20.936Z</time></trkpt><trkpt lat="44.9067883" lon="9.5542"><ele>437.5</ele><time>2026-04-26T09:51:21.935Z</time></trkpt><trkpt lat="44.9069167" lon="9.55418"><ele>436.25</ele><time>2026-04-26T09:51:22.935Z</time></trkpt><trkpt lat="44.9070633" lon="9.55416"><ele>435.0</ele><time>2026-04-26T09:51:23.939Z</time></trkpt><trkpt lat="44.90722" lon="9.55414"><ele>435.0</ele><time>2026-04-26T09:51:24.935Z</time></trkpt><trkpt lat="44.90738" lon="9.5541167"><ele>435.0</ele><time>2026-04-26T09:51:25.937Z</time></trkpt><trkpt lat="44.9075267" lon="9.554095"><ele>435.0</ele><time>2026-04-26T09:51:26.936Z</time></trkpt><trkpt lat="44.9076517" lon="9.5540767"><ele>435.0</ele><time>2026-04-26T09:51:27.936Z</time></trkpt><trkpt lat="44.9077583" lon="9.55408"><ele>433.75</ele><time>2026-04-26T09:51:28.936Z</time></trkpt><trkpt lat="44.9078583" lon="9.5541283"><ele>432.5</ele><time>2026-04-26T09:51:29.936Z</time></trkpt><trkpt lat="44.9079417" lon="9.5542233"><ele>431.25</ele><time>2026-04-26T09:51:30.933Z</time></trkpt><trkpt lat="44.9080333" lon="9.55434"><ele>430.0</ele><time>2026-04-26T09:51:31.933Z</time></trkpt><trkpt lat="44.9081217" lon="9.5544717"><ele>427.25</ele><time>2026-04-26T09:51:32.935Z</time></trkpt><trkpt lat="44.9082083" lon="9.554595"><ele>424.5</ele><time>2026-04-26T09:51:33.934Z</time></trkpt><trkpt lat="44.908295" lon="9.55472"><ele>421.75</ele><time>2026-04-26T09:51:34.935Z</time></trkpt><trkpt lat="44.90838" lon="9.5548367"><ele>419.0</ele><time>2026-04-26T09:51:35.936Z</time></trkpt><trkpt lat="44.9084417" lon="9.5549483"><ele>417.6</ele><time>2026-04-26T09:51:36.936Z</time></trkpt><trkpt lat="44.90848" lon="9.555065"><ele>416.2</ele><time>2026-04-26T09:51:37.936Z</time></trkpt><trkpt lat="44.9084933" lon="9.55519"><ele>414.8</ele><time>2026-04-26T09:51:38.937Z</time></trkpt><trkpt lat="44.9084583" lon="9.55529"><ele>413.40000000000003</ele><time>2026-04-26T09:51:39.934Z</time></trkpt><trkpt lat="44.9083883" lon="9.5553717"><ele>412.0</ele><time>2026-04-26T09:51:40.935Z</time></trkpt><trkpt lat="44.9082933" lon="9.555425"><ele>411.25</ele><time>2026-04-26T09:51:41.933Z</time></trkpt><trkpt lat="44.9081683" lon="9.5554667"><ele>410.5</ele><time>2026-04-26T09:51:42.939Z</time></trkpt><trkpt lat="44.9080417" lon="9.55551"><ele>409.75</ele><time>2026-04-26T09:51:43.933Z</time></trkpt><trkpt lat="44.9079133" lon="9.55556"><ele>409.0</ele><time>2026-04-26T09:51:44.935Z</time></trkpt><trkpt lat="44.90777" lon="9.5556167"><ele>409.0</ele><time>2026-04-26T09:51:45.937Z</time></trkpt><trkpt lat="44.9076317" lon="9.5556783"><ele>409.0</ele><time>2026-04-26T09:51:46.934Z</time></trkpt><trkpt lat="44.9075033" lon="9.5557267"><ele>409.0</ele><time>2026-04-26T09:51:47.941Z</time></trkpt><trkpt lat="44.90739" lon="9.55577"><ele>409.0</ele><time>2026-04-26T09:51:48.935Z</time></trkpt><trkpt lat="44.9072967" lon="9.55584"><ele>409.6</ele><time>2026-04-26T09:51:49.936Z</time></trkpt><trkpt lat="44.9072367" lon="9.55594"><ele>410.2</ele><time>2026-04-26T09:51:50.934Z</time></trkpt><trkpt lat="44.907215" lon="9.5560633"><ele>410.8</ele><time>2026-04-26T09:51:51.935Z</time></trkpt><trkpt lat="44.9072317" lon="9.5561867"><ele>411.40000000000003</ele><time>2026-04-26T09:51:52.935Z</time></trkpt><trkpt lat="44.907275" lon="9.55629"><ele>412.0</ele><time>2026-04-26T09:51:53.938Z</time></trkpt><trkpt lat="44.9073783" lon="9.5563333"><ele>409.5</ele><time>2026-04-26T09:51:54.935Z</time></trkpt><trkpt lat="44.9074983" lon="9.5563533"><ele>407.0</ele><time>2026-04-26T09:51:55.934Z</time></trkpt><trkpt lat="44.90763" lon="9.5563667"><ele>404.5</ele><time>2026-04-26T09:51:56.935Z</time></trkpt><trkpt lat="44.9077733" lon="9.5563883"><ele>402.0</ele><time>2026-04-26T09:51:57.935Z</time></trkpt><trkpt lat="44.9079183" lon="9.556425"><ele>401.5</ele><time>2026-04-26T09:51:58.94Z</time></trkpt><trkpt lat="44.9080583" lon="9.5564767"><ele>401.0</ele><time>2026-04-26T09:51:59.935Z</time></trkpt><trkpt lat="44.9081917" lon="9.556535"><ele>400.5</ele><time>2026-04-26T09:52:00.934Z</time></trkpt><trkpt lat="44.908315" lon="9.55658"><ele>400.0</ele><time>2026-04-26T09:52:01.935Z</time></trkpt><trkpt lat="44.9084267" lon="9.55659"><ele>397.0</ele><time>2026-04-26T09:52:02.935Z</time></trkpt><trkpt lat="44.90853" lon="9.5565467"><ele>394.0</ele><time>2026-04-26T09:52:03.934Z</time></trkpt><trkpt lat="44.908625" lon="9.5564583"><ele>391.0</ele><time>2026-04-26T09:52:04.934Z</time></trkpt><trkpt lat="44.908725" lon="9.55635"><ele>388.0</ele><time>2026-04-26T09:52:05.941Z</time></trkpt><trkpt lat="44.9088417" lon="9.5562517"><ele>389.0</ele><time>2026-04-26T09:52:06.936Z</time></trkpt><trkpt lat="44.9089733" lon="9.5561733"><ele>390.0</ele><time>2026-04-26T09:52:07.934Z</time></trkpt><trkpt lat="44.90911" lon="9.556105"><ele>391.0</ele><time>2026-04-26T09:52:08.936Z</time></trkpt><trkpt lat="44.909245" lon="9.5560467"><ele>392.0</ele><time>2026-04-26T09:52:09.935Z</time></trkpt><trkpt lat="44.9093683" lon="9.5560067"><ele>391.99999999999994</ele><time>2026-04-26T09:52:10.934Z</time></trkpt><trkpt lat="44.9094683" lon="9.55599"><ele>392.0</ele><time>2026-04-26T09:52:11.934Z</time></trkpt><trkpt lat="44.909555" lon="9.556"><ele>392.0</ele><time>2026-04-26T09:52:12.936Z</time></trkpt><trkpt lat="44.9096283" lon="9.55604"><ele>392.0</ele><time>2026-04-26T09:52:13.934Z</time></trkpt><trkpt lat="44.9096567" lon="9.556125"><ele>391.99999999999994</ele><time>2026-04-26T09:52:14.935Z</time></trkpt><trkpt lat="44.90965" lon="9.556225"><ele>392.0</ele><time>2026-04-26T09:52:15.936Z</time></trkpt><trkpt lat="44.9096033" lon="9.556305"><ele>391.0</ele><time>2026-04-26T09:52:16.935Z</time></trkpt><trkpt lat="44.909515" lon="9.556355"><ele>390.0</ele><time>2026-04-26T09:52:17.933Z</time></trkpt><trkpt lat="44.909405" lon="9.556385"><ele>389.0</ele><time>2026-04-26T09:52:18.939Z</time></trkpt><trkpt lat="44.9093" lon="9.5564083"><ele>388.0</ele><time>2026-04-26T09:52:19.933Z</time></trkpt><trkpt lat="44.909165" lon="9.556455"><ele>388.0</ele><time>2026-04-26T09:52:20.934Z</time></trkpt><trkpt lat="44.9090583" lon="9.5565367"><ele>388.0</ele><time>2026-04-26T09:52:21.934Z</time></trkpt><trkpt lat="44.90898" lon="9.55666"><ele>388.0</ele><time>2026-04-26T09:52:22.934Z</time></trkpt><trkpt lat="44.9089133" lon="9.55682"><ele>388.0</ele><time>2026-04-26T09:52:23.935Z</time></trkpt><trkpt lat="44.9088667" lon="9.557005"><ele>385.0</ele><time>2026-04-26T09:52:24.934Z</time></trkpt><trkpt lat="44.9088383" lon="9.5572067"><ele>382.0</ele><time>2026-04-26T09:52:25.935Z</time></trkpt><trkpt lat="44.9088083" lon="9.5574183"><ele>379.0</ele><time>2026-04-26T09:52:26.934Z</time></trkpt><trkpt lat="44.9087717" lon="9.5576283"><ele>379.0</ele><time>2026-04-26T09:52:27.936Z</time></trkpt><trkpt lat="44.9087183" lon="9.5578233"><ele>379.0</ele><time>2026-04-26T09:52:28.934Z</time></trkpt><trkpt lat="44.90866" lon="9.5580033"><ele>379.0</ele><time>2026-04-26T09:52:29.933Z</time></trkpt><trkpt lat="44.9085983" lon="9.558175"><ele>379.0</ele><time>2026-04-26T09:52:30.934Z</time></trkpt><trkpt lat="44.90855" lon="9.5583517"><ele>377.0</ele><time>2026-04-26T09:52:31.934Z</time></trkpt><trkpt lat="44.9085233" lon="9.5585433"><ele>375.0</ele><time>2026-04-26T09:52:32.937Z</time></trkpt><trkpt lat="44.908515" lon="9.558725"><ele>373.0</ele><time>2026-04-26T09:52:33.934Z</time></trkpt><trkpt lat="44.9085117" lon="9.5588967"><ele>371.0</ele><time>2026-04-26T09:52:34.938Z</time></trkpt><trkpt lat="44.9085017" lon="9.5590533"><ele>371.5</ele><time>2026-04-26T09:52:35.933Z</time></trkpt><trkpt lat="44.9084717" lon="9.5592033"><ele>372.0</ele><time>2026-04-26T09:52:36.934Z</time></trkpt><trkpt lat="44.9084367" lon="9.5593517"><ele>372.5</ele><time>2026-04-26T09:52:37.934Z</time></trkpt><trkpt lat="44.9083983" lon="9.55951"><ele>373.0</ele><time>2026-04-26T09:52:38.935Z</time></trkpt><trkpt lat="44.9083567" lon="9.5596767"><ele>371.0</ele><time>2026-04-26T09:52:39.933Z</time></trkpt><trkpt lat="44.908315" lon="9.55985"><ele>369.0</ele><time>2026-04-26T09:52:40.935Z</time></trkpt><trkpt lat="44.9082733" lon="9.5600267"><ele>367.0</ele><time>2026-04-26T09:52:41.933Z</time></trkpt><trkpt lat="44.908225" lon="9.5601867"><ele>365.0</ele><time>2026-04-26T09:52:42.938Z</time></trkpt><trkpt lat="44.9081567" lon="9.560305"><ele>363.5</ele><time>2026-04-26T09:52:43.935Z</time></trkpt><trkpt lat="44.908065" lon="9.56038"><ele>362.0</ele><time>2026-04-26T09:52:44.935Z</time></trkpt><trkpt lat="44.9079533" lon="9.5604"><ele>360.5</ele><time>2026-04-26T09:52:45.935Z</time></trkpt><trkpt lat="44.90784" lon="9.5604067"><ele>359.0</ele><time>2026-04-26T09:52:46.934Z</time></trkpt><trkpt lat="44.9077217" lon="9.5604067"><ele>359.0</ele><time>2026-04-26T09:52:47.939Z</time></trkpt><trkpt lat="44.9076" lon="9.5604067"><ele>359.0</ele><time>2026-04-26T09:52:48.937Z</time></trkpt><trkpt lat="44.907475" lon="9.56041"><ele>359.0</ele><time>2026-04-26T09:52:49.937Z</time></trkpt><trkpt lat="44.907355" lon="9.5604133"><ele>359.0</ele><time>2026-04-26T09:52:50.936Z</time></trkpt><trkpt lat="44.9072417" lon="9.5604333"><ele>358.25</ele><time>2026-04-26T09:52:51.936Z</time></trkpt><trkpt lat="44.907135" lon="9.5604883"><ele>357.5</ele><time>2026-04-26T09:52:52.935Z</time></trkpt><trkpt lat="44.9070367" lon="9.5605817"><ele>356.75</ele><time>2026-04-26T09:52:53.936Z</time></trkpt><trkpt lat="44.9069433" lon="9.5607033"><ele>356.0</ele><time>2026-04-26T09:52:54.939Z</time></trkpt><trkpt lat="44.9068467" lon="9.560835"><ele>356.0</ele><time>2026-04-26T09:52:55.935Z</time></trkpt><trkpt lat="44.90675" lon="9.5609717"><ele>356.0</ele><time>2026-04-26T09:52:56.936Z</time></trkpt><trkpt lat="44.9066583" lon="9.5611017"><ele>356.0</ele><time>2026-04-26T09:52:57.936Z</time></trkpt><trkpt lat="44.90657" lon="9.56121"><ele>356.0</ele><time>2026-04-26T09:52:58.936Z</time></trkpt><trkpt lat="44.9064817" lon="9.561285"><ele>354.6</ele><time>2026-04-26T09:52:59.935Z</time></trkpt><trkpt lat="44.9063833" lon="9.5613367"><ele>353.20000000000005</ele><time>2026-04-26T09:53:00.935Z</time></trkpt><trkpt lat="44.9062783" lon="9.5613733"><ele>351.79999999999995</ele><time>2026-04-26T09:53:01.94Z</time></trkpt><trkpt lat="44.9061667" lon="9.5614083"><ele>350.4</ele><time>2026-04-26T09:53:02.935Z</time></trkpt><trkpt lat="44.9060517" lon="9.56144"><ele>349.0</ele><time>2026-04-26T09:53:03.936Z</time></trkpt><trkpt lat="44.905945" lon="9.5614833"><ele>348.6</ele><time>2026-04-26T09:53:04.935Z</time></trkpt><trkpt lat="44.9058467" lon="9.5615567"><ele>348.2</ele><time>2026-04-26T09:53:05.936Z</time></trkpt><trkpt lat="44.9057683" lon="9.561665"><ele>347.8</ele><time>2026-04-26T09:53:06.941Z</time></trkpt><trkpt lat="44.9057267" lon="9.5618083"><ele>347.40000000000003</ele><time>2026-04-26T09:53:07.936Z</time></trkpt><trkpt lat="44.9057217" lon="9.5619633"><ele>347.0</ele><time>2026-04-26T09:53:08.935Z</time></trkpt><trkpt lat="44.90575" lon="9.5621283"><ele>345.0</ele><time>2026-04-26T09:53:09.936Z</time></trkpt><trkpt lat="44.9057667" lon="9.5623117"><ele>343.0</ele><time>2026-04-26T09:53:10.934Z</time></trkpt><trkpt lat="44.9057667" lon="9.56251"><ele>341.0</ele><time>2026-04-26T09:53:11.938Z</time></trkpt><trkpt lat="44.9057617" lon="9.56271"><ele>339.0</ele><time>2026-04-26T09:53:12.934Z</time></trkpt><trkpt lat="44.905755" lon="9.5629033"><ele>337.25</ele><time>2026-04-26T09:53:13.935Z</time></trkpt><trkpt lat="44.9057483" lon="9.5630883"><ele>335.5</ele><time>2026-04-26T09:53:14.936Z</time></trkpt><trkpt lat="44.9057417" lon="9.5632633"><ele>333.75</ele><time>2026-04-26T09:53:15.935Z</time></trkpt><trkpt lat="44.9057367" lon="9.5634417"><ele>332.0</ele><time>2026-04-26T09:53:16.936Z</time></trkpt><trkpt lat="44.905735" lon="9.5636267"><ele>331.0</ele><time>2026-04-26T09:53:17.934Z</time></trkpt><trkpt lat="44.90573" lon="9.5638117"><ele>330.0</ele><time>2026-04-26T09:53:18.935Z</time></trkpt><trkpt lat="44.9057267" lon="9.5639883"><ele>329.0</ele><time>2026-04-26T09:53:19.934Z</time></trkpt><trkpt lat="44.905735" lon="9.56415"><ele>328.0</ele><time>2026-04-26T09:53:20.936Z</time></trkpt><trkpt lat="44.9057717" lon="9.5642933"><ele>328.0</ele><time>2026-04-26T09:53:21.935Z</time></trkpt><trkpt lat="44.9058467" lon="9.5644133"><ele>328.0</ele><time>2026-04-26T09:53:22.935Z</time></trkpt><trkpt lat="44.905945" lon="9.5645133"><ele>328.0</ele><time>2026-04-26T09:53:23.934Z</time></trkpt><trkpt lat="44.9060583" lon="9.5646133"><ele>328.0</ele><time>2026-04-26T09:53:24.934Z</time></trkpt><trkpt lat="44.906175" lon="9.5647183"><ele>326.5</ele><time>2026-04-26T09:53:25.939Z</time></trkpt><trkpt lat="44.9062883" lon="9.56482"><ele>325.0</ele><time>2026-04-26T09:53:26.939Z</time></trkpt><trkpt lat="44.906405" lon="9.5649283"><ele>323.5</ele><time>2026-04-26T09:53:27.933Z</time></trkpt><trkpt lat="44.9065217" lon="9.5650383"><ele>322.0</ele><time>2026-04-26T09:53:28.934Z</time></trkpt><trkpt lat="44.9066333" lon="9.5651483"><ele>323.0</ele><time>2026-04-26T09:53:29.935Z</time></trkpt><trkpt lat="44.9067467" lon="9.5652667"><ele>324.0</ele><time>2026-04-26T09:53:30.934Z</time></trkpt><trkpt lat="44.906865" lon="9.5653967"><ele>325.0</ele><time>2026-04-26T09:53:31.935Z</time></trkpt><trkpt lat="44.906985" lon="9.5655333"><ele>326.0</ele><time>2026-04-26T09:53:32.935Z</time></trkpt><trkpt lat="44.9071" lon="9.5656667"><ele>323.5</ele><time>2026-04-26T09:53:33.934Z</time></trkpt><trkpt lat="44.90721" lon="9.565795"><ele>321.0</ele><time>2026-04-26T09:53:34.936Z</time></trkpt><trkpt lat="44.9073167" lon="9.5659217"><ele>318.5</ele><time>2026-04-26T09:53:35.935Z</time></trkpt><trkpt lat="44.907415" lon="9.566045"><ele>316.0</ele><time>2026-04-26T09:53:36.939Z</time></trkpt><trkpt lat="44.9075033" lon="9.5661633"><ele>314.5</ele><time>2026-04-26T09:53:37.933Z</time></trkpt><trkpt lat="44.90757" lon="9.5662783"><ele>313.0</ele><time>2026-04-26T09:53:38.934Z</time></trkpt><trkpt lat="44.9075967" lon="9.5663933"><ele>311.5</ele><time>2026-04-26T09:53:39.934Z</time></trkpt><trkpt lat="44.9076" lon="9.5665"><ele>310.0</ele><time>2026-04-26T09:53:40.933Z</time></trkpt><trkpt lat="44.9075417" lon="9.56658"><ele>308.5</ele><time>2026-04-26T09:53:41.938Z</time></trkpt><trkpt lat="44.907465" lon="9.566635"><ele>307.0</ele><time>2026-04-26T09:53:42.934Z</time></trkpt><trkpt lat="44.90737" lon="9.5666617"><ele>306.0</ele><time>2026-04-26T09:53:43.938Z</time></trkpt><trkpt lat="44.9072567" lon="9.56668"><ele>305.0</ele><time>2026-04-26T09:53:44.934Z</time></trkpt><trkpt lat="44.9071267" lon="9.5667167"><ele>304.0</ele><time>2026-04-26T09:53:45.935Z</time></trkpt><trkpt lat="44.9069983" lon="9.5667933"><ele>303.0</ele><time>2026-04-26T09:53:46.936Z</time></trkpt><trkpt lat="44.9068733" lon="9.5669067"><ele>301.0</ele><time>2026-04-26T09:53:47.934Z</time></trkpt><trkpt lat="44.9067583" lon="9.56703"><ele>299.0</ele><time>2026-04-26T09:53:49.017Z</time></trkpt><trkpt lat="44.9066567" lon="9.5671483"><ele>297.0</ele><time>2026-04-26T09:53:49.936Z</time></trkpt><trkpt lat="44.9065583" lon="9.5672683"><ele>295.0</ele><time>2026-04-26T09:53:50.936Z</time></trkpt><trkpt lat="44.906465" lon="9.567385"><ele>295.0</ele><time>2026-04-26T09:53:51.936Z</time></trkpt><trkpt lat="44.9063883" lon="9.5675033"><ele>295.0</ele><time>2026-04-26T09:53:52.935Z</time></trkpt><trkpt lat="44.9063467" lon="9.56763"><ele>295.0</ele><time>2026-04-26T09:53:53.942Z</time></trkpt><trkpt lat="44.906335" lon="9.5677683"><ele>295.0</ele><time>2026-04-26T09:53:54.934Z</time></trkpt><trkpt lat="44.9063433" lon="9.567915"><ele>295.0</ele><time>2026-04-26T09:53:55.937Z</time></trkpt><trkpt lat="44.906355" lon="9.568065"><ele>294.0</ele><time>2026-04-26T09:53:56.937Z</time></trkpt><trkpt lat="44.906375" lon="9.5682067"><ele>293.0</ele><time>2026-04-26T09:53:57.934Z</time></trkpt><trkpt lat="44.906405" lon="9.56833"><ele>292.0</ele><time>2026-04-26T09:53:58.935Z</time></trkpt><trkpt lat="44.906455" lon="9.5684367"><ele>291.0</ele><time>2026-04-26T09:53:59.94Z</time></trkpt><trkpt lat="44.9065233" lon="9.5685233"><ele>290.0</ele><time>2026-04-26T09:54:00.936Z</time></trkpt><trkpt lat="44.9066133" lon="9.5685783"><ele>290.0</ele><time>2026-04-26T09:54:01.935Z</time></trkpt><trkpt lat="44.90672" lon="9.5686033"><ele>290.0</ele><time>2026-04-26T09:54:02.935Z</time></trkpt><trkpt lat="44.9068317" lon="9.5686217"><ele>290.0</ele><time>2026-04-26T09:54:03.934Z</time></trkpt><trkpt lat="44.9069483" lon="9.5686483"><ele>290.0</ele><time>2026-04-26T09:54:04.934Z</time></trkpt><trkpt lat="44.9070667" lon="9.5686833"><ele>287.25</ele><time>2026-04-26T09:54:05.935Z</time></trkpt><trkpt lat="44.907185" lon="9.5687333"><ele>284.5</ele><time>2026-04-26T09:54:06.937Z</time></trkpt><trkpt lat="44.9073033" lon="9.56881"><ele>281.75</ele><time>2026-04-26T09:54:07.935Z</time></trkpt><trkpt lat="44.907425" lon="9.5689117"><ele>279.0</ele><time>2026-04-26T09:54:08.94Z</time></trkpt><trkpt lat="44.90755" lon="9.5690283"><ele>278.6666666666667</ele><time>2026-04-26T09:54:09.933Z</time></trkpt><trkpt lat="44.9076833" lon="9.5691467"><ele>278.33333333333337</ele><time>2026-04-26T09:54:10.935Z</time></trkpt><trkpt lat="44.90782" lon="9.5692633"><ele>278.0</ele><time>2026-04-26T09:54:11.935Z</time></trkpt><trkpt lat="44.907955" lon="9.569375"><ele>278.0</ele><time>2026-04-26T09:54:12.936Z</time></trkpt><trkpt lat="44.908085" lon="9.5694717"><ele>278.0</ele><time>2026-04-26T09:54:13.937Z</time></trkpt><trkpt lat="44.908215" lon="9.569555"><ele>278.0</ele><time>2026-04-26T09:54:14.935Z</time></trkpt><trkpt lat="44.9083567" lon="9.5696433"><ele>278.0</ele><time>2026-04-26T09:54:15.935Z</time></trkpt><trkpt lat="44.9084983" lon="9.569735"><ele>274.33333333333337</ele><time>2026-04-26T09:54:16.943Z</time></trkpt><trkpt lat="44.90864" lon="9.5698283"><ele>270.6666666666667</ele><time>2026-04-26T09:54:17.935Z</time></trkpt><trkpt lat="44.90878" lon="9.569915"><ele>267.0</ele><time>2026-04-26T09:54:18.934Z</time></trkpt><trkpt lat="44.908915" lon="9.5699933"><ele>267.0</ele><time>2026-04-26T09:54:19.935Z</time></trkpt><trkpt lat="44.9090483" lon="9.5700717"><ele>267.0</ele><time>2026-04-26T09:54:20.935Z</time></trkpt><trkpt lat="44.90918" lon="9.5701567"><ele>267.0</ele><time>2026-04-26T09:54:21.934Z</time></trkpt><trkpt lat="44.9093167" lon="9.5702483"><ele>267.0</ele><time>2026-04-26T09:54:22.937Z</time></trkpt><trkpt lat="44.909455" lon="9.5703433"><ele>265.5</ele><time>2026-04-26T09:54:23.935Z</time></trkpt><trkpt lat="44.9095817" lon="9.5704317"><ele>264.0</ele><time>2026-04-26T09:54:24.935Z</time></trkpt><trkpt lat="44.9096867" lon="9.5705217"><ele>262.5</ele><time>2026-04-26T09:54:25.935Z</time></trkpt><trkpt lat="44.90976" lon="9.5706267"><ele>261.0</ele><time>2026-04-26T09:54:26.934Z</time></trkpt><trkpt lat="44.9098017" lon="9.570755"><ele>261.0</ele><time>2026-04-26T09:54:27.934Z</time></trkpt><trkpt lat="44.9098033" lon="9.5708967"><ele>261.0</ele><time>2026-04-26T09:54:28.936Z</time></trkpt><trkpt lat="44.9097617" lon="9.5710267"><ele>261.0</ele><time>2026-04-26T09:54:29.934Z</time></trkpt><trkpt lat="44.9096767" lon="9.5711267"><ele>261.0</ele><time>2026-04-26T09:54:30.935Z</time></trkpt><trkpt lat="44.909565" lon="9.571205"><ele>261.0</ele><time>2026-04-26T09:54:31.935Z</time></trkpt><trkpt lat="44.909435" lon="9.5712817"><ele>259.75</ele><time>2026-04-26T09:54:32.934Z</time></trkpt><trkpt lat="44.9093" lon="9.571365"><ele>258.5</ele><time>2026-04-26T09:54:33.935Z</time></trkpt><trkpt lat="44.9091633" lon="9.5714467"><ele>257.25</ele><time>2026-04-26T09:54:34.933Z</time></trkpt><trkpt lat="44.9090483" lon="9.5715233"><ele>256.0</ele><time>2026-04-26T09:54:35.934Z</time></trkpt><trkpt lat="44.9089467" lon="9.57162"><ele>255.0</ele><time>2026-04-26T09:54:36.934Z</time></trkpt><trkpt lat="44.9088717" lon="9.571745"><ele>254.0</ele><time>2026-04-26T09:54:37.936Z</time></trkpt><trkpt lat="44.90882" lon="9.5719"><ele>253.0</ele><time>2026-04-26T09:54:38.935Z</time></trkpt><trkpt lat="44.908795" lon="9.5720767"><ele>252.0</ele><time>2026-04-26T09:54:39.938Z</time></trkpt><trkpt lat="44.908785" lon="9.5722617"><ele>250.5</ele><time>2026-04-26T09:54:40.934Z</time></trkpt><trkpt lat="44.9087717" lon="9.5724383"><ele>249.0</ele><time>2026-04-26T09:54:41.935Z</time></trkpt><trkpt lat="44.90874" lon="9.5725967"><ele>247.5</ele><time>2026-04-26T09:54:42.935Z</time></trkpt><trkpt lat="44.9086833" lon="9.572725"><ele>246.0</ele><time>2026-04-26T09:54:43.935Z</time></trkpt><trkpt lat="44.9086017" lon="9.5728117"><ele>246.0</ele><time>2026-04-26T09:54:44.943Z</time></trkpt><trkpt lat="44.9085" lon="9.5728517"><ele>246.0</ele><time>2026-04-26T09:54:45.934Z</time></trkpt><trkpt lat="44.9083833" lon="9.5728483"><ele>246.0</ele><time>2026-04-26T09:54:46.935Z</time></trkpt><trkpt lat="44.90826" lon="9.572825"><ele>246.0</ele><time>2026-04-26T09:54:47.935Z</time></trkpt><trkpt lat="44.9081317" lon="9.572805"><ele>245.5</ele><time>2026-04-26T09:54:48.936Z</time></trkpt><trkpt lat="44.908025" lon="9.572815"><ele>245.0</ele><time>2026-04-26T09:54:49.934Z</time></trkpt><trkpt lat="44.9079417" lon="9.5728483"><ele>244.5</ele><time>2026-04-26T09:54:50.934Z</time></trkpt><trkpt lat="44.9078783" lon="9.5729"><ele>244.0</ele><time>2026-04-26T09:54:51.936Z</time></trkpt><trkpt lat="44.90785" lon="9.5729933"><ele>243.5</ele><time>2026-04-26T09:54:52.935Z</time></trkpt><trkpt lat="44.907845" lon="9.573095"><ele>243.0</ele><time>2026-04-26T09:54:53.935Z</time></trkpt><trkpt lat="44.9078683" lon="9.5731917"><ele>240.75</ele><time>2026-04-26T09:54:54.933Z</time></trkpt><trkpt lat="44.9079117" lon="9.573295"><ele>238.5</ele><time>2026-04-26T09:54:55.935Z</time></trkpt><trkpt lat="44.907975" lon="9.5734267"><ele>236.25</ele><time>2026-04-26T09:54:56.935Z</time></trkpt><trkpt lat="44.90806" lon="9.573595"><ele>234.0</ele><time>2026-04-26T09:54:57.934Z</time></trkpt><trkpt lat="44.9081267" lon="9.5737733"><ele>231.0</ele><time>2026-04-26T09:54:58.942Z</time></trkpt><trkpt lat="44.90818" lon="9.5739783"><ele>228.0</ele><time>2026-04-26T09:54:59.935Z</time></trkpt><trkpt lat="44.9082217" lon="9.574195"><ele>225.0</ele><time>2026-04-26T09:55:00.934Z</time></trkpt><trkpt lat="44.9082467" lon="9.574425"><ele>224.0</ele><time>2026-04-26T09:55:01.934Z</time></trkpt><trkpt lat="44.90826" lon="9.5746483"><ele>223.0</ele><time>2026-04-26T09:55:02.936Z</time></trkpt><trkpt lat="44.9082767" lon="9.5748567"><ele>222.0</ele><time>2026-04-26T09:55:03.934Z</time></trkpt><trkpt lat="44.9082967" lon="9.575055"><ele>221.0</ele><time>2026-04-26T09:55:04.935Z</time></trkpt><trkpt lat="44.90832" lon="9.5752433"><ele>221.25</ele><time>2026-04-26T09:55:05.935Z</time></trkpt><trkpt lat="44.9083483" lon="9.5754183"><ele>221.5</ele><time>2026-04-26T09:55:06.934Z</time></trkpt><trkpt lat="44.9083767" lon="9.5755833"><ele>221.75</ele><time>2026-04-26T09:55:07.935Z</time></trkpt><trkpt lat="44.908405" lon="9.5757383"><ele>222.0</ele><time>2026-04-26T09:55:08.935Z</time></trkpt><trkpt lat="44.9084283" lon="9.575885"><ele>222.0</ele><time>2026-04-26T09:55:09.938Z</time></trkpt><trkpt lat="44.9084533" lon="9.5760217"><ele>222.0</ele><time>2026-04-26T09:55:10.934Z</time></trkpt><trkpt lat="44.9084717" lon="9.5761567"><ele>222.0</ele><time>2026-04-26T09:55:11.934Z</time></trkpt><trkpt lat="44.9084933" lon="9.5762883"><ele>222.0</ele><time>2026-04-26T09:55:12.936Z</time></trkpt><trkpt lat="44.9085167" lon="9.5764133"><ele>222.0</ele><time>2026-04-26T09:55:13.934Z</time></trkpt><trkpt lat="44.9085383" lon="9.576545"><ele>221.0</ele><time>2026-04-26T09:55:14.935Z</time></trkpt><trkpt lat="44.90856" lon="9.5766833"><ele>220.0</ele><time>2026-04-26T09:55:15.934Z</time></trkpt><trkpt lat="44.9085783" lon="9.5768217"><ele>219.0</ele><time>2026-04-26T09:55:16.935Z</time></trkpt><trkpt lat="44.90859" lon="9.5769467"><ele>218.0</ele><time>2026-04-26T09:55:17.934Z</time></trkpt><trkpt lat="44.9085967" lon="9.577055"><ele>217.0</ele><time>2026-04-26T09:55:18.934Z</time></trkpt><trkpt lat="44.90861" lon="9.577195"><ele>217.0</ele><time>2026-04-26T09:55:20.936Z</time></trkpt><trkpt lat="44.9087033" lon="9.5772033"><ele>217.0</ele><time>2026-04-26T09:55:23.937Z</time></trkpt><trkpt lat="44.9087683" lon="9.577155"><ele>217.0</ele><time>2026-04-26T09:55:25.934Z</time></trkpt><trkpt lat="44.9088633" lon="9.5770717"><ele>217.0</ele><time>2026-04-26T09:55:27.935Z</time></trkpt><trkpt lat="44.9089267" lon="9.5769867"><ele>217.0</ele><time>2026-04-26T09:55:28.939Z</time></trkpt><trkpt lat="44.908985" lon="9.5768833"><ele>216.99999999999997</ele><time>2026-04-26T09:55:29.936Z</time></trkpt><trkpt lat="44.9090283" lon="9.5767767"><ele>217.0</ele><time>2026-04-26T09:55:30.936Z</time></trkpt><trkpt lat="44.9090583" lon="9.5766717"><ele>217.0</ele><time>2026-04-26T09:55:31.935Z</time></trkpt><trkpt lat="44.9090817" lon="9.5765567"><ele>217.0</ele><time>2026-04-26T09:55:32.937Z</time></trkpt><trkpt lat="44.90911" lon="9.5764467"><ele>216.99999999999997</ele><time>2026-04-26T09:55:33.937Z</time></trkpt><trkpt lat="44.9091533" lon="9.5763383"><ele>217.0</ele><time>2026-04-26T09:55:34.934Z</time></trkpt><trkpt lat="44.9092083" lon="9.576235"><ele>218.6</ele><time>2026-04-26T09:55:35.936Z</time></trkpt><trkpt lat="44.9092717" lon="9.5761367"><ele>220.2</ele><time>2026-04-26T09:55:36.94Z</time></trkpt><trkpt lat="44.9093417" lon="9.5760333"><ele>221.8</ele><time>2026-04-26T09:55:37.937Z</time></trkpt><trkpt lat="44.9094017" lon="9.5759383"><ele>223.4</ele><time>2026-04-26T09:55:38.937Z</time></trkpt><trkpt lat="44.90945" lon="9.5758417"><ele>225.0</ele><time>2026-04-26T09:55:39.936Z</time></trkpt><trkpt lat="44.90948" lon="9.575735"><ele>225.0</ele><time>2026-04-26T09:55:40.936Z</time></trkpt><trkpt lat="44.909505" lon="9.5756117"><ele>225.0</ele><time>2026-04-26T09:55:41.934Z</time></trkpt><trkpt lat="44.9095233" lon="9.5754817"><ele>225.0</ele><time>2026-04-26T09:55:42.936Z</time></trkpt><trkpt lat="44.9095433" lon="9.5753483"><ele>225.0</ele><time>2026-04-26T09:55:43.94Z</time></trkpt><trkpt lat="44.909565" lon="9.575215"><ele>225.0</ele><time>2026-04-26T09:55:44.935Z</time></trkpt><trkpt lat="44.909585" lon="9.5750817"><ele>225.66666666666666</ele><time>2026-04-26T09:55:45.935Z</time></trkpt><trkpt lat="44.9096067" lon="9.5749533"><ele>226.33333333333331</ele><time>2026-04-26T09:55:46.937Z</time></trkpt><trkpt lat="44.9096333" lon="9.5748383"><ele>227.0</ele><time>2026-04-26T09:55:47.935Z</time></trkpt><trkpt lat="44.909665" lon="9.57473"><ele>227.66666666666666</ele><time>2026-04-26T09:55:48.934Z</time></trkpt><trkpt lat="44.9096883" lon="9.5746167"><ele>228.33333333333331</ele><time>2026-04-26T09:55:49.936Z</time></trkpt><trkpt lat="44.9097067" lon="9.5744967"><ele>229.0</ele><time>2026-04-26T09:55:50.94Z</time></trkpt><trkpt lat="44.9097233" lon="9.5743733"><ele>230.2</ele><time>2026-04-26T09:55:51.934Z</time></trkpt><trkpt lat="44.9097383" lon="9.5742633"><ele>231.39999999999998</ele><time>2026-04-26T09:55:52.934Z</time></trkpt><trkpt lat="44.9097917" lon="9.5741733"><ele>232.6</ele><time>2026-04-26T09:55:54.936Z</time></trkpt><trkpt lat="44.909875" lon="9.5741883"><ele>233.8</ele><time>2026-04-26T09:55:56.934Z</time></trkpt><trkpt lat="44.91001" lon="9.5742317"><ele>235.0</ele><time>2026-04-26T09:55:58.933Z</time></trkpt><trkpt lat="44.9100917" lon="9.57426"><ele>234.99999999999997</ele><time>2026-04-26T09:55:59.936Z</time></trkpt><trkpt lat="44.9101817" lon="9.5742833"><ele>235.0</ele><time>2026-04-26T09:56:00.934Z</time></trkpt><trkpt lat="44.9102717" lon="9.5743033"><ele>235.0</ele><time>2026-04-26T09:56:01.934Z</time></trkpt><trkpt lat="44.9103583" lon="9.5743183"><ele>235.0</ele><time>2026-04-26T09:56:02.937Z</time></trkpt><trkpt lat="44.9104417" lon="9.5743317"><ele>234.99999999999997</ele><time>2026-04-26T09:56:03.935Z</time></trkpt><trkpt lat="44.9105267" lon="9.5743433"><ele>235.0</ele><time>2026-04-26T09:56:04.937Z</time></trkpt><trkpt lat="44.9106083" lon="9.574355"><ele>234.99999999999997</ele><time>2026-04-26T09:56:05.934Z</time></trkpt><trkpt lat="44.9106917" lon="9.5743683"><ele>235.0</ele><time>2026-04-26T09:56:06.934Z</time></trkpt><trkpt lat="44.910775" lon="9.5743833"><ele>235.0</ele><time>2026-04-26T09:56:07.937Z</time></trkpt><trkpt lat="44.9108567" lon="9.5744"><ele>235.0</ele><time>2026-04-26T09:56:08.937Z</time></trkpt><trkpt lat="44.9109417" lon="9.574415"><ele>234.99999999999997</ele><time>2026-04-26T09:56:09.936Z</time></trkpt><trkpt lat="44.9110267" lon="9.57443"><ele>235.0</ele><time>2026-04-26T09:56:10.936Z</time></trkpt><trkpt lat="44.91111" lon="9.574445"><ele>234.33333333333331</ele><time>2026-04-26T09:56:11.935Z</time></trkpt><trkpt lat="44.91119" lon="9.574455"><ele>233.66666666666666</ele><time>2026-04-26T09:56:12.933Z</time></trkpt><trkpt lat="44.9112617" lon="9.5744633"><ele>233.0</ele><time>2026-04-26T09:56:13.933Z</time></trkpt><trkpt lat="44.9113717" lon="9.5744483"><ele>232.33333333333331</ele><time>2026-04-26T09:56:15.934Z</time></trkpt><trkpt lat="44.9114467" lon="9.57434"><ele>231.66666666666666</ele><time>2026-04-26T09:56:17.935Z</time></trkpt><trkpt lat="44.91148" lon="9.5742383"><ele>231.0</ele><time>2026-04-26T09:56:18.935Z</time></trkpt><trkpt lat="44.9115117" lon="9.574115"><ele>231.0</ele><time>2026-04-26T09:56:19.935Z</time></trkpt><trkpt lat="44.9115383" lon="9.5739983"><ele>231.0</ele><time>2026-04-26T09:56:20.936Z</time></trkpt><trkpt lat="44.911565" lon="9.5739067"><ele>231.0</ele><time>2026-04-26T09:56:21.933Z</time></trkpt><trkpt lat="44.91161" lon="9.573815"><ele>231.0</ele><time>2026-04-26T09:56:23.934Z</time></trkpt><trkpt lat="44.91167" lon="9.573775"><ele>231.0</ele><time>2026-04-26T09:56:25.938Z</time></trkpt><trkpt lat="44.9117433" lon="9.5737867"><ele>231.0</ele><time>2026-04-26T09:56:27.934Z</time></trkpt><trkpt lat="44.9118833" lon="9.573845"><ele>232.0</ele><time>2026-04-26T09:56:29.935Z</time></trkpt><trkpt lat="44.911975" lon="9.57388"><ele>233.0</ele><time>2026-04-26T09:56:30.936Z</time></trkpt><trkpt lat="44.9120767" lon="9.57391"><ele>234.0</ele><time>2026-04-26T09:56:31.933Z</time></trkpt><trkpt lat="44.9121983" lon="9.57393"><ele>235.0</ele><time>2026-04-26T09:56:32.933Z</time></trkpt><trkpt lat="44.9123317" lon="9.5739417"><ele>235.0</ele><time>2026-04-26T09:56:33.933Z</time></trkpt><trkpt lat="44.912465" lon="9.57395"><ele>235.0</ele><time>2026-04-26T09:56:34.933Z</time></trkpt><trkpt lat="44.9125867" lon="9.573965"><ele>235.0</ele><time>2026-04-26T09:56:35.935Z</time></trkpt><trkpt lat="44.9126967" lon="9.5739933"><ele>235.0</ele><time>2026-04-26T09:56:36.934Z</time></trkpt><trkpt lat="44.912805" lon="9.57403"><ele>236.16666666666666</ele><time>2026-04-26T09:56:37.933Z</time></trkpt><trkpt lat="44.9129067" lon="9.5740733"><ele>237.33333333333331</ele><time>2026-04-26T09:56:38.941Z</time></trkpt><trkpt lat="44.912995" lon="9.5741167"><ele>238.5</ele><time>2026-04-26T09:56:39.933Z</time></trkpt><trkpt lat="44.91307" lon="9.5741467"><ele>239.66666666666669</ele><time>2026-04-26T09:56:40.933Z</time></trkpt><trkpt lat="44.91317" lon="9.57416"><ele>240.83333333333334</ele><time>2026-04-26T09:56:42.934Z</time></trkpt><trkpt lat="44.9132383" lon="9.5741783"><ele>242.0</ele><time>2026-04-26T09:56:48.934Z</time></trkpt><trkpt lat="44.91333" lon="9.5741867"><ele>242.8</ele><time>2026-04-26T09:56:50.935Z</time></trkpt><trkpt lat="44.91346" lon="9.5742133"><ele>243.6</ele><time>2026-04-26T09:56:52.934Z</time></trkpt><trkpt lat="44.9135367" lon="9.5742317"><ele>244.40000000000003</ele><time>2026-04-26T09:56:53.934Z</time></trkpt><trkpt lat="44.91361" lon="9.57425"><ele>245.20000000000002</ele><time>2026-04-26T09:56:54.933Z</time></trkpt><trkpt lat="44.913695" lon="9.5742717"><ele>246.0</ele><time>2026-04-26T09:56:55.934Z</time></trkpt><trkpt lat="44.91378" lon="9.5742917"><ele>246.0</ele><time>2026-04-26T09:56:56.933Z</time></trkpt><trkpt lat="44.9138683" lon="9.574315"><ele>246.0</ele><time>2026-04-26T09:56:57.939Z</time></trkpt><trkpt lat="44.913965" lon="9.57434"><ele>246.0</ele><time>2026-04-26T09:56:58.935Z</time></trkpt><trkpt lat="44.9140567" lon="9.574365"><ele>246.0</ele><time>2026-04-26T09:56:59.933Z</time></trkpt><trkpt lat="44.9141417" lon="9.5743783"><ele>246.0</ele><time>2026-04-26T09:57:00.935Z</time></trkpt><trkpt lat="44.9142083" lon="9.5743783"><ele>246.0</ele><time>2026-04-26T09:57:01.934Z</time></trkpt><trkpt lat="44.9142917" lon="9.57432"><ele>245.16666666666666</ele><time>2026-04-26T09:57:03.934Z</time></trkpt><trkpt lat="44.9143483" lon="9.574185"><ele>244.33333333333331</ele><time>2026-04-26T09:57:05.934Z</time></trkpt><trkpt lat="44.9143883" lon="9.574115"><ele>243.5</ele><time>2026-04-26T09:57:06.933Z</time></trkpt><trkpt lat="44.914445" lon="9.5740517"><ele>242.66666666666666</ele><time>2026-04-26T09:57:07.936Z</time></trkpt><trkpt lat="44.914515" lon="9.57398"><ele>241.83333333333331</ele><time>2026-04-26T09:57:08.935Z</time></trkpt><trkpt lat="44.9146033" lon="9.573905"><ele>241.0</ele><time>2026-04-26T09:57:09.933Z</time></trkpt><trkpt lat="44.9146933" lon="9.5738333"><ele>241.0</ele><time>2026-04-26T09:57:10.939Z</time></trkpt><trkpt lat="44.914785" lon="9.5737717"><ele>241.00000000000003</ele><time>2026-04-26T09:57:11.935Z</time></trkpt><trkpt lat="44.9148833" lon="9.57373"><ele>241.00000000000003</ele><time>2026-04-26T09:57:12.934Z</time></trkpt><trkpt lat="44.9149933" lon="9.5736883"><ele>241.0</ele><time>2026-04-26T09:57:13.934Z</time></trkpt><trkpt lat="44.91511" lon="9.57364"><ele>241.0</ele><time>2026-04-26T09:57:14.934Z</time></trkpt><trkpt lat="44.9152283" lon="9.5735783"><ele>242.25</ele><time>2026-04-26T09:57:15.935Z</time></trkpt><trkpt lat="44.9153483" lon="9.5735283"><ele>243.5</ele><time>2026-04-26T09:57:16.942Z</time></trkpt><trkpt lat="44.9154767" lon="9.5734883"><ele>244.75</ele><time>2026-04-26T09:57:17.934Z</time></trkpt><trkpt lat="44.915605" lon="9.5734517"><ele>246.0</ele><time>2026-04-26T09:57:18.934Z</time></trkpt><trkpt lat="44.915725" lon="9.5734167"><ele>246.0</ele><time>2026-04-26T09:57:19.935Z</time></trkpt><trkpt lat="44.9158367" lon="9.573375"><ele>246.0</ele><time>2026-04-26T09:57:20.935Z</time></trkpt><trkpt lat="44.9159467" lon="9.5733133"><ele>246.0</ele><time>2026-04-26T09:57:21.934Z</time></trkpt><trkpt lat="44.9160533" lon="9.5732383"><ele>246.0</ele><time>2026-04-26T09:57:22.933Z</time></trkpt><trkpt lat="44.916165" lon="9.573155"><ele>246.25</ele><time>2026-04-26T09:57:23.934Z</time></trkpt><trkpt lat="44.9162717" lon="9.57309"><ele>246.5</ele><time>2026-04-26T09:57:24.933Z</time></trkpt><trkpt lat="44.9163783" lon="9.5730467"><ele>246.75</ele><time>2026-04-26T09:57:25.939Z</time></trkpt><trkpt lat="44.9164883" lon="9.57303"><ele>247.0</ele><time>2026-04-26T09:57:26.935Z</time></trkpt><trkpt lat="44.9166033" lon="9.573015"><ele>247.0</ele><time>2026-04-26T09:57:27.933Z</time></trkpt><trkpt lat="44.91671" lon="9.5729767"><ele>247.0</ele><time>2026-04-26T09:57:28.934Z</time></trkpt><trkpt lat="44.9168117" lon="9.57291"><ele>247.0</ele><time>2026-04-26T09:57:29.934Z</time></trkpt><trkpt lat="44.9169017" lon="9.5728167"><ele>247.0</ele><time>2026-04-26T09:57:30.936Z</time></trkpt><trkpt lat="44.91699" lon="9.5727083"><ele>247.25</ele><time>2026-04-26T09:57:31.936Z</time></trkpt><trkpt lat="44.917085" lon="9.5726033"><ele>247.5</ele><time>2026-04-26T09:57:32.935Z</time></trkpt><trkpt lat="44.9171917" lon="9.5725117"><ele>247.75</ele><time>2026-04-26T09:57:33.933Z</time></trkpt><trkpt lat="44.9173083" lon="9.5724283"><ele>248.0</ele><time>2026-04-26T09:57:34.933Z</time></trkpt><trkpt lat="44.91743" lon="9.5723517"><ele>248.0</ele><time>2026-04-26T09:57:35.933Z</time></trkpt><trkpt lat="44.9175583" lon="9.5722817"><ele>248.0</ele><time>2026-04-26T09:57:36.933Z</time></trkpt><trkpt lat="44.9176833" lon="9.5722167"><ele>248.0</ele><time>2026-04-26T09:57:37.934Z</time></trkpt><trkpt lat="44.917795" lon="9.572155"><ele>248.0</ele><time>2026-04-26T09:57:38.938Z</time></trkpt><trkpt lat="44.9178967" lon="9.5720983"><ele>247.8</ele><time>2026-04-26T09:57:39.934Z</time></trkpt><trkpt lat="44.9179933" lon="9.5720683"><ele>247.60000000000002</ele><time>2026-04-26T09:57:40.934Z</time></trkpt><trkpt lat="44.918095" lon="9.5720667"><ele>247.39999999999998</ele><time>2026-04-26T09:57:41.934Z</time></trkpt><trkpt lat="44.918205" lon="9.57207"><ele>247.2</ele><time>2026-04-26T09:57:42.933Z</time></trkpt><trkpt lat="44.918325" lon="9.572065"><ele>247.0</ele><time>2026-04-26T09:57:43.933Z</time></trkpt><trkpt lat="44.9184417" lon="9.572055"><ele>246.8</ele><time>2026-04-26T09:57:44.935Z</time></trkpt><trkpt lat="44.91856" lon="9.5720317"><ele>246.6</ele><time>2026-04-26T09:57:45.937Z</time></trkpt><trkpt lat="44.9186733" lon="9.5720167"><ele>246.40000000000003</ele><time>2026-04-26T09:57:46.934Z</time></trkpt><trkpt lat="44.918785" lon="9.5720033"><ele>246.20000000000002</ele><time>2026-04-26T09:57:47.936Z</time></trkpt><trkpt lat="44.9188833" lon="9.571985"><ele>246.0</ele><time>2026-04-26T09:57:48.934Z</time></trkpt><trkpt lat="44.9189717" lon="9.5719633"><ele>246.0</ele><time>2026-04-26T09:57:49.934Z</time></trkpt><trkpt lat="44.9190517" lon="9.57192"><ele>246.00000000000003</ele><time>2026-04-26T09:57:50.935Z</time></trkpt><trkpt lat="44.91913" lon="9.57186"><ele>246.00000000000003</ele><time>2026-04-26T09:57:51.938Z</time></trkpt><trkpt lat="44.919215" lon="9.5717683"><ele>246.0</ele><time>2026-04-26T09:57:52.936Z</time></trkpt><trkpt lat="44.9193095" lon="9.5716629"><ele>246.0</ele><time>2026-04-26T09:57:53.934Z</time></trkpt><trkpt lat="44.9194106" lon="9.5715566"><ele>246.0</ele><time>2026-04-26T09:57:54.935Z</time></trkpt><trkpt lat="44.9195053" lon="9.5714495"><ele>246.0</ele><time>2026-04-26T09:57:55.934Z</time></trkpt><trkpt lat="44.9195991" lon="9.5713413"><ele>246.0</ele><time>2026-04-26T09:57:56.936Z</time></trkpt><trkpt lat="44.9196844" lon="9.5712198"><ele>246.0</ele><time>2026-04-26T09:57:57.936Z</time></trkpt><trkpt lat="44.9197673" lon="9.5710942"><ele>245.25</ele><time>2026-04-26T09:57:58.94Z</time></trkpt><trkpt lat="44.9198531" lon="9.5709753"><ele>244.5</ele><time>2026-04-26T09:57:59.936Z</time></trkpt><trkpt lat="44.919937" lon="9.5708595"><ele>243.75</ele><time>2026-04-26T09:58:00.934Z</time></trkpt><trkpt lat="44.9200215" lon="9.5707472"><ele>243.0</ele><time>2026-04-26T09:58:01.934Z</time></trkpt><trkpt lat="44.9201149" lon="9.5706378"><ele>242.75</ele><time>2026-04-26T09:58:02.934Z</time></trkpt><trkpt lat="44.9202231" lon="9.5705224"><ele>242.5</ele><time>2026-04-26T09:58:03.938Z</time></trkpt><trkpt lat="44.9203316" lon="9.5703985"><ele>242.25</ele><time>2026-04-26T09:58:04.936Z</time></trkpt><trkpt lat="44.9204381" lon="9.5702727"><ele>242.0</ele><time>2026-04-26T09:58:05.935Z</time></trkpt><trkpt lat="44.9205409" lon="9.5701488"><ele>242.0</ele><time>2026-04-26T09:58:06.935Z</time></trkpt><trkpt lat="44.920638" lon="9.5700279"><ele>242.0</ele><time>2026-04-26T09:58:07.935Z</time></trkpt><trkpt lat="44.9207348" lon="9.5699216"><ele>242.0</ele><time>2026-04-26T09:58:08.941Z</time></trkpt><trkpt lat="44.9208324" lon="9.5698338"><ele>242.0</ele><time>2026-04-26T09:58:09.934Z</time></trkpt><trkpt lat="44.9209227" lon="9.5697563"><ele>242.0</ele><time>2026-04-26T09:58:10.934Z</time></trkpt><trkpt lat="44.9210074" lon="9.5696816"><ele>242.0</ele><time>2026-04-26T09:58:11.934Z</time></trkpt><trkpt lat="44.9210949" lon="9.5696181"><ele>242.0</ele><time>2026-04-26T09:58:12.934Z</time></trkpt><trkpt lat="44.9211877" lon="9.5695635"><ele>242.0</ele><time>2026-04-26T09:58:13.94Z</time></trkpt><trkpt lat="44.921293" lon="9.5695174"><ele>242.0</ele><time>2026-04-26T09:58:14.934Z</time></trkpt><trkpt lat="44.9214167" lon="9.5694784"><ele>242.0</ele><time>2026-04-26T09:58:15.936Z</time></trkpt><trkpt lat="44.9215494" lon="9.5694338"><ele>242.0</ele><time>2026-04-26T09:58:16.934Z</time></trkpt><trkpt lat="44.9216931" lon="9.5693897"><ele>242.0</ele><time>2026-04-26T09:58:17.936Z</time></trkpt><trkpt lat="44.9218455" lon="9.5693442"><ele>242.0</ele><time>2026-04-26T09:58:18.937Z</time></trkpt><trkpt lat="44.9220031" lon="9.5693013"><ele>241.66666666666669</ele><time>2026-04-26T09:58:19.936Z</time></trkpt><trkpt lat="44.9221599" lon="9.5692484"><ele>241.33333333333331</ele><time>2026-04-26T09:58:20.942Z</time></trkpt><trkpt lat="44.9223003" lon="9.5691732"><ele>241.0</ele><time>2026-04-26T09:58:21.936Z</time></trkpt><trkpt lat="44.9224241" lon="9.5690603"><ele>241.0</ele><time>2026-04-26T09:58:22.936Z</time></trkpt><trkpt lat="44.9225364" lon="9.5689188"><ele>241.0</ele><time>2026-04-26T09:58:23.936Z</time></trkpt><trkpt lat="44.9226446" lon="9.5687607"><ele>241.0</ele><time>2026-04-26T09:58:24.934Z</time></trkpt><trkpt lat="44.922758" lon="9.5685985"><ele>240.0</ele><time>2026-04-26T09:58:25.94Z</time></trkpt><trkpt lat="44.9228765" lon="9.5684367"><ele>239.0</ele><time>2026-04-26T09:58:26.937Z</time></trkpt><trkpt lat="44.9229972" lon="9.568275"><ele>238.0</ele><time>2026-04-26T09:58:27.934Z</time></trkpt><trkpt lat="44.9231177" lon="9.568113"><ele>238.0</ele><time>2026-04-26T09:58:28.934Z</time></trkpt><trkpt lat="44.9232388" lon="9.5679516"><ele>238.0</ele><time>2026-04-26T09:58:29.933Z</time></trkpt><trkpt lat="44.9233571" lon="9.5677934"><ele>238.0</ele><time>2026-04-26T09:58:30.937Z</time></trkpt><trkpt lat="44.9234692" lon="9.5676501"><ele>237.75</ele><time>2026-04-26T09:58:31.933Z</time></trkpt><trkpt lat="44.9235772" lon="9.5675156"><ele>237.5</ele><time>2026-04-26T09:58:32.934Z</time></trkpt><trkpt lat="44.9236802" lon="9.5673923"><ele>237.25</ele><time>2026-04-26T09:58:33.935Z</time></trkpt><trkpt lat="44.923786" lon="9.5672924"><ele>237.0</ele><time>2026-04-26T09:58:34.934Z</time></trkpt><trkpt lat="44.9239085" lon="9.5672142"><ele>237.0</ele><time>2026-04-26T09:58:35.936Z</time></trkpt><trkpt lat="44.9240484" lon="9.5671492"><ele>237.0</ele><time>2026-04-26T09:58:36.934Z</time></trkpt><trkpt lat="44.9242037" lon="9.5670934"><ele>237.0</ele><time>2026-04-26T09:58:37.934Z</time></trkpt><trkpt lat="44.9243636" lon="9.5670411"><ele>235.66666666666669</ele><time>2026-04-26T09:58:38.936Z</time></trkpt><trkpt lat="44.9245227" lon="9.5669897"><ele>234.33333333333334</ele><time>2026-04-26T09:58:39.934Z</time></trkpt><trkpt lat="44.9246856" lon="9.566938"><ele>233.0</ele><time>2026-04-26T09:58:40.934Z</time></trkpt><trkpt lat="44.9248495" lon="9.5668897"><ele>233.0</ele><time>2026-04-26T09:58:41.942Z</time></trkpt><trkpt lat="44.9250123" lon="9.5668416"><ele>233.0</ele><time>2026-04-26T09:58:42.934Z</time></trkpt><trkpt lat="44.9251757" lon="9.566795"><ele>233.0</ele><time>2026-04-26T09:58:43.934Z</time></trkpt><trkpt lat="44.9253349" lon="9.5667505"><ele>232.75</ele><time>2026-04-26T09:58:44.935Z</time></trkpt><trkpt lat="44.9254845" lon="9.5667116"><ele>232.5</ele><time>2026-04-26T09:58:45.935Z</time></trkpt><trkpt lat="44.9256252" lon="9.5666739"><ele>232.25</ele><time>2026-04-26T09:58:46.94Z</time></trkpt><trkpt lat="44.9257555" lon="9.5666345"><ele>232.0</ele><time>2026-04-26T09:58:47.936Z</time></trkpt><trkpt lat="44.9258762" lon="9.5665917"><ele>231.39999999999998</ele><time>2026-04-26T09:58:48.935Z</time></trkpt><trkpt lat="44.9259882" lon="9.5665539"><ele>230.79999999999998</ele><time>2026-04-26T09:58:49.935Z</time></trkpt><trkpt lat="44.9260932" lon="9.5665231"><ele>230.2</ele><time>2026-04-26T09:58:50.934Z</time></trkpt><trkpt lat="44.9261916" lon="9.5664948"><ele>229.6</ele><time>2026-04-26T09:58:51.934Z</time></trkpt><trkpt lat="44.9262831" lon="9.5664622"><ele>229.0</ele><time>2026-04-26T09:58:52.935Z</time></trkpt><trkpt lat="44.9263595" lon="9.5664243"><ele>228.99999999999997</ele><time>2026-04-26T09:58:53.941Z</time></trkpt><trkpt lat="44.9264242" lon="9.5663856"><ele>229.0</ele><time>2026-04-26T09:58:54.934Z</time></trkpt><trkpt lat="44.9264812" lon="9.5663428"><ele>229.0</ele><time>2026-04-26T09:58:55.933Z</time></trkpt><trkpt lat="44.9265477" lon="9.5662849"><ele>229.0</ele><time>2026-04-26T09:58:57.936Z</time></trkpt><trkpt lat="44.9266064" lon="9.5663622"><ele>228.99999999999997</ele><time>2026-04-26T09:59:00.934Z</time></trkpt><trkpt lat="44.9266151" lon="9.5665594"><ele>229.0</ele><time>2026-04-26T09:59:02.934Z</time></trkpt><trkpt lat="44.9266128" lon="9.5666999"><ele>229.0</ele><time>2026-04-26T09:59:03.934Z</time></trkpt><trkpt lat="44.9266109" lon="9.5668906"><ele>229.0</ele><time>2026-04-26T09:59:04.935Z</time></trkpt><trkpt lat="44.9266113" lon="9.5671002"><ele>229.0</ele><time>2026-04-26T09:59:05.934Z</time></trkpt><trkpt lat="44.9266154" lon="9.567322"><ele>229.0</ele><time>2026-04-26T09:59:06.936Z</time></trkpt><trkpt lat="44.9266201" lon="9.5675471"><ele>228.0</ele><time>2026-04-26T09:59:07.934Z</time></trkpt><trkpt lat="44.9266276" lon="9.5677864"><ele>227.0</ele><time>2026-04-26T09:59:08.937Z</time></trkpt><trkpt lat="44.9266372" lon="9.5680277"><ele>226.0</ele><time>2026-04-26T09:59:09.936Z</time></trkpt><trkpt lat="44.926646" lon="9.5682556"><ele>225.75</ele><time>2026-04-26T09:59:10.936Z</time></trkpt><trkpt lat="44.9266557" lon="9.5684641"><ele>225.5</ele><time>2026-04-26T09:59:11.934Z</time></trkpt><trkpt lat="44.9266628" lon="9.5686618"><ele>225.25</ele><time>2026-04-26T09:59:12.937Z</time></trkpt><trkpt lat="44.9266753" lon="9.5688525"><ele>225.0</ele><time>2026-04-26T09:59:13.934Z</time></trkpt><trkpt lat="44.9267137" lon="9.569038"><ele>224.0</ele><time>2026-04-26T09:59:14.935Z</time></trkpt><trkpt lat="44.9267912" lon="9.5692131"><ele>223.0</ele><time>2026-04-26T09:59:15.936Z</time></trkpt><trkpt lat="44.9268883" lon="9.5693871"><ele>222.0</ele><time>2026-04-26T09:59:16.934Z</time></trkpt><trkpt lat="44.9269903" lon="9.569557"><ele>221.66666666666669</ele><time>2026-04-26T09:59:17.935Z</time></trkpt><trkpt lat="44.927095" lon="9.5697283"><ele>221.33333333333334</ele><time>2026-04-26T09:59:18.936Z</time></trkpt><trkpt lat="44.9271917" lon="9.5699067"><ele>221.0</ele><time>2026-04-26T09:59:19.935Z</time></trkpt><trkpt lat="44.927285" lon="9.5700883"><ele>221.0</ele><time>2026-04-26T09:59:20.936Z</time></trkpt><trkpt lat="44.92738" lon="9.5702667"><ele>221.0</ele><time>2026-04-26T09:59:21.939Z</time></trkpt><trkpt lat="44.927475" lon="9.5704383"><ele>221.0</ele><time>2026-04-26T09:59:22.935Z</time></trkpt><trkpt lat="44.9275733" lon="9.5705967"><ele>220.25</ele><time>2026-04-26T09:59:23.935Z</time></trkpt><trkpt lat="44.9276733" lon="9.57074"><ele>219.5</ele><time>2026-04-26T09:59:24.938Z</time></trkpt><trkpt lat="44.9277733" lon="9.5708683"><ele>218.75</ele><time>2026-04-26T09:59:25.936Z</time></trkpt><trkpt lat="44.9278583" lon="9.5709867"><ele>218.0</ele><time>2026-04-26T09:59:26.942Z</time></trkpt><trkpt lat="44.92792" lon="9.57111"><ele>218.0</ele><time>2026-04-26T09:59:27.935Z</time></trkpt><trkpt lat="44.9279517" lon="9.5712417"><ele>218.0</ele><time>2026-04-26T09:59:28.936Z</time></trkpt><trkpt lat="44.92796" lon="9.5713783"><ele>218.0</ele><time>2026-04-26T09:59:29.935Z</time></trkpt><trkpt lat="44.9279467" lon="9.571525"><ele>218.0</ele><time>2026-04-26T09:59:30.936Z</time></trkpt><trkpt lat="44.92793" lon="9.571675"><ele>218.0</ele><time>2026-04-26T09:59:31.94Z</time></trkpt><trkpt lat="44.927915" lon="9.571835"><ele>218.0</ele><time>2026-04-26T09:59:32.936Z</time></trkpt><trkpt lat="44.9278983" lon="9.5719967"><ele>218.0</ele><time>2026-04-26T09:59:33.936Z</time></trkpt><trkpt lat="44.9278767" lon="9.5721583"><ele>218.0</ele><time>2026-04-26T09:59:34.936Z</time></trkpt><trkpt lat="44.92786" lon="9.572325"><ele>218.0</ele><time>2026-04-26T09:59:35.937Z</time></trkpt><trkpt lat="44.9278417" lon="9.57249"><ele>217.5</ele><time>2026-04-26T09:59:36.939Z</time></trkpt><trkpt lat="44.9278217" lon="9.5726483"><ele>217.0</ele><time>2026-04-26T09:59:37.937Z</time></trkpt><trkpt lat="44.9278" lon="9.572805"><ele>216.5</ele><time>2026-04-26T09:59:38.937Z</time></trkpt><trkpt lat="44.9277767" lon="9.5729667"><ele>216.0</ele><time>2026-04-26T09:59:39.937Z</time></trkpt><trkpt lat="44.9277467" lon="9.5731333"><ele>216.0</ele><time>2026-04-26T09:59:40.935Z</time></trkpt><trkpt lat="44.92772" lon="9.573285"><ele>216.00000000000003</ele><time>2026-04-26T09:59:41.937Z</time></trkpt><trkpt lat="44.9277117" lon="9.57342"><ele>216.00000000000003</ele><time>2026-04-26T09:59:42.937Z</time></trkpt><trkpt lat="44.9277317" lon="9.57354"><ele>216.0</ele><time>2026-04-26T09:59:43.942Z</time></trkpt><trkpt lat="44.92781" lon="9.57364"><ele>216.0</ele><time>2026-04-26T09:59:44.936Z</time></trkpt><trkpt lat="44.9279133" lon="9.5737167"><ele>216.0</ele><time>2026-04-26T09:59:45.935Z</time></trkpt><trkpt lat="44.92803" lon="9.5737817"><ele>216.0</ele><time>2026-04-26T09:59:46.936Z</time></trkpt><trkpt lat="44.928165" lon="9.5738517"><ele>216.0</ele><time>2026-04-26T09:59:47.935Z</time></trkpt><trkpt lat="44.9283117" lon="9.5739283"><ele>216.0</ele><time>2026-04-26T09:59:48.936Z</time></trkpt><trkpt lat="44.9284567" lon="9.57401"><ele>215.0</ele><time>2026-04-26T09:59:49.935Z</time></trkpt><trkpt lat="44.9286033" lon="9.574095"><ele>214.0</ele><time>2026-04-26T09:59:50.935Z</time></trkpt><trkpt lat="44.92876" lon="9.5741867"><ele>213.0</ele><time>2026-04-26T09:59:51.934Z</time></trkpt><trkpt lat="44.9289217" lon="9.57428"><ele>213.0</ele><time>2026-04-26T09:59:52.937Z</time></trkpt><trkpt lat="44.929085" lon="9.574375"><ele>213.0</ele><time>2026-04-26T09:59:53.936Z</time></trkpt><trkpt lat="44.9292517" lon="9.5744683"><ele>213.0</ele><time>2026-04-26T09:59:54.935Z</time></trkpt><trkpt lat="44.92942" lon="9.5745633"><ele>212.0</ele><time>2026-04-26T09:59:55.935Z</time></trkpt><trkpt lat="44.9295883" lon="9.57466"><ele>211.0</ele><time>2026-04-26T09:59:56.935Z</time></trkpt><trkpt lat="44.9297567" lon="9.5747567"><ele>210.0</ele><time>2026-04-26T09:59:57.934Z</time></trkpt><trkpt lat="44.9299217" lon="9.57485"><ele>209.0</ele><time>2026-04-26T09:59:58.934Z</time></trkpt><trkpt lat="44.9300867" lon="9.5749467"><ele>208.0</ele><time>2026-04-26T09:59:59.94Z</time></trkpt><trkpt lat="44.9302467" lon="9.5750433"><ele>207.0</ele><time>2026-04-26T10:00:00.935Z</time></trkpt><trkpt lat="44.9304117" lon="9.575135"><ele>207.0</ele><time>2026-04-26T10:00:01.935Z</time></trkpt><trkpt lat="44.9305767" lon="9.5752033"><ele>207.0</ele><time>2026-04-26T10:00:02.935Z</time></trkpt><trkpt lat="44.93075" lon="9.575255"><ele>207.0</ele><time>2026-04-26T10:00:03.935Z</time></trkpt><trkpt lat="44.9309217" lon="9.5752933"><ele>206.0</ele><time>2026-04-26T10:00:04.935Z</time></trkpt><trkpt lat="44.9310917" lon="9.5753267"><ele>205.0</ele><time>2026-04-26T10:00:05.934Z</time></trkpt><trkpt lat="44.9312583" lon="9.5753583"><ele>204.0</ele><time>2026-04-26T10:00:06.936Z</time></trkpt><trkpt lat="44.9314333" lon="9.5753917"><ele>203.66666666666669</ele><time>2026-04-26T10:00:07.936Z</time></trkpt><trkpt lat="44.93161" lon="9.575425"><ele>203.33333333333334</ele><time>2026-04-26T10:00:08.937Z</time></trkpt><trkpt lat="44.93179" lon="9.5754633"><ele>203.0</ele><time>2026-04-26T10:00:09.937Z</time></trkpt><trkpt lat="44.93197" lon="9.5755017"><ele>202.33333333333334</ele><time>2026-04-26T10:00:10.935Z</time></trkpt><trkpt lat="44.932145" lon="9.5755383"><ele>201.66666666666669</ele><time>2026-04-26T10:00:11.935Z</time></trkpt><trkpt lat="44.9323217" lon="9.5755767"><ele>201.0</ele><time>2026-04-26T10:00:12.935Z</time></trkpt><trkpt lat="44.932495" lon="9.57561"><ele>200.0</ele><time>2026-04-26T10:00:13.941Z</time></trkpt><trkpt lat="44.93267" lon="9.5756433"><ele>199.0</ele><time>2026-04-26T10:00:14.935Z</time></trkpt><trkpt lat="44.9328467" lon="9.5756767"><ele>198.0</ele><time>2026-04-26T10:00:15.935Z</time></trkpt><trkpt lat="44.9330233" lon="9.5757117"><ele>198.0</ele><time>2026-04-26T10:00:16.936Z</time></trkpt><trkpt lat="44.933205" lon="9.5757467"><ele>198.0</ele><time>2026-04-26T10:00:17.934Z</time></trkpt><trkpt lat="44.9333833" lon="9.57578"><ele>198.0</ele><time>2026-04-26T10:00:18.942Z</time></trkpt><trkpt lat="44.933565" lon="9.5758133"><ele>197.66666666666669</ele><time>2026-04-26T10:00:19.935Z</time></trkpt><trkpt lat="44.9337467" lon="9.5758467"><ele>197.33333333333334</ele><time>2026-04-26T10:00:20.936Z</time></trkpt><trkpt lat="44.9339283" lon="9.5758783"><ele>197.0</ele><time>2026-04-26T10:00:21.934Z</time></trkpt><trkpt lat="44.93411" lon="9.57591"><ele>196.33333333333334</ele><time>2026-04-26T10:00:22.934Z</time></trkpt><trkpt lat="44.9342933" lon="9.5759383"><ele>195.66666666666669</ele><time>2026-04-26T10:00:23.935Z</time></trkpt><trkpt lat="44.9344783" lon="9.5759667"><ele>195.0</ele><time>2026-04-26T10:00:24.935Z</time></trkpt><trkpt lat="44.9346633" lon="9.5759867"><ele>195.0</ele><time>2026-04-26T10:00:25.935Z</time></trkpt><trkpt lat="44.9348483" lon="9.57601"><ele>195.0</ele><time>2026-04-26T10:00:26.936Z</time></trkpt><trkpt lat="44.9350367" lon="9.576035"><ele>195.0</ele><time>2026-04-26T10:00:27.935Z</time></trkpt><trkpt lat="44.93522" lon="9.5760633"><ele>194.66666666666669</ele><time>2026-04-26T10:00:28.935Z</time></trkpt><trkpt lat="44.9354033" lon="9.57609"><ele>194.33333333333334</ele><time>2026-04-26T10:00:29.935Z</time></trkpt><trkpt lat="44.9355833" lon="9.5761133"><ele>194.0</ele><time>2026-04-26T10:00:30.936Z</time></trkpt><trkpt lat="44.9357683" lon="9.5761333"><ele>192.66666666666669</ele><time>2026-04-26T10:00:31.938Z</time></trkpt><trkpt lat="44.9359517" lon="9.57615"><ele>191.33333333333334</ele><time>2026-04-26T10:00:32.937Z</time></trkpt><trkpt lat="44.9361317" lon="9.5761683"><ele>190.0</ele><time>2026-04-26T10:00:33.935Z</time></trkpt><trkpt lat="44.9363133" lon="9.5761883"><ele>190.0</ele><time>2026-04-26T10:00:34.936Z</time></trkpt><trkpt lat="44.9364933" lon="9.57621"><ele>190.0</ele><time>2026-04-26T10:00:35.935Z</time></trkpt><trkpt lat="44.9366733" lon="9.5762383"><ele>190.0</ele><time>2026-04-26T10:00:36.939Z</time></trkpt><trkpt lat="44.936855" lon="9.57627"><ele>190.0</ele><time>2026-04-26T10:00:37.935Z</time></trkpt><trkpt lat="44.9370367" lon="9.5763033"><ele>190.0</ele><time>2026-04-26T10:00:38.936Z</time></trkpt><trkpt lat="44.9372167" lon="9.5763467"><ele>190.0</ele><time>2026-04-26T10:00:39.935Z</time></trkpt><trkpt lat="44.937395" lon="9.5764067"><ele>189.33333333333334</ele><time>2026-04-26T10:00:40.936Z</time></trkpt><trkpt lat="44.9375717" lon="9.5764817"><ele>188.66666666666666</ele><time>2026-04-26T10:00:41.934Z</time></trkpt><trkpt lat="44.93775" lon="9.5765633"><ele>188.0</ele><time>2026-04-26T10:00:42.934Z</time></trkpt><trkpt lat="44.9379167" lon="9.5766383"><ele>188.0</ele><time>2026-04-26T10:00:43.935Z</time></trkpt><trkpt lat="44.9380667" lon="9.5767033"><ele>188.0</ele><time>2026-04-26T10:00:44.934Z</time></trkpt><trkpt lat="44.9382067" lon="9.5767483"><ele>188.0</ele><time>2026-04-26T10:00:45.938Z</time></trkpt><trkpt lat="44.9383533" lon="9.5767683"><ele>188.0</ele><time>2026-04-26T10:00:46.934Z</time></trkpt><trkpt lat="44.9385117" lon="9.5767567"><ele>186.66666666666666</ele><time>2026-04-26T10:00:47.936Z</time></trkpt><trkpt lat="44.9386683" lon="9.5767233"><ele>185.33333333333334</ele><time>2026-04-26T10:00:48.936Z</time></trkpt><trkpt lat="44.9388317" lon="9.5766867"><ele>184.0</ele><time>2026-04-26T10:00:49.937Z</time></trkpt><trkpt lat="44.9389967" lon="9.576655"><ele>184.0</ele><time>2026-04-26T10:00:50.935Z</time></trkpt><trkpt lat="44.939165" lon="9.5766217"><ele>184.0</ele><time>2026-04-26T10:00:51.942Z</time></trkpt><trkpt lat="44.9393317" lon="9.5765917"><ele>184.0</ele><time>2026-04-26T10:00:52.935Z</time></trkpt><trkpt lat="44.9394983" lon="9.57656"><ele>183.0</ele><time>2026-04-26T10:00:53.937Z</time></trkpt><trkpt lat="44.9396617" lon="9.57653"><ele>182.0</ele><time>2026-04-26T10:00:54.936Z</time></trkpt><trkpt lat="44.9398183" lon="9.5765033"><ele>181.0</ele><time>2026-04-26T10:00:55.935Z</time></trkpt><trkpt lat="44.939975" lon="9.5764767"><ele>180.0</ele><time>2026-04-26T10:00:56.934Z</time></trkpt><trkpt lat="44.9401267" lon="9.5764533"><ele>179.0</ele><time>2026-04-26T10:00:57.935Z</time></trkpt><trkpt lat="44.940285" lon="9.5764317"><ele>178.0</ele><time>2026-04-26T10:00:58.936Z</time></trkpt><trkpt lat="44.9404467" lon="9.5764083"><ele>178.0</ele><time>2026-04-26T10:00:59.936Z</time></trkpt><trkpt lat="44.9406183" lon="9.5763833"><ele>178.0</ele><time>2026-04-26T10:01:00.936Z</time></trkpt><trkpt lat="44.9407917" lon="9.57636"><ele>178.0</ele><time>2026-04-26T10:01:01.936Z</time></trkpt><trkpt lat="44.940965" lon="9.5763367"><ele>177.66666666666669</ele><time>2026-04-26T10:01:02.936Z</time></trkpt><trkpt lat="44.94114" lon="9.576315"><ele>177.33333333333334</ele><time>2026-04-26T10:01:03.942Z</time></trkpt><trkpt lat="44.9413117" lon="9.5762967"><ele>177.0</ele><time>2026-04-26T10:01:04.937Z</time></trkpt><trkpt lat="44.9414767" lon="9.5762867"><ele>177.0</ele><time>2026-04-26T10:01:05.935Z</time></trkpt><trkpt lat="44.9416383" lon="9.5762967"><ele>177.0</ele><time>2026-04-26T10:01:06.936Z</time></trkpt><trkpt lat="44.9418033" lon="9.5763333"><ele>177.0</ele><time>2026-04-26T10:01:07.934Z</time></trkpt><trkpt lat="44.94197" lon="9.5763917"><ele>176.33333333333334</ele><time>2026-04-26T10:01:08.944Z</time></trkpt><trkpt lat="44.9421417" lon="9.576455"><ele>175.66666666666669</ele><time>2026-04-26T10:01:09.935Z</time></trkpt><trkpt lat="44.942315" lon="9.5765217"><ele>175.0</ele><time>2026-04-26T10:01:10.935Z</time></trkpt><trkpt lat="44.942485" lon="9.5765883"><ele>174.66666666666669</ele><time>2026-04-26T10:01:11.934Z</time></trkpt><trkpt lat="44.9426567" lon="9.5766567"><ele>174.33333333333334</ele><time>2026-04-26T10:01:12.937Z</time></trkpt><trkpt lat="44.9428283" lon="9.5767217"><ele>174.0</ele><time>2026-04-26T10:01:13.935Z</time></trkpt><trkpt lat="44.9430067" lon="9.576785"><ele>174.0</ele><time>2026-04-26T10:01:14.94Z</time></trkpt><trkpt lat="44.9431833" lon="9.57684"><ele>174.0</ele><time>2026-04-26T10:01:15.935Z</time></trkpt><trkpt lat="44.9433583" lon="9.5768917"><ele>174.0</ele><time>2026-04-26T10:01:16.935Z</time></trkpt><trkpt lat="44.943535" lon="9.576945"><ele>173.0</ele><time>2026-04-26T10:01:17.935Z</time></trkpt><trkpt lat="44.94371" lon="9.5769967"><ele>172.0</ele><time>2026-04-26T10:01:18.933Z</time></trkpt><trkpt lat="44.94389" lon="9.5770517"><ele>171.0</ele><time>2026-04-26T10:01:19.936Z</time></trkpt><trkpt lat="44.94407" lon="9.5771083"><ele>171.0</ele><time>2026-04-26T10:01:20.935Z</time></trkpt><trkpt lat="44.94425" lon="9.5771633"><ele>171.0</ele><time>2026-04-26T10:01:21.934Z</time></trkpt><trkpt lat="44.944425" lon="9.57722"><ele>171.0</ele><time>2026-04-26T10:01:22.934Z</time></trkpt><trkpt lat="44.9446033" lon="9.5772717"><ele>171.0</ele><time>2026-04-26T10:01:23.934Z</time></trkpt><trkpt lat="44.9447833" lon="9.5773283"><ele>171.0</ele><time>2026-04-26T10:01:24.939Z</time></trkpt><trkpt lat="44.9449583" lon="9.57738"><ele>171.0</ele><time>2026-04-26T10:01:25.934Z</time></trkpt><trkpt lat="44.9451383" lon="9.57744"><ele>170.0</ele><time>2026-04-26T10:01:26.934Z</time></trkpt><trkpt lat="44.9453133" lon="9.577505"><ele>169.0</ele><time>2026-04-26T10:01:27.933Z</time></trkpt><trkpt lat="44.9454883" lon="9.5775683"><ele>168.0</ele><time>2026-04-26T10:01:28.934Z</time></trkpt><trkpt lat="44.9456617" lon="9.5776317"><ele>168.0</ele><time>2026-04-26T10:01:29.934Z</time></trkpt><trkpt lat="44.9458367" lon="9.5776967"><ele>168.0</ele><time>2026-04-26T10:01:30.936Z</time></trkpt><trkpt lat="44.9460133" lon="9.57777"><ele>168.0</ele><time>2026-04-26T10:01:31.935Z</time></trkpt><trkpt lat="44.9461833" lon="9.577845"><ele>165.66666666666666</ele><time>2026-04-26T10:01:32.937Z</time></trkpt><trkpt lat="44.9463433" lon="9.577915"><ele>163.33333333333331</ele><time>2026-04-26T10:01:33.933Z</time></trkpt><trkpt lat="44.9465067" lon="9.577985"><ele>161.0</ele><time>2026-04-26T10:01:34.933Z</time></trkpt><trkpt lat="44.94667" lon="9.5780633"><ele>160.5</ele><time>2026-04-26T10:01:35.933Z</time></trkpt><trkpt lat="44.946825" lon="9.57814"><ele>160.0</ele><time>2026-04-26T10:01:36.935Z</time></trkpt><trkpt lat="44.9469633" lon="9.5782183"><ele>159.5</ele><time>2026-04-26T10:01:37.934Z</time></trkpt><trkpt lat="44.9470817" lon="9.578285"><ele>159.0</ele><time>2026-04-26T10:01:38.934Z</time></trkpt><trkpt lat="44.94718" lon="9.5783467"><ele>159.0</ele><time>2026-04-26T10:01:39.933Z</time></trkpt><trkpt lat="44.9472517" lon="9.578395"><ele>159.0</ele><time>2026-04-26T10:01:40.936Z</time></trkpt><trkpt lat="44.947335" lon="9.57847"><ele>159.0</ele><time>2026-04-26T10:01:42.934Z</time></trkpt><trkpt lat="44.947425" lon="9.57853"><ele>159.0</ele><time>2026-04-26T10:02:17.934Z</time></trkpt><trkpt lat="44.94751" lon="9.5785833"><ele>159.0</ele><time>2026-04-26T10:02:18.935Z</time></trkpt><trkpt lat="44.9476067" lon="9.5786433"><ele>157.75</ele><time>2026-04-26T10:02:19.934Z</time></trkpt><trkpt lat="44.9477167" lon="9.5787167"><ele>156.5</ele><time>2026-04-26T10:02:20.936Z</time></trkpt><trkpt lat="44.9478383" lon="9.5788"><ele>155.25</ele><time>2026-04-26T10:02:21.935Z</time></trkpt><trkpt lat="44.94797" lon="9.578875"><ele>154.0</ele><time>2026-04-26T10:02:22.934Z</time></trkpt><trkpt lat="44.9481167" lon="9.5789317"><ele>154.0</ele><time>2026-04-26T10:02:23.934Z</time></trkpt><trkpt lat="44.94828" lon="9.57896"><ele>154.0</ele><time>2026-04-26T10:02:24.944Z</time></trkpt><trkpt lat="44.94845" lon="9.57897"><ele>154.0</ele><time>2026-04-26T10:02:25.935Z</time></trkpt><trkpt lat="44.948625" lon="9.57897"><ele>155.0</ele><time>2026-04-26T10:02:26.934Z</time></trkpt><trkpt lat="44.9488" lon="9.578965"><ele>156.0</ele><time>2026-04-26T10:02:27.935Z</time></trkpt><trkpt lat="44.9489667" lon="9.57896"><ele>157.0</ele><time>2026-04-26T10:02:28.935Z</time></trkpt><trkpt lat="44.9491333" lon="9.5789583"><ele>155.66666666666669</ele><time>2026-04-26T10:02:29.935Z</time></trkpt><trkpt lat="44.949305" lon="9.5789567"><ele>154.33333333333334</ele><time>2026-04-26T10:02:30.934Z</time></trkpt><trkpt lat="44.949475" lon="9.578965"><ele>153.0</ele><time>2026-04-26T10:02:31.942Z</time></trkpt><trkpt lat="44.94964" lon="9.578975"><ele>153.0</ele><time>2026-04-26T10:02:32.936Z</time></trkpt><trkpt lat="44.94981" lon="9.57899"><ele>153.0</ele><time>2026-04-26T10:02:33.936Z</time></trkpt><trkpt lat="44.9499867" lon="9.5789967"><ele>153.0</ele><time>2026-04-26T10:02:34.936Z</time></trkpt><trkpt lat="44.9501583" lon="9.5789917"><ele>152.0</ele><time>2026-04-26T10:02:35.937Z</time></trkpt><trkpt lat="44.9503217" lon="9.5789633"><ele>151.0</ele><time>2026-04-26T10:02:36.935Z</time></trkpt><trkpt lat="44.9504783" lon="9.5789117"><ele>150.0</ele><time>2026-04-26T10:02:37.935Z</time></trkpt><trkpt lat="44.9506217" lon="9.57884"><ele>150.0</ele><time>2026-04-26T10:02:38.934Z</time></trkpt><trkpt lat="44.950765" lon="9.5787617"><ele>150.0</ele><time>2026-04-26T10:02:39.935Z</time></trkpt><trkpt lat="44.9509117" lon="9.5786817"><ele>150.0</ele><time>2026-04-26T10:02:40.935Z</time></trkpt><trkpt lat="44.9510567" lon="9.5786017"><ele>149.0</ele><time>2026-04-26T10:02:41.935Z</time></trkpt><trkpt lat="44.9512" lon="9.57852"><ele>148.0</ele><time>2026-04-26T10:02:42.934Z</time></trkpt><trkpt lat="44.9513367" lon="9.578435"><ele>147.0</ele><time>2026-04-26T10:02:43.935Z</time></trkpt><trkpt lat="44.9514733" lon="9.57835"><ele>147.0</ele><time>2026-04-26T10:02:44.934Z</time></trkpt><trkpt lat="44.9516067" lon="9.5782683"><ele>147.0</ele><time>2026-04-26T10:02:45.934Z</time></trkpt><trkpt lat="44.9517533" lon="9.5781983"><ele>147.0</ele><time>2026-04-26T10:02:46.939Z</time></trkpt><trkpt lat="44.95191" lon="9.57816"><ele>145.33333333333334</ele><time>2026-04-26T10:02:47.934Z</time></trkpt><trkpt lat="44.9520817" lon="9.5781467"><ele>143.66666666666669</ele><time>2026-04-26T10:02:48.933Z</time></trkpt><trkpt lat="44.9522617" lon="9.57816"><ele>142.0</ele><time>2026-04-26T10:02:49.934Z</time></trkpt><trkpt lat="44.9524367" lon="9.5781833"><ele>141.25</ele><time>2026-04-26T10:02:50.934Z</time></trkpt><trkpt lat="44.9526" lon="9.57821"><ele>140.5</ele><time>2026-04-26T10:02:51.94Z</time></trkpt><trkpt lat="44.9527467" lon="9.5782317"><ele>139.75</ele><time>2026-04-26T10:02:52.935Z</time></trkpt><trkpt lat="44.952875" lon="9.57825"><ele>139.0</ele><time>2026-04-26T10:02:53.933Z</time></trkpt><trkpt lat="44.9529783" lon="9.5782617"><ele>139.0</ele><time>2026-04-26T10:02:54.935Z</time></trkpt><trkpt lat="44.953055" lon="9.5782733"><ele>139.0</ele><time>2026-04-26T10:02:55.935Z</time></trkpt><trkpt lat="44.9531183" lon="9.578295"><ele>139.0</ele><time>2026-04-26T10:02:57.933Z</time></trkpt><trkpt lat="44.9531667" lon="9.5784183"><ele>139.0</ele><time>2026-04-26T10:03:01.936Z</time></trkpt><trkpt lat="44.9531583" lon="9.5785183"><ele>139.0</ele><time>2026-04-26T10:03:02.937Z</time></trkpt><trkpt lat="44.953135" lon="9.5786517"><ele>139.0</ele><time>2026-04-26T10:03:03.937Z</time></trkpt><trkpt lat="44.953105" lon="9.5788017"><ele>139.0</ele><time>2026-04-26T10:03:04.937Z</time></trkpt><trkpt lat="44.953075" lon="9.5789767"><ele>139.0</ele><time>2026-04-26T10:03:05.937Z</time></trkpt><trkpt lat="44.9530383" lon="9.5791533"><ele>139.0</ele><time>2026-04-26T10:03:06.934Z</time></trkpt><trkpt lat="44.9530033" lon="9.5793483"><ele>139.0</ele><time>2026-04-26T10:03:07.938Z</time></trkpt><trkpt lat="44.9529667" lon="9.57955"><ele>139.0</ele><time>2026-04-26T10:03:08.941Z</time></trkpt><trkpt lat="44.9529317" lon="9.5797583"><ele>139.0</ele><time>2026-04-26T10:03:09.94Z</time></trkpt><trkpt lat="44.952905" lon="9.5799767"><ele>139.0</ele><time>2026-04-26T10:03:10.935Z</time></trkpt><trkpt lat="44.95288" lon="9.5802017"><ele>137.33333333333334</ele><time>2026-04-26T10:03:11.935Z</time></trkpt><trkpt lat="44.9528633" lon="9.5804333"><ele>135.66666666666666</ele><time>2026-04-26T10:03:12.936Z</time></trkpt><trkpt lat="44.9528483" lon="9.5806617"><ele>134.0</ele><time>2026-04-26T10:03:13.934Z</time></trkpt><trkpt lat="44.9528333" lon="9.58089"><ele>134.0</ele><time>2026-04-26T10:03:14.937Z</time></trkpt><trkpt lat="44.9528183" lon="9.5811267"><ele>134.0</ele><time>2026-04-26T10:03:15.935Z</time></trkpt><trkpt lat="44.9528067" lon="9.5813767"><ele>134.0</ele><time>2026-04-26T10:03:16.934Z</time></trkpt><trkpt lat="44.9527933" lon="9.5816267"><ele>134.33333333333331</ele><time>2026-04-26T10:03:17.937Z</time></trkpt><trkpt lat="44.9527817" lon="9.5818767"><ele>134.66666666666666</ele><time>2026-04-26T10:03:18.935Z</time></trkpt><trkpt lat="44.95277" lon="9.5821183"><ele>135.0</ele><time>2026-04-26T10:03:19.936Z</time></trkpt><trkpt lat="44.9527567" lon="9.5823567"><ele>136.33333333333334</ele><time>2026-04-26T10:03:20.936Z</time></trkpt><trkpt lat="44.9527483" lon="9.5825917"><ele>137.66666666666669</ele><time>2026-04-26T10:03:21.934Z</time></trkpt><trkpt lat="44.9527317" lon="9.5828233"><ele>139.0</ele><time>2026-04-26T10:03:22.934Z</time></trkpt><trkpt lat="44.9527067" lon="9.58305"><ele>139.33333333333334</ele><time>2026-04-26T10:03:23.935Z</time></trkpt><trkpt lat="44.95267" lon="9.5832633"><ele>139.66666666666666</ele><time>2026-04-26T10:03:24.94Z</time></trkpt><trkpt lat="44.952625" lon="9.58346"><ele>140.0</ele><time>2026-04-26T10:03:25.936Z</time></trkpt><trkpt lat="44.9525717" lon="9.5836567"><ele>140.5</ele><time>2026-04-26T10:03:26.934Z</time></trkpt><trkpt lat="44.95252" lon="9.583855"><ele>141.0</ele><time>2026-04-26T10:03:27.935Z</time></trkpt><trkpt lat="44.95247" lon="9.58405"><ele>141.5</ele><time>2026-04-26T10:03:28.936Z</time></trkpt><trkpt lat="44.9524217" lon="9.58424"><ele>142.0</ele><time>2026-04-26T10:03:29.934Z</time></trkpt><trkpt lat="44.952375" lon="9.5844283"><ele>141.25</ele><time>2026-04-26T10:03:30.934Z</time></trkpt><trkpt lat="44.952335" lon="9.5846183"><ele>140.5</ele><time>2026-04-26T10:03:31.934Z</time></trkpt><trkpt lat="44.9523033" lon="9.5848217"><ele>139.75</ele><time>2026-04-26T10:03:32.934Z</time></trkpt><trkpt lat="44.9522867" lon="9.5850383"><ele>139.0</ele><time>2026-04-26T10:03:33.934Z</time></trkpt><trkpt lat="44.95228" lon="9.58527"><ele>138.33333333333334</ele><time>2026-04-26T10:03:34.934Z</time></trkpt><trkpt lat="44.9522717" lon="9.5854983"><ele>137.66666666666666</ele><time>2026-04-26T10:03:35.935Z</time></trkpt><trkpt lat="44.952265" lon="9.585715"><ele>137.0</ele><time>2026-04-26T10:03:36.935Z</time></trkpt><trkpt lat="44.95226" lon="9.5859167"><ele>137.0</ele><time>2026-04-26T10:03:37.934Z</time></trkpt><trkpt lat="44.952255" lon="9.5861083"><ele>137.0</ele><time>2026-04-26T10:03:38.939Z</time></trkpt><trkpt lat="44.9522517" lon="9.58629"><ele>137.0</ele><time>2026-04-26T10:03:39.934Z</time></trkpt><trkpt lat="44.9522467" lon="9.586475"><ele>137.0</ele><time>2026-04-26T10:03:40.933Z</time></trkpt><trkpt lat="44.9522367" lon="9.5866633"><ele>136.79999999999998</ele><time>2026-04-26T10:03:41.935Z</time></trkpt><trkpt lat="44.9522283" lon="9.5868517"><ele>136.6</ele><time>2026-04-26T10:03:42.934Z</time></trkpt><trkpt lat="44.9522167" lon="9.5870167"><ele>136.39999999999998</ele><time>2026-04-26T10:03:43.933Z</time></trkpt><trkpt lat="44.95221" lon="9.5871467"><ele>136.2</ele><time>2026-04-26T10:03:44.935Z</time></trkpt><trkpt lat="44.952205" lon="9.5872517"><ele>136.0</ele><time>2026-04-26T10:03:45.935Z</time></trkpt><trkpt lat="44.9522333" lon="9.5873617"><ele>135.6</ele><time>2026-04-26T10:03:47.933Z</time></trkpt><trkpt lat="44.952335" lon="9.58738"><ele>135.2</ele><time>2026-04-26T10:03:49.934Z</time></trkpt><trkpt lat="44.9524117" lon="9.5873633"><ele>134.8</ele><time>2026-04-26T10:03:50.936Z</time></trkpt><trkpt lat="44.9525067" lon="9.5873167"><ele>134.4</ele><time>2026-04-26T10:03:51.934Z</time></trkpt><trkpt lat="44.9526133" lon="9.58725"><ele>134.0</ele><time>2026-04-26T10:03:52.94Z</time></trkpt><trkpt lat="44.9527317" lon="9.58718"><ele>133.0</ele><time>2026-04-26T10:03:53.935Z</time></trkpt><trkpt lat="44.9528483" lon="9.5871183"><ele>132.0</ele><time>2026-04-26T10:03:54.935Z</time></trkpt><trkpt lat="44.95296" lon="9.587075"><ele>131.0</ele><time>2026-04-26T10:03:55.936Z</time></trkpt><trkpt lat="44.95307" lon="9.5870467"><ele>130.0</ele><time>2026-04-26T10:03:56.935Z</time></trkpt><trkpt lat="44.9531767" lon="9.587035"><ele>130.0</ele><time>2026-04-26T10:03:57.939Z</time></trkpt><trkpt lat="44.95328" lon="9.5870367"><ele>130.0</ele><time>2026-04-26T10:03:58.934Z</time></trkpt><trkpt lat="44.9533833" lon="9.58705"><ele>130.0</ele><time>2026-04-26T10:03:59.935Z</time></trkpt><trkpt lat="44.953485" lon="9.5870767"><ele>130.0</ele><time>2026-04-26T10:04:00.935Z</time></trkpt><trkpt lat="44.9535867" lon="9.5871117"><ele>130.0</ele><time>2026-04-26T10:04:01.936Z</time></trkpt><trkpt lat="44.9536883" lon="9.5871483"><ele>130.0</ele><time>2026-04-26T10:04:02.936Z</time></trkpt><trkpt lat="44.9537917" lon="9.58719"><ele>130.0</ele><time>2026-04-26T10:04:03.934Z</time></trkpt><trkpt lat="44.9538933" lon="9.587235"><ele>130.0</ele><time>2026-04-26T10:04:04.935Z</time></trkpt><trkpt lat="44.9539983" lon="9.5872817"><ele>130.0</ele><time>2026-04-26T10:04:05.935Z</time></trkpt><trkpt lat="44.954105" lon="9.5873283"><ele>130.0</ele><time>2026-04-26T10:04:06.939Z</time></trkpt><trkpt lat="44.9542117" lon="9.5873767"><ele>130.0</ele><time>2026-04-26T10:04:07.936Z</time></trkpt><trkpt lat="44.95432" lon="9.5874233"><ele>130.0</ele><time>2026-04-26T10:04:08.937Z</time></trkpt><trkpt lat="44.9544267" lon="9.58747"><ele>130.0</ele><time>2026-04-26T10:04:09.934Z</time></trkpt><trkpt lat="44.954535" lon="9.5875167"><ele>130.0</ele><time>2026-04-26T10:04:10.934Z</time></trkpt><trkpt lat="44.954645" lon="9.5875633"><ele>130.0</ele><time>2026-04-26T10:04:11.934Z</time></trkpt><trkpt lat="44.9547567" lon="9.58761"><ele>130.0</ele><time>2026-04-26T10:04:12.935Z</time></trkpt><trkpt lat="44.9548667" lon="9.587655"><ele>130.0</ele><time>2026-04-26T10:04:13.94Z</time></trkpt><trkpt lat="44.95497" lon="9.5876967"><ele>130.0</ele><time>2026-04-26T10:04:14.934Z</time></trkpt><trkpt lat="44.9550717" lon="9.5877283"><ele>130.0</ele><time>2026-04-26T10:04:15.934Z</time></trkpt><trkpt lat="44.955175" lon="9.587745"><ele>129.5</ele><time>2026-04-26T10:04:16.935Z</time></trkpt><trkpt lat="44.955285" lon="9.58775"><ele>129.0</ele><time>2026-04-26T10:04:17.934Z</time></trkpt><trkpt lat="44.9554033" lon="9.5877433"><ele>128.5</ele><time>2026-04-26T10:04:18.937Z</time></trkpt><trkpt lat="44.9555233" lon="9.5877317"><ele>128.0</ele><time>2026-04-26T10:04:19.935Z</time></trkpt><trkpt lat="44.95565" lon="9.58771"><ele>128.0</ele><time>2026-04-26T10:04:20.943Z</time></trkpt><trkpt lat="44.9557833" lon="9.58768"><ele>128.0</ele><time>2026-04-26T10:04:21.937Z</time></trkpt><trkpt lat="44.955935" lon="9.5876417"><ele>128.0</ele><time>2026-04-26T10:04:22.937Z</time></trkpt><trkpt lat="44.956095" lon="9.5876017"><ele>128.0</ele><time>2026-04-26T10:04:23.936Z</time></trkpt><trkpt lat="44.9562583" lon="9.5875583"><ele>128.0</ele><time>2026-04-26T10:04:24.942Z</time></trkpt><trkpt lat="44.9564233" lon="9.5875117"><ele>128.0</ele><time>2026-04-26T10:04:25.937Z</time></trkpt><trkpt lat="44.95659" lon="9.587475"><ele>127.33333333333333</ele><time>2026-04-26T10:04:26.938Z</time></trkpt><trkpt lat="44.9567583" lon="9.587465"><ele>126.66666666666666</ele><time>2026-04-26T10:04:27.937Z</time></trkpt><trkpt lat="44.9569233" lon="9.58749"><ele>126.0</ele><time>2026-04-26T10:04:28.936Z</time></trkpt><trkpt lat="44.95709" lon="9.5875317"><ele>126.0</ele><time>2026-04-26T10:04:29.935Z</time></trkpt><trkpt lat="44.9572567" lon="9.5875783"><ele>126.0</ele><time>2026-04-26T10:04:30.935Z</time></trkpt><trkpt lat="44.957425" lon="9.5876267"><ele>126.0</ele><time>2026-04-26T10:04:31.934Z</time></trkpt><trkpt lat="44.957595" lon="9.5876767"><ele>126.0</ele><time>2026-04-26T10:04:32.939Z</time></trkpt><trkpt lat="44.95776" lon="9.58771"><ele>126.0</ele><time>2026-04-26T10:04:33.935Z</time></trkpt><trkpt lat="44.9579217" lon="9.5877383"><ele>126.0</ele><time>2026-04-26T10:04:34.933Z</time></trkpt><trkpt lat="44.958085" lon="9.5877533"><ele>126.0</ele><time>2026-04-26T10:04:35.936Z</time></trkpt><trkpt lat="44.9582517" lon="9.58774"><ele>126.0</ele><time>2026-04-26T10:04:36.934Z</time></trkpt><trkpt lat="44.958415" lon="9.5876967"><ele>126.0</ele><time>2026-04-26T10:04:37.94Z</time></trkpt><trkpt lat="44.9585767" lon="9.587635"><ele>125.33333333333334</ele><time>2026-04-26T10:04:38.935Z</time></trkpt><trkpt lat="44.9587417" lon="9.58756"><ele>124.66666666666667</ele><time>2026-04-26T10:04:39.936Z</time></trkpt><trkpt lat="44.958905" lon="9.5874933"><ele>124.0</ele><time>2026-04-26T10:04:40.935Z</time></trkpt><trkpt lat="44.9590683" lon="9.5874317"><ele>123.66666666666667</ele><time>2026-04-26T10:04:41.934Z</time></trkpt><trkpt lat="44.9592333" lon="9.58737"><ele>123.33333333333334</ele><time>2026-04-26T10:04:42.937Z</time></trkpt><trkpt lat="44.9593967" lon="9.5873017"><ele>123.0</ele><time>2026-04-26T10:04:43.935Z</time></trkpt><trkpt lat="44.9595617" lon="9.5872333"><ele>123.0</ele><time>2026-04-26T10:04:44.943Z</time></trkpt><trkpt lat="44.959725" lon="9.5871667"><ele>123.0</ele><time>2026-04-26T10:04:45.936Z</time></trkpt><trkpt lat="44.9598867" lon="9.58711"><ele>123.0</ele><time>2026-04-26T10:04:46.935Z</time></trkpt><trkpt lat="44.960045" lon="9.58706"><ele>122.33333333333334</ele><time>2026-04-26T10:04:47.935Z</time></trkpt><trkpt lat="44.9602083" lon="9.587015"><ele>121.66666666666667</ele><time>2026-04-26T10:04:48.936Z</time></trkpt><trkpt lat="44.96037" lon="9.5869717"><ele>121.0</ele><time>2026-04-26T10:04:49.934Z</time></trkpt><trkpt lat="44.9605317" lon="9.5869217"><ele>121.0</ele><time>2026-04-26T10:04:50.936Z</time></trkpt><trkpt lat="44.9606967" lon="9.5868733"><ele>121.0</ele><time>2026-04-26T10:04:51.941Z</time></trkpt><trkpt lat="44.960855" lon="9.5868183"><ele>121.0</ele><time>2026-04-26T10:04:52.934Z</time></trkpt><trkpt lat="44.961015" lon="9.5867667"><ele>121.33333333333334</ele><time>2026-04-26T10:04:53.934Z</time></trkpt><trkpt lat="44.9611767" lon="9.586715"><ele>121.66666666666666</ele><time>2026-04-26T10:04:54.934Z</time></trkpt><trkpt lat="44.9613333" lon="9.5866667"><ele>122.0</ele><time>2026-04-26T10:04:55.934Z</time></trkpt><trkpt lat="44.96149" lon="9.5866233"><ele>122.0</ele><time>2026-04-26T10:04:56.935Z</time></trkpt><trkpt lat="44.96165" lon="9.58658"><ele>122.0</ele><time>2026-04-26T10:04:57.934Z</time></trkpt><trkpt lat="44.96181" lon="9.5865367"><ele>122.0</ele><time>2026-04-26T10:04:58.94Z</time></trkpt><trkpt lat="44.9619683" lon="9.58649"><ele>121.33333333333333</ele><time>2026-04-26T10:04:59.934Z</time></trkpt><trkpt lat="44.9621267" lon="9.58644"><ele>120.66666666666666</ele><time>2026-04-26T10:05:00.934Z</time></trkpt><trkpt lat="44.9622833" lon="9.5863933"><ele>120.0</ele><time>2026-04-26T10:05:01.934Z</time></trkpt><trkpt lat="44.9624417" lon="9.58635"><ele>118.66666666666666</ele><time>2026-04-26T10:05:02.935Z</time></trkpt><trkpt lat="44.9626" lon="9.5863083"><ele>117.33333333333333</ele><time>2026-04-26T10:05:03.94Z</time></trkpt><trkpt lat="44.96276" lon="9.5862617"><ele>116.0</ele><time>2026-04-26T10:05:04.934Z</time></trkpt><trkpt lat="44.96292" lon="9.58621"><ele>115.66666666666666</ele><time>2026-04-26T10:05:05.934Z</time></trkpt><trkpt lat="44.9630783" lon="9.5861617"><ele>115.33333333333334</ele><time>2026-04-26T10:05:06.936Z</time></trkpt><trkpt lat="44.963235" lon="9.5861167"><ele>115.0</ele><time>2026-04-26T10:05:07.935Z</time></trkpt><trkpt lat="44.9633967" lon="9.5860717"><ele>115.0</ele><time>2026-04-26T10:05:08.941Z</time></trkpt><trkpt lat="44.963555" lon="9.5860267"><ele>115.0</ele><time>2026-04-26T10:05:09.934Z</time></trkpt><trkpt lat="44.963705" lon="9.5859833"><ele>115.0</ele><time>2026-04-26T10:05:10.934Z</time></trkpt><trkpt lat="44.9638433" lon="9.5859383"><ele>115.0</ele><time>2026-04-26T10:05:11.935Z</time></trkpt><trkpt lat="44.9639733" lon="9.5858967"><ele>115.0</ele><time>2026-04-26T10:05:12.935Z</time></trkpt><trkpt lat="44.9640917" lon="9.58586"><ele>115.0</ele><time>2026-04-26T10:05:13.937Z</time></trkpt><trkpt lat="44.964195" lon="9.58583"><ele>115.0</ele><time>2026-04-26T10:05:14.934Z</time></trkpt><trkpt lat="44.9642883" lon="9.585815"><ele>114.4</ele><time>2026-04-26T10:05:15.938Z</time></trkpt><trkpt lat="44.96437" lon="9.5858367"><ele>113.8</ele><time>2026-04-26T10:05:16.936Z</time></trkpt><trkpt lat="44.9644317" lon="9.5858933"><ele>113.19999999999999</ele><time>2026-04-26T10:05:17.935Z</time></trkpt><trkpt lat="44.964475" lon="9.5860067"><ele>112.6</ele><time>2026-04-26T10:05:18.934Z</time></trkpt><trkpt lat="44.96449" lon="9.5861967"><ele>112.0</ele><time>2026-04-26T10:05:19.934Z</time></trkpt><trkpt lat="44.9644833" lon="9.5864033"><ele>112.0</ele><time>2026-04-26T10:05:20.937Z</time></trkpt><trkpt lat="44.96446" lon="9.5866317"><ele>112.0</ele><time>2026-04-26T10:05:21.94Z</time></trkpt><trkpt lat="44.96444" lon="9.5868717"><ele>112.0</ele><time>2026-04-26T10:05:22.935Z</time></trkpt><trkpt lat="44.964425" lon="9.5871267"><ele>110.66666666666667</ele><time>2026-04-26T10:05:23.935Z</time></trkpt><trkpt lat="44.96441" lon="9.58739"><ele>109.33333333333334</ele><time>2026-04-26T10:05:24.935Z</time></trkpt><trkpt lat="44.9643933" lon="9.58765"><ele>108.0</ele><time>2026-04-26T10:05:25.937Z</time></trkpt><trkpt lat="44.9643783" lon="9.58791"><ele>107.33333333333334</ele><time>2026-04-26T10:05:26.937Z</time></trkpt><trkpt lat="44.9643633" lon="9.58817"><ele>106.66666666666667</ele><time>2026-04-26T10:05:27.936Z</time></trkpt><trkpt lat="44.964345" lon="9.5884267"><ele>106.0</ele><time>2026-04-26T10:05:28.943Z</time></trkpt><trkpt lat="44.9643283" lon="9.58868"><ele>105.33333333333334</ele><time>2026-04-26T10:05:29.938Z</time></trkpt><trkpt lat="44.96431" lon="9.588935"><ele>104.66666666666666</ele><time>2026-04-26T10:05:30.938Z</time></trkpt><trkpt lat="44.96429" lon="9.589185"><ele>104.0</ele><time>2026-04-26T10:05:31.935Z</time></trkpt><trkpt lat="44.9642733" lon="9.5894283"><ele>103.33333333333333</ele><time>2026-04-26T10:05:32.936Z</time></trkpt><trkpt lat="44.9642533" lon="9.5896683"><ele>102.66666666666666</ele><time>2026-04-26T10:05:33.935Z</time></trkpt><trkpt lat="44.9642367" lon="9.5899133"><ele>102.0</ele><time>2026-04-26T10:05:34.935Z</time></trkpt><trkpt lat="44.9642233" lon="9.5901633"><ele>102.0</ele><time>2026-04-26T10:05:35.935Z</time></trkpt><trkpt lat="44.9642067" lon="9.5904083"><ele>102.0</ele><time>2026-04-26T10:05:36.937Z</time></trkpt><trkpt lat="44.9641917" lon="9.5906533"><ele>102.0</ele><time>2026-04-26T10:05:37.937Z</time></trkpt><trkpt lat="44.964175" lon="9.590895"><ele>102.0</ele><time>2026-04-26T10:05:38.936Z</time></trkpt><trkpt lat="44.9641617" lon="9.5911433"><ele>102.0</ele><time>2026-04-26T10:05:39.936Z</time></trkpt><trkpt lat="44.9641467" lon="9.5913933"><ele>102.0</ele><time>2026-04-26T10:05:40.935Z</time></trkpt><trkpt lat="44.9641283" lon="9.5916467"><ele>101.66666666666666</ele><time>2026-04-26T10:05:41.934Z</time></trkpt><trkpt lat="44.96411" lon="9.5918983"><ele>101.33333333333333</ele><time>2026-04-26T10:05:42.935Z</time></trkpt><trkpt lat="44.9640917" lon="9.5921533"><ele>101.0</ele><time>2026-04-26T10:05:43.935Z</time></trkpt><trkpt lat="44.9640767" lon="9.592405"><ele>101.0</ele><time>2026-04-26T10:05:44.935Z</time></trkpt><trkpt lat="44.9640583" lon="9.5926583"><ele>101.0</ele><time>2026-04-26T10:05:45.94Z</time></trkpt><trkpt lat="44.9640417" lon="9.5929133"><ele>101.0</ele><time>2026-04-26T10:05:46.935Z</time></trkpt><trkpt lat="44.964025" lon="9.593165"><ele>101.0</ele><time>2026-04-26T10:05:47.936Z</time></trkpt><trkpt lat="44.96401" lon="9.59341"><ele>101.0</ele><time>2026-04-26T10:05:48.935Z</time></trkpt><trkpt lat="44.963995" lon="9.5936583"><ele>101.0</ele><time>2026-04-26T10:05:49.935Z</time></trkpt><trkpt lat="44.96398" lon="9.593905"><ele>100.66666666666666</ele><time>2026-04-26T10:05:50.943Z</time></trkpt><trkpt lat="44.963965" lon="9.5941517"><ele>100.33333333333334</ele><time>2026-04-26T10:05:51.935Z</time></trkpt><trkpt lat="44.9639467" lon="9.5943983"><ele>100.0</ele><time>2026-04-26T10:05:52.936Z</time></trkpt><trkpt lat="44.96393" lon="9.5946433"><ele>100.0</ele><time>2026-04-26T10:05:53.937Z</time></trkpt><trkpt lat="44.96391" lon="9.59489"><ele>100.0</ele><time>2026-04-26T10:05:54.935Z</time></trkpt><trkpt lat="44.9638933" lon="9.5951417"><ele>100.0</ele><time>2026-04-26T10:05:55.934Z</time></trkpt><trkpt lat="44.9638833" lon="9.5953983"><ele>100.0</ele><time>2026-04-26T10:05:56.942Z</time></trkpt><trkpt lat="44.96387" lon="9.5956517"><ele>100.0</ele><time>2026-04-26T10:05:57.936Z</time></trkpt><trkpt lat="44.963855" lon="9.595905"><ele>100.0</ele><time>2026-04-26T10:05:58.934Z</time></trkpt><trkpt lat="44.9638383" lon="9.5961583"><ele>100.33333333333334</ele><time>2026-04-26T10:05:59.937Z</time></trkpt><trkpt lat="44.9638167" lon="9.5964133"><ele>100.66666666666666</ele><time>2026-04-26T10:06:00.936Z</time></trkpt><trkpt lat="44.9637983" lon="9.5966683"><ele>101.0</ele><time>2026-04-26T10:06:01.935Z</time></trkpt><trkpt lat="44.9637783" lon="9.5969267"><ele>101.0</ele><time>2026-04-26T10:06:02.94Z</time></trkpt><trkpt lat="44.9637617" lon="9.597185"><ele>101.0</ele><time>2026-04-26T10:06:03.936Z</time></trkpt><trkpt lat="44.9637467" lon="9.59745"><ele>101.0</ele><time>2026-04-26T10:06:04.934Z</time></trkpt><trkpt lat="44.96373" lon="9.5977067"><ele>101.66666666666666</ele><time>2026-04-26T10:06:05.936Z</time></trkpt><trkpt lat="44.9637167" lon="9.5979633"><ele>102.33333333333334</ele><time>2026-04-26T10:06:06.936Z</time></trkpt><trkpt lat="44.9637017" lon="9.5982133"><ele>103.0</ele><time>2026-04-26T10:06:07.936Z</time></trkpt><trkpt lat="44.963685" lon="9.598465"><ele>103.66666666666667</ele><time>2026-04-26T10:06:08.937Z</time></trkpt><trkpt lat="44.9636683" lon="9.5987167"><ele>104.33333333333334</ele><time>2026-04-26T10:06:09.936Z</time></trkpt><trkpt lat="44.9636533" lon="9.5989733"><ele>105.0</ele><time>2026-04-26T10:06:10.934Z</time></trkpt><trkpt lat="44.9636383" lon="9.59923"><ele>105.0</ele><time>2026-04-26T10:06:11.934Z</time></trkpt><trkpt lat="44.96362" lon="9.5994833"><ele>105.0</ele><time>2026-04-26T10:06:12.938Z</time></trkpt><trkpt lat="44.9635983" lon="9.59974"><ele>105.0</ele><time>2026-04-26T10:06:13.938Z</time></trkpt><trkpt lat="44.963575" lon="9.5999933"><ele>104.66666666666666</ele><time>2026-04-26T10:06:14.939Z</time></trkpt><trkpt lat="44.9635567" lon="9.6002467"><ele>104.33333333333333</ele><time>2026-04-26T10:06:15.938Z</time></trkpt><trkpt lat="44.963545" lon="9.6005033"><ele>104.0</ele><time>2026-04-26T10:06:16.936Z</time></trkpt><trkpt lat="44.9635433" lon="9.60076"><ele>104.0</ele><time>2026-04-26T10:06:17.939Z</time></trkpt><trkpt lat="44.9635433" lon="9.601015"><ele>104.0</ele><time>2026-04-26T10:06:18.934Z</time></trkpt><trkpt lat="44.9635533" lon="9.6012717"><ele>104.0</ele><time>2026-04-26T10:06:19.935Z</time></trkpt><trkpt lat="44.9635733" lon="9.6015233"><ele>103.66666666666666</ele><time>2026-04-26T10:06:20.934Z</time></trkpt><trkpt lat="44.963605" lon="9.601765"><ele>103.33333333333334</ele><time>2026-04-26T10:06:21.935Z</time></trkpt><trkpt lat="44.9636517" lon="9.602005"><ele>103.0</ele><time>2026-04-26T10:06:22.935Z</time></trkpt><trkpt lat="44.96372" lon="9.602235"><ele>103.66666666666667</ele><time>2026-04-26T10:06:23.934Z</time></trkpt><trkpt lat="44.963805" lon="9.6024567"><ele>104.33333333333334</ele><time>2026-04-26T10:06:24.934Z</time></trkpt><trkpt lat="44.9639017" lon="9.602665"><ele>105.0</ele><time>2026-04-26T10:06:25.934Z</time></trkpt><trkpt lat="44.96401" lon="9.6028617"><ele>105.0</ele><time>2026-04-26T10:06:26.938Z</time></trkpt><trkpt lat="44.9641333" lon="9.60304"><ele>105.0</ele><time>2026-04-26T10:06:27.935Z</time></trkpt><trkpt lat="44.96427" lon="9.6032017"><ele>105.0</ele><time>2026-04-26T10:06:28.934Z</time></trkpt><trkpt lat="44.964415" lon="9.60334"><ele>105.0</ele><time>2026-04-26T10:06:29.935Z</time></trkpt><trkpt lat="44.9645667" lon="9.60346"><ele>105.0</ele><time>2026-04-26T10:06:30.933Z</time></trkpt><trkpt lat="44.9647317" lon="9.6035633"><ele>105.0</ele><time>2026-04-26T10:06:31.934Z</time></trkpt><trkpt lat="44.964905" lon="9.6036383"><ele>105.0</ele><time>2026-04-26T10:06:32.934Z</time></trkpt><trkpt lat="44.9650817" lon="9.60369"><ele>105.0</ele><time>2026-04-26T10:06:34.015Z</time></trkpt><trkpt lat="44.9652583" lon="9.60372"><ele>105.0</ele><time>2026-04-26T10:06:34.935Z</time></trkpt><trkpt lat="44.9654383" lon="9.603735"><ele>105.0</ele><time>2026-04-26T10:06:35.936Z</time></trkpt><trkpt lat="44.96562" lon="9.60374"><ele>105.0</ele><time>2026-04-26T10:06:36.933Z</time></trkpt><trkpt lat="44.9658" lon="9.6037283"><ele>105.0</ele><time>2026-04-26T10:06:37.935Z</time></trkpt><trkpt lat="44.9659817" lon="9.6037033"><ele>104.66666666666666</ele><time>2026-04-26T10:06:38.935Z</time></trkpt><trkpt lat="44.966165" lon="9.6036733"><ele>104.33333333333333</ele><time>2026-04-26T10:06:39.936Z</time></trkpt><trkpt lat="44.96635" lon="9.6036467"><ele>104.0</ele><time>2026-04-26T10:06:40.933Z</time></trkpt><trkpt lat="44.9665283" lon="9.6036233"><ele>104.33333333333333</ele><time>2026-04-26T10:06:41.934Z</time></trkpt><trkpt lat="44.9667083" lon="9.6036017"><ele>104.66666666666666</ele><time>2026-04-26T10:06:42.933Z</time></trkpt><trkpt lat="44.96689" lon="9.6035833"><ele>105.0</ele><time>2026-04-26T10:06:43.934Z</time></trkpt><trkpt lat="44.9670733" lon="9.6035733"><ele>105.0</ele><time>2026-04-26T10:06:44.935Z</time></trkpt><trkpt lat="44.9672567" lon="9.60357"><ele>105.0</ele><time>2026-04-26T10:06:45.934Z</time></trkpt><trkpt lat="44.96744" lon="9.603585"><ele>105.0</ele><time>2026-04-26T10:06:46.934Z</time></trkpt><trkpt lat="44.9676217" lon="9.6036133"><ele>104.66666666666666</ele><time>2026-04-26T10:06:47.933Z</time></trkpt><trkpt lat="44.967805" lon="9.6036533"><ele>104.33333333333333</ele><time>2026-04-26T10:06:48.935Z</time></trkpt><trkpt lat="44.9679867" lon="9.6037017"><ele>104.0</ele><time>2026-04-26T10:06:49.934Z</time></trkpt><trkpt lat="44.968165" lon="9.603765"><ele>104.0</ele><time>2026-04-26T10:06:50.935Z</time></trkpt><trkpt lat="44.9683383" lon="9.6038417"><ele>104.0</ele><time>2026-04-26T10:06:51.934Z</time></trkpt><trkpt lat="44.9685083" lon="9.60393"><ele>104.0</ele><time>2026-04-26T10:06:52.935Z</time></trkpt><trkpt lat="44.96867" lon="9.6040283"><ele>104.66666666666666</ele><time>2026-04-26T10:06:53.935Z</time></trkpt><trkpt lat="44.96883" lon="9.6041333"><ele>105.33333333333334</ele><time>2026-04-26T10:06:54.933Z</time></trkpt><trkpt lat="44.9689833" lon="9.6042417"><ele>106.0</ele><time>2026-04-26T10:06:55.933Z</time></trkpt><trkpt lat="44.9691333" lon="9.6043633"><ele>105.33333333333334</ele><time>2026-04-26T10:06:56.935Z</time></trkpt><trkpt lat="44.9692783" lon="9.6044967"><ele>104.66666666666666</ele><time>2026-04-26T10:06:57.933Z</time></trkpt><trkpt lat="44.96942" lon="9.60464"><ele>104.0</ele><time>2026-04-26T10:06:58.934Z</time></trkpt><trkpt lat="44.9695517" lon="9.60479"><ele>104.0</ele><time>2026-04-26T10:06:59.933Z</time></trkpt><trkpt lat="44.9696717" lon="9.6049383"><ele>104.0</ele><time>2026-04-26T10:07:00.934Z</time></trkpt><trkpt lat="44.96978" lon="9.6050817"><ele>104.0</ele><time>2026-04-26T10:07:01.94Z</time></trkpt><trkpt lat="44.9698767" lon="9.6052233"><ele>104.0</ele><time>2026-04-26T10:07:02.933Z</time></trkpt><trkpt lat="44.96996" lon="9.6053583"><ele>103.4</ele><time>2026-04-26T10:07:03.933Z</time></trkpt><trkpt lat="44.970035" lon="9.6054817"><ele>102.80000000000001</ele><time>2026-04-26T10:07:04.933Z</time></trkpt><trkpt lat="44.9701" lon="9.6055983"><ele>102.19999999999999</ele><time>2026-04-26T10:07:05.933Z</time></trkpt><trkpt lat="44.970155" lon="9.6056983"><ele>101.6</ele><time>2026-04-26T10:07:06.94Z</time></trkpt><trkpt lat="44.9701983" lon="9.6057833"><ele>101.0</ele><time>2026-04-26T10:07:07.933Z</time></trkpt><trkpt lat="44.9702533" lon="9.60586"><ele>101.0</ele><time>2026-04-26T10:07:09.934Z</time></trkpt><trkpt lat="44.9703433" lon="9.60589"><ele>101.0</ele><time>2026-04-26T10:07:15.934Z</time></trkpt><trkpt lat="44.9704583" lon="9.6057883"><ele>101.0</ele><time>2026-04-26T10:07:17.933Z</time></trkpt><trkpt lat="44.970555" lon="9.6056833"><ele>101.0</ele><time>2026-04-26T10:07:18.939Z</time></trkpt><trkpt lat="44.9706733" lon="9.6055867"><ele>101.0</ele><time>2026-04-26T10:07:19.934Z</time></trkpt><trkpt lat="44.9708167" lon="9.605505"><ele>101.0</ele><time>2026-04-26T10:07:20.934Z</time></trkpt><trkpt lat="44.9709833" lon="9.6054417"><ele>101.0</ele><time>2026-04-26T10:07:21.935Z</time></trkpt><trkpt lat="44.9711617" lon="9.605405"><ele>101.33333333333333</ele><time>2026-04-26T10:07:22.933Z</time></trkpt><trkpt lat="44.9713517" lon="9.6054117"><ele>101.66666666666666</ele><time>2026-04-26T10:07:23.934Z</time></trkpt><trkpt lat="44.9715367" lon="9.6054517"><ele>102.0</ele><time>2026-04-26T10:07:24.933Z</time></trkpt><trkpt lat="44.9717167" lon="9.6054967"><ele>101.0</ele><time>2026-04-26T10:07:25.938Z</time></trkpt><trkpt lat="44.9719" lon="9.6055333"><ele>100.0</ele><time>2026-04-26T10:07:26.935Z</time></trkpt><trkpt lat="44.9720817" lon="9.6055617"><ele>99.0</ele><time>2026-04-26T10:07:27.934Z</time></trkpt><trkpt lat="44.97226" lon="9.6055867"><ele>99.0</ele><time>2026-04-26T10:07:28.934Z</time></trkpt><trkpt lat="44.9724383" lon="9.60561"><ele>99.0</ele><time>2026-04-26T10:07:29.935Z</time></trkpt><trkpt lat="44.9726117" lon="9.60563"><ele>99.0</ele><time>2026-04-26T10:07:30.94Z</time></trkpt><trkpt lat="44.9727883" lon="9.6056467"><ele>99.33333333333334</ele><time>2026-04-26T10:07:31.935Z</time></trkpt><trkpt lat="44.9729633" lon="9.6056583"><ele>99.66666666666667</ele><time>2026-04-26T10:07:32.934Z</time></trkpt><trkpt lat="44.973135" lon="9.60567"><ele>100.0</ele><time>2026-04-26T10:07:33.935Z</time></trkpt><trkpt lat="44.973305" lon="9.6056817"><ele>100.33333333333334</ele><time>2026-04-26T10:07:34.935Z</time></trkpt><trkpt lat="44.9734767" lon="9.605695"><ele>100.66666666666666</ele><time>2026-04-26T10:07:35.934Z</time></trkpt><trkpt lat="44.97365" lon="9.605705"><ele>101.0</ele><time>2026-04-26T10:07:36.933Z</time></trkpt><trkpt lat="44.9738233" lon="9.6057133"><ele>101.0</ele><time>2026-04-26T10:07:37.934Z</time></trkpt><trkpt lat="44.9739967" lon="9.6057167"><ele>101.0</ele><time>2026-04-26T10:07:38.935Z</time></trkpt><trkpt lat="44.9741733" lon="9.60572"><ele>101.0</ele><time>2026-04-26T10:07:39.939Z</time></trkpt><trkpt lat="44.97435" lon="9.6057267"><ele>101.0</ele><time>2026-04-26T10:07:40.933Z</time></trkpt><trkpt lat="44.97453" lon="9.6057383"><ele>101.0</ele><time>2026-04-26T10:07:41.935Z</time></trkpt><trkpt lat="44.9747083" lon="9.6057533"><ele>101.0</ele><time>2026-04-26T10:07:42.935Z</time></trkpt><trkpt lat="44.9748833" lon="9.6057717"><ele>99.66666666666666</ele><time>2026-04-26T10:07:43.935Z</time></trkpt><trkpt lat="44.9750583" lon="9.6058017"><ele>98.33333333333334</ele><time>2026-04-26T10:07:44.936Z</time></trkpt><trkpt lat="44.975235" lon="9.6058417"><ele>97.0</ele><time>2026-04-26T10:07:45.934Z</time></trkpt><trkpt lat="44.9754133" lon="9.605895"><ele>97.0</ele><time>2026-04-26T10:07:46.935Z</time></trkpt><trkpt lat="44.9755867" lon="9.605935"><ele>97.0</ele><time>2026-04-26T10:07:47.933Z</time></trkpt><trkpt lat="44.975765" lon="9.6059733"><ele>97.0</ele><time>2026-04-26T10:07:48.934Z</time></trkpt><trkpt lat="44.9759433" lon="9.60601"><ele>97.33333333333334</ele><time>2026-04-26T10:07:49.935Z</time></trkpt><trkpt lat="44.9761183" lon="9.6060483"><ele>97.66666666666666</ele><time>2026-04-26T10:07:50.94Z</time></trkpt><trkpt lat="44.976295" lon="9.6060917"><ele>98.0</ele><time>2026-04-26T10:07:51.935Z</time></trkpt><trkpt lat="44.9764717" lon="9.6061367"><ele>98.0</ele><time>2026-04-26T10:07:52.936Z</time></trkpt><trkpt lat="44.97665" lon="9.6061833"><ele>98.0</ele><time>2026-04-26T10:07:53.935Z</time></trkpt><trkpt lat="44.9768317" lon="9.60623"><ele>98.0</ele><time>2026-04-26T10:07:54.934Z</time></trkpt><trkpt lat="44.97701" lon="9.6062767"><ele>98.0</ele><time>2026-04-26T10:07:55.937Z</time></trkpt><trkpt lat="44.9771917" lon="9.60632"><ele>98.0</ele><time>2026-04-26T10:07:56.934Z</time></trkpt><trkpt lat="44.97737" lon="9.6063633"><ele>98.0</ele><time>2026-04-26T10:07:57.934Z</time></trkpt><trkpt lat="44.9775483" lon="9.6064067"><ele>98.33333333333333</ele><time>2026-04-26T10:07:58.933Z</time></trkpt><trkpt lat="44.9777233" lon="9.6064433"><ele>98.66666666666666</ele><time>2026-04-26T10:07:59.934Z</time></trkpt><trkpt lat="44.9778983" lon="9.606485"><ele>99.0</ele><time>2026-04-26T10:08:00.942Z</time></trkpt><trkpt lat="44.978075" lon="9.6065283"><ele>99.0</ele><time>2026-04-26T10:08:01.933Z</time></trkpt><trkpt lat="44.97825" lon="9.60657"><ele>99.0</ele><time>2026-04-26T10:08:02.935Z</time></trkpt><trkpt lat="44.9784267" lon="9.6066117"><ele>99.0</ele><time>2026-04-26T10:08:03.935Z</time></trkpt><trkpt lat="44.9786017" lon="9.606655"><ele>97.66666666666667</ele><time>2026-04-26T10:08:04.934Z</time></trkpt><trkpt lat="44.9787767" lon="9.6066967"><ele>96.33333333333334</ele><time>2026-04-26T10:08:05.935Z</time></trkpt><trkpt lat="44.9789483" lon="9.6067383"><ele>95.0</ele><time>2026-04-26T10:08:06.933Z</time></trkpt><trkpt lat="44.9791183" lon="9.6067817"><ele>95.66666666666667</ele><time>2026-04-26T10:08:07.935Z</time></trkpt><trkpt lat="44.97929" lon="9.60683"><ele>96.33333333333334</ele><time>2026-04-26T10:08:08.934Z</time></trkpt><trkpt lat="44.9794583" lon="9.6068717"><ele>97.0</ele><time>2026-04-26T10:08:09.935Z</time></trkpt><trkpt lat="44.9796283" lon="9.6069117"><ele>97.0</ele><time>2026-04-26T10:08:10.935Z</time></trkpt><trkpt lat="44.9798" lon="9.6069467"><ele>97.0</ele><time>2026-04-26T10:08:11.938Z</time></trkpt><trkpt lat="44.9799733" lon="9.6069767"><ele>97.0</ele><time>2026-04-26T10:08:12.934Z</time></trkpt><trkpt lat="44.9801467" lon="9.6070017"><ele>96.0</ele><time>2026-04-26T10:08:13.934Z</time></trkpt><trkpt lat="44.98032" lon="9.60702"><ele>95.0</ele><time>2026-04-26T10:08:14.933Z</time></trkpt><trkpt lat="44.9804933" lon="9.6070317"><ele>94.0</ele><time>2026-04-26T10:08:15.934Z</time></trkpt><trkpt lat="44.9806683" lon="9.6070367"><ele>94.0</ele><time>2026-04-26T10:08:16.934Z</time></trkpt><trkpt lat="44.9808433" lon="9.6070383"><ele>94.0</ele><time>2026-04-26T10:08:17.933Z</time></trkpt><trkpt lat="44.98102" lon="9.6070417"><ele>94.0</ele><time>2026-04-26T10:08:18.933Z</time></trkpt><trkpt lat="44.981195" lon="9.6070417"><ele>94.0</ele><time>2026-04-26T10:08:19.933Z</time></trkpt><trkpt lat="44.9813733" lon="9.6070367"><ele>94.0</ele><time>2026-04-26T10:08:20.935Z</time></trkpt><trkpt lat="44.9815533" lon="9.6070317"><ele>94.0</ele><time>2026-04-26T10:08:21.934Z</time></trkpt><trkpt lat="44.9817283" lon="9.6070267"><ele>94.33333333333333</ele><time>2026-04-26T10:08:22.933Z</time></trkpt><trkpt lat="44.9819033" lon="9.607025"><ele>94.66666666666667</ele><time>2026-04-26T10:08:23.935Z</time></trkpt><trkpt lat="44.98207" lon="9.6070183"><ele>95.0</ele><time>2026-04-26T10:08:24.934Z</time></trkpt><trkpt lat="44.9822283" lon="9.6070133"><ele>95.0</ele><time>2026-04-26T10:08:25.935Z</time></trkpt><trkpt lat="44.9823833" lon="9.6070117"><ele>95.0</ele><time>2026-04-26T10:08:26.935Z</time></trkpt><trkpt lat="44.98254" lon="9.6070083"><ele>95.0</ele><time>2026-04-26T10:08:27.933Z</time></trkpt><trkpt lat="44.982705" lon="9.607005"><ele>95.0</ele><time>2026-04-26T10:08:28.934Z</time></trkpt><trkpt lat="44.9828717" lon="9.6070017"><ele>95.0</ele><time>2026-04-26T10:08:29.934Z</time></trkpt><trkpt lat="44.98304" lon="9.606995"><ele>95.0</ele><time>2026-04-26T10:08:30.935Z</time></trkpt><trkpt lat="44.98321" lon="9.60699"><ele>95.0</ele><time>2026-04-26T10:08:31.934Z</time></trkpt><trkpt lat="44.9833833" lon="9.6069883"><ele>95.0</ele><time>2026-04-26T10:08:32.935Z</time></trkpt><trkpt lat="44.983555" lon="9.6069883"><ele>95.0</ele><time>2026-04-26T10:08:33.933Z</time></trkpt><trkpt lat="44.9837267" lon="9.6069833"><ele>95.0</ele><time>2026-04-26T10:08:34.937Z</time></trkpt><trkpt lat="44.9839017" lon="9.6069767"><ele>95.0</ele><time>2026-04-26T10:08:35.935Z</time></trkpt><trkpt lat="44.9840717" lon="9.6069683"><ele>95.0</ele><time>2026-04-26T10:08:36.933Z</time></trkpt><trkpt lat="44.9842467" lon="9.606965"><ele>94.66666666666667</ele><time>2026-04-26T10:08:37.933Z</time></trkpt><trkpt lat="44.98443" lon="9.6069633"><ele>94.33333333333333</ele><time>2026-04-26T10:08:38.936Z</time></trkpt><trkpt lat="44.984605" lon="9.60696"><ele>94.0</ele><time>2026-04-26T10:08:39.934Z</time></trkpt><trkpt lat="44.9847817" lon="9.6069633"><ele>94.0</ele><time>2026-04-26T10:08:40.934Z</time></trkpt><trkpt lat="44.9849583" lon="9.6069817"><ele>94.0</ele><time>2026-04-26T10:08:41.935Z</time></trkpt><trkpt lat="44.9851333" lon="9.607005"><ele>94.0</ele><time>2026-04-26T10:08:42.933Z</time></trkpt><trkpt lat="44.985305" lon="9.6070267"><ele>93.66666666666666</ele><time>2026-04-26T10:08:43.933Z</time></trkpt><trkpt lat="44.9854717" lon="9.6070533"><ele>93.33333333333333</ele><time>2026-04-26T10:08:44.935Z</time></trkpt><trkpt lat="44.9856417" lon="9.607085"><ele>93.0</ele><time>2026-04-26T10:08:45.937Z</time></trkpt><trkpt lat="44.9858083" lon="9.607125"><ele>93.33333333333333</ele><time>2026-04-26T10:08:46.936Z</time></trkpt><trkpt lat="44.985975" lon="9.6071767"><ele>93.66666666666666</ele><time>2026-04-26T10:08:47.933Z</time></trkpt><trkpt lat="44.9861433" lon="9.6072383"><ele>94.0</ele><time>2026-04-26T10:08:48.934Z</time></trkpt><trkpt lat="44.9863133" lon="9.607305"><ele>94.0</ele><time>2026-04-26T10:08:49.935Z</time></trkpt><trkpt lat="44.9864817" lon="9.60738"><ele>94.0</ele><time>2026-04-26T10:08:50.934Z</time></trkpt><trkpt lat="44.98665" lon="9.6074567"><ele>94.0</ele><time>2026-04-26T10:08:51.934Z</time></trkpt><trkpt lat="44.9868133" lon="9.6075367"><ele>93.66666666666666</ele><time>2026-04-26T10:08:52.933Z</time></trkpt><trkpt lat="44.986975" lon="9.6076233"><ele>93.33333333333333</ele><time>2026-04-26T10:08:53.933Z</time></trkpt><trkpt lat="44.9871317" lon="9.60772"><ele>93.0</ele><time>2026-04-26T10:08:54.934Z</time></trkpt><trkpt lat="44.987285" lon="9.607835"><ele>92.66666666666667</ele><time>2026-04-26T10:08:55.934Z</time></trkpt><trkpt lat="44.987435" lon="9.6079533"><ele>92.33333333333334</ele><time>2026-04-26T10:08:56.936Z</time></trkpt><trkpt lat="44.9875867" lon="9.6080667"><ele>92.0</ele><time>2026-04-26T10:08:57.934Z</time></trkpt><trkpt lat="44.9877367" lon="9.6081817"><ele>92.66666666666667</ele><time>2026-04-26T10:08:58.933Z</time></trkpt><trkpt lat="44.987885" lon="9.6083033"><ele>93.33333333333333</ele><time>2026-04-26T10:08:59.933Z</time></trkpt><trkpt lat="44.98803" lon="9.6084333"><ele>94.0</ele><time>2026-04-26T10:09:00.934Z</time></trkpt><trkpt lat="44.9881767" lon="9.608565"><ele>93.33333333333333</ele><time>2026-04-26T10:09:01.939Z</time></trkpt><trkpt lat="44.9883233" lon="9.6086983"><ele>92.66666666666667</ele><time>2026-04-26T10:09:02.935Z</time></trkpt><trkpt lat="44.9884683" lon="9.60883"><ele>92.0</ele><time>2026-04-26T10:09:03.933Z</time></trkpt><trkpt lat="44.9886117" lon="9.60896"><ele>91.66666666666667</ele><time>2026-04-26T10:09:04.935Z</time></trkpt><trkpt lat="44.988755" lon="9.6090883"><ele>91.33333333333333</ele><time>2026-04-26T10:09:05.935Z</time></trkpt><trkpt lat="44.9888983" lon="9.6092167"><ele>91.0</ele><time>2026-04-26T10:09:06.935Z</time></trkpt><trkpt lat="44.9890417" lon="9.609345"><ele>91.0</ele><time>2026-04-26T10:09:07.935Z</time></trkpt><trkpt lat="44.989185" lon="9.6094767"><ele>91.0</ele><time>2026-04-26T10:09:08.936Z</time></trkpt><trkpt lat="44.9893267" lon="9.60961"><ele>91.0</ele><time>2026-04-26T10:09:09.943Z</time></trkpt><trkpt lat="44.9894717" lon="9.6097483"><ele>91.0</ele><time>2026-04-26T10:09:10.936Z</time></trkpt><trkpt lat="44.9896183" lon="9.60988"><ele>91.0</ele><time>2026-04-26T10:09:11.934Z</time></trkpt><trkpt lat="44.989765" lon="9.61001"><ele>91.0</ele><time>2026-04-26T10:09:12.933Z</time></trkpt><trkpt lat="44.9899133" lon="9.61014"><ele>90.66666666666666</ele><time>2026-04-26T10:09:13.935Z</time></trkpt><trkpt lat="44.9900633" lon="9.61027"><ele>90.33333333333333</ele><time>2026-04-26T10:09:14.934Z</time></trkpt><trkpt lat="44.9902133" lon="9.6104067"><ele>90.0</ele><time>2026-04-26T10:09:15.933Z</time></trkpt><trkpt lat="44.990365" lon="9.6105417"><ele>90.66666666666667</ele><time>2026-04-26T10:09:16.943Z</time></trkpt><trkpt lat="44.990515" lon="9.6106783"><ele>91.33333333333334</ele><time>2026-04-26T10:09:17.935Z</time></trkpt><trkpt lat="44.9906667" lon="9.610815"><ele>92.0</ele><time>2026-04-26T10:09:18.934Z</time></trkpt><trkpt lat="44.990815" lon="9.6109467"><ele>91.66666666666667</ele><time>2026-04-26T10:09:19.935Z</time></trkpt><trkpt lat="44.9909667" lon="9.6110783"><ele>91.33333333333333</ele><time>2026-04-26T10:09:20.935Z</time></trkpt><trkpt lat="44.9911183" lon="9.61121"><ele>91.0</ele><time>2026-04-26T10:09:21.935Z</time></trkpt><trkpt lat="44.99127" lon="9.6113417"><ele>90.66666666666666</ele><time>2026-04-26T10:09:22.934Z</time></trkpt><trkpt lat="44.9914183" lon="9.6114683"><ele>90.33333333333333</ele><time>2026-04-26T10:09:23.94Z</time></trkpt><trkpt lat="44.99157" lon="9.6115933"><ele>90.0</ele><time>2026-04-26T10:09:24.936Z</time></trkpt><trkpt lat="44.9917167" lon="9.6117183"><ele>90.0</ele><time>2026-04-26T10:09:25.935Z</time></trkpt><trkpt lat="44.99186" lon="9.6118417"><ele>90.0</ele><time>2026-04-26T10:09:26.936Z</time></trkpt><trkpt lat="44.9920033" lon="9.6119667"><ele>90.0</ele><time>2026-04-26T10:09:27.936Z</time></trkpt><trkpt lat="44.9921467" lon="9.6120983"><ele>90.0</ele><time>2026-04-26T10:09:28.935Z</time></trkpt><trkpt lat="44.9922917" lon="9.6122317"><ele>90.0</ele><time>2026-04-26T10:09:29.935Z</time></trkpt><trkpt lat="44.9924383" lon="9.6123617"><ele>90.0</ele><time>2026-04-26T10:09:30.935Z</time></trkpt><trkpt lat="44.9925867" lon="9.6124917"><ele>90.33333333333333</ele><time>2026-04-26T10:09:31.935Z</time></trkpt><trkpt lat="44.9927367" lon="9.6126183"><ele>90.66666666666666</ele><time>2026-04-26T10:09:32.939Z</time></trkpt><trkpt lat="44.9928867" lon="9.612745"><ele>91.0</ele><time>2026-04-26T10:09:33.935Z</time></trkpt><trkpt lat="44.9930383" lon="9.61287"><ele>91.33333333333333</ele><time>2026-04-26T10:09:34.935Z</time></trkpt><trkpt lat="44.9931867" lon="9.6129967"><ele>91.66666666666667</ele><time>2026-04-26T10:09:35.934Z</time></trkpt><trkpt lat="44.9933367" lon="9.613125"><ele>92.0</ele><time>2026-04-26T10:09:36.934Z</time></trkpt><trkpt lat="44.993485" lon="9.61326"><ele>91.33333333333334</ele><time>2026-04-26T10:09:37.939Z</time></trkpt><trkpt lat="44.9936333" lon="9.6134"><ele>90.66666666666667</ele><time>2026-04-26T10:09:38.937Z</time></trkpt><trkpt lat="44.9937817" lon="9.6135433"><ele>90.0</ele><time>2026-04-26T10:09:39.934Z</time></trkpt><trkpt lat="44.99393" lon="9.6136867"><ele>90.0</ele><time>2026-04-26T10:09:40.935Z</time></trkpt><trkpt lat="44.994075" lon="9.6138317"><ele>90.0</ele><time>2026-04-26T10:09:41.934Z</time></trkpt><trkpt lat="44.9942183" lon="9.6139767"><ele>90.0</ele><time>2026-04-26T10:09:42.933Z</time></trkpt><trkpt lat="44.9943617" lon="9.6141267"><ele>89.0</ele><time>2026-04-26T10:09:43.935Z</time></trkpt><trkpt lat="44.9945017" lon="9.6142767"><ele>88.0</ele><time>2026-04-26T10:09:44.935Z</time></trkpt><trkpt lat="44.9946433" lon="9.614425"><ele>87.0</ele><time>2026-04-26T10:09:45.934Z</time></trkpt><trkpt lat="44.9947867" lon="9.6145733"><ele>86.66666666666667</ele><time>2026-04-26T10:09:46.934Z</time></trkpt><trkpt lat="44.9949283" lon="9.6147183"><ele>86.33333333333334</ele><time>2026-04-26T10:09:47.935Z</time></trkpt><trkpt lat="44.99507" lon="9.6148617"><ele>86.0</ele><time>2026-04-26T10:09:48.941Z</time></trkpt><trkpt lat="44.99521" lon="9.6150033"><ele>86.66666666666667</ele><time>2026-04-26T10:09:49.935Z</time></trkpt><trkpt lat="44.9953483" lon="9.61515"><ele>87.33333333333333</ele><time>2026-04-26T10:09:50.936Z</time></trkpt><trkpt lat="44.9954833" lon="9.6153"><ele>88.0</ele><time>2026-04-26T10:09:51.937Z</time></trkpt><trkpt lat="44.9956167" lon="9.61545"><ele>88.33333333333333</ele><time>2026-04-26T10:09:52.934Z</time></trkpt><trkpt lat="44.9957483" lon="9.6155967"><ele>88.66666666666667</ele><time>2026-04-26T10:09:53.945Z</time></trkpt><trkpt lat="44.9958817" lon="9.61574"><ele>89.0</ele><time>2026-04-26T10:09:54.936Z</time></trkpt><trkpt lat="44.99602" lon="9.6158833"><ele>89.0</ele><time>2026-04-26T10:09:55.935Z</time></trkpt><trkpt lat="44.99616" lon="9.6160283"><ele>89.0</ele><time>2026-04-26T10:09:56.934Z</time></trkpt><trkpt lat="44.9963017" lon="9.6161717"><ele>89.0</ele><time>2026-04-26T10:09:57.934Z</time></trkpt><trkpt lat="44.996445" lon="9.6163167"><ele>89.0</ele><time>2026-04-26T10:09:58.938Z</time></trkpt><trkpt lat="44.99659" lon="9.6164633"><ele>89.0</ele><time>2026-04-26T10:09:59.933Z</time></trkpt><trkpt lat="44.9967317" lon="9.616615"><ele>89.0</ele><time>2026-04-26T10:10:00.935Z</time></trkpt><trkpt lat="44.9968717" lon="9.6167667"><ele>88.66666666666667</ele><time>2026-04-26T10:10:01.933Z</time></trkpt><trkpt lat="44.9970117" lon="9.6169133"><ele>88.33333333333333</ele><time>2026-04-26T10:10:02.934Z</time></trkpt><trkpt lat="44.9971517" lon="9.6170633"><ele>88.0</ele><time>2026-04-26T10:10:03.934Z</time></trkpt><trkpt lat="44.99729" lon="9.6172133"><ele>88.0</ele><time>2026-04-26T10:10:04.936Z</time></trkpt><trkpt lat="44.9974317" lon="9.6173633"><ele>88.0</ele><time>2026-04-26T10:10:05.935Z</time></trkpt><trkpt lat="44.9975733" lon="9.61751"><ele>88.0</ele><time>2026-04-26T10:10:06.935Z</time></trkpt><trkpt lat="44.9977117" lon="9.617655"><ele>87.0</ele><time>2026-04-26T10:10:07.94Z</time></trkpt><trkpt lat="44.9978517" lon="9.6177967"><ele>86.0</ele><time>2026-04-26T10:10:08.934Z</time></trkpt><trkpt lat="44.9979933" lon="9.61794"><ele>85.0</ele><time>2026-04-26T10:10:09.934Z</time></trkpt><trkpt lat="44.998135" lon="9.618085"><ele>85.0</ele><time>2026-04-26T10:10:10.938Z</time></trkpt><trkpt lat="44.998275" lon="9.6182317"><ele>85.0</ele><time>2026-04-26T10:10:11.935Z</time></trkpt><trkpt lat="44.998415" lon="9.6183783"><ele>85.0</ele><time>2026-04-26T10:10:12.939Z</time></trkpt><trkpt lat="44.9985533" lon="9.6185233"><ele>85.33333333333333</ele><time>2026-04-26T10:10:13.934Z</time></trkpt><trkpt lat="44.9986933" lon="9.6186667"><ele>85.66666666666667</ele><time>2026-04-26T10:10:14.935Z</time></trkpt><trkpt lat="44.9988317" lon="9.6188133"><ele>86.0</ele><time>2026-04-26T10:10:15.935Z</time></trkpt><trkpt lat="44.9989667" lon="9.6189667"><ele>86.0</ele><time>2026-04-26T10:10:16.935Z</time></trkpt><trkpt lat="44.9990967" lon="9.61913"><ele>86.0</ele><time>2026-04-26T10:10:17.936Z</time></trkpt><trkpt lat="44.99922" lon="9.6193"><ele>86.0</ele><time>2026-04-26T10:10:18.937Z</time></trkpt><trkpt lat="44.9993383" lon="9.6194733"><ele>86.0</ele><time>2026-04-26T10:10:19.938Z</time></trkpt><trkpt lat="44.9994567" lon="9.6196517"><ele>86.0</ele><time>2026-04-26T10:10:20.936Z</time></trkpt><trkpt lat="44.9995733" lon="9.6198317"><ele>86.0</ele><time>2026-04-26T10:10:21.935Z</time></trkpt><trkpt lat="44.99969" lon="9.6200117"><ele>86.0</ele><time>2026-04-26T10:10:22.934Z</time></trkpt><trkpt lat="44.999805" lon="9.620195"><ele>86.0</ele><time>2026-04-26T10:10:23.937Z</time></trkpt><trkpt lat="44.99992" lon="9.6203833"><ele>86.0</ele><time>2026-04-26T10:10:24.935Z</time></trkpt><trkpt lat="45.0000333" lon="9.62057"><ele>86.0</ele><time>2026-04-26T10:10:25.935Z</time></trkpt><trkpt lat="45.0001467" lon="9.6207567"><ele>86.0</ele><time>2026-04-26T10:10:26.934Z</time></trkpt><trkpt lat="45.0002617" lon="9.62094"><ele>86.0</ele><time>2026-04-26T10:10:27.934Z</time></trkpt><trkpt lat="45.0003733" lon="9.6211233"><ele>86.0</ele><time>2026-04-26T10:10:28.938Z</time></trkpt><trkpt lat="45.0004883" lon="9.6213067"><ele>86.0</ele><time>2026-04-26T10:10:29.934Z</time></trkpt><trkpt lat="45.0006" lon="9.62149"><ele>86.0</ele><time>2026-04-26T10:10:30.935Z</time></trkpt><trkpt lat="45.0007133" lon="9.6216717"><ele>86.0</ele><time>2026-04-26T10:10:31.935Z</time></trkpt><trkpt lat="45.000825" lon="9.6218533"><ele>86.0</ele><time>2026-04-26T10:10:32.935Z</time></trkpt><trkpt lat="45.0009367" lon="9.622035"><ele>86.0</ele><time>2026-04-26T10:10:33.935Z</time></trkpt><trkpt lat="45.0010467" lon="9.6222167"><ele>86.0</ele><time>2026-04-26T10:10:34.935Z</time></trkpt><trkpt lat="45.001155" lon="9.6224017"><ele>86.0</ele><time>2026-04-26T10:10:35.934Z</time></trkpt><trkpt lat="45.0012667" lon="9.6225833"><ele>86.0</ele><time>2026-04-26T10:10:36.933Z</time></trkpt><trkpt lat="45.0013783" lon="9.6227633"><ele>86.0</ele><time>2026-04-26T10:10:37.935Z</time></trkpt><trkpt lat="45.00149" lon="9.62294"><ele>86.0</ele><time>2026-04-26T10:10:38.935Z</time></trkpt><trkpt lat="45.0016" lon="9.62312"><ele>86.0</ele><time>2026-04-26T10:10:39.941Z</time></trkpt><trkpt lat="45.001705" lon="9.623295"><ele>86.0</ele><time>2026-04-26T10:10:40.934Z</time></trkpt><trkpt lat="45.0018133" lon="9.6234717"><ele>86.0</ele><time>2026-04-26T10:10:41.935Z</time></trkpt><trkpt lat="45.00192" lon="9.623645"><ele>86.0</ele><time>2026-04-26T10:10:42.934Z</time></trkpt><trkpt lat="45.00203" lon="9.6238167"><ele>85.66666666666667</ele><time>2026-04-26T10:10:43.935Z</time></trkpt><trkpt lat="45.0021367" lon="9.6239867"><ele>85.33333333333333</ele><time>2026-04-26T10:10:44.935Z</time></trkpt><trkpt lat="45.0022367" lon="9.6241533"><ele>85.0</ele><time>2026-04-26T10:10:45.935Z</time></trkpt><trkpt lat="45.002325" lon="9.6243117"><ele>85.0</ele><time>2026-04-26T10:10:46.935Z</time></trkpt><trkpt lat="45.0023933" lon="9.6244667"><ele>85.0</ele><time>2026-04-26T10:10:47.935Z</time></trkpt><trkpt lat="45.00244" lon="9.6246233"><ele>85.0</ele><time>2026-04-26T10:10:48.936Z</time></trkpt><trkpt lat="45.0024767" lon="9.624775"><ele>85.0</ele><time>2026-04-26T10:10:49.937Z</time></trkpt><trkpt lat="45.0025317" lon="9.624905"><ele>85.25</ele><time>2026-04-26T10:10:50.939Z</time></trkpt><trkpt lat="45.00262" lon="9.625"><ele>85.5</ele><time>2026-04-26T10:10:51.936Z</time></trkpt><trkpt lat="45.0027317" lon="9.6250883"><ele>85.75</ele><time>2026-04-26T10:10:52.936Z</time></trkpt><trkpt lat="45.0028467" lon="9.6252017"><ele>86.0</ele><time>2026-04-26T10:10:53.937Z</time></trkpt><trkpt lat="45.0029533" lon="9.62535"><ele>85.33333333333334</ele><time>2026-04-26T10:10:54.935Z</time></trkpt><trkpt lat="45.00306" lon="9.6255233"><ele>84.66666666666667</ele><time>2026-04-26T10:10:55.935Z</time></trkpt><trkpt lat="45.00317" lon="9.6257033"><ele>84.0</ele><time>2026-04-26T10:10:56.937Z</time></trkpt><trkpt lat="45.00328" lon="9.6258817"><ele>85.0</ele><time>2026-04-26T10:10:57.935Z</time></trkpt><trkpt lat="45.0033933" lon="9.6260633"><ele>86.0</ele><time>2026-04-26T10:10:58.941Z</time></trkpt><trkpt lat="45.0035067" lon="9.6262433"><ele>87.0</ele><time>2026-04-26T10:10:59.935Z</time></trkpt><trkpt lat="45.0036217" lon="9.6264283"><ele>87.0</ele><time>2026-04-26T10:11:00.934Z</time></trkpt><trkpt lat="45.0037317" lon="9.62661"><ele>87.0</ele><time>2026-04-26T10:11:01.934Z</time></trkpt><trkpt lat="45.00384" lon="9.626795"><ele>87.0</ele><time>2026-04-26T10:11:02.935Z</time></trkpt><trkpt lat="45.00395" lon="9.6269733"><ele>86.33333333333333</ele><time>2026-04-26T10:11:03.934Z</time></trkpt><trkpt lat="45.0040633" lon="9.6271433"><ele>85.66666666666666</ele><time>2026-04-26T10:11:04.934Z</time></trkpt><trkpt lat="45.0041833" lon="9.627295"><ele>85.0</ele><time>2026-04-26T10:11:05.937Z</time></trkpt><trkpt lat="45.0043067" lon="9.6274317"><ele>84.66666666666666</ele><time>2026-04-26T10:11:06.935Z</time></trkpt><trkpt lat="45.0044367" lon="9.627565"><ele>84.33333333333333</ele><time>2026-04-26T10:11:07.943Z</time></trkpt><trkpt lat="45.0045717" lon="9.6276917"><ele>84.0</ele><time>2026-04-26T10:11:08.934Z</time></trkpt><trkpt lat="45.0047083" lon="9.6278083"><ele>83.33333333333333</ele><time>2026-04-26T10:11:09.934Z</time></trkpt><trkpt lat="45.0048467" lon="9.6279167"><ele>82.66666666666666</ele><time>2026-04-26T10:11:10.935Z</time></trkpt><trkpt lat="45.00499" lon="9.62802"><ele>82.0</ele><time>2026-04-26T10:11:11.934Z</time></trkpt><trkpt lat="45.005135" lon="9.62812"><ele>81.33333333333333</ele><time>2026-04-26T10:11:12.934Z</time></trkpt><trkpt lat="45.0052833" lon="9.6282133"><ele>80.66666666666667</ele><time>2026-04-26T10:11:13.935Z</time></trkpt><trkpt lat="45.0054333" lon="9.6282967"><ele>80.0</ele><time>2026-04-26T10:11:14.935Z</time></trkpt><trkpt lat="45.0055833" lon="9.6283717"><ele>80.0</ele><time>2026-04-26T10:11:15.933Z</time></trkpt><trkpt lat="45.0057283" lon="9.6284433"><ele>80.0</ele><time>2026-04-26T10:11:16.934Z</time></trkpt><trkpt lat="45.005855" lon="9.6285133"><ele>80.0</ele><time>2026-04-26T10:11:17.935Z</time></trkpt><trkpt lat="45.0059517" lon="9.62858"><ele>80.0</ele><time>2026-04-26T10:11:18.939Z</time></trkpt><trkpt lat="45.0060267" lon="9.6286517"><ele>80.4</ele><time>2026-04-26T10:11:19.935Z</time></trkpt><trkpt lat="45.0061" lon="9.6287383"><ele>80.8</ele><time>2026-04-26T10:11:20.935Z</time></trkpt><trkpt lat="45.0061833" lon="9.62881"><ele>81.19999999999999</ele><time>2026-04-26T10:11:21.936Z</time></trkpt><trkpt lat="45.00629" lon="9.6288433"><ele>81.6</ele><time>2026-04-26T10:11:22.935Z</time></trkpt><trkpt lat="45.0064083" lon="9.628875"><ele>82.0</ele><time>2026-04-26T10:11:23.938Z</time></trkpt><trkpt lat="45.006535" lon="9.628945"><ele>82.33333333333333</ele><time>2026-04-26T10:11:24.934Z</time></trkpt><trkpt lat="45.0066683" lon="9.629065"><ele>82.66666666666667</ele><time>2026-04-26T10:11:25.934Z</time></trkpt><trkpt lat="45.0068017" lon="9.6292133"><ele>83.0</ele><time>2026-04-26T10:11:26.936Z</time></trkpt><trkpt lat="45.0069317" lon="9.6293767"><ele>83.0</ele><time>2026-04-26T10:11:27.933Z</time></trkpt><trkpt lat="45.0070583" lon="9.6295433"><ele>83.0</ele><time>2026-04-26T10:11:28.936Z</time></trkpt><trkpt lat="45.0071817" lon="9.6297117"><ele>83.0</ele><time>2026-04-26T10:11:29.934Z</time></trkpt><trkpt lat="45.007305" lon="9.6298783"><ele>83.0</ele><time>2026-04-26T10:11:30.935Z</time></trkpt><trkpt lat="45.0074267" lon="9.6300483"><ele>83.0</ele><time>2026-04-26T10:11:31.933Z</time></trkpt><trkpt lat="45.00755" lon="9.63022"><ele>83.0</ele><time>2026-04-26T10:11:32.933Z</time></trkpt><trkpt lat="45.0076717" lon="9.6303917"><ele>82.33333333333334</ele><time>2026-04-26T10:11:33.933Z</time></trkpt><trkpt lat="45.0077917" lon="9.6305617"><ele>81.66666666666667</ele><time>2026-04-26T10:11:34.934Z</time></trkpt><trkpt lat="45.0079133" lon="9.630725"><ele>81.0</ele><time>2026-04-26T10:11:35.935Z</time></trkpt><trkpt lat="45.0080333" lon="9.630895"><ele>81.0</ele><time>2026-04-26T10:11:36.933Z</time></trkpt><trkpt lat="45.0081533" lon="9.6310633"><ele>81.0</ele><time>2026-04-26T10:11:37.94Z</time></trkpt><trkpt lat="45.0082733" lon="9.6312333"><ele>81.0</ele><time>2026-04-26T10:11:38.934Z</time></trkpt><trkpt lat="45.008395" lon="9.6314117"><ele>80.66666666666667</ele><time>2026-04-26T10:11:39.935Z</time></trkpt><trkpt lat="45.0085183" lon="9.6315883"><ele>80.33333333333334</ele><time>2026-04-26T10:11:40.935Z</time></trkpt><trkpt lat="45.00864" lon="9.6317667"><ele>80.0</ele><time>2026-04-26T10:11:41.935Z</time></trkpt><trkpt lat="45.0087617" lon="9.6319417"><ele>81.0</ele><time>2026-04-26T10:11:42.934Z</time></trkpt><trkpt lat="45.0088833" lon="9.632115"><ele>82.0</ele><time>2026-04-26T10:11:43.934Z</time></trkpt><trkpt lat="45.009005" lon="9.6322883"><ele>83.0</ele><time>2026-04-26T10:11:44.934Z</time></trkpt><trkpt lat="45.0091283" lon="9.6324583"><ele>83.0</ele><time>2026-04-26T10:11:45.934Z</time></trkpt><trkpt lat="45.0092517" lon="9.6326283"><ele>83.0</ele><time>2026-04-26T10:11:46.938Z</time></trkpt><trkpt lat="45.0093733" lon="9.6328"><ele>83.0</ele><time>2026-04-26T10:11:47.934Z</time></trkpt><trkpt lat="45.0094967" lon="9.6329733"><ele>83.0</ele><time>2026-04-26T10:11:48.935Z</time></trkpt><trkpt lat="45.0096233" lon="9.6331433"><ele>83.0</ele><time>2026-04-26T10:11:49.934Z</time></trkpt><trkpt lat="45.00975" lon="9.633315"><ele>83.0</ele><time>2026-04-26T10:11:50.935Z</time></trkpt><trkpt lat="45.0098733" lon="9.6334883"><ele>82.33333333333334</ele><time>2026-04-26T10:11:51.935Z</time></trkpt><trkpt lat="45.0099933" lon="9.6336633"><ele>81.66666666666667</ele><time>2026-04-26T10:11:52.934Z</time></trkpt><trkpt lat="45.0101183" lon="9.6338417"><ele>81.0</ele><time>2026-04-26T10:11:53.941Z</time></trkpt><trkpt lat="45.0102417" lon="9.6340167"><ele>81.0</ele><time>2026-04-26T10:11:54.935Z</time></trkpt><trkpt lat="45.0103667" lon="9.6341933"><ele>81.0</ele><time>2026-04-26T10:11:55.94Z</time></trkpt><trkpt lat="45.0104933" lon="9.63437"><ele>81.0</ele><time>2026-04-26T10:11:56.933Z</time></trkpt><trkpt lat="45.01062" lon="9.634545"><ele>81.0</ele><time>2026-04-26T10:11:57.934Z</time></trkpt><trkpt lat="45.010745" lon="9.6347217"><ele>81.0</ele><time>2026-04-26T10:11:58.936Z</time></trkpt><trkpt lat="45.0108717" lon="9.6348983"><ele>81.0</ele><time>2026-04-26T10:11:59.936Z</time></trkpt><trkpt lat="45.0109967" lon="9.6350783"><ele>81.33333333333333</ele><time>2026-04-26T10:12:00.937Z</time></trkpt><trkpt lat="45.0111217" lon="9.6352583"><ele>81.66666666666666</ele><time>2026-04-26T10:12:01.941Z</time></trkpt><trkpt lat="45.0112483" lon="9.635435"><ele>82.0</ele><time>2026-04-26T10:12:02.936Z</time></trkpt><trkpt lat="45.011375" lon="9.6356117"><ele>82.0</ele><time>2026-04-26T10:12:03.937Z</time></trkpt><trkpt lat="45.0115033" lon="9.635785"><ele>82.0</ele><time>2026-04-26T10:12:04.935Z</time></trkpt><trkpt lat="45.0116317" lon="9.63596"><ele>82.0</ele><time>2026-04-26T10:12:05.937Z</time></trkpt><trkpt lat="45.0117583" lon="9.6361317"><ele>81.66666666666666</ele><time>2026-04-26T10:12:06.936Z</time></trkpt><trkpt lat="45.0118817" lon="9.6363033"><ele>81.33333333333333</ele><time>2026-04-26T10:12:07.935Z</time></trkpt><trkpt lat="45.0120033" lon="9.6364783"><ele>81.0</ele><time>2026-04-26T10:12:08.934Z</time></trkpt><trkpt lat="45.012125" lon="9.6366533"><ele>81.0</ele><time>2026-04-26T10:12:09.934Z</time></trkpt><trkpt lat="45.012245" lon="9.6368283"><ele>81.0</ele><time>2026-04-26T10:12:10.936Z</time></trkpt><trkpt lat="45.0123667" lon="9.6370017"><ele>81.0</ele><time>2026-04-26T10:12:11.935Z</time></trkpt><trkpt lat="45.01249" lon="9.6371767"><ele>81.0</ele><time>2026-04-26T10:12:12.936Z</time></trkpt><trkpt lat="45.01261" lon="9.6373533"><ele>81.0</ele><time>2026-04-26T10:12:13.935Z</time></trkpt><trkpt lat="45.0127283" lon="9.63753"><ele>81.0</ele><time>2026-04-26T10:12:14.934Z</time></trkpt><trkpt lat="45.0128483" lon="9.6377067"><ele>81.0</ele><time>2026-04-26T10:12:15.934Z</time></trkpt><trkpt lat="45.0129683" lon="9.6378833"><ele>81.0</ele><time>2026-04-26T10:12:16.935Z</time></trkpt><trkpt lat="45.0130883" lon="9.6380567"><ele>81.0</ele><time>2026-04-26T10:12:17.935Z</time></trkpt><trkpt lat="45.01321" lon="9.63823"><ele>80.33333333333333</ele><time>2026-04-26T10:12:18.935Z</time></trkpt><trkpt lat="45.01333" lon="9.6384067"><ele>79.66666666666666</ele><time>2026-04-26T10:12:19.935Z</time></trkpt><trkpt lat="45.0134533" lon="9.6385817"><ele>79.0</ele><time>2026-04-26T10:12:20.937Z</time></trkpt><trkpt lat="45.0135733" lon="9.63876"><ele>79.0</ele><time>2026-04-26T10:12:21.936Z</time></trkpt><trkpt lat="45.013695" lon="9.63894"><ele>79.0</ele><time>2026-04-26T10:12:22.935Z</time></trkpt><trkpt lat="45.013815" lon="9.63912"><ele>79.0</ele><time>2026-04-26T10:12:23.937Z</time></trkpt><trkpt lat="45.0139383" lon="9.6392983"><ele>79.33333333333333</ele><time>2026-04-26T10:12:24.936Z</time></trkpt><trkpt lat="45.0140633" lon="9.6394783"><ele>79.66666666666667</ele><time>2026-04-26T10:12:25.935Z</time></trkpt><trkpt lat="45.01419" lon="9.639655"><ele>80.0</ele><time>2026-04-26T10:12:26.936Z</time></trkpt><trkpt lat="45.0143167" lon="9.6398317"><ele>80.0</ele><time>2026-04-26T10:12:27.936Z</time></trkpt><trkpt lat="45.014445" lon="9.6400083"><ele>80.0</ele><time>2026-04-26T10:12:28.936Z</time></trkpt><trkpt lat="45.01457" lon="9.640185"><ele>80.0</ele><time>2026-04-26T10:12:29.935Z</time></trkpt><trkpt lat="45.0146983" lon="9.6403617"><ele>79.66666666666667</ele><time>2026-04-26T10:12:30.938Z</time></trkpt><trkpt lat="45.014825" lon="9.6405367"><ele>79.33333333333333</ele><time>2026-04-26T10:12:31.935Z</time></trkpt><trkpt lat="45.0149533" lon="9.6407133"><ele>79.0</ele><time>2026-04-26T10:12:32.936Z</time></trkpt><trkpt lat="45.01508" lon="9.6408867"><ele>78.0</ele><time>2026-04-26T10:12:33.933Z</time></trkpt><trkpt lat="45.0152067" lon="9.64106"><ele>77.0</ele><time>2026-04-26T10:12:34.933Z</time></trkpt><trkpt lat="45.0153333" lon="9.64123"><ele>76.0</ele><time>2026-04-26T10:12:35.935Z</time></trkpt><trkpt lat="45.0154633" lon="9.6414017"><ele>76.0</ele><time>2026-04-26T10:12:36.934Z</time></trkpt><trkpt lat="45.0155917" lon="9.6415783"><ele>76.0</ele><time>2026-04-26T10:12:37.934Z</time></trkpt><trkpt lat="45.0157183" lon="9.6417533"><ele>76.0</ele><time>2026-04-26T10:12:38.935Z</time></trkpt><trkpt lat="45.0158417" lon="9.6419283"><ele>76.33333333333333</ele><time>2026-04-26T10:12:39.934Z</time></trkpt><trkpt lat="45.0159617" lon="9.6421017"><ele>76.66666666666667</ele><time>2026-04-26T10:12:40.934Z</time></trkpt><trkpt lat="45.016085" lon="9.6422783"><ele>77.0</ele><time>2026-04-26T10:12:41.94Z</time></trkpt><trkpt lat="45.0162067" lon="9.6424467"><ele>77.0</ele><time>2026-04-26T10:12:42.933Z</time></trkpt><trkpt lat="45.01633" lon="9.6426167"><ele>77.0</ele><time>2026-04-26T10:12:43.934Z</time></trkpt><trkpt lat="45.0164567" lon="9.642785"><ele>77.0</ele><time>2026-04-26T10:12:44.935Z</time></trkpt><trkpt lat="45.016575" lon="9.64296"><ele>76.66666666666667</ele><time>2026-04-26T10:12:45.933Z</time></trkpt><trkpt lat="45.01669" lon="9.64313"><ele>76.33333333333333</ele><time>2026-04-26T10:12:46.939Z</time></trkpt><trkpt lat="45.0168017" lon="9.6432917"><ele>76.0</ele><time>2026-04-26T10:12:47.934Z</time></trkpt><trkpt lat="45.0169067" lon="9.6434417"><ele>76.0</ele><time>2026-04-26T10:12:48.935Z</time></trkpt><trkpt lat="45.0170133" lon="9.6435867"><ele>76.0</ele><time>2026-04-26T10:12:49.936Z</time></trkpt><trkpt lat="45.017125" lon="9.64372"><ele>76.0</ele><time>2026-04-26T10:12:50.934Z</time></trkpt><trkpt lat="45.0172267" lon="9.6438417"><ele>76.0</ele><time>2026-04-26T10:12:51.939Z</time></trkpt><trkpt lat="45.017315" lon="9.6439533"><ele>75.39999999999999</ele><time>2026-04-26T10:12:52.935Z</time></trkpt><trkpt lat="45.0173917" lon="9.6440367"><ele>74.8</ele><time>2026-04-26T10:12:53.935Z</time></trkpt><trkpt lat="45.01746" lon="9.6440783"><ele>74.19999999999999</ele><time>2026-04-26T10:12:54.934Z</time></trkpt><trkpt lat="45.017525" lon="9.6440867"><ele>73.6</ele><time>2026-04-26T10:12:55.935Z</time></trkpt><trkpt lat="45.0176183" lon="9.6439467"><ele>73.0</ele><time>2026-04-26T10:12:57.934Z</time></trkpt><trkpt lat="45.01765" lon="9.6437933"><ele>73.5</ele><time>2026-04-26T10:12:58.933Z</time></trkpt><trkpt lat="45.0176983" lon="9.64363"><ele>74.0</ele><time>2026-04-26T10:12:59.934Z</time></trkpt><trkpt lat="45.017765" lon="9.643455"><ele>74.5</ele><time>2026-04-26T10:13:00.934Z</time></trkpt><trkpt lat="45.0178517" lon="9.6432717"><ele>75.0</ele><time>2026-04-26T10:13:01.933Z</time></trkpt><trkpt lat="45.0179467" lon="9.643075"><ele>75.0</ele><time>2026-04-26T10:13:02.934Z</time></trkpt><trkpt lat="45.0180367" lon="9.6428667"><ele>75.0</ele><time>2026-04-26T10:13:03.933Z</time></trkpt><trkpt lat="45.018125" lon="9.6426433"><ele>75.0</ele><time>2026-04-26T10:13:04.935Z</time></trkpt><trkpt lat="45.0182133" lon="9.6424283"><ele>75.0</ele><time>2026-04-26T10:13:05.934Z</time></trkpt><trkpt lat="45.0183117" lon="9.6422367"><ele>75.0</ele><time>2026-04-26T10:13:06.934Z</time></trkpt><trkpt lat="45.0184217" lon="9.6420617"><ele>75.0</ele><time>2026-04-26T10:13:07.938Z</time></trkpt><trkpt lat="45.0185383" lon="9.6418967"><ele>74.66666666666667</ele><time>2026-04-26T10:13:08.935Z</time></trkpt><trkpt lat="45.018655" lon="9.6417333"><ele>74.33333333333334</ele><time>2026-04-26T10:13:09.934Z</time></trkpt><trkpt lat="45.018765" lon="9.6415617"><ele>74.0</ele><time>2026-04-26T10:13:10.935Z</time></trkpt><trkpt lat="45.0188717" lon="9.64138"><ele>74.0</ele><time>2026-04-26T10:13:11.935Z</time></trkpt><trkpt lat="45.01896" lon="9.64118"><ele>74.0</ele><time>2026-04-26T10:13:12.934Z</time></trkpt><trkpt lat="45.0190367" lon="9.6409617"><ele>74.0</ele><time>2026-04-26T10:13:13.933Z</time></trkpt><trkpt lat="45.0190967" lon="9.6407367"><ele>74.0</ele><time>2026-04-26T10:13:14.94Z</time></trkpt><trkpt lat="45.0191533" lon="9.6405183"><ele>74.0</ele><time>2026-04-26T10:13:15.935Z</time></trkpt><trkpt lat="45.01921" lon="9.6403033"><ele>74.0</ele><time>2026-04-26T10:13:16.935Z</time></trkpt><trkpt lat="45.019265" lon="9.6400883"><ele>74.0</ele><time>2026-04-26T10:13:17.936Z</time></trkpt><trkpt lat="45.01932" lon="9.639875"><ele>74.0</ele><time>2026-04-26T10:13:18.935Z</time></trkpt><trkpt lat="45.0193733" lon="9.6396633"><ele>74.0</ele><time>2026-04-26T10:13:19.94Z</time></trkpt><trkpt lat="45.01943" lon="9.639465"><ele>74.0</ele><time>2026-04-26T10:13:20.935Z</time></trkpt><trkpt lat="45.0194817" lon="9.639275"><ele>74.0</ele><time>2026-04-26T10:13:21.935Z</time></trkpt><trkpt lat="45.01953" lon="9.639095"><ele>74.0</ele><time>2026-04-26T10:13:22.935Z</time></trkpt><trkpt lat="45.0195733" lon="9.638925"><ele>74.0</ele><time>2026-04-26T10:13:23.935Z</time></trkpt><trkpt lat="45.019615" lon="9.6387683"><ele>74.4</ele><time>2026-04-26T10:13:24.933Z</time></trkpt><trkpt lat="45.01966" lon="9.638625"><ele>74.80000000000001</ele><time>2026-04-26T10:13:25.935Z</time></trkpt><trkpt lat="45.0196983" lon="9.63849"><ele>75.19999999999999</ele><time>2026-04-26T10:13:26.934Z</time></trkpt><trkpt lat="45.0197367" lon="9.63835"><ele>75.6</ele><time>2026-04-26T10:13:27.934Z</time></trkpt><trkpt lat="45.0197767" lon="9.6382067"><ele>76.0</ele><time>2026-04-26T10:13:28.933Z</time></trkpt><trkpt lat="45.01982" lon="9.6380517"><ele>76.0</ele><time>2026-04-26T10:13:29.935Z</time></trkpt><trkpt lat="45.0198633" lon="9.6378867"><ele>76.0</ele><time>2026-04-26T10:13:30.934Z</time></trkpt><trkpt lat="45.0199133" lon="9.637715"><ele>76.0</ele><time>2026-04-26T10:13:31.933Z</time></trkpt><trkpt lat="45.01997" lon="9.6375367"><ele>76.0</ele><time>2026-04-26T10:13:32.942Z</time></trkpt><trkpt lat="45.0200267" lon="9.6373483"><ele>76.25</ele><time>2026-04-26T10:13:33.935Z</time></trkpt><trkpt lat="45.0200817" lon="9.6371567"><ele>76.5</ele><time>2026-04-26T10:13:34.935Z</time></trkpt><trkpt lat="45.0201317" lon="9.6369617"><ele>76.75</ele><time>2026-04-26T10:13:35.934Z</time></trkpt><trkpt lat="45.020185" lon="9.6367583"><ele>77.0</ele><time>2026-04-26T10:13:36.934Z</time></trkpt><trkpt lat="45.020235" lon="9.6365583"><ele>77.25</ele><time>2026-04-26T10:13:37.935Z</time></trkpt><trkpt lat="45.0202817" lon="9.6363717"><ele>77.5</ele><time>2026-04-26T10:13:38.934Z</time></trkpt><trkpt lat="45.0203217" lon="9.6362"><ele>77.75</ele><time>2026-04-26T10:13:39.934Z</time></trkpt><trkpt lat="45.0203633" lon="9.6360383"><ele>78.0</ele><time>2026-04-26T10:13:40.934Z</time></trkpt><trkpt lat="45.020405" lon="9.63589"><ele>77.66666666666667</ele><time>2026-04-26T10:13:41.934Z</time></trkpt><trkpt lat="45.0204383" lon="9.6357567"><ele>77.33333333333333</ele><time>2026-04-26T10:13:42.935Z</time></trkpt><trkpt lat="45.02047" lon="9.635645"><ele>77.0</ele><time>2026-04-26T10:13:43.935Z</time></trkpt><trkpt lat="45.0205" lon="9.6355567"><ele>76.66666666666666</ele><time>2026-04-26T10:13:44.938Z</time></trkpt><trkpt lat="45.0205717" lon="9.6355133"><ele>76.33333333333333</ele><time>2026-04-26T10:13:46.936Z</time></trkpt><trkpt lat="45.020625" lon="9.6356317"><ele>76.0</ele><time>2026-04-26T10:13:47.934Z</time></trkpt><trkpt lat="45.0206833" lon="9.6357333"><ele>76.0</ele><time>2026-04-26T10:13:48.934Z</time></trkpt><trkpt lat="45.0207533" lon="9.6358517"><ele>76.0</ele><time>2026-04-26T10:13:49.936Z</time></trkpt><trkpt lat="45.0208367" lon="9.6360033"><ele>76.0</ele><time>2026-04-26T10:13:50.935Z</time></trkpt><trkpt lat="45.0209333" lon="9.6361683"><ele>76.0</ele><time>2026-04-26T10:13:51.934Z</time></trkpt><trkpt lat="45.0210383" lon="9.6363067"><ele>76.0</ele><time>2026-04-26T10:13:52.939Z</time></trkpt><trkpt lat="45.0211717" lon="9.6364217"><ele>76.0</ele><time>2026-04-26T10:13:53.933Z</time></trkpt><trkpt lat="45.0213217" lon="9.63651"><ele>76.0</ele><time>2026-04-26T10:13:54.934Z</time></trkpt><trkpt lat="45.02147" lon="9.6365867"><ele>76.0</ele><time>2026-04-26T10:13:55.933Z</time></trkpt><trkpt lat="45.021615" lon="9.6366617"><ele>76.0</ele><time>2026-04-26T10:13:56.934Z</time></trkpt><trkpt lat="45.0217583" lon="9.636735"><ele>76.0</ele><time>2026-04-26T10:13:57.933Z</time></trkpt><trkpt lat="45.0219033" lon="9.6368083"><ele>75.33333333333333</ele><time>2026-04-26T10:13:58.934Z</time></trkpt><trkpt lat="45.0220483" lon="9.6368817"><ele>74.66666666666667</ele><time>2026-04-26T10:13:59.939Z</time></trkpt><trkpt lat="45.0221933" lon="9.636955"><ele>74.0</ele><time>2026-04-26T10:14:00.933Z</time></trkpt><trkpt lat="45.0223417" lon="9.6370267"><ele>73.66666666666667</ele><time>2026-04-26T10:14:01.934Z</time></trkpt><trkpt lat="45.0224883" lon="9.6370983"><ele>73.33333333333333</ele><time>2026-04-26T10:14:02.934Z</time></trkpt><trkpt lat="45.0226367" lon="9.6371717"><ele>73.0</ele><time>2026-04-26T10:14:03.934Z</time></trkpt><trkpt lat="45.02279" lon="9.6372467"><ele>73.0</ele><time>2026-04-26T10:14:04.933Z</time></trkpt><trkpt lat="45.0229433" lon="9.6373233"><ele>73.0</ele><time>2026-04-26T10:14:05.934Z</time></trkpt><trkpt lat="45.0230983" lon="9.6374017"><ele>73.0</ele><time>2026-04-26T10:14:06.935Z</time></trkpt><trkpt lat="45.0232567" lon="9.6374817"><ele>72.33333333333333</ele><time>2026-04-26T10:14:07.933Z</time></trkpt><trkpt lat="45.0234183" lon="9.63756"><ele>71.66666666666667</ele><time>2026-04-26T10:14:08.94Z</time></trkpt><trkpt lat="45.02358" lon="9.6376383"><ele>71.0</ele><time>2026-04-26T10:14:09.933Z</time></trkpt><trkpt lat="45.0237433" lon="9.637715"><ele>71.0</ele><time>2026-04-26T10:14:10.933Z</time></trkpt><trkpt lat="45.0239083" lon="9.6377967"><ele>71.0</ele><time>2026-04-26T10:14:11.933Z</time></trkpt><trkpt lat="45.02407" lon="9.6378833"><ele>71.0</ele><time>2026-04-26T10:14:12.934Z</time></trkpt><trkpt lat="45.0242367" lon="9.63797"><ele>71.33333333333334</ele><time>2026-04-26T10:14:13.934Z</time></trkpt><trkpt lat="45.0244" lon="9.638055"><ele>71.66666666666667</ele><time>2026-04-26T10:14:14.935Z</time></trkpt><trkpt lat="45.024565" lon="9.638135"><ele>72.0</ele><time>2026-04-26T10:14:15.938Z</time></trkpt><trkpt lat="45.02473" lon="9.6382167"><ele>72.0</ele><time>2026-04-26T10:14:16.936Z</time></trkpt><trkpt lat="45.0248967" lon="9.6382983"><ele>72.0</ele><time>2026-04-26T10:14:17.934Z</time></trkpt><trkpt lat="45.02506" lon="9.6383767"><ele>72.0</ele><time>2026-04-26T10:14:18.934Z</time></trkpt><trkpt lat="45.0252217" lon="9.6384583"><ele>71.66666666666667</ele><time>2026-04-26T10:14:19.934Z</time></trkpt><trkpt lat="45.0253833" lon="9.6385417"><ele>71.33333333333334</ele><time>2026-04-26T10:14:20.935Z</time></trkpt><trkpt lat="45.025545" lon="9.638625"><ele>71.0</ele><time>2026-04-26T10:14:21.935Z</time></trkpt><trkpt lat="45.0257083" lon="9.63871"><ele>70.33333333333334</ele><time>2026-04-26T10:14:22.934Z</time></trkpt><trkpt lat="45.02587" lon="9.638795"><ele>69.66666666666667</ele><time>2026-04-26T10:14:23.934Z</time></trkpt><trkpt lat="45.0260333" lon="9.638875"><ele>69.0</ele><time>2026-04-26T10:14:24.937Z</time></trkpt><trkpt lat="45.0261983" lon="9.6389533"><ele>69.0</ele><time>2026-04-26T10:14:25.936Z</time></trkpt><trkpt lat="45.0263617" lon="9.6390333"><ele>69.0</ele><time>2026-04-26T10:14:26.934Z</time></trkpt><trkpt lat="45.026525" lon="9.6391167"><ele>69.0</ele><time>2026-04-26T10:14:27.935Z</time></trkpt><trkpt lat="45.0266867" lon="9.6392017"><ele>70.33333333333333</ele><time>2026-04-26T10:14:28.934Z</time></trkpt><trkpt lat="45.0268483" lon="9.639285"><ele>71.66666666666666</ele><time>2026-04-26T10:14:29.934Z</time></trkpt><trkpt lat="45.02701" lon="9.6393683"><ele>73.0</ele><time>2026-04-26T10:14:30.936Z</time></trkpt><trkpt lat="45.0271717" lon="9.639445"><ele>72.66666666666666</ele><time>2026-04-26T10:14:31.934Z</time></trkpt><trkpt lat="45.0273317" lon="9.63952"><ele>72.33333333333333</ele><time>2026-04-26T10:14:32.936Z</time></trkpt><trkpt lat="45.02749" lon="9.639595"><ele>72.0</ele><time>2026-04-26T10:14:33.933Z</time></trkpt><trkpt lat="45.0276483" lon="9.6396767"><ele>72.0</ele><time>2026-04-26T10:14:34.935Z</time></trkpt><trkpt lat="45.0278017" lon="9.6397583"><ele>72.0</ele><time>2026-04-26T10:14:35.935Z</time></trkpt><trkpt lat="45.0279517" lon="9.639835"><ele>72.0</ele><time>2026-04-26T10:14:36.933Z</time></trkpt><trkpt lat="45.0281017" lon="9.6399117"><ele>72.0</ele><time>2026-04-26T10:14:37.934Z</time></trkpt><trkpt lat="45.0282533" lon="9.6399867"><ele>72.0</ele><time>2026-04-26T10:14:38.942Z</time></trkpt><trkpt lat="45.0284033" lon="9.6400583"><ele>72.0</ele><time>2026-04-26T10:14:39.936Z</time></trkpt><trkpt lat="45.0285533" lon="9.6401217"><ele>73.0</ele><time>2026-04-26T10:14:40.935Z</time></trkpt><trkpt lat="45.0287033" lon="9.64018"><ele>74.0</ele><time>2026-04-26T10:14:41.935Z</time></trkpt><trkpt lat="45.0288567" lon="9.6402367"><ele>75.0</ele><time>2026-04-26T10:14:42.935Z</time></trkpt><trkpt lat="45.0290167" lon="9.6402833"><ele>73.33333333333333</ele><time>2026-04-26T10:14:43.935Z</time></trkpt><trkpt lat="45.0291783" lon="9.64032"><ele>71.66666666666666</ele><time>2026-04-26T10:14:44.935Z</time></trkpt><trkpt lat="45.0293433" lon="9.6403583"><ele>70.0</ele><time>2026-04-26T10:14:45.935Z</time></trkpt><trkpt lat="45.0295067" lon="9.6403967"><ele>70.0</ele><time>2026-04-26T10:14:46.935Z</time></trkpt><trkpt lat="45.02967" lon="9.6404333"><ele>70.0</ele><time>2026-04-26T10:14:47.934Z</time></trkpt><trkpt lat="45.0298383" lon="9.64047"><ele>70.0</ele><time>2026-04-26T10:14:48.934Z</time></trkpt><trkpt lat="45.0300117" lon="9.640505"><ele>70.66666666666666</ele><time>2026-04-26T10:14:49.934Z</time></trkpt><trkpt lat="45.0301833" lon="9.6405433"><ele>71.33333333333333</ele><time>2026-04-26T10:14:50.941Z</time></trkpt><trkpt lat="45.03036" lon="9.6405833"><ele>72.0</ele><time>2026-04-26T10:14:51.935Z</time></trkpt><trkpt lat="45.030535" lon="9.6406217"><ele>72.0</ele><time>2026-04-26T10:14:52.936Z</time></trkpt><trkpt lat="45.03071" lon="9.6406567"><ele>72.0</ele><time>2026-04-26T10:14:53.935Z</time></trkpt><trkpt lat="45.030885" lon="9.640695"><ele>72.0</ele><time>2026-04-26T10:14:54.935Z</time></trkpt><trkpt lat="45.03106" lon="9.640735"><ele>70.66666666666667</ele><time>2026-04-26T10:14:55.936Z</time></trkpt><trkpt lat="45.0312317" lon="9.64077"><ele>69.33333333333334</ele><time>2026-04-26T10:14:56.934Z</time></trkpt><trkpt lat="45.0314067" lon="9.6408033"><ele>68.0</ele><time>2026-04-26T10:14:57.934Z</time></trkpt><trkpt lat="45.0315817" lon="9.64084"><ele>67.33333333333334</ele><time>2026-04-26T10:14:58.934Z</time></trkpt><trkpt lat="45.031755" lon="9.6408783"><ele>66.66666666666667</ele><time>2026-04-26T10:14:59.942Z</time></trkpt><trkpt lat="45.0319267" lon="9.6409217"><ele>66.0</ele><time>2026-04-26T10:15:00.934Z</time></trkpt><trkpt lat="45.0321" lon="9.6409683"><ele>66.0</ele><time>2026-04-26T10:15:01.934Z</time></trkpt><trkpt lat="45.0322717" lon="9.6410117"><ele>66.0</ele><time>2026-04-26T10:15:02.935Z</time></trkpt><trkpt lat="45.0324433" lon="9.6410533"><ele>66.0</ele><time>2026-04-26T10:15:03.936Z</time></trkpt><trkpt lat="45.0326183" lon="9.6411017"><ele>66.66666666666667</ele><time>2026-04-26T10:15:04.939Z</time></trkpt><trkpt lat="45.0327917" lon="9.64115"><ele>67.33333333333334</ele><time>2026-04-26T10:15:05.936Z</time></trkpt><trkpt lat="45.0329633" lon="9.6411933"><ele>68.0</ele><time>2026-04-26T10:15:06.935Z</time></trkpt><trkpt lat="45.0331333" lon="9.64123"><ele>68.0</ele><time>2026-04-26T10:15:07.934Z</time></trkpt><trkpt lat="45.0333017" lon="9.641265"><ele>68.0</ele><time>2026-04-26T10:15:08.935Z</time></trkpt><trkpt lat="45.03347" lon="9.6412967"><ele>68.0</ele><time>2026-04-26T10:15:09.934Z</time></trkpt><trkpt lat="45.0336367" lon="9.6413333"><ele>67.66666666666667</ele><time>2026-04-26T10:15:10.934Z</time></trkpt><trkpt lat="45.0338033" lon="9.6413667"><ele>67.33333333333333</ele><time>2026-04-26T10:15:11.934Z</time></trkpt><trkpt lat="45.0339617" lon="9.6414"><ele>67.0</ele><time>2026-04-26T10:15:12.934Z</time></trkpt><trkpt lat="45.0341083" lon="9.6414333"><ele>66.5</ele><time>2026-04-26T10:15:13.939Z</time></trkpt><trkpt lat="45.034245" lon="9.6414667"><ele>66.0</ele><time>2026-04-26T10:15:14.934Z</time></trkpt><trkpt lat="45.0343733" lon="9.6414967"><ele>65.5</ele><time>2026-04-26T10:15:15.935Z</time></trkpt><trkpt lat="45.03449" lon="9.64153"><ele>65.0</ele><time>2026-04-26T10:15:16.934Z</time></trkpt><trkpt lat="45.03459" lon="9.6415783"><ele>65.0</ele><time>2026-04-26T10:15:17.934Z</time></trkpt><trkpt lat="45.0346667" lon="9.6416533"><ele>65.0</ele><time>2026-04-26T10:15:18.935Z</time></trkpt><trkpt lat="45.0347117" lon="9.6417583"><ele>65.0</ele><time>2026-04-26T10:15:19.935Z</time></trkpt><trkpt lat="45.03473" lon="9.64188"><ele>65.0</ele><time>2026-04-26T10:15:20.941Z</time></trkpt><trkpt lat="45.0347417" lon="9.6420083"><ele>65.0</ele><time>2026-04-26T10:15:21.936Z</time></trkpt><trkpt lat="45.0347833" lon="9.6421217"><ele>65.0</ele><time>2026-04-26T10:15:22.936Z</time></trkpt><trkpt lat="45.0348683" lon="9.6421917"><ele>65.0</ele><time>2026-04-26T10:15:23.937Z</time></trkpt><trkpt lat="45.0349917" lon="9.6422233"><ele>65.0</ele><time>2026-04-26T10:15:24.936Z</time></trkpt><trkpt lat="45.0351333" lon="9.64224"><ele>65.0</ele><time>2026-04-26T10:15:25.94Z</time></trkpt><trkpt lat="45.0352867" lon="9.6422583"><ele>65.66666666666667</ele><time>2026-04-26T10:15:26.936Z</time></trkpt><trkpt lat="45.03545" lon="9.64228"><ele>66.33333333333333</ele><time>2026-04-26T10:15:27.936Z</time></trkpt><trkpt lat="45.0356217" lon="9.642305"><ele>67.0</ele><time>2026-04-26T10:15:28.935Z</time></trkpt><trkpt lat="45.0357983" lon="9.64233"><ele>67.0</ele><time>2026-04-26T10:15:29.934Z</time></trkpt><trkpt lat="45.035975" lon="9.642355"><ele>67.0</ele><time>2026-04-26T10:15:30.935Z</time></trkpt><trkpt lat="45.0361467" lon="9.642385"><ele>67.0</ele><time>2026-04-26T10:15:31.938Z</time></trkpt><trkpt lat="45.0363083" lon="9.64241"><ele>67.0</ele><time>2026-04-26T10:15:32.936Z</time></trkpt><trkpt lat="45.036455" lon="9.6424317"><ele>67.0</ele><time>2026-04-26T10:15:33.94Z</time></trkpt><trkpt lat="45.0365867" lon="9.6424467"><ele>67.0</ele><time>2026-04-26T10:15:34.934Z</time></trkpt><trkpt lat="45.0367017" lon="9.6424617"><ele>67.0</ele><time>2026-04-26T10:15:35.935Z</time></trkpt><trkpt lat="45.0367883" lon="9.642475"><ele>66.83333333333333</ele><time>2026-04-26T10:15:36.935Z</time></trkpt><trkpt lat="45.0368567" lon="9.6424833"><ele>66.66666666666666</ele><time>2026-04-26T10:15:37.934Z</time></trkpt><trkpt lat="45.0369517" lon="9.6425"><ele>66.5</ele><time>2026-04-26T10:15:39.934Z</time></trkpt><trkpt lat="45.0370233" lon="9.6424433"><ele>66.33333333333333</ele><time>2026-04-26T10:15:41.935Z</time></trkpt><trkpt lat="45.0370517" lon="9.6422917"><ele>66.16666666666667</ele><time>2026-04-26T10:15:43.941Z</time></trkpt><trkpt lat="45.0370317" lon="9.6422017"><ele>66.0</ele><time>2026-04-26T10:15:44.937Z</time></trkpt><trkpt lat="45.03699" lon="9.6420933"><ele>66.5</ele><time>2026-04-26T10:15:45.938Z</time></trkpt><trkpt lat="45.036935" lon="9.6419633"><ele>67.0</ele><time>2026-04-26T10:15:46.934Z</time></trkpt><trkpt lat="45.03688" lon="9.6418033"><ele>67.5</ele><time>2026-04-26T10:15:47.934Z</time></trkpt><trkpt lat="45.03682" lon="9.64164"><ele>68.0</ele><time>2026-04-26T10:15:48.935Z</time></trkpt><trkpt lat="45.036755" lon="9.6414767"><ele>68.0</ele><time>2026-04-26T10:15:49.935Z</time></trkpt><trkpt lat="45.0366833" lon="9.6413"><ele>68.0</ele><time>2026-04-26T10:15:50.938Z</time></trkpt><trkpt lat="45.036605" lon="9.6411083"><ele>68.0</ele><time>2026-04-26T10:15:51.937Z</time></trkpt><trkpt lat="45.0365233" lon="9.640905"><ele>67.33333333333334</ele><time>2026-04-26T10:15:52.935Z</time></trkpt><trkpt lat="45.0364467" lon="9.640695"><ele>66.66666666666667</ele><time>2026-04-26T10:15:53.937Z</time></trkpt><trkpt lat="45.03637" lon="9.6404783"><ele>66.0</ele><time>2026-04-26T10:15:54.941Z</time></trkpt><trkpt lat="45.0362917" lon="9.6402583"><ele>65.66666666666667</ele><time>2026-04-26T10:15:55.934Z</time></trkpt><trkpt lat="45.0362133" lon="9.64004"><ele>65.33333333333334</ele><time>2026-04-26T10:15:56.934Z</time></trkpt><trkpt lat="45.0361333" lon="9.6398167"><ele>65.0</ele><time>2026-04-26T10:15:57.936Z</time></trkpt><trkpt lat="45.0360567" lon="9.63959"><ele>65.33333333333334</ele><time>2026-04-26T10:15:58.935Z</time></trkpt><trkpt lat="45.03598" lon="9.6393667"><ele>65.66666666666667</ele><time>2026-04-26T10:15:59.94Z</time></trkpt><trkpt lat="45.0359" lon="9.6391483"><ele>66.0</ele><time>2026-04-26T10:16:00.935Z</time></trkpt><trkpt lat="45.0358217" lon="9.6389267"><ele>66.33333333333333</ele><time>2026-04-26T10:16:01.935Z</time></trkpt><trkpt lat="45.035745" lon="9.638715"><ele>66.66666666666666</ele><time>2026-04-26T10:16:02.936Z</time></trkpt><trkpt lat="45.03567" lon="9.638505"><ele>67.0</ele><time>2026-04-26T10:16:03.935Z</time></trkpt><trkpt lat="45.0355933" lon="9.638295"><ele>67.0</ele><time>2026-04-26T10:16:04.936Z</time></trkpt><trkpt lat="45.0355183" lon="9.63809"><ele>67.0</ele><time>2026-04-26T10:16:05.935Z</time></trkpt><trkpt lat="45.03544" lon="9.6378817"><ele>67.0</ele><time>2026-04-26T10:16:06.935Z</time></trkpt><trkpt lat="45.0353633" lon="9.6376783"><ele>67.0</ele><time>2026-04-26T10:16:07.935Z</time></trkpt><trkpt lat="45.03529" lon="9.637475"><ele>67.0</ele><time>2026-04-26T10:16:08.936Z</time></trkpt><trkpt lat="45.0352167" lon="9.63727"><ele>67.0</ele><time>2026-04-26T10:16:09.935Z</time></trkpt><trkpt lat="45.0351433" lon="9.6370667"><ele>67.0</ele><time>2026-04-26T10:16:10.94Z</time></trkpt><trkpt lat="45.0350717" lon="9.63686"><ele>67.0</ele><time>2026-04-26T10:16:11.935Z</time></trkpt><trkpt lat="45.035" lon="9.6366567"><ele>67.0</ele><time>2026-04-26T10:16:12.935Z</time></trkpt><trkpt lat="45.0349283" lon="9.6364583"><ele>66.75</ele><time>2026-04-26T10:16:13.935Z</time></trkpt><trkpt lat="45.0348567" lon="9.6362617"><ele>66.5</ele><time>2026-04-26T10:16:14.937Z</time></trkpt><trkpt lat="45.03479" lon="9.6360683"><ele>66.25</ele><time>2026-04-26T10:16:15.935Z</time></trkpt><trkpt lat="45.0347333" lon="9.6358883"><ele>66.0</ele><time>2026-04-26T10:16:16.936Z</time></trkpt><trkpt lat="45.0346817" lon="9.63572"><ele>66.0</ele><time>2026-04-26T10:16:17.935Z</time></trkpt><trkpt lat="45.0346317" lon="9.635565"><ele>66.0</ele><time>2026-04-26T10:16:18.943Z</time></trkpt><trkpt lat="45.03459" lon="9.63542"><ele>66.0</ele><time>2026-04-26T10:16:19.936Z</time></trkpt><trkpt lat="45.0345467" lon="9.6352883"><ele>66.0</ele><time>2026-04-26T10:16:20.936Z</time></trkpt><trkpt lat="45.034505" lon="9.63517"><ele>66.0</ele><time>2026-04-26T10:16:21.936Z</time></trkpt><trkpt lat="45.034475" lon="9.6350633"><ele>66.2</ele><time>2026-04-26T10:16:22.935Z</time></trkpt><trkpt lat="45.03446" lon="9.6349567"><ele>66.39999999999999</ele><time>2026-04-26T10:16:23.937Z</time></trkpt><trkpt lat="45.0344967" lon="9.6348167"><ele>66.6</ele><time>2026-04-26T10:16:25.935Z</time></trkpt><trkpt lat="45.0346" lon="9.634725"><ele>66.8</ele><time>2026-04-26T10:16:27.934Z</time></trkpt><trkpt lat="45.0346833" lon="9.6346883"><ele>67.0</ele><time>2026-04-26T10:16:28.934Z</time></trkpt><trkpt lat="45.0347883" lon="9.6346583"><ele>67.0</ele><time>2026-04-26T10:16:29.934Z</time></trkpt><trkpt lat="45.0349183" lon="9.6346433"><ele>67.0</ele><time>2026-04-26T10:16:30.934Z</time></trkpt><trkpt lat="45.03506" lon="9.63462"><ele>67.0</ele><time>2026-04-26T10:16:31.939Z</time></trkpt><trkpt lat="45.0352167" lon="9.6345967"><ele>67.0</ele><time>2026-04-26T10:16:32.933Z</time></trkpt><trkpt lat="45.0353933" lon="9.6345817"><ele>66.66666666666666</ele><time>2026-04-26T10:16:33.934Z</time></trkpt><trkpt lat="45.0355767" lon="9.6345633"><ele>66.33333333333333</ele><time>2026-04-26T10:16:34.933Z</time></trkpt><trkpt lat="45.0357617" lon="9.6345433"><ele>66.0</ele><time>2026-04-26T10:16:35.935Z</time></trkpt><trkpt lat="45.035955" lon="9.6345267"><ele>66.0</ele><time>2026-04-26T10:16:36.933Z</time></trkpt><trkpt lat="45.036145" lon="9.6345033"><ele>66.0</ele><time>2026-04-26T10:16:37.933Z</time></trkpt><trkpt lat="45.03633" lon="9.6344783"><ele>66.0</ele><time>2026-04-26T10:16:38.934Z</time></trkpt><trkpt lat="45.03651" lon="9.634455"><ele>65.0</ele><time>2026-04-26T10:16:39.934Z</time></trkpt><trkpt lat="45.0366867" lon="9.6344317"><ele>64.0</ele><time>2026-04-26T10:16:40.94Z</time></trkpt><trkpt lat="45.0368633" lon="9.6344083"><ele>63.0</ele><time>2026-04-26T10:16:41.935Z</time></trkpt><trkpt lat="45.0370367" lon="9.6343833"><ele>63.0</ele><time>2026-04-26T10:16:42.934Z</time></trkpt><trkpt lat="45.0371967" lon="9.634365"><ele>63.0</ele><time>2026-04-26T10:16:43.935Z</time></trkpt><trkpt lat="45.0373367" lon="9.634345"><ele>63.0</ele><time>2026-04-26T10:16:44.935Z</time></trkpt><trkpt lat="45.03746" lon="9.6343317"><ele>63.0</ele><time>2026-04-26T10:16:45.933Z</time></trkpt><trkpt lat="45.0375667" lon="9.634335"><ele>62.8</ele><time>2026-04-26T10:16:46.941Z</time></trkpt><trkpt lat="45.037655" lon="9.63437"><ele>62.599999999999994</ele><time>2026-04-26T10:16:47.936Z</time></trkpt><trkpt lat="45.0377233" lon="9.634435"><ele>62.400000000000006</ele><time>2026-04-26T10:16:48.935Z</time></trkpt><trkpt lat="45.03774" lon="9.6345567"><ele>62.2</ele><time>2026-04-26T10:16:49.934Z</time></trkpt><trkpt lat="45.03774" lon="9.6347017"><ele>62.0</ele><time>2026-04-26T10:16:50.934Z</time></trkpt><trkpt lat="45.0377483" lon="9.6348583"><ele>62.0</ele><time>2026-04-26T10:16:51.934Z</time></trkpt><trkpt lat="45.0377933" lon="9.6349917"><ele>62.0</ele><time>2026-04-26T10:16:52.934Z</time></trkpt><trkpt lat="45.0378867" lon="9.6350867"><ele>62.0</ele><time>2026-04-26T10:16:53.934Z</time></trkpt><trkpt lat="45.03801" lon="9.635155"><ele>62.0</ele><time>2026-04-26T10:16:54.935Z</time></trkpt><trkpt lat="45.0381533" lon="9.6352183"><ele>62.66666666666667</ele><time>2026-04-26T10:16:55.934Z</time></trkpt><trkpt lat="45.038305" lon="9.6352883"><ele>63.33333333333333</ele><time>2026-04-26T10:16:56.935Z</time></trkpt><trkpt lat="45.0384683" lon="9.6353667"><ele>64.0</ele><time>2026-04-26T10:16:57.94Z</time></trkpt><trkpt lat="45.0386333" lon="9.6354433"><ele>64.0</ele><time>2026-04-26T10:16:58.934Z</time></trkpt><trkpt lat="45.0388017" lon="9.6355183"><ele>64.0</ele><time>2026-04-26T10:16:59.933Z</time></trkpt><trkpt lat="45.03897" lon="9.6355933"><ele>64.0</ele><time>2026-04-26T10:17:00.935Z</time></trkpt><trkpt lat="45.0391383" lon="9.6356667"><ele>63.33333333333333</ele><time>2026-04-26T10:17:01.934Z</time></trkpt><trkpt lat="45.0393067" lon="9.63574"><ele>62.66666666666667</ele><time>2026-04-26T10:17:02.937Z</time></trkpt><trkpt lat="45.0394783" lon="9.6358133"><ele>62.0</ele><time>2026-04-26T10:17:03.936Z</time></trkpt><trkpt lat="45.0396483" lon="9.63589"><ele>62.0</ele><time>2026-04-26T10:17:04.936Z</time></trkpt><trkpt lat="45.0398167" lon="9.6359667"><ele>62.0</ele><time>2026-04-26T10:17:05.936Z</time></trkpt><trkpt lat="45.0399833" lon="9.6360417"><ele>62.0</ele><time>2026-04-26T10:17:06.935Z</time></trkpt><trkpt lat="45.0401533" lon="9.6361167"><ele>62.0</ele><time>2026-04-26T10:17:07.94Z</time></trkpt><trkpt lat="45.0403217" lon="9.6361917"><ele>62.0</ele><time>2026-04-26T10:17:08.935Z</time></trkpt><trkpt lat="45.04049" lon="9.636265"><ele>62.0</ele><time>2026-04-26T10:17:09.937Z</time></trkpt><trkpt lat="45.0406533" lon="9.6363383"><ele>62.0</ele><time>2026-04-26T10:17:10.936Z</time></trkpt><trkpt lat="45.04082" lon="9.636415"><ele>62.0</ele><time>2026-04-26T10:17:11.937Z</time></trkpt><trkpt lat="45.040985" lon="9.6364917"><ele>62.0</ele><time>2026-04-26T10:17:12.942Z</time></trkpt><trkpt lat="45.0411483" lon="9.6365683"><ele>62.0</ele><time>2026-04-26T10:17:13.936Z</time></trkpt><trkpt lat="45.0413117" lon="9.6366433"><ele>62.0</ele><time>2026-04-26T10:17:14.936Z</time></trkpt><trkpt lat="45.04147" lon="9.6367167"><ele>62.0</ele><time>2026-04-26T10:17:15.934Z</time></trkpt><trkpt lat="45.04163" lon="9.6367867"><ele>61.66666666666667</ele><time>2026-04-26T10:17:16.933Z</time></trkpt><trkpt lat="45.0417917" lon="9.6368567"><ele>61.33333333333333</ele><time>2026-04-26T10:17:17.935Z</time></trkpt><trkpt lat="45.041955" lon="9.63693"><ele>61.0</ele><time>2026-04-26T10:17:18.934Z</time></trkpt><trkpt lat="45.0421217" lon="9.6370083"><ele>61.0</ele><time>2026-04-26T10:17:19.934Z</time></trkpt><trkpt lat="45.0422867" lon="9.6370967"><ele>61.0</ele><time>2026-04-26T10:17:20.935Z</time></trkpt><trkpt lat="45.04245" lon="9.6371983"><ele>61.0</ele><time>2026-04-26T10:17:21.935Z</time></trkpt><trkpt lat="45.0426133" lon="9.6373117"><ele>61.0</ele><time>2026-04-26T10:17:22.935Z</time></trkpt><trkpt lat="45.0427733" lon="9.637425"><ele>61.0</ele><time>2026-04-26T10:17:23.933Z</time></trkpt><trkpt lat="45.0429367" lon="9.6375333"><ele>61.0</ele><time>2026-04-26T10:17:24.935Z</time></trkpt><trkpt lat="45.0431017" lon="9.6376283"><ele>61.0</ele><time>2026-04-26T10:17:25.936Z</time></trkpt><trkpt lat="45.04327" lon="9.637705"><ele>61.0</ele><time>2026-04-26T10:17:26.936Z</time></trkpt><trkpt lat="45.0434417" lon="9.6377683"><ele>61.0</ele><time>2026-04-26T10:17:27.941Z</time></trkpt><trkpt lat="45.0436133" lon="9.637825"><ele>61.0</ele><time>2026-04-26T10:17:28.934Z</time></trkpt><trkpt lat="45.0437833" lon="9.6378717"><ele>61.0</ele><time>2026-04-26T10:17:29.935Z</time></trkpt><trkpt lat="45.0439517" lon="9.63791"><ele>61.0</ele><time>2026-04-26T10:17:30.935Z</time></trkpt><trkpt lat="45.04412" lon="9.6379433"><ele>60.33333333333333</ele><time>2026-04-26T10:17:31.933Z</time></trkpt><trkpt lat="45.044285" lon="9.6379733"><ele>59.66666666666667</ele><time>2026-04-26T10:17:32.935Z</time></trkpt><trkpt lat="45.0444467" lon="9.6380067"><ele>59.0</ele><time>2026-04-26T10:17:33.936Z</time></trkpt><trkpt lat="45.0446083" lon="9.63804"><ele>59.0</ele><time>2026-04-26T10:17:34.941Z</time></trkpt><trkpt lat="45.0447683" lon="9.6380733"><ele>59.0</ele><time>2026-04-26T10:17:35.935Z</time></trkpt><trkpt lat="45.0449283" lon="9.6381033"><ele>59.0</ele><time>2026-04-26T10:17:36.935Z</time></trkpt><trkpt lat="45.045095" lon="9.638135"><ele>59.66666666666667</ele><time>2026-04-26T10:17:37.934Z</time></trkpt><trkpt lat="45.04526" lon="9.6381733"><ele>60.33333333333333</ele><time>2026-04-26T10:17:38.934Z</time></trkpt><trkpt lat="45.0454283" lon="9.638215"><ele>61.0</ele><time>2026-04-26T10:17:39.935Z</time></trkpt><trkpt lat="45.0456" lon="9.6382517"><ele>61.0</ele><time>2026-04-26T10:17:40.934Z</time></trkpt><trkpt lat="45.045775" lon="9.6382783"><ele>61.0</ele><time>2026-04-26T10:17:41.935Z</time></trkpt><trkpt lat="45.0459483" lon="9.6382983"><ele>61.0</ele><time>2026-04-26T10:17:42.937Z</time></trkpt><trkpt lat="45.0461217" lon="9.6383217"><ele>60.666666666666664</ele><time>2026-04-26T10:17:43.937Z</time></trkpt><trkpt lat="45.04629" lon="9.6383533"><ele>60.33333333333333</ele><time>2026-04-26T10:17:44.934Z</time></trkpt><trkpt lat="45.04646" lon="9.6383917"><ele>60.0</ele><time>2026-04-26T10:17:45.939Z</time></trkpt><trkpt lat="45.04663" lon="9.6384333"><ele>59.66666666666667</ele><time>2026-04-26T10:17:46.933Z</time></trkpt><trkpt lat="45.0468" lon="9.638475"><ele>59.333333333333336</ele><time>2026-04-26T10:17:47.935Z</time></trkpt><trkpt lat="45.04697" lon="9.6385117"><ele>59.0</ele><time>2026-04-26T10:17:48.935Z</time></trkpt><trkpt lat="45.0471417" lon="9.6385517"><ele>59.0</ele><time>2026-04-26T10:17:49.936Z</time></trkpt><trkpt lat="45.0473117" lon="9.6385983"><ele>59.0</ele><time>2026-04-26T10:17:50.942Z</time></trkpt><trkpt lat="45.0474817" lon="9.63865"><ele>59.0</ele><time>2026-04-26T10:17:51.935Z</time></trkpt><trkpt lat="45.04765" lon="9.6387033"><ele>59.0</ele><time>2026-04-26T10:17:52.935Z</time></trkpt><trkpt lat="45.0478167" lon="9.63876"><ele>59.0</ele><time>2026-04-26T10:17:53.936Z</time></trkpt><trkpt lat="45.047985" lon="9.638815"><ele>59.0</ele><time>2026-04-26T10:17:54.933Z</time></trkpt><trkpt lat="45.048155" lon="9.6388667"><ele>58.0</ele><time>2026-04-26T10:17:55.935Z</time></trkpt><trkpt lat="45.0483267" lon="9.6388983"><ele>57.0</ele><time>2026-04-26T10:17:56.934Z</time></trkpt><trkpt lat="45.0485017" lon="9.6389"><ele>56.0</ele><time>2026-04-26T10:17:57.933Z</time></trkpt><trkpt lat="45.0486767" lon="9.6388733"><ele>56.0</ele><time>2026-04-26T10:17:58.934Z</time></trkpt><trkpt lat="45.04885" lon="9.6388217"><ele>56.0</ele><time>2026-04-26T10:17:59.933Z</time></trkpt><trkpt lat="45.0490233" lon="9.6387583"><ele>56.0</ele><time>2026-04-26T10:18:00.934Z</time></trkpt><trkpt lat="45.049195" lon="9.63869"><ele>56.0</ele><time>2026-04-26T10:18:01.935Z</time></trkpt><trkpt lat="45.04936" lon="9.6386267"><ele>56.0</ele><time>2026-04-26T10:18:02.934Z</time></trkpt><trkpt lat="45.0495233" lon="9.6385817"><ele>56.0</ele><time>2026-04-26T10:18:03.936Z</time></trkpt><trkpt lat="45.0496883" lon="9.6385667"><ele>56.0</ele><time>2026-04-26T10:18:04.935Z</time></trkpt><trkpt lat="45.049855" lon="9.638565"><ele>56.0</ele><time>2026-04-26T10:18:05.939Z</time></trkpt><trkpt lat="45.0500217" lon="9.6385617"><ele>56.0</ele><time>2026-04-26T10:18:06.936Z</time></trkpt><trkpt lat="45.0501883" lon="9.6385683"><ele>56.0</ele><time>2026-04-26T10:18:07.936Z</time></trkpt><trkpt lat="45.0503517" lon="9.6386067"><ele>56.0</ele><time>2026-04-26T10:18:08.935Z</time></trkpt><trkpt lat="45.0505067" lon="9.6386833"><ele>56.0</ele><time>2026-04-26T10:18:09.934Z</time></trkpt><trkpt lat="45.0506567" lon="9.6387883"><ele>56.66666666666667</ele><time>2026-04-26T10:18:10.934Z</time></trkpt><trkpt lat="45.0508083" lon="9.6388783"><ele>57.33333333333333</ele><time>2026-04-26T10:18:11.934Z</time></trkpt><trkpt lat="45.0509667" lon="9.63894"><ele>58.0</ele><time>2026-04-26T10:18:12.94Z</time></trkpt><trkpt lat="45.0511317" lon="9.6389767"><ele>58.0</ele><time>2026-04-26T10:18:13.935Z</time></trkpt><trkpt lat="45.0513" lon="9.6389933"><ele>58.0</ele><time>2026-04-26T10:18:14.935Z</time></trkpt><trkpt lat="45.05147" lon="9.6389967"><ele>58.0</ele><time>2026-04-26T10:18:15.936Z</time></trkpt><trkpt lat="45.051645" lon="9.638995"><ele>59.0</ele><time>2026-04-26T10:18:16.933Z</time></trkpt><trkpt lat="45.0518167" lon="9.638995"><ele>60.0</ele><time>2026-04-26T10:18:17.935Z</time></trkpt><trkpt lat="45.0519833" lon="9.63901"><ele>61.0</ele><time>2026-04-26T10:18:18.938Z</time></trkpt><trkpt lat="45.052145" lon="9.639045"><ele>61.0</ele><time>2026-04-26T10:18:19.935Z</time></trkpt><trkpt lat="45.052305" lon="9.6390983"><ele>61.0</ele><time>2026-04-26T10:18:20.934Z</time></trkpt><trkpt lat="45.0524533" lon="9.63916"><ele>61.0</ele><time>2026-04-26T10:18:21.934Z</time></trkpt><trkpt lat="45.0525833" lon="9.6392117"><ele>60.666666666666664</ele><time>2026-04-26T10:18:22.936Z</time></trkpt><trkpt lat="45.05269" lon="9.6392483"><ele>60.33333333333333</ele><time>2026-04-26T10:18:23.934Z</time></trkpt><trkpt lat="45.0527767" lon="9.6392867"><ele>60.0</ele><time>2026-04-26T10:18:24.941Z</time></trkpt><trkpt lat="45.052835" lon="9.6393417"><ele>59.66666666666667</ele><time>2026-04-26T10:18:25.933Z</time></trkpt><trkpt lat="45.0528583" lon="9.63949"><ele>59.333333333333336</ele><time>2026-04-26T10:18:27.935Z</time></trkpt><trkpt lat="45.0528317" lon="9.63958"><ele>59.0</ele><time>2026-04-26T10:18:28.935Z</time></trkpt><trkpt lat="45.0527717" lon="9.63969"><ele>59.0</ele><time>2026-04-26T10:18:29.935Z</time></trkpt><trkpt lat="45.0526867" lon="9.6398167"><ele>59.0</ele><time>2026-04-26T10:18:30.936Z</time></trkpt><trkpt lat="45.0525717" lon="9.639965"><ele>59.0</ele><time>2026-04-26T10:18:31.94Z</time></trkpt><trkpt lat="45.0524617" lon="9.6401433"><ele>59.0</ele><time>2026-04-26T10:18:32.934Z</time></trkpt><trkpt lat="45.0523633" lon="9.6403417"><ele>57.66666666666667</ele><time>2026-04-26T10:18:33.934Z</time></trkpt><trkpt lat="45.05227" lon="9.64055"><ele>56.33333333333333</ele><time>2026-04-26T10:18:34.935Z</time></trkpt><trkpt lat="45.0521933" lon="9.6407717"><ele>55.0</ele><time>2026-04-26T10:18:35.934Z</time></trkpt><trkpt lat="45.052135" lon="9.6410033"><ele>56.0</ele><time>2026-04-26T10:18:36.935Z</time></trkpt><trkpt lat="45.05209" lon="9.6412433"><ele>57.0</ele><time>2026-04-26T10:18:37.935Z</time></trkpt><trkpt lat="45.0520533" lon="9.6414883"><ele>58.0</ele><time>2026-04-26T10:18:38.936Z</time></trkpt><trkpt lat="45.0520267" lon="9.6417333"><ele>57.666666666666664</ele><time>2026-04-26T10:18:39.935Z</time></trkpt><trkpt lat="45.0520067" lon="9.6419817"><ele>57.33333333333333</ele><time>2026-04-26T10:18:40.934Z</time></trkpt><trkpt lat="45.0519917" lon="9.6422317"><ele>57.0</ele><time>2026-04-26T10:18:41.939Z</time></trkpt><trkpt lat="45.051975" lon="9.6424767"><ele>57.0</ele><time>2026-04-26T10:18:42.935Z</time></trkpt><trkpt lat="45.0519567" lon="9.642725"><ele>57.0</ele><time>2026-04-26T10:18:43.933Z</time></trkpt><trkpt lat="45.0519367" lon="9.64297"><ele>57.0</ele><time>2026-04-26T10:18:44.937Z</time></trkpt><trkpt lat="45.051915" lon="9.64321"><ele>57.0</ele><time>2026-04-26T10:18:45.935Z</time></trkpt><trkpt lat="45.0518933" lon="9.64345"><ele>57.0</ele><time>2026-04-26T10:18:46.935Z</time></trkpt><trkpt lat="45.0518733" lon="9.6436917"><ele>57.0</ele><time>2026-04-26T10:18:47.937Z</time></trkpt><trkpt lat="45.051855" lon="9.64393"><ele>57.0</ele><time>2026-04-26T10:18:48.936Z</time></trkpt><trkpt lat="45.0518367" lon="9.64417"><ele>57.0</ele><time>2026-04-26T10:18:49.935Z</time></trkpt><trkpt lat="45.05182" lon="9.6444133"><ele>57.0</ele><time>2026-04-26T10:18:50.937Z</time></trkpt><trkpt lat="45.0518" lon="9.6446583"><ele>56.66666666666667</ele><time>2026-04-26T10:18:51.939Z</time></trkpt><trkpt lat="45.05178" lon="9.6449017"><ele>56.333333333333336</ele><time>2026-04-26T10:18:52.935Z</time></trkpt><trkpt lat="45.0517633" lon="9.64515"><ele>56.0</ele><time>2026-04-26T10:18:53.934Z</time></trkpt><trkpt lat="45.051745" lon="9.645395"><ele>57.333333333333336</ele><time>2026-04-26T10:18:54.934Z</time></trkpt><trkpt lat="45.051725" lon="9.6456383"><ele>58.66666666666667</ele><time>2026-04-26T10:18:55.936Z</time></trkpt><trkpt lat="45.0517033" lon="9.6458817"><ele>60.0</ele><time>2026-04-26T10:18:56.936Z</time></trkpt><trkpt lat="45.0516817" lon="9.6461233"><ele>60.66666666666667</ele><time>2026-04-26T10:18:57.934Z</time></trkpt><trkpt lat="45.0516633" lon="9.646365"><ele>61.333333333333336</ele><time>2026-04-26T10:18:58.934Z</time></trkpt><trkpt lat="45.051645" lon="9.646605"><ele>62.0</ele><time>2026-04-26T10:18:59.935Z</time></trkpt><trkpt lat="45.051625" lon="9.646845"><ele>61.0</ele><time>2026-04-26T10:19:00.935Z</time></trkpt><trkpt lat="45.0516067" lon="9.6470833"><ele>60.0</ele><time>2026-04-26T10:19:01.934Z</time></trkpt><trkpt lat="45.0515867" lon="9.6473233"><ele>59.0</ele><time>2026-04-26T10:19:02.935Z</time></trkpt><trkpt lat="45.051565" lon="9.647565"><ele>58.66666666666667</ele><time>2026-04-26T10:19:03.934Z</time></trkpt><trkpt lat="45.0515433" lon="9.6478067"><ele>58.33333333333333</ele><time>2026-04-26T10:19:04.935Z</time></trkpt><trkpt lat="45.0515217" lon="9.64805"><ele>58.0</ele><time>2026-04-26T10:19:05.935Z</time></trkpt><trkpt lat="45.0515" lon="9.6482933"><ele>58.0</ele><time>2026-04-26T10:19:06.935Z</time></trkpt><trkpt lat="45.05148" lon="9.6485367"><ele>58.0</ele><time>2026-04-26T10:19:07.934Z</time></trkpt><trkpt lat="45.051465" lon="9.6487833"><ele>58.0</ele><time>2026-04-26T10:19:08.934Z</time></trkpt><trkpt lat="45.0514433" lon="9.6490267"><ele>58.33333333333333</ele><time>2026-04-26T10:19:09.936Z</time></trkpt><trkpt lat="45.051425" lon="9.6492733"><ele>58.66666666666667</ele><time>2026-04-26T10:19:10.934Z</time></trkpt><trkpt lat="45.051405" lon="9.6495183"><ele>59.0</ele><time>2026-04-26T10:19:11.944Z</time></trkpt><trkpt lat="45.051385" lon="9.64977"><ele>59.0</ele><time>2026-04-26T10:19:12.936Z</time></trkpt><trkpt lat="45.0513667" lon="9.6500117"><ele>59.0</ele><time>2026-04-26T10:19:13.935Z</time></trkpt><trkpt lat="45.051355" lon="9.6502617"><ele>59.0</ele><time>2026-04-26T10:19:14.937Z</time></trkpt><trkpt lat="45.0513417" lon="9.6505"><ele>59.0</ele><time>2026-04-26T10:19:15.937Z</time></trkpt><trkpt lat="45.0513267" lon="9.65074"><ele>59.0</ele><time>2026-04-26T10:19:16.934Z</time></trkpt><trkpt lat="45.0513083" lon="9.6509833"><ele>59.0</ele><time>2026-04-26T10:19:17.934Z</time></trkpt><trkpt lat="45.0512917" lon="9.6512317"><ele>59.0</ele><time>2026-04-26T10:19:18.934Z</time></trkpt><trkpt lat="45.0512733" lon="9.6514767"><ele>59.0</ele><time>2026-04-26T10:19:19.937Z</time></trkpt><trkpt lat="45.0512567" lon="9.65172"><ele>59.0</ele><time>2026-04-26T10:19:20.936Z</time></trkpt><trkpt lat="45.0512383" lon="9.6519633"><ele>59.0</ele><time>2026-04-26T10:19:21.94Z</time></trkpt><trkpt lat="45.05122" lon="9.6522067"><ele>59.0</ele><time>2026-04-26T10:19:22.934Z</time></trkpt><trkpt lat="45.0512033" lon="9.6524483"><ele>59.0</ele><time>2026-04-26T10:19:23.933Z</time></trkpt><trkpt lat="45.051185" lon="9.652685"><ele>58.75</ele><time>2026-04-26T10:19:24.935Z</time></trkpt><trkpt lat="45.0511667" lon="9.6529083"><ele>58.5</ele><time>2026-04-26T10:19:25.933Z</time></trkpt><trkpt lat="45.051145" lon="9.6531133"><ele>58.25</ele><time>2026-04-26T10:19:26.935Z</time></trkpt><trkpt lat="45.0511183" lon="9.6532967"><ele>58.0</ele><time>2026-04-26T10:19:27.934Z</time></trkpt><trkpt lat="45.05108" lon="9.653455"><ele>57.99999999999999</ele><time>2026-04-26T10:19:28.933Z</time></trkpt><trkpt lat="45.051035" lon="9.65359"><ele>58.0</ele><time>2026-04-26T10:19:29.935Z</time></trkpt><trkpt lat="45.051005" lon="9.6537167"><ele>58.0</ele><time>2026-04-26T10:19:30.941Z</time></trkpt><trkpt lat="45.0510033" lon="9.6538367"><ele>58.0</ele><time>2026-04-26T10:19:31.935Z</time></trkpt><trkpt lat="45.05103" lon="9.653945"><ele>57.99999999999999</ele><time>2026-04-26T10:19:32.934Z</time></trkpt><trkpt lat="45.0510817" lon="9.654015"><ele>58.0</ele><time>2026-04-26T10:19:33.934Z</time></trkpt><trkpt lat="45.0511567" lon="9.6540033"><ele>57.99999999999999</ele><time>2026-04-26T10:19:34.934Z</time></trkpt><trkpt lat="45.0512217" lon="9.6539583"><ele>58.0</ele><time>2026-04-26T10:19:35.935Z</time></trkpt><trkpt lat="45.051275" lon="9.6538783"><ele>58.0</ele><time>2026-04-26T10:19:36.935Z</time></trkpt><trkpt lat="45.0512983" lon="9.6537767"><ele>58.0</ele><time>2026-04-26T10:19:37.934Z</time></trkpt><trkpt lat="45.0512967" lon="9.6536483"><ele>57.99999999999999</ele><time>2026-04-26T10:19:38.936Z</time></trkpt><trkpt lat="45.0512767" lon="9.6534833"><ele>58.0</ele><time>2026-04-26T10:19:39.933Z</time></trkpt><trkpt lat="45.0512617" lon="9.6532917"><ele>58.0</ele><time>2026-04-26T10:19:40.934Z</time></trkpt><trkpt lat="45.05126" lon="9.65309"><ele>58.0</ele><time>2026-04-26T10:19:41.935Z</time></trkpt><trkpt lat="45.0512717" lon="9.6528733"><ele>58.0</ele><time>2026-04-26T10:19:42.935Z</time></trkpt><trkpt lat="45.0512867" lon="9.652645"><ele>58.33333333333333</ele><time>2026-04-26T10:19:43.938Z</time></trkpt><trkpt lat="45.0513017" lon="9.6524083"><ele>58.66666666666667</ele><time>2026-04-26T10:19:44.934Z</time></trkpt><trkpt lat="45.0513167" lon="9.6521667"><ele>59.0</ele><time>2026-04-26T10:19:45.936Z</time></trkpt><trkpt lat="45.051335" lon="9.65193"><ele>59.0</ele><time>2026-04-26T10:19:46.934Z</time></trkpt><trkpt lat="45.051355" lon="9.651695"><ele>59.0</ele><time>2026-04-26T10:19:47.934Z</time></trkpt><trkpt lat="45.051375" lon="9.651465"><ele>59.0</ele><time>2026-04-26T10:19:48.935Z</time></trkpt><trkpt lat="45.0513967" lon="9.6512467"><ele>59.0</ele><time>2026-04-26T10:19:49.934Z</time></trkpt><trkpt lat="45.0514217" lon="9.6510333"><ele>59.0</ele><time>2026-04-26T10:19:50.935Z</time></trkpt><trkpt lat="45.0514617" lon="9.6508267"><ele>59.0</ele><time>2026-04-26T10:19:51.941Z</time></trkpt><trkpt lat="45.0515117" lon="9.6506217"><ele>59.0</ele><time>2026-04-26T10:19:52.935Z</time></trkpt><trkpt lat="45.05155" lon="9.6504333"><ele>59.0</ele><time>2026-04-26T10:19:53.935Z</time></trkpt><trkpt lat="45.0515717" lon="9.65026"><ele>59.0</ele><time>2026-04-26T10:19:54.933Z</time></trkpt><trkpt lat="45.051585" lon="9.6501067"><ele>59.0</ele><time>2026-04-26T10:19:55.935Z</time></trkpt><trkpt lat="45.0516017" lon="9.6499767"><ele>59.0</ele><time>2026-04-26T10:19:56.934Z</time></trkpt><trkpt lat="45.051615" lon="9.6498617"><ele>59.00000000000001</ele><time>2026-04-26T10:19:57.934Z</time></trkpt><trkpt lat="45.0516333" lon="9.6497567"><ele>59.00000000000001</ele><time>2026-04-26T10:19:58.934Z</time></trkpt><trkpt lat="45.0517367" lon="9.6497017"><ele>59.0</ele><time>2026-04-26T10:20:00.935Z</time></trkpt><trkpt lat="45.05182" lon="9.6497283"><ele>59.0</ele><time>2026-04-26T10:20:01.941Z</time></trkpt><trkpt lat="45.0519117" lon="9.649765"><ele>59.0</ele><time>2026-04-26T10:20:02.934Z</time></trkpt><trkpt lat="45.0520283" lon="9.6498033"><ele>59.0</ele><time>2026-04-26T10:20:03.937Z</time></trkpt><trkpt lat="45.052155" lon="9.64984"><ele>59.0</ele><time>2026-04-26T10:20:04.935Z</time></trkpt><trkpt lat="45.0522867" lon="9.6498717"><ele>59.0</ele><time>2026-04-26T10:20:05.934Z</time></trkpt><trkpt lat="45.0524283" lon="9.6499033"><ele>59.0</ele><time>2026-04-26T10:20:06.941Z</time></trkpt><trkpt lat="45.0525767" lon="9.64994"><ele>59.0</ele><time>2026-04-26T10:20:07.934Z</time></trkpt><trkpt lat="45.0527317" lon="9.6499783"><ele>59.0</ele><time>2026-04-26T10:20:08.936Z</time></trkpt><trkpt lat="45.0528833" lon="9.65002"><ele>59.0</ele><time>2026-04-26T10:20:09.934Z</time></trkpt><trkpt lat="45.0530333" lon="9.65006"><ele>59.0</ele><time>2026-04-26T10:20:10.935Z</time></trkpt><trkpt lat="45.0531833" lon="9.6501017"><ele>59.0</ele><time>2026-04-26T10:20:11.934Z</time></trkpt><trkpt lat="45.0533217" lon="9.650145"><ele>59.0</ele><time>2026-04-26T10:20:12.936Z</time></trkpt><trkpt lat="45.0534417" lon="9.6501833"><ele>62.0</ele><time>2026-04-26T10:20:13.94Z</time></trkpt><trkpt lat="45.053545" lon="9.6502167"><ele>62.0</ele><time>2026-04-26T10:20:14.935Z</time></trkpt><trkpt lat="45.05363" lon="9.6502483"><ele>62.0</ele><time>2026-04-26T10:20:15.935Z</time></trkpt><trkpt lat="45.053705" lon="9.6502817"><ele>62.0</ele><time>2026-04-26T10:20:16.935Z</time></trkpt><trkpt lat="45.0537867" lon="9.6502633"><ele>62.0</ele><time>2026-04-26T10:20:18.937Z</time></trkpt></trkseg></trk></gpx>